<?xml version="1.0" encoding="UTF-8"?>
<gpx creator="Garmin Connect" version="1.1"
  xsi:schemaLocation="http://www.topografix.com/GPX/1/1 http://www.topografix.com/GPX/11.xsd"
  xmlns:ns3="http://www.garmin.com/xmlschemas/TrackPointExtension/v1"
  xmlns="http://www.topografix.com/GPX/1/1"
  xmlns:xsi="http://www.w3.org/2001/XMLSchema-instance" xmlns:ns2="http://www.garmin.com/xmlschemas/GpxExtensions/v3">
  <metadata>
    <link href="connect.garmin.com">
      <text>Garmin Connect</text>
    </link>
    <time>2021-06-04T07:02:40.000Z</time>
  </metadata>
  <trk>
    <name>Camerino Ciclismo</name>
    <type>cycling</type>
    <trkseg>
      <trkpt lat="43.1286232732236385345458984375" lon="13.06822230108082294464111328125">
        <ele>457.20001220703125</ele>
        <time>2021-06-04T07:03:17.000Z</time>
        <extensions>
          <ns3:TrackPointExtension>
            <ns3:atemp>19.0</ns3:atemp>
          </ns3:TrackPointExtension>
        </extensions>
      </trkpt>
      <trkpt lat="43.128638528287410736083984375" lon="13.068183995783329010009765625">
        <ele>457.600006103515625</ele>
        <time>2021-06-04T07:03:19.000Z</time>
        <extensions>
          <ns3:TrackPointExtension>
            <ns3:atemp>19.0</ns3:atemp>
          </ns3:TrackPointExtension>
        </extensions>
      </trkpt>
      <trkpt lat="43.128640539944171905517578125" lon="13.06816480122506618499755859375">
        <ele>458</ele>
        <time>2021-06-04T07:03:20.000Z</time>
        <extensions>
          <ns3:TrackPointExtension>
            <ns3:atemp>19.0</ns3:atemp>
          </ns3:TrackPointExtension>
        </extensions>
      </trkpt>
      <trkpt lat="43.12866845168173313140869140625" lon="13.06811048649251461029052734375">
        <ele>458.20001220703125</ele>
        <time>2021-06-04T07:03:23.000Z</time>
        <extensions>
          <ns3:TrackPointExtension>
            <ns3:atemp>19.0</ns3:atemp>
          </ns3:TrackPointExtension>
        </extensions>
      </trkpt>
      <trkpt lat="43.12868957407772541046142578125" lon="13.06809338741004467010498046875">
        <ele>458.399993896484375</ele>
        <time>2021-06-04T07:03:24.000Z</time>
        <extensions>
          <ns3:TrackPointExtension>
            <ns3:atemp>19.0</ns3:atemp>
          </ns3:TrackPointExtension>
        </extensions>
      </trkpt>
      <trkpt lat="43.1287127919495105743408203125" lon="13.0680669844150543212890625">
        <ele>458.20001220703125</ele>
        <time>2021-06-04T07:03:25.000Z</time>
        <extensions>
          <ns3:TrackPointExtension>
            <ns3:atemp>19.0</ns3:atemp>
          </ns3:TrackPointExtension>
        </extensions>
      </trkpt>
      <trkpt lat="43.1287325732409954071044921875" lon="13.06802985258400440216064453125">
        <ele>458.399993896484375</ele>
        <time>2021-06-04T07:03:26.000Z</time>
        <extensions>
          <ns3:TrackPointExtension>
            <ns3:atemp>19.0</ns3:atemp>
          </ns3:TrackPointExtension>
        </extensions>
      </trkpt>
      <trkpt lat="43.12875042669475078582763671875" lon="13.0679865181446075439453125">
        <ele>458.600006103515625</ele>
        <time>2021-06-04T07:03:27.000Z</time>
        <extensions>
          <ns3:TrackPointExtension>
            <ns3:atemp>19.0</ns3:atemp>
          </ns3:TrackPointExtension>
        </extensions>
      </trkpt>
      <trkpt lat="43.128766603767871856689453125" lon="13.0679420940577983856201171875">
        <ele>458.399993896484375</ele>
        <time>2021-06-04T07:03:28.000Z</time>
        <extensions>
          <ns3:TrackPointExtension>
            <ns3:atemp>19.0</ns3:atemp>
          </ns3:TrackPointExtension>
        </extensions>
      </trkpt>
      <trkpt lat="43.12878579832613468170166015625" lon="13.06790311820805072784423828125">
        <ele>458.600006103515625</ele>
        <time>2021-06-04T07:03:29.000Z</time>
        <extensions>
          <ns3:TrackPointExtension>
            <ns3:atemp>19.0</ns3:atemp>
          </ns3:TrackPointExtension>
        </extensions>
      </trkpt>
      <trkpt lat="43.12880985438823699951171875" lon="13.067874871194362640380859375">
        <ele>458.600006103515625</ele>
        <time>2021-06-04T07:03:30.000Z</time>
        <extensions>
          <ns3:TrackPointExtension>
            <ns3:atemp>19.0</ns3:atemp>
          </ns3:TrackPointExtension>
        </extensions>
      </trkpt>
      <trkpt lat="43.128834329545497894287109375" lon="13.06785039603710174560546875">
        <ele>458.399993896484375</ele>
        <time>2021-06-04T07:03:31.000Z</time>
        <extensions>
          <ns3:TrackPointExtension>
            <ns3:atemp>19.0</ns3:atemp>
          </ns3:TrackPointExtension>
        </extensions>
      </trkpt>
      <trkpt lat="43.12885637395083904266357421875" lon="13.0678237415850162506103515625">
        <ele>458.600006103515625</ele>
        <time>2021-06-04T07:03:32.000Z</time>
        <extensions>
          <ns3:TrackPointExtension>
            <ns3:atemp>19.0</ns3:atemp>
          </ns3:TrackPointExtension>
        </extensions>
      </trkpt>
      <trkpt lat="43.128875903785228729248046875" lon="13.06779448874294757843017578125">
        <ele>458.79998779296875</ele>
        <time>2021-06-04T07:03:33.000Z</time>
        <extensions>
          <ns3:TrackPointExtension>
            <ns3:atemp>19.0</ns3:atemp>
          </ns3:TrackPointExtension>
        </extensions>
      </trkpt>
      <trkpt lat="43.12889526598155498504638671875" lon="13.06777001358568668365478515625">
        <ele>458.79998779296875</ele>
        <time>2021-06-04T07:03:34.000Z</time>
        <extensions>
          <ns3:TrackPointExtension>
            <ns3:atemp>19.0</ns3:atemp>
          </ns3:TrackPointExtension>
        </extensions>
      </trkpt>
      <trkpt lat="43.128915466368198394775390625" lon="13.06775174103677272796630859375">
        <ele>459</ele>
        <time>2021-06-04T07:03:35.000Z</time>
        <extensions>
          <ns3:TrackPointExtension>
            <ns3:atemp>19.0</ns3:atemp>
          </ns3:TrackPointExtension>
        </extensions>
      </trkpt>
      <trkpt lat="43.128934241831302642822265625" lon="13.06773640215396881103515625">
        <ele>459.399993896484375</ele>
        <time>2021-06-04T07:03:36.000Z</time>
        <extensions>
          <ns3:TrackPointExtension>
            <ns3:atemp>19.0</ns3:atemp>
          </ns3:TrackPointExtension>
        </extensions>
      </trkpt>
      <trkpt lat="43.12895460985600948333740234375" lon="13.0677221529185771942138671875">
        <ele>459.600006103515625</ele>
        <time>2021-06-04T07:03:37.000Z</time>
        <extensions>
          <ns3:TrackPointExtension>
            <ns3:atemp>19.0</ns3:atemp>
          </ns3:TrackPointExtension>
        </extensions>
      </trkpt>
      <trkpt lat="43.12897556461393833160400390625" lon="13.06771167553961277008056640625">
        <ele>459.79998779296875</ele>
        <time>2021-06-04T07:03:38.000Z</time>
        <extensions>
          <ns3:TrackPointExtension>
            <ns3:atemp>19.0</ns3:atemp>
          </ns3:TrackPointExtension>
        </extensions>
      </trkpt>
      <trkpt lat="43.12899895012378692626953125" lon="13.0677000246942043304443359375">
        <ele>460</ele>
        <time>2021-06-04T07:03:39.000Z</time>
        <extensions>
          <ns3:TrackPointExtension>
            <ns3:atemp>19.0</ns3:atemp>
          </ns3:TrackPointExtension>
        </extensions>
      </trkpt>
      <trkpt lat="43.12902443110942840576171875" lon="13.0676862783730030059814453125">
        <ele>460</ele>
        <time>2021-06-04T07:03:40.000Z</time>
        <extensions>
          <ns3:TrackPointExtension>
            <ns3:atemp>19.0</ns3:atemp>
          </ns3:TrackPointExtension>
        </extensions>
      </trkpt>
      <trkpt lat="43.1290504150092601776123046875" lon="13.06766876019537448883056640625">
        <ele>460.399993896484375</ele>
        <time>2021-06-04T07:03:41.000Z</time>
        <extensions>
          <ns3:TrackPointExtension>
            <ns3:atemp>19.0</ns3:atemp>
          </ns3:TrackPointExtension>
        </extensions>
      </trkpt>
      <trkpt lat="43.12908343970775604248046875" lon="13.06764311157166957855224609375">
        <ele>460.79998779296875</ele>
        <time>2021-06-04T07:03:42.000Z</time>
        <extensions>
          <ns3:TrackPointExtension>
            <ns3:atemp>19.0</ns3:atemp>
          </ns3:TrackPointExtension>
        </extensions>
      </trkpt>
      <trkpt lat="43.12910481356084346771240234375" lon="13.06761008687317371368408203125">
        <ele>461</ele>
        <time>2021-06-04T07:03:43.000Z</time>
        <extensions>
          <ns3:TrackPointExtension>
            <ns3:atemp>19.0</ns3:atemp>
          </ns3:TrackPointExtension>
        </extensions>
      </trkpt>
      <trkpt lat="43.1291228346526622772216796875" lon="13.06757186539471149444580078125">
        <ele>461.399993896484375</ele>
        <time>2021-06-04T07:03:44.000Z</time>
        <extensions>
          <ns3:TrackPointExtension>
            <ns3:atemp>19.0</ns3:atemp>
          </ns3:TrackPointExtension>
        </extensions>
      </trkpt>
      <trkpt lat="43.1291349045932292938232421875" lon="13.067538253962993621826171875">
        <ele>461.79998779296875</ele>
        <time>2021-06-04T07:03:45.000Z</time>
        <extensions>
          <ns3:TrackPointExtension>
            <ns3:atemp>19.0</ns3:atemp>
          </ns3:TrackPointExtension>
        </extensions>
      </trkpt>
      <trkpt lat="43.1291449628770351409912109375" lon="13.06751034222543239593505859375">
        <ele>462.399993896484375</ele>
        <time>2021-06-04T07:03:46.000Z</time>
        <extensions>
          <ns3:TrackPointExtension>
            <ns3:atemp>19.0</ns3:atemp>
          </ns3:TrackPointExtension>
        </extensions>
      </trkpt>
      <trkpt lat="43.12913884408771991729736328125" lon="13.06747044436633586883544921875">
        <ele>462.79998779296875</ele>
        <time>2021-06-04T07:03:47.000Z</time>
        <extensions>
          <ns3:TrackPointExtension>
            <ns3:atemp>19.0</ns3:atemp>
          </ns3:TrackPointExtension>
        </extensions>
      </trkpt>
      <trkpt lat="43.12913498841226100921630859375" lon="13.06743775494396686553955078125">
        <ele>463</ele>
        <time>2021-06-04T07:03:48.000Z</time>
        <extensions>
          <ns3:TrackPointExtension>
            <ns3:atemp>19.0</ns3:atemp>
          </ns3:TrackPointExtension>
        </extensions>
      </trkpt>
      <trkpt lat="43.12912627123296260833740234375" lon="13.06740674190223217010498046875">
        <ele>463.399993896484375</ele>
        <time>2021-06-04T07:03:49.000Z</time>
        <extensions>
          <ns3:TrackPointExtension>
            <ns3:atemp>19.0</ns3:atemp>
          </ns3:TrackPointExtension>
        </extensions>
      </trkpt>
      <trkpt lat="43.12911964952945709228515625" lon="13.06736667640507221221923828125">
        <ele>463.600006103515625</ele>
        <time>2021-06-04T07:03:50.000Z</time>
        <extensions>
          <ns3:TrackPointExtension>
            <ns3:atemp>19.0</ns3:atemp>
          </ns3:TrackPointExtension>
        </extensions>
      </trkpt>
      <trkpt lat="43.129115290939807891845703125" lon="13.06732191704213619232177734375">
        <ele>463.79998779296875</ele>
        <time>2021-06-04T07:03:51.000Z</time>
        <extensions>
          <ns3:TrackPointExtension>
            <ns3:atemp>19.0</ns3:atemp>
          </ns3:TrackPointExtension>
        </extensions>
      </trkpt>
      <trkpt lat="43.129106573760509490966796875" lon="13.06727782823145389556884765625">
        <ele>464.399993896484375</ele>
        <time>2021-06-04T07:03:52.000Z</time>
        <extensions>
          <ns3:TrackPointExtension>
            <ns3:atemp>20.0</ns3:atemp>
          </ns3:TrackPointExtension>
        </extensions>
      </trkpt>
      <trkpt lat="43.1290988624095916748046875" lon="13.06723508052527904510498046875">
        <ele>464.79998779296875</ele>
        <time>2021-06-04T07:03:53.000Z</time>
        <extensions>
          <ns3:TrackPointExtension>
            <ns3:atemp>19.0</ns3:atemp>
          </ns3:TrackPointExtension>
        </extensions>
      </trkpt>
      <trkpt lat="43.12909458763897418975830078125" lon="13.06719266809523105621337890625">
        <ele>465.20001220703125</ele>
        <time>2021-06-04T07:03:54.000Z</time>
        <extensions>
          <ns3:TrackPointExtension>
            <ns3:atemp>20.0</ns3:atemp>
          </ns3:TrackPointExtension>
        </extensions>
      </trkpt>
      <trkpt lat="43.129087798297405242919921875" lon="13.06715075857937335968017578125">
        <ele>465.79998779296875</ele>
        <time>2021-06-04T07:03:55.000Z</time>
        <extensions>
          <ns3:TrackPointExtension>
            <ns3:atemp>20.0</ns3:atemp>
          </ns3:TrackPointExtension>
        </extensions>
      </trkpt>
      <trkpt lat="43.1290819309651851654052734375" lon="13.0671079270541667938232421875">
        <ele>466.399993896484375</ele>
        <time>2021-06-04T07:03:56.000Z</time>
        <extensions>
          <ns3:TrackPointExtension>
            <ns3:atemp>20.0</ns3:atemp>
          </ns3:TrackPointExtension>
        </extensions>
      </trkpt>
      <trkpt lat="43.12907514162361621856689453125" lon="13.0670670233666896820068359375">
        <ele>467</ele>
        <time>2021-06-04T07:03:57.000Z</time>
        <extensions>
          <ns3:TrackPointExtension>
            <ns3:atemp>20.0</ns3:atemp>
          </ns3:TrackPointExtension>
        </extensions>
      </trkpt>
      <trkpt lat="43.12906734645366668701171875" lon="13.067027628421783447265625">
        <ele>467.20001220703125</ele>
        <time>2021-06-04T07:03:58.000Z</time>
        <extensions>
          <ns3:TrackPointExtension>
            <ns3:atemp>20.0</ns3:atemp>
          </ns3:TrackPointExtension>
        </extensions>
      </trkpt>
      <trkpt lat="43.1290577910840511322021484375" lon="13.06698806583881378173828125">
        <ele>467.79998779296875</ele>
        <time>2021-06-04T07:03:59.000Z</time>
        <extensions>
          <ns3:TrackPointExtension>
            <ns3:atemp>20.0</ns3:atemp>
          </ns3:TrackPointExtension>
        </extensions>
      </trkpt>
      <trkpt lat="43.129047565162181854248046875" lon="13.0669458210468292236328125">
        <ele>468</ele>
        <time>2021-06-04T07:04:00.000Z</time>
        <extensions>
          <ns3:TrackPointExtension>
            <ns3:atemp>20.0</ns3:atemp>
          </ns3:TrackPointExtension>
        </extensions>
      </trkpt>
      <trkpt lat="43.12903591431677341461181640625" lon="13.066905923187732696533203125">
        <ele>468.20001220703125</ele>
        <time>2021-06-04T07:04:01.000Z</time>
        <extensions>
          <ns3:TrackPointExtension>
            <ns3:atemp>20.0</ns3:atemp>
          </ns3:TrackPointExtension>
        </extensions>
      </trkpt>
      <trkpt lat="43.129022754728794097900390625" lon="13.06686468422412872314453125">
        <ele>468.600006103515625</ele>
        <time>2021-06-04T07:04:02.000Z</time>
        <extensions>
          <ns3:TrackPointExtension>
            <ns3:atemp>20.0</ns3:atemp>
          </ns3:TrackPointExtension>
        </extensions>
      </trkpt>
      <trkpt lat="43.129010014235973358154296875" lon="13.066824115812778472900390625">
        <ele>468.79998779296875</ele>
        <time>2021-06-04T07:04:03.000Z</time>
        <extensions>
          <ns3:TrackPointExtension>
            <ns3:atemp>20.0</ns3:atemp>
          </ns3:TrackPointExtension>
        </extensions>
      </trkpt>
      <trkpt lat="43.12900071032345294952392578125" lon="13.06678363122045993804931640625">
        <ele>469.20001220703125</ele>
        <time>2021-06-04T07:04:04.000Z</time>
        <extensions>
          <ns3:TrackPointExtension>
            <ns3:atemp>20.0</ns3:atemp>
          </ns3:TrackPointExtension>
        </extensions>
      </trkpt>
      <trkpt lat="43.12898931093513965606689453125" lon="13.06674155406653881072998046875">
        <ele>469.600006103515625</ele>
        <time>2021-06-04T07:04:05.000Z</time>
        <extensions>
          <ns3:TrackPointExtension>
            <ns3:atemp>20.0</ns3:atemp>
          </ns3:TrackPointExtension>
        </extensions>
      </trkpt>
      <trkpt lat="43.12897606752812862396240234375" lon="13.066700063645839691162109375">
        <ele>470</ele>
        <time>2021-06-04T07:04:06.000Z</time>
        <extensions>
          <ns3:TrackPointExtension>
            <ns3:atemp>20.0</ns3:atemp>
          </ns3:TrackPointExtension>
        </extensions>
      </trkpt>
      <trkpt lat="43.12896014191210269927978515625" lon="13.0666583217680454254150390625">
        <ele>470</ele>
        <time>2021-06-04T07:04:07.000Z</time>
        <extensions>
          <ns3:TrackPointExtension>
            <ns3:atemp>20.0</ns3:atemp>
          </ns3:TrackPointExtension>
        </extensions>
      </trkpt>
      <trkpt lat="43.12894488684833049774169921875" lon="13.06661951355636119842529296875">
        <ele>470.600006103515625</ele>
        <time>2021-06-04T07:04:08.000Z</time>
        <extensions>
          <ns3:TrackPointExtension>
            <ns3:atemp>20.0</ns3:atemp>
          </ns3:TrackPointExtension>
        </extensions>
      </trkpt>
      <trkpt lat="43.12891437672078609466552734375" lon="13.06654742918908596038818359375">
        <ele>471.20001220703125</ele>
        <time>2021-06-04T07:04:10.000Z</time>
        <extensions>
          <ns3:TrackPointExtension>
            <ns3:atemp>20.0</ns3:atemp>
          </ns3:TrackPointExtension>
        </extensions>
      </trkpt>
      <trkpt lat="43.1288971938192844390869140625" lon="13.0665131472051143646240234375">
        <ele>471.600006103515625</ele>
        <time>2021-06-04T07:04:11.000Z</time>
        <extensions>
          <ns3:TrackPointExtension>
            <ns3:atemp>20.0</ns3:atemp>
          </ns3:TrackPointExtension>
        </extensions>
      </trkpt>
      <trkpt lat="43.12886307947337627410888671875" lon="13.06644022464752197265625">
        <ele>472</ele>
        <time>2021-06-04T07:04:13.000Z</time>
        <extensions>
          <ns3:TrackPointExtension>
            <ns3:atemp>20.0</ns3:atemp>
          </ns3:TrackPointExtension>
        </extensions>
      </trkpt>
      <trkpt lat="43.12885117717087268829345703125" lon="13.06644081138074398040771484375">
        <ele>472.20001220703125</ele>
        <time>2021-06-04T07:04:14.000Z</time>
        <extensions>
          <ns3:TrackPointExtension>
            <ns3:atemp>20.0</ns3:atemp>
          </ns3:TrackPointExtension>
        </extensions>
      </trkpt>
      <trkpt lat="43.12883290462195873260498046875" lon="13.066403679549694061279296875">
        <ele>473</ele>
        <time>2021-06-04T07:04:15.000Z</time>
        <extensions>
          <ns3:TrackPointExtension>
            <ns3:atemp>20.0</ns3:atemp>
          </ns3:TrackPointExtension>
        </extensions>
      </trkpt>
      <trkpt lat="43.12879233621060848236083984375" lon="13.06633100844919681549072265625">
        <ele>473.600006103515625</ele>
        <time>2021-06-04T07:04:17.000Z</time>
        <extensions>
          <ns3:TrackPointExtension>
            <ns3:atemp>20.0</ns3:atemp>
          </ns3:TrackPointExtension>
        </extensions>
      </trkpt>
      <trkpt lat="43.128774650394916534423828125" lon="13.06629966013133525848388671875">
        <ele>474.399993896484375</ele>
        <time>2021-06-04T07:04:19.000Z</time>
        <extensions>
          <ns3:TrackPointExtension>
            <ns3:atemp>20.0</ns3:atemp>
          </ns3:TrackPointExtension>
        </extensions>
      </trkpt>
      <trkpt lat="43.12874925322830677032470703125" lon="13.066237382590770721435546875">
        <ele>474.79998779296875</ele>
        <time>2021-06-04T07:04:21.000Z</time>
        <extensions>
          <ns3:TrackPointExtension>
            <ns3:atemp>20.0</ns3:atemp>
          </ns3:TrackPointExtension>
        </extensions>
      </trkpt>
      <trkpt lat="43.12871840782463550567626953125" lon="13.06616789661347866058349609375">
        <ele>475.20001220703125</ele>
        <time>2021-06-04T07:04:23.000Z</time>
        <extensions>
          <ns3:TrackPointExtension>
            <ns3:atemp>20.0</ns3:atemp>
          </ns3:TrackPointExtension>
        </extensions>
      </trkpt>
      <trkpt lat="43.128682784736156463623046875" lon="13.06609782390296459197998046875">
        <ele>475.79998779296875</ele>
        <time>2021-06-04T07:04:25.000Z</time>
        <extensions>
          <ns3:TrackPointExtension>
            <ns3:atemp>20.0</ns3:atemp>
          </ns3:TrackPointExtension>
        </extensions>
      </trkpt>
      <trkpt lat="43.1286454014480113983154296875" lon="13.066040240228176116943359375">
        <ele>476.399993896484375</ele>
        <time>2021-06-04T07:04:27.000Z</time>
        <extensions>
          <ns3:TrackPointExtension>
            <ns3:atemp>20.0</ns3:atemp>
          </ns3:TrackPointExtension>
        </extensions>
      </trkpt>
      <trkpt lat="43.12860575504601001739501953125" lon="13.0659694969654083251953125">
        <ele>476.79998779296875</ele>
        <time>2021-06-04T07:04:29.000Z</time>
        <extensions>
          <ns3:TrackPointExtension>
            <ns3:atemp>20.0</ns3:atemp>
          </ns3:TrackPointExtension>
        </extensions>
      </trkpt>
      <trkpt lat="43.12854339368641376495361328125" lon="13.065859861671924591064453125">
        <ele>477.20001220703125</ele>
        <time>2021-06-04T07:04:32.000Z</time>
        <extensions>
          <ns3:TrackPointExtension>
            <ns3:atemp>20.0</ns3:atemp>
          </ns3:TrackPointExtension>
        </extensions>
      </trkpt>
      <trkpt lat="43.128481619060039520263671875" lon="13.06575181894004344940185546875">
        <ele>477.600006103515625</ele>
        <time>2021-06-04T07:04:35.000Z</time>
        <extensions>
          <ns3:TrackPointExtension>
            <ns3:atemp>20.0</ns3:atemp>
          </ns3:TrackPointExtension>
        </extensions>
      </trkpt>
      <trkpt lat="43.128437362611293792724609375" lon="13.06562240235507488250732421875">
        <ele>478.20001220703125</ele>
        <time>2021-06-04T07:04:38.000Z</time>
        <extensions>
          <ns3:TrackPointExtension>
            <ns3:atemp>20.0</ns3:atemp>
          </ns3:TrackPointExtension>
        </extensions>
      </trkpt>
      <trkpt lat="43.12839872203767299652099609375" lon="13.06549348868429660797119140625">
        <ele>478.600006103515625</ele>
        <time>2021-06-04T07:04:41.000Z</time>
        <extensions>
          <ns3:TrackPointExtension>
            <ns3:atemp>20.0</ns3:atemp>
          </ns3:TrackPointExtension>
        </extensions>
      </trkpt>
      <trkpt lat="43.12839268706738948822021484375" lon="13.0654499866068363189697265625">
        <ele>478.600006103515625</ele>
        <time>2021-06-04T07:04:42.000Z</time>
        <extensions>
          <ns3:TrackPointExtension>
            <ns3:atemp>20.0</ns3:atemp>
          </ns3:TrackPointExtension>
        </extensions>
      </trkpt>
      <trkpt lat="43.12839277088642120361328125" lon="13.0653628148138523101806640625">
        <ele>479.399993896484375</ele>
        <time>2021-06-04T07:04:44.000Z</time>
        <extensions>
          <ns3:TrackPointExtension>
            <ns3:atemp>20.0</ns3:atemp>
          </ns3:TrackPointExtension>
        </extensions>
      </trkpt>
      <trkpt lat="43.128420598804950714111328125" lon="13.0652293749153614044189453125">
        <ele>480.20001220703125</ele>
        <time>2021-06-04T07:04:47.000Z</time>
        <extensions>
          <ns3:TrackPointExtension>
            <ns3:atemp>20.0</ns3:atemp>
          </ns3:TrackPointExtension>
        </extensions>
      </trkpt>
      <trkpt lat="43.128464519977569580078125" lon="13.0651002936065196990966796875">
        <ele>481</ele>
        <time>2021-06-04T07:04:50.000Z</time>
        <extensions>
          <ns3:TrackPointExtension>
            <ns3:atemp>20.0</ns3:atemp>
          </ns3:TrackPointExtension>
        </extensions>
      </trkpt>
      <trkpt lat="43.12850818969309329986572265625" lon="13.0649735592305660247802734375">
        <ele>482</ele>
        <time>2021-06-04T07:04:53.000Z</time>
        <extensions>
          <ns3:TrackPointExtension>
            <ns3:atemp>20.0</ns3:atemp>
          </ns3:TrackPointExtension>
        </extensions>
      </trkpt>
      <trkpt lat="43.12852243892848491668701171875" lon="13.0649329908192157745361328125">
        <ele>482.399993896484375</ele>
        <time>2021-06-04T07:04:54.000Z</time>
        <extensions>
          <ns3:TrackPointExtension>
            <ns3:atemp>20.0</ns3:atemp>
          </ns3:TrackPointExtension>
        </extensions>
      </trkpt>
      <trkpt lat="43.1285357661545276641845703125" lon="13.06489183567464351654052734375">
        <ele>483</ele>
        <time>2021-06-04T07:04:55.000Z</time>
        <extensions>
          <ns3:TrackPointExtension>
            <ns3:atemp>20.0</ns3:atemp>
          </ns3:TrackPointExtension>
        </extensions>
      </trkpt>
      <trkpt lat="43.128552027046680450439453125" lon="13.06480533443391323089599609375">
        <ele>483.600006103515625</ele>
        <time>2021-06-04T07:04:57.000Z</time>
        <extensions>
          <ns3:TrackPointExtension>
            <ns3:atemp>20.0</ns3:atemp>
          </ns3:TrackPointExtension>
        </extensions>
      </trkpt>
      <trkpt lat="43.12856585718691349029541015625" lon="13.064667619764804840087890625">
        <ele>484.20001220703125</ele>
        <time>2021-06-04T07:05:00.000Z</time>
        <extensions>
          <ns3:TrackPointExtension>
            <ns3:atemp>20.0</ns3:atemp>
          </ns3:TrackPointExtension>
        </extensions>
      </trkpt>
      <trkpt lat="43.12856870703399181365966796875" lon="13.06449604220688343048095703125">
        <ele>485.20001220703125</ele>
        <time>2021-06-04T07:05:03.000Z</time>
        <extensions>
          <ns3:TrackPointExtension>
            <ns3:atemp>20.0</ns3:atemp>
          </ns3:TrackPointExtension>
        </extensions>
      </trkpt>
      <trkpt lat="43.12856979668140411376953125" lon="13.064438961446285247802734375">
        <ele>487.399993896484375</ele>
        <time>2021-06-04T07:05:04.000Z</time>
        <extensions>
          <ns3:TrackPointExtension>
            <ns3:atemp>20.0</ns3:atemp>
          </ns3:TrackPointExtension>
        </extensions>
      </trkpt>
      <trkpt lat="43.12857641838490962982177734375" lon="13.0642751790583133697509765625">
        <ele>488</ele>
        <time>2021-06-04T07:05:07.000Z</time>
        <extensions>
          <ns3:TrackPointExtension>
            <ns3:atemp>20.0</ns3:atemp>
          </ns3:TrackPointExtension>
        </extensions>
      </trkpt>
      <trkpt lat="43.12857843004167079925537109375" lon="13.06421943940222263336181640625">
        <ele>488.399993896484375</ele>
        <time>2021-06-04T07:05:08.000Z</time>
        <extensions>
          <ns3:TrackPointExtension>
            <ns3:atemp>20.0</ns3:atemp>
          </ns3:TrackPointExtension>
        </extensions>
      </trkpt>
      <trkpt lat="43.12858832068741321563720703125" lon="13.06399405002593994140625">
        <ele>489.79998779296875</ele>
        <time>2021-06-04T07:05:12.000Z</time>
        <extensions>
          <ns3:TrackPointExtension>
            <ns3:atemp>20.0</ns3:atemp>
          </ns3:TrackPointExtension>
        </extensions>
      </trkpt>
      <trkpt lat="43.12862235121428966522216796875" lon="13.063840158283710479736328125">
        <ele>490.600006103515625</ele>
        <time>2021-06-04T07:05:15.000Z</time>
        <extensions>
          <ns3:TrackPointExtension>
            <ns3:atemp>20.0</ns3:atemp>
          </ns3:TrackPointExtension>
        </extensions>
      </trkpt>
      <trkpt lat="43.1286440603435039520263671875" lon="13.06379497982561588287353515625">
        <ele>491.20001220703125</ele>
        <time>2021-06-04T07:05:16.000Z</time>
        <extensions>
          <ns3:TrackPointExtension>
            <ns3:atemp>20.0</ns3:atemp>
          </ns3:TrackPointExtension>
        </extensions>
      </trkpt>
      <trkpt lat="43.12873148359358310699462890625" lon="13.06369456462562084197998046875">
        <ele>492.20001220703125</ele>
        <time>2021-06-04T07:05:19.000Z</time>
        <extensions>
          <ns3:TrackPointExtension>
            <ns3:atemp>20.0</ns3:atemp>
          </ns3:TrackPointExtension>
        </extensions>
      </trkpt>
      <trkpt lat="43.12876199372112751007080078125" lon="13.06366606615483760833740234375">
        <ele>492.79998779296875</ele>
        <time>2021-06-04T07:05:20.000Z</time>
        <extensions>
          <ns3:TrackPointExtension>
            <ns3:atemp>20.0</ns3:atemp>
          </ns3:TrackPointExtension>
        </extensions>
      </trkpt>
      <trkpt lat="43.1288257800042629241943359375" lon="13.0636183731257915496826171875">
        <ele>491.20001220703125</ele>
        <time>2021-06-04T07:05:22.000Z</time>
        <extensions>
          <ns3:TrackPointExtension>
            <ns3:atemp>20.0</ns3:atemp>
          </ns3:TrackPointExtension>
        </extensions>
      </trkpt>
      <trkpt lat="43.12897925265133380889892578125" lon="13.0635045468807220458984375">
        <ele>492.20001220703125</ele>
        <time>2021-06-04T07:05:27.000Z</time>
        <extensions>
          <ns3:TrackPointExtension>
            <ns3:atemp>20.0</ns3:atemp>
          </ns3:TrackPointExtension>
        </extensions>
      </trkpt>
      <trkpt lat="43.12900657765567302703857421875" lon="13.063470683991909027099609375">
        <ele>492.399993896484375</ele>
        <time>2021-06-04T07:05:28.000Z</time>
        <extensions>
          <ns3:TrackPointExtension>
            <ns3:atemp>20.0</ns3:atemp>
          </ns3:TrackPointExtension>
        </extensions>
      </trkpt>
      <trkpt lat="43.12907229177653789520263671875" lon="13.063347637653350830078125">
        <ele>493.399993896484375</ele>
        <time>2021-06-04T07:05:31.000Z</time>
        <extensions>
          <ns3:TrackPointExtension>
            <ns3:atemp>20.0</ns3:atemp>
          </ns3:TrackPointExtension>
        </extensions>
      </trkpt>
      <trkpt lat="43.129106573760509490966796875" lon="13.06330815888941287994384765625">
        <ele>493.79998779296875</ele>
        <time>2021-06-04T07:05:32.000Z</time>
        <extensions>
          <ns3:TrackPointExtension>
            <ns3:atemp>20.0</ns3:atemp>
          </ns3:TrackPointExtension>
        </extensions>
      </trkpt>
      <trkpt lat="43.1291882134974002838134765625" lon="13.06317287497222423553466796875">
        <ele>494.600006103515625</ele>
        <time>2021-06-04T07:05:35.000Z</time>
        <extensions>
          <ns3:TrackPointExtension>
            <ns3:atemp>20.0</ns3:atemp>
          </ns3:TrackPointExtension>
        </extensions>
      </trkpt>
      <trkpt lat="43.12920757569372653961181640625" lon="13.062987215816974639892578125">
        <ele>494.79998779296875</ele>
        <time>2021-06-04T07:05:38.000Z</time>
        <extensions>
          <ns3:TrackPointExtension>
            <ns3:atemp>20.0</ns3:atemp>
          </ns3:TrackPointExtension>
        </extensions>
      </trkpt>
      <trkpt lat="43.1292061507701873779296875" lon="13.06293197907507419586181640625">
        <ele>494.79998779296875</ele>
        <time>2021-06-04T07:05:39.000Z</time>
        <extensions>
          <ns3:TrackPointExtension>
            <ns3:atemp>20.0</ns3:atemp>
          </ns3:TrackPointExtension>
        </extensions>
      </trkpt>
      <trkpt lat="43.1291805021464824676513671875" lon="13.06277356110513210296630859375">
        <ele>494.79998779296875</ele>
        <time>2021-06-04T07:05:42.000Z</time>
        <extensions>
          <ns3:TrackPointExtension>
            <ns3:atemp>20.0</ns3:atemp>
          </ns3:TrackPointExtension>
        </extensions>
      </trkpt>
      <trkpt lat="43.12913062982261180877685546875" lon="13.06262721307575702667236328125">
        <ele>494</ele>
        <time>2021-06-04T07:05:45.000Z</time>
        <extensions>
          <ns3:TrackPointExtension>
            <ns3:atemp>20.0</ns3:atemp>
          </ns3:TrackPointExtension>
        </extensions>
      </trkpt>
      <trkpt lat="43.12910079024732112884521484375" lon="13.06252495385706424713134765625">
        <ele>493.399993896484375</ele>
        <time>2021-06-04T07:05:47.000Z</time>
        <extensions>
          <ns3:TrackPointExtension>
            <ns3:atemp>20.0</ns3:atemp>
          </ns3:TrackPointExtension>
        </extensions>
      </trkpt>
      <trkpt lat="43.1290537677705287933349609375" lon="13.06236787699162960052490234375">
        <ele>493.20001220703125</ele>
        <time>2021-06-04T07:05:50.000Z</time>
        <extensions>
          <ns3:TrackPointExtension>
            <ns3:atemp>20.0</ns3:atemp>
          </ns3:TrackPointExtension>
        </extensions>
      </trkpt>
      <trkpt lat="43.12902552075684070587158203125" lon="13.06231305934488773345947265625">
        <ele>492.600006103515625</ele>
        <time>2021-06-04T07:05:51.000Z</time>
        <extensions>
          <ns3:TrackPointExtension>
            <ns3:atemp>20.0</ns3:atemp>
          </ns3:TrackPointExtension>
        </extensions>
      </trkpt>
      <trkpt lat="43.12896215356886386871337890625" lon="13.06222119368612766265869140625">
        <ele>491.20001220703125</ele>
        <time>2021-06-04T07:05:53.000Z</time>
        <extensions>
          <ns3:TrackPointExtension>
            <ns3:atemp>20.0</ns3:atemp>
          </ns3:TrackPointExtension>
        </extensions>
      </trkpt>
      <trkpt lat="43.12892963178455829620361328125" lon="13.06218012236058712005615234375">
        <ele>490.399993896484375</ele>
        <time>2021-06-04T07:05:54.000Z</time>
        <extensions>
          <ns3:TrackPointExtension>
            <ns3:atemp>20.0</ns3:atemp>
          </ns3:TrackPointExtension>
        </extensions>
      </trkpt>
      <trkpt lat="43.1288938410580158233642578125" lon="13.0621475167572498321533203125">
        <ele>489.600006103515625</ele>
        <time>2021-06-04T07:05:55.000Z</time>
        <extensions>
          <ns3:TrackPointExtension>
            <ns3:atemp>20.0</ns3:atemp>
          </ns3:TrackPointExtension>
        </extensions>
      </trkpt>
      <trkpt lat="43.12880708836019039154052734375" lon="13.0620955489575862884521484375">
        <ele>487.600006103515625</ele>
        <time>2021-06-04T07:05:57.000Z</time>
        <extensions>
          <ns3:TrackPointExtension>
            <ns3:atemp>20.0</ns3:atemp>
          </ns3:TrackPointExtension>
        </extensions>
      </trkpt>
      <trkpt lat="43.1287647597491741180419921875" lon="13.062071241438388824462890625">
        <ele>486.79998779296875</ele>
        <time>2021-06-04T07:05:58.000Z</time>
        <extensions>
          <ns3:TrackPointExtension>
            <ns3:atemp>20.0</ns3:atemp>
          </ns3:TrackPointExtension>
        </extensions>
      </trkpt>
      <trkpt lat="43.12873416580259799957275390625" lon="13.06204768829047679901123046875">
        <ele>485.600006103515625</ele>
        <time>2021-06-04T07:05:59.000Z</time>
        <extensions>
          <ns3:TrackPointExtension>
            <ns3:atemp>20.0</ns3:atemp>
          </ns3:TrackPointExtension>
        </extensions>
      </trkpt>
      <trkpt lat="43.1287104450166225433349609375" lon="13.0620160885155200958251953125">
        <ele>484.600006103515625</ele>
        <time>2021-06-04T07:06:00.000Z</time>
        <extensions>
          <ns3:TrackPointExtension>
            <ns3:atemp>20.0</ns3:atemp>
          </ns3:TrackPointExtension>
        </extensions>
      </trkpt>
      <trkpt lat="43.12869678251445293426513671875" lon="13.061977364122867584228515625">
        <ele>483.600006103515625</ele>
        <time>2021-06-04T07:06:01.000Z</time>
        <extensions>
          <ns3:TrackPointExtension>
            <ns3:atemp>20.0</ns3:atemp>
          </ns3:TrackPointExtension>
        </extensions>
      </trkpt>
      <trkpt lat="43.12868219800293445587158203125" lon="13.06186194531619548797607421875">
        <ele>481.600006103515625</ele>
        <time>2021-06-04T07:06:03.000Z</time>
        <extensions>
          <ns3:TrackPointExtension>
            <ns3:atemp>19.0</ns3:atemp>
          </ns3:TrackPointExtension>
        </extensions>
      </trkpt>
      <trkpt lat="43.12866367399692535400390625" lon="13.06172062642872333526611328125">
        <ele>479.79998779296875</ele>
        <time>2021-06-04T07:06:05.000Z</time>
        <extensions>
          <ns3:TrackPointExtension>
            <ns3:atemp>19.0</ns3:atemp>
          </ns3:TrackPointExtension>
        </extensions>
      </trkpt>
      <trkpt lat="43.1286380253732204437255859375" lon="13.061579726636409759521484375">
        <ele>478.600006103515625</ele>
        <time>2021-06-04T07:06:07.000Z</time>
        <extensions>
          <ns3:TrackPointExtension>
            <ns3:atemp>19.0</ns3:atemp>
          </ns3:TrackPointExtension>
        </extensions>
      </trkpt>
      <trkpt lat="43.1286336667835712432861328125" lon="13.06137244217097759246826171875">
        <ele>477</ele>
        <time>2021-06-04T07:06:10.000Z</time>
        <extensions>
          <ns3:TrackPointExtension>
            <ns3:atemp>19.0</ns3:atemp>
          </ns3:TrackPointExtension>
        </extensions>
      </trkpt>
      <trkpt lat="43.1286272965371608734130859375" lon="13.0613079853355884552001953125">
        <ele>475</ele>
        <time>2021-06-04T07:06:11.000Z</time>
        <extensions>
          <ns3:TrackPointExtension>
            <ns3:atemp>19.0</ns3:atemp>
          </ns3:TrackPointExtension>
        </extensions>
      </trkpt>
      <trkpt lat="43.12861950136721134185791015625" lon="13.06124369613826274871826171875">
        <ele>473.79998779296875</ele>
        <time>2021-06-04T07:06:12.000Z</time>
        <extensions>
          <ns3:TrackPointExtension>
            <ns3:atemp>19.0</ns3:atemp>
          </ns3:TrackPointExtension>
        </extensions>
      </trkpt>
      <trkpt lat="43.12861262820661067962646484375" lon="13.0611789040267467498779296875">
        <ele>472.399993896484375</ele>
        <time>2021-06-04T07:06:13.000Z</time>
        <extensions>
          <ns3:TrackPointExtension>
            <ns3:atemp>19.0</ns3:atemp>
          </ns3:TrackPointExtension>
        </extensions>
      </trkpt>
      <trkpt lat="43.1285994686186313629150390625" lon="13.06110304780304431915283203125">
        <ele>471</ele>
        <time>2021-06-04T07:06:14.000Z</time>
        <extensions>
          <ns3:TrackPointExtension>
            <ns3:atemp>19.0</ns3:atemp>
          </ns3:TrackPointExtension>
        </extensions>
      </trkpt>
      <trkpt lat="43.12858320772647857666015625" lon="13.06102375499904155731201171875">
        <ele>469.600006103515625</ele>
        <time>2021-06-04T07:06:15.000Z</time>
        <extensions>
          <ns3:TrackPointExtension>
            <ns3:atemp>19.0</ns3:atemp>
          </ns3:TrackPointExtension>
        </extensions>
      </trkpt>
      <trkpt lat="43.128571473062038421630859375" lon="13.06094043888151645660400390625">
        <ele>468.399993896484375</ele>
        <time>2021-06-04T07:06:16.000Z</time>
        <extensions>
          <ns3:TrackPointExtension>
            <ns3:atemp>19.0</ns3:atemp>
          </ns3:TrackPointExtension>
        </extensions>
      </trkpt>
      <trkpt lat="43.128586895763874053955078125" lon="13.06078067980706691741943359375">
        <ele>466.600006103515625</ele>
        <time>2021-06-04T07:06:18.000Z</time>
        <extensions>
          <ns3:TrackPointExtension>
            <ns3:atemp>19.0</ns3:atemp>
          </ns3:TrackPointExtension>
        </extensions>
      </trkpt>
      <trkpt lat="43.1286521069705486297607421875" lon="13.06065713055431842803955078125">
        <ele>465.20001220703125</ele>
        <time>2021-06-04T07:06:20.000Z</time>
        <extensions>
          <ns3:TrackPointExtension>
            <ns3:atemp>19.0</ns3:atemp>
          </ns3:TrackPointExtension>
        </extensions>
      </trkpt>
      <trkpt lat="43.12869443558156490325927734375" lon="13.06061404757201671600341796875">
        <ele>464.600006103515625</ele>
        <time>2021-06-04T07:06:21.000Z</time>
        <extensions>
          <ns3:TrackPointExtension>
            <ns3:atemp>19.0</ns3:atemp>
          </ns3:TrackPointExtension>
        </extensions>
      </trkpt>
      <trkpt lat="43.1287345848977565765380859375" lon="13.0605713836848735809326171875">
        <ele>463.600006103515625</ele>
        <time>2021-06-04T07:06:22.000Z</time>
        <extensions>
          <ns3:TrackPointExtension>
            <ns3:atemp>19.0</ns3:atemp>
          </ns3:TrackPointExtension>
        </extensions>
      </trkpt>
      <trkpt lat="43.1287741474807262420654296875" lon="13.06052528321743011474609375">
        <ele>462.399993896484375</ele>
        <time>2021-06-04T07:06:23.000Z</time>
        <extensions>
          <ns3:TrackPointExtension>
            <ns3:atemp>19.0</ns3:atemp>
          </ns3:TrackPointExtension>
        </extensions>
      </trkpt>
      <trkpt lat="43.1288076750934123992919921875" lon="13.06047490797936916351318359375">
        <ele>461.600006103515625</ele>
        <time>2021-06-04T07:06:24.000Z</time>
        <extensions>
          <ns3:TrackPointExtension>
            <ns3:atemp>19.0</ns3:atemp>
          </ns3:TrackPointExtension>
        </extensions>
      </trkpt>
      <trkpt lat="43.12883173115551471710205078125" lon="13.06041992269456386566162109375">
        <ele>461</ele>
        <time>2021-06-04T07:06:25.000Z</time>
        <extensions>
          <ns3:TrackPointExtension>
            <ns3:atemp>19.0</ns3:atemp>
          </ns3:TrackPointExtension>
        </extensions>
      </trkpt>
      <trkpt lat="43.12882938422262668609619140625" lon="13.0603544600307941436767578125">
        <ele>460.79998779296875</ele>
        <time>2021-06-04T07:06:26.000Z</time>
        <extensions>
          <ns3:TrackPointExtension>
            <ns3:atemp>19.0</ns3:atemp>
          </ns3:TrackPointExtension>
        </extensions>
      </trkpt>
      <trkpt lat="43.1287939287722110748291015625" lon="13.0601194314658641815185546875">
        <ele>460.399993896484375</ele>
        <time>2021-06-04T07:06:29.000Z</time>
        <extensions>
          <ns3:TrackPointExtension>
            <ns3:atemp>19.0</ns3:atemp>
          </ns3:TrackPointExtension>
        </extensions>
      </trkpt>
      <trkpt lat="43.12878127209842205047607421875" lon="13.06004391051828861236572265625">
        <ele>460.399993896484375</ele>
        <time>2021-06-04T07:06:30.000Z</time>
        <extensions>
          <ns3:TrackPointExtension>
            <ns3:atemp>19.0</ns3:atemp>
          </ns3:TrackPointExtension>
        </extensions>
      </trkpt>
      <trkpt lat="43.12874145805835723876953125" lon="13.05983201600611209869384765625">
        <ele>460</ele>
        <time>2021-06-04T07:06:34.000Z</time>
        <extensions>
          <ns3:TrackPointExtension>
            <ns3:atemp>19.0</ns3:atemp>
          </ns3:TrackPointExtension>
        </extensions>
      </trkpt>
      <trkpt lat="43.12871706672012805938720703125" lon="13.0597697384655475616455078125">
        <ele>458.600006103515625</ele>
        <time>2021-06-04T07:06:36.000Z</time>
        <extensions>
          <ns3:TrackPointExtension>
            <ns3:atemp>19.0</ns3:atemp>
          </ns3:TrackPointExtension>
        </extensions>
      </trkpt>
      <trkpt lat="43.12868253327906131744384765625" lon="13.059708885848522186279296875">
        <ele>457.399993896484375</ele>
        <time>2021-06-04T07:06:38.000Z</time>
        <extensions>
          <ns3:TrackPointExtension>
            <ns3:atemp>19.0</ns3:atemp>
          </ns3:TrackPointExtension>
        </extensions>
      </trkpt>
      <trkpt lat="43.12866945751011371612548828125" lon="13.0596745200455188751220703125">
        <ele>456.79998779296875</ele>
        <time>2021-06-04T07:06:39.000Z</time>
        <extensions>
          <ns3:TrackPointExtension>
            <ns3:atemp>19.0</ns3:atemp>
          </ns3:TrackPointExtension>
        </extensions>
      </trkpt>
      <trkpt lat="43.1286591477692127227783203125" lon="13.059620372951030731201171875">
        <ele>456</ele>
        <time>2021-06-04T07:06:40.000Z</time>
        <extensions>
          <ns3:TrackPointExtension>
            <ns3:atemp>19.0</ns3:atemp>
          </ns3:TrackPointExtension>
        </extensions>
      </trkpt>
      <trkpt lat="43.12867079861462116241455078125" lon="13.0594797246158123016357421875">
        <ele>455.399993896484375</ele>
        <time>2021-06-04T07:06:42.000Z</time>
        <extensions>
          <ns3:TrackPointExtension>
            <ns3:atemp>19.0</ns3:atemp>
          </ns3:TrackPointExtension>
        </extensions>
      </trkpt>
      <trkpt lat="43.1286913342773914337158203125" lon="13.05933781899511814117431640625">
        <ele>454.79998779296875</ele>
        <time>2021-06-04T07:06:44.000Z</time>
        <extensions>
          <ns3:TrackPointExtension>
            <ns3:atemp>19.0</ns3:atemp>
          </ns3:TrackPointExtension>
        </extensions>
      </trkpt>
      <trkpt lat="43.1287091039121150970458984375" lon="13.05927679874002933502197265625">
        <ele>454.600006103515625</ele>
        <time>2021-06-04T07:06:45.000Z</time>
        <extensions>
          <ns3:TrackPointExtension>
            <ns3:atemp>19.0</ns3:atemp>
          </ns3:TrackPointExtension>
        </extensions>
      </trkpt>
      <trkpt lat="43.12875486910343170166015625" lon="13.05915660224854946136474609375">
        <ele>454.20001220703125</ele>
        <time>2021-06-04T07:06:47.000Z</time>
        <extensions>
          <ns3:TrackPointExtension>
            <ns3:atemp>19.0</ns3:atemp>
          </ns3:TrackPointExtension>
        </extensions>
      </trkpt>
      <trkpt lat="43.12877372838556766510009765625" lon="13.05909675545990467071533203125">
        <ele>453.399993896484375</ele>
        <time>2021-06-04T07:06:48.000Z</time>
        <extensions>
          <ns3:TrackPointExtension>
            <ns3:atemp>19.0</ns3:atemp>
          </ns3:TrackPointExtension>
        </extensions>
      </trkpt>
      <trkpt lat="43.12880021519958972930908203125" lon="13.0589684285223484039306640625">
        <ele>451.600006103515625</ele>
        <time>2021-06-04T07:06:50.000Z</time>
        <extensions>
          <ns3:TrackPointExtension>
            <ns3:atemp>19.0</ns3:atemp>
          </ns3:TrackPointExtension>
        </extensions>
      </trkpt>
      <trkpt lat="43.12881144694983959197998046875" lon="13.05889642797410488128662109375">
        <ele>450.79998779296875</ele>
        <time>2021-06-04T07:06:51.000Z</time>
        <extensions>
          <ns3:TrackPointExtension>
            <ns3:atemp>19.0</ns3:atemp>
          </ns3:TrackPointExtension>
        </extensions>
      </trkpt>
      <trkpt lat="43.12882251106202602386474609375" lon="13.0588294565677642822265625">
        <ele>449.79998779296875</ele>
        <time>2021-06-04T07:06:52.000Z</time>
        <extensions>
          <ns3:TrackPointExtension>
            <ns3:atemp>19.0</ns3:atemp>
          </ns3:TrackPointExtension>
        </extensions>
      </trkpt>
      <trkpt lat="43.1288324855268001556396484375" lon="13.0586980283260345458984375">
        <ele>447.79998779296875</ele>
        <time>2021-06-04T07:06:54.000Z</time>
        <extensions>
          <ns3:TrackPointExtension>
            <ns3:atemp>19.0</ns3:atemp>
          </ns3:TrackPointExtension>
        </extensions>
      </trkpt>
      <trkpt lat="43.1288373470306396484375" lon="13.05862301029264926910400390625">
        <ele>446.79998779296875</ele>
        <time>2021-06-04T07:06:55.000Z</time>
        <extensions>
          <ns3:TrackPointExtension>
            <ns3:atemp>19.0</ns3:atemp>
          </ns3:TrackPointExtension>
        </extensions>
      </trkpt>
      <trkpt lat="43.12884883023798465728759765625" lon="13.058540113270282745361328125">
        <ele>445.79998779296875</ele>
        <time>2021-06-04T07:06:56.000Z</time>
        <extensions>
          <ns3:TrackPointExtension>
            <ns3:atemp>19.0</ns3:atemp>
          </ns3:TrackPointExtension>
        </extensions>
      </trkpt>
      <trkpt lat="43.1288847886025905609130859375" lon="13.05835830979049205780029296875">
        <ele>443.600006103515625</ele>
        <time>2021-06-04T07:06:58.000Z</time>
        <extensions>
          <ns3:TrackPointExtension>
            <ns3:atemp>19.0</ns3:atemp>
          </ns3:TrackPointExtension>
        </extensions>
      </trkpt>
      <trkpt lat="43.1288978643715381622314453125" lon="13.058256469666957855224609375">
        <ele>442.600006103515625</ele>
        <time>2021-06-04T07:06:59.000Z</time>
        <extensions>
          <ns3:TrackPointExtension>
            <ns3:atemp>19.0</ns3:atemp>
          </ns3:TrackPointExtension>
        </extensions>
      </trkpt>
      <trkpt lat="43.12890465371310710906982421875" lon="13.05814775638282299041748046875">
        <ele>441.399993896484375</ele>
        <time>2021-06-04T07:07:00.000Z</time>
        <extensions>
          <ns3:TrackPointExtension>
            <ns3:atemp>19.0</ns3:atemp>
          </ns3:TrackPointExtension>
        </extensions>
      </trkpt>
      <trkpt lat="43.12892862595617771148681640625" lon="13.05792781524360179901123046875">
        <ele>439.399993896484375</ele>
        <time>2021-06-04T07:07:02.000Z</time>
        <extensions>
          <ns3:TrackPointExtension>
            <ns3:atemp>19.0</ns3:atemp>
          </ns3:TrackPointExtension>
        </extensions>
      </trkpt>
      <trkpt lat="43.12894538976252079010009765625" lon="13.05782421492040157318115234375">
        <ele>438</ele>
        <time>2021-06-04T07:07:03.000Z</time>
        <extensions>
          <ns3:TrackPointExtension>
            <ns3:atemp>19.0</ns3:atemp>
          </ns3:TrackPointExtension>
        </extensions>
      </trkpt>
      <trkpt lat="43.12896315939724445343017578125" lon="13.057722710072994232177734375">
        <ele>436.399993896484375</ele>
        <time>2021-06-04T07:07:04.000Z</time>
        <extensions>
          <ns3:TrackPointExtension>
            <ns3:atemp>19.0</ns3:atemp>
          </ns3:TrackPointExtension>
        </extensions>
      </trkpt>
      <trkpt lat="43.1289808452129364013671875" lon="13.0576206184923648834228515625">
        <ele>434.600006103515625</ele>
        <time>2021-06-04T07:07:05.000Z</time>
        <extensions>
          <ns3:TrackPointExtension>
            <ns3:atemp>19.0</ns3:atemp>
          </ns3:TrackPointExtension>
        </extensions>
      </trkpt>
      <trkpt lat="43.12899031676352024078369140625" lon="13.0575166828930377960205078125">
        <ele>432.600006103515625</ele>
        <time>2021-06-04T07:07:06.000Z</time>
        <extensions>
          <ns3:TrackPointExtension>
            <ns3:atemp>19.0</ns3:atemp>
          </ns3:TrackPointExtension>
        </extensions>
      </trkpt>
      <trkpt lat="43.1289947591722011566162109375" lon="13.05741819553077220916748046875">
        <ele>430.399993896484375</ele>
        <time>2021-06-04T07:07:07.000Z</time>
        <extensions>
          <ns3:TrackPointExtension>
            <ns3:atemp>19.0</ns3:atemp>
          </ns3:TrackPointExtension>
        </extensions>
      </trkpt>
      <trkpt lat="43.12899651937186717987060546875" lon="13.057324402034282684326171875">
        <ele>426.79998779296875</ele>
        <time>2021-06-04T07:07:08.000Z</time>
        <extensions>
          <ns3:TrackPointExtension>
            <ns3:atemp>19.0</ns3:atemp>
          </ns3:TrackPointExtension>
        </extensions>
      </trkpt>
      <trkpt lat="43.1289964355528354644775390625" lon="13.05723630823194980621337890625">
        <ele>425.600006103515625</ele>
        <time>2021-06-04T07:07:09.000Z</time>
        <extensions>
          <ns3:TrackPointExtension>
            <ns3:atemp>19.0</ns3:atemp>
          </ns3:TrackPointExtension>
        </extensions>
      </trkpt>
      <trkpt lat="43.12899149022996425628662109375" lon="13.0570670776069164276123046875">
        <ele>424</ele>
        <time>2021-06-04T07:07:11.000Z</time>
        <extensions>
          <ns3:TrackPointExtension>
            <ns3:atemp>19.0</ns3:atemp>
          </ns3:TrackPointExtension>
        </extensions>
      </trkpt>
      <trkpt lat="43.128989227116107940673828125" lon="13.05689985863864421844482421875">
        <ele>422.600006103515625</ele>
        <time>2021-06-04T07:07:13.000Z</time>
        <extensions>
          <ns3:TrackPointExtension>
            <ns3:atemp>19.0</ns3:atemp>
          </ns3:TrackPointExtension>
        </extensions>
      </trkpt>
      <trkpt lat="43.128963075578212738037109375" lon="13.05678016506135463714599609375">
        <ele>421.399993896484375</ele>
        <time>2021-06-04T07:07:15.000Z</time>
        <extensions>
          <ns3:TrackPointExtension>
            <ns3:atemp>19.0</ns3:atemp>
          </ns3:TrackPointExtension>
        </extensions>
      </trkpt>
      <trkpt lat="43.12885947525501251220703125" lon="13.05671612732112407684326171875">
        <ele>420.20001220703125</ele>
        <time>2021-06-04T07:07:18.000Z</time>
        <extensions>
          <ns3:TrackPointExtension>
            <ns3:atemp>19.0</ns3:atemp>
          </ns3:TrackPointExtension>
        </extensions>
      </trkpt>
      <trkpt lat="43.12877423129975795745849609375" lon="13.0566362477838993072509765625">
        <ele>418.79998779296875</ele>
        <time>2021-06-04T07:07:20.000Z</time>
        <extensions>
          <ns3:TrackPointExtension>
            <ns3:atemp>19.0</ns3:atemp>
          </ns3:TrackPointExtension>
        </extensions>
      </trkpt>
      <trkpt lat="43.12868923880159854888916015625" lon="13.05651764385402202606201171875">
        <ele>417.600006103515625</ele>
        <time>2021-06-04T07:07:22.000Z</time>
        <extensions>
          <ns3:TrackPointExtension>
            <ns3:atemp>19.0</ns3:atemp>
          </ns3:TrackPointExtension>
        </extensions>
      </trkpt>
      <trkpt lat="43.12850148417055606842041015625" lon="13.05629502050578594207763671875">
        <ele>416.600006103515625</ele>
        <time>2021-06-04T07:07:26.000Z</time>
        <extensions>
          <ns3:TrackPointExtension>
            <ns3:atemp>19.0</ns3:atemp>
          </ns3:TrackPointExtension>
        </extensions>
      </trkpt>
      <trkpt lat="43.12845580279827117919921875" lon="13.056232742965221405029296875">
        <ele>415.79998779296875</ele>
        <time>2021-06-04T07:07:27.000Z</time>
        <extensions>
          <ns3:TrackPointExtension>
            <ns3:atemp>19.0</ns3:atemp>
          </ns3:TrackPointExtension>
        </extensions>
      </trkpt>
      <trkpt lat="43.12841146253049373626708984375" lon="13.05617013014853000640869140625">
        <ele>415</ele>
        <time>2021-06-04T07:07:28.000Z</time>
        <extensions>
          <ns3:TrackPointExtension>
            <ns3:atemp>19.0</ns3:atemp>
          </ns3:TrackPointExtension>
        </extensions>
      </trkpt>
      <trkpt lat="43.12832965515553951263427734375" lon="13.05605429224669933319091796875">
        <ele>413.20001220703125</ele>
        <time>2021-06-04T07:07:30.000Z</time>
        <extensions>
          <ns3:TrackPointExtension>
            <ns3:atemp>19.0</ns3:atemp>
          </ns3:TrackPointExtension>
        </extensions>
      </trkpt>
      <trkpt lat="43.12825254164636135101318359375" lon="13.05596175603568553924560546875">
        <ele>411.600006103515625</ele>
        <time>2021-06-04T07:07:32.000Z</time>
        <extensions>
          <ns3:TrackPointExtension>
            <ns3:atemp>19.0</ns3:atemp>
          </ns3:TrackPointExtension>
        </extensions>
      </trkpt>
      <trkpt lat="43.128181211650371551513671875" lon="13.05589067749679088592529296875">
        <ele>410.20001220703125</ele>
        <time>2021-06-04T07:07:34.000Z</time>
        <extensions>
          <ns3:TrackPointExtension>
            <ns3:atemp>19.0</ns3:atemp>
          </ns3:TrackPointExtension>
        </extensions>
      </trkpt>
      <trkpt lat="43.1281156651675701141357421875" lon="13.05583971552550792694091796875">
        <ele>409</ele>
        <time>2021-06-04T07:07:36.000Z</time>
        <extensions>
          <ns3:TrackPointExtension>
            <ns3:atemp>19.0</ns3:atemp>
          </ns3:TrackPointExtension>
        </extensions>
      </trkpt>
      <trkpt lat="43.12805707566440105438232421875" lon="13.05580048821866512298583984375">
        <ele>407.600006103515625</ele>
        <time>2021-06-04T07:07:38.000Z</time>
        <extensions>
          <ns3:TrackPointExtension>
            <ns3:atemp>19.0</ns3:atemp>
          </ns3:TrackPointExtension>
        </extensions>
      </trkpt>
      <trkpt lat="43.1279999949038028717041015625" lon="13.055755980312824249267578125">
        <ele>406.399993896484375</ele>
        <time>2021-06-04T07:07:40.000Z</time>
        <extensions>
          <ns3:TrackPointExtension>
            <ns3:atemp>19.0</ns3:atemp>
          </ns3:TrackPointExtension>
        </extensions>
      </trkpt>
      <trkpt lat="43.127950541675090789794921875" lon="13.05568716488778591156005859375">
        <ele>404.600006103515625</ele>
        <time>2021-06-04T07:07:42.000Z</time>
        <extensions>
          <ns3:TrackPointExtension>
            <ns3:atemp>19.0</ns3:atemp>
          </ns3:TrackPointExtension>
        </extensions>
      </trkpt>
      <trkpt lat="43.1279215402901172637939453125" lon="13.05563184432685375213623046875">
        <ele>403.600006103515625</ele>
        <time>2021-06-04T07:07:44.000Z</time>
        <extensions>
          <ns3:TrackPointExtension>
            <ns3:atemp>19.0</ns3:atemp>
          </ns3:TrackPointExtension>
        </extensions>
      </trkpt>
      <trkpt lat="43.1279111467301845550537109375" lon="13.05561893619596958160400390625">
        <ele>403.20001220703125</ele>
        <time>2021-06-04T07:07:45.000Z</time>
        <extensions>
          <ns3:TrackPointExtension>
            <ns3:atemp>19.0</ns3:atemp>
          </ns3:TrackPointExtension>
        </extensions>
      </trkpt>
      <trkpt lat="43.12790117226541042327880859375" lon="13.05561156012117862701416015625">
        <ele>402.20001220703125</ele>
        <time>2021-06-04T07:07:48.000Z</time>
        <extensions>
          <ns3:TrackPointExtension>
            <ns3:atemp>19.0</ns3:atemp>
          </ns3:TrackPointExtension>
        </extensions>
      </trkpt>
      <trkpt lat="43.127897568047046661376953125" lon="13.05560636334121227264404296875">
        <ele>401.399993896484375</ele>
        <time>2021-06-04T07:07:50.000Z</time>
        <extensions>
          <ns3:TrackPointExtension>
            <ns3:atemp>19.0</ns3:atemp>
          </ns3:TrackPointExtension>
        </extensions>
      </trkpt>
      <trkpt lat="43.12789748422801494598388671875" lon="13.05560611188411712646484375">
        <ele>401</ele>
        <time>2021-06-04T07:07:51.000Z</time>
        <extensions>
          <ns3:TrackPointExtension>
            <ns3:atemp>19.0</ns3:atemp>
          </ns3:TrackPointExtension>
        </extensions>
      </trkpt>
      <trkpt lat="43.1278923712670803070068359375" lon="13.05559395812451839447021484375">
        <ele>400.600006103515625</ele>
        <time>2021-06-04T07:07:53.000Z</time>
        <extensions>
          <ns3:TrackPointExtension>
            <ns3:atemp>19.0</ns3:atemp>
          </ns3:TrackPointExtension>
        </extensions>
      </trkpt>
      <trkpt lat="43.12786211259663105010986328125" lon="13.05558440275490283966064453125">
        <ele>400.399993896484375</ele>
        <time>2021-06-04T07:07:55.000Z</time>
        <extensions>
          <ns3:TrackPointExtension>
            <ns3:atemp>19.0</ns3:atemp>
          </ns3:TrackPointExtension>
        </extensions>
      </trkpt>
      <trkpt lat="43.12780410982668399810791015625" lon="13.05554752238094806671142578125">
        <ele>400.399993896484375</ele>
        <time>2021-06-04T07:07:59.000Z</time>
        <extensions>
          <ns3:TrackPointExtension>
            <ns3:atemp>19.0</ns3:atemp>
          </ns3:TrackPointExtension>
        </extensions>
      </trkpt>
      <trkpt lat="43.12770755030214786529541015625" lon="13.05545062758028507232666015625">
        <ele>400</ele>
        <time>2021-06-04T07:08:04.000Z</time>
        <extensions>
          <ns3:TrackPointExtension>
            <ns3:atemp>19.0</ns3:atemp>
          </ns3:TrackPointExtension>
        </extensions>
      </trkpt>
      <trkpt lat="43.12765072099864482879638671875" lon="13.05537183769047260284423828125">
        <ele>399.79998779296875</ele>
        <time>2021-06-04T07:08:06.000Z</time>
        <extensions>
          <ns3:TrackPointExtension>
            <ns3:atemp>19.0</ns3:atemp>
          </ns3:TrackPointExtension>
        </extensions>
      </trkpt>
      <trkpt lat="43.12760612927377223968505859375" lon="13.0552545748651027679443359375">
        <ele>399.600006103515625</ele>
        <time>2021-06-04T07:08:08.000Z</time>
        <extensions>
          <ns3:TrackPointExtension>
            <ns3:atemp>19.0</ns3:atemp>
          </ns3:TrackPointExtension>
        </extensions>
      </trkpt>
      <trkpt lat="43.12757394276559352874755859375" lon="13.055104203522205352783203125">
        <ele>398.20001220703125</ele>
        <time>2021-06-04T07:08:10.000Z</time>
        <extensions>
          <ns3:TrackPointExtension>
            <ns3:atemp>19.0</ns3:atemp>
          </ns3:TrackPointExtension>
        </extensions>
      </trkpt>
      <trkpt lat="43.1275591067969799041748046875" lon="13.05501946248114109039306640625">
        <ele>397.399993896484375</ele>
        <time>2021-06-04T07:08:11.000Z</time>
        <extensions>
          <ns3:TrackPointExtension>
            <ns3:atemp>19.0</ns3:atemp>
          </ns3:TrackPointExtension>
        </extensions>
      </trkpt>
      <trkpt lat="43.12754242680966854095458984375" lon="13.0549310334026813507080078125">
        <ele>396.79998779296875</ele>
        <time>2021-06-04T07:08:12.000Z</time>
        <extensions>
          <ns3:TrackPointExtension>
            <ns3:atemp>19.0</ns3:atemp>
          </ns3:TrackPointExtension>
        </extensions>
      </trkpt>
      <trkpt lat="43.12752750702202320098876953125" lon="13.05484746582806110382080078125">
        <ele>396</ele>
        <time>2021-06-04T07:08:13.000Z</time>
        <extensions>
          <ns3:TrackPointExtension>
            <ns3:atemp>19.0</ns3:atemp>
          </ns3:TrackPointExtension>
        </extensions>
      </trkpt>
      <trkpt lat="43.12751007266342639923095703125" lon="13.05477320216596126556396484375">
        <ele>395</ele>
        <time>2021-06-04T07:08:14.000Z</time>
        <extensions>
          <ns3:TrackPointExtension>
            <ns3:atemp>19.0</ns3:atemp>
          </ns3:TrackPointExtension>
        </extensions>
      </trkpt>
      <trkpt lat="43.12748693861067295074462890625" lon="13.054709918797016143798828125">
        <ele>394</ele>
        <time>2021-06-04T07:08:15.000Z</time>
        <extensions>
          <ns3:TrackPointExtension>
            <ns3:atemp>19.0</ns3:atemp>
          </ns3:TrackPointExtension>
        </extensions>
      </trkpt>
      <trkpt lat="43.1274568475782871246337890625" lon="13.0546547658741474151611328125">
        <ele>392.79998779296875</ele>
        <time>2021-06-04T07:08:16.000Z</time>
        <extensions>
          <ns3:TrackPointExtension>
            <ns3:atemp>19.0</ns3:atemp>
          </ns3:TrackPointExtension>
        </extensions>
      </trkpt>
      <trkpt lat="43.12741820700466632843017578125" lon="13.05460430681705474853515625">
        <ele>391.79998779296875</ele>
        <time>2021-06-04T07:08:17.000Z</time>
        <extensions>
          <ns3:TrackPointExtension>
            <ns3:atemp>19.0</ns3:atemp>
          </ns3:TrackPointExtension>
        </extensions>
      </trkpt>
      <trkpt lat="43.1273726932704448699951171875" lon="13.05455577559769153594970703125">
        <ele>391</ele>
        <time>2021-06-04T07:08:18.000Z</time>
        <extensions>
          <ns3:TrackPointExtension>
            <ns3:atemp>19.0</ns3:atemp>
          </ns3:TrackPointExtension>
        </extensions>
      </trkpt>
      <trkpt lat="43.12732391059398651123046875" lon="13.0545082502067089080810546875">
        <ele>390</ele>
        <time>2021-06-04T07:08:19.000Z</time>
        <extensions>
          <ns3:TrackPointExtension>
            <ns3:atemp>19.0</ns3:atemp>
          </ns3:TrackPointExtension>
        </extensions>
      </trkpt>
      <trkpt lat="43.12727420590817928314208984375" lon="13.05446214973926544189453125">
        <ele>389.20001220703125</ele>
        <time>2021-06-04T07:08:20.000Z</time>
        <extensions>
          <ns3:TrackPointExtension>
            <ns3:atemp>19.0</ns3:atemp>
          </ns3:TrackPointExtension>
        </extensions>
      </trkpt>
      <trkpt lat="43.12719206325709819793701171875" lon="13.05437363684177398681640625">
        <ele>388.399993896484375</ele>
        <time>2021-06-04T07:08:22.000Z</time>
        <extensions>
          <ns3:TrackPointExtension>
            <ns3:atemp>19.0</ns3:atemp>
          </ns3:TrackPointExtension>
        </extensions>
      </trkpt>
      <trkpt lat="43.12715685926377773284912109375" lon="13.0542926676571369171142578125">
        <ele>387.79998779296875</ele>
        <time>2021-06-04T07:08:24.000Z</time>
        <extensions>
          <ns3:TrackPointExtension>
            <ns3:atemp>19.0</ns3:atemp>
          </ns3:TrackPointExtension>
        </extensions>
      </trkpt>
      <trkpt lat="43.12715183012187480926513671875" lon="13.05425687693059444427490234375">
        <ele>387.20001220703125</ele>
        <time>2021-06-04T07:08:25.000Z</time>
        <extensions>
          <ns3:TrackPointExtension>
            <ns3:atemp>19.0</ns3:atemp>
          </ns3:TrackPointExtension>
        </extensions>
      </trkpt>
      <trkpt lat="43.12714093364775180816650390625" lon="13.054226450622081756591796875">
        <ele>386.399993896484375</ele>
        <time>2021-06-04T07:08:26.000Z</time>
        <extensions>
          <ns3:TrackPointExtension>
            <ns3:atemp>19.0</ns3:atemp>
          </ns3:TrackPointExtension>
        </extensions>
      </trkpt>
      <trkpt lat="43.12709868885576725006103515625" lon="13.0541682802140712738037109375">
        <ele>385.600006103515625</ele>
        <time>2021-06-04T07:08:28.000Z</time>
        <extensions>
          <ns3:TrackPointExtension>
            <ns3:atemp>19.0</ns3:atemp>
          </ns3:TrackPointExtension>
        </extensions>
      </trkpt>
      <trkpt lat="43.12707387842237949371337890625" lon="13.054123856127262115478515625">
        <ele>385.399993896484375</ele>
        <time>2021-06-04T07:08:29.000Z</time>
        <extensions>
          <ns3:TrackPointExtension>
            <ns3:atemp>19.0</ns3:atemp>
          </ns3:TrackPointExtension>
        </extensions>
      </trkpt>
      <trkpt lat="43.1269509159028530120849609375" lon="13.05381749756634235382080078125">
        <ele>384.20001220703125</ele>
        <time>2021-06-04T07:08:34.000Z</time>
        <extensions>
          <ns3:TrackPointExtension>
            <ns3:atemp>19.0</ns3:atemp>
          </ns3:TrackPointExtension>
        </extensions>
      </trkpt>
      <trkpt lat="43.1269235908985137939453125" lon="13.05375245399773120880126953125">
        <ele>384</ele>
        <time>2021-06-04T07:08:35.000Z</time>
        <extensions>
          <ns3:TrackPointExtension>
            <ns3:atemp>19.0</ns3:atemp>
          </ns3:TrackPointExtension>
        </extensions>
      </trkpt>
      <trkpt lat="43.12678822316229343414306640625" lon="13.05349144153296947479248046875">
        <ele>382.79998779296875</ele>
        <time>2021-06-04T07:08:39.000Z</time>
        <extensions>
          <ns3:TrackPointExtension>
            <ns3:atemp>19.0</ns3:atemp>
          </ns3:TrackPointExtension>
        </extensions>
      </trkpt>
      <trkpt lat="43.12670138664543628692626953125" lon="13.05336319841444492340087890625">
        <ele>382</ele>
        <time>2021-06-04T07:08:41.000Z</time>
        <extensions>
          <ns3:TrackPointExtension>
            <ns3:atemp>19.0</ns3:atemp>
          </ns3:TrackPointExtension>
        </extensions>
      </trkpt>
      <trkpt lat="43.1266535259783267974853515625" lon="13.0533022619783878326416015625">
        <ele>381.600006103515625</ele>
        <time>2021-06-04T07:08:42.000Z</time>
        <extensions>
          <ns3:TrackPointExtension>
            <ns3:atemp>19.0</ns3:atemp>
          </ns3:TrackPointExtension>
        </extensions>
      </trkpt>
      <trkpt lat="43.12660013325512409210205078125" lon="13.0532486177980899810791015625">
        <ele>381.399993896484375</ele>
        <time>2021-06-04T07:08:43.000Z</time>
        <extensions>
          <ns3:TrackPointExtension>
            <ns3:atemp>19.0</ns3:atemp>
          </ns3:TrackPointExtension>
        </extensions>
      </trkpt>
      <trkpt lat="43.126474320888519287109375" lon="13.053171336650848388671875">
        <ele>381</ele>
        <time>2021-06-04T07:08:45.000Z</time>
        <extensions>
          <ns3:TrackPointExtension>
            <ns3:atemp>19.0</ns3:atemp>
          </ns3:TrackPointExtension>
        </extensions>
      </trkpt>
      <trkpt lat="43.12634347938001155853271484375" lon="13.05313705466687679290771484375">
        <ele>380.399993896484375</ele>
        <time>2021-06-04T07:08:47.000Z</time>
        <extensions>
          <ns3:TrackPointExtension>
            <ns3:atemp>19.0</ns3:atemp>
          </ns3:TrackPointExtension>
        </extensions>
      </trkpt>
      <trkpt lat="43.12616142444312572479248046875" lon="13.05308885872364044189453125">
        <ele>379.20001220703125</ele>
        <time>2021-06-04T07:08:50.000Z</time>
        <extensions>
          <ns3:TrackPointExtension>
            <ns3:atemp>19.0</ns3:atemp>
          </ns3:TrackPointExtension>
        </extensions>
      </trkpt>
      <trkpt lat="43.1259162537753582000732421875" lon="13.05301451124250888824462890625">
        <ele>378.20001220703125</ele>
        <time>2021-06-04T07:08:55.000Z</time>
        <extensions>
          <ns3:TrackPointExtension>
            <ns3:atemp>19.0</ns3:atemp>
          </ns3:TrackPointExtension>
        </extensions>
      </trkpt>
      <trkpt lat="43.12587291933596134185791015625" lon="13.0530058778822422027587890625">
        <ele>378.20001220703125</ele>
        <time>2021-06-04T07:08:56.000Z</time>
        <extensions>
          <ns3:TrackPointExtension>
            <ns3:atemp>19.0</ns3:atemp>
          </ns3:TrackPointExtension>
        </extensions>
      </trkpt>
      <trkpt lat="43.12565398402512073516845703125" lon="13.05293622426688671112060546875">
        <ele>378.399993896484375</ele>
        <time>2021-06-04T07:09:02.000Z</time>
        <extensions>
          <ns3:TrackPointExtension>
            <ns3:atemp>19.0</ns3:atemp>
          </ns3:TrackPointExtension>
        </extensions>
      </trkpt>
      <trkpt lat="43.12558592297136783599853515625" lon="13.0529213882982730865478515625">
        <ele>379.600006103515625</ele>
        <time>2021-06-04T07:09:04.000Z</time>
        <extensions>
          <ns3:TrackPointExtension>
            <ns3:atemp>19.0</ns3:atemp>
          </ns3:TrackPointExtension>
        </extensions>
      </trkpt>
      <trkpt lat="43.1254529021680355072021484375" lon="13.0528892017900943756103515625">
        <ele>380.79998779296875</ele>
        <time>2021-06-04T07:09:08.000Z</time>
        <extensions>
          <ns3:TrackPointExtension>
            <ns3:atemp>19.0</ns3:atemp>
          </ns3:TrackPointExtension>
        </extensions>
      </trkpt>
      <trkpt lat="43.12538676895201206207275390625" lon="13.05287537164986133575439453125">
        <ele>381.600006103515625</ele>
        <time>2021-06-04T07:09:10.000Z</time>
        <extensions>
          <ns3:TrackPointExtension>
            <ns3:atemp>19.0</ns3:atemp>
          </ns3:TrackPointExtension>
        </extensions>
      </trkpt>
      <trkpt lat="43.12535139732062816619873046875" lon="13.052867911756038665771484375">
        <ele>381.79998779296875</ele>
        <time>2021-06-04T07:09:11.000Z</time>
        <extensions>
          <ns3:TrackPointExtension>
            <ns3:atemp>19.0</ns3:atemp>
          </ns3:TrackPointExtension>
        </extensions>
      </trkpt>
      <trkpt lat="43.12524922192096710205078125" lon="13.05284100584685802459716796875">
        <ele>383</ele>
        <time>2021-06-04T07:09:14.000Z</time>
        <extensions>
          <ns3:TrackPointExtension>
            <ns3:atemp>19.0</ns3:atemp>
          </ns3:TrackPointExtension>
        </extensions>
      </trkpt>
      <trkpt lat="43.1251367367804050445556640625" lon="13.05280915461480617523193359375">
        <ele>383.79998779296875</ele>
        <time>2021-06-04T07:09:17.000Z</time>
        <extensions>
          <ns3:TrackPointExtension>
            <ns3:atemp>19.0</ns3:atemp>
          </ns3:TrackPointExtension>
        </extensions>
      </trkpt>
      <trkpt lat="43.12509994022548198699951171875" lon="13.05279792286455631256103515625">
        <ele>384.20001220703125</ele>
        <time>2021-06-04T07:09:18.000Z</time>
        <extensions>
          <ns3:TrackPointExtension>
            <ns3:atemp>19.0</ns3:atemp>
          </ns3:TrackPointExtension>
        </extensions>
      </trkpt>
      <trkpt lat="43.12488041818141937255859375" lon="13.0527274310588836669921875">
        <ele>385.20001220703125</ele>
        <time>2021-06-04T07:09:24.000Z</time>
        <extensions>
          <ns3:TrackPointExtension>
            <ns3:atemp>19.0</ns3:atemp>
          </ns3:TrackPointExtension>
        </extensions>
      </trkpt>
      <trkpt lat="43.12480866909027099609375" lon="13.05270622484385967254638671875">
        <ele>385.399993896484375</ele>
        <time>2021-06-04T07:09:26.000Z</time>
        <extensions>
          <ns3:TrackPointExtension>
            <ns3:atemp>19.0</ns3:atemp>
          </ns3:TrackPointExtension>
        </extensions>
      </trkpt>
      <trkpt lat="43.12451991252601146697998046875" lon="13.0526201426982879638671875">
        <ele>386.20001220703125</ele>
        <time>2021-06-04T07:09:34.000Z</time>
        <extensions>
          <ns3:TrackPointExtension>
            <ns3:atemp>19.0</ns3:atemp>
          </ns3:TrackPointExtension>
        </extensions>
      </trkpt>
      <trkpt lat="43.12444548122584819793701171875" lon="13.0525988526642322540283203125">
        <ele>386.600006103515625</ele>
        <time>2021-06-04T07:09:36.000Z</time>
        <extensions>
          <ns3:TrackPointExtension>
            <ns3:atemp>19.0</ns3:atemp>
          </ns3:TrackPointExtension>
        </extensions>
      </trkpt>
      <trkpt lat="43.12420575879514217376708984375" lon="13.05253632366657257080078125">
        <ele>387.399993896484375</ele>
        <time>2021-06-04T07:09:43.000Z</time>
        <extensions>
          <ns3:TrackPointExtension>
            <ns3:atemp>19.0</ns3:atemp>
          </ns3:TrackPointExtension>
        </extensions>
      </trkpt>
      <trkpt lat="43.1241734884679317474365234375" lon="13.05252886377274990081787109375">
        <ele>387.600006103515625</ele>
        <time>2021-06-04T07:09:44.000Z</time>
        <extensions>
          <ns3:TrackPointExtension>
            <ns3:atemp>19.0</ns3:atemp>
          </ns3:TrackPointExtension>
        </extensions>
      </trkpt>
      <trkpt lat="43.1240440718829631805419921875" lon="13.05250413715839385986328125">
        <ele>388.399993896484375</ele>
        <time>2021-06-04T07:09:48.000Z</time>
        <extensions>
          <ns3:TrackPointExtension>
            <ns3:atemp>19.0</ns3:atemp>
          </ns3:TrackPointExtension>
        </extensions>
      </trkpt>
      <trkpt lat="43.1238754279911518096923828125" lon="13.052493073046207427978515625">
        <ele>389.20001220703125</ele>
        <time>2021-06-04T07:09:53.000Z</time>
        <extensions>
          <ns3:TrackPointExtension>
            <ns3:atemp>19.0</ns3:atemp>
          </ns3:TrackPointExtension>
        </extensions>
      </trkpt>
      <trkpt lat="43.1238093785941600799560546875" lon="13.0525046400725841522216796875">
        <ele>389.600006103515625</ele>
        <time>2021-06-04T07:09:55.000Z</time>
        <extensions>
          <ns3:TrackPointExtension>
            <ns3:atemp>19.0</ns3:atemp>
          </ns3:TrackPointExtension>
        </extensions>
      </trkpt>
      <trkpt lat="43.12364350073039531707763671875" lon="13.052535988390445709228515625">
        <ele>390.79998779296875</ele>
        <time>2021-06-04T07:10:00.000Z</time>
        <extensions>
          <ns3:TrackPointExtension>
            <ns3:atemp>19.0</ns3:atemp>
          </ns3:TrackPointExtension>
        </extensions>
      </trkpt>
      <trkpt lat="43.12361097894608974456787109375" lon="13.05254261009395122528076171875">
        <ele>391.399993896484375</ele>
        <time>2021-06-04T07:10:01.000Z</time>
        <extensions>
          <ns3:TrackPointExtension>
            <ns3:atemp>19.0</ns3:atemp>
          </ns3:TrackPointExtension>
        </extensions>
      </trkpt>
      <trkpt lat="43.123521544039249420166015625" lon="13.05258468724787235260009765625">
        <ele>391.79998779296875</ele>
        <time>2021-06-04T07:10:04.000Z</time>
        <extensions>
          <ns3:TrackPointExtension>
            <ns3:atemp>19.0</ns3:atemp>
          </ns3:TrackPointExtension>
        </extensions>
      </trkpt>
      <trkpt lat="43.12341886572539806365966796875" lon="13.0526427738368511199951171875">
        <ele>392.79998779296875</ele>
        <time>2021-06-04T07:10:08.000Z</time>
        <extensions>
          <ns3:TrackPointExtension>
            <ns3:atemp>19.0</ns3:atemp>
          </ns3:TrackPointExtension>
        </extensions>
      </trkpt>
      <trkpt lat="43.12339623458683490753173828125" lon="13.05265828035771846771240234375">
        <ele>393</ele>
        <time>2021-06-04T07:10:09.000Z</time>
        <extensions>
          <ns3:TrackPointExtension>
            <ns3:atemp>19.0</ns3:atemp>
          </ns3:TrackPointExtension>
        </extensions>
      </trkpt>
      <trkpt lat="43.12329246662557125091552734375" lon="13.0527272634208202362060546875">
        <ele>394.20001220703125</ele>
        <time>2021-06-04T07:10:13.000Z</time>
        <extensions>
          <ns3:TrackPointExtension>
            <ns3:atemp>19.0</ns3:atemp>
          </ns3:TrackPointExtension>
        </extensions>
      </trkpt>
      <trkpt lat="43.12321535311639308929443359375" lon="13.05276070721447467803955078125">
        <ele>395</ele>
        <time>2021-06-04T07:10:16.000Z</time>
        <extensions>
          <ns3:TrackPointExtension>
            <ns3:atemp>19.0</ns3:atemp>
          </ns3:TrackPointExtension>
        </extensions>
      </trkpt>
      <trkpt lat="43.12318718992173671722412109375" lon="13.05276028811931610107421875">
        <ele>395.20001220703125</ele>
        <time>2021-06-04T07:10:17.000Z</time>
        <extensions>
          <ns3:TrackPointExtension>
            <ns3:atemp>19.0</ns3:atemp>
          </ns3:TrackPointExtension>
        </extensions>
      </trkpt>
      <trkpt lat="43.12307772226631641387939453125" lon="13.05274243466556072235107421875">
        <ele>396.600006103515625</ele>
        <time>2021-06-04T07:10:21.000Z</time>
        <extensions>
          <ns3:TrackPointExtension>
            <ns3:atemp>19.0</ns3:atemp>
          </ns3:TrackPointExtension>
        </extensions>
      </trkpt>
      <trkpt lat="43.12305785715579986572265625" lon="13.052720390260219573974609375">
        <ele>397</ele>
        <time>2021-06-04T07:10:22.000Z</time>
        <extensions>
          <ns3:TrackPointExtension>
            <ns3:atemp>19.0</ns3:atemp>
          </ns3:TrackPointExtension>
        </extensions>
      </trkpt>
      <trkpt lat="43.12303111888468265533447265625" lon="13.05266330949962139129638671875">
        <ele>397.79998779296875</ele>
        <time>2021-06-04T07:10:24.000Z</time>
        <extensions>
          <ns3:TrackPointExtension>
            <ns3:atemp>19.0</ns3:atemp>
          </ns3:TrackPointExtension>
        </extensions>
      </trkpt>
      <trkpt lat="43.12299205921590328216552734375" lon="13.05257982574403285980224609375">
        <ele>398.79998779296875</ele>
        <time>2021-06-04T07:10:27.000Z</time>
        <extensions>
          <ns3:TrackPointExtension>
            <ns3:atemp>19.0</ns3:atemp>
          </ns3:TrackPointExtension>
        </extensions>
      </trkpt>
      <trkpt lat="43.12297663651406764984130859375" lon="13.05255585350096225738525390625">
        <ele>399.20001220703125</ele>
        <time>2021-06-04T07:10:28.000Z</time>
        <extensions>
          <ns3:TrackPointExtension>
            <ns3:atemp>19.0</ns3:atemp>
          </ns3:TrackPointExtension>
        </extensions>
      </trkpt>
      <trkpt lat="43.12293338589370250701904296875" lon="13.0524855293333530426025390625">
        <ele>400.399993896484375</ele>
        <time>2021-06-04T07:10:31.000Z</time>
        <extensions>
          <ns3:TrackPointExtension>
            <ns3:atemp>19.0</ns3:atemp>
          </ns3:TrackPointExtension>
        </extensions>
      </trkpt>
      <trkpt lat="43.12290740199387073516845703125" lon="13.0524352379143238067626953125">
        <ele>401</ele>
        <time>2021-06-04T07:10:33.000Z</time>
        <extensions>
          <ns3:TrackPointExtension>
            <ns3:atemp>19.0</ns3:atemp>
          </ns3:TrackPointExtension>
        </extensions>
      </trkpt>
      <trkpt lat="43.12289549969136714935302734375" lon="13.0524107627570629119873046875">
        <ele>401.399993896484375</ele>
        <time>2021-06-04T07:10:34.000Z</time>
        <extensions>
          <ns3:TrackPointExtension>
            <ns3:atemp>19.0</ns3:atemp>
          </ns3:TrackPointExtension>
        </extensions>
      </trkpt>
      <trkpt lat="43.1228407658636569976806640625" lon="13.0523142032325267791748046875">
        <ele>402.600006103515625</ele>
        <time>2021-06-04T07:10:38.000Z</time>
        <extensions>
          <ns3:TrackPointExtension>
            <ns3:atemp>19.0</ns3:atemp>
          </ns3:TrackPointExtension>
        </extensions>
      </trkpt>
      <trkpt lat="43.12279039062559604644775390625" lon="13.0522431246936321258544921875">
        <ele>403.79998779296875</ele>
        <time>2021-06-04T07:10:41.000Z</time>
        <extensions>
          <ns3:TrackPointExtension>
            <ns3:atemp>19.0</ns3:atemp>
          </ns3:TrackPointExtension>
        </extensions>
      </trkpt>
      <trkpt lat="43.12274529598653316497802734375" lon="13.05217229761183261871337890625">
        <ele>405</ele>
        <time>2021-06-04T07:10:44.000Z</time>
        <extensions>
          <ns3:TrackPointExtension>
            <ns3:atemp>19.0</ns3:atemp>
          </ns3:TrackPointExtension>
        </extensions>
      </trkpt>
      <trkpt lat="43.1226835213601589202880859375" lon="13.05207255296409130096435546875">
        <ele>406.399993896484375</ele>
        <time>2021-06-04T07:10:48.000Z</time>
        <extensions>
          <ns3:TrackPointExtension>
            <ns3:atemp>19.0</ns3:atemp>
          </ns3:TrackPointExtension>
        </extensions>
      </trkpt>
      <trkpt lat="43.12263281084597110748291015625" lon="13.051972724497318267822265625">
        <ele>407.600006103515625</ele>
        <time>2021-06-04T07:10:52.000Z</time>
        <extensions>
          <ns3:TrackPointExtension>
            <ns3:atemp>19.0</ns3:atemp>
          </ns3:TrackPointExtension>
        </extensions>
      </trkpt>
      <trkpt lat="43.1226025521755218505859375" lon="13.05189720354974269866943359375">
        <ele>408.79998779296875</ele>
        <time>2021-06-04T07:10:55.000Z</time>
        <extensions>
          <ns3:TrackPointExtension>
            <ns3:atemp>19.0</ns3:atemp>
          </ns3:TrackPointExtension>
        </extensions>
      </trkpt>
      <trkpt lat="43.1225782446563243865966796875" lon="13.0518250353634357452392578125">
        <ele>410.20001220703125</ele>
        <time>2021-06-04T07:10:58.000Z</time>
        <extensions>
          <ns3:TrackPointExtension>
            <ns3:atemp>19.0</ns3:atemp>
          </ns3:TrackPointExtension>
        </extensions>
      </trkpt>
      <trkpt lat="43.1225681863725185394287109375" lon="13.05177901871502399444580078125">
        <ele>411.20001220703125</ele>
        <time>2021-06-04T07:11:00.000Z</time>
        <extensions>
          <ns3:TrackPointExtension>
            <ns3:atemp>19.0</ns3:atemp>
          </ns3:TrackPointExtension>
        </extensions>
      </trkpt>
      <trkpt lat="43.1225614808499813079833984375" lon="13.0517536215484142303466796875">
        <ele>411.79998779296875</ele>
        <time>2021-06-04T07:11:01.000Z</time>
        <extensions>
          <ns3:TrackPointExtension>
            <ns3:atemp>19.0</ns3:atemp>
          </ns3:TrackPointExtension>
        </extensions>
      </trkpt>
      <trkpt lat="43.12255050055682659149169921875" lon="13.05172688327729701995849609375">
        <ele>412.20001220703125</ele>
        <time>2021-06-04T07:11:02.000Z</time>
        <extensions>
          <ns3:TrackPointExtension>
            <ns3:atemp>19.0</ns3:atemp>
          </ns3:TrackPointExtension>
        </extensions>
      </trkpt>
      <trkpt lat="43.1225256063044071197509765625" lon="13.05167424492537975311279296875">
        <ele>413.79998779296875</ele>
        <time>2021-06-04T07:11:04.000Z</time>
        <extensions>
          <ns3:TrackPointExtension>
            <ns3:atemp>19.0</ns3:atemp>
          </ns3:TrackPointExtension>
        </extensions>
      </trkpt>
      <trkpt lat="43.12248679809272289276123046875" lon="13.051609955728054046630859375">
        <ele>415.20001220703125</ele>
        <time>2021-06-04T07:11:07.000Z</time>
        <extensions>
          <ns3:TrackPointExtension>
            <ns3:atemp>19.0</ns3:atemp>
          </ns3:TrackPointExtension>
        </extensions>
      </trkpt>
      <trkpt lat="43.12247104011476039886474609375" lon="13.05159193463623523712158203125">
        <ele>415.79998779296875</ele>
        <time>2021-06-04T07:11:08.000Z</time>
        <extensions>
          <ns3:TrackPointExtension>
            <ns3:atemp>19.0</ns3:atemp>
          </ns3:TrackPointExtension>
        </extensions>
      </trkpt>
      <trkpt lat="43.12245167791843414306640625" lon="13.051577769219875335693359375">
        <ele>416.20001220703125</ele>
        <time>2021-06-04T07:11:09.000Z</time>
        <extensions>
          <ns3:TrackPointExtension>
            <ns3:atemp>19.0</ns3:atemp>
          </ns3:TrackPointExtension>
        </extensions>
      </trkpt>
      <trkpt lat="43.12241613864898681640625" lon="13.0515501089394092559814453125">
        <ele>417.399993896484375</ele>
        <time>2021-06-04T07:11:11.000Z</time>
        <extensions>
          <ns3:TrackPointExtension>
            <ns3:atemp>19.0</ns3:atemp>
          </ns3:TrackPointExtension>
        </extensions>
      </trkpt>
      <trkpt lat="43.1223787553608417510986328125" lon="13.05151708424091339111328125">
        <ele>418.600006103515625</ele>
        <time>2021-06-04T07:11:13.000Z</time>
        <extensions>
          <ns3:TrackPointExtension>
            <ns3:atemp>19.0</ns3:atemp>
          </ns3:TrackPointExtension>
        </extensions>
      </trkpt>
      <trkpt lat="43.12235855497419834136962890625" lon="13.0515011586248874664306640625">
        <ele>419.20001220703125</ele>
        <time>2021-06-04T07:11:14.000Z</time>
        <extensions>
          <ns3:TrackPointExtension>
            <ns3:atemp>19.0</ns3:atemp>
          </ns3:TrackPointExtension>
        </extensions>
      </trkpt>
      <trkpt lat="43.12234078533947467803955078125" lon="13.05148682557046413421630859375">
        <ele>419.79998779296875</ele>
        <time>2021-06-04T07:11:15.000Z</time>
        <extensions>
          <ns3:TrackPointExtension>
            <ns3:atemp>19.0</ns3:atemp>
          </ns3:TrackPointExtension>
        </extensions>
      </trkpt>
      <trkpt lat="43.1222697906196117401123046875" lon="13.05143217556178569793701171875">
        <ele>421.20001220703125</ele>
        <time>2021-06-04T07:11:18.000Z</time>
        <extensions>
          <ns3:TrackPointExtension>
            <ns3:atemp>19.0</ns3:atemp>
          </ns3:TrackPointExtension>
        </extensions>
      </trkpt>
      <trkpt lat="43.1222332455217838287353515625" lon="13.0514005757868289947509765625">
        <ele>422.399993896484375</ele>
        <time>2021-06-04T07:11:21.000Z</time>
        <extensions>
          <ns3:TrackPointExtension>
            <ns3:atemp>19.0</ns3:atemp>
          </ns3:TrackPointExtension>
        </extensions>
      </trkpt>
      <trkpt lat="43.12218337319791316986083984375" lon="13.05135992355644702911376953125">
        <ele>423.600006103515625</ele>
        <time>2021-06-04T07:11:24.000Z</time>
        <extensions>
          <ns3:TrackPointExtension>
            <ns3:atemp>19.0</ns3:atemp>
          </ns3:TrackPointExtension>
        </extensions>
      </trkpt>
      <trkpt lat="43.12214246951043605804443359375" lon="13.05132455192506313323974609375">
        <ele>424.79998779296875</ele>
        <time>2021-06-04T07:11:27.000Z</time>
        <extensions>
          <ns3:TrackPointExtension>
            <ns3:atemp>19.0</ns3:atemp>
          </ns3:TrackPointExtension>
        </extensions>
      </trkpt>
      <trkpt lat="43.12206988222897052764892578125" lon="13.05125347338616847991943359375">
        <ele>426.20001220703125</ele>
        <time>2021-06-04T07:11:31.000Z</time>
        <extensions>
          <ns3:TrackPointExtension>
            <ns3:atemp>19.0</ns3:atemp>
          </ns3:TrackPointExtension>
        </extensions>
      </trkpt>
      <trkpt lat="43.12202931381762027740478515625" lon="13.051220364868640899658203125">
        <ele>426.600006103515625</ele>
        <time>2021-06-04T07:11:33.000Z</time>
        <extensions>
          <ns3:TrackPointExtension>
            <ns3:atemp>19.0</ns3:atemp>
          </ns3:TrackPointExtension>
        </extensions>
      </trkpt>
      <trkpt lat="43.12199444510042667388916015625" lon="13.05117820389568805694580078125">
        <ele>427.20001220703125</ele>
        <time>2021-06-04T07:11:35.000Z</time>
        <extensions>
          <ns3:TrackPointExtension>
            <ns3:atemp>19.0</ns3:atemp>
          </ns3:TrackPointExtension>
        </extensions>
      </trkpt>
      <trkpt lat="43.1219160743057727813720703125" lon="13.0511073768138885498046875">
        <ele>428.20001220703125</ele>
        <time>2021-06-04T07:11:39.000Z</time>
        <extensions>
          <ns3:TrackPointExtension>
            <ns3:atemp>19.0</ns3:atemp>
          </ns3:TrackPointExtension>
        </extensions>
      </trkpt>
      <trkpt lat="43.1218148209154605865478515625" lon="13.0510143376886844635009765625">
        <ele>429.399993896484375</ele>
        <time>2021-06-04T07:11:44.000Z</time>
        <extensions>
          <ns3:TrackPointExtension>
            <ns3:atemp>19.0</ns3:atemp>
          </ns3:TrackPointExtension>
        </extensions>
      </trkpt>
      <trkpt lat="43.12175966799259185791015625" lon="13.050953485071659088134765625">
        <ele>430.20001220703125</ele>
        <time>2021-06-04T07:11:47.000Z</time>
        <extensions>
          <ns3:TrackPointExtension>
            <ns3:atemp>19.0</ns3:atemp>
          </ns3:TrackPointExtension>
        </extensions>
      </trkpt>
      <trkpt lat="43.121743910014629364013671875" lon="13.050935380160808563232421875">
        <ele>430.399993896484375</ele>
        <time>2021-06-04T07:11:48.000Z</time>
        <extensions>
          <ns3:TrackPointExtension>
            <ns3:atemp>19.0</ns3:atemp>
          </ns3:TrackPointExtension>
        </extensions>
      </trkpt>
      <trkpt lat="43.1216884218156337738037109375" lon="13.05084560997784137725830078125">
        <ele>431.79998779296875</ele>
        <time>2021-06-04T07:11:52.000Z</time>
        <extensions>
          <ns3:TrackPointExtension>
            <ns3:atemp>19.0</ns3:atemp>
          </ns3:TrackPointExtension>
        </extensions>
      </trkpt>
      <trkpt lat="43.1216713227331638336181640625" lon="13.05082281120121479034423828125">
        <ele>432.20001220703125</ele>
        <time>2021-06-04T07:11:53.000Z</time>
        <extensions>
          <ns3:TrackPointExtension>
            <ns3:atemp>19.0</ns3:atemp>
          </ns3:TrackPointExtension>
        </extensions>
      </trkpt>
      <trkpt lat="43.1216310895979404449462890625" lon="13.05078106932342052459716796875">
        <ele>433</ele>
        <time>2021-06-04T07:11:55.000Z</time>
        <extensions>
          <ns3:TrackPointExtension>
            <ns3:atemp>19.0</ns3:atemp>
          </ns3:TrackPointExtension>
        </extensions>
      </trkpt>
      <trkpt lat="43.12158138491213321685791015625" lon="13.050719462335109710693359375">
        <ele>434</ele>
        <time>2021-06-04T07:11:58.000Z</time>
        <extensions>
          <ns3:TrackPointExtension>
            <ns3:atemp>19.0</ns3:atemp>
          </ns3:TrackPointExtension>
        </extensions>
      </trkpt>
      <trkpt lat="43.121546097099781036376953125" lon="13.05067243985831737518310546875">
        <ele>434.79998779296875</ele>
        <time>2021-06-04T07:12:00.000Z</time>
        <extensions>
          <ns3:TrackPointExtension>
            <ns3:atemp>19.0</ns3:atemp>
          </ns3:TrackPointExtension>
        </extensions>
      </trkpt>
      <trkpt lat="43.12150443904101848602294921875" lon="13.0506260879337787628173828125">
        <ele>435.600006103515625</ele>
        <time>2021-06-04T07:12:02.000Z</time>
        <extensions>
          <ns3:TrackPointExtension>
            <ns3:atemp>19.0</ns3:atemp>
          </ns3:TrackPointExtension>
        </extensions>
      </trkpt>
      <trkpt lat="43.1214379705488681793212890625" lon="13.05055894888937473297119140625">
        <ele>437</ele>
        <time>2021-06-04T07:12:05.000Z</time>
        <extensions>
          <ns3:TrackPointExtension>
            <ns3:atemp>19.0</ns3:atemp>
          </ns3:TrackPointExtension>
        </extensions>
      </trkpt>
      <trkpt lat="43.1214145012199878692626953125" lon="13.0505318753421306610107421875">
        <ele>437.79998779296875</ele>
        <time>2021-06-04T07:12:06.000Z</time>
        <extensions>
          <ns3:TrackPointExtension>
            <ns3:atemp>19.0</ns3:atemp>
          </ns3:TrackPointExtension>
        </extensions>
      </trkpt>
      <trkpt lat="43.1213632039725780487060546875" lon="13.05047345347702503204345703125">
        <ele>438.20001220703125</ele>
        <time>2021-06-04T07:12:08.000Z</time>
        <extensions>
          <ns3:TrackPointExtension>
            <ns3:atemp>19.0</ns3:atemp>
          </ns3:TrackPointExtension>
        </extensions>
      </trkpt>
      <trkpt lat="43.12123605050146579742431640625" lon="13.0503149516880512237548828125">
        <ele>439.399993896484375</ele>
        <time>2021-06-04T07:12:14.000Z</time>
        <extensions>
          <ns3:TrackPointExtension>
            <ns3:atemp>19.0</ns3:atemp>
          </ns3:TrackPointExtension>
        </extensions>
      </trkpt>
      <trkpt lat="43.12113379128277301788330078125" lon="13.050185702741146087646484375">
        <ele>439.79998779296875</ele>
        <time>2021-06-04T07:12:19.000Z</time>
        <extensions>
          <ns3:TrackPointExtension>
            <ns3:atemp>19.0</ns3:atemp>
          </ns3:TrackPointExtension>
        </extensions>
      </trkpt>
      <trkpt lat="43.12108215875923633575439453125" lon="13.05011286400258541107177734375">
        <ele>440.399993896484375</ele>
        <time>2021-06-04T07:12:22.000Z</time>
        <extensions>
          <ns3:TrackPointExtension>
            <ns3:atemp>19.0</ns3:atemp>
          </ns3:TrackPointExtension>
        </extensions>
      </trkpt>
      <trkpt lat="43.12102080322802066802978515625" lon="13.0500309728085994720458984375">
        <ele>440.79998779296875</ele>
        <time>2021-06-04T07:12:25.000Z</time>
        <extensions>
          <ns3:TrackPointExtension>
            <ns3:atemp>19.0</ns3:atemp>
          </ns3:TrackPointExtension>
        </extensions>
      </trkpt>
      <trkpt lat="43.12097671441733837127685546875" lon="13.0499701201915740966796875">
        <ele>441.399993896484375</ele>
        <time>2021-06-04T07:12:28.000Z</time>
        <extensions>
          <ns3:TrackPointExtension>
            <ns3:atemp>19.0</ns3:atemp>
          </ns3:TrackPointExtension>
        </extensions>
      </trkpt>
      <trkpt lat="43.12095391564071178436279296875" lon="13.049949668347835540771484375">
        <ele>442.20001220703125</ele>
        <time>2021-06-04T07:12:30.000Z</time>
        <extensions>
          <ns3:TrackPointExtension>
            <ns3:atemp>19.0</ns3:atemp>
          </ns3:TrackPointExtension>
        </extensions>
      </trkpt>
      <trkpt lat="43.12094218097627162933349609375" lon="13.04994137026369571685791015625">
        <ele>442.600006103515625</ele>
        <time>2021-06-04T07:12:32.000Z</time>
        <extensions>
          <ns3:TrackPointExtension>
            <ns3:atemp>19.0</ns3:atemp>
          </ns3:TrackPointExtension>
        </extensions>
      </trkpt>
      <trkpt lat="43.12093161977827548980712890625" lon="13.0499324016273021697998046875">
        <ele>443.79998779296875</ele>
        <time>2021-06-04T07:12:36.000Z</time>
        <extensions>
          <ns3:TrackPointExtension>
            <ns3:atemp>19.0</ns3:atemp>
          </ns3:TrackPointExtension>
        </extensions>
      </trkpt>
      <trkpt lat="43.12092994339764118194580078125" lon="13.04993189871311187744140625">
        <ele>444.20001220703125</ele>
        <time>2021-06-04T07:12:46.000Z</time>
        <extensions>
          <ns3:TrackPointExtension>
            <ns3:atemp>19.0</ns3:atemp>
          </ns3:TrackPointExtension>
        </extensions>
      </trkpt>
      <trkpt lat="43.1209194660186767578125" lon="13.04991714656352996826171875">
        <ele>444.20001220703125</ele>
        <time>2021-06-04T07:12:55.000Z</time>
        <extensions>
          <ns3:TrackPointExtension>
            <ns3:atemp>19.0</ns3:atemp>
          </ns3:TrackPointExtension>
        </extensions>
      </trkpt>
      <trkpt lat="43.1208344735205173492431640625" lon="13.04982217960059642791748046875">
        <ele>444</ele>
        <time>2021-06-04T07:12:59.000Z</time>
        <extensions>
          <ns3:TrackPointExtension>
            <ns3:atemp>19.0</ns3:atemp>
          </ns3:TrackPointExtension>
        </extensions>
      </trkpt>
      <trkpt lat="43.12063825316727161407470703125" lon="13.04963685572147369384765625">
        <ele>443.79998779296875</ele>
        <time>2021-06-04T07:13:04.000Z</time>
        <extensions>
          <ns3:TrackPointExtension>
            <ns3:atemp>19.0</ns3:atemp>
          </ns3:TrackPointExtension>
        </extensions>
      </trkpt>
      <trkpt lat="43.1205310486257076263427734375" lon="13.049517162144184112548828125">
        <ele>443.20001220703125</ele>
        <time>2021-06-04T07:13:07.000Z</time>
        <extensions>
          <ns3:TrackPointExtension>
            <ns3:atemp>19.0</ns3:atemp>
          </ns3:TrackPointExtension>
        </extensions>
      </trkpt>
      <trkpt lat="43.12046525068581104278564453125" lon="13.049447424709796905517578125">
        <ele>442</ele>
        <time>2021-06-04T07:13:09.000Z</time>
        <extensions>
          <ns3:TrackPointExtension>
            <ns3:atemp>19.0</ns3:atemp>
          </ns3:TrackPointExtension>
        </extensions>
      </trkpt>
      <trkpt lat="43.12043457292020320892333984375" lon="13.04941481910645961761474609375">
        <ele>441.79998779296875</ele>
        <time>2021-06-04T07:13:10.000Z</time>
        <extensions>
          <ns3:TrackPointExtension>
            <ns3:atemp>19.0</ns3:atemp>
          </ns3:TrackPointExtension>
        </extensions>
      </trkpt>
      <trkpt lat="43.1202437169849872589111328125" lon="13.0491709895431995391845703125">
        <ele>441.600006103515625</ele>
        <time>2021-06-04T07:13:17.000Z</time>
        <extensions>
          <ns3:TrackPointExtension>
            <ns3:atemp>19.0</ns3:atemp>
          </ns3:TrackPointExtension>
        </extensions>
      </trkpt>
      <trkpt lat="43.120100386440753936767578125" lon="13.04900678806006908416748046875">
        <ele>442.600006103515625</ele>
        <time>2021-06-04T07:13:22.000Z</time>
        <extensions>
          <ns3:TrackPointExtension>
            <ns3:atemp>19.0</ns3:atemp>
          </ns3:TrackPointExtension>
        </extensions>
      </trkpt>
      <trkpt lat="43.11997197568416595458984375" lon="13.0488397367298603057861328125">
        <ele>443</ele>
        <time>2021-06-04T07:13:27.000Z</time>
        <extensions>
          <ns3:TrackPointExtension>
            <ns3:atemp>19.0</ns3:atemp>
          </ns3:TrackPointExtension>
        </extensions>
      </trkpt>
      <trkpt lat="43.11992914415895938873291015625" lon="13.0487753637135028839111328125">
        <ele>443.20001220703125</ele>
        <time>2021-06-04T07:13:29.000Z</time>
        <extensions>
          <ns3:TrackPointExtension>
            <ns3:atemp>20.0</ns3:atemp>
          </ns3:TrackPointExtension>
        </extensions>
      </trkpt>
      <trkpt lat="43.11989142559468746185302734375" lon="13.0486838333308696746826171875">
        <ele>443.20001220703125</ele>
        <time>2021-06-04T07:13:31.000Z</time>
        <extensions>
          <ns3:TrackPointExtension>
            <ns3:atemp>20.0</ns3:atemp>
          </ns3:TrackPointExtension>
        </extensions>
      </trkpt>
      <trkpt lat="43.1198319979012012481689453125" lon="13.04851778782904148101806640625">
        <ele>443.20001220703125</ele>
        <time>2021-06-04T07:13:34.000Z</time>
        <extensions>
          <ns3:TrackPointExtension>
            <ns3:atemp>20.0</ns3:atemp>
          </ns3:TrackPointExtension>
        </extensions>
      </trkpt>
      <trkpt lat="43.1197753362357616424560546875" lon="13.048444278538227081298828125">
        <ele>443.20001220703125</ele>
        <time>2021-06-04T07:13:36.000Z</time>
        <extensions>
          <ns3:TrackPointExtension>
            <ns3:atemp>20.0</ns3:atemp>
          </ns3:TrackPointExtension>
        </extensions>
      </trkpt>
      <trkpt lat="43.119739629328250885009765625" lon="13.04841284640133380889892578125">
        <ele>443.20001220703125</ele>
        <time>2021-06-04T07:13:38.000Z</time>
        <extensions>
          <ns3:TrackPointExtension>
            <ns3:atemp>20.0</ns3:atemp>
          </ns3:TrackPointExtension>
        </extensions>
      </trkpt>
      <trkpt lat="43.11975982971489429473876953125" lon="13.0484199710190296173095703125">
        <ele>443.399993896484375</ele>
        <time>2021-06-04T07:13:42.000Z</time>
        <extensions>
          <ns3:TrackPointExtension>
            <ns3:atemp>20.0</ns3:atemp>
          </ns3:TrackPointExtension>
        </extensions>
      </trkpt>
      <trkpt lat="43.1197716481983661651611328125" lon="13.048432879149913787841796875">
        <ele>444.399993896484375</ele>
        <time>2021-06-04T07:13:46.000Z</time>
        <extensions>
          <ns3:TrackPointExtension>
            <ns3:atemp>20.0</ns3:atemp>
          </ns3:TrackPointExtension>
        </extensions>
      </trkpt>
      <trkpt lat="43.11977273784577846527099609375" lon="13.048429526388645172119140625">
        <ele>444.600006103515625</ele>
        <time>2021-06-04T07:13:50.000Z</time>
        <extensions>
          <ns3:TrackPointExtension>
            <ns3:atemp>20.0</ns3:atemp>
          </ns3:TrackPointExtension>
        </extensions>
      </trkpt>
      <trkpt lat="43.11974407173693180084228515625" lon="13.04841301403939723968505859375">
        <ele>444.600006103515625</ele>
        <time>2021-06-04T07:14:02.000Z</time>
        <extensions>
          <ns3:TrackPointExtension>
            <ns3:atemp>20.0</ns3:atemp>
          </ns3:TrackPointExtension>
        </extensions>
      </trkpt>
      <trkpt lat="43.11966444365680217742919921875" lon="13.04834679700434207916259765625">
        <ele>444.600006103515625</ele>
        <time>2021-06-04T07:14:07.000Z</time>
        <extensions>
          <ns3:TrackPointExtension>
            <ns3:atemp>20.0</ns3:atemp>
          </ns3:TrackPointExtension>
        </extensions>
      </trkpt>
      <trkpt lat="43.119663186371326446533203125" lon="13.04832466877996921539306640625">
        <ele>444.600006103515625</ele>
        <time>2021-06-04T07:14:12.000Z</time>
        <extensions>
          <ns3:TrackPointExtension>
            <ns3:atemp>20.0</ns3:atemp>
          </ns3:TrackPointExtension>
        </extensions>
      </trkpt>
      <trkpt lat="43.1196646951138973236083984375" lon="13.04832064546644687652587890625">
        <ele>444.79998779296875</ele>
        <time>2021-06-04T07:14:24.000Z</time>
        <extensions>
          <ns3:TrackPointExtension>
            <ns3:atemp>20.0</ns3:atemp>
          </ns3:TrackPointExtension>
        </extensions>
      </trkpt>
      <trkpt lat="43.11963762156665325164794921875" lon="13.0482432805001735687255859375">
        <ele>444.79998779296875</ele>
        <time>2021-06-04T07:14:30.000Z</time>
        <extensions>
          <ns3:TrackPointExtension>
            <ns3:atemp>20.0</ns3:atemp>
          </ns3:TrackPointExtension>
        </extensions>
      </trkpt>
      <trkpt lat="43.11957308091223239898681640625" lon="13.04808796383440494537353515625">
        <ele>444.79998779296875</ele>
        <time>2021-06-04T07:14:35.000Z</time>
        <extensions>
          <ns3:TrackPointExtension>
            <ns3:atemp>20.0</ns3:atemp>
          </ns3:TrackPointExtension>
        </extensions>
      </trkpt>
      <trkpt lat="43.119432516396045684814453125" lon="13.0479103513062000274658203125">
        <ele>445.20001220703125</ele>
        <time>2021-06-04T07:14:41.000Z</time>
        <extensions>
          <ns3:TrackPointExtension>
            <ns3:atemp>20.0</ns3:atemp>
          </ns3:TrackPointExtension>
        </extensions>
      </trkpt>
      <trkpt lat="43.11920461244881153106689453125" lon="13.047641627490520477294921875">
        <ele>445.20001220703125</ele>
        <time>2021-06-04T07:14:48.000Z</time>
        <extensions>
          <ns3:TrackPointExtension>
            <ns3:atemp>20.0</ns3:atemp>
          </ns3:TrackPointExtension>
        </extensions>
      </trkpt>
      <trkpt lat="43.119118027389049530029296875" lon="13.04753844626247882843017578125">
        <ele>445.20001220703125</ele>
        <time>2021-06-04T07:14:50.000Z</time>
        <extensions>
          <ns3:TrackPointExtension>
            <ns3:atemp>20.0</ns3:atemp>
          </ns3:TrackPointExtension>
        </extensions>
      </trkpt>
      <trkpt lat="43.11902708373963832855224609375" lon="13.04738002829253673553466796875">
        <ele>444.79998779296875</ele>
        <time>2021-06-04T07:14:53.000Z</time>
        <extensions>
          <ns3:TrackPointExtension>
            <ns3:atemp>20.0</ns3:atemp>
          </ns3:TrackPointExtension>
        </extensions>
      </trkpt>
      <trkpt lat="43.118961788713932037353515625" lon="13.0472545512020587921142578125">
        <ele>443.600006103515625</ele>
        <time>2021-06-04T07:14:56.000Z</time>
        <extensions>
          <ns3:TrackPointExtension>
            <ns3:atemp>20.0</ns3:atemp>
          </ns3:TrackPointExtension>
        </extensions>
      </trkpt>
      <trkpt lat="43.1189120002090930938720703125" lon="13.04717416875064373016357421875">
        <ele>443.20001220703125</ele>
        <time>2021-06-04T07:14:58.000Z</time>
        <extensions>
          <ns3:TrackPointExtension>
            <ns3:atemp>20.0</ns3:atemp>
          </ns3:TrackPointExtension>
        </extensions>
      </trkpt>
      <trkpt lat="43.11885324306786060333251953125" lon="13.04709202609956264495849609375">
        <ele>443</ele>
        <time>2021-06-04T07:15:00.000Z</time>
        <extensions>
          <ns3:TrackPointExtension>
            <ns3:atemp>20.0</ns3:atemp>
          </ns3:TrackPointExtension>
        </extensions>
      </trkpt>
      <trkpt lat="43.11875668354332447052001953125" lon="13.046989180147647857666015625">
        <ele>443</ele>
        <time>2021-06-04T07:15:03.000Z</time>
        <extensions>
          <ns3:TrackPointExtension>
            <ns3:atemp>20.0</ns3:atemp>
          </ns3:TrackPointExtension>
        </extensions>
      </trkpt>
      <trkpt lat="43.11872449703514575958251953125" lon="13.046955652534961700439453125">
        <ele>443</ele>
        <time>2021-06-04T07:15:04.000Z</time>
        <extensions>
          <ns3:TrackPointExtension>
            <ns3:atemp>20.0</ns3:atemp>
          </ns3:TrackPointExtension>
        </extensions>
      </trkpt>
      <trkpt lat="43.11854797415435314178466796875" lon="13.04679547436535358428955078125">
        <ele>443.399993896484375</ele>
        <time>2021-06-04T07:15:09.000Z</time>
        <extensions>
          <ns3:TrackPointExtension>
            <ns3:atemp>20.0</ns3:atemp>
          </ns3:TrackPointExtension>
        </extensions>
      </trkpt>
      <trkpt lat="43.11837530694901943206787109375" lon="13.0466329492628574371337890625">
        <ele>443.79998779296875</ele>
        <time>2021-06-04T07:15:14.000Z</time>
        <extensions>
          <ns3:TrackPointExtension>
            <ns3:atemp>20.0</ns3:atemp>
          </ns3:TrackPointExtension>
        </extensions>
      </trkpt>
      <trkpt lat="43.11817900277674198150634765625" lon="13.04644729010760784149169921875">
        <ele>444.79998779296875</ele>
        <time>2021-06-04T07:15:20.000Z</time>
        <extensions>
          <ns3:TrackPointExtension>
            <ns3:atemp>20.0</ns3:atemp>
          </ns3:TrackPointExtension>
        </extensions>
      </trkpt>
      <trkpt lat="43.1180882267653942108154296875" lon="13.046329356729984283447265625">
        <ele>445.79998779296875</ele>
        <time>2021-06-04T07:15:23.000Z</time>
        <extensions>
          <ns3:TrackPointExtension>
            <ns3:atemp>20.0</ns3:atemp>
          </ns3:TrackPointExtension>
        </extensions>
      </trkpt>
      <trkpt lat="43.1179816089570522308349609375" lon="13.04617010056972503662109375">
        <ele>446.79998779296875</ele>
        <time>2021-06-04T07:15:27.000Z</time>
        <extensions>
          <ns3:TrackPointExtension>
            <ns3:atemp>20.0</ns3:atemp>
          </ns3:TrackPointExtension>
        </extensions>
      </trkpt>
      <trkpt lat="43.11795872636139392852783203125" lon="13.04611855186522006988525390625">
        <ele>446.79998779296875</ele>
        <time>2021-06-04T07:15:28.000Z</time>
        <extensions>
          <ns3:TrackPointExtension>
            <ns3:atemp>20.0</ns3:atemp>
          </ns3:TrackPointExtension>
        </extensions>
      </trkpt>
      <trkpt lat="43.117852695286273956298828125" lon="13.0458326451480388641357421875">
        <ele>446.79998779296875</ele>
        <time>2021-06-04T07:15:33.000Z</time>
        <extensions>
          <ns3:TrackPointExtension>
            <ns3:atemp>20.0</ns3:atemp>
          </ns3:TrackPointExtension>
        </extensions>
      </trkpt>
      <trkpt lat="43.11769586987793445587158203125" lon="13.0453967861831188201904296875">
        <ele>445.79998779296875</ele>
        <time>2021-06-04T07:15:40.000Z</time>
        <extensions>
          <ns3:TrackPointExtension>
            <ns3:atemp>20.0</ns3:atemp>
          </ns3:TrackPointExtension>
        </extensions>
      </trkpt>
      <trkpt lat="43.1176728196442127227783203125" lon="13.045333586633205413818359375">
        <ele>445.79998779296875</ele>
        <time>2021-06-04T07:15:41.000Z</time>
        <extensions>
          <ns3:TrackPointExtension>
            <ns3:atemp>20.0</ns3:atemp>
          </ns3:TrackPointExtension>
        </extensions>
      </trkpt>
      <trkpt lat="43.117572404444217681884765625" lon="13.04501406848430633544921875">
        <ele>445</ele>
        <time>2021-06-04T07:15:46.000Z</time>
        <extensions>
          <ns3:TrackPointExtension>
            <ns3:atemp>21.0</ns3:atemp>
          </ns3:TrackPointExtension>
        </extensions>
      </trkpt>
      <trkpt lat="43.11754181049764156341552734375" lon="13.0448942072689533233642578125">
        <ele>444.79998779296875</ele>
        <time>2021-06-04T07:15:48.000Z</time>
        <extensions>
          <ns3:TrackPointExtension>
            <ns3:atemp>21.0</ns3:atemp>
          </ns3:TrackPointExtension>
        </extensions>
      </trkpt>
      <trkpt lat="43.11752303503453731536865234375" lon="13.04478415288031101226806640625">
        <ele>444.79998779296875</ele>
        <time>2021-06-04T07:15:50.000Z</time>
        <extensions>
          <ns3:TrackPointExtension>
            <ns3:atemp>21.0</ns3:atemp>
          </ns3:TrackPointExtension>
        </extensions>
      </trkpt>
      <trkpt lat="43.11751775443553924560546875" lon="13.04471994750201702117919921875">
        <ele>444.79998779296875</ele>
        <time>2021-06-04T07:15:51.000Z</time>
        <extensions>
          <ns3:TrackPointExtension>
            <ns3:atemp>21.0</ns3:atemp>
          </ns3:TrackPointExtension>
        </extensions>
      </trkpt>
      <trkpt lat="43.11751465313136577606201171875" lon="13.044658340513706207275390625">
        <ele>444.600006103515625</ele>
        <time>2021-06-04T07:15:52.000Z</time>
        <extensions>
          <ns3:TrackPointExtension>
            <ns3:atemp>21.0</ns3:atemp>
          </ns3:TrackPointExtension>
        </extensions>
      </trkpt>
      <trkpt lat="43.1174830533564090728759765625" lon="13.04443873465061187744140625">
        <ele>444.399993896484375</ele>
        <time>2021-06-04T07:15:56.000Z</time>
        <extensions>
          <ns3:TrackPointExtension>
            <ns3:atemp>21.0</ns3:atemp>
          </ns3:TrackPointExtension>
        </extensions>
      </trkpt>
      <trkpt lat="43.117369897663593292236328125" lon="13.04428794421255588531494140625">
        <ele>444.20001220703125</ele>
        <time>2021-06-04T07:15:59.000Z</time>
        <extensions>
          <ns3:TrackPointExtension>
            <ns3:atemp>21.0</ns3:atemp>
          </ns3:TrackPointExtension>
        </extensions>
      </trkpt>
      <trkpt lat="43.11729940585792064666748046875" lon="13.04416875354945659637451171875">
        <ele>443.399993896484375</ele>
        <time>2021-06-04T07:16:01.000Z</time>
        <extensions>
          <ns3:TrackPointExtension>
            <ns3:atemp>21.0</ns3:atemp>
          </ns3:TrackPointExtension>
        </extensions>
      </trkpt>
      <trkpt lat="43.11726403422653675079345703125" lon="13.0441126786172389984130859375">
        <ele>443.20001220703125</ele>
        <time>2021-06-04T07:16:02.000Z</time>
        <extensions>
          <ns3:TrackPointExtension>
            <ns3:atemp>21.0</ns3:atemp>
          </ns3:TrackPointExtension>
        </extensions>
      </trkpt>
      <trkpt lat="43.11722530983388423919677734375" lon="13.0440664105117321014404296875">
        <ele>442.79998779296875</ele>
        <time>2021-06-04T07:16:03.000Z</time>
        <extensions>
          <ns3:TrackPointExtension>
            <ns3:atemp>21.0</ns3:atemp>
          </ns3:TrackPointExtension>
        </extensions>
      </trkpt>
      <trkpt lat="43.117184154689311981201171875" lon="13.0440288595855236053466796875">
        <ele>442.20001220703125</ele>
        <time>2021-06-04T07:16:04.000Z</time>
        <extensions>
          <ns3:TrackPointExtension>
            <ns3:atemp>21.0</ns3:atemp>
          </ns3:TrackPointExtension>
        </extensions>
      </trkpt>
      <trkpt lat="43.1171450950205326080322265625" lon="13.043999187648296356201171875">
        <ele>441</ele>
        <time>2021-06-04T07:16:05.000Z</time>
        <extensions>
          <ns3:TrackPointExtension>
            <ns3:atemp>21.0</ns3:atemp>
          </ns3:TrackPointExtension>
        </extensions>
      </trkpt>
      <trkpt lat="43.117108047008514404296875" lon="13.04396708495914936065673828125">
        <ele>440</ele>
        <time>2021-06-04T07:16:06.000Z</time>
        <extensions>
          <ns3:TrackPointExtension>
            <ns3:atemp>21.0</ns3:atemp>
          </ns3:TrackPointExtension>
        </extensions>
      </trkpt>
      <trkpt lat="43.11706982553005218505859375" lon="13.0439249239861965179443359375">
        <ele>438.79998779296875</ele>
        <time>2021-06-04T07:16:07.000Z</time>
        <extensions>
          <ns3:TrackPointExtension>
            <ns3:atemp>21.0</ns3:atemp>
          </ns3:TrackPointExtension>
        </extensions>
      </trkpt>
      <trkpt lat="43.1169942207634449005126953125" lon="13.04383565671741962432861328125">
        <ele>437.20001220703125</ele>
        <time>2021-06-04T07:16:09.000Z</time>
        <extensions>
          <ns3:TrackPointExtension>
            <ns3:atemp>21.0</ns3:atemp>
          </ns3:TrackPointExtension>
        </extensions>
      </trkpt>
      <trkpt lat="43.11689623631536960601806640625" lon="13.04369576275348663330078125">
        <ele>435.600006103515625</ele>
        <time>2021-06-04T07:16:12.000Z</time>
        <extensions>
          <ns3:TrackPointExtension>
            <ns3:atemp>21.0</ns3:atemp>
          </ns3:TrackPointExtension>
        </extensions>
      </trkpt>
      <trkpt lat="43.116849549114704132080078125" lon="13.04361269809305667877197265625">
        <ele>435.20001220703125</ele>
        <time>2021-06-04T07:16:14.000Z</time>
        <extensions>
          <ns3:TrackPointExtension>
            <ns3:atemp>21.0</ns3:atemp>
          </ns3:TrackPointExtension>
        </extensions>
      </trkpt>
      <trkpt lat="43.116800598800182342529296875" lon="13.04351496510207653045654296875">
        <ele>435.20001220703125</ele>
        <time>2021-06-04T07:16:18.000Z</time>
        <extensions>
          <ns3:TrackPointExtension>
            <ns3:atemp>21.0</ns3:atemp>
          </ns3:TrackPointExtension>
        </extensions>
      </trkpt>
      <trkpt lat="43.1167886964976787567138671875" lon="13.04350121878087520599365234375">
        <ele>435.20001220703125</ele>
        <time>2021-06-04T07:16:23.000Z</time>
        <extensions>
          <ns3:TrackPointExtension>
            <ns3:atemp>21.0</ns3:atemp>
          </ns3:TrackPointExtension>
        </extensions>
      </trkpt>
      <trkpt lat="43.11677210032939910888671875" lon="13.04346467368304729461669921875">
        <ele>436.399993896484375</ele>
        <time>2021-06-04T07:16:41.000Z</time>
        <extensions>
          <ns3:TrackPointExtension>
            <ns3:atemp>20.0</ns3:atemp>
          </ns3:TrackPointExtension>
        </extensions>
      </trkpt>
      <trkpt lat="43.11668568290770053863525390625" lon="13.04326233454048633575439453125">
        <ele>436.399993896484375</ele>
        <time>2021-06-04T07:16:48.000Z</time>
        <extensions>
          <ns3:TrackPointExtension>
            <ns3:atemp>20.0</ns3:atemp>
          </ns3:TrackPointExtension>
        </extensions>
      </trkpt>
      <trkpt lat="43.11663874424993991851806640625" lon="13.043142892420291900634765625">
        <ele>436.79998779296875</ele>
        <time>2021-06-04T07:16:51.000Z</time>
        <extensions>
          <ns3:TrackPointExtension>
            <ns3:atemp>20.0</ns3:atemp>
          </ns3:TrackPointExtension>
        </extensions>
      </trkpt>
      <trkpt lat="43.116565905511379241943359375" lon="13.04297097958624362945556640625">
        <ele>437.600006103515625</ele>
        <time>2021-06-04T07:16:55.000Z</time>
        <extensions>
          <ns3:TrackPointExtension>
            <ns3:atemp>20.0</ns3:atemp>
          </ns3:TrackPointExtension>
        </extensions>
      </trkpt>
      <trkpt lat="43.1165300309658050537109375" lon="13.04288196377456188201904296875">
        <ele>438</ele>
        <time>2021-06-04T07:16:57.000Z</time>
        <extensions>
          <ns3:TrackPointExtension>
            <ns3:atemp>20.0</ns3:atemp>
          </ns3:TrackPointExtension>
        </extensions>
      </trkpt>
      <trkpt lat="43.116436488926410675048828125" lon="13.042660094797611236572265625">
        <ele>439</ele>
        <time>2021-06-04T07:17:03.000Z</time>
        <extensions>
          <ns3:TrackPointExtension>
            <ns3:atemp>20.0</ns3:atemp>
          </ns3:TrackPointExtension>
        </extensions>
      </trkpt>
      <trkpt lat="43.11642399989068508148193359375" lon="13.0426297523081302642822265625">
        <ele>439.399993896484375</ele>
        <time>2021-06-04T07:17:04.000Z</time>
        <extensions>
          <ns3:TrackPointExtension>
            <ns3:atemp>20.0</ns3:atemp>
          </ns3:TrackPointExtension>
        </extensions>
      </trkpt>
      <trkpt lat="43.11638611368834972381591796875" lon="13.04254232905805110931396484375">
        <ele>440.600006103515625</ele>
        <time>2021-06-04T07:17:07.000Z</time>
        <extensions>
          <ns3:TrackPointExtension>
            <ns3:atemp>20.0</ns3:atemp>
          </ns3:TrackPointExtension>
        </extensions>
      </trkpt>
      <trkpt lat="43.1163605488836765289306640625" lon="13.04248332045972347259521484375">
        <ele>441.600006103515625</ele>
        <time>2021-06-04T07:17:09.000Z</time>
        <extensions>
          <ns3:TrackPointExtension>
            <ns3:atemp>20.0</ns3:atemp>
          </ns3:TrackPointExtension>
        </extensions>
      </trkpt>
      <trkpt lat="43.116335906088352203369140625" lon="13.0424223840236663818359375">
        <ele>442.600006103515625</ele>
        <time>2021-06-04T07:17:11.000Z</time>
        <extensions>
          <ns3:TrackPointExtension>
            <ns3:atemp>20.0</ns3:atemp>
          </ns3:TrackPointExtension>
        </extensions>
      </trkpt>
      <trkpt lat="43.1163233332335948944091796875" lon="13.0423927120864391326904296875">
        <ele>443</ele>
        <time>2021-06-04T07:17:12.000Z</time>
        <extensions>
          <ns3:TrackPointExtension>
            <ns3:atemp>20.0</ns3:atemp>
          </ns3:TrackPointExtension>
        </extensions>
      </trkpt>
      <trkpt lat="43.116287291049957275390625" lon="13.04230428300797939300537109375">
        <ele>444.399993896484375</ele>
        <time>2021-06-04T07:17:15.000Z</time>
        <extensions>
          <ns3:TrackPointExtension>
            <ns3:atemp>20.0</ns3:atemp>
          </ns3:TrackPointExtension>
        </extensions>
      </trkpt>
      <trkpt lat="43.1162495724856853485107421875" lon="13.04221786558628082275390625">
        <ele>445.79998779296875</ele>
        <time>2021-06-04T07:17:18.000Z</time>
        <extensions>
          <ns3:TrackPointExtension>
            <ns3:atemp>20.0</ns3:atemp>
          </ns3:TrackPointExtension>
        </extensions>
      </trkpt>
      <trkpt lat="43.1162257678806781768798828125" lon="13.0421590246260166168212890625">
        <ele>447.399993896484375</ele>
        <time>2021-06-04T07:17:20.000Z</time>
        <extensions>
          <ns3:TrackPointExtension>
            <ns3:atemp>20.0</ns3:atemp>
          </ns3:TrackPointExtension>
        </extensions>
      </trkpt>
      <trkpt lat="43.1162133626639842987060546875" lon="13.04213111288845539093017578125">
        <ele>448</ele>
        <time>2021-06-04T07:17:21.000Z</time>
        <extensions>
          <ns3:TrackPointExtension>
            <ns3:atemp>20.0</ns3:atemp>
          </ns3:TrackPointExtension>
        </extensions>
      </trkpt>
      <trkpt lat="43.11620120890438556671142578125" lon="13.0421040393412113189697265625">
        <ele>448.600006103515625</ele>
        <time>2021-06-04T07:17:22.000Z</time>
        <extensions>
          <ns3:TrackPointExtension>
            <ns3:atemp>20.0</ns3:atemp>
          </ns3:TrackPointExtension>
        </extensions>
      </trkpt>
      <trkpt lat="43.11617790721356868743896484375" lon="13.04204813204705715179443359375">
        <ele>449.79998779296875</ele>
        <time>2021-06-04T07:17:24.000Z</time>
        <extensions>
          <ns3:TrackPointExtension>
            <ns3:atemp>20.0</ns3:atemp>
          </ns3:TrackPointExtension>
        </extensions>
      </trkpt>
      <trkpt lat="43.116141445934772491455078125" lon="13.04196012206375598907470703125">
        <ele>451.20001220703125</ele>
        <time>2021-06-04T07:17:27.000Z</time>
        <extensions>
          <ns3:TrackPointExtension>
            <ns3:atemp>20.0</ns3:atemp>
          </ns3:TrackPointExtension>
        </extensions>
      </trkpt>
      <trkpt lat="43.1161161325871944427490234375" lon="13.04189926944673061370849609375">
        <ele>452.399993896484375</ele>
        <time>2021-06-04T07:17:29.000Z</time>
        <extensions>
          <ns3:TrackPointExtension>
            <ns3:atemp>20.0</ns3:atemp>
          </ns3:TrackPointExtension>
        </extensions>
      </trkpt>
      <trkpt lat="43.11610381118953227996826171875" lon="13.04186875931918621063232421875">
        <ele>452.79998779296875</ele>
        <time>2021-06-04T07:17:30.000Z</time>
        <extensions>
          <ns3:TrackPointExtension>
            <ns3:atemp>20.0</ns3:atemp>
          </ns3:TrackPointExtension>
        </extensions>
      </trkpt>
      <trkpt lat="43.11607916839420795440673828125" lon="13.0418012849986553192138671875">
        <ele>453.79998779296875</ele>
        <time>2021-06-04T07:17:32.000Z</time>
        <extensions>
          <ns3:TrackPointExtension>
            <ns3:atemp>20.0</ns3:atemp>
          </ns3:TrackPointExtension>
        </extensions>
      </trkpt>
      <trkpt lat="43.11604111455380916595458984375" lon="13.04170866496860980987548828125">
        <ele>455</ele>
        <time>2021-06-04T07:17:35.000Z</time>
        <extensions>
          <ns3:TrackPointExtension>
            <ns3:atemp>20.0</ns3:atemp>
          </ns3:TrackPointExtension>
        </extensions>
      </trkpt>
      <trkpt lat="43.11601161025464534759521484375" lon="13.0416333116590976715087890625">
        <ele>456</ele>
        <time>2021-06-04T07:17:37.000Z</time>
        <extensions>
          <ns3:TrackPointExtension>
            <ns3:atemp>20.0</ns3:atemp>
          </ns3:TrackPointExtension>
        </extensions>
      </trkpt>
      <trkpt lat="43.11599425971508026123046875" lon="13.04159115068614482879638671875">
        <ele>456.600006103515625</ele>
        <time>2021-06-04T07:17:38.000Z</time>
        <extensions>
          <ns3:TrackPointExtension>
            <ns3:atemp>20.0</ns3:atemp>
          </ns3:TrackPointExtension>
        </extensions>
      </trkpt>
      <trkpt lat="43.11593868769705295562744140625" lon="13.04142937995493412017822265625">
        <ele>457.399993896484375</ele>
        <time>2021-06-04T07:17:42.000Z</time>
        <extensions>
          <ns3:TrackPointExtension>
            <ns3:atemp>20.0</ns3:atemp>
          </ns3:TrackPointExtension>
        </extensions>
      </trkpt>
      <trkpt lat="43.11592745594680309295654296875" lon="13.0413924157619476318359375">
        <ele>457.600006103515625</ele>
        <time>2021-06-04T07:17:43.000Z</time>
        <extensions>
          <ns3:TrackPointExtension>
            <ns3:atemp>20.0</ns3:atemp>
          </ns3:TrackPointExtension>
        </extensions>
      </trkpt>
      <trkpt lat="43.115824945271015167236328125" lon="13.04122989065945148468017578125">
        <ele>458</ele>
        <time>2021-06-04T07:17:48.000Z</time>
        <extensions>
          <ns3:TrackPointExtension>
            <ns3:atemp>20.0</ns3:atemp>
          </ns3:TrackPointExtension>
        </extensions>
      </trkpt>
      <trkpt lat="43.11564548872411251068115234375" lon="13.04103174246847629547119140625">
        <ele>458.20001220703125</ele>
        <time>2021-06-04T07:17:54.000Z</time>
        <extensions>
          <ns3:TrackPointExtension>
            <ns3:atemp>20.0</ns3:atemp>
          </ns3:TrackPointExtension>
        </extensions>
      </trkpt>
      <trkpt lat="43.115480951964855194091796875" lon="13.04082806222140789031982421875">
        <ele>458</ele>
        <time>2021-06-04T07:18:00.000Z</time>
        <extensions>
          <ns3:TrackPointExtension>
            <ns3:atemp>20.0</ns3:atemp>
          </ns3:TrackPointExtension>
        </extensions>
      </trkpt>
      <trkpt lat="43.115312643349170684814453125" lon="13.0407002381980419158935546875">
        <ele>458</ele>
        <time>2021-06-04T07:18:06.000Z</time>
        <extensions>
          <ns3:TrackPointExtension>
            <ns3:atemp>20.0</ns3:atemp>
          </ns3:TrackPointExtension>
        </extensions>
      </trkpt>
      <trkpt lat="43.1151981465518474578857421875" lon="13.04062019102275371551513671875">
        <ele>458.600006103515625</ele>
        <time>2021-06-04T07:18:11.000Z</time>
        <extensions>
          <ns3:TrackPointExtension>
            <ns3:atemp>20.0</ns3:atemp>
          </ns3:TrackPointExtension>
        </extensions>
      </trkpt>
      <trkpt lat="43.11517358757555484771728515625" lon="13.04060292430222034454345703125">
        <ele>458.79998779296875</ele>
        <time>2021-06-04T07:18:12.000Z</time>
        <extensions>
          <ns3:TrackPointExtension>
            <ns3:atemp>20.0</ns3:atemp>
          </ns3:TrackPointExtension>
        </extensions>
      </trkpt>
      <trkpt lat="43.1151138246059417724609375" lon="13.04058347828686237335205078125">
        <ele>460</ele>
        <time>2021-06-04T07:18:15.000Z</time>
        <extensions>
          <ns3:TrackPointExtension>
            <ns3:atemp>20.0</ns3:atemp>
          </ns3:TrackPointExtension>
        </extensions>
      </trkpt>
      <trkpt lat="43.11503000557422637939453125" lon="13.04052078165113925933837890625">
        <ele>461.399993896484375</ele>
        <time>2021-06-04T07:18:18.000Z</time>
        <extensions>
          <ns3:TrackPointExtension>
            <ns3:atemp>20.0</ns3:atemp>
          </ns3:TrackPointExtension>
        </extensions>
      </trkpt>
      <trkpt lat="43.11500645242631435394287109375" lon="13.04040075279772281646728515625">
        <ele>461.600006103515625</ele>
        <time>2021-06-04T07:18:21.000Z</time>
        <extensions>
          <ns3:TrackPointExtension>
            <ns3:atemp>20.0</ns3:atemp>
          </ns3:TrackPointExtension>
        </extensions>
      </trkpt>
      <trkpt lat="43.1149989925324916839599609375" lon="13.040224649012088775634765625">
        <ele>461.600006103515625</ele>
        <time>2021-06-04T07:18:25.000Z</time>
        <extensions>
          <ns3:TrackPointExtension>
            <ns3:atemp>20.0</ns3:atemp>
          </ns3:TrackPointExtension>
        </extensions>
      </trkpt>
      <trkpt lat="43.1148858368396759033203125" lon="13.04011124186217784881591796875">
        <ele>461.600006103515625</ele>
        <time>2021-06-04T07:18:28.000Z</time>
        <extensions>
          <ns3:TrackPointExtension>
            <ns3:atemp>20.0</ns3:atemp>
          </ns3:TrackPointExtension>
        </extensions>
      </trkpt>
      <trkpt lat="43.1148350425064563751220703125" lon="13.04008542560040950775146484375">
        <ele>461.399993896484375</ele>
        <time>2021-06-04T07:18:29.000Z</time>
        <extensions>
          <ns3:TrackPointExtension>
            <ns3:atemp>20.0</ns3:atemp>
          </ns3:TrackPointExtension>
        </extensions>
      </trkpt>
      <trkpt lat="43.11467452906072139739990234375" lon="13.03999020718038082122802734375">
        <ele>460</ele>
        <time>2021-06-04T07:18:32.000Z</time>
        <extensions>
          <ns3:TrackPointExtension>
            <ns3:atemp>20.0</ns3:atemp>
          </ns3:TrackPointExtension>
        </extensions>
      </trkpt>
      <trkpt lat="43.11461887322366237640380859375" lon="13.03994880057871341705322265625">
        <ele>459.399993896484375</ele>
        <time>2021-06-04T07:18:33.000Z</time>
        <extensions>
          <ns3:TrackPointExtension>
            <ns3:atemp>20.0</ns3:atemp>
          </ns3:TrackPointExtension>
        </extensions>
      </trkpt>
      <trkpt lat="43.11456271447241306304931640625" lon="13.03990722633898258209228515625">
        <ele>458.600006103515625</ele>
        <time>2021-06-04T07:18:34.000Z</time>
        <extensions>
          <ns3:TrackPointExtension>
            <ns3:atemp>20.0</ns3:atemp>
          </ns3:TrackPointExtension>
        </extensions>
      </trkpt>
      <trkpt lat="43.1144602037966251373291015625" lon="13.039815612137317657470703125">
        <ele>456.79998779296875</ele>
        <time>2021-06-04T07:18:36.000Z</time>
        <extensions>
          <ns3:TrackPointExtension>
            <ns3:atemp>20.0</ns3:atemp>
          </ns3:TrackPointExtension>
        </extensions>
      </trkpt>
      <trkpt lat="43.11440915800631046295166015625" lon="13.039757274091243743896484375">
        <ele>455.399993896484375</ele>
        <time>2021-06-04T07:18:37.000Z</time>
        <extensions>
          <ns3:TrackPointExtension>
            <ns3:atemp>20.0</ns3:atemp>
          </ns3:TrackPointExtension>
        </extensions>
      </trkpt>
      <trkpt lat="43.1143574416637420654296875" lon="13.03969030268490314483642578125">
        <ele>454</ele>
        <time>2021-06-04T07:18:38.000Z</time>
        <extensions>
          <ns3:TrackPointExtension>
            <ns3:atemp>20.0</ns3:atemp>
          </ns3:TrackPointExtension>
        </extensions>
      </trkpt>
      <trkpt lat="43.11430807225406169891357421875" lon="13.0396250076591968536376953125">
        <ele>453</ele>
        <time>2021-06-04T07:18:39.000Z</time>
        <extensions>
          <ns3:TrackPointExtension>
            <ns3:atemp>20.0</ns3:atemp>
          </ns3:TrackPointExtension>
        </extensions>
      </trkpt>
      <trkpt lat="43.11426532454788684844970703125" lon="13.0395602993667125701904296875">
        <ele>451.79998779296875</ele>
        <time>2021-06-04T07:18:40.000Z</time>
        <extensions>
          <ns3:TrackPointExtension>
            <ns3:atemp>20.0</ns3:atemp>
          </ns3:TrackPointExtension>
        </extensions>
      </trkpt>
      <trkpt lat="43.11421100981533527374267578125" lon="13.0394288711249828338623046875">
        <ele>450</ele>
        <time>2021-06-04T07:18:42.000Z</time>
        <extensions>
          <ns3:TrackPointExtension>
            <ns3:atemp>20.0</ns3:atemp>
          </ns3:TrackPointExtension>
        </extensions>
      </trkpt>
      <trkpt lat="43.1141670048236846923828125" lon="13.03928663022816181182861328125">
        <ele>448.20001220703125</ele>
        <time>2021-06-04T07:18:44.000Z</time>
        <extensions>
          <ns3:TrackPointExtension>
            <ns3:atemp>20.0</ns3:atemp>
          </ns3:TrackPointExtension>
        </extensions>
      </trkpt>
      <trkpt lat="43.114096932113170623779296875" lon="13.039112202823162078857421875">
        <ele>446.20001220703125</ele>
        <time>2021-06-04T07:18:46.000Z</time>
        <extensions>
          <ns3:TrackPointExtension>
            <ns3:atemp>20.0</ns3:atemp>
          </ns3:TrackPointExtension>
        </extensions>
      </trkpt>
      <trkpt lat="43.113998360931873321533203125" lon="13.03892704658210277557373046875">
        <ele>445.20001220703125</ele>
        <time>2021-06-04T07:18:48.000Z</time>
        <extensions>
          <ns3:TrackPointExtension>
            <ns3:atemp>20.0</ns3:atemp>
          </ns3:TrackPointExtension>
        </extensions>
      </trkpt>
      <trkpt lat="43.11383239924907684326171875" lon="13.03865320980548858642578125">
        <ele>444.79998779296875</ele>
        <time>2021-06-04T07:18:51.000Z</time>
        <extensions>
          <ns3:TrackPointExtension>
            <ns3:atemp>20.0</ns3:atemp>
          </ns3:TrackPointExtension>
        </extensions>
      </trkpt>
      <trkpt lat="43.11371295712888240814208984375" lon="13.0384870804846286773681640625">
        <ele>444.20001220703125</ele>
        <time>2021-06-04T07:18:53.000Z</time>
        <extensions>
          <ns3:TrackPointExtension>
            <ns3:atemp>20.0</ns3:atemp>
          </ns3:TrackPointExtension>
        </extensions>
      </trkpt>
      <trkpt lat="43.11352084390819072723388671875" lon="13.03825582377612590789794921875">
        <ele>442.600006103515625</ele>
        <time>2021-06-04T07:18:56.000Z</time>
        <extensions>
          <ns3:TrackPointExtension>
            <ns3:atemp>20.0</ns3:atemp>
          </ns3:TrackPointExtension>
        </extensions>
      </trkpt>
      <trkpt lat="43.1133829616010189056396484375" lon="13.03811945021152496337890625">
        <ele>441.399993896484375</ele>
        <time>2021-06-04T07:18:58.000Z</time>
        <extensions>
          <ns3:TrackPointExtension>
            <ns3:atemp>20.0</ns3:atemp>
          </ns3:TrackPointExtension>
        </extensions>
      </trkpt>
      <trkpt lat="43.1132465042173862457275390625" lon="13.0380133353173732757568359375">
        <ele>440</ele>
        <time>2021-06-04T07:19:00.000Z</time>
        <extensions>
          <ns3:TrackPointExtension>
            <ns3:atemp>20.0</ns3:atemp>
          </ns3:TrackPointExtension>
        </extensions>
      </trkpt>
      <trkpt lat="43.11305313371121883392333984375" lon="13.037864975631237030029296875">
        <ele>439</ele>
        <time>2021-06-04T07:19:03.000Z</time>
        <extensions>
          <ns3:TrackPointExtension>
            <ns3:atemp>20.0</ns3:atemp>
          </ns3:TrackPointExtension>
        </extensions>
      </trkpt>
      <trkpt lat="43.1129350326955318450927734375" lon="13.0377602018415927886962890625">
        <ele>438.79998779296875</ele>
        <time>2021-06-04T07:19:05.000Z</time>
        <extensions>
          <ns3:TrackPointExtension>
            <ns3:atemp>20.0</ns3:atemp>
          </ns3:TrackPointExtension>
        </extensions>
      </trkpt>
      <trkpt lat="43.11273227445781230926513671875" lon="13.03749156184494495391845703125">
        <ele>438.79998779296875</ele>
        <time>2021-06-04T07:19:10.000Z</time>
        <extensions>
          <ns3:TrackPointExtension>
            <ns3:atemp>20.0</ns3:atemp>
          </ns3:TrackPointExtension>
        </extensions>
      </trkpt>
      <trkpt lat="43.112707547843456268310546875" lon="13.037392236292362213134765625">
        <ele>439</ele>
        <time>2021-06-04T07:19:13.000Z</time>
        <extensions>
          <ns3:TrackPointExtension>
            <ns3:atemp>20.0</ns3:atemp>
          </ns3:TrackPointExtension>
        </extensions>
      </trkpt>
      <trkpt lat="43.11272741295397281646728515625" lon="13.03727363236248493194580078125">
        <ele>440</ele>
        <time>2021-06-04T07:19:16.000Z</time>
        <extensions>
          <ns3:TrackPointExtension>
            <ns3:atemp>20.0</ns3:atemp>
          </ns3:TrackPointExtension>
        </extensions>
      </trkpt>
      <trkpt lat="43.11273747123777866363525390625" lon="13.0372202396392822265625">
        <ele>440.399993896484375</ele>
        <time>2021-06-04T07:19:17.000Z</time>
        <extensions>
          <ns3:TrackPointExtension>
            <ns3:atemp>20.0</ns3:atemp>
          </ns3:TrackPointExtension>
        </extensions>
      </trkpt>
      <trkpt lat="43.11279237270355224609375" lon="13.036842048168182373046875">
        <ele>440.79998779296875</ele>
        <time>2021-06-04T07:19:23.000Z</time>
        <extensions>
          <ns3:TrackPointExtension>
            <ns3:atemp>20.0</ns3:atemp>
          </ns3:TrackPointExtension>
        </extensions>
      </trkpt>
      <trkpt lat="43.1128726713359355926513671875" lon="13.036359585821628570556640625">
        <ele>440.600006103515625</ele>
        <time>2021-06-04T07:19:30.000Z</time>
        <extensions>
          <ns3:TrackPointExtension>
            <ns3:atemp>20.0</ns3:atemp>
          </ns3:TrackPointExtension>
        </extensions>
      </trkpt>
      <trkpt lat="43.11304206959903240203857421875" lon="13.03584896028041839599609375">
        <ele>440.399993896484375</ele>
        <time>2021-06-04T07:19:38.000Z</time>
        <extensions>
          <ns3:TrackPointExtension>
            <ns3:atemp>20.0</ns3:atemp>
          </ns3:TrackPointExtension>
        </extensions>
      </trkpt>
      <trkpt lat="43.1132478453218936920166015625" lon="13.0354736186563968658447265625">
        <ele>440.79998779296875</ele>
        <time>2021-06-04T07:19:46.000Z</time>
        <extensions>
          <ns3:TrackPointExtension>
            <ns3:atemp>20.0</ns3:atemp>
          </ns3:TrackPointExtension>
        </extensions>
      </trkpt>
      <trkpt lat="43.1132711470127105712890625" lon="13.03543548099696636199951171875">
        <ele>441</ele>
        <time>2021-06-04T07:19:47.000Z</time>
        <extensions>
          <ns3:TrackPointExtension>
            <ns3:atemp>20.0</ns3:atemp>
          </ns3:TrackPointExtension>
        </extensions>
      </trkpt>
      <trkpt lat="43.11343434266746044158935546875" lon="13.0351752229034900665283203125">
        <ele>442.399993896484375</ele>
        <time>2021-06-04T07:19:53.000Z</time>
        <extensions>
          <ns3:TrackPointExtension>
            <ns3:atemp>20.0</ns3:atemp>
          </ns3:TrackPointExtension>
        </extensions>
      </trkpt>
      <trkpt lat="43.1136622466146945953369140625" lon="13.03477850742638111114501953125">
        <ele>442.600006103515625</ele>
        <time>2021-06-04T07:20:00.000Z</time>
        <extensions>
          <ns3:TrackPointExtension>
            <ns3:atemp>20.0</ns3:atemp>
          </ns3:TrackPointExtension>
        </extensions>
      </trkpt>
      <trkpt lat="43.1138892285525798797607421875" lon="13.03437567315995693206787109375">
        <ele>442.20001220703125</ele>
        <time>2021-06-04T07:20:07.000Z</time>
        <extensions>
          <ns3:TrackPointExtension>
            <ns3:atemp>20.0</ns3:atemp>
          </ns3:TrackPointExtension>
        </extensions>
      </trkpt>
      <trkpt lat="43.11411478556692600250244140625" lon="13.033970408141613006591796875">
        <ele>442.20001220703125</ele>
        <time>2021-06-04T07:20:15.000Z</time>
        <extensions>
          <ns3:TrackPointExtension>
            <ns3:atemp>20.0</ns3:atemp>
          </ns3:TrackPointExtension>
        </extensions>
      </trkpt>
      <trkpt lat="43.11425996012985706329345703125" lon="13.0337392352521419525146484375">
        <ele>443.600006103515625</ele>
        <time>2021-06-04T07:20:20.000Z</time>
        <extensions>
          <ns3:TrackPointExtension>
            <ns3:atemp>20.0</ns3:atemp>
          </ns3:TrackPointExtension>
        </extensions>
      </trkpt>
      <trkpt lat="43.1142858602106571197509765625" lon="13.03368902765214443206787109375">
        <ele>443.79998779296875</ele>
        <time>2021-06-04T07:20:21.000Z</time>
        <extensions>
          <ns3:TrackPointExtension>
            <ns3:atemp>20.0</ns3:atemp>
          </ns3:TrackPointExtension>
        </extensions>
      </trkpt>
      <trkpt lat="43.11430689878761768341064453125" lon="13.03363990969955921173095703125">
        <ele>444</ele>
        <time>2021-06-04T07:20:22.000Z</time>
        <extensions>
          <ns3:TrackPointExtension>
            <ns3:atemp>20.0</ns3:atemp>
          </ns3:TrackPointExtension>
        </extensions>
      </trkpt>
      <trkpt lat="43.1143616326153278350830078125" lon="13.03349574096500873565673828125">
        <ele>444.79998779296875</ele>
        <time>2021-06-04T07:20:25.000Z</time>
        <extensions>
          <ns3:TrackPointExtension>
            <ns3:atemp>20.0</ns3:atemp>
          </ns3:TrackPointExtension>
        </extensions>
      </trkpt>
      <trkpt lat="43.11445022933185100555419921875" lon="13.03326465189456939697265625">
        <ele>446</ele>
        <time>2021-06-04T07:20:30.000Z</time>
        <extensions>
          <ns3:TrackPointExtension>
            <ns3:atemp>20.0</ns3:atemp>
          </ns3:TrackPointExtension>
        </extensions>
      </trkpt>
      <trkpt lat="43.11446682550013065338134765625" lon="13.03322282619774341583251953125">
        <ele>446.20001220703125</ele>
        <time>2021-06-04T07:20:31.000Z</time>
        <extensions>
          <ns3:TrackPointExtension>
            <ns3:atemp>20.0</ns3:atemp>
          </ns3:TrackPointExtension>
        </extensions>
      </trkpt>
      <trkpt lat="43.1145212240517139434814453125" lon="13.03309843875467777252197265625">
        <ele>447</ele>
        <time>2021-06-04T07:20:34.000Z</time>
        <extensions>
          <ns3:TrackPointExtension>
            <ns3:atemp>20.0</ns3:atemp>
          </ns3:TrackPointExtension>
        </extensions>
      </trkpt>
      <trkpt lat="43.11461987905204296112060546875" lon="13.03292996250092983245849609375">
        <ele>448.20001220703125</ele>
        <time>2021-06-04T07:20:38.000Z</time>
        <extensions>
          <ns3:TrackPointExtension>
            <ns3:atemp>20.0</ns3:atemp>
          </ns3:TrackPointExtension>
        </extensions>
      </trkpt>
      <trkpt lat="43.11476136557757854461669921875" lon="13.03274656645953655242919921875">
        <ele>449.399993896484375</ele>
        <time>2021-06-04T07:20:43.000Z</time>
        <extensions>
          <ns3:TrackPointExtension>
            <ns3:atemp>20.0</ns3:atemp>
          </ns3:TrackPointExtension>
        </extensions>
      </trkpt>
      <trkpt lat="43.11481811106204986572265625" lon="13.03268806077539920806884765625">
        <ele>449.600006103515625</ele>
        <time>2021-06-04T07:20:45.000Z</time>
        <extensions>
          <ns3:TrackPointExtension>
            <ns3:atemp>20.0</ns3:atemp>
          </ns3:TrackPointExtension>
        </extensions>
      </trkpt>
      <trkpt lat="43.11498013325035572052001953125" lon="13.03256719373166561126708984375">
        <ele>450.399993896484375</ele>
        <time>2021-06-04T07:20:50.000Z</time>
        <extensions>
          <ns3:TrackPointExtension>
            <ns3:atemp>20.0</ns3:atemp>
          </ns3:TrackPointExtension>
        </extensions>
      </trkpt>
      <trkpt lat="43.1150516308844089508056640625" lon="13.0325510166585445404052734375">
        <ele>451</ele>
        <time>2021-06-04T07:20:52.000Z</time>
        <extensions>
          <ns3:TrackPointExtension>
            <ns3:atemp>20.0</ns3:atemp>
          </ns3:TrackPointExtension>
        </extensions>
      </trkpt>
      <trkpt lat="43.11511659063398838043212890625" lon="13.0325540341436862945556640625">
        <ele>451.600006103515625</ele>
        <time>2021-06-04T07:20:54.000Z</time>
        <extensions>
          <ns3:TrackPointExtension>
            <ns3:atemp>20.0</ns3:atemp>
          </ns3:TrackPointExtension>
        </extensions>
      </trkpt>
      <trkpt lat="43.1152613461017608642578125" lon="13.0325667746365070343017578125">
        <ele>452.79998779296875</ele>
        <time>2021-06-04T07:20:58.000Z</time>
        <extensions>
          <ns3:TrackPointExtension>
            <ns3:atemp>20.0</ns3:atemp>
          </ns3:TrackPointExtension>
        </extensions>
      </trkpt>
      <trkpt lat="43.11529076658189296722412109375" lon="13.032566942274570465087890625">
        <ele>453</ele>
        <time>2021-06-04T07:20:59.000Z</time>
        <extensions>
          <ns3:TrackPointExtension>
            <ns3:atemp>20.0</ns3:atemp>
          </ns3:TrackPointExtension>
        </extensions>
      </trkpt>
      <trkpt lat="43.11534860171377658843994140625" lon="13.03255814127624034881591796875">
        <ele>453.79998779296875</ele>
        <time>2021-06-04T07:21:01.000Z</time>
        <extensions>
          <ns3:TrackPointExtension>
            <ns3:atemp>20.0</ns3:atemp>
          </ns3:TrackPointExtension>
        </extensions>
      </trkpt>
      <trkpt lat="43.1154321692883968353271484375" lon="13.032510615885257720947265625">
        <ele>455</ele>
        <time>2021-06-04T07:21:04.000Z</time>
        <extensions>
          <ns3:TrackPointExtension>
            <ns3:atemp>20.0</ns3:atemp>
          </ns3:TrackPointExtension>
        </extensions>
      </trkpt>
      <trkpt lat="43.1155407987534999847412109375" lon="13.03242369554936885833740234375">
        <ele>456.600006103515625</ele>
        <time>2021-06-04T07:21:08.000Z</time>
        <extensions>
          <ns3:TrackPointExtension>
            <ns3:atemp>20.0</ns3:atemp>
          </ns3:TrackPointExtension>
        </extensions>
      </trkpt>
      <trkpt lat="43.1155602447688579559326171875" lon="13.0323827080428600311279296875">
        <ele>457.20001220703125</ele>
        <time>2021-06-04T07:21:09.000Z</time>
        <extensions>
          <ns3:TrackPointExtension>
            <ns3:atemp>20.0</ns3:atemp>
          </ns3:TrackPointExtension>
        </extensions>
      </trkpt>
      <trkpt lat="43.11557189561426639556884765625" lon="13.03233216516673564910888671875">
        <ele>457.79998779296875</ele>
        <time>2021-06-04T07:21:10.000Z</time>
        <extensions>
          <ns3:TrackPointExtension>
            <ns3:atemp>20.0</ns3:atemp>
          </ns3:TrackPointExtension>
        </extensions>
      </trkpt>
      <trkpt lat="43.11556820757687091827392578125" lon="13.0322264693677425384521484375">
        <ele>459</ele>
        <time>2021-06-04T07:21:12.000Z</time>
        <extensions>
          <ns3:TrackPointExtension>
            <ns3:atemp>20.0</ns3:atemp>
          </ns3:TrackPointExtension>
        </extensions>
      </trkpt>
      <trkpt lat="43.1155562214553356170654296875" lon="13.0321761779487133026123046875">
        <ele>459</ele>
        <time>2021-06-04T07:21:13.000Z</time>
        <extensions>
          <ns3:TrackPointExtension>
            <ns3:atemp>20.0</ns3:atemp>
          </ns3:TrackPointExtension>
        </extensions>
      </trkpt>
      <trkpt lat="43.11548061668872833251953125" lon="13.0320705659687519073486328125">
        <ele>459.20001220703125</ele>
        <time>2021-06-04T07:21:16.000Z</time>
        <extensions>
          <ns3:TrackPointExtension>
            <ns3:atemp>20.0</ns3:atemp>
          </ns3:TrackPointExtension>
        </extensions>
      </trkpt>
      <trkpt lat="43.11535530723631381988525390625" lon="13.03189664147794246673583984375">
        <ele>459.79998779296875</ele>
        <time>2021-06-04T07:21:21.000Z</time>
        <extensions>
          <ns3:TrackPointExtension>
            <ns3:atemp>20.0</ns3:atemp>
          </ns3:TrackPointExtension>
        </extensions>
      </trkpt>
      <trkpt lat="43.115340806543827056884765625" lon="13.03184651769697666168212890625">
        <ele>459.79998779296875</ele>
        <time>2021-06-04T07:21:22.000Z</time>
        <extensions>
          <ns3:TrackPointExtension>
            <ns3:atemp>20.0</ns3:atemp>
          </ns3:TrackPointExtension>
        </extensions>
      </trkpt>
      <trkpt lat="43.11525522731244564056396484375" lon="13.031577207148075103759765625">
        <ele>459.79998779296875</ele>
        <time>2021-06-04T07:21:27.000Z</time>
        <extensions>
          <ns3:TrackPointExtension>
            <ns3:atemp>20.0</ns3:atemp>
          </ns3:TrackPointExtension>
        </extensions>
      </trkpt>
      <trkpt lat="43.1152038462460041046142578125" lon="13.0313990078866481781005859375">
        <ele>460</ele>
        <time>2021-06-04T07:21:30.000Z</time>
        <extensions>
          <ns3:TrackPointExtension>
            <ns3:atemp>20.0</ns3:atemp>
          </ns3:TrackPointExtension>
        </extensions>
      </trkpt>
      <trkpt lat="43.11514399945735931396484375" lon="13.03121217526495456695556640625">
        <ele>460</ele>
        <time>2021-06-04T07:21:33.000Z</time>
        <extensions>
          <ns3:TrackPointExtension>
            <ns3:atemp>20.0</ns3:atemp>
          </ns3:TrackPointExtension>
        </extensions>
      </trkpt>
      <trkpt lat="43.11501181684434413909912109375" lon="13.0308116041123867034912109375">
        <ele>460</ele>
        <time>2021-06-04T07:21:40.000Z</time>
        <extensions>
          <ns3:TrackPointExtension>
            <ns3:atemp>20.0</ns3:atemp>
          </ns3:TrackPointExtension>
        </extensions>
      </trkpt>
      <trkpt lat="43.11495431698858737945556640625" lon="13.030636422336101531982421875">
        <ele>461</ele>
        <time>2021-06-04T07:21:43.000Z</time>
        <extensions>
          <ns3:TrackPointExtension>
            <ns3:atemp>20.0</ns3:atemp>
          </ns3:TrackPointExtension>
        </extensions>
      </trkpt>
      <trkpt lat="43.114854656159877777099609375" lon="13.03035085089504718780517578125">
        <ele>462</ele>
        <time>2021-06-04T07:21:48.000Z</time>
        <extensions>
          <ns3:TrackPointExtension>
            <ns3:atemp>20.0</ns3:atemp>
          </ns3:TrackPointExtension>
        </extensions>
      </trkpt>
      <trkpt lat="43.11483554542064666748046875" lon="13.030294440686702728271484375">
        <ele>462.399993896484375</ele>
        <time>2021-06-04T07:21:49.000Z</time>
        <extensions>
          <ns3:TrackPointExtension>
            <ns3:atemp>20.0</ns3:atemp>
          </ns3:TrackPointExtension>
        </extensions>
      </trkpt>
      <trkpt lat="43.114780224859714508056640625" lon="13.03012973628938198089599609375">
        <ele>463</ele>
        <time>2021-06-04T07:21:52.000Z</time>
        <extensions>
          <ns3:TrackPointExtension>
            <ns3:atemp>20.0</ns3:atemp>
          </ns3:TrackPointExtension>
        </extensions>
      </trkpt>
      <trkpt lat="43.114682324230670928955078125" lon="13.0298574082553386688232421875">
        <ele>464</ele>
        <time>2021-06-04T07:21:57.000Z</time>
        <extensions>
          <ns3:TrackPointExtension>
            <ns3:atemp>20.0</ns3:atemp>
          </ns3:TrackPointExtension>
        </extensions>
      </trkpt>
      <trkpt lat="43.11462742276489734649658203125" lon="13.02969672717154026031494140625">
        <ele>464.79998779296875</ele>
        <time>2021-06-04T07:22:00.000Z</time>
        <extensions>
          <ns3:TrackPointExtension>
            <ns3:atemp>20.0</ns3:atemp>
          </ns3:TrackPointExtension>
        </extensions>
      </trkpt>
      <trkpt lat="43.11458819545805454254150390625" lon="13.02959497086703777313232421875">
        <ele>465.399993896484375</ele>
        <time>2021-06-04T07:22:02.000Z</time>
        <extensions>
          <ns3:TrackPointExtension>
            <ns3:atemp>20.0</ns3:atemp>
          </ns3:TrackPointExtension>
        </extensions>
      </trkpt>
      <trkpt lat="43.11453337781131267547607421875" lon="13.029437474906444549560546875">
        <ele>466.399993896484375</ele>
        <time>2021-06-04T07:22:05.000Z</time>
        <extensions>
          <ns3:TrackPointExtension>
            <ns3:atemp>20.0</ns3:atemp>
          </ns3:TrackPointExtension>
        </extensions>
      </trkpt>
      <trkpt lat="43.114477135241031646728515625" lon="13.029275201261043548583984375">
        <ele>467.399993896484375</ele>
        <time>2021-06-04T07:22:08.000Z</time>
        <extensions>
          <ns3:TrackPointExtension>
            <ns3:atemp>20.0</ns3:atemp>
          </ns3:TrackPointExtension>
        </extensions>
      </trkpt>
      <trkpt lat="43.11445844359695911407470703125" lon="13.02921988070011138916015625">
        <ele>467.79998779296875</ele>
        <time>2021-06-04T07:22:09.000Z</time>
        <extensions>
          <ns3:TrackPointExtension>
            <ns3:atemp>20.0</ns3:atemp>
          </ns3:TrackPointExtension>
        </extensions>
      </trkpt>
      <trkpt lat="43.11442256905138492584228515625" lon="13.02910722792148590087890625">
        <ele>468.600006103515625</ele>
        <time>2021-06-04T07:22:11.000Z</time>
        <extensions>
          <ns3:TrackPointExtension>
            <ns3:atemp>20.0</ns3:atemp>
          </ns3:TrackPointExtension>
        </extensions>
      </trkpt>
      <trkpt lat="43.114373870193958282470703125" lon="13.0289390869438648223876953125">
        <ele>469.399993896484375</ele>
        <time>2021-06-04T07:22:14.000Z</time>
        <extensions>
          <ns3:TrackPointExtension>
            <ns3:atemp>20.0</ns3:atemp>
          </ns3:TrackPointExtension>
        </extensions>
      </trkpt>
      <trkpt lat="43.11436213552951812744140625" lon="13.02888301201164722442626953125">
        <ele>469.600006103515625</ele>
        <time>2021-06-04T07:22:15.000Z</time>
        <extensions>
          <ns3:TrackPointExtension>
            <ns3:atemp>20.0</ns3:atemp>
          </ns3:TrackPointExtension>
        </extensions>
      </trkpt>
      <trkpt lat="43.11433673836290836334228515625" lon="13.0287734605371952056884765625">
        <ele>470.20001220703125</ele>
        <time>2021-06-04T07:22:17.000Z</time>
        <extensions>
          <ns3:TrackPointExtension>
            <ns3:atemp>20.0</ns3:atemp>
          </ns3:TrackPointExtension>
        </extensions>
      </trkpt>
      <trkpt lat="43.1143210642039775848388671875" lon="13.0286621488630771636962890625">
        <ele>470.79998779296875</ele>
        <time>2021-06-04T07:22:19.000Z</time>
        <extensions>
          <ns3:TrackPointExtension>
            <ns3:atemp>20.0</ns3:atemp>
          </ns3:TrackPointExtension>
        </extensions>
      </trkpt>
      <trkpt lat="43.1143183819949626922607421875" lon="13.02844312973320484161376953125">
        <ele>471.79998779296875</ele>
        <time>2021-06-04T07:22:23.000Z</time>
        <extensions>
          <ns3:TrackPointExtension>
            <ns3:atemp>20.0</ns3:atemp>
          </ns3:TrackPointExtension>
        </extensions>
      </trkpt>
      <trkpt lat="43.11431745998561382293701171875" lon="13.028390072286128997802734375">
        <ele>472.20001220703125</ele>
        <time>2021-06-04T07:22:24.000Z</time>
        <extensions>
          <ns3:TrackPointExtension>
            <ns3:atemp>20.0</ns3:atemp>
          </ns3:TrackPointExtension>
        </extensions>
      </trkpt>
      <trkpt lat="43.11431796289980411529541015625" lon="13.02828320302069187164306640625">
        <ele>473</ele>
        <time>2021-06-04T07:22:26.000Z</time>
        <extensions>
          <ns3:TrackPointExtension>
            <ns3:atemp>20.0</ns3:atemp>
          </ns3:TrackPointExtension>
        </extensions>
      </trkpt>
      <trkpt lat="43.1143032945692539215087890625" lon="13.028124868869781494140625">
        <ele>473.600006103515625</ele>
        <time>2021-06-04T07:22:29.000Z</time>
        <extensions>
          <ns3:TrackPointExtension>
            <ns3:atemp>20.0</ns3:atemp>
          </ns3:TrackPointExtension>
        </extensions>
      </trkpt>
      <trkpt lat="43.1142841838300228118896484375" lon="13.02806946448981761932373046875">
        <ele>474</ele>
        <time>2021-06-04T07:22:30.000Z</time>
        <extensions>
          <ns3:TrackPointExtension>
            <ns3:atemp>20.0</ns3:atemp>
          </ns3:TrackPointExtension>
        </extensions>
      </trkpt>
      <trkpt lat="43.11426197178661823272705078125" lon="13.02801825106143951416015625">
        <ele>474.20001220703125</ele>
        <time>2021-06-04T07:22:31.000Z</time>
        <extensions>
          <ns3:TrackPointExtension>
            <ns3:atemp>20.0</ns3:atemp>
          </ns3:TrackPointExtension>
        </extensions>
      </trkpt>
      <trkpt lat="43.1142077408730983734130859375" lon="13.0279376171529293060302734375">
        <ele>475</ele>
        <time>2021-06-04T07:22:33.000Z</time>
        <extensions>
          <ns3:TrackPointExtension>
            <ns3:atemp>20.0</ns3:atemp>
          </ns3:TrackPointExtension>
        </extensions>
      </trkpt>
      <trkpt lat="43.11417681165039539337158203125" lon="13.0279009044170379638671875">
        <ele>475.399993896484375</ele>
        <time>2021-06-04T07:22:34.000Z</time>
        <extensions>
          <ns3:TrackPointExtension>
            <ns3:atemp>20.0</ns3:atemp>
          </ns3:TrackPointExtension>
        </extensions>
      </trkpt>
      <trkpt lat="43.1141467206180095672607421875" lon="13.02786544896662235260009765625">
        <ele>476</ele>
        <time>2021-06-04T07:22:35.000Z</time>
        <extensions>
          <ns3:TrackPointExtension>
            <ns3:atemp>20.0</ns3:atemp>
          </ns3:TrackPointExtension>
        </extensions>
      </trkpt>
      <trkpt lat="43.11408679001033306121826171875" lon="13.0277947895228862762451171875">
        <ele>476.600006103515625</ele>
        <time>2021-06-04T07:22:37.000Z</time>
        <extensions>
          <ns3:TrackPointExtension>
            <ns3:atemp>20.0</ns3:atemp>
          </ns3:TrackPointExtension>
        </extensions>
      </trkpt>
      <trkpt lat="43.113956451416015625" lon="13.02766746841371059417724609375">
        <ele>477.600006103515625</ele>
        <time>2021-06-04T07:22:41.000Z</time>
        <extensions>
          <ns3:TrackPointExtension>
            <ns3:atemp>20.0</ns3:atemp>
          </ns3:TrackPointExtension>
        </extensions>
      </trkpt>
      <trkpt lat="43.11392250470817089080810546875" lon="13.0276362039148807525634765625">
        <ele>478.20001220703125</ele>
        <time>2021-06-04T07:22:42.000Z</time>
        <extensions>
          <ns3:TrackPointExtension>
            <ns3:atemp>20.0</ns3:atemp>
          </ns3:TrackPointExtension>
        </extensions>
      </trkpt>
      <trkpt lat="43.1138553656637668609619140625" lon="13.02757702767848968505859375">
        <ele>478.79998779296875</ele>
        <time>2021-06-04T07:22:44.000Z</time>
        <extensions>
          <ns3:TrackPointExtension>
            <ns3:atemp>20.0</ns3:atemp>
          </ns3:TrackPointExtension>
        </extensions>
      </trkpt>
      <trkpt lat="43.11373994685709476470947265625" lon="13.027452640235424041748046875">
        <ele>480.20001220703125</ele>
        <time>2021-06-04T07:22:48.000Z</time>
        <extensions>
          <ns3:TrackPointExtension>
            <ns3:atemp>20.0</ns3:atemp>
          </ns3:TrackPointExtension>
        </extensions>
      </trkpt>
      <trkpt lat="43.11364338733255863189697265625" lon="13.0273770354688167572021484375">
        <ele>481.20001220703125</ele>
        <time>2021-06-04T07:22:51.000Z</time>
        <extensions>
          <ns3:TrackPointExtension>
            <ns3:atemp>20.0</ns3:atemp>
          </ns3:TrackPointExtension>
        </extensions>
      </trkpt>
      <trkpt lat="43.11355453915894031524658203125" lon="13.02729497663676738739013671875">
        <ele>482.399993896484375</ele>
        <time>2021-06-04T07:22:54.000Z</time>
        <extensions>
          <ns3:TrackPointExtension>
            <ns3:atemp>20.0</ns3:atemp>
          </ns3:TrackPointExtension>
        </extensions>
      </trkpt>
      <trkpt lat="43.1134563870728015899658203125" lon="13.0272080563008785247802734375">
        <ele>483.399993896484375</ele>
        <time>2021-06-04T07:22:57.000Z</time>
        <extensions>
          <ns3:TrackPointExtension>
            <ns3:atemp>20.0</ns3:atemp>
          </ns3:TrackPointExtension>
        </extensions>
      </trkpt>
      <trkpt lat="43.11339695937931537628173828125" lon="13.02714041434228420257568359375">
        <ele>484</ele>
        <time>2021-06-04T07:22:59.000Z</time>
        <extensions>
          <ns3:TrackPointExtension>
            <ns3:atemp>20.0</ns3:atemp>
          </ns3:TrackPointExtension>
        </extensions>
      </trkpt>
      <trkpt lat="43.113348595798015594482421875" lon="13.02706514485180377960205078125">
        <ele>484.399993896484375</ele>
        <time>2021-06-04T07:23:01.000Z</time>
        <extensions>
          <ns3:TrackPointExtension>
            <ns3:atemp>20.0</ns3:atemp>
          </ns3:TrackPointExtension>
        </extensions>
      </trkpt>
      <trkpt lat="43.11326938681304454803466796875" lon="13.0269079841673374176025390625">
        <ele>485.20001220703125</ele>
        <time>2021-06-04T07:23:05.000Z</time>
        <extensions>
          <ns3:TrackPointExtension>
            <ns3:atemp>20.0</ns3:atemp>
          </ns3:TrackPointExtension>
        </extensions>
      </trkpt>
      <trkpt lat="43.11324910260736942291259765625" lon="13.0268684215843677520751953125">
        <ele>485.600006103515625</ele>
        <time>2021-06-04T07:23:06.000Z</time>
        <extensions>
          <ns3:TrackPointExtension>
            <ns3:atemp>20.0</ns3:atemp>
          </ns3:TrackPointExtension>
        </extensions>
      </trkpt>
      <trkpt lat="43.11318556778132915496826171875" lon="13.02675082348287105560302734375">
        <ele>486.79998779296875</ele>
        <time>2021-06-04T07:23:09.000Z</time>
        <extensions>
          <ns3:TrackPointExtension>
            <ns3:atemp>20.0</ns3:atemp>
          </ns3:TrackPointExtension>
        </extensions>
      </trkpt>
      <trkpt lat="43.1131244637072086334228515625" lon="13.0266276933252811431884765625">
        <ele>488</ele>
        <time>2021-06-04T07:23:12.000Z</time>
        <extensions>
          <ns3:TrackPointExtension>
            <ns3:atemp>20.0</ns3:atemp>
          </ns3:TrackPointExtension>
        </extensions>
      </trkpt>
      <trkpt lat="43.11306637711822986602783203125" lon="13.02657849155366420745849609375">
        <ele>488.600006103515625</ele>
        <time>2021-06-04T07:23:14.000Z</time>
        <extensions>
          <ns3:TrackPointExtension>
            <ns3:atemp>20.0</ns3:atemp>
          </ns3:TrackPointExtension>
        </extensions>
      </trkpt>
      <trkpt lat="43.11304089613258838653564453125" lon="13.026544041931629180908203125">
        <ele>489</ele>
        <time>2021-06-04T07:23:15.000Z</time>
        <extensions>
          <ns3:TrackPointExtension>
            <ns3:atemp>20.0</ns3:atemp>
          </ns3:TrackPointExtension>
        </extensions>
      </trkpt>
      <trkpt lat="43.112981803715229034423828125" lon="13.026416301727294921875">
        <ele>489.79998779296875</ele>
        <time>2021-06-04T07:23:18.000Z</time>
        <extensions>
          <ns3:TrackPointExtension>
            <ns3:atemp>20.0</ns3:atemp>
          </ns3:TrackPointExtension>
        </extensions>
      </trkpt>
      <trkpt lat="43.1129182688891887664794921875" lon="13.02628478966653347015380859375">
        <ele>491.20001220703125</ele>
        <time>2021-06-04T07:23:21.000Z</time>
        <extensions>
          <ns3:TrackPointExtension>
            <ns3:atemp>20.0</ns3:atemp>
          </ns3:TrackPointExtension>
        </extensions>
      </trkpt>
      <trkpt lat="43.11287359334528446197509765625" lon="13.0261992104351520538330078125">
        <ele>492</ele>
        <time>2021-06-04T07:23:23.000Z</time>
        <extensions>
          <ns3:TrackPointExtension>
            <ns3:atemp>20.0</ns3:atemp>
          </ns3:TrackPointExtension>
        </extensions>
      </trkpt>
      <trkpt lat="43.11285012401640415191650390625" lon="13.02615721710026264190673828125">
        <ele>492.399993896484375</ele>
        <time>2021-06-04T07:23:24.000Z</time>
        <extensions>
          <ns3:TrackPointExtension>
            <ns3:atemp>20.0</ns3:atemp>
          </ns3:TrackPointExtension>
        </extensions>
      </trkpt>
      <trkpt lat="43.11275859363377094268798828125" lon="13.02599024958908557891845703125">
        <ele>493.399993896484375</ele>
        <time>2021-06-04T07:23:28.000Z</time>
        <extensions>
          <ns3:TrackPointExtension>
            <ns3:atemp>20.0</ns3:atemp>
          </ns3:TrackPointExtension>
        </extensions>
      </trkpt>
      <trkpt lat="43.11266974546015262603759765625" lon="13.02582143805921077728271484375">
        <ele>494.600006103515625</ele>
        <time>2021-06-04T07:23:32.000Z</time>
        <extensions>
          <ns3:TrackPointExtension>
            <ns3:atemp>20.0</ns3:atemp>
          </ns3:TrackPointExtension>
        </extensions>
      </trkpt>
      <trkpt lat="43.11264895834028720855712890625" lon="13.02577651105821132659912109375">
        <ele>494.79998779296875</ele>
        <time>2021-06-04T07:23:33.000Z</time>
        <extensions>
          <ns3:TrackPointExtension>
            <ns3:atemp>20.0</ns3:atemp>
          </ns3:TrackPointExtension>
        </extensions>
      </trkpt>
      <trkpt lat="43.1126081384718418121337890625" lon="13.02568472921848297119140625">
        <ele>495.600006103515625</ele>
        <time>2021-06-04T07:23:35.000Z</time>
        <extensions>
          <ns3:TrackPointExtension>
            <ns3:atemp>20.0</ns3:atemp>
          </ns3:TrackPointExtension>
        </extensions>
      </trkpt>
      <trkpt lat="43.11257184483110904693603515625" lon="13.0255910195410251617431640625">
        <ele>497</ele>
        <time>2021-06-04T07:23:37.000Z</time>
        <extensions>
          <ns3:TrackPointExtension>
            <ns3:atemp>20.0</ns3:atemp>
          </ns3:TrackPointExtension>
        </extensions>
      </trkpt>
      <trkpt lat="43.11249841935932636260986328125" lon="13.02540100179612636566162109375">
        <ele>498.20001220703125</ele>
        <time>2021-06-04T07:23:41.000Z</time>
        <extensions>
          <ns3:TrackPointExtension>
            <ns3:atemp>20.0</ns3:atemp>
          </ns3:TrackPointExtension>
        </extensions>
      </trkpt>
      <trkpt lat="43.11246304772794246673583984375" lon="13.02530528046190738677978515625">
        <ele>498.79998779296875</ele>
        <time>2021-06-04T07:23:43.000Z</time>
        <extensions>
          <ns3:TrackPointExtension>
            <ns3:atemp>20.0</ns3:atemp>
          </ns3:TrackPointExtension>
        </extensions>
      </trkpt>
      <trkpt lat="43.11244435608386993408203125" lon="13.025257922708988189697265625">
        <ele>499.20001220703125</ele>
        <time>2021-06-04T07:23:44.000Z</time>
        <extensions>
          <ns3:TrackPointExtension>
            <ns3:atemp>20.0</ns3:atemp>
          </ns3:TrackPointExtension>
        </extensions>
      </trkpt>
      <trkpt lat="43.1123699247837066650390625" lon="13.02507109008729457855224609375">
        <ele>500.600006103515625</ele>
        <time>2021-06-04T07:23:48.000Z</time>
        <extensions>
          <ns3:TrackPointExtension>
            <ns3:atemp>20.0</ns3:atemp>
          </ns3:TrackPointExtension>
        </extensions>
      </trkpt>
      <trkpt lat="43.11231284402310848236083984375" lon="13.0249342136085033416748046875">
        <ele>501.79998779296875</ele>
        <time>2021-06-04T07:23:51.000Z</time>
        <extensions>
          <ns3:TrackPointExtension>
            <ns3:atemp>20.0</ns3:atemp>
          </ns3:TrackPointExtension>
        </extensions>
      </trkpt>
      <trkpt lat="43.1122929789125919342041015625" lon="13.024890460073947906494140625">
        <ele>502</ele>
        <time>2021-06-04T07:23:52.000Z</time>
        <extensions>
          <ns3:TrackPointExtension>
            <ns3:atemp>20.0</ns3:atemp>
          </ns3:TrackPointExtension>
        </extensions>
      </trkpt>
      <trkpt lat="43.11222986318171024322509765625" lon="13.02475936710834503173828125">
        <ele>503.20001220703125</ele>
        <time>2021-06-04T07:23:55.000Z</time>
        <extensions>
          <ns3:TrackPointExtension>
            <ns3:atemp>20.0</ns3:atemp>
          </ns3:TrackPointExtension>
        </extensions>
      </trkpt>
      <trkpt lat="43.11217219568789005279541015625" lon="13.02462718449532985687255859375">
        <ele>504.399993896484375</ele>
        <time>2021-06-04T07:23:58.000Z</time>
        <extensions>
          <ns3:TrackPointExtension>
            <ns3:atemp>20.0</ns3:atemp>
          </ns3:TrackPointExtension>
        </extensions>
      </trkpt>
      <trkpt lat="43.1121028773486614227294921875" lon="13.0244990251958370208740234375">
        <ele>505</ele>
        <time>2021-06-04T07:24:01.000Z</time>
        <extensions>
          <ns3:TrackPointExtension>
            <ns3:atemp>20.0</ns3:atemp>
          </ns3:TrackPointExtension>
        </extensions>
      </trkpt>
      <trkpt lat="43.11208150349557399749755859375" lon="13.02445602603256702423095703125">
        <ele>505.20001220703125</ele>
        <time>2021-06-04T07:24:02.000Z</time>
        <extensions>
          <ns3:TrackPointExtension>
            <ns3:atemp>20.0</ns3:atemp>
          </ns3:TrackPointExtension>
        </extensions>
      </trkpt>
      <trkpt lat="43.1119962595403194427490234375" lon="13.0242874659597873687744140625">
        <ele>507</ele>
        <time>2021-06-04T07:24:06.000Z</time>
        <extensions>
          <ns3:TrackPointExtension>
            <ns3:atemp>21.0</ns3:atemp>
          </ns3:TrackPointExtension>
        </extensions>
      </trkpt>
      <trkpt lat="43.1119005382061004638671875" lon="13.0241375975310802459716796875">
        <ele>508</ele>
        <time>2021-06-04T07:24:10.000Z</time>
        <extensions>
          <ns3:TrackPointExtension>
            <ns3:atemp>21.0</ns3:atemp>
          </ns3:TrackPointExtension>
        </extensions>
      </trkpt>
      <trkpt lat="43.11180775053799152374267578125" lon="13.02398278377950191497802734375">
        <ele>509.20001220703125</ele>
        <time>2021-06-04T07:24:14.000Z</time>
        <extensions>
          <ns3:TrackPointExtension>
            <ns3:atemp>21.0</ns3:atemp>
          </ns3:TrackPointExtension>
        </extensions>
      </trkpt>
      <trkpt lat="43.11173449270427227020263671875" lon="13.0238690413534641265869140625">
        <ele>510.399993896484375</ele>
        <time>2021-06-04T07:24:17.000Z</time>
        <extensions>
          <ns3:TrackPointExtension>
            <ns3:atemp>21.0</ns3:atemp>
          </ns3:TrackPointExtension>
        </extensions>
      </trkpt>
      <trkpt lat="43.111673891544342041015625" lon="13.023745827376842498779296875">
        <ele>511.399993896484375</ele>
        <time>2021-06-04T07:24:20.000Z</time>
        <extensions>
          <ns3:TrackPointExtension>
            <ns3:atemp>21.0</ns3:atemp>
          </ns3:TrackPointExtension>
        </extensions>
      </trkpt>
      <trkpt lat="43.1117288768291473388671875" lon="13.023663349449634552001953125">
        <ele>512.20001220703125</ele>
        <time>2021-06-04T07:24:23.000Z</time>
        <extensions>
          <ns3:TrackPointExtension>
            <ns3:atemp>21.0</ns3:atemp>
          </ns3:TrackPointExtension>
        </extensions>
      </trkpt>
      <trkpt lat="43.111764751374721527099609375" lon="13.02367986179888248443603515625">
        <ele>512.4000244140625</ele>
        <time>2021-06-04T07:24:24.000Z</time>
        <extensions>
          <ns3:TrackPointExtension>
            <ns3:atemp>21.0</ns3:atemp>
          </ns3:TrackPointExtension>
        </extensions>
      </trkpt>
      <trkpt lat="43.11183281242847442626953125" lon="13.02376133389770984649658203125">
        <ele>513</ele>
        <time>2021-06-04T07:24:26.000Z</time>
        <extensions>
          <ns3:TrackPointExtension>
            <ns3:atemp>21.0</ns3:atemp>
          </ns3:TrackPointExtension>
        </extensions>
      </trkpt>
      <trkpt lat="43.11189391650259494781494140625" lon="13.0238646827638149261474609375">
        <ele>513.5999755859375</ele>
        <time>2021-06-04T07:24:28.000Z</time>
        <extensions>
          <ns3:TrackPointExtension>
            <ns3:atemp>21.0</ns3:atemp>
          </ns3:TrackPointExtension>
        </extensions>
      </trkpt>
      <trkpt lat="43.1120373308658599853515625" lon="13.02413298748433589935302734375">
        <ele>514</ele>
        <time>2021-06-04T07:24:33.000Z</time>
        <extensions>
          <ns3:TrackPointExtension>
            <ns3:atemp>21.0</ns3:atemp>
          </ns3:TrackPointExtension>
        </extensions>
      </trkpt>
      <trkpt lat="43.1122292764484882354736328125" lon="13.02444227971136569976806640625">
        <ele>514.20001220703125</ele>
        <time>2021-06-04T07:24:40.000Z</time>
        <extensions>
          <ns3:TrackPointExtension>
            <ns3:atemp>21.0</ns3:atemp>
          </ns3:TrackPointExtension>
        </extensions>
      </trkpt>
      <trkpt lat="43.1122939847409725189208984375" lon="13.02449860610067844390869140625">
        <ele>514.4000244140625</ele>
        <time>2021-06-04T07:24:42.000Z</time>
        <extensions>
          <ns3:TrackPointExtension>
            <ns3:atemp>21.0</ns3:atemp>
          </ns3:TrackPointExtension>
        </extensions>
      </trkpt>
      <trkpt lat="43.1124049611389636993408203125" lon="13.02457152865827083587646484375">
        <ele>514.5999755859375</ele>
        <time>2021-06-04T07:24:45.000Z</time>
        <extensions>
          <ns3:TrackPointExtension>
            <ns3:atemp>21.0</ns3:atemp>
          </ns3:TrackPointExtension>
        </extensions>
      </trkpt>
      <trkpt lat="43.112442009150981903076171875" lon="13.0245922319591045379638671875">
        <ele>515</ele>
        <time>2021-06-04T07:24:46.000Z</time>
        <extensions>
          <ns3:TrackPointExtension>
            <ns3:atemp>21.0</ns3:atemp>
          </ns3:TrackPointExtension>
        </extensions>
      </trkpt>
      <trkpt lat="43.1125509738922119140625" lon="13.02463757805526256561279296875">
        <ele>515.79998779296875</ele>
        <time>2021-06-04T07:24:49.000Z</time>
        <extensions>
          <ns3:TrackPointExtension>
            <ns3:atemp>21.0</ns3:atemp>
          </ns3:TrackPointExtension>
        </extensions>
      </trkpt>
      <trkpt lat="43.112660944461822509765625" lon="13.024642355740070343017578125">
        <ele>516.5999755859375</ele>
        <time>2021-06-04T07:24:52.000Z</time>
        <extensions>
          <ns3:TrackPointExtension>
            <ns3:atemp>21.0</ns3:atemp>
          </ns3:TrackPointExtension>
        </extensions>
      </trkpt>
      <trkpt lat="43.11273260973393917083740234375" lon="13.02462617866694927215576171875">
        <ele>517.20001220703125</ele>
        <time>2021-06-04T07:24:54.000Z</time>
        <extensions>
          <ns3:TrackPointExtension>
            <ns3:atemp>21.0</ns3:atemp>
          </ns3:TrackPointExtension>
        </extensions>
      </trkpt>
      <trkpt lat="43.11283436603844165802001953125" lon="13.02457303740084171295166015625">
        <ele>518.20001220703125</ele>
        <time>2021-06-04T07:24:57.000Z</time>
        <extensions>
          <ns3:TrackPointExtension>
            <ns3:atemp>21.0</ns3:atemp>
          </ns3:TrackPointExtension>
        </extensions>
      </trkpt>
      <trkpt lat="43.11286948621273040771484375" lon="13.02455258555710315704345703125">
        <ele>518.5999755859375</ele>
        <time>2021-06-04T07:24:58.000Z</time>
        <extensions>
          <ns3:TrackPointExtension>
            <ns3:atemp>21.0</ns3:atemp>
          </ns3:TrackPointExtension>
        </extensions>
      </trkpt>
      <trkpt lat="43.112936206161975860595703125" lon="13.024506904184818267822265625">
        <ele>519.4000244140625</ele>
        <time>2021-06-04T07:25:00.000Z</time>
        <extensions>
          <ns3:TrackPointExtension>
            <ns3:atemp>21.0</ns3:atemp>
          </ns3:TrackPointExtension>
        </extensions>
      </trkpt>
      <trkpt lat="43.11301558278501033782958984375" lon="13.0243981070816516876220703125">
        <ele>520.79998779296875</ele>
        <time>2021-06-04T07:25:03.000Z</time>
        <extensions>
          <ns3:TrackPointExtension>
            <ns3:atemp>21.0</ns3:atemp>
          </ns3:TrackPointExtension>
        </extensions>
      </trkpt>
      <trkpt lat="43.11304827220737934112548828125" lon="13.02425301633775234222412109375">
        <ele>522</ele>
        <time>2021-06-04T07:25:06.000Z</time>
        <extensions>
          <ns3:TrackPointExtension>
            <ns3:atemp>21.0</ns3:atemp>
          </ns3:TrackPointExtension>
        </extensions>
      </trkpt>
      <trkpt lat="43.113052211701869964599609375" lon="13.024203144013881683349609375">
        <ele>522.20001220703125</ele>
        <time>2021-06-04T07:25:07.000Z</time>
        <extensions>
          <ns3:TrackPointExtension>
            <ns3:atemp>21.0</ns3:atemp>
          </ns3:TrackPointExtension>
        </extensions>
      </trkpt>
      <trkpt lat="43.11305296607315540313720703125" lon="13.02404682151973247528076171875">
        <ele>523.20001220703125</ele>
        <time>2021-06-04T07:25:10.000Z</time>
        <extensions>
          <ns3:TrackPointExtension>
            <ns3:atemp>21.0</ns3:atemp>
          </ns3:TrackPointExtension>
        </extensions>
      </trkpt>
      <trkpt lat="43.1130404770374298095703125" lon="13.0238908343017101287841796875">
        <ele>524.4000244140625</ele>
        <time>2021-06-04T07:25:13.000Z</time>
        <extensions>
          <ns3:TrackPointExtension>
            <ns3:atemp>21.0</ns3:atemp>
          </ns3:TrackPointExtension>
        </extensions>
      </trkpt>
      <trkpt lat="43.11303502880036830902099609375" lon="13.023838363587856292724609375">
        <ele>524.79998779296875</ele>
        <time>2021-06-04T07:25:14.000Z</time>
        <extensions>
          <ns3:TrackPointExtension>
            <ns3:atemp>21.0</ns3:atemp>
          </ns3:TrackPointExtension>
        </extensions>
      </trkpt>
      <trkpt lat="43.11300803907215595245361328125" lon="13.02368606440722942352294921875">
        <ele>525.79998779296875</ele>
        <time>2021-06-04T07:25:17.000Z</time>
        <extensions>
          <ns3:TrackPointExtension>
            <ns3:atemp>21.0</ns3:atemp>
          </ns3:TrackPointExtension>
        </extensions>
      </trkpt>
      <trkpt lat="43.11296009458601474761962890625" lon="13.02354591898620128631591796875">
        <ele>526.79998779296875</ele>
        <time>2021-06-04T07:25:20.000Z</time>
        <extensions>
          <ns3:TrackPointExtension>
            <ns3:atemp>21.0</ns3:atemp>
          </ns3:TrackPointExtension>
        </extensions>
      </trkpt>
      <trkpt lat="43.11293947510421276092529296875" lon="13.0235015787184238433837890625">
        <ele>527</ele>
        <time>2021-06-04T07:25:21.000Z</time>
        <extensions>
          <ns3:TrackPointExtension>
            <ns3:atemp>21.0</ns3:atemp>
          </ns3:TrackPointExtension>
        </extensions>
      </trkpt>
      <trkpt lat="43.11286169104278087615966796875" lon="13.023311309516429901123046875">
        <ele>528</ele>
        <time>2021-06-04T07:25:25.000Z</time>
        <extensions>
          <ns3:TrackPointExtension>
            <ns3:atemp>21.0</ns3:atemp>
          </ns3:TrackPointExtension>
        </extensions>
      </trkpt>
      <trkpt lat="43.11279161833226680755615234375" lon="13.02311877720057964324951171875">
        <ele>529</ele>
        <time>2021-06-04T07:25:29.000Z</time>
        <extensions>
          <ns3:TrackPointExtension>
            <ns3:atemp>21.0</ns3:atemp>
          </ns3:TrackPointExtension>
        </extensions>
      </trkpt>
      <trkpt lat="43.11277334578335285186767578125" lon="13.02306781522929668426513671875">
        <ele>529.20001220703125</ele>
        <time>2021-06-04T07:25:30.000Z</time>
        <extensions>
          <ns3:TrackPointExtension>
            <ns3:atemp>21.0</ns3:atemp>
          </ns3:TrackPointExtension>
        </extensions>
      </trkpt>
      <trkpt lat="43.1127134151756763458251953125" lon="13.02291107363998889923095703125">
        <ele>531</ele>
        <time>2021-06-04T07:25:33.000Z</time>
        <extensions>
          <ns3:TrackPointExtension>
            <ns3:atemp>21.0</ns3:atemp>
          </ns3:TrackPointExtension>
        </extensions>
      </trkpt>
      <trkpt lat="43.1126339547336101531982421875" lon="13.02269079722464084625244140625">
        <ele>532</ele>
        <time>2021-06-04T07:25:37.000Z</time>
        <extensions>
          <ns3:TrackPointExtension>
            <ns3:atemp>21.0</ns3:atemp>
          </ns3:TrackPointExtension>
        </extensions>
      </trkpt>
      <trkpt lat="43.11255323700606822967529296875" lon="13.022540174424648284912109375">
        <ele>533.20001220703125</ele>
        <time>2021-06-04T07:25:40.000Z</time>
        <extensions>
          <ns3:TrackPointExtension>
            <ns3:atemp>21.0</ns3:atemp>
          </ns3:TrackPointExtension>
        </extensions>
      </trkpt>
      <trkpt lat="43.1124693341553211212158203125" lon="13.02238561213016510009765625">
        <ele>533.5999755859375</ele>
        <time>2021-06-04T07:25:43.000Z</time>
        <extensions>
          <ns3:TrackPointExtension>
            <ns3:atemp>21.0</ns3:atemp>
          </ns3:TrackPointExtension>
        </extensions>
      </trkpt>
      <trkpt lat="43.11233706772327423095703125" lon="13.022107668220996856689453125">
        <ele>534.20001220703125</ele>
        <time>2021-06-04T07:25:48.000Z</time>
        <extensions>
          <ns3:TrackPointExtension>
            <ns3:atemp>21.0</ns3:atemp>
          </ns3:TrackPointExtension>
        </extensions>
      </trkpt>
      <trkpt lat="43.112287111580371856689453125" lon="13.02199979312717914581298828125">
        <ele>534.20001220703125</ele>
        <time>2021-06-04T07:25:50.000Z</time>
        <extensions>
          <ns3:TrackPointExtension>
            <ns3:atemp>21.0</ns3:atemp>
          </ns3:TrackPointExtension>
        </extensions>
      </trkpt>
      <trkpt lat="43.11209893785417079925537109375" lon="13.0215908400714397430419921875">
        <ele>535.4000244140625</ele>
        <time>2021-06-04T07:25:58.000Z</time>
        <extensions>
          <ns3:TrackPointExtension>
            <ns3:atemp>21.0</ns3:atemp>
          </ns3:TrackPointExtension>
        </extensions>
      </trkpt>
      <trkpt lat="43.11207957565784454345703125" lon="13.02153476513922214508056640625">
        <ele>535.5999755859375</ele>
        <time>2021-06-04T07:25:59.000Z</time>
        <extensions>
          <ns3:TrackPointExtension>
            <ns3:atemp>21.0</ns3:atemp>
          </ns3:TrackPointExtension>
        </extensions>
      </trkpt>
      <trkpt lat="43.1120049767196178436279296875" lon="13.02120217122137546539306640625">
        <ele>536</ele>
        <time>2021-06-04T07:26:05.000Z</time>
        <extensions>
          <ns3:TrackPointExtension>
            <ns3:atemp>21.0</ns3:atemp>
          </ns3:TrackPointExtension>
        </extensions>
      </trkpt>
      <trkpt lat="43.1119560264050960540771484375" lon="13.02072934806346893310546875">
        <ele>535.5999755859375</ele>
        <time>2021-06-04T07:26:12.000Z</time>
        <extensions>
          <ns3:TrackPointExtension>
            <ns3:atemp>21.0</ns3:atemp>
          </ns3:TrackPointExtension>
        </extensions>
      </trkpt>
      <trkpt lat="43.111824095249176025390625" lon="13.02023825235664844512939453125">
        <ele>534.79998779296875</ele>
        <time>2021-06-04T07:26:19.000Z</time>
        <extensions>
          <ns3:TrackPointExtension>
            <ns3:atemp>21.0</ns3:atemp>
          </ns3:TrackPointExtension>
        </extensions>
      </trkpt>
      <trkpt lat="43.11176064424216747283935546875" lon="13.01994103007018566131591796875">
        <ele>534.20001220703125</ele>
        <time>2021-06-04T07:26:23.000Z</time>
        <extensions>
          <ns3:TrackPointExtension>
            <ns3:atemp>21.0</ns3:atemp>
          </ns3:TrackPointExtension>
        </extensions>
      </trkpt>
      <trkpt lat="43.11173734255135059356689453125" lon="13.01977355964481830596923828125">
        <ele>533.5999755859375</ele>
        <time>2021-06-04T07:26:25.000Z</time>
        <extensions>
          <ns3:TrackPointExtension>
            <ns3:atemp>21.0</ns3:atemp>
          </ns3:TrackPointExtension>
        </extensions>
      </trkpt>
      <trkpt lat="43.1117156334221363067626953125" lon="13.01958563737571239471435546875">
        <ele>532.79998779296875</ele>
        <time>2021-06-04T07:26:27.000Z</time>
        <extensions>
          <ns3:TrackPointExtension>
            <ns3:atemp>21.0</ns3:atemp>
          </ns3:TrackPointExtension>
        </extensions>
      </trkpt>
      <trkpt lat="43.1116854585707187652587890625" lon="13.01930350251495838165283203125">
        <ele>531.79998779296875</ele>
        <time>2021-06-04T07:26:30.000Z</time>
        <extensions>
          <ns3:TrackPointExtension>
            <ns3:atemp>21.0</ns3:atemp>
          </ns3:TrackPointExtension>
        </extensions>
      </trkpt>
      <trkpt lat="43.1116645038127899169921875" lon="13.01912396214902400970458984375">
        <ele>530.4000244140625</ele>
        <time>2021-06-04T07:26:32.000Z</time>
        <extensions>
          <ns3:TrackPointExtension>
            <ns3:atemp>21.0</ns3:atemp>
          </ns3:TrackPointExtension>
        </extensions>
      </trkpt>
      <trkpt lat="43.11164028011262416839599609375" lon="13.01895548589527606964111328125">
        <ele>529.20001220703125</ele>
        <time>2021-06-04T07:26:34.000Z</time>
        <extensions>
          <ns3:TrackPointExtension>
            <ns3:atemp>21.0</ns3:atemp>
          </ns3:TrackPointExtension>
        </extensions>
      </trkpt>
      <trkpt lat="43.111602477729320526123046875" lon="13.0187376402318477630615234375">
        <ele>528</ele>
        <time>2021-06-04T07:26:37.000Z</time>
        <extensions>
          <ns3:TrackPointExtension>
            <ns3:atemp>21.0</ns3:atemp>
          </ns3:TrackPointExtension>
        </extensions>
      </trkpt>
      <trkpt lat="43.11159610748291015625" lon="13.01868324168026447296142578125">
        <ele>528</ele>
        <time>2021-06-04T07:26:38.000Z</time>
        <extensions>
          <ns3:TrackPointExtension>
            <ns3:atemp>21.0</ns3:atemp>
          </ns3:TrackPointExtension>
        </extensions>
      </trkpt>
      <trkpt lat="43.11159367673099040985107421875" lon="13.01855281926691532135009765625">
        <ele>527.5999755859375</ele>
        <time>2021-06-04T07:26:42.000Z</time>
        <extensions>
          <ns3:TrackPointExtension>
            <ns3:atemp>21.0</ns3:atemp>
          </ns3:TrackPointExtension>
        </extensions>
      </trkpt>
      <trkpt lat="43.1115593947470188140869140625" lon="13.01842876709997653961181640625">
        <ele>527.20001220703125</ele>
        <time>2021-06-04T07:26:46.000Z</time>
        <extensions>
          <ns3:TrackPointExtension>
            <ns3:atemp>21.0</ns3:atemp>
          </ns3:TrackPointExtension>
        </extensions>
      </trkpt>
      <trkpt lat="43.111528046429157257080078125" lon="13.01833254285156726837158203125">
        <ele>527</ele>
        <time>2021-06-04T07:26:48.000Z</time>
        <extensions>
          <ns3:TrackPointExtension>
            <ns3:atemp>21.0</ns3:atemp>
          </ns3:TrackPointExtension>
        </extensions>
      </trkpt>
      <trkpt lat="43.11142201535403728485107421875" lon="13.018048144876956939697265625">
        <ele>526.20001220703125</ele>
        <time>2021-06-04T07:26:54.000Z</time>
        <extensions>
          <ns3:TrackPointExtension>
            <ns3:atemp>21.0</ns3:atemp>
          </ns3:TrackPointExtension>
        </extensions>
      </trkpt>
      <trkpt lat="43.11140558682382106781005859375" lon="13.017994500696659088134765625">
        <ele>525.5999755859375</ele>
        <time>2021-06-04T07:26:55.000Z</time>
        <extensions>
          <ns3:TrackPointExtension>
            <ns3:atemp>21.0</ns3:atemp>
          </ns3:TrackPointExtension>
        </extensions>
      </trkpt>
      <trkpt lat="43.1113656051456928253173828125" lon="13.0178287066519260406494140625">
        <ele>524.5999755859375</ele>
        <time>2021-06-04T07:26:58.000Z</time>
        <extensions>
          <ns3:TrackPointExtension>
            <ns3:atemp>21.0</ns3:atemp>
          </ns3:TrackPointExtension>
        </extensions>
      </trkpt>
      <trkpt lat="43.11135378666222095489501953125" lon="13.01776408217847347259521484375">
        <ele>524.20001220703125</ele>
        <time>2021-06-04T07:26:59.000Z</time>
        <extensions>
          <ns3:TrackPointExtension>
            <ns3:atemp>21.0</ns3:atemp>
          </ns3:TrackPointExtension>
        </extensions>
      </trkpt>
      <trkpt lat="43.1113401241600513458251953125" lon="13.01769937388598918914794921875">
        <ele>523.20001220703125</ele>
        <time>2021-06-04T07:27:00.000Z</time>
        <extensions>
          <ns3:TrackPointExtension>
            <ns3:atemp>21.0</ns3:atemp>
          </ns3:TrackPointExtension>
        </extensions>
      </trkpt>
      <trkpt lat="43.1113196723163127899169921875" lon="13.017565347254276275634765625">
        <ele>521.79998779296875</ele>
        <time>2021-06-04T07:27:02.000Z</time>
        <extensions>
          <ns3:TrackPointExtension>
            <ns3:atemp>21.0</ns3:atemp>
          </ns3:TrackPointExtension>
        </extensions>
      </trkpt>
      <trkpt lat="43.11129461042582988739013671875" lon="13.01742696203291416168212890625">
        <ele>520.4000244140625</ele>
        <time>2021-06-04T07:27:04.000Z</time>
        <extensions>
          <ns3:TrackPointExtension>
            <ns3:atemp>21.0</ns3:atemp>
          </ns3:TrackPointExtension>
        </extensions>
      </trkpt>
      <trkpt lat="43.11127885244786739349365234375" lon="13.017358817160129547119140625">
        <ele>519.79998779296875</ele>
        <time>2021-06-04T07:27:05.000Z</time>
        <extensions>
          <ns3:TrackPointExtension>
            <ns3:atemp>21.0</ns3:atemp>
          </ns3:TrackPointExtension>
        </extensions>
      </trkpt>
      <trkpt lat="43.111259154975414276123046875" lon="13.01728983409702777862548828125">
        <ele>519</ele>
        <time>2021-06-04T07:27:06.000Z</time>
        <extensions>
          <ns3:TrackPointExtension>
            <ns3:atemp>21.0</ns3:atemp>
          </ns3:TrackPointExtension>
        </extensions>
      </trkpt>
      <trkpt lat="43.11121682636439800262451171875" lon="13.0171613395214080810546875">
        <ele>517.4000244140625</ele>
        <time>2021-06-04T07:27:08.000Z</time>
        <extensions>
          <ns3:TrackPointExtension>
            <ns3:atemp>21.0</ns3:atemp>
          </ns3:TrackPointExtension>
        </extensions>
      </trkpt>
      <trkpt lat="43.11116469092667102813720703125" lon="13.0170377902686595916748046875">
        <ele>515.5999755859375</ele>
        <time>2021-06-04T07:27:10.000Z</time>
        <extensions>
          <ns3:TrackPointExtension>
            <ns3:atemp>21.0</ns3:atemp>
          </ns3:TrackPointExtension>
        </extensions>
      </trkpt>
      <trkpt lat="43.11110593378543853759765625" lon="13.01691147498786449432373046875">
        <ele>514.4000244140625</ele>
        <time>2021-06-04T07:27:12.000Z</time>
        <extensions>
          <ns3:TrackPointExtension>
            <ns3:atemp>21.0</ns3:atemp>
          </ns3:TrackPointExtension>
        </extensions>
      </trkpt>
      <trkpt lat="43.1110360287129878997802734375" lon="13.0167940445244312286376953125">
        <ele>513.4000244140625</ele>
        <time>2021-06-04T07:27:14.000Z</time>
        <extensions>
          <ns3:TrackPointExtension>
            <ns3:atemp>21.0</ns3:atemp>
          </ns3:TrackPointExtension>
        </extensions>
      </trkpt>
      <trkpt lat="43.11096587218344211578369140625" lon="13.01668080501258373260498046875">
        <ele>512</ele>
        <time>2021-06-04T07:27:16.000Z</time>
        <extensions>
          <ns3:TrackPointExtension>
            <ns3:atemp>21.0</ns3:atemp>
          </ns3:TrackPointExtension>
        </extensions>
      </trkpt>
      <trkpt lat="43.11089948751032352447509765625" lon="13.01655507646501064300537109375">
        <ele>510.79998779296875</ele>
        <time>2021-06-04T07:27:18.000Z</time>
        <extensions>
          <ns3:TrackPointExtension>
            <ns3:atemp>21.0</ns3:atemp>
          </ns3:TrackPointExtension>
        </extensions>
      </trkpt>
      <trkpt lat="43.11087082140147686004638671875" lon="13.016485758125782012939453125">
        <ele>510.399993896484375</ele>
        <time>2021-06-04T07:27:19.000Z</time>
        <extensions>
          <ns3:TrackPointExtension>
            <ns3:atemp>21.0</ns3:atemp>
          </ns3:TrackPointExtension>
        </extensions>
      </trkpt>
      <trkpt lat="43.110816590487957000732421875" lon="13.0163514800369739532470703125">
        <ele>509.399993896484375</ele>
        <time>2021-06-04T07:27:21.000Z</time>
        <extensions>
          <ns3:TrackPointExtension>
            <ns3:atemp>21.0</ns3:atemp>
          </ns3:TrackPointExtension>
        </extensions>
      </trkpt>
      <trkpt lat="43.11079203151166439056396484375" lon="13.01628400571644306182861328125">
        <ele>509</ele>
        <time>2021-06-04T07:27:22.000Z</time>
        <extensions>
          <ns3:TrackPointExtension>
            <ns3:atemp>21.0</ns3:atemp>
          </ns3:TrackPointExtension>
        </extensions>
      </trkpt>
      <trkpt lat="43.11074090190231800079345703125" lon="13.0161654017865657806396484375">
        <ele>508.20001220703125</ele>
        <time>2021-06-04T07:27:24.000Z</time>
        <extensions>
          <ns3:TrackPointExtension>
            <ns3:atemp>21.0</ns3:atemp>
          </ns3:TrackPointExtension>
        </extensions>
      </trkpt>
      <trkpt lat="43.110713995993137359619140625" lon="13.0161154456436634063720703125">
        <ele>507.79998779296875</ele>
        <time>2021-06-04T07:27:25.000Z</time>
        <extensions>
          <ns3:TrackPointExtension>
            <ns3:atemp>21.0</ns3:atemp>
          </ns3:TrackPointExtension>
        </extensions>
      </trkpt>
      <trkpt lat="43.11064752750098705291748046875" lon="13.01601528190076351165771484375">
        <ele>507</ele>
        <time>2021-06-04T07:27:27.000Z</time>
        <extensions>
          <ns3:TrackPointExtension>
            <ns3:atemp>21.0</ns3:atemp>
          </ns3:TrackPointExtension>
        </extensions>
      </trkpt>
      <trkpt lat="43.11056572012603282928466796875" lon="13.01593699492514133453369140625">
        <ele>505</ele>
        <time>2021-06-04T07:27:29.000Z</time>
        <extensions>
          <ns3:TrackPointExtension>
            <ns3:atemp>21.0</ns3:atemp>
          </ns3:TrackPointExtension>
        </extensions>
      </trkpt>
      <trkpt lat="43.1104727648198604583740234375" lon="13.0158542655408382415771484375">
        <ele>504</ele>
        <time>2021-06-04T07:27:31.000Z</time>
        <extensions>
          <ns3:TrackPointExtension>
            <ns3:atemp>21.0</ns3:atemp>
          </ns3:TrackPointExtension>
        </extensions>
      </trkpt>
      <trkpt lat="43.11042725108563899993896484375" lon="13.0158096738159656524658203125">
        <ele>503.600006103515625</ele>
        <time>2021-06-04T07:27:32.000Z</time>
        <extensions>
          <ns3:TrackPointExtension>
            <ns3:atemp>21.0</ns3:atemp>
          </ns3:TrackPointExtension>
        </extensions>
      </trkpt>
      <trkpt lat="43.11037913896143436431884765625" lon="13.0157644115388393402099609375">
        <ele>503.20001220703125</ele>
        <time>2021-06-04T07:27:33.000Z</time>
        <extensions>
          <ns3:TrackPointExtension>
            <ns3:atemp>21.0</ns3:atemp>
          </ns3:TrackPointExtension>
        </extensions>
      </trkpt>
      <trkpt lat="43.11033756472170352935791015625" lon="13.01571152172982692718505859375">
        <ele>502.79998779296875</ele>
        <time>2021-06-04T07:27:34.000Z</time>
        <extensions>
          <ns3:TrackPointExtension>
            <ns3:atemp>21.0</ns3:atemp>
          </ns3:TrackPointExtension>
        </extensions>
      </trkpt>
      <trkpt lat="43.11026447452604770660400390625" lon="13.0155823566019535064697265625">
        <ele>501.600006103515625</ele>
        <time>2021-06-04T07:27:36.000Z</time>
        <extensions>
          <ns3:TrackPointExtension>
            <ns3:atemp>21.0</ns3:atemp>
          </ns3:TrackPointExtension>
        </extensions>
      </trkpt>
      <trkpt lat="43.11020663939416408538818359375" lon="13.01545637659728527069091796875">
        <ele>500</ele>
        <time>2021-06-04T07:27:38.000Z</time>
        <extensions>
          <ns3:TrackPointExtension>
            <ns3:atemp>20.0</ns3:atemp>
          </ns3:TrackPointExtension>
        </extensions>
      </trkpt>
      <trkpt lat="43.1101569347083568572998046875" lon="13.01533768884837627410888671875">
        <ele>498.20001220703125</ele>
        <time>2021-06-04T07:27:40.000Z</time>
        <extensions>
          <ns3:TrackPointExtension>
            <ns3:atemp>20.0</ns3:atemp>
          </ns3:TrackPointExtension>
        </extensions>
      </trkpt>
      <trkpt lat="43.11013522557914257049560546875" lon="13.0152811110019683837890625">
        <ele>497.399993896484375</ele>
        <time>2021-06-04T07:27:41.000Z</time>
        <extensions>
          <ns3:TrackPointExtension>
            <ns3:atemp>20.0</ns3:atemp>
          </ns3:TrackPointExtension>
        </extensions>
      </trkpt>
      <trkpt lat="43.1101197190582752227783203125" lon="13.01521263085305690765380859375">
        <ele>496.79998779296875</ele>
        <time>2021-06-04T07:27:42.000Z</time>
        <extensions>
          <ns3:TrackPointExtension>
            <ns3:atemp>20.0</ns3:atemp>
          </ns3:TrackPointExtension>
        </extensions>
      </trkpt>
      <trkpt lat="43.1100912205874919891357421875" lon="13.0150529555976390838623046875">
        <ele>495.399993896484375</ele>
        <time>2021-06-04T07:27:44.000Z</time>
        <extensions>
          <ns3:TrackPointExtension>
            <ns3:atemp>20.0</ns3:atemp>
          </ns3:TrackPointExtension>
        </extensions>
      </trkpt>
      <trkpt lat="43.11006984673440456390380859375" lon="13.014968298375606536865234375">
        <ele>494.600006103515625</ele>
        <time>2021-06-04T07:27:45.000Z</time>
        <extensions>
          <ns3:TrackPointExtension>
            <ns3:atemp>20.0</ns3:atemp>
          </ns3:TrackPointExtension>
        </extensions>
      </trkpt>
      <trkpt lat="43.11004989780485630035400390625" lon="13.01489395089447498321533203125">
        <ele>493.79998779296875</ele>
        <time>2021-06-04T07:27:46.000Z</time>
        <extensions>
          <ns3:TrackPointExtension>
            <ns3:atemp>20.0</ns3:atemp>
          </ns3:TrackPointExtension>
        </extensions>
      </trkpt>
      <trkpt lat="43.11003413982689380645751953125" lon="13.01483125425875186920166015625">
        <ele>493.20001220703125</ele>
        <time>2021-06-04T07:27:47.000Z</time>
        <extensions>
          <ns3:TrackPointExtension>
            <ns3:atemp>20.0</ns3:atemp>
          </ns3:TrackPointExtension>
        </extensions>
      </trkpt>
      <trkpt lat="43.11001888476312160491943359375" lon="13.01476939581334590911865234375">
        <ele>492.600006103515625</ele>
        <time>2021-06-04T07:27:48.000Z</time>
        <extensions>
          <ns3:TrackPointExtension>
            <ns3:atemp>20.0</ns3:atemp>
          </ns3:TrackPointExtension>
        </extensions>
      </trkpt>
      <trkpt lat="43.1100042164325714111328125" lon="13.0147133208811283111572265625">
        <ele>492.399993896484375</ele>
        <time>2021-06-04T07:27:49.000Z</time>
        <extensions>
          <ns3:TrackPointExtension>
            <ns3:atemp>20.0</ns3:atemp>
          </ns3:TrackPointExtension>
        </extensions>
      </trkpt>
      <trkpt lat="43.10988896526396274566650390625" lon="13.01442959345877170562744140625">
        <ele>492</ele>
        <time>2021-06-04T07:27:55.000Z</time>
        <extensions>
          <ns3:TrackPointExtension>
            <ns3:atemp>20.0</ns3:atemp>
          </ns3:TrackPointExtension>
        </extensions>
      </trkpt>
      <trkpt lat="43.10969509184360504150390625" lon="13.01423597149550914764404296875">
        <ele>493</ele>
        <time>2021-06-04T07:28:01.000Z</time>
        <extensions>
          <ns3:TrackPointExtension>
            <ns3:atemp>20.0</ns3:atemp>
          </ns3:TrackPointExtension>
        </extensions>
      </trkpt>
      <trkpt lat="43.1095346622169017791748046875" lon="13.0141071416437625885009765625">
        <ele>493.399993896484375</ele>
        <time>2021-06-04T07:28:06.000Z</time>
        <extensions>
          <ns3:TrackPointExtension>
            <ns3:atemp>20.0</ns3:atemp>
          </ns3:TrackPointExtension>
        </extensions>
      </trkpt>
      <trkpt lat="43.1093712151050567626953125" lon="13.013987280428409576416015625">
        <ele>493.79998779296875</ele>
        <time>2021-06-04T07:28:11.000Z</time>
        <extensions>
          <ns3:TrackPointExtension>
            <ns3:atemp>20.0</ns3:atemp>
          </ns3:TrackPointExtension>
        </extensions>
      </trkpt>
      <trkpt lat="43.10931145213544368743896484375" lon="13.0139395035803318023681640625">
        <ele>494.20001220703125</ele>
        <time>2021-06-04T07:28:13.000Z</time>
        <extensions>
          <ns3:TrackPointExtension>
            <ns3:atemp>20.0</ns3:atemp>
          </ns3:TrackPointExtension>
        </extensions>
      </trkpt>
      <trkpt lat="43.10922830365598201751708984375" lon="13.01386800594627857208251953125">
        <ele>494.79998779296875</ele>
        <time>2021-06-04T07:28:16.000Z</time>
        <extensions>
          <ns3:TrackPointExtension>
            <ns3:atemp>20.0</ns3:atemp>
          </ns3:TrackPointExtension>
        </extensions>
      </trkpt>
      <trkpt lat="43.10915823094546794891357421875" lon="13.0137718655169010162353515625">
        <ele>494.79998779296875</ele>
        <time>2021-06-04T07:28:19.000Z</time>
        <extensions>
          <ns3:TrackPointExtension>
            <ns3:atemp>20.0</ns3:atemp>
          </ns3:TrackPointExtension>
        </extensions>
      </trkpt>
      <trkpt lat="43.1090589053928852081298828125" lon="13.0134955979883670806884765625">
        <ele>494.79998779296875</ele>
        <time>2021-06-04T07:28:24.000Z</time>
        <extensions>
          <ns3:TrackPointExtension>
            <ns3:atemp>20.0</ns3:atemp>
          </ns3:TrackPointExtension>
        </extensions>
      </trkpt>
      <trkpt lat="43.1089197658002376556396484375" lon="13.01333055831491947174072265625">
        <ele>493.399993896484375</ele>
        <time>2021-06-04T07:28:28.000Z</time>
        <extensions>
          <ns3:TrackPointExtension>
            <ns3:atemp>20.0</ns3:atemp>
          </ns3:TrackPointExtension>
        </extensions>
      </trkpt>
      <trkpt lat="43.1088830530643463134765625" lon="13.01329962909221649169921875">
        <ele>493.399993896484375</ele>
        <time>2021-06-04T07:28:29.000Z</time>
        <extensions>
          <ns3:TrackPointExtension>
            <ns3:atemp>20.0</ns3:atemp>
          </ns3:TrackPointExtension>
        </extensions>
      </trkpt>
      <trkpt lat="43.10867979191243648529052734375" lon="13.013131655752658843994140625">
        <ele>493</ele>
        <time>2021-06-04T07:28:35.000Z</time>
        <extensions>
          <ns3:TrackPointExtension>
            <ns3:atemp>20.0</ns3:atemp>
          </ns3:TrackPointExtension>
        </extensions>
      </trkpt>
      <trkpt lat="43.10837678611278533935546875" lon="13.01289788447320461273193359375">
        <ele>492.79998779296875</ele>
        <time>2021-06-04T07:28:43.000Z</time>
        <extensions>
          <ns3:TrackPointExtension>
            <ns3:atemp>20.0</ns3:atemp>
          </ns3:TrackPointExtension>
        </extensions>
      </trkpt>
      <trkpt lat="43.1080959923565387725830078125" lon="13.0126486904919147491455078125">
        <ele>492.600006103515625</ele>
        <time>2021-06-04T07:28:50.000Z</time>
        <extensions>
          <ns3:TrackPointExtension>
            <ns3:atemp>20.0</ns3:atemp>
          </ns3:TrackPointExtension>
        </extensions>
      </trkpt>
      <trkpt lat="43.1078656576573848724365234375" lon="13.0124783702194690704345703125">
        <ele>492.600006103515625</ele>
        <time>2021-06-04T07:28:56.000Z</time>
        <extensions>
          <ns3:TrackPointExtension>
            <ns3:atemp>20.0</ns3:atemp>
          </ns3:TrackPointExtension>
        </extensions>
      </trkpt>
      <trkpt lat="43.1075266934931278228759765625" lon="13.012263961136341094970703125">
        <ele>493.20001220703125</ele>
        <time>2021-06-04T07:29:05.000Z</time>
        <extensions>
          <ns3:TrackPointExtension>
            <ns3:atemp>19.0</ns3:atemp>
          </ns3:TrackPointExtension>
        </extensions>
      </trkpt>
      <trkpt lat="43.10725335963070392608642578125" lon="13.01212339662015438079833984375">
        <ele>493.79998779296875</ele>
        <time>2021-06-04T07:29:12.000Z</time>
        <extensions>
          <ns3:TrackPointExtension>
            <ns3:atemp>19.0</ns3:atemp>
          </ns3:TrackPointExtension>
        </extensions>
      </trkpt>
      <trkpt lat="43.10702025890350341796875" lon="13.01203094422817230224609375">
        <ele>494.20001220703125</ele>
        <time>2021-06-04T07:29:19.000Z</time>
        <extensions>
          <ns3:TrackPointExtension>
            <ns3:atemp>19.0</ns3:atemp>
          </ns3:TrackPointExtension>
        </extensions>
      </trkpt>
      <trkpt lat="43.10677005909383296966552734375" lon="13.0119328759610652923583984375">
        <ele>494.399993896484375</ele>
        <time>2021-06-04T07:29:26.000Z</time>
        <extensions>
          <ns3:TrackPointExtension>
            <ns3:atemp>19.0</ns3:atemp>
          </ns3:TrackPointExtension>
        </extensions>
      </trkpt>
      <trkpt lat="43.10661784373223781585693359375" lon="13.011846207082271575927734375">
        <ele>494.399993896484375</ele>
        <time>2021-06-04T07:29:31.000Z</time>
        <extensions>
          <ns3:TrackPointExtension>
            <ns3:atemp>19.0</ns3:atemp>
          </ns3:TrackPointExtension>
        </extensions>
      </trkpt>
      <trkpt lat="43.1065037660300731658935546875" lon="13.01178812049329280853271484375">
        <ele>494.600006103515625</ele>
        <time>2021-06-04T07:29:34.000Z</time>
        <extensions>
          <ns3:TrackPointExtension>
            <ns3:atemp>19.0</ns3:atemp>
          </ns3:TrackPointExtension>
        </extensions>
      </trkpt>
      <trkpt lat="43.10641500167548656463623046875" lon="13.01173481158912181854248046875">
        <ele>494.600006103515625</ele>
        <time>2021-06-04T07:29:36.000Z</time>
        <extensions>
          <ns3:TrackPointExtension>
            <ns3:atemp>19.0</ns3:atemp>
          </ns3:TrackPointExtension>
        </extensions>
      </trkpt>
      <trkpt lat="43.1061493791639804840087890625" lon="13.01154613494873046875">
        <ele>495.600006103515625</ele>
        <time>2021-06-04T07:29:43.000Z</time>
        <extensions>
          <ns3:TrackPointExtension>
            <ns3:atemp>19.0</ns3:atemp>
          </ns3:TrackPointExtension>
        </extensions>
      </trkpt>
      <trkpt lat="43.106105625629425048828125" lon="13.01152174361050128936767578125">
        <ele>495.600006103515625</ele>
        <time>2021-06-04T07:29:44.000Z</time>
        <extensions>
          <ns3:TrackPointExtension>
            <ns3:atemp>19.0</ns3:atemp>
          </ns3:TrackPointExtension>
        </extensions>
      </trkpt>
      <trkpt lat="43.1058687530457973480224609375" lon="13.0113873817026615142822265625">
        <ele>496.20001220703125</ele>
        <time>2021-06-04T07:29:50.000Z</time>
        <extensions>
          <ns3:TrackPointExtension>
            <ns3:atemp>19.0</ns3:atemp>
          </ns3:TrackPointExtension>
        </extensions>
      </trkpt>
      <trkpt lat="43.1056387536227703094482421875" lon="13.0112780816853046417236328125">
        <ele>496.20001220703125</ele>
        <time>2021-06-04T07:29:56.000Z</time>
        <extensions>
          <ns3:TrackPointExtension>
            <ns3:atemp>19.0</ns3:atemp>
          </ns3:TrackPointExtension>
        </extensions>
      </trkpt>
      <trkpt lat="43.10535552911460399627685546875" lon="13.01127296872437000274658203125">
        <ele>495.600006103515625</ele>
        <time>2021-06-04T07:30:01.000Z</time>
        <extensions>
          <ns3:TrackPointExtension>
            <ns3:atemp>19.0</ns3:atemp>
          </ns3:TrackPointExtension>
        </extensions>
      </trkpt>
      <trkpt lat="43.105132319033145904541015625" lon="13.0112834461033344268798828125">
        <ele>494.399993896484375</ele>
        <time>2021-06-04T07:30:05.000Z</time>
        <extensions>
          <ns3:TrackPointExtension>
            <ns3:atemp>19.0</ns3:atemp>
          </ns3:TrackPointExtension>
        </extensions>
      </trkpt>
      <trkpt lat="43.1049992144107818603515625" lon="13.01127581857144832611083984375">
        <ele>493.600006103515625</ele>
        <time>2021-06-04T07:30:08.000Z</time>
        <extensions>
          <ns3:TrackPointExtension>
            <ns3:atemp>19.0</ns3:atemp>
          </ns3:TrackPointExtension>
        </extensions>
      </trkpt>
      <trkpt lat="43.10496325604617595672607421875" lon="13.01126140169799327850341796875">
        <ele>493.20001220703125</ele>
        <time>2021-06-04T07:30:09.000Z</time>
        <extensions>
          <ns3:TrackPointExtension>
            <ns3:atemp>19.0</ns3:atemp>
          </ns3:TrackPointExtension>
        </extensions>
      </trkpt>
      <trkpt lat="43.10486418195068836212158203125" lon="13.0111801810562610626220703125">
        <ele>492</ele>
        <time>2021-06-04T07:30:12.000Z</time>
        <extensions>
          <ns3:TrackPointExtension>
            <ns3:atemp>19.0</ns3:atemp>
          </ns3:TrackPointExtension>
        </extensions>
      </trkpt>
      <trkpt lat="43.10483853332698345184326171875" lon="13.01114221103489398956298828125">
        <ele>491.79998779296875</ele>
        <time>2021-06-04T07:30:13.000Z</time>
        <extensions>
          <ns3:TrackPointExtension>
            <ns3:atemp>19.0</ns3:atemp>
          </ns3:TrackPointExtension>
        </extensions>
      </trkpt>
      <trkpt lat="43.10471934266388416290283203125" lon="13.01095831207931041717529296875">
        <ele>491.20001220703125</ele>
        <time>2021-06-04T07:30:17.000Z</time>
        <extensions>
          <ns3:TrackPointExtension>
            <ns3:atemp>19.0</ns3:atemp>
          </ns3:TrackPointExtension>
        </extensions>
      </trkpt>
      <trkpt lat="43.10467726550996303558349609375" lon="13.01090131513774394989013671875">
        <ele>490.79998779296875</ele>
        <time>2021-06-04T07:30:18.000Z</time>
        <extensions>
          <ns3:TrackPointExtension>
            <ns3:atemp>19.0</ns3:atemp>
          </ns3:TrackPointExtension>
        </extensions>
      </trkpt>
      <trkpt lat="43.10461540706455707550048828125" lon="13.01083442755043506622314453125">
        <ele>489.79998779296875</ele>
        <time>2021-06-04T07:30:20.000Z</time>
        <extensions>
          <ns3:TrackPointExtension>
            <ns3:atemp>19.0</ns3:atemp>
          </ns3:TrackPointExtension>
        </extensions>
      </trkpt>
      <trkpt lat="43.10459730215370655059814453125" lon="13.010816909372806549072265625">
        <ele>489.20001220703125</ele>
        <time>2021-06-04T07:30:21.000Z</time>
        <extensions>
          <ns3:TrackPointExtension>
            <ns3:atemp>19.0</ns3:atemp>
          </ns3:TrackPointExtension>
        </extensions>
      </trkpt>
      <trkpt lat="43.10458623804152011871337890625" lon="13.0108043365180492401123046875">
        <ele>488.399993896484375</ele>
        <time>2021-06-04T07:30:22.000Z</time>
        <extensions>
          <ns3:TrackPointExtension>
            <ns3:atemp>19.0</ns3:atemp>
          </ns3:TrackPointExtension>
        </extensions>
      </trkpt>
      <trkpt lat="43.1045829690992832183837890625" lon="13.0107959546148777008056640625">
        <ele>487</ele>
        <time>2021-06-04T07:30:23.000Z</time>
        <extensions>
          <ns3:TrackPointExtension>
            <ns3:atemp>19.0</ns3:atemp>
          </ns3:TrackPointExtension>
        </extensions>
      </trkpt>
      <trkpt lat="43.10456997714936733245849609375" lon="13.0107798613607883453369140625">
        <ele>485.399993896484375</ele>
        <time>2021-06-04T07:30:25.000Z</time>
        <extensions>
          <ns3:TrackPointExtension>
            <ns3:atemp>19.0</ns3:atemp>
          </ns3:TrackPointExtension>
        </extensions>
      </trkpt>
      <trkpt lat="43.1045558117330074310302734375" lon="13.01074306480586528778076171875">
        <ele>484.20001220703125</ele>
        <time>2021-06-04T07:30:29.000Z</time>
        <extensions>
          <ns3:TrackPointExtension>
            <ns3:atemp>19.0</ns3:atemp>
          </ns3:TrackPointExtension>
        </extensions>
      </trkpt>
      <trkpt lat="43.10454935766756534576416015625" lon="13.0106985569000244140625">
        <ele>484.20001220703125</ele>
        <time>2021-06-04T07:30:37.000Z</time>
        <extensions>
          <ns3:TrackPointExtension>
            <ns3:atemp>19.0</ns3:atemp>
          </ns3:TrackPointExtension>
        </extensions>
      </trkpt>
      <trkpt lat="43.1045236252248287200927734375" lon="13.0106628499925136566162109375">
        <ele>484.20001220703125</ele>
        <time>2021-06-04T07:30:50.000Z</time>
        <extensions>
          <ns3:TrackPointExtension>
            <ns3:atemp>19.0</ns3:atemp>
          </ns3:TrackPointExtension>
        </extensions>
      </trkpt>
      <trkpt lat="43.1044706515967845916748046875" lon="13.01059864461421966552734375">
        <ele>484</ele>
        <time>2021-06-04T07:30:54.000Z</time>
        <extensions>
          <ns3:TrackPointExtension>
            <ns3:atemp>19.0</ns3:atemp>
          </ns3:TrackPointExtension>
        </extensions>
      </trkpt>
      <trkpt lat="43.1044428236782550811767578125" lon="13.01056235097348690032958984375">
        <ele>483.20001220703125</ele>
        <time>2021-06-04T07:31:01.000Z</time>
        <extensions>
          <ns3:TrackPointExtension>
            <ns3:atemp>19.0</ns3:atemp>
          </ns3:TrackPointExtension>
        </extensions>
      </trkpt>
      <trkpt lat="43.10444089584052562713623046875" lon="13.01055195741355419158935546875">
        <ele>483</ele>
        <time>2021-06-04T07:31:04.000Z</time>
        <extensions>
          <ns3:TrackPointExtension>
            <ns3:atemp>19.0</ns3:atemp>
          </ns3:TrackPointExtension>
        </extensions>
      </trkpt>
      <trkpt lat="43.10443502850830554962158203125" lon="13.01054206676781177520751953125">
        <ele>483</ele>
        <time>2021-06-04T07:31:12.000Z</time>
        <extensions>
          <ns3:TrackPointExtension>
            <ns3:atemp>19.0</ns3:atemp>
          </ns3:TrackPointExtension>
        </extensions>
      </trkpt>
      <trkpt lat="43.10443402267992496490478515625" lon="13.01053921692073345184326171875">
        <ele>482.79998779296875</ele>
        <time>2021-06-04T07:31:28.000Z</time>
        <extensions>
          <ns3:TrackPointExtension>
            <ns3:atemp>19.0</ns3:atemp>
          </ns3:TrackPointExtension>
        </extensions>
      </trkpt>
      <trkpt lat="43.1044341064989566802978515625" lon="13.01051625050604343414306640625">
        <ele>482.79998779296875</ele>
        <time>2021-06-04T07:31:30.000Z</time>
        <extensions>
          <ns3:TrackPointExtension>
            <ns3:atemp>19.0</ns3:atemp>
          </ns3:TrackPointExtension>
        </extensions>
      </trkpt>
      <trkpt lat="43.10446118004620075225830078125" lon="13.010411560535430908203125">
        <ele>482.79998779296875</ele>
        <time>2021-06-04T07:31:34.000Z</time>
        <extensions>
          <ns3:TrackPointExtension>
            <ns3:atemp>19.0</ns3:atemp>
          </ns3:TrackPointExtension>
        </extensions>
      </trkpt>
      <trkpt lat="43.10447626747190952301025390625" lon="13.01038918085396289825439453125">
        <ele>482.79998779296875</ele>
        <time>2021-06-04T07:31:35.000Z</time>
        <extensions>
          <ns3:TrackPointExtension>
            <ns3:atemp>19.0</ns3:atemp>
          </ns3:TrackPointExtension>
        </extensions>
      </trkpt>
      <trkpt lat="43.10453091748058795928955078125" lon="13.01029362715780735015869140625">
        <ele>483</ele>
        <time>2021-06-04T07:31:40.000Z</time>
        <extensions>
          <ns3:TrackPointExtension>
            <ns3:atemp>19.0</ns3:atemp>
          </ns3:TrackPointExtension>
        </extensions>
      </trkpt>
      <trkpt lat="43.10462228022515773773193359375" lon="13.0101800523698329925537109375">
        <ele>483.20001220703125</ele>
        <time>2021-06-04T07:31:46.000Z</time>
        <extensions>
          <ns3:TrackPointExtension>
            <ns3:atemp>19.0</ns3:atemp>
          </ns3:TrackPointExtension>
        </extensions>
      </trkpt>
      <trkpt lat="43.10470744036138057708740234375" lon="13.01010117866098880767822265625">
        <ele>484.399993896484375</ele>
        <time>2021-06-04T07:31:51.000Z</time>
        <extensions>
          <ns3:TrackPointExtension>
            <ns3:atemp>19.0</ns3:atemp>
          </ns3:TrackPointExtension>
        </extensions>
      </trkpt>
      <trkpt lat="43.1047274731099605560302734375" lon="13.01009028218686580657958984375">
        <ele>484.600006103515625</ele>
        <time>2021-06-04T07:31:52.000Z</time>
        <extensions>
          <ns3:TrackPointExtension>
            <ns3:atemp>19.0</ns3:atemp>
          </ns3:TrackPointExtension>
        </extensions>
      </trkpt>
      <trkpt lat="43.10477550141513347625732421875" lon="13.0100546590983867645263671875">
        <ele>485.399993896484375</ele>
        <time>2021-06-04T07:31:55.000Z</time>
        <extensions>
          <ns3:TrackPointExtension>
            <ns3:atemp>19.0</ns3:atemp>
          </ns3:TrackPointExtension>
        </extensions>
      </trkpt>
      <trkpt lat="43.10484104789793491363525390625" lon="13.0100080557167530059814453125">
        <ele>486.79998779296875</ele>
        <time>2021-06-04T07:31:59.000Z</time>
        <extensions>
          <ns3:TrackPointExtension>
            <ns3:atemp>19.0</ns3:atemp>
          </ns3:TrackPointExtension>
        </extensions>
      </trkpt>
      <trkpt lat="43.10488580726087093353271484375" lon="13.00997578538954257965087890625">
        <ele>488.20001220703125</ele>
        <time>2021-06-04T07:32:02.000Z</time>
        <extensions>
          <ns3:TrackPointExtension>
            <ns3:atemp>19.0</ns3:atemp>
          </ns3:TrackPointExtension>
        </extensions>
      </trkpt>
      <trkpt lat="43.104920424520969390869140625" lon="13.00994326360523700714111328125">
        <ele>489.20001220703125</ele>
        <time>2021-06-04T07:32:04.000Z</time>
        <extensions>
          <ns3:TrackPointExtension>
            <ns3:atemp>19.0</ns3:atemp>
          </ns3:TrackPointExtension>
        </extensions>
      </trkpt>
      <trkpt lat="43.10493375174701213836669921875" lon="13.0099312774837017059326171875">
        <ele>489.600006103515625</ele>
        <time>2021-06-04T07:32:05.000Z</time>
        <extensions>
          <ns3:TrackPointExtension>
            <ns3:atemp>19.0</ns3:atemp>
          </ns3:TrackPointExtension>
        </extensions>
      </trkpt>
      <trkpt lat="43.10496903955936431884765625" lon="13.00990386866033077239990234375">
        <ele>490.600006103515625</ele>
        <time>2021-06-04T07:32:07.000Z</time>
        <extensions>
          <ns3:TrackPointExtension>
            <ns3:atemp>19.0</ns3:atemp>
          </ns3:TrackPointExtension>
        </extensions>
      </trkpt>
      <trkpt lat="43.1049772538244724273681640625" lon="13.009900934994220733642578125">
        <ele>491.20001220703125</ele>
        <time>2021-06-04T07:32:08.000Z</time>
        <extensions>
          <ns3:TrackPointExtension>
            <ns3:atemp>19.0</ns3:atemp>
          </ns3:TrackPointExtension>
        </extensions>
      </trkpt>
      <trkpt lat="43.10500818304717540740966796875" lon="13.0098729394376277923583984375">
        <ele>491.79998779296875</ele>
        <time>2021-06-04T07:32:10.000Z</time>
        <extensions>
          <ns3:TrackPointExtension>
            <ns3:atemp>19.0</ns3:atemp>
          </ns3:TrackPointExtension>
        </extensions>
      </trkpt>
      <trkpt lat="43.10505487024784088134765625" lon="13.00982574932277202606201171875">
        <ele>492.79998779296875</ele>
        <time>2021-06-04T07:32:13.000Z</time>
        <extensions>
          <ns3:TrackPointExtension>
            <ns3:atemp>19.0</ns3:atemp>
          </ns3:TrackPointExtension>
        </extensions>
      </trkpt>
      <trkpt lat="43.1051133759319782257080078125" lon="13.00977746956050395965576171875">
        <ele>494</ele>
        <time>2021-06-04T07:32:16.000Z</time>
        <extensions>
          <ns3:TrackPointExtension>
            <ns3:atemp>19.0</ns3:atemp>
          </ns3:TrackPointExtension>
        </extensions>
      </trkpt>
      <trkpt lat="43.10516676865518093109130859375" lon="13.00971644930541515350341796875">
        <ele>495.20001220703125</ele>
        <time>2021-06-04T07:32:19.000Z</time>
        <extensions>
          <ns3:TrackPointExtension>
            <ns3:atemp>19.0</ns3:atemp>
          </ns3:TrackPointExtension>
        </extensions>
      </trkpt>
      <trkpt lat="43.1051904894411563873291015625" lon="13.0096737854182720184326171875">
        <ele>496.600006103515625</ele>
        <time>2021-06-04T07:32:21.000Z</time>
        <extensions>
          <ns3:TrackPointExtension>
            <ns3:atemp>19.0</ns3:atemp>
          </ns3:TrackPointExtension>
        </extensions>
      </trkpt>
      <trkpt lat="43.10522250831127166748046875" lon="13.0096449516713619232177734375">
        <ele>497.79998779296875</ele>
        <time>2021-06-04T07:32:24.000Z</time>
        <extensions>
          <ns3:TrackPointExtension>
            <ns3:atemp>19.0</ns3:atemp>
          </ns3:TrackPointExtension>
        </extensions>
      </trkpt>
      <trkpt lat="43.1052266992628574371337890625" lon="13.00961871631443500518798828125">
        <ele>498.20001220703125</ele>
        <time>2021-06-04T07:32:25.000Z</time>
        <extensions>
          <ns3:TrackPointExtension>
            <ns3:atemp>19.0</ns3:atemp>
          </ns3:TrackPointExtension>
        </extensions>
      </trkpt>
      <trkpt lat="43.1052253581583499908447265625" lon="13.00956959836184978485107421875">
        <ele>499</ele>
        <time>2021-06-04T07:32:27.000Z</time>
        <extensions>
          <ns3:TrackPointExtension>
            <ns3:atemp>19.0</ns3:atemp>
          </ns3:TrackPointExtension>
        </extensions>
      </trkpt>
      <trkpt lat="43.10521622188389301300048828125" lon="13.00954797305166721343994140625">
        <ele>499.399993896484375</ele>
        <time>2021-06-04T07:32:28.000Z</time>
        <extensions>
          <ns3:TrackPointExtension>
            <ns3:atemp>19.0</ns3:atemp>
          </ns3:TrackPointExtension>
        </extensions>
      </trkpt>
      <trkpt lat="43.10518654994666576385498046875" lon="13.00951947458088397979736328125">
        <ele>500.20001220703125</ele>
        <time>2021-06-04T07:32:30.000Z</time>
        <extensions>
          <ns3:TrackPointExtension>
            <ns3:atemp>19.0</ns3:atemp>
          </ns3:TrackPointExtension>
        </extensions>
      </trkpt>
      <trkpt lat="43.105134665966033935546875" lon="13.00949432887136936187744140625">
        <ele>501.399993896484375</ele>
        <time>2021-06-04T07:32:33.000Z</time>
        <extensions>
          <ns3:TrackPointExtension>
            <ns3:atemp>19.0</ns3:atemp>
          </ns3:TrackPointExtension>
        </extensions>
      </trkpt>
      <trkpt lat="43.10510306619107723236083984375" lon="13.00949114374816417694091796875">
        <ele>502</ele>
        <time>2021-06-04T07:32:35.000Z</time>
        <extensions>
          <ns3:TrackPointExtension>
            <ns3:atemp>19.0</ns3:atemp>
          </ns3:TrackPointExtension>
        </extensions>
      </trkpt>
      <trkpt lat="43.10508797876536846160888671875" lon="13.00949097611010074615478515625">
        <ele>502.20001220703125</ele>
        <time>2021-06-04T07:32:36.000Z</time>
        <extensions>
          <ns3:TrackPointExtension>
            <ns3:atemp>19.0</ns3:atemp>
          </ns3:TrackPointExtension>
        </extensions>
      </trkpt>
      <trkpt lat="43.10507540591061115264892578125" lon="13.0094877071678638458251953125">
        <ele>502.79998779296875</ele>
        <time>2021-06-04T07:32:37.000Z</time>
        <extensions>
          <ns3:TrackPointExtension>
            <ns3:atemp>19.0</ns3:atemp>
          </ns3:TrackPointExtension>
        </extensions>
      </trkpt>
      <trkpt lat="43.10500013642013072967529296875" lon="13.00946901552379131317138671875">
        <ele>504</ele>
        <time>2021-06-04T07:32:41.000Z</time>
        <extensions>
          <ns3:TrackPointExtension>
            <ns3:atemp>19.0</ns3:atemp>
          </ns3:TrackPointExtension>
        </extensions>
      </trkpt>
      <trkpt lat="43.1049383617937564849853515625" lon="13.009473793208599090576171875">
        <ele>505.20001220703125</ele>
        <time>2021-06-04T07:32:44.000Z</time>
        <extensions>
          <ns3:TrackPointExtension>
            <ns3:atemp>19.0</ns3:atemp>
          </ns3:TrackPointExtension>
        </extensions>
      </trkpt>
      <trkpt lat="43.104880861937999725341796875" lon="13.00946541130542755126953125">
        <ele>506.399993896484375</ele>
        <time>2021-06-04T07:32:47.000Z</time>
        <extensions>
          <ns3:TrackPointExtension>
            <ns3:atemp>19.0</ns3:atemp>
          </ns3:TrackPointExtension>
        </extensions>
      </trkpt>
      <trkpt lat="43.1048535369336605072021484375" lon="13.0094531737267971038818359375">
        <ele>507.79998779296875</ele>
        <time>2021-06-04T07:32:49.000Z</time>
        <extensions>
          <ns3:TrackPointExtension>
            <ns3:atemp>19.0</ns3:atemp>
          </ns3:TrackPointExtension>
        </extensions>
      </trkpt>
      <trkpt lat="43.10482780449092388153076171875" lon="13.00943448208272457122802734375">
        <ele>509</ele>
        <time>2021-06-04T07:32:51.000Z</time>
        <extensions>
          <ns3:TrackPointExtension>
            <ns3:atemp>19.0</ns3:atemp>
          </ns3:TrackPointExtension>
        </extensions>
      </trkpt>
      <trkpt lat="43.104782290756702423095703125" lon="13.009405396878719329833984375">
        <ele>510.20001220703125</ele>
        <time>2021-06-04T07:32:54.000Z</time>
        <extensions>
          <ns3:TrackPointExtension>
            <ns3:atemp>19.0</ns3:atemp>
          </ns3:TrackPointExtension>
        </extensions>
      </trkpt>
      <trkpt lat="43.1047264672815799713134765625" lon="13.009345717728137969970703125">
        <ele>511.600006103515625</ele>
        <time>2021-06-04T07:32:58.000Z</time>
        <extensions>
          <ns3:TrackPointExtension>
            <ns3:atemp>19.0</ns3:atemp>
          </ns3:TrackPointExtension>
        </extensions>
      </trkpt>
      <trkpt lat="43.1047110445797443389892578125" lon="13.00932518206536769866943359375">
        <ele>511.79998779296875</ele>
        <time>2021-06-04T07:32:59.000Z</time>
        <extensions>
          <ns3:TrackPointExtension>
            <ns3:atemp>19.0</ns3:atemp>
          </ns3:TrackPointExtension>
        </extensions>
      </trkpt>
      <trkpt lat="43.10467860661447048187255859375" lon="13.009285368025302886962890625">
        <ele>512.5999755859375</ele>
        <time>2021-06-04T07:33:01.000Z</time>
        <extensions>
          <ns3:TrackPointExtension>
            <ns3:atemp>19.0</ns3:atemp>
          </ns3:TrackPointExtension>
        </extensions>
      </trkpt>
      <trkpt lat="43.1046329252421855926513671875" lon="13.00923683680593967437744140625">
        <ele>513.5999755859375</ele>
        <time>2021-06-04T07:33:04.000Z</time>
        <extensions>
          <ns3:TrackPointExtension>
            <ns3:atemp>19.0</ns3:atemp>
          </ns3:TrackPointExtension>
        </extensions>
      </trkpt>
      <trkpt lat="43.10461767017841339111328125" lon="13.0092214979231357574462890625">
        <ele>514</ele>
        <time>2021-06-04T07:33:05.000Z</time>
        <extensions>
          <ns3:TrackPointExtension>
            <ns3:atemp>19.0</ns3:atemp>
          </ns3:TrackPointExtension>
        </extensions>
      </trkpt>
      <trkpt lat="43.1045816279947757720947265625" lon="13.00918285734951496124267578125">
        <ele>514.79998779296875</ele>
        <time>2021-06-04T07:33:07.000Z</time>
        <extensions>
          <ns3:TrackPointExtension>
            <ns3:atemp>19.0</ns3:atemp>
          </ns3:TrackPointExtension>
        </extensions>
      </trkpt>
      <trkpt lat="43.10449504293501377105712890625" lon="13.00911077298223972320556640625">
        <ele>516</ele>
        <time>2021-06-04T07:33:11.000Z</time>
        <extensions>
          <ns3:TrackPointExtension>
            <ns3:atemp>19.0</ns3:atemp>
          </ns3:TrackPointExtension>
        </extensions>
      </trkpt>
      <trkpt lat="43.104402758181095123291015625" lon="13.00903868861496448516845703125">
        <ele>517.20001220703125</ele>
        <time>2021-06-04T07:33:15.000Z</time>
        <extensions>
          <ns3:TrackPointExtension>
            <ns3:atemp>19.0</ns3:atemp>
          </ns3:TrackPointExtension>
        </extensions>
      </trkpt>
      <trkpt lat="43.10430393554270267486572265625" lon="13.008959479629993438720703125">
        <ele>518.20001220703125</ele>
        <time>2021-06-04T07:33:19.000Z</time>
        <extensions>
          <ns3:TrackPointExtension>
            <ns3:atemp>19.0</ns3:atemp>
          </ns3:TrackPointExtension>
        </extensions>
      </trkpt>
      <trkpt lat="43.10427593998610973358154296875" lon="13.00893927924335002899169921875">
        <ele>518.4000244140625</ele>
        <time>2021-06-04T07:33:20.000Z</time>
        <extensions>
          <ns3:TrackPointExtension>
            <ns3:atemp>19.0</ns3:atemp>
          </ns3:TrackPointExtension>
        </extensions>
      </trkpt>
      <trkpt lat="43.104127831757068634033203125" lon="13.00883718766272068023681640625">
        <ele>519.5999755859375</ele>
        <time>2021-06-04T07:33:26.000Z</time>
        <extensions>
          <ns3:TrackPointExtension>
            <ns3:atemp>19.0</ns3:atemp>
          </ns3:TrackPointExtension>
        </extensions>
      </trkpt>
      <trkpt lat="43.10410276986658573150634765625" lon="13.00882260315120220184326171875">
        <ele>520</ele>
        <time>2021-06-04T07:33:27.000Z</time>
        <extensions>
          <ns3:TrackPointExtension>
            <ns3:atemp>19.0</ns3:atemp>
          </ns3:TrackPointExtension>
        </extensions>
      </trkpt>
      <trkpt lat="43.1040347926318645477294921875" lon="13.00878035835921764373779296875">
        <ele>520.79998779296875</ele>
        <time>2021-06-04T07:33:30.000Z</time>
        <extensions>
          <ns3:TrackPointExtension>
            <ns3:atemp>19.0</ns3:atemp>
          </ns3:TrackPointExtension>
        </extensions>
      </trkpt>
      <trkpt lat="43.10395390726625919342041015625" lon="13.008716404438018798828125">
        <ele>521.79998779296875</ele>
        <time>2021-06-04T07:33:34.000Z</time>
        <extensions>
          <ns3:TrackPointExtension>
            <ns3:atemp>19.0</ns3:atemp>
          </ns3:TrackPointExtension>
        </extensions>
      </trkpt>
      <trkpt lat="43.10393370687961578369140625" lon="13.0087011493742465972900390625">
        <ele>522.20001220703125</ele>
        <time>2021-06-04T07:33:35.000Z</time>
        <extensions>
          <ns3:TrackPointExtension>
            <ns3:atemp>19.0</ns3:atemp>
          </ns3:TrackPointExtension>
        </extensions>
      </trkpt>
      <trkpt lat="43.10385131277143955230712890625" lon="13.00864691846072673797607421875">
        <ele>523</ele>
        <time>2021-06-04T07:33:39.000Z</time>
        <extensions>
          <ns3:TrackPointExtension>
            <ns3:atemp>19.0</ns3:atemp>
          </ns3:TrackPointExtension>
        </extensions>
      </trkpt>
      <trkpt lat="43.10381208546459674835205078125" lon="13.00861573778092861175537109375">
        <ele>523.79998779296875</ele>
        <time>2021-06-04T07:33:41.000Z</time>
        <extensions>
          <ns3:TrackPointExtension>
            <ns3:atemp>19.0</ns3:atemp>
          </ns3:TrackPointExtension>
        </extensions>
      </trkpt>
      <trkpt lat="43.1037927232682704925537109375" lon="13.00860048271715641021728515625">
        <ele>524.20001220703125</ele>
        <time>2021-06-04T07:33:42.000Z</time>
        <extensions>
          <ns3:TrackPointExtension>
            <ns3:atemp>19.0</ns3:atemp>
          </ns3:TrackPointExtension>
        </extensions>
      </trkpt>
      <trkpt lat="43.10370303690433502197265625" lon="13.008545078337192535400390625">
        <ele>525.5999755859375</ele>
        <time>2021-06-04T07:33:46.000Z</time>
        <extensions>
          <ns3:TrackPointExtension>
            <ns3:atemp>19.0</ns3:atemp>
          </ns3:TrackPointExtension>
        </extensions>
      </trkpt>
      <trkpt lat="43.10365743935108184814453125" lon="13.00851180218160152435302734375">
        <ele>526</ele>
        <time>2021-06-04T07:33:48.000Z</time>
        <extensions>
          <ns3:TrackPointExtension>
            <ns3:atemp>19.0</ns3:atemp>
          </ns3:TrackPointExtension>
        </extensions>
      </trkpt>
      <trkpt lat="43.10360304079949855804443359375" lon="13.0084567330777645111083984375">
        <ele>526.79998779296875</ele>
        <time>2021-06-04T07:33:51.000Z</time>
        <extensions>
          <ns3:TrackPointExtension>
            <ns3:atemp>19.0</ns3:atemp>
          </ns3:TrackPointExtension>
        </extensions>
      </trkpt>
      <trkpt lat="43.1035409308969974517822265625" lon="13.0083866603672504425048828125">
        <ele>527.79998779296875</ele>
        <time>2021-06-04T07:33:54.000Z</time>
        <extensions>
          <ns3:TrackPointExtension>
            <ns3:atemp>19.0</ns3:atemp>
          </ns3:TrackPointExtension>
        </extensions>
      </trkpt>
      <trkpt lat="43.1035218201577663421630859375" lon="13.00836444832384586334228515625">
        <ele>528.20001220703125</ele>
        <time>2021-06-04T07:33:55.000Z</time>
        <extensions>
          <ns3:TrackPointExtension>
            <ns3:atemp>19.0</ns3:atemp>
          </ns3:TrackPointExtension>
        </extensions>
      </trkpt>
      <trkpt lat="43.1034691818058490753173828125" lon="13.00829906947910785675048828125">
        <ele>529.5999755859375</ele>
        <time>2021-06-04T07:33:58.000Z</time>
        <extensions>
          <ns3:TrackPointExtension>
            <ns3:atemp>19.0</ns3:atemp>
          </ns3:TrackPointExtension>
        </extensions>
      </trkpt>
      <trkpt lat="43.103440515697002410888671875" lon="13.00826520659029483795166015625">
        <ele>530.4000244140625</ele>
        <time>2021-06-04T07:34:00.000Z</time>
        <extensions>
          <ns3:TrackPointExtension>
            <ns3:atemp>19.0</ns3:atemp>
          </ns3:TrackPointExtension>
        </extensions>
      </trkpt>
      <trkpt lat="43.10342433862388134002685546875" lon="13.00824844278395175933837890625">
        <ele>530.79998779296875</ele>
        <time>2021-06-04T07:34:01.000Z</time>
        <extensions>
          <ns3:TrackPointExtension>
            <ns3:atemp>19.0</ns3:atemp>
          </ns3:TrackPointExtension>
        </extensions>
      </trkpt>
      <trkpt lat="43.1033558584749698638916015625" lon="13.0081747658550739288330078125">
        <ele>532</ele>
        <time>2021-06-04T07:34:05.000Z</time>
        <extensions>
          <ns3:TrackPointExtension>
            <ns3:atemp>19.0</ns3:atemp>
          </ns3:TrackPointExtension>
        </extensions>
      </trkpt>
      <trkpt lat="43.10330917127430438995361328125" lon="13.0081238038837909698486328125">
        <ele>532.79998779296875</ele>
        <time>2021-06-04T07:34:08.000Z</time>
        <extensions>
          <ns3:TrackPointExtension>
            <ns3:atemp>19.0</ns3:atemp>
          </ns3:TrackPointExtension>
        </extensions>
      </trkpt>
      <trkpt lat="43.103294335305690765380859375" lon="13.00810846500098705291748046875">
        <ele>533.20001220703125</ele>
        <time>2021-06-04T07:34:09.000Z</time>
        <extensions>
          <ns3:TrackPointExtension>
            <ns3:atemp>19.0</ns3:atemp>
          </ns3:TrackPointExtension>
        </extensions>
      </trkpt>
      <trkpt lat="43.10323222540318965911865234375" lon="13.00803218968212604522705078125">
        <ele>534.5999755859375</ele>
        <time>2021-06-04T07:34:13.000Z</time>
        <extensions>
          <ns3:TrackPointExtension>
            <ns3:atemp>19.0</ns3:atemp>
          </ns3:TrackPointExtension>
        </extensions>
      </trkpt>
      <trkpt lat="43.10321755707263946533203125" lon="13.0080161802470684051513671875">
        <ele>535</ele>
        <time>2021-06-04T07:34:14.000Z</time>
        <extensions>
          <ns3:TrackPointExtension>
            <ns3:atemp>19.0</ns3:atemp>
          </ns3:TrackPointExtension>
        </extensions>
      </trkpt>
      <trkpt lat="43.10320339165627956390380859375" lon="13.00800050608813762664794921875">
        <ele>535.4000244140625</ele>
        <time>2021-06-04T07:34:15.000Z</time>
        <extensions>
          <ns3:TrackPointExtension>
            <ns3:atemp>19.0</ns3:atemp>
          </ns3:TrackPointExtension>
        </extensions>
      </trkpt>
      <trkpt lat="43.10315494425594806671142578125" lon="13.0079494602978229522705078125">
        <ele>536.4000244140625</ele>
        <time>2021-06-04T07:34:18.000Z</time>
        <extensions>
          <ns3:TrackPointExtension>
            <ns3:atemp>19.0</ns3:atemp>
          </ns3:TrackPointExtension>
        </extensions>
      </trkpt>
      <trkpt lat="43.1030948460102081298828125" lon="13.00789992325007915496826171875">
        <ele>537.79998779296875</ele>
        <time>2021-06-04T07:34:21.000Z</time>
        <extensions>
          <ns3:TrackPointExtension>
            <ns3:atemp>19.0</ns3:atemp>
          </ns3:TrackPointExtension>
        </extensions>
      </trkpt>
      <trkpt lat="43.1030567921698093414306640625" lon="13.007869832217693328857421875">
        <ele>538.5999755859375</ele>
        <time>2021-06-04T07:34:23.000Z</time>
        <extensions>
          <ns3:TrackPointExtension>
            <ns3:atemp>19.0</ns3:atemp>
          </ns3:TrackPointExtension>
        </extensions>
      </trkpt>
      <trkpt lat="43.103037178516387939453125" lon="13.0078539066016674041748046875">
        <ele>539</ele>
        <time>2021-06-04T07:34:24.000Z</time>
        <extensions>
          <ns3:TrackPointExtension>
            <ns3:atemp>19.0</ns3:atemp>
          </ns3:TrackPointExtension>
        </extensions>
      </trkpt>
      <trkpt lat="43.10298479162156581878662109375" lon="13.00779573619365692138671875">
        <ele>540.20001220703125</ele>
        <time>2021-06-04T07:34:27.000Z</time>
        <extensions>
          <ns3:TrackPointExtension>
            <ns3:atemp>19.0</ns3:atemp>
          </ns3:TrackPointExtension>
        </extensions>
      </trkpt>
      <trkpt lat="43.10293718241155147552490234375" lon="13.0077244900166988372802734375">
        <ele>541.5999755859375</ele>
        <time>2021-06-04T07:34:30.000Z</time>
        <extensions>
          <ns3:TrackPointExtension>
            <ns3:atemp>19.0</ns3:atemp>
          </ns3:TrackPointExtension>
        </extensions>
      </trkpt>
      <trkpt lat="43.10289510525763034820556640625" lon="13.00766254775226116180419921875">
        <ele>543</ele>
        <time>2021-06-04T07:34:33.000Z</time>
        <extensions>
          <ns3:TrackPointExtension>
            <ns3:atemp>19.0</ns3:atemp>
          </ns3:TrackPointExtension>
        </extensions>
      </trkpt>
      <trkpt lat="43.1028536148369312286376953125" lon="13.00760236568748950958251953125">
        <ele>544.20001220703125</ele>
        <time>2021-06-04T07:34:36.000Z</time>
        <extensions>
          <ns3:TrackPointExtension>
            <ns3:atemp>19.0</ns3:atemp>
          </ns3:TrackPointExtension>
        </extensions>
      </trkpt>
      <trkpt lat="43.1028388626873493194580078125" lon="13.0075819976627826690673828125">
        <ele>544.5999755859375</ele>
        <time>2021-06-04T07:34:37.000Z</time>
        <extensions>
          <ns3:TrackPointExtension>
            <ns3:atemp>19.0</ns3:atemp>
          </ns3:TrackPointExtension>
        </extensions>
      </trkpt>
      <trkpt lat="43.10280860401690006256103515625" lon="13.007541932165622711181640625">
        <ele>545.5999755859375</ele>
        <time>2021-06-04T07:34:39.000Z</time>
        <extensions>
          <ns3:TrackPointExtension>
            <ns3:atemp>19.0</ns3:atemp>
          </ns3:TrackPointExtension>
        </extensions>
      </trkpt>
      <trkpt lat="43.10277742333710193634033203125" lon="13.00750295631587505340576171875">
        <ele>546.5999755859375</ele>
        <time>2021-06-04T07:34:41.000Z</time>
        <extensions>
          <ns3:TrackPointExtension>
            <ns3:atemp>19.0</ns3:atemp>
          </ns3:TrackPointExtension>
        </extensions>
      </trkpt>
      <trkpt lat="43.10274288989603519439697265625" lon="13.00747294910252094268798828125">
        <ele>547.79998779296875</ele>
        <time>2021-06-04T07:34:43.000Z</time>
        <extensions>
          <ns3:TrackPointExtension>
            <ns3:atemp>19.0</ns3:atemp>
          </ns3:TrackPointExtension>
        </extensions>
      </trkpt>
      <trkpt lat="43.10269561596214771270751953125" lon="13.00745786167681217193603515625">
        <ele>549.4000244140625</ele>
        <time>2021-06-04T07:34:45.000Z</time>
        <extensions>
          <ns3:TrackPointExtension>
            <ns3:atemp>19.0</ns3:atemp>
          </ns3:TrackPointExtension>
        </extensions>
      </trkpt>
      <trkpt lat="43.1026507727801799774169921875" lon="13.00744461826980113983154296875">
        <ele>550.5999755859375</ele>
        <time>2021-06-04T07:34:47.000Z</time>
        <extensions>
          <ns3:TrackPointExtension>
            <ns3:atemp>19.0</ns3:atemp>
          </ns3:TrackPointExtension>
        </extensions>
      </trkpt>
      <trkpt lat="43.10260458849370479583740234375" lon="13.00744310952723026275634765625">
        <ele>551.5999755859375</ele>
        <time>2021-06-04T07:34:49.000Z</time>
        <extensions>
          <ns3:TrackPointExtension>
            <ns3:atemp>19.0</ns3:atemp>
          </ns3:TrackPointExtension>
        </extensions>
      </trkpt>
      <trkpt lat="43.10258346609771251678466796875" lon="13.00744964741170406341552734375">
        <ele>552.20001220703125</ele>
        <time>2021-06-04T07:34:50.000Z</time>
        <extensions>
          <ns3:TrackPointExtension>
            <ns3:atemp>19.0</ns3:atemp>
          </ns3:TrackPointExtension>
        </extensions>
      </trkpt>
      <trkpt lat="43.10256334953010082244873046875" lon="13.00745417363941669464111328125">
        <ele>552.79998779296875</ele>
        <time>2021-06-04T07:34:51.000Z</time>
        <extensions>
          <ns3:TrackPointExtension>
            <ns3:atemp>19.0</ns3:atemp>
          </ns3:TrackPointExtension>
        </extensions>
      </trkpt>
      <trkpt lat="43.10252982191741466522216796875" lon="13.00743455998599529266357421875">
        <ele>553.79998779296875</ele>
        <time>2021-06-04T07:34:53.000Z</time>
        <extensions>
          <ns3:TrackPointExtension>
            <ns3:atemp>19.0</ns3:atemp>
          </ns3:TrackPointExtension>
        </extensions>
      </trkpt>
      <trkpt lat="43.1025206856429576873779296875" lon="13.0074141919612884521484375">
        <ele>554.4000244140625</ele>
        <time>2021-06-04T07:34:54.000Z</time>
        <extensions>
          <ns3:TrackPointExtension>
            <ns3:atemp>19.0</ns3:atemp>
          </ns3:TrackPointExtension>
        </extensions>
      </trkpt>
      <trkpt lat="43.102521859109401702880859375" lon="13.0073940753936767578125">
        <ele>554.79998779296875</ele>
        <time>2021-06-04T07:34:55.000Z</time>
        <extensions>
          <ns3:TrackPointExtension>
            <ns3:atemp>19.0</ns3:atemp>
          </ns3:TrackPointExtension>
        </extensions>
      </trkpt>
      <trkpt lat="43.10254029929637908935546875" lon="13.00735258497297763824462890625">
        <ele>556</ele>
        <time>2021-06-04T07:34:57.000Z</time>
        <extensions>
          <ns3:TrackPointExtension>
            <ns3:atemp>19.0</ns3:atemp>
          </ns3:TrackPointExtension>
        </extensions>
      </trkpt>
      <trkpt lat="43.10255429707467555999755859375" lon="13.007336743175983428955078125">
        <ele>556.4000244140625</ele>
        <time>2021-06-04T07:34:58.000Z</time>
        <extensions>
          <ns3:TrackPointExtension>
            <ns3:atemp>19.0</ns3:atemp>
          </ns3:TrackPointExtension>
        </extensions>
      </trkpt>
      <trkpt lat="43.10257650911808013916015625" lon="13.00732056610286235809326171875">
        <ele>557</ele>
        <time>2021-06-04T07:35:00.000Z</time>
        <extensions>
          <ns3:TrackPointExtension>
            <ns3:atemp>19.0</ns3:atemp>
          </ns3:TrackPointExtension>
        </extensions>
      </trkpt>
      <trkpt lat="43.10261514969170093536376953125" lon="13.0072866193950176239013671875">
        <ele>558</ele>
        <time>2021-06-04T07:35:03.000Z</time>
        <extensions>
          <ns3:TrackPointExtension>
            <ns3:atemp>19.0</ns3:atemp>
          </ns3:TrackPointExtension>
        </extensions>
      </trkpt>
      <trkpt lat="43.102627806365489959716796875" lon="13.0072752200067043304443359375">
        <ele>558.20001220703125</ele>
        <time>2021-06-04T07:35:04.000Z</time>
        <extensions>
          <ns3:TrackPointExtension>
            <ns3:atemp>19.0</ns3:atemp>
          </ns3:TrackPointExtension>
        </extensions>
      </trkpt>
      <trkpt lat="43.10269159264862537384033203125" lon="13.00722266547381877899169921875">
        <ele>559.4000244140625</ele>
        <time>2021-06-04T07:35:08.000Z</time>
        <extensions>
          <ns3:TrackPointExtension>
            <ns3:atemp>19.0</ns3:atemp>
          </ns3:TrackPointExtension>
        </extensions>
      </trkpt>
      <trkpt lat="43.10273702256381511688232421875" lon="13.00718427635729312896728515625">
        <ele>560</ele>
        <time>2021-06-04T07:35:10.000Z</time>
        <extensions>
          <ns3:TrackPointExtension>
            <ns3:atemp>19.0</ns3:atemp>
          </ns3:TrackPointExtension>
        </extensions>
      </trkpt>
      <trkpt lat="43.1027637608349323272705078125" lon="13.00715493969619274139404296875">
        <ele>560.4000244140625</ele>
        <time>2021-06-04T07:35:11.000Z</time>
        <extensions>
          <ns3:TrackPointExtension>
            <ns3:atemp>19.0</ns3:atemp>
          </ns3:TrackPointExtension>
        </extensions>
      </trkpt>
      <trkpt lat="43.102790080010890960693359375" lon="13.0071137845516204833984375">
        <ele>560.5999755859375</ele>
        <time>2021-06-04T07:35:12.000Z</time>
        <extensions>
          <ns3:TrackPointExtension>
            <ns3:atemp>19.0</ns3:atemp>
          </ns3:TrackPointExtension>
        </extensions>
      </trkpt>
      <trkpt lat="43.10285923071205615997314453125" lon="13.00697120837867259979248046875">
        <ele>560.79998779296875</ele>
        <time>2021-06-04T07:35:14.000Z</time>
        <extensions>
          <ns3:TrackPointExtension>
            <ns3:atemp>20.0</ns3:atemp>
          </ns3:TrackPointExtension>
        </extensions>
      </trkpt>
      <trkpt lat="43.10304346494376659393310546875" lon="13.00652839243412017822265625">
        <ele>560.79998779296875</ele>
        <time>2021-06-04T07:35:19.000Z</time>
        <extensions>
          <ns3:TrackPointExtension>
            <ns3:atemp>20.0</ns3:atemp>
          </ns3:TrackPointExtension>
        </extensions>
      </trkpt>
      <trkpt lat="43.10312460176646709442138671875" lon="13.00630769692361354827880859375">
        <ele>559</ele>
        <time>2021-06-04T07:35:22.000Z</time>
        <extensions>
          <ns3:TrackPointExtension>
            <ns3:atemp>20.0</ns3:atemp>
          </ns3:TrackPointExtension>
        </extensions>
      </trkpt>
      <trkpt lat="43.10314840637147426605224609375" lon="13.00625304691493511199951171875">
        <ele>558.5999755859375</ele>
        <time>2021-06-04T07:35:23.000Z</time>
        <extensions>
          <ns3:TrackPointExtension>
            <ns3:atemp>20.0</ns3:atemp>
          </ns3:TrackPointExtension>
        </extensions>
      </trkpt>
      <trkpt lat="43.10320221818983554840087890625" lon="13.0061285756528377532958984375">
        <ele>558.4000244140625</ele>
        <time>2021-06-04T07:35:26.000Z</time>
        <extensions>
          <ns3:TrackPointExtension>
            <ns3:atemp>20.0</ns3:atemp>
          </ns3:TrackPointExtension>
        </extensions>
      </trkpt>
      <trkpt lat="43.1032210774719715118408203125" lon="13.006087504327297210693359375">
        <ele>558.4000244140625</ele>
        <time>2021-06-04T07:35:27.000Z</time>
        <extensions>
          <ns3:TrackPointExtension>
            <ns3:atemp>20.0</ns3:atemp>
          </ns3:TrackPointExtension>
        </extensions>
      </trkpt>
      <trkpt lat="43.1032489053905010223388671875" lon="13.005878962576389312744140625">
        <ele>558.5999755859375</ele>
        <time>2021-06-04T07:35:32.000Z</time>
        <extensions>
          <ns3:TrackPointExtension>
            <ns3:atemp>20.0</ns3:atemp>
          </ns3:TrackPointExtension>
        </extensions>
      </trkpt>
      <trkpt lat="43.1031526811420917510986328125" lon="13.00580997951328754425048828125">
        <ele>560.4000244140625</ele>
        <time>2021-06-04T07:35:36.000Z</time>
        <extensions>
          <ns3:TrackPointExtension>
            <ns3:atemp>20.0</ns3:atemp>
          </ns3:TrackPointExtension>
        </extensions>
      </trkpt>
      <trkpt lat="43.10312292538583278656005859375" lon="13.0058067105710506439208984375">
        <ele>561</ele>
        <time>2021-06-04T07:35:37.000Z</time>
        <extensions>
          <ns3:TrackPointExtension>
            <ns3:atemp>20.0</ns3:atemp>
          </ns3:TrackPointExtension>
        </extensions>
      </trkpt>
      <trkpt lat="43.10309308581054210662841796875" lon="13.0058023519814014434814453125">
        <ele>561.5999755859375</ele>
        <time>2021-06-04T07:35:38.000Z</time>
        <extensions>
          <ns3:TrackPointExtension>
            <ns3:atemp>20.0</ns3:atemp>
          </ns3:TrackPointExtension>
        </extensions>
      </trkpt>
      <trkpt lat="43.1030349992215633392333984375" lon="13.00579740665853023529052734375">
        <ele>562.79998779296875</ele>
        <time>2021-06-04T07:35:40.000Z</time>
        <extensions>
          <ns3:TrackPointExtension>
            <ns3:atemp>20.0</ns3:atemp>
          </ns3:TrackPointExtension>
        </extensions>
      </trkpt>
      <trkpt lat="43.1029769964516162872314453125" lon="13.0057872645556926727294921875">
        <ele>564</ele>
        <time>2021-06-04T07:35:42.000Z</time>
        <extensions>
          <ns3:TrackPointExtension>
            <ns3:atemp>20.0</ns3:atemp>
          </ns3:TrackPointExtension>
        </extensions>
      </trkpt>
      <trkpt lat="43.1029025651514530181884765625" lon="13.0057648010551929473876953125">
        <ele>564.79998779296875</ele>
        <time>2021-06-04T07:35:45.000Z</time>
        <extensions>
          <ns3:TrackPointExtension>
            <ns3:atemp>20.0</ns3:atemp>
          </ns3:TrackPointExtension>
        </extensions>
      </trkpt>
      <trkpt lat="43.1028760783374309539794921875" lon="13.005754910409450531005859375">
        <ele>565.20001220703125</ele>
        <time>2021-06-04T07:35:46.000Z</time>
        <extensions>
          <ns3:TrackPointExtension>
            <ns3:atemp>20.0</ns3:atemp>
          </ns3:TrackPointExtension>
        </extensions>
      </trkpt>
      <trkpt lat="43.10277557931840419769287109375" lon="13.0057081393897533416748046875">
        <ele>566.4000244140625</ele>
        <time>2021-06-04T07:35:50.000Z</time>
        <extensions>
          <ns3:TrackPointExtension>
            <ns3:atemp>20.0</ns3:atemp>
          </ns3:TrackPointExtension>
        </extensions>
      </trkpt>
      <trkpt lat="43.10267575085163116455078125" lon="13.0056461133062839508056640625">
        <ele>567.5999755859375</ele>
        <time>2021-06-04T07:35:54.000Z</time>
        <extensions>
          <ns3:TrackPointExtension>
            <ns3:atemp>20.0</ns3:atemp>
          </ns3:TrackPointExtension>
        </extensions>
      </trkpt>
      <trkpt lat="43.10259520076215267181396484375" lon="13.0056213028728961944580078125">
        <ele>568.79998779296875</ele>
        <time>2021-06-04T07:35:57.000Z</time>
        <extensions>
          <ns3:TrackPointExtension>
            <ns3:atemp>20.0</ns3:atemp>
          </ns3:TrackPointExtension>
        </extensions>
      </trkpt>
      <trkpt lat="43.10252043418586254119873046875" lon="13.00561937503516674041748046875">
        <ele>570.20001220703125</ele>
        <time>2021-06-04T07:36:00.000Z</time>
        <extensions>
          <ns3:TrackPointExtension>
            <ns3:atemp>20.0</ns3:atemp>
          </ns3:TrackPointExtension>
        </extensions>
      </trkpt>
      <trkpt lat="43.10245715081691741943359375" lon="13.00565642304718494415283203125">
        <ele>571.4000244140625</ele>
        <time>2021-06-04T07:36:03.000Z</time>
        <extensions>
          <ns3:TrackPointExtension>
            <ns3:atemp>20.0</ns3:atemp>
          </ns3:TrackPointExtension>
        </extensions>
      </trkpt>
      <trkpt lat="43.10241482220590114593505859375" lon="13.0056950636208057403564453125">
        <ele>572.20001220703125</ele>
        <time>2021-06-04T07:36:05.000Z</time>
        <extensions>
          <ns3:TrackPointExtension>
            <ns3:atemp>20.0</ns3:atemp>
          </ns3:TrackPointExtension>
        </extensions>
      </trkpt>
      <trkpt lat="43.10239487327635288238525390625" lon="13.00571643747389316558837890625">
        <ele>572.5999755859375</ele>
        <time>2021-06-04T07:36:06.000Z</time>
        <extensions>
          <ns3:TrackPointExtension>
            <ns3:atemp>20.0</ns3:atemp>
          </ns3:TrackPointExtension>
        </extensions>
      </trkpt>
      <trkpt lat="43.1023411452770233154296875" lon="13.00578265450894832611083984375">
        <ele>573.5999755859375</ele>
        <time>2021-06-04T07:36:09.000Z</time>
        <extensions>
          <ns3:TrackPointExtension>
            <ns3:atemp>20.0</ns3:atemp>
          </ns3:TrackPointExtension>
        </extensions>
      </trkpt>
      <trkpt lat="43.102291859686374664306640625" lon="13.00583579577505588531494140625">
        <ele>574.79998779296875</ele>
        <time>2021-06-04T07:36:11.000Z</time>
        <extensions>
          <ns3:TrackPointExtension>
            <ns3:atemp>20.0</ns3:atemp>
          </ns3:TrackPointExtension>
        </extensions>
      </trkpt>
      <trkpt lat="43.1022668816149234771728515625" lon="13.005868904292583465576171875">
        <ele>575.20001220703125</ele>
        <time>2021-06-04T07:36:12.000Z</time>
        <extensions>
          <ns3:TrackPointExtension>
            <ns3:atemp>20.0</ns3:atemp>
          </ns3:TrackPointExtension>
        </extensions>
      </trkpt>
      <trkpt lat="43.10222455300390720367431640625" lon="13.00591927953064441680908203125">
        <ele>576</ele>
        <time>2021-06-04T07:36:14.000Z</time>
        <extensions>
          <ns3:TrackPointExtension>
            <ns3:atemp>20.0</ns3:atemp>
          </ns3:TrackPointExtension>
        </extensions>
      </trkpt>
      <trkpt lat="43.10218096710741519927978515625" lon="13.00602237693965435028076171875">
        <ele>576.79998779296875</ele>
        <time>2021-06-04T07:36:18.000Z</time>
        <extensions>
          <ns3:TrackPointExtension>
            <ns3:atemp>20.0</ns3:atemp>
          </ns3:TrackPointExtension>
        </extensions>
      </trkpt>
      <trkpt lat="43.10213486663997173309326171875" lon="13.00612564198672771453857421875">
        <ele>578</ele>
        <time>2021-06-04T07:36:22.000Z</time>
        <extensions>
          <ns3:TrackPointExtension>
            <ns3:atemp>20.0</ns3:atemp>
          </ns3:TrackPointExtension>
        </extensions>
      </trkpt>
      <trkpt lat="43.10210200957953929901123046875" lon="13.00621599890291690826416015625">
        <ele>579.20001220703125</ele>
        <time>2021-06-04T07:36:25.000Z</time>
        <extensions>
          <ns3:TrackPointExtension>
            <ns3:atemp>20.0</ns3:atemp>
          </ns3:TrackPointExtension>
        </extensions>
      </trkpt>
      <trkpt lat="43.10205859132111072540283203125" lon="13.00629830919206142425537109375">
        <ele>580.4000244140625</ele>
        <time>2021-06-04T07:36:28.000Z</time>
        <extensions>
          <ns3:TrackPointExtension>
            <ns3:atemp>20.0</ns3:atemp>
          </ns3:TrackPointExtension>
        </extensions>
      </trkpt>
      <trkpt lat="43.10201550833880901336669921875" lon="13.0063149891793727874755859375">
        <ele>580.79998779296875</ele>
        <time>2021-06-04T07:36:30.000Z</time>
        <extensions>
          <ns3:TrackPointExtension>
            <ns3:atemp>20.0</ns3:atemp>
          </ns3:TrackPointExtension>
        </extensions>
      </trkpt>
      <trkpt lat="43.10188709758222103118896484375" lon="13.0062968842685222625732421875">
        <ele>581.79998779296875</ele>
        <time>2021-06-04T07:36:36.000Z</time>
        <extensions>
          <ns3:TrackPointExtension>
            <ns3:atemp>21.0</ns3:atemp>
          </ns3:TrackPointExtension>
        </extensions>
      </trkpt>
      <trkpt lat="43.10186865739524364471435546875" lon="13.00628456287086009979248046875">
        <ele>582.20001220703125</ele>
        <time>2021-06-04T07:36:37.000Z</time>
        <extensions>
          <ns3:TrackPointExtension>
            <ns3:atemp>21.0</ns3:atemp>
          </ns3:TrackPointExtension>
        </extensions>
      </trkpt>
      <trkpt lat="43.101830519735813140869140625" lon="13.00626411102712154388427734375">
        <ele>583.20001220703125</ele>
        <time>2021-06-04T07:36:39.000Z</time>
        <extensions>
          <ns3:TrackPointExtension>
            <ns3:atemp>21.0</ns3:atemp>
          </ns3:TrackPointExtension>
        </extensions>
      </trkpt>
      <trkpt lat="43.10180009342730045318603515625" lon="13.00623544491827487945556640625">
        <ele>584.5999755859375</ele>
        <time>2021-06-04T07:36:41.000Z</time>
        <extensions>
          <ns3:TrackPointExtension>
            <ns3:atemp>21.0</ns3:atemp>
          </ns3:TrackPointExtension>
        </extensions>
      </trkpt>
      <trkpt lat="43.1017643027007579803466796875" lon="13.00620962865650653839111328125">
        <ele>585.4000244140625</ele>
        <time>2021-06-04T07:36:43.000Z</time>
        <extensions>
          <ns3:TrackPointExtension>
            <ns3:atemp>21.0</ns3:atemp>
          </ns3:TrackPointExtension>
        </extensions>
      </trkpt>
      <trkpt lat="43.10174762271344661712646484375" lon="13.00619789399206638336181640625">
        <ele>585.79998779296875</ele>
        <time>2021-06-04T07:36:44.000Z</time>
        <extensions>
          <ns3:TrackPointExtension>
            <ns3:atemp>21.0</ns3:atemp>
          </ns3:TrackPointExtension>
        </extensions>
      </trkpt>
      <trkpt lat="43.1016918830573558807373046875" lon="13.00616017542779445648193359375">
        <ele>587.20001220703125</ele>
        <time>2021-06-04T07:36:47.000Z</time>
        <extensions>
          <ns3:TrackPointExtension>
            <ns3:atemp>21.0</ns3:atemp>
          </ns3:TrackPointExtension>
        </extensions>
      </trkpt>
      <trkpt lat="43.10166061855852603912353515625" lon="13.00614709965884685516357421875">
        <ele>588.20001220703125</ele>
        <time>2021-06-04T07:36:49.000Z</time>
        <extensions>
          <ns3:TrackPointExtension>
            <ns3:atemp>21.0</ns3:atemp>
          </ns3:TrackPointExtension>
        </extensions>
      </trkpt>
      <trkpt lat="43.10164368711411952972412109375" lon="13.00614994950592517852783203125">
        <ele>588.4000244140625</ele>
        <time>2021-06-04T07:36:50.000Z</time>
        <extensions>
          <ns3:TrackPointExtension>
            <ns3:atemp>21.0</ns3:atemp>
          </ns3:TrackPointExtension>
        </extensions>
      </trkpt>
      <trkpt lat="43.10157964937388896942138671875" lon="13.006186746060848236083984375">
        <ele>589.4000244140625</ele>
        <time>2021-06-04T07:36:53.000Z</time>
        <extensions>
          <ns3:TrackPointExtension>
            <ns3:atemp>21.0</ns3:atemp>
          </ns3:TrackPointExtension>
        </extensions>
      </trkpt>
      <trkpt lat="43.1014970876276493072509765625" lon="13.00619521178305149078369140625">
        <ele>590.5999755859375</ele>
        <time>2021-06-04T07:36:56.000Z</time>
        <extensions>
          <ns3:TrackPointExtension>
            <ns3:atemp>21.0</ns3:atemp>
          </ns3:TrackPointExtension>
        </extensions>
      </trkpt>
      <trkpt lat="43.10145593248307704925537109375" lon="13.0061758495867252349853515625">
        <ele>591.20001220703125</ele>
        <time>2021-06-04T07:36:58.000Z</time>
        <extensions>
          <ns3:TrackPointExtension>
            <ns3:atemp>21.0</ns3:atemp>
          </ns3:TrackPointExtension>
        </extensions>
      </trkpt>
      <trkpt lat="43.10141913592815399169921875" lon="13.00615464337170124053955078125">
        <ele>591.5999755859375</ele>
        <time>2021-06-04T07:37:00.000Z</time>
        <extensions>
          <ns3:TrackPointExtension>
            <ns3:atemp>21.0</ns3:atemp>
          </ns3:TrackPointExtension>
        </extensions>
      </trkpt>
      <trkpt lat="43.10135065577924251556396484375" lon="13.0061081238090991973876953125">
        <ele>592</ele>
        <time>2021-06-04T07:37:04.000Z</time>
        <extensions>
          <ns3:TrackPointExtension>
            <ns3:atemp>21.0</ns3:atemp>
          </ns3:TrackPointExtension>
        </extensions>
      </trkpt>
      <trkpt lat="43.10134260915219783782958984375" lon="13.006106279790401458740234375">
        <ele>592.4000244140625</ele>
        <time>2021-06-04T07:37:05.000Z</time>
        <extensions>
          <ns3:TrackPointExtension>
            <ns3:atemp>21.0</ns3:atemp>
          </ns3:TrackPointExtension>
        </extensions>
      </trkpt>
      <trkpt lat="43.1013408489525318145751953125" lon="13.00610602833330631256103515625">
        <ele>592.79998779296875</ele>
        <time>2021-06-04T07:37:06.000Z</time>
        <extensions>
          <ns3:TrackPointExtension>
            <ns3:atemp>21.0</ns3:atemp>
          </ns3:TrackPointExtension>
        </extensions>
      </trkpt>
      <trkpt lat="43.10133389197289943695068359375" lon="13.00611726008355617523193359375">
        <ele>594.4000244140625</ele>
        <time>2021-06-04T07:37:09.000Z</time>
        <extensions>
          <ns3:TrackPointExtension>
            <ns3:atemp>21.0</ns3:atemp>
          </ns3:TrackPointExtension>
        </extensions>
      </trkpt>
      <trkpt lat="43.1013284437358379364013671875" lon="13.00613167695701122283935546875">
        <ele>595.5999755859375</ele>
        <time>2021-06-04T07:37:12.000Z</time>
        <extensions>
          <ns3:TrackPointExtension>
            <ns3:atemp>21.0</ns3:atemp>
          </ns3:TrackPointExtension>
        </extensions>
      </trkpt>
      <trkpt lat="43.1013264320790767669677734375" lon="13.00613301806151866912841796875">
        <ele>595.79998779296875</ele>
        <time>2021-06-04T07:37:15.000Z</time>
        <extensions>
          <ns3:TrackPointExtension>
            <ns3:atemp>21.0</ns3:atemp>
          </ns3:TrackPointExtension>
        </extensions>
      </trkpt>
      <trkpt lat="43.1013244204223155975341796875" lon="13.0061356164515018463134765625">
        <ele>596.20001220703125</ele>
        <time>2021-06-04T07:37:24.000Z</time>
        <extensions>
          <ns3:TrackPointExtension>
            <ns3:atemp>21.0</ns3:atemp>
          </ns3:TrackPointExtension>
        </extensions>
      </trkpt>
      <trkpt lat="43.10132584534585475921630859375" lon="13.00613008439540863037109375">
        <ele>596</ele>
        <time>2021-06-04T07:37:44.000Z</time>
        <extensions>
          <ns3:TrackPointExtension>
            <ns3:atemp>21.0</ns3:atemp>
          </ns3:TrackPointExtension>
        </extensions>
      </trkpt>
      <trkpt lat="43.10132500715553760528564453125" lon="13.00612874329090118408203125">
        <ele>595.5999755859375</ele>
        <time>2021-06-04T07:38:09.000Z</time>
        <extensions>
          <ns3:TrackPointExtension>
            <ns3:atemp>22.0</ns3:atemp>
          </ns3:TrackPointExtension>
        </extensions>
      </trkpt>
      <trkpt lat="43.1013250909745693206787109375" lon="13.00612865947186946868896484375">
        <ele>595.5999755859375</ele>
        <time>2021-06-04T07:38:12.000Z</time>
        <extensions>
          <ns3:TrackPointExtension>
            <ns3:atemp>22.0</ns3:atemp>
          </ns3:TrackPointExtension>
        </extensions>
      </trkpt>
      <trkpt lat="43.101325929164886474609375" lon="13.00611223094165325164794921875">
        <ele>595.5999755859375</ele>
        <time>2021-06-04T07:38:18.000Z</time>
        <extensions>
          <ns3:TrackPointExtension>
            <ns3:atemp>22.0</ns3:atemp>
          </ns3:TrackPointExtension>
        </extensions>
      </trkpt>
      <trkpt lat="43.10129516758024692535400390625" lon="13.00611776299774646759033203125">
        <ele>595.5999755859375</ele>
        <time>2021-06-04T07:38:24.000Z</time>
        <extensions>
          <ns3:TrackPointExtension>
            <ns3:atemp>22.0</ns3:atemp>
          </ns3:TrackPointExtension>
        </extensions>
      </trkpt>
      <trkpt lat="43.10122199356555938720703125" lon="13.00612698309123516082763671875">
        <ele>595.5999755859375</ele>
        <time>2021-06-04T07:38:30.000Z</time>
        <extensions>
          <ns3:TrackPointExtension>
            <ns3:atemp>22.0</ns3:atemp>
          </ns3:TrackPointExtension>
        </extensions>
      </trkpt>
      <trkpt lat="43.10109618119895458221435546875" lon="13.0061956308782100677490234375">
        <ele>596.5999755859375</ele>
        <time>2021-06-04T07:38:37.000Z</time>
        <extensions>
          <ns3:TrackPointExtension>
            <ns3:atemp>22.0</ns3:atemp>
          </ns3:TrackPointExtension>
        </extensions>
      </trkpt>
      <trkpt lat="43.1010427884757518768310546875" lon="13.00621599890291690826416015625">
        <ele>597.5999755859375</ele>
        <time>2021-06-04T07:38:40.000Z</time>
        <extensions>
          <ns3:TrackPointExtension>
            <ns3:atemp>23.0</ns3:atemp>
          </ns3:TrackPointExtension>
        </extensions>
      </trkpt>
      <trkpt lat="43.10098570771515369415283203125" lon="13.00623594783246517181396484375">
        <ele>598.79998779296875</ele>
        <time>2021-06-04T07:38:43.000Z</time>
        <extensions>
          <ns3:TrackPointExtension>
            <ns3:atemp>23.0</ns3:atemp>
          </ns3:TrackPointExtension>
        </extensions>
      </trkpt>
      <trkpt lat="43.100931979715824127197265625" lon="13.00624902360141277313232421875">
        <ele>599.5999755859375</ele>
        <time>2021-06-04T07:38:46.000Z</time>
        <extensions>
          <ns3:TrackPointExtension>
            <ns3:atemp>23.0</ns3:atemp>
          </ns3:TrackPointExtension>
        </extensions>
      </trkpt>
      <trkpt lat="43.10091362334787845611572265625" lon="13.006251119077205657958984375">
        <ele>600</ele>
        <time>2021-06-04T07:38:47.000Z</time>
        <extensions>
          <ns3:TrackPointExtension>
            <ns3:atemp>23.0</ns3:atemp>
          </ns3:TrackPointExtension>
        </extensions>
      </trkpt>
      <trkpt lat="43.10084036551415920257568359375" lon="13.00626561976969242095947265625">
        <ele>601.20001220703125</ele>
        <time>2021-06-04T07:38:51.000Z</time>
        <extensions>
          <ns3:TrackPointExtension>
            <ns3:atemp>23.0</ns3:atemp>
          </ns3:TrackPointExtension>
        </extensions>
      </trkpt>
      <trkpt lat="43.10080700553953647613525390625" lon="13.00626679323613643646240234375">
        <ele>602</ele>
        <time>2021-06-04T07:38:53.000Z</time>
        <extensions>
          <ns3:TrackPointExtension>
            <ns3:atemp>23.0</ns3:atemp>
          </ns3:TrackPointExtension>
        </extensions>
      </trkpt>
      <trkpt lat="43.10079024173319339752197265625" lon="13.006264865398406982421875">
        <ele>602.4000244140625</ele>
        <time>2021-06-04T07:38:54.000Z</time>
        <extensions>
          <ns3:TrackPointExtension>
            <ns3:atemp>23.0</ns3:atemp>
          </ns3:TrackPointExtension>
        </extensions>
      </trkpt>
      <trkpt lat="43.10073223896324634552001953125" lon="13.00625354982912540435791015625">
        <ele>604</ele>
        <time>2021-06-04T07:38:57.000Z</time>
        <extensions>
          <ns3:TrackPointExtension>
            <ns3:atemp>23.0</ns3:atemp>
          </ns3:TrackPointExtension>
        </extensions>
      </trkpt>
      <trkpt lat="43.1006786786019802093505859375" lon="13.006238378584384918212890625">
        <ele>605.20001220703125</ele>
        <time>2021-06-04T07:39:00.000Z</time>
        <extensions>
          <ns3:TrackPointExtension>
            <ns3:atemp>23.0</ns3:atemp>
          </ns3:TrackPointExtension>
        </extensions>
      </trkpt>
      <trkpt lat="43.1006189994513988494873046875" lon="13.00622555427253246307373046875">
        <ele>606.20001220703125</ele>
        <time>2021-06-04T07:39:03.000Z</time>
        <extensions>
          <ns3:TrackPointExtension>
            <ns3:atemp>23.0</ns3:atemp>
          </ns3:TrackPointExtension>
        </extensions>
      </trkpt>
      <trkpt lat="43.1005552969872951507568359375" lon="13.00623334944248199462890625">
        <ele>607.79998779296875</ele>
        <time>2021-06-04T07:39:06.000Z</time>
        <extensions>
          <ns3:TrackPointExtension>
            <ns3:atemp>23.0</ns3:atemp>
          </ns3:TrackPointExtension>
        </extensions>
      </trkpt>
      <trkpt lat="43.10051816515624523162841796875" lon="13.006243072450160980224609375">
        <ele>609</ele>
        <time>2021-06-04T07:39:09.000Z</time>
        <extensions>
          <ns3:TrackPointExtension>
            <ns3:atemp>23.0</ns3:atemp>
          </ns3:TrackPointExtension>
        </extensions>
      </trkpt>
      <trkpt lat="43.1005145609378814697265625" lon="13.006249107420444488525390625">
        <ele>609.79998779296875</ele>
        <time>2021-06-04T07:39:11.000Z</time>
        <extensions>
          <ns3:TrackPointExtension>
            <ns3:atemp>23.0</ns3:atemp>
          </ns3:TrackPointExtension>
        </extensions>
      </trkpt>
      <trkpt lat="43.10051246546208858489990234375" lon="13.00624986179172992706298828125">
        <ele>610.20001220703125</ele>
        <time>2021-06-04T07:39:12.000Z</time>
        <extensions>
          <ns3:TrackPointExtension>
            <ns3:atemp>23.0</ns3:atemp>
          </ns3:TrackPointExtension>
        </extensions>
      </trkpt>
      <trkpt lat="43.10049913823604583740234375" lon="13.00623544491827487945556640625">
        <ele>611.4000244140625</ele>
        <time>2021-06-04T07:39:16.000Z</time>
        <extensions>
          <ns3:TrackPointExtension>
            <ns3:atemp>23.0</ns3:atemp>
          </ns3:TrackPointExtension>
        </extensions>
      </trkpt>
      <trkpt lat="43.1004996411502361297607421875" lon="13.0062321759760379791259765625">
        <ele>611.79998779296875</ele>
        <time>2021-06-04T07:39:25.000Z</time>
        <extensions>
          <ns3:TrackPointExtension>
            <ns3:atemp>23.0</ns3:atemp>
          </ns3:TrackPointExtension>
        </extensions>
      </trkpt>
      <trkpt lat="43.10045295394957065582275390625" lon="13.00624667666852474212646484375">
        <ele>612</ele>
        <time>2021-06-04T07:39:34.000Z</time>
        <extensions>
          <ns3:TrackPointExtension>
            <ns3:atemp>23.0</ns3:atemp>
          </ns3:TrackPointExtension>
        </extensions>
      </trkpt>
      <trkpt lat="43.10041339136660099029541015625" lon="13.0062486045062541961669921875">
        <ele>612</ele>
        <time>2021-06-04T07:39:36.000Z</time>
        <extensions>
          <ns3:TrackPointExtension>
            <ns3:atemp>23.0</ns3:atemp>
          </ns3:TrackPointExtension>
        </extensions>
      </trkpt>
      <trkpt lat="43.100368715822696685791015625" lon="13.00628657452762126922607421875">
        <ele>612</ele>
        <time>2021-06-04T07:39:38.000Z</time>
        <extensions>
          <ns3:TrackPointExtension>
            <ns3:atemp>23.0</ns3:atemp>
          </ns3:TrackPointExtension>
        </extensions>
      </trkpt>
      <trkpt lat="43.1002180092036724090576171875" lon="13.0064011551439762115478515625">
        <ele>612</ele>
        <time>2021-06-04T07:39:44.000Z</time>
        <extensions>
          <ns3:TrackPointExtension>
            <ns3:atemp>23.0</ns3:atemp>
          </ns3:TrackPointExtension>
        </extensions>
      </trkpt>
      <trkpt lat="43.10007677413523197174072265625" lon="13.006517998874187469482421875">
        <ele>612</ele>
        <time>2021-06-04T07:39:50.000Z</time>
        <extensions>
          <ns3:TrackPointExtension>
            <ns3:atemp>23.0</ns3:atemp>
          </ns3:TrackPointExtension>
        </extensions>
      </trkpt>
      <trkpt lat="43.10000753961503505706787109375" lon="13.00657558254897594451904296875">
        <ele>612.4000244140625</ele>
        <time>2021-06-04T07:39:53.000Z</time>
        <extensions>
          <ns3:TrackPointExtension>
            <ns3:atemp>23.0</ns3:atemp>
          </ns3:TrackPointExtension>
        </extensions>
      </trkpt>
      <trkpt lat="43.09988801367580890655517578125" lon="13.006667532026767730712890625">
        <ele>612.5999755859375</ele>
        <time>2021-06-04T07:39:58.000Z</time>
        <extensions>
          <ns3:TrackPointExtension>
            <ns3:atemp>23.0</ns3:atemp>
          </ns3:TrackPointExtension>
        </extensions>
      </trkpt>
      <trkpt lat="43.0997375585138797760009765625" lon="13.00669007934629917144775390625">
        <ele>613</ele>
        <time>2021-06-04T07:40:03.000Z</time>
        <extensions>
          <ns3:TrackPointExtension>
            <ns3:atemp>23.0</ns3:atemp>
          </ns3:TrackPointExtension>
        </extensions>
      </trkpt>
      <trkpt lat="43.09958324767649173736572265625" lon="13.0066733993589878082275390625">
        <ele>613</ele>
        <time>2021-06-04T07:40:07.000Z</time>
        <extensions>
          <ns3:TrackPointExtension>
            <ns3:atemp>23.0</ns3:atemp>
          </ns3:TrackPointExtension>
        </extensions>
      </trkpt>
      <trkpt lat="43.09949691407382488250732421875" lon="13.00664314068853855133056640625">
        <ele>613</ele>
        <time>2021-06-04T07:40:09.000Z</time>
        <extensions>
          <ns3:TrackPointExtension>
            <ns3:atemp>23.0</ns3:atemp>
          </ns3:TrackPointExtension>
        </extensions>
      </trkpt>
      <trkpt lat="43.099250905215740203857421875" lon="13.00649243406951427459716796875">
        <ele>612.79998779296875</ele>
        <time>2021-06-04T07:40:15.000Z</time>
        <extensions>
          <ns3:TrackPointExtension>
            <ns3:atemp>23.0</ns3:atemp>
          </ns3:TrackPointExtension>
        </extensions>
      </trkpt>
      <trkpt lat="43.09891588054597377777099609375" lon="13.00626394338905811309814453125">
        <ele>612.79998779296875</ele>
        <time>2021-06-04T07:40:23.000Z</time>
        <extensions>
          <ns3:TrackPointExtension>
            <ns3:atemp>23.0</ns3:atemp>
          </ns3:TrackPointExtension>
        </extensions>
      </trkpt>
      <trkpt lat="43.09866894967854022979736328125" lon="13.0061121471226215362548828125">
        <ele>613</ele>
        <time>2021-06-04T07:40:29.000Z</time>
        <extensions>
          <ns3:TrackPointExtension>
            <ns3:atemp>23.0</ns3:atemp>
          </ns3:TrackPointExtension>
        </extensions>
      </trkpt>
      <trkpt lat="43.0985801853239536285400390625" lon="13.00605456344783306121826171875">
        <ele>613</ele>
        <time>2021-06-04T07:40:31.000Z</time>
        <extensions>
          <ns3:TrackPointExtension>
            <ns3:atemp>23.0</ns3:atemp>
          </ns3:TrackPointExtension>
        </extensions>
      </trkpt>
      <trkpt lat="43.0984467454254627227783203125" lon="13.00599253736436367034912109375">
        <ele>612.79998779296875</ele>
        <time>2021-06-04T07:40:34.000Z</time>
        <extensions>
          <ns3:TrackPointExtension>
            <ns3:atemp>23.0</ns3:atemp>
          </ns3:TrackPointExtension>
        </extensions>
      </trkpt>
      <trkpt lat="43.09821213595569133758544921875" lon="13.00587519071996212005615234375">
        <ele>612.5999755859375</ele>
        <time>2021-06-04T07:40:39.000Z</time>
        <extensions>
          <ns3:TrackPointExtension>
            <ns3:atemp>23.0</ns3:atemp>
          </ns3:TrackPointExtension>
        </extensions>
      </trkpt>
      <trkpt lat="43.0978804640471935272216796875" lon="13.005648292601108551025390625">
        <ele>612.20001220703125</ele>
        <time>2021-06-04T07:40:46.000Z</time>
        <extensions>
          <ns3:TrackPointExtension>
            <ns3:atemp>23.0</ns3:atemp>
          </ns3:TrackPointExtension>
        </extensions>
      </trkpt>
      <trkpt lat="43.09773914515972137451171875" lon="13.00551694817841053009033203125">
        <ele>611.79998779296875</ele>
        <time>2021-06-04T07:40:49.000Z</time>
        <extensions>
          <ns3:TrackPointExtension>
            <ns3:atemp>23.0</ns3:atemp>
          </ns3:TrackPointExtension>
        </extensions>
      </trkpt>
      <trkpt lat="43.097664378583431243896484375" lon="13.005385100841522216796875">
        <ele>611.20001220703125</ele>
        <time>2021-06-04T07:40:51.000Z</time>
        <extensions>
          <ns3:TrackPointExtension>
            <ns3:atemp>23.0</ns3:atemp>
          </ns3:TrackPointExtension>
        </extensions>
      </trkpt>
      <trkpt lat="43.09764116071164608001708984375" lon="13.0053108371794223785400390625">
        <ele>611</ele>
        <time>2021-06-04T07:40:52.000Z</time>
        <extensions>
          <ns3:TrackPointExtension>
            <ns3:atemp>23.0</ns3:atemp>
          </ns3:TrackPointExtension>
        </extensions>
      </trkpt>
      <trkpt lat="43.09761710464954376220703125" lon="13.00508863292634487152099609375">
        <ele>610.20001220703125</ele>
        <time>2021-06-04T07:40:55.000Z</time>
        <extensions>
          <ns3:TrackPointExtension>
            <ns3:atemp>23.0</ns3:atemp>
          </ns3:TrackPointExtension>
        </extensions>
      </trkpt>
      <trkpt lat="43.097572512924671173095703125" lon="13.00469719804823398590087890625">
        <ele>610</ele>
        <time>2021-06-04T07:41:01.000Z</time>
        <extensions>
          <ns3:TrackPointExtension>
            <ns3:atemp>23.0</ns3:atemp>
          </ns3:TrackPointExtension>
        </extensions>
      </trkpt>
      <trkpt lat="43.097538985311985015869140625" lon="13.0045832879841327667236328125">
        <ele>610</ele>
        <time>2021-06-04T07:41:03.000Z</time>
        <extensions>
          <ns3:TrackPointExtension>
            <ns3:atemp>23.0</ns3:atemp>
          </ns3:TrackPointExtension>
        </extensions>
      </trkpt>
      <trkpt lat="43.0974653922021389007568359375" lon="13.0044431425631046295166015625">
        <ele>610.5999755859375</ele>
        <time>2021-06-04T07:41:06.000Z</time>
        <extensions>
          <ns3:TrackPointExtension>
            <ns3:atemp>23.0</ns3:atemp>
          </ns3:TrackPointExtension>
        </extensions>
      </trkpt>
      <trkpt lat="43.09725701808929443359375" lon="13.00415170378983020782470703125">
        <ele>611.79998779296875</ele>
        <time>2021-06-04T07:41:13.000Z</time>
        <extensions>
          <ns3:TrackPointExtension>
            <ns3:atemp>23.0</ns3:atemp>
          </ns3:TrackPointExtension>
        </extensions>
      </trkpt>
      <trkpt lat="43.0972226522862911224365234375" lon="13.004116751253604888916015625">
        <ele>612.20001220703125</ele>
        <time>2021-06-04T07:41:14.000Z</time>
        <extensions>
          <ns3:TrackPointExtension>
            <ns3:atemp>23.0</ns3:atemp>
          </ns3:TrackPointExtension>
        </extensions>
      </trkpt>
      <trkpt lat="43.0971636436879634857177734375" lon="13.00403670407831668853759765625">
        <ele>612.5999755859375</ele>
        <time>2021-06-04T07:41:16.000Z</time>
        <extensions>
          <ns3:TrackPointExtension>
            <ns3:atemp>23.0</ns3:atemp>
          </ns3:TrackPointExtension>
        </extensions>
      </trkpt>
      <trkpt lat="43.097090385854244232177734375" lon="13.0039559863507747650146484375">
        <ele>613.20001220703125</ele>
        <time>2021-06-04T07:41:18.000Z</time>
        <extensions>
          <ns3:TrackPointExtension>
            <ns3:atemp>23.0</ns3:atemp>
          </ns3:TrackPointExtension>
        </extensions>
      </trkpt>
      <trkpt lat="43.0970486439764499664306640625" lon="13.00391667522490024566650390625">
        <ele>613.5999755859375</ele>
        <time>2021-06-04T07:41:19.000Z</time>
        <extensions>
          <ns3:TrackPointExtension>
            <ns3:atemp>23.0</ns3:atemp>
          </ns3:TrackPointExtension>
        </extensions>
      </trkpt>
      <trkpt lat="43.0969794094562530517578125" lon="13.0038342811167240142822265625">
        <ele>614.20001220703125</ele>
        <time>2021-06-04T07:41:21.000Z</time>
        <extensions>
          <ns3:TrackPointExtension>
            <ns3:atemp>23.0</ns3:atemp>
          </ns3:TrackPointExtension>
        </extensions>
      </trkpt>
      <trkpt lat="43.096885196864604949951171875" lon="13.003722466528415679931640625">
        <ele>615.4000244140625</ele>
        <time>2021-06-04T07:41:24.000Z</time>
        <extensions>
          <ns3:TrackPointExtension>
            <ns3:atemp>23.0</ns3:atemp>
          </ns3:TrackPointExtension>
        </extensions>
      </trkpt>
      <trkpt lat="43.09681453742086887359619140625" lon="13.0036508850753307342529296875">
        <ele>615.79998779296875</ele>
        <time>2021-06-04T07:41:26.000Z</time>
        <extensions>
          <ns3:TrackPointExtension>
            <ns3:atemp>23.0</ns3:atemp>
          </ns3:TrackPointExtension>
        </extensions>
      </trkpt>
      <trkpt lat="43.0967085063457489013671875" lon="13.0035462789237499237060546875">
        <ele>616.5999755859375</ele>
        <time>2021-06-04T07:41:29.000Z</time>
        <extensions>
          <ns3:TrackPointExtension>
            <ns3:atemp>23.0</ns3:atemp>
          </ns3:TrackPointExtension>
        </extensions>
      </trkpt>
      <trkpt lat="43.09667439199984073638916015625" lon="13.0035090632736682891845703125">
        <ele>617.5999755859375</ele>
        <time>2021-06-04T07:41:30.000Z</time>
        <extensions>
          <ns3:TrackPointExtension>
            <ns3:atemp>23.0</ns3:atemp>
          </ns3:TrackPointExtension>
        </extensions>
      </trkpt>
      <trkpt lat="43.0966375954449176788330078125" lon="13.0034758709371089935302734375">
        <ele>618</ele>
        <time>2021-06-04T07:41:31.000Z</time>
        <extensions>
          <ns3:TrackPointExtension>
            <ns3:atemp>23.0</ns3:atemp>
          </ns3:TrackPointExtension>
        </extensions>
      </trkpt>
      <trkpt lat="43.0965309776365756988525390625" lon="13.003368414938449859619140625">
        <ele>618.79998779296875</ele>
        <time>2021-06-04T07:41:34.000Z</time>
        <extensions>
          <ns3:TrackPointExtension>
            <ns3:atemp>23.0</ns3:atemp>
          </ns3:TrackPointExtension>
        </extensions>
      </trkpt>
      <trkpt lat="43.0964176543056964874267578125" lon="13.00326422788202762603759765625">
        <ele>620</ele>
        <time>2021-06-04T07:41:37.000Z</time>
        <extensions>
          <ns3:TrackPointExtension>
            <ns3:atemp>23.0</ns3:atemp>
          </ns3:TrackPointExtension>
        </extensions>
      </trkpt>
      <trkpt lat="43.0962981283664703369140625" lon="13.0031870305538177490234375">
        <ele>621</ele>
        <time>2021-06-04T07:41:40.000Z</time>
        <extensions>
          <ns3:TrackPointExtension>
            <ns3:atemp>23.0</ns3:atemp>
          </ns3:TrackPointExtension>
        </extensions>
      </trkpt>
      <trkpt lat="43.0962580628693103790283203125" lon="13.0031623877584934234619140625">
        <ele>621.4000244140625</ele>
        <time>2021-06-04T07:41:41.000Z</time>
        <extensions>
          <ns3:TrackPointExtension>
            <ns3:atemp>23.0</ns3:atemp>
          </ns3:TrackPointExtension>
        </extensions>
      </trkpt>
      <trkpt lat="43.09613124467432498931884765625" lon="13.0031070671975612640380859375">
        <ele>622.20001220703125</ele>
        <time>2021-06-04T07:41:44.000Z</time>
        <extensions>
          <ns3:TrackPointExtension>
            <ns3:atemp>23.0</ns3:atemp>
          </ns3:TrackPointExtension>
        </extensions>
      </trkpt>
      <trkpt lat="43.09608782641589641571044921875" lon="13.003094829618930816650390625">
        <ele>622.4000244140625</ele>
        <time>2021-06-04T07:41:45.000Z</time>
        <extensions>
          <ns3:TrackPointExtension>
            <ns3:atemp>23.0</ns3:atemp>
          </ns3:TrackPointExtension>
        </extensions>
      </trkpt>
      <trkpt lat="43.09604424051940441131591796875" lon="13.00308686681091785430908203125">
        <ele>622.79998779296875</ele>
        <time>2021-06-04T07:41:46.000Z</time>
        <extensions>
          <ns3:TrackPointExtension>
            <ns3:atemp>23.0</ns3:atemp>
          </ns3:TrackPointExtension>
        </extensions>
      </trkpt>
      <trkpt lat="43.09595488943159580230712890625" lon="13.00308845937252044677734375">
        <ele>623.4000244140625</ele>
        <time>2021-06-04T07:41:48.000Z</time>
        <extensions>
          <ns3:TrackPointExtension>
            <ns3:atemp>23.0</ns3:atemp>
          </ns3:TrackPointExtension>
        </extensions>
      </trkpt>
      <trkpt lat="43.09581474401056766510009765625" lon="13.003155179321765899658203125">
        <ele>624.20001220703125</ele>
        <time>2021-06-04T07:41:51.000Z</time>
        <extensions>
          <ns3:TrackPointExtension>
            <ns3:atemp>23.0</ns3:atemp>
          </ns3:TrackPointExtension>
        </extensions>
      </trkpt>
      <trkpt lat="43.09576562605798244476318359375" lon="13.00318979658186435699462890625">
        <ele>624.4000244140625</ele>
        <time>2021-06-04T07:41:52.000Z</time>
        <extensions>
          <ns3:TrackPointExtension>
            <ns3:atemp>23.0</ns3:atemp>
          </ns3:TrackPointExtension>
        </extensions>
      </trkpt>
      <trkpt lat="43.0956317670643329620361328125" lon="13.00331066362559795379638671875">
        <ele>624.79998779296875</ele>
        <time>2021-06-04T07:41:55.000Z</time>
        <extensions>
          <ns3:TrackPointExtension>
            <ns3:atemp>23.0</ns3:atemp>
          </ns3:TrackPointExtension>
        </extensions>
      </trkpt>
      <trkpt lat="43.09559362940490245819091796875" lon="13.00335475243628025054931640625">
        <ele>624.79998779296875</ele>
        <time>2021-06-04T07:41:56.000Z</time>
        <extensions>
          <ns3:TrackPointExtension>
            <ns3:atemp>23.0</ns3:atemp>
          </ns3:TrackPointExtension>
        </extensions>
      </trkpt>
      <trkpt lat="43.09555691666901111602783203125" lon="13.0034017749130725860595703125">
        <ele>625</ele>
        <time>2021-06-04T07:41:57.000Z</time>
        <extensions>
          <ns3:TrackPointExtension>
            <ns3:atemp>23.0</ns3:atemp>
          </ns3:TrackPointExtension>
        </extensions>
      </trkpt>
      <trkpt lat="43.09542439877986907958984375" lon="13.00361107103526592254638671875">
        <ele>625.4000244140625</ele>
        <time>2021-06-04T07:42:01.000Z</time>
        <extensions>
          <ns3:TrackPointExtension>
            <ns3:atemp>23.0</ns3:atemp>
          </ns3:TrackPointExtension>
        </extensions>
      </trkpt>
      <trkpt lat="43.095388524234294891357421875" lon="13.00365842878818511962890625">
        <ele>625.4000244140625</ele>
        <time>2021-06-04T07:42:02.000Z</time>
        <extensions>
          <ns3:TrackPointExtension>
            <ns3:atemp>23.0</ns3:atemp>
          </ns3:TrackPointExtension>
        </extensions>
      </trkpt>
      <trkpt lat="43.09522566385567188262939453125" lon="13.0038926191627979278564453125">
        <ele>626.20001220703125</ele>
        <time>2021-06-04T07:42:07.000Z</time>
        <extensions>
          <ns3:TrackPointExtension>
            <ns3:atemp>23.0</ns3:atemp>
          </ns3:TrackPointExtension>
        </extensions>
      </trkpt>
      <trkpt lat="43.09515575878322124481201171875" lon="13.00398607738316059112548828125">
        <ele>626.5999755859375</ele>
        <time>2021-06-04T07:42:09.000Z</time>
        <extensions>
          <ns3:TrackPointExtension>
            <ns3:atemp>23.0</ns3:atemp>
          </ns3:TrackPointExtension>
        </extensions>
      </trkpt>
      <trkpt lat="43.09504528529942035675048828125" lon="13.00410979427397251129150390625">
        <ele>628</ele>
        <time>2021-06-04T07:42:12.000Z</time>
        <extensions>
          <ns3:TrackPointExtension>
            <ns3:atemp>23.0</ns3:atemp>
          </ns3:TrackPointExtension>
        </extensions>
      </trkpt>
      <trkpt lat="43.09497269801795482635498046875" lon="13.004196546971797943115234375">
        <ele>628.79998779296875</ele>
        <time>2021-06-04T07:42:14.000Z</time>
        <extensions>
          <ns3:TrackPointExtension>
            <ns3:atemp>23.0</ns3:atemp>
          </ns3:TrackPointExtension>
        </extensions>
      </trkpt>
      <trkpt lat="43.094936572015285491943359375" lon="13.00423778593540191650390625">
        <ele>629</ele>
        <time>2021-06-04T07:42:15.000Z</time>
        <extensions>
          <ns3:TrackPointExtension>
            <ns3:atemp>23.0</ns3:atemp>
          </ns3:TrackPointExtension>
        </extensions>
      </trkpt>
      <trkpt lat="43.09480455704033374786376953125" lon="13.0044089443981647491455078125">
        <ele>630.4000244140625</ele>
        <time>2021-06-04T07:42:19.000Z</time>
        <extensions>
          <ns3:TrackPointExtension>
            <ns3:atemp>23.0</ns3:atemp>
          </ns3:TrackPointExtension>
        </extensions>
      </trkpt>
      <trkpt lat="43.0947365798056125640869140625" lon="13.004500307142734527587890625">
        <ele>631</ele>
        <time>2021-06-04T07:42:21.000Z</time>
        <extensions>
          <ns3:TrackPointExtension>
            <ns3:atemp>23.0</ns3:atemp>
          </ns3:TrackPointExtension>
        </extensions>
      </trkpt>
      <trkpt lat="43.09470347128808498382568359375" lon="13.0045490898191928863525390625">
        <ele>631.4000244140625</ele>
        <time>2021-06-04T07:42:22.000Z</time>
        <extensions>
          <ns3:TrackPointExtension>
            <ns3:atemp>23.0</ns3:atemp>
          </ns3:TrackPointExtension>
        </extensions>
      </trkpt>
      <trkpt lat="43.09464295394718647003173828125" lon="13.00464791245758533477783203125">
        <ele>632</ele>
        <time>2021-06-04T07:42:24.000Z</time>
        <extensions>
          <ns3:TrackPointExtension>
            <ns3:atemp>23.0</ns3:atemp>
          </ns3:TrackPointExtension>
        </extensions>
      </trkpt>
      <trkpt lat="43.0946185626089572906494140625" lon="13.0047036521136760711669921875">
        <ele>632.4000244140625</ele>
        <time>2021-06-04T07:42:25.000Z</time>
        <extensions>
          <ns3:TrackPointExtension>
            <ns3:atemp>23.0</ns3:atemp>
          </ns3:TrackPointExtension>
        </extensions>
      </trkpt>
      <trkpt lat="43.09459802694618701934814453125" lon="13.00476123578846454620361328125">
        <ele>632.5999755859375</ele>
        <time>2021-06-04T07:42:26.000Z</time>
        <extensions>
          <ns3:TrackPointExtension>
            <ns3:atemp>23.0</ns3:atemp>
          </ns3:TrackPointExtension>
        </extensions>
      </trkpt>
      <trkpt lat="43.09458092786371707916259765625" lon="13.004822172224521636962890625">
        <ele>633</ele>
        <time>2021-06-04T07:42:27.000Z</time>
        <extensions>
          <ns3:TrackPointExtension>
            <ns3:atemp>23.0</ns3:atemp>
          </ns3:TrackPointExtension>
        </extensions>
      </trkpt>
      <trkpt lat="43.0945655889809131622314453125" lon="13.0048847012221813201904296875">
        <ele>633.4000244140625</ele>
        <time>2021-06-04T07:42:28.000Z</time>
        <extensions>
          <ns3:TrackPointExtension>
            <ns3:atemp>23.0</ns3:atemp>
          </ns3:TrackPointExtension>
        </extensions>
      </trkpt>
      <trkpt lat="43.09454865753650665283203125" lon="13.00494496710598468780517578125">
        <ele>633.5999755859375</ele>
        <time>2021-06-04T07:42:29.000Z</time>
        <extensions>
          <ns3:TrackPointExtension>
            <ns3:atemp>23.0</ns3:atemp>
          </ns3:TrackPointExtension>
        </extensions>
      </trkpt>
      <trkpt lat="43.0944676883518695831298828125" lon="13.00523095764219760894775390625">
        <ele>635</ele>
        <time>2021-06-04T07:42:34.000Z</time>
        <extensions>
          <ns3:TrackPointExtension>
            <ns3:atemp>23.0</ns3:atemp>
          </ns3:TrackPointExtension>
        </extensions>
      </trkpt>
      <trkpt lat="43.09439602307975292205810546875" lon="13.005442433059215545654296875">
        <ele>635.79998779296875</ele>
        <time>2021-06-04T07:42:38.000Z</time>
        <extensions>
          <ns3:TrackPointExtension>
            <ns3:atemp>23.0</ns3:atemp>
          </ns3:TrackPointExtension>
        </extensions>
      </trkpt>
      <trkpt lat="43.09434271417558193206787109375" lon="13.00561484880745410919189453125">
        <ele>636.79998779296875</ele>
        <time>2021-06-04T07:42:41.000Z</time>
        <extensions>
          <ns3:TrackPointExtension>
            <ns3:atemp>23.0</ns3:atemp>
          </ns3:TrackPointExtension>
        </extensions>
      </trkpt>
      <trkpt lat="43.09429694898426532745361328125" lon="13.00578131340444087982177734375">
        <ele>637.4000244140625</ele>
        <time>2021-06-04T07:42:44.000Z</time>
        <extensions>
          <ns3:TrackPointExtension>
            <ns3:atemp>23.0</ns3:atemp>
          </ns3:TrackPointExtension>
        </extensions>
      </trkpt>
      <trkpt lat="43.09427364729344844818115234375" lon="13.005886338651180267333984375">
        <ele>638</ele>
        <time>2021-06-04T07:42:46.000Z</time>
        <extensions>
          <ns3:TrackPointExtension>
            <ns3:atemp>23.0</ns3:atemp>
          </ns3:TrackPointExtension>
        </extensions>
      </trkpt>
      <trkpt lat="43.09422201476991176605224609375" lon="13.0060960538685321807861328125">
        <ele>639</ele>
        <time>2021-06-04T07:42:50.000Z</time>
        <extensions>
          <ns3:TrackPointExtension>
            <ns3:atemp>23.0</ns3:atemp>
          </ns3:TrackPointExtension>
        </extensions>
      </trkpt>
      <trkpt lat="43.094196282327175140380859375" lon="13.00620091147720813751220703125">
        <ele>639.79998779296875</ele>
        <time>2021-06-04T07:42:52.000Z</time>
        <extensions>
          <ns3:TrackPointExtension>
            <ns3:atemp>23.0</ns3:atemp>
          </ns3:TrackPointExtension>
        </extensions>
      </trkpt>
      <trkpt lat="43.09418379329144954681396484375" lon="13.0062529630959033966064453125">
        <ele>640.20001220703125</ele>
        <time>2021-06-04T07:42:53.000Z</time>
        <extensions>
          <ns3:TrackPointExtension>
            <ns3:atemp>23.0</ns3:atemp>
          </ns3:TrackPointExtension>
        </extensions>
      </trkpt>
      <trkpt lat="43.09410684742033481597900390625" lon="13.006436862051486968994140625">
        <ele>641.4000244140625</ele>
        <time>2021-06-04T07:42:57.000Z</time>
        <extensions>
          <ns3:TrackPointExtension>
            <ns3:atemp>23.0</ns3:atemp>
          </ns3:TrackPointExtension>
        </extensions>
      </trkpt>
      <trkpt lat="43.0940801091492176055908203125" lon="13.00647315569221973419189453125">
        <ele>641.5999755859375</ele>
        <time>2021-06-04T07:42:58.000Z</time>
        <extensions>
          <ns3:TrackPointExtension>
            <ns3:atemp>23.0</ns3:atemp>
          </ns3:TrackPointExtension>
        </extensions>
      </trkpt>
      <trkpt lat="43.09398011304438114166259765625" lon="13.0065594054758548736572265625">
        <ele>642.5999755859375</ele>
        <time>2021-06-04T07:43:01.000Z</time>
        <extensions>
          <ns3:TrackPointExtension>
            <ns3:atemp>23.0</ns3:atemp>
          </ns3:TrackPointExtension>
        </extensions>
      </trkpt>
      <trkpt lat="43.09390132315456867218017578125" lon="13.00658547319471836090087890625">
        <ele>643.20001220703125</ele>
        <time>2021-06-04T07:43:03.000Z</time>
        <extensions>
          <ns3:TrackPointExtension>
            <ns3:atemp>23.0</ns3:atemp>
          </ns3:TrackPointExtension>
        </extensions>
      </trkpt>
      <trkpt lat="43.093861676752567291259765625" lon="13.0065942741930484771728515625">
        <ele>643.5999755859375</ele>
        <time>2021-06-04T07:43:04.000Z</time>
        <extensions>
          <ns3:TrackPointExtension>
            <ns3:atemp>23.0</ns3:atemp>
          </ns3:TrackPointExtension>
        </extensions>
      </trkpt>
      <trkpt lat="43.09382102452218532562255859375" lon="13.00660005770623683929443359375">
        <ele>644</ele>
        <time>2021-06-04T07:43:05.000Z</time>
        <extensions>
          <ns3:TrackPointExtension>
            <ns3:atemp>23.0</ns3:atemp>
          </ns3:TrackPointExtension>
        </extensions>
      </trkpt>
      <trkpt lat="43.0937384627759456634521484375" lon="13.00660659559071063995361328125">
        <ele>645</ele>
        <time>2021-06-04T07:43:07.000Z</time>
        <extensions>
          <ns3:TrackPointExtension>
            <ns3:atemp>23.0</ns3:atemp>
          </ns3:TrackPointExtension>
        </extensions>
      </trkpt>
      <trkpt lat="43.09365824796259403228759765625" lon="13.00660927779972553253173828125">
        <ele>645.5999755859375</ele>
        <time>2021-06-04T07:43:09.000Z</time>
        <extensions>
          <ns3:TrackPointExtension>
            <ns3:atemp>23.0</ns3:atemp>
          </ns3:TrackPointExtension>
        </extensions>
      </trkpt>
      <trkpt lat="43.09357677586376667022705078125" lon="13.00661162473261356353759765625">
        <ele>646.4000244140625</ele>
        <time>2021-06-04T07:43:11.000Z</time>
        <extensions>
          <ns3:TrackPointExtension>
            <ns3:atemp>23.0</ns3:atemp>
          </ns3:TrackPointExtension>
        </extensions>
      </trkpt>
      <trkpt lat="43.09341953136026859283447265625" lon="13.006634674966335296630859375">
        <ele>647.5999755859375</ele>
        <time>2021-06-04T07:43:15.000Z</time>
        <extensions>
          <ns3:TrackPointExtension>
            <ns3:atemp>23.0</ns3:atemp>
          </ns3:TrackPointExtension>
        </extensions>
      </trkpt>
      <trkpt lat="43.0933834053575992584228515625" lon="13.006648086011409759521484375">
        <ele>648</ele>
        <time>2021-06-04T07:43:16.000Z</time>
        <extensions>
          <ns3:TrackPointExtension>
            <ns3:atemp>23.0</ns3:atemp>
          </ns3:TrackPointExtension>
        </extensions>
      </trkpt>
      <trkpt lat="43.09327737428247928619384765625" lon="13.006714470684528350830078125">
        <ele>648.5999755859375</ele>
        <time>2021-06-04T07:43:19.000Z</time>
        <extensions>
          <ns3:TrackPointExtension>
            <ns3:atemp>23.0</ns3:atemp>
          </ns3:TrackPointExtension>
        </extensions>
      </trkpt>
      <trkpt lat="43.09321224689483642578125" lon="13.0067736469209194183349609375">
        <ele>649.20001220703125</ele>
        <time>2021-06-04T07:43:21.000Z</time>
        <extensions>
          <ns3:TrackPointExtension>
            <ns3:atemp>23.0</ns3:atemp>
          </ns3:TrackPointExtension>
        </extensions>
      </trkpt>
      <trkpt lat="43.09315080754458904266357421875" lon="13.00684891641139984130859375">
        <ele>650</ele>
        <time>2021-06-04T07:43:23.000Z</time>
        <extensions>
          <ns3:TrackPointExtension>
            <ns3:atemp>23.0</ns3:atemp>
          </ns3:TrackPointExtension>
        </extensions>
      </trkpt>
      <trkpt lat="43.09305542148649692535400390625" lon="13.00696467049419879913330078125">
        <ele>651.4000244140625</ele>
        <time>2021-06-04T07:43:26.000Z</time>
        <extensions>
          <ns3:TrackPointExtension>
            <ns3:atemp>23.0</ns3:atemp>
          </ns3:TrackPointExtension>
        </extensions>
      </trkpt>
      <trkpt lat="43.09298568405210971832275390625" lon="13.007034324109554290771484375">
        <ele>652</ele>
        <time>2021-06-04T07:43:28.000Z</time>
        <extensions>
          <ns3:TrackPointExtension>
            <ns3:atemp>23.0</ns3:atemp>
          </ns3:TrackPointExtension>
        </extensions>
      </trkpt>
      <trkpt lat="43.09294796548783779144287109375" lon="13.0070653371512889862060546875">
        <ele>652.20001220703125</ele>
        <time>2021-06-04T07:43:29.000Z</time>
        <extensions>
          <ns3:TrackPointExtension>
            <ns3:atemp>23.0</ns3:atemp>
          </ns3:TrackPointExtension>
        </extensions>
      </trkpt>
      <trkpt lat="43.09290823526680469512939453125" lon="13.0070958472788333892822265625">
        <ele>652.4000244140625</ele>
        <time>2021-06-04T07:43:30.000Z</time>
        <extensions>
          <ns3:TrackPointExtension>
            <ns3:atemp>23.0</ns3:atemp>
          </ns3:TrackPointExtension>
        </extensions>
      </trkpt>
      <trkpt lat="43.09269164688885211944580078125" lon="13.00722400657832622528076171875">
        <ele>653.20001220703125</ele>
        <time>2021-06-04T07:43:35.000Z</time>
        <extensions>
          <ns3:TrackPointExtension>
            <ns3:atemp>23.0</ns3:atemp>
          </ns3:TrackPointExtension>
        </extensions>
      </trkpt>
      <trkpt lat="43.09264454059302806854248046875" lon="13.00724261440336704254150390625">
        <ele>653.5999755859375</ele>
        <time>2021-06-04T07:43:36.000Z</time>
        <extensions>
          <ns3:TrackPointExtension>
            <ns3:atemp>23.0</ns3:atemp>
          </ns3:TrackPointExtension>
        </extensions>
      </trkpt>
      <trkpt lat="43.09249232523143291473388671875" lon="13.0072789080440998077392578125">
        <ele>654.4000244140625</ele>
        <time>2021-06-04T07:43:39.000Z</time>
        <extensions>
          <ns3:TrackPointExtension>
            <ns3:atemp>23.0</ns3:atemp>
          </ns3:TrackPointExtension>
        </extensions>
      </trkpt>
      <trkpt lat="43.092333488166332244873046875" lon="13.00728075206279754638671875">
        <ele>655.20001220703125</ele>
        <time>2021-06-04T07:43:42.000Z</time>
        <extensions>
          <ns3:TrackPointExtension>
            <ns3:atemp>23.0</ns3:atemp>
          </ns3:TrackPointExtension>
        </extensions>
      </trkpt>
      <trkpt lat="43.0922345817089080810546875" lon="13.00726708956062793731689453125">
        <ele>655.4000244140625</ele>
        <time>2021-06-04T07:43:44.000Z</time>
        <extensions>
          <ns3:TrackPointExtension>
            <ns3:atemp>23.0</ns3:atemp>
          </ns3:TrackPointExtension>
        </extensions>
      </trkpt>
      <trkpt lat="43.09204883873462677001953125" lon="13.00724051892757415771484375">
        <ele>655.5999755859375</ele>
        <time>2021-06-04T07:43:48.000Z</time>
        <extensions>
          <ns3:TrackPointExtension>
            <ns3:atemp>23.0</ns3:atemp>
          </ns3:TrackPointExtension>
        </extensions>
      </trkpt>
      <trkpt lat="43.0920007266104221343994140625" lon="13.00724378786981105804443359375">
        <ele>655.79998779296875</ele>
        <time>2021-06-04T07:43:49.000Z</time>
        <extensions>
          <ns3:TrackPointExtension>
            <ns3:atemp>23.0</ns3:atemp>
          </ns3:TrackPointExtension>
        </extensions>
      </trkpt>
      <trkpt lat="43.09177416376769542694091796875" lon="13.0073551833629608154296875">
        <ele>656</ele>
        <time>2021-06-04T07:43:54.000Z</time>
        <extensions>
          <ns3:TrackPointExtension>
            <ns3:atemp>23.0</ns3:atemp>
          </ns3:TrackPointExtension>
        </extensions>
      </trkpt>
      <trkpt lat="43.09165530838072299957275390625" lon="13.00743657164275646209716796875">
        <ele>656</ele>
        <time>2021-06-04T07:43:58.000Z</time>
        <extensions>
          <ns3:TrackPointExtension>
            <ns3:atemp>23.0</ns3:atemp>
          </ns3:TrackPointExtension>
        </extensions>
      </trkpt>
      <trkpt lat="43.09159026481211185455322265625" lon="13.0075464583933353424072265625">
        <ele>655.5999755859375</ele>
        <time>2021-06-04T07:44:02.000Z</time>
        <extensions>
          <ns3:TrackPointExtension>
            <ns3:atemp>23.0</ns3:atemp>
          </ns3:TrackPointExtension>
        </extensions>
      </trkpt>
      <trkpt lat="43.09157702140510082244873046875" lon="13.00756313838064670562744140625">
        <ele>655.20001220703125</ele>
        <time>2021-06-04T07:44:06.000Z</time>
        <extensions>
          <ns3:TrackPointExtension>
            <ns3:atemp>23.0</ns3:atemp>
          </ns3:TrackPointExtension>
        </extensions>
      </trkpt>
      <trkpt lat="43.091557323932647705078125" lon="13.007576130330562591552734375">
        <ele>654.79998779296875</ele>
        <time>2021-06-04T07:44:22.000Z</time>
        <extensions>
          <ns3:TrackPointExtension>
            <ns3:atemp>23.0</ns3:atemp>
          </ns3:TrackPointExtension>
        </extensions>
      </trkpt>
      <trkpt lat="43.09143519960343837738037109375" lon="13.0076782219111919403076171875">
        <ele>654.79998779296875</ele>
        <time>2021-06-04T07:44:27.000Z</time>
        <extensions>
          <ns3:TrackPointExtension>
            <ns3:atemp>23.0</ns3:atemp>
          </ns3:TrackPointExtension>
        </extensions>
      </trkpt>
      <trkpt lat="43.09132589958608150482177734375" lon="13.0077781341969966888427734375">
        <ele>654.4000244140625</ele>
        <time>2021-06-04T07:44:31.000Z</time>
        <extensions>
          <ns3:TrackPointExtension>
            <ns3:atemp>23.0</ns3:atemp>
          </ns3:TrackPointExtension>
        </extensions>
      </trkpt>
      <trkpt lat="43.0912966467440128326416015625" lon="13.00780705176293849945068359375">
        <ele>653.79998779296875</ele>
        <time>2021-06-04T07:44:33.000Z</time>
        <extensions>
          <ns3:TrackPointExtension>
            <ns3:atemp>23.0</ns3:atemp>
          </ns3:TrackPointExtension>
        </extensions>
      </trkpt>
      <trkpt lat="43.0912916176021099090576171875" lon="13.00781392492353916168212890625">
        <ele>653.4000244140625</ele>
        <time>2021-06-04T07:44:34.000Z</time>
        <extensions>
          <ns3:TrackPointExtension>
            <ns3:atemp>23.0</ns3:atemp>
          </ns3:TrackPointExtension>
        </extensions>
      </trkpt>
      <trkpt lat="43.0912879295647144317626953125" lon="13.0078176967799663543701171875">
        <ele>652.4000244140625</ele>
        <time>2021-06-04T07:44:38.000Z</time>
        <extensions>
          <ns3:TrackPointExtension>
            <ns3:atemp>23.0</ns3:atemp>
          </ns3:TrackPointExtension>
        </extensions>
      </trkpt>
      <trkpt lat="43.0912879295647144317626953125" lon="13.00781778059899806976318359375">
        <ele>652.4000244140625</ele>
        <time>2021-06-04T07:44:39.000Z</time>
        <extensions>
          <ns3:TrackPointExtension>
            <ns3:atemp>23.0</ns3:atemp>
          </ns3:TrackPointExtension>
        </extensions>
      </trkpt>
      <trkpt lat="43.09124744497239589691162109375" lon="13.00786103121936321258544921875">
        <ele>652.20001220703125</ele>
        <time>2021-06-04T07:44:58.000Z</time>
        <extensions>
          <ns3:TrackPointExtension>
            <ns3:atemp>24.0</ns3:atemp>
          </ns3:TrackPointExtension>
        </extensions>
      </trkpt>
      <trkpt lat="43.0911125801503658294677734375" lon="13.00798349082469940185546875">
        <ele>652.20001220703125</ele>
        <time>2021-06-04T07:45:03.000Z</time>
        <extensions>
          <ns3:TrackPointExtension>
            <ns3:atemp>24.0</ns3:atemp>
          </ns3:TrackPointExtension>
        </extensions>
      </trkpt>
      <trkpt lat="43.09105717577040195465087890625" lon="13.00801207311451435089111328125">
        <ele>651.5999755859375</ele>
        <time>2021-06-04T07:45:07.000Z</time>
        <extensions>
          <ns3:TrackPointExtension>
            <ns3:atemp>24.0</ns3:atemp>
          </ns3:TrackPointExtension>
        </extensions>
      </trkpt>
      <trkpt lat="43.09105667285621166229248046875" lon="13.00801140256226062774658203125">
        <ele>651.20001220703125</ele>
        <time>2021-06-04T07:45:09.000Z</time>
        <extensions>
          <ns3:TrackPointExtension>
            <ns3:atemp>24.0</ns3:atemp>
          </ns3:TrackPointExtension>
        </extensions>
      </trkpt>
      <trkpt lat="43.0910468660295009613037109375" lon="13.0080054514110088348388671875">
        <ele>650.79998779296875</ele>
        <time>2021-06-04T07:45:30.000Z</time>
        <extensions>
          <ns3:TrackPointExtension>
            <ns3:atemp>24.0</ns3:atemp>
          </ns3:TrackPointExtension>
        </extensions>
      </trkpt>
      <trkpt lat="43.09103018604218959808349609375" lon="13.00799497403204441070556640625">
        <ele>650.5999755859375</ele>
        <time>2021-06-04T07:45:31.000Z</time>
        <extensions>
          <ns3:TrackPointExtension>
            <ns3:atemp>24.0</ns3:atemp>
          </ns3:TrackPointExtension>
        </extensions>
      </trkpt>
      <trkpt lat="43.09091870673000812530517578125" lon="13.00790260545909404754638671875">
        <ele>650.5999755859375</ele>
        <time>2021-06-04T07:45:35.000Z</time>
        <extensions>
          <ns3:TrackPointExtension>
            <ns3:atemp>24.0</ns3:atemp>
          </ns3:TrackPointExtension>
        </extensions>
      </trkpt>
      <trkpt lat="43.090720809996128082275390625" lon="13.00767512060701847076416015625">
        <ele>650</ele>
        <time>2021-06-04T07:45:40.000Z</time>
        <extensions>
          <ns3:TrackPointExtension>
            <ns3:atemp>24.0</ns3:atemp>
          </ns3:TrackPointExtension>
        </extensions>
      </trkpt>
      <trkpt lat="43.09067646972835063934326171875" lon="13.00762407481670379638671875">
        <ele>649.79998779296875</ele>
        <time>2021-06-04T07:45:41.000Z</time>
        <extensions>
          <ns3:TrackPointExtension>
            <ns3:atemp>24.0</ns3:atemp>
          </ns3:TrackPointExtension>
        </extensions>
      </trkpt>
      <trkpt lat="43.090573959052562713623046875" lon="13.0075290240347385406494140625">
        <ele>648.79998779296875</ele>
        <time>2021-06-04T07:45:43.000Z</time>
        <extensions>
          <ns3:TrackPointExtension>
            <ns3:atemp>24.0</ns3:atemp>
          </ns3:TrackPointExtension>
        </extensions>
      </trkpt>
      <trkpt lat="43.09046189300715923309326171875" lon="13.00743053667247295379638671875">
        <ele>648</ele>
        <time>2021-06-04T07:45:45.000Z</time>
        <extensions>
          <ns3:TrackPointExtension>
            <ns3:atemp>24.0</ns3:atemp>
          </ns3:TrackPointExtension>
        </extensions>
      </trkpt>
      <trkpt lat="43.090343289077281951904296875" lon="13.00732878036797046661376953125">
        <ele>647.5999755859375</ele>
        <time>2021-06-04T07:45:47.000Z</time>
        <extensions>
          <ns3:TrackPointExtension>
            <ns3:atemp>24.0</ns3:atemp>
          </ns3:TrackPointExtension>
        </extensions>
      </trkpt>
      <trkpt lat="43.0902190692722797393798828125" lon="13.0072242580354213714599609375">
        <ele>646.79998779296875</ele>
        <time>2021-06-04T07:45:49.000Z</time>
        <extensions>
          <ns3:TrackPointExtension>
            <ns3:atemp>24.0</ns3:atemp>
          </ns3:TrackPointExtension>
        </extensions>
      </trkpt>
      <trkpt lat="43.09015980921685695648193359375" lon="13.0071602202951908111572265625">
        <ele>646.4000244140625</ele>
        <time>2021-06-04T07:45:50.000Z</time>
        <extensions>
          <ns3:TrackPointExtension>
            <ns3:atemp>24.0</ns3:atemp>
          </ns3:TrackPointExtension>
        </extensions>
      </trkpt>
      <trkpt lat="43.09010297991335391998291015625" lon="13.00708754919469356536865234375">
        <ele>646</ele>
        <time>2021-06-04T07:45:51.000Z</time>
        <extensions>
          <ns3:TrackPointExtension>
            <ns3:atemp>24.0</ns3:atemp>
          </ns3:TrackPointExtension>
        </extensions>
      </trkpt>
      <trkpt lat="43.0899873934686183929443359375" lon="13.00693231634795665740966796875">
        <ele>644.20001220703125</ele>
        <time>2021-06-04T07:45:53.000Z</time>
        <extensions>
          <ns3:TrackPointExtension>
            <ns3:atemp>24.0</ns3:atemp>
          </ns3:TrackPointExtension>
        </extensions>
      </trkpt>
      <trkpt lat="43.0898737348616123199462890625" lon="13.006792925298213958740234375">
        <ele>642.79998779296875</ele>
        <time>2021-06-04T07:45:55.000Z</time>
        <extensions>
          <ns3:TrackPointExtension>
            <ns3:atemp>24.0</ns3:atemp>
          </ns3:TrackPointExtension>
        </extensions>
      </trkpt>
      <trkpt lat="43.08981858193874359130859375" lon="13.00673768855631351470947265625">
        <ele>642</ele>
        <time>2021-06-04T07:45:56.000Z</time>
        <extensions>
          <ns3:TrackPointExtension>
            <ns3:atemp>24.0</ns3:atemp>
          </ns3:TrackPointExtension>
        </extensions>
      </trkpt>
      <trkpt lat="43.0897687934339046478271484375" lon="13.0066871456801891326904296875">
        <ele>641.79998779296875</ele>
        <time>2021-06-04T07:45:57.000Z</time>
        <extensions>
          <ns3:TrackPointExtension>
            <ns3:atemp>24.0</ns3:atemp>
          </ns3:TrackPointExtension>
        </extensions>
      </trkpt>
      <trkpt lat="43.08963694609701633453369140625" lon="13.00657273270189762115478515625">
        <ele>641.4000244140625</ele>
        <time>2021-06-04T07:46:00.000Z</time>
        <extensions>
          <ns3:TrackPointExtension>
            <ns3:atemp>24.0</ns3:atemp>
          </ns3:TrackPointExtension>
        </extensions>
      </trkpt>
      <trkpt lat="43.08941566385328769683837890625" lon="13.00639872439205646514892578125">
        <ele>641.79998779296875</ele>
        <time>2021-06-04T07:46:06.000Z</time>
        <extensions>
          <ns3:TrackPointExtension>
            <ns3:atemp>24.0</ns3:atemp>
          </ns3:TrackPointExtension>
        </extensions>
      </trkpt>
      <trkpt lat="43.0893372930586338043212890625" lon="13.0063408054411411285400390625">
        <ele>643.20001220703125</ele>
        <time>2021-06-04T07:46:08.000Z</time>
        <extensions>
          <ns3:TrackPointExtension>
            <ns3:atemp>24.0</ns3:atemp>
          </ns3:TrackPointExtension>
        </extensions>
      </trkpt>
      <trkpt lat="43.08918834663927555084228515625" lon="13.00619487650692462921142578125">
        <ele>644.20001220703125</ele>
        <time>2021-06-04T07:46:12.000Z</time>
        <extensions>
          <ns3:TrackPointExtension>
            <ns3:atemp>24.0</ns3:atemp>
          </ns3:TrackPointExtension>
        </extensions>
      </trkpt>
      <trkpt lat="43.0891538970172405242919921875" lon="13.00615313462913036346435546875">
        <ele>644.4000244140625</ele>
        <time>2021-06-04T07:46:13.000Z</time>
        <extensions>
          <ns3:TrackPointExtension>
            <ns3:atemp>24.0</ns3:atemp>
          </ns3:TrackPointExtension>
        </extensions>
      </trkpt>
      <trkpt lat="43.089053817093372344970703125" lon="13.00603964366018772125244140625">
        <ele>645</ele>
        <time>2021-06-04T07:46:16.000Z</time>
        <extensions>
          <ns3:TrackPointExtension>
            <ns3:atemp>24.0</ns3:atemp>
          </ns3:TrackPointExtension>
        </extensions>
      </trkpt>
      <trkpt lat="43.0889966525137424468994140625" lon="13.00597409717738628387451171875">
        <ele>645.20001220703125</ele>
        <time>2021-06-04T07:46:18.000Z</time>
        <extensions>
          <ns3:TrackPointExtension>
            <ns3:atemp>24.0</ns3:atemp>
          </ns3:TrackPointExtension>
        </extensions>
      </trkpt>
      <trkpt lat="43.0889703333377838134765625" lon="13.0059535615146160125732421875">
        <ele>645.4000244140625</ele>
        <time>2021-06-04T07:46:19.000Z</time>
        <extensions>
          <ns3:TrackPointExtension>
            <ns3:atemp>24.0</ns3:atemp>
          </ns3:TrackPointExtension>
        </extensions>
      </trkpt>
      <trkpt lat="43.08884083293378353118896484375" lon="13.00583948381245136260986328125">
        <ele>646.4000244140625</ele>
        <time>2021-06-04T07:46:24.000Z</time>
        <extensions>
          <ns3:TrackPointExtension>
            <ns3:atemp>24.0</ns3:atemp>
          </ns3:TrackPointExtension>
        </extensions>
      </trkpt>
      <trkpt lat="43.08881015516817569732666015625" lon="13.00581618212163448333740234375">
        <ele>646.5999755859375</ele>
        <time>2021-06-04T07:46:25.000Z</time>
        <extensions>
          <ns3:TrackPointExtension>
            <ns3:atemp>24.0</ns3:atemp>
          </ns3:TrackPointExtension>
        </extensions>
      </trkpt>
      <trkpt lat="43.08866715990006923675537109375" lon="13.00571341998875141143798828125">
        <ele>647.5999755859375</ele>
        <time>2021-06-04T07:46:29.000Z</time>
        <extensions>
          <ns3:TrackPointExtension>
            <ns3:atemp>24.0</ns3:atemp>
          </ns3:TrackPointExtension>
        </extensions>
      </trkpt>
      <trkpt lat="43.08857277967035770416259765625" lon="13.00562314689159393310546875">
        <ele>648.4000244140625</ele>
        <time>2021-06-04T07:46:32.000Z</time>
        <extensions>
          <ns3:TrackPointExtension>
            <ns3:atemp>24.0</ns3:atemp>
          </ns3:TrackPointExtension>
        </extensions>
      </trkpt>
      <trkpt lat="43.0885158665478229522705078125" lon="13.00555500201880931854248046875">
        <ele>648.79998779296875</ele>
        <time>2021-06-04T07:46:34.000Z</time>
        <extensions>
          <ns3:TrackPointExtension>
            <ns3:atemp>24.0</ns3:atemp>
          </ns3:TrackPointExtension>
        </extensions>
      </trkpt>
      <trkpt lat="43.08842861093580722808837890625" lon="13.005433045327663421630859375">
        <ele>649.79998779296875</ele>
        <time>2021-06-04T07:46:37.000Z</time>
        <extensions>
          <ns3:TrackPointExtension>
            <ns3:atemp>24.0</ns3:atemp>
          </ns3:TrackPointExtension>
        </extensions>
      </trkpt>
      <trkpt lat="43.08836507610976696014404296875" lon="13.00533941946923732757568359375">
        <ele>650.5999755859375</ele>
        <time>2021-06-04T07:46:39.000Z</time>
        <extensions>
          <ns3:TrackPointExtension>
            <ns3:atemp>24.0</ns3:atemp>
          </ns3:TrackPointExtension>
        </extensions>
      </trkpt>
      <trkpt lat="43.08832936920225620269775390625" lon="13.00529189407825469970703125">
        <ele>651</ele>
        <time>2021-06-04T07:46:40.000Z</time>
        <extensions>
          <ns3:TrackPointExtension>
            <ns3:atemp>24.0</ns3:atemp>
          </ns3:TrackPointExtension>
        </extensions>
      </trkpt>
      <trkpt lat="43.08815368451178073883056640625" lon="13.00503834150731563568115234375">
        <ele>652</ele>
        <time>2021-06-04T07:46:45.000Z</time>
        <extensions>
          <ns3:TrackPointExtension>
            <ns3:atemp>24.0</ns3:atemp>
          </ns3:TrackPointExtension>
        </extensions>
      </trkpt>
      <trkpt lat="43.088118396699428558349609375" lon="13.00498754717409610748291015625">
        <ele>652.20001220703125</ele>
        <time>2021-06-04T07:46:46.000Z</time>
        <extensions>
          <ns3:TrackPointExtension>
            <ns3:atemp>24.0</ns3:atemp>
          </ns3:TrackPointExtension>
        </extensions>
      </trkpt>
      <trkpt lat="43.08790943585336208343505859375" lon="13.00473357550799846649169921875">
        <ele>652.79998779296875</ele>
        <time>2021-06-04T07:46:52.000Z</time>
        <extensions>
          <ns3:TrackPointExtension>
            <ns3:atemp>24.0</ns3:atemp>
          </ns3:TrackPointExtension>
        </extensions>
      </trkpt>
      <trkpt lat="43.08775085024535655975341796875" lon="13.00457800738513469696044921875">
        <ele>653.20001220703125</ele>
        <time>2021-06-04T07:46:56.000Z</time>
        <extensions>
          <ns3:TrackPointExtension>
            <ns3:atemp>24.0</ns3:atemp>
          </ns3:TrackPointExtension>
        </extensions>
      </trkpt>
      <trkpt lat="43.08765999041497707366943359375" lon="13.00448027439415454864501953125">
        <ele>653.20001220703125</ele>
        <time>2021-06-04T07:46:58.000Z</time>
        <extensions>
          <ns3:TrackPointExtension>
            <ns3:atemp>24.0</ns3:atemp>
          </ns3:TrackPointExtension>
        </extensions>
      </trkpt>
      <trkpt lat="43.08761606924235820770263671875" lon="13.00442151725292205810546875">
        <ele>653.20001220703125</ele>
        <time>2021-06-04T07:46:59.000Z</time>
        <extensions>
          <ns3:TrackPointExtension>
            <ns3:atemp>24.0</ns3:atemp>
          </ns3:TrackPointExtension>
        </extensions>
      </trkpt>
      <trkpt lat="43.0874436534941196441650390625" lon="13.0041340179741382598876953125">
        <ele>653</ele>
        <time>2021-06-04T07:47:03.000Z</time>
        <extensions>
          <ns3:TrackPointExtension>
            <ns3:atemp>24.0</ns3:atemp>
          </ns3:TrackPointExtension>
        </extensions>
      </trkpt>
      <trkpt lat="43.0873142369091510772705078125" lon="13.003882728517055511474609375">
        <ele>651.79998779296875</ele>
        <time>2021-06-04T07:47:06.000Z</time>
        <extensions>
          <ns3:TrackPointExtension>
            <ns3:atemp>24.0</ns3:atemp>
          </ns3:TrackPointExtension>
        </extensions>
      </trkpt>
      <trkpt lat="43.08722010813653469085693359375" lon="13.003738224506378173828125">
        <ele>650.79998779296875</ele>
        <time>2021-06-04T07:47:08.000Z</time>
        <extensions>
          <ns3:TrackPointExtension>
            <ns3:atemp>24.0</ns3:atemp>
          </ns3:TrackPointExtension>
        </extensions>
      </trkpt>
      <trkpt lat="43.087172247469425201416015625" lon="13.0036746896803379058837890625">
        <ele>650.20001220703125</ele>
        <time>2021-06-04T07:47:09.000Z</time>
        <extensions>
          <ns3:TrackPointExtension>
            <ns3:atemp>24.0</ns3:atemp>
          </ns3:TrackPointExtension>
        </extensions>
      </trkpt>
      <trkpt lat="43.08712405152618885040283203125" lon="13.0036126635968685150146484375">
        <ele>649.5999755859375</ele>
        <time>2021-06-04T07:47:10.000Z</time>
        <extensions>
          <ns3:TrackPointExtension>
            <ns3:atemp>24.0</ns3:atemp>
          </ns3:TrackPointExtension>
        </extensions>
      </trkpt>
      <trkpt lat="43.0870312638580799102783203125" lon="13.0034845881164073944091796875">
        <ele>648.20001220703125</ele>
        <time>2021-06-04T07:47:12.000Z</time>
        <extensions>
          <ns3:TrackPointExtension>
            <ns3:atemp>24.0</ns3:atemp>
          </ns3:TrackPointExtension>
        </extensions>
      </trkpt>
      <trkpt lat="43.0869881808757781982421875" lon="13.00342096947133541107177734375">
        <ele>648</ele>
        <time>2021-06-04T07:47:13.000Z</time>
        <extensions>
          <ns3:TrackPointExtension>
            <ns3:atemp>24.0</ns3:atemp>
          </ns3:TrackPointExtension>
        </extensions>
      </trkpt>
      <trkpt lat="43.08690302073955535888671875" lon="13.00330496393144130706787109375">
        <ele>647.79998779296875</ele>
        <time>2021-06-04T07:47:15.000Z</time>
        <extensions>
          <ns3:TrackPointExtension>
            <ns3:atemp>24.0</ns3:atemp>
          </ns3:TrackPointExtension>
        </extensions>
      </trkpt>
      <trkpt lat="43.0868133343756198883056640625" lon="13.00321443937718868255615234375">
        <ele>647.79998779296875</ele>
        <time>2021-06-04T07:47:17.000Z</time>
        <extensions>
          <ns3:TrackPointExtension>
            <ns3:atemp>24.0</ns3:atemp>
          </ns3:TrackPointExtension>
        </extensions>
      </trkpt>
      <trkpt lat="43.08676849119365215301513671875" lon="13.0031664110720157623291015625">
        <ele>647.79998779296875</ele>
        <time>2021-06-04T07:47:18.000Z</time>
        <extensions>
          <ns3:TrackPointExtension>
            <ns3:atemp>24.0</ns3:atemp>
          </ns3:TrackPointExtension>
        </extensions>
      </trkpt>
      <trkpt lat="43.08662683703005313873291015625" lon="13.00305015407502651214599609375">
        <ele>647.79998779296875</ele>
        <time>2021-06-04T07:47:21.000Z</time>
        <extensions>
          <ns3:TrackPointExtension>
            <ns3:atemp>24.0</ns3:atemp>
          </ns3:TrackPointExtension>
        </extensions>
      </trkpt>
      <trkpt lat="43.08653480373322963714599609375" lon="13.00297857262194156646728515625">
        <ele>648.20001220703125</ele>
        <time>2021-06-04T07:47:23.000Z</time>
        <extensions>
          <ns3:TrackPointExtension>
            <ns3:atemp>24.0</ns3:atemp>
          </ns3:TrackPointExtension>
        </extensions>
      </trkpt>
      <trkpt lat="43.08649255894124507904052734375" lon="13.0029357410967350006103515625">
        <ele>648.4000244140625</ele>
        <time>2021-06-04T07:47:24.000Z</time>
        <extensions>
          <ns3:TrackPointExtension>
            <ns3:atemp>24.0</ns3:atemp>
          </ns3:TrackPointExtension>
        </extensions>
      </trkpt>
      <trkpt lat="43.086353503167629241943359375" lon="13.0027298815548419952392578125">
        <ele>649.20001220703125</ele>
        <time>2021-06-04T07:47:28.000Z</time>
        <extensions>
          <ns3:TrackPointExtension>
            <ns3:atemp>24.0</ns3:atemp>
          </ns3:TrackPointExtension>
        </extensions>
      </trkpt>
      <trkpt lat="43.086327016353607177734375" lon="13.00267405807971954345703125">
        <ele>649.4000244140625</ele>
        <time>2021-06-04T07:47:29.000Z</time>
        <extensions>
          <ns3:TrackPointExtension>
            <ns3:atemp>24.0</ns3:atemp>
          </ns3:TrackPointExtension>
        </extensions>
      </trkpt>
      <trkpt lat="43.086222745478153228759765625" lon="13.00240525044500827789306640625">
        <ele>650.5999755859375</ele>
        <time>2021-06-04T07:47:34.000Z</time>
        <extensions>
          <ns3:TrackPointExtension>
            <ns3:atemp>24.0</ns3:atemp>
          </ns3:TrackPointExtension>
        </extensions>
      </trkpt>
      <trkpt lat="43.08620162308216094970703125" lon="13.0023530311882495880126953125">
        <ele>650.79998779296875</ele>
        <time>2021-06-04T07:47:35.000Z</time>
        <extensions>
          <ns3:TrackPointExtension>
            <ns3:atemp>24.0</ns3:atemp>
          </ns3:TrackPointExtension>
        </extensions>
      </trkpt>
      <trkpt lat="43.08610732667148113250732421875" lon="13.00214557908475399017333984375">
        <ele>651.79998779296875</ele>
        <time>2021-06-04T07:47:39.000Z</time>
        <extensions>
          <ns3:TrackPointExtension>
            <ns3:atemp>24.0</ns3:atemp>
          </ns3:TrackPointExtension>
        </extensions>
      </trkpt>
      <trkpt lat="43.08608218096196651458740234375" lon="13.00208992324769496917724609375">
        <ele>652.20001220703125</ele>
        <time>2021-06-04T07:47:40.000Z</time>
        <extensions>
          <ns3:TrackPointExtension>
            <ns3:atemp>24.0</ns3:atemp>
          </ns3:TrackPointExtension>
        </extensions>
      </trkpt>
      <trkpt lat="43.085995428264141082763671875" lon="13.00193737260997295379638671875">
        <ele>653</ele>
        <time>2021-06-04T07:47:43.000Z</time>
        <extensions>
          <ns3:TrackPointExtension>
            <ns3:atemp>24.0</ns3:atemp>
          </ns3:TrackPointExtension>
        </extensions>
      </trkpt>
      <trkpt lat="43.0858777463436126708984375" lon="13.001769483089447021484375">
        <ele>654</ele>
        <time>2021-06-04T07:47:47.000Z</time>
        <extensions>
          <ns3:TrackPointExtension>
            <ns3:atemp>24.0</ns3:atemp>
          </ns3:TrackPointExtension>
        </extensions>
      </trkpt>
      <trkpt lat="43.08578764088451862335205078125" lon="13.0016623623669147491455078125">
        <ele>655</ele>
        <time>2021-06-04T07:47:50.000Z</time>
        <extensions>
          <ns3:TrackPointExtension>
            <ns3:atemp>24.0</ns3:atemp>
          </ns3:TrackPointExtension>
        </extensions>
      </trkpt>
      <trkpt lat="43.08566761203110218048095703125" lon="13.00152498297393321990966796875">
        <ele>656.4000244140625</ele>
        <time>2021-06-04T07:47:54.000Z</time>
        <extensions>
          <ns3:TrackPointExtension>
            <ns3:atemp>24.0</ns3:atemp>
          </ns3:TrackPointExtension>
        </extensions>
      </trkpt>
      <trkpt lat="43.08555412106215953826904296875" lon="13.00146345980465412139892578125">
        <ele>657.79998779296875</ele>
        <time>2021-06-04T07:47:57.000Z</time>
        <extensions>
          <ns3:TrackPointExtension>
            <ns3:atemp>24.0</ns3:atemp>
          </ns3:TrackPointExtension>
        </extensions>
      </trkpt>
      <trkpt lat="43.0854413844645023345947265625" lon="13.001415431499481201171875">
        <ele>659.20001220703125</ele>
        <time>2021-06-04T07:48:00.000Z</time>
        <extensions>
          <ns3:TrackPointExtension>
            <ns3:atemp>24.0</ns3:atemp>
          </ns3:TrackPointExtension>
        </extensions>
      </trkpt>
      <trkpt lat="43.08540240861475467681884765625" lon="13.00140579231083393096923828125">
        <ele>659.5999755859375</ele>
        <time>2021-06-04T07:48:01.000Z</time>
        <extensions>
          <ns3:TrackPointExtension>
            <ns3:atemp>24.0</ns3:atemp>
          </ns3:TrackPointExtension>
        </extensions>
      </trkpt>
      <trkpt lat="43.08536854572594165802001953125" lon="13.00139690749347209930419921875">
        <ele>660.20001220703125</ele>
        <time>2021-06-04T07:48:02.000Z</time>
        <extensions>
          <ns3:TrackPointExtension>
            <ns3:atemp>24.0</ns3:atemp>
          </ns3:TrackPointExtension>
        </extensions>
      </trkpt>
      <trkpt lat="43.0853233672678470611572265625" lon="13.0013810656964778900146484375">
        <ele>661.20001220703125</ele>
        <time>2021-06-04T07:48:05.000Z</time>
        <extensions>
          <ns3:TrackPointExtension>
            <ns3:atemp>24.0</ns3:atemp>
          </ns3:TrackPointExtension>
        </extensions>
      </trkpt>
      <trkpt lat="43.08531423099339008331298828125" lon="13.00138332881033420562744140625">
        <ele>661.4000244140625</ele>
        <time>2021-06-04T07:48:06.000Z</time>
        <extensions>
          <ns3:TrackPointExtension>
            <ns3:atemp>24.0</ns3:atemp>
          </ns3:TrackPointExtension>
        </extensions>
      </trkpt>
      <trkpt lat="43.08530467562377452850341796875" lon="13.00138215534389019012451171875">
        <ele>662.5999755859375</ele>
        <time>2021-06-04T07:48:09.000Z</time>
        <extensions>
          <ns3:TrackPointExtension>
            <ns3:atemp>24.0</ns3:atemp>
          </ns3:TrackPointExtension>
        </extensions>
      </trkpt>
      <trkpt lat="43.08530450798571109771728515625" lon="13.00138123333454132080078125">
        <ele>663.79998779296875</ele>
        <time>2021-06-04T07:48:11.000Z</time>
        <extensions>
          <ns3:TrackPointExtension>
            <ns3:atemp>24.0</ns3:atemp>
          </ns3:TrackPointExtension>
        </extensions>
      </trkpt>
      <trkpt lat="43.0853045918047428131103515625" lon="13.00138114951550960540771484375">
        <ele>664.79998779296875</ele>
        <time>2021-06-04T07:48:15.000Z</time>
        <extensions>
          <ns3:TrackPointExtension>
            <ns3:atemp>24.0</ns3:atemp>
          </ns3:TrackPointExtension>
        </extensions>
      </trkpt>
      <trkpt lat="43.0853045918047428131103515625" lon="13.00138114951550960540771484375">
        <ele>665</ele>
        <time>2021-06-04T07:48:16.000Z</time>
        <extensions>
          <ns3:TrackPointExtension>
            <ns3:atemp>24.0</ns3:atemp>
          </ns3:TrackPointExtension>
        </extensions>
      </trkpt>
      <trkpt lat="43.08530434034764766693115234375" lon="13.00138014368712902069091796875">
        <ele>664.79998779296875</ele>
        <time>2021-06-04T07:48:48.000Z</time>
        <extensions>
          <ns3:TrackPointExtension>
            <ns3:atemp>24.0</ns3:atemp>
          </ns3:TrackPointExtension>
        </extensions>
      </trkpt>
      <trkpt lat="43.0852931924164295196533203125" lon="13.00135516561567783355712890625">
        <ele>664.5999755859375</ele>
        <time>2021-06-04T07:49:11.000Z</time>
        <extensions>
          <ns3:TrackPointExtension>
            <ns3:atemp>25.0</ns3:atemp>
          </ns3:TrackPointExtension>
        </extensions>
      </trkpt>
      <trkpt lat="43.08528489433228969573974609375" lon="13.00133471377193927764892578125">
        <ele>664.5999755859375</ele>
        <time>2021-06-04T07:49:12.000Z</time>
        <extensions>
          <ns3:TrackPointExtension>
            <ns3:atemp>25.0</ns3:atemp>
          </ns3:TrackPointExtension>
        </extensions>
      </trkpt>
      <trkpt lat="43.085195124149322509765625" lon="13.00127101130783557891845703125">
        <ele>664.5999755859375</ele>
        <time>2021-06-04T07:49:16.000Z</time>
        <extensions>
          <ns3:TrackPointExtension>
            <ns3:atemp>25.0</ns3:atemp>
          </ns3:TrackPointExtension>
        </extensions>
      </trkpt>
      <trkpt lat="43.085139803588390350341796875" lon="13.00127134658396244049072265625">
        <ele>664.79998779296875</ele>
        <time>2021-06-04T07:49:18.000Z</time>
        <extensions>
          <ns3:TrackPointExtension>
            <ns3:atemp>25.0</ns3:atemp>
          </ns3:TrackPointExtension>
        </extensions>
      </trkpt>
      <trkpt lat="43.08510401286184787750244140625" lon="13.00126589834690093994140625">
        <ele>664.79998779296875</ele>
        <time>2021-06-04T07:49:20.000Z</time>
        <extensions>
          <ns3:TrackPointExtension>
            <ns3:atemp>25.0</ns3:atemp>
          </ns3:TrackPointExtension>
        </extensions>
      </trkpt>
      <trkpt lat="43.08507886715233325958251953125" lon="13.0012700892984867095947265625">
        <ele>665.4000244140625</ele>
        <time>2021-06-04T07:49:26.000Z</time>
        <extensions>
          <ns3:TrackPointExtension>
            <ns3:atemp>25.0</ns3:atemp>
          </ns3:TrackPointExtension>
        </extensions>
      </trkpt>
      <trkpt lat="43.08506545610725879669189453125" lon="13.0012692511081695556640625">
        <ele>666</ele>
        <time>2021-06-04T07:49:32.000Z</time>
        <extensions>
          <ns3:TrackPointExtension>
            <ns3:atemp>25.0</ns3:atemp>
          </ns3:TrackPointExtension>
        </extensions>
      </trkpt>
      <trkpt lat="43.08504718355834484100341796875" lon="13.001267910003662109375">
        <ele>666</ele>
        <time>2021-06-04T07:49:33.000Z</time>
        <extensions>
          <ns3:TrackPointExtension>
            <ns3:atemp>25.0</ns3:atemp>
          </ns3:TrackPointExtension>
        </extensions>
      </trkpt>
      <trkpt lat="43.08492212556302547454833984375" lon="13.0012156069278717041015625">
        <ele>666</ele>
        <time>2021-06-04T07:49:37.000Z</time>
        <extensions>
          <ns3:TrackPointExtension>
            <ns3:atemp>25.0</ns3:atemp>
          </ns3:TrackPointExtension>
        </extensions>
      </trkpt>
      <trkpt lat="43.08475046418607234954833984375" lon="13.00113304518163204193115234375">
        <ele>665.79998779296875</ele>
        <time>2021-06-04T07:49:41.000Z</time>
        <extensions>
          <ns3:TrackPointExtension>
            <ns3:atemp>25.0</ns3:atemp>
          </ns3:TrackPointExtension>
        </extensions>
      </trkpt>
      <trkpt lat="43.0846761167049407958984375" lon="13.0010887049138545989990234375">
        <ele>664.5999755859375</ele>
        <time>2021-06-04T07:49:43.000Z</time>
        <extensions>
          <ns3:TrackPointExtension>
            <ns3:atemp>25.0</ns3:atemp>
          </ns3:TrackPointExtension>
        </extensions>
      </trkpt>
      <trkpt lat="43.0845948122441768646240234375" lon="13.0010347254574298858642578125">
        <ele>663</ele>
        <time>2021-06-04T07:49:45.000Z</time>
        <extensions>
          <ns3:TrackPointExtension>
            <ns3:atemp>25.0</ns3:atemp>
          </ns3:TrackPointExtension>
        </extensions>
      </trkpt>
      <trkpt lat="43.08455348946154117584228515625" lon="13.00100496970117092132568359375">
        <ele>661</ele>
        <time>2021-06-04T07:49:46.000Z</time>
        <extensions>
          <ns3:TrackPointExtension>
            <ns3:atemp>25.0</ns3:atemp>
          </ns3:TrackPointExtension>
        </extensions>
      </trkpt>
      <trkpt lat="43.0844660662114620208740234375" lon="13.00096591003239154815673828125">
        <ele>659.20001220703125</ele>
        <time>2021-06-04T07:49:48.000Z</time>
        <extensions>
          <ns3:TrackPointExtension>
            <ns3:atemp>25.0</ns3:atemp>
          </ns3:TrackPointExtension>
        </extensions>
      </trkpt>
      <trkpt lat="43.0843849293887615203857421875" lon="13.00091511569917201995849609375">
        <ele>658</ele>
        <time>2021-06-04T07:49:50.000Z</time>
        <extensions>
          <ns3:TrackPointExtension>
            <ns3:atemp>25.0</ns3:atemp>
          </ns3:TrackPointExtension>
        </extensions>
      </trkpt>
      <trkpt lat="43.08434058912098407745361328125" lon="13.0008865334093570709228515625">
        <ele>657.4000244140625</ele>
        <time>2021-06-04T07:49:51.000Z</time>
        <extensions>
          <ns3:TrackPointExtension>
            <ns3:atemp>25.0</ns3:atemp>
          </ns3:TrackPointExtension>
        </extensions>
      </trkpt>
      <trkpt lat="43.08429515920579433441162109375" lon="13.00085795111954212188720703125">
        <ele>656.5999755859375</ele>
        <time>2021-06-04T07:49:52.000Z</time>
        <extensions>
          <ns3:TrackPointExtension>
            <ns3:atemp>25.0</ns3:atemp>
          </ns3:TrackPointExtension>
        </extensions>
      </trkpt>
      <trkpt lat="43.08419859968125820159912109375" lon="13.00080933608114719390869140625">
        <ele>655.20001220703125</ele>
        <time>2021-06-04T07:49:54.000Z</time>
        <extensions>
          <ns3:TrackPointExtension>
            <ns3:atemp>25.0</ns3:atemp>
          </ns3:TrackPointExtension>
        </extensions>
      </trkpt>
      <trkpt lat="43.08409206569194793701171875" lon="13.0007919855415821075439453125">
        <ele>653.79998779296875</ele>
        <time>2021-06-04T07:49:56.000Z</time>
        <extensions>
          <ns3:TrackPointExtension>
            <ns3:atemp>25.0</ns3:atemp>
          </ns3:TrackPointExtension>
        </extensions>
      </trkpt>
      <trkpt lat="43.083987794816493988037109375" lon="13.00079139880836009979248046875">
        <ele>652.4000244140625</ele>
        <time>2021-06-04T07:49:58.000Z</time>
        <extensions>
          <ns3:TrackPointExtension>
            <ns3:atemp>25.0</ns3:atemp>
          </ns3:TrackPointExtension>
        </extensions>
      </trkpt>
      <trkpt lat="43.08386399410665035247802734375" lon="13.000809587538242340087890625">
        <ele>651</ele>
        <time>2021-06-04T07:50:00.000Z</time>
        <extensions>
          <ns3:TrackPointExtension>
            <ns3:atemp>25.0</ns3:atemp>
          </ns3:TrackPointExtension>
        </extensions>
      </trkpt>
      <trkpt lat="43.08380314148962497711181640625" lon="13.00081637687981128692626953125">
        <ele>650.4000244140625</ele>
        <time>2021-06-04T07:50:01.000Z</time>
        <extensions>
          <ns3:TrackPointExtension>
            <ns3:atemp>25.0</ns3:atemp>
          </ns3:TrackPointExtension>
        </extensions>
      </trkpt>
      <trkpt lat="43.08373801410198211669921875" lon="13.00082341767847537994384765625">
        <ele>650</ele>
        <time>2021-06-04T07:50:02.000Z</time>
        <extensions>
          <ns3:TrackPointExtension>
            <ns3:atemp>25.0</ns3:atemp>
          </ns3:TrackPointExtension>
        </extensions>
      </trkpt>
      <trkpt lat="43.08363340795040130615234375" lon="13.000807575881481170654296875">
        <ele>648.79998779296875</ele>
        <time>2021-06-04T07:50:04.000Z</time>
        <extensions>
          <ns3:TrackPointExtension>
            <ns3:atemp>25.0</ns3:atemp>
          </ns3:TrackPointExtension>
        </extensions>
      </trkpt>
      <trkpt lat="43.0835913307964801788330078125" lon="13.0007899738848209381103515625">
        <ele>648</ele>
        <time>2021-06-04T07:50:05.000Z</time>
        <extensions>
          <ns3:TrackPointExtension>
            <ns3:atemp>25.0</ns3:atemp>
          </ns3:TrackPointExtension>
        </extensions>
      </trkpt>
      <trkpt lat="43.08355570770800113677978515625" lon="13.00076759420335292816162109375">
        <ele>647.20001220703125</ele>
        <time>2021-06-04T07:50:06.000Z</time>
        <extensions>
          <ns3:TrackPointExtension>
            <ns3:atemp>25.0</ns3:atemp>
          </ns3:TrackPointExtension>
        </extensions>
      </trkpt>
      <trkpt lat="43.0834920890629291534423828125" lon="13.000722415745258331298828125">
        <ele>646.20001220703125</ele>
        <time>2021-06-04T07:50:08.000Z</time>
        <extensions>
          <ns3:TrackPointExtension>
            <ns3:atemp>25.0</ns3:atemp>
          </ns3:TrackPointExtension>
        </extensions>
      </trkpt>
      <trkpt lat="43.0834344215691089630126953125" lon="13.00068092532455921173095703125">
        <ele>645.79998779296875</ele>
        <time>2021-06-04T07:50:10.000Z</time>
        <extensions>
          <ns3:TrackPointExtension>
            <ns3:atemp>25.0</ns3:atemp>
          </ns3:TrackPointExtension>
        </extensions>
      </trkpt>
      <trkpt lat="43.0832788534462451934814453125" lon="13.00055670551955699920654296875">
        <ele>645.79998779296875</ele>
        <time>2021-06-04T07:50:15.000Z</time>
        <extensions>
          <ns3:TrackPointExtension>
            <ns3:atemp>25.0</ns3:atemp>
          </ns3:TrackPointExtension>
        </extensions>
      </trkpt>
      <trkpt lat="43.083242811262607574462890625" lon="13.0005358345806598663330078125">
        <ele>646.20001220703125</ele>
        <time>2021-06-04T07:50:19.000Z</time>
        <extensions>
          <ns3:TrackPointExtension>
            <ns3:atemp>25.0</ns3:atemp>
          </ns3:TrackPointExtension>
        </extensions>
      </trkpt>
      <trkpt lat="43.083237111568450927734375" lon="13.00053122453391551971435546875">
        <ele>647.4000244140625</ele>
        <time>2021-06-04T07:50:22.000Z</time>
        <extensions>
          <ns3:TrackPointExtension>
            <ns3:atemp>25.0</ns3:atemp>
          </ns3:TrackPointExtension>
        </extensions>
      </trkpt>
      <trkpt lat="43.0831977166235446929931640625" lon="13.00048135221004486083984375">
        <ele>648</ele>
        <time>2021-06-04T07:50:25.000Z</time>
        <extensions>
          <ns3:TrackPointExtension>
            <ns3:atemp>25.0</ns3:atemp>
          </ns3:TrackPointExtension>
        </extensions>
      </trkpt>
      <trkpt lat="43.08307609520852565765380859375" lon="13.00035755150020122528076171875">
        <ele>648.20001220703125</ele>
        <time>2021-06-04T07:50:29.000Z</time>
        <extensions>
          <ns3:TrackPointExtension>
            <ns3:atemp>25.0</ns3:atemp>
          </ns3:TrackPointExtension>
        </extensions>
      </trkpt>
      <trkpt lat="43.0829997360706329345703125" lon="13.00026132725179195404052734375">
        <ele>648.20001220703125</ele>
        <time>2021-06-04T07:50:31.000Z</time>
        <extensions>
          <ns3:TrackPointExtension>
            <ns3:atemp>25.0</ns3:atemp>
          </ns3:TrackPointExtension>
        </extensions>
      </trkpt>
      <trkpt lat="43.0828993208706378936767578125" lon="13.00008798949420452117919921875">
        <ele>647.4000244140625</ele>
        <time>2021-06-04T07:50:34.000Z</time>
        <extensions>
          <ns3:TrackPointExtension>
            <ns3:atemp>25.0</ns3:atemp>
          </ns3:TrackPointExtension>
        </extensions>
      </trkpt>
      <trkpt lat="43.08281675912439823150634765625" lon="12.99998774193227291107177734375">
        <ele>646.79998779296875</ele>
        <time>2021-06-04T07:50:36.000Z</time>
        <extensions>
          <ns3:TrackPointExtension>
            <ns3:atemp>25.0</ns3:atemp>
          </ns3:TrackPointExtension>
        </extensions>
      </trkpt>
      <trkpt lat="43.082775436341762542724609375" lon="12.99994197674095630645751953125">
        <ele>646.20001220703125</ele>
        <time>2021-06-04T07:50:37.000Z</time>
        <extensions>
          <ns3:TrackPointExtension>
            <ns3:atemp>25.0</ns3:atemp>
          </ns3:TrackPointExtension>
        </extensions>
      </trkpt>
      <trkpt lat="43.08267527259886264801025390625" lon="12.99986670725047588348388671875">
        <ele>645.20001220703125</ele>
        <time>2021-06-04T07:50:39.000Z</time>
        <extensions>
          <ns3:TrackPointExtension>
            <ns3:atemp>25.0</ns3:atemp>
          </ns3:TrackPointExtension>
        </extensions>
      </trkpt>
      <trkpt lat="43.08247947134077548980712890625" lon="12.99971767701208591461181640625">
        <ele>644.20001220703125</ele>
        <time>2021-06-04T07:50:43.000Z</time>
        <extensions>
          <ns3:TrackPointExtension>
            <ns3:atemp>25.0</ns3:atemp>
          </ns3:TrackPointExtension>
        </extensions>
      </trkpt>
      <trkpt lat="43.082440830767154693603515625" lon="12.99967677332460880279541015625">
        <ele>643.79998779296875</ele>
        <time>2021-06-04T07:50:44.000Z</time>
        <extensions>
          <ns3:TrackPointExtension>
            <ns3:atemp>25.0</ns3:atemp>
          </ns3:TrackPointExtension>
        </extensions>
      </trkpt>
      <trkpt lat="43.08233194984495639801025390625" lon="12.9995836503803730010986328125">
        <ele>643.20001220703125</ele>
        <time>2021-06-04T07:50:47.000Z</time>
        <extensions>
          <ns3:TrackPointExtension>
            <ns3:atemp>25.0</ns3:atemp>
          </ns3:TrackPointExtension>
        </extensions>
      </trkpt>
      <trkpt lat="43.0823105759918689727783203125" lon="12.9995222948491573333740234375">
        <ele>643</ele>
        <time>2021-06-04T07:50:48.000Z</time>
        <extensions>
          <ns3:TrackPointExtension>
            <ns3:atemp>25.0</ns3:atemp>
          </ns3:TrackPointExtension>
        </extensions>
      </trkpt>
      <trkpt lat="43.0822901241481304168701171875" lon="12.9994599334895610809326171875">
        <ele>642.79998779296875</ele>
        <time>2021-06-04T07:50:49.000Z</time>
        <extensions>
          <ns3:TrackPointExtension>
            <ns3:atemp>25.0</ns3:atemp>
          </ns3:TrackPointExtension>
        </extensions>
      </trkpt>
      <trkpt lat="43.08221979998052120208740234375" lon="12.99920051358640193939208984375">
        <ele>642.4000244140625</ele>
        <time>2021-06-04T07:50:53.000Z</time>
        <extensions>
          <ns3:TrackPointExtension>
            <ns3:atemp>25.0</ns3:atemp>
          </ns3:TrackPointExtension>
        </extensions>
      </trkpt>
      <trkpt lat="43.0821469612419605255126953125" lon="12.9989684186875820159912109375">
        <ele>642.4000244140625</ele>
        <time>2021-06-04T07:50:57.000Z</time>
        <extensions>
          <ns3:TrackPointExtension>
            <ns3:atemp>25.0</ns3:atemp>
          </ns3:TrackPointExtension>
        </extensions>
      </trkpt>
      <trkpt lat="43.082120306789875030517578125" lon="12.9989345557987689971923828125">
        <ele>642.4000244140625</ele>
        <time>2021-06-04T07:50:58.000Z</time>
        <extensions>
          <ns3:TrackPointExtension>
            <ns3:atemp>25.0</ns3:atemp>
          </ns3:TrackPointExtension>
        </extensions>
      </trkpt>
      <trkpt lat="43.0820550955832004547119140625" lon="12.99884612672030925750732421875">
        <ele>642.20001220703125</ele>
        <time>2021-06-04T07:51:00.000Z</time>
        <extensions>
          <ns3:TrackPointExtension>
            <ns3:atemp>25.0</ns3:atemp>
          </ns3:TrackPointExtension>
        </extensions>
      </trkpt>
      <trkpt lat="43.0819206498563289642333984375" lon="12.99863867461681365966796875">
        <ele>642</ele>
        <time>2021-06-04T07:51:05.000Z</time>
        <extensions>
          <ns3:TrackPointExtension>
            <ns3:atemp>25.0</ns3:atemp>
          </ns3:TrackPointExtension>
        </extensions>
      </trkpt>
      <trkpt lat="43.081813864409923553466796875" lon="12.9984891414642333984375">
        <ele>641.5999755859375</ele>
        <time>2021-06-04T07:51:09.000Z</time>
        <extensions>
          <ns3:TrackPointExtension>
            <ns3:atemp>25.0</ns3:atemp>
          </ns3:TrackPointExtension>
        </extensions>
      </trkpt>
      <trkpt lat="43.08166961185634136199951171875" lon="12.998311109840869903564453125">
        <ele>641</ele>
        <time>2021-06-04T07:51:13.000Z</time>
        <extensions>
          <ns3:TrackPointExtension>
            <ns3:atemp>25.0</ns3:atemp>
          </ns3:TrackPointExtension>
        </extensions>
      </trkpt>
      <trkpt lat="43.08163809590041637420654296875" lon="12.99825184978544712066650390625">
        <ele>640.5999755859375</ele>
        <time>2021-06-04T07:51:14.000Z</time>
        <extensions>
          <ns3:TrackPointExtension>
            <ns3:atemp>25.0</ns3:atemp>
          </ns3:TrackPointExtension>
        </extensions>
      </trkpt>
      <trkpt lat="43.0815471522510051727294921875" lon="12.99809879623353481292724609375">
        <ele>639.4000244140625</ele>
        <time>2021-06-04T07:51:17.000Z</time>
        <extensions>
          <ns3:TrackPointExtension>
            <ns3:atemp>25.0</ns3:atemp>
          </ns3:TrackPointExtension>
        </extensions>
      </trkpt>
      <trkpt lat="43.08148629963397979736328125" lon="12.997999973595142364501953125">
        <ele>639.20001220703125</ele>
        <time>2021-06-04T07:51:19.000Z</time>
        <extensions>
          <ns3:TrackPointExtension>
            <ns3:atemp>25.0</ns3:atemp>
          </ns3:TrackPointExtension>
        </extensions>
      </trkpt>
      <trkpt lat="43.08135663159191608428955078125" lon="12.9977929405868053436279296875">
        <ele>639.20001220703125</ele>
        <time>2021-06-04T07:51:24.000Z</time>
        <extensions>
          <ns3:TrackPointExtension>
            <ns3:atemp>25.0</ns3:atemp>
          </ns3:TrackPointExtension>
        </extensions>
      </trkpt>
      <trkpt lat="43.0812229402363300323486328125" lon="12.99757895059883594512939453125">
        <ele>640.79998779296875</ele>
        <time>2021-06-04T07:51:29.000Z</time>
        <extensions>
          <ns3:TrackPointExtension>
            <ns3:atemp>25.0</ns3:atemp>
          </ns3:TrackPointExtension>
        </extensions>
      </trkpt>
      <trkpt lat="43.08112286031246185302734375" lon="12.99745171330869197845458984375">
        <ele>642</ele>
        <time>2021-06-04T07:51:32.000Z</time>
        <extensions>
          <ns3:TrackPointExtension>
            <ns3:atemp>25.0</ns3:atemp>
          </ns3:TrackPointExtension>
        </extensions>
      </trkpt>
      <trkpt lat="43.0810422264039516448974609375" lon="12.99739278852939605712890625">
        <ele>642</ele>
        <time>2021-06-04T07:51:34.000Z</time>
        <extensions>
          <ns3:TrackPointExtension>
            <ns3:atemp>25.0</ns3:atemp>
          </ns3:TrackPointExtension>
        </extensions>
      </trkpt>
      <trkpt lat="43.0809889174997806549072265625" lon="12.99738398753106594085693359375">
        <ele>642.20001220703125</ele>
        <time>2021-06-04T07:51:35.000Z</time>
        <extensions>
          <ns3:TrackPointExtension>
            <ns3:atemp>25.0</ns3:atemp>
          </ns3:TrackPointExtension>
        </extensions>
      </trkpt>
      <trkpt lat="43.08089730329811573028564453125" lon="12.9972566664218902587890625">
        <ele>642.79998779296875</ele>
        <time>2021-06-04T07:51:38.000Z</time>
        <extensions>
          <ns3:TrackPointExtension>
            <ns3:atemp>25.0</ns3:atemp>
          </ns3:TrackPointExtension>
        </extensions>
      </trkpt>
      <trkpt lat="43.0808759294450283050537109375" lon="12.99721048213541507720947265625">
        <ele>643</ele>
        <time>2021-06-04T07:51:39.000Z</time>
        <extensions>
          <ns3:TrackPointExtension>
            <ns3:atemp>25.0</ns3:atemp>
          </ns3:TrackPointExtension>
        </extensions>
      </trkpt>
      <trkpt lat="43.08085807599127292633056640625" lon="12.99716203473508358001708984375">
        <ele>643</ele>
        <time>2021-06-04T07:51:40.000Z</time>
        <extensions>
          <ns3:TrackPointExtension>
            <ns3:atemp>25.0</ns3:atemp>
          </ns3:TrackPointExtension>
        </extensions>
      </trkpt>
      <trkpt lat="43.08078716509044170379638671875" lon="12.9969446919858455657958984375">
        <ele>644.20001220703125</ele>
        <time>2021-06-04T07:51:45.000Z</time>
        <extensions>
          <ns3:TrackPointExtension>
            <ns3:atemp>25.0</ns3:atemp>
          </ns3:TrackPointExtension>
        </extensions>
      </trkpt>
      <trkpt lat="43.08078045956790447235107421875" lon="12.996921055018901824951171875">
        <ele>644.79998779296875</ele>
        <time>2021-06-04T07:51:46.000Z</time>
        <extensions>
          <ns3:TrackPointExtension>
            <ns3:atemp>25.0</ns3:atemp>
          </ns3:TrackPointExtension>
        </extensions>
      </trkpt>
      <trkpt lat="43.0807746760547161102294921875" lon="12.99690621905028820037841796875">
        <ele>645.5999755859375</ele>
        <time>2021-06-04T07:51:47.000Z</time>
        <extensions>
          <ns3:TrackPointExtension>
            <ns3:atemp>25.0</ns3:atemp>
          </ns3:TrackPointExtension>
        </extensions>
      </trkpt>
      <trkpt lat="43.08076017536222934722900390625" lon="12.99689230509102344512939453125">
        <ele>646.5999755859375</ele>
        <time>2021-06-04T07:51:49.000Z</time>
        <extensions>
          <ns3:TrackPointExtension>
            <ns3:atemp>25.0</ns3:atemp>
          </ns3:TrackPointExtension>
        </extensions>
      </trkpt>
      <trkpt lat="43.08075950480997562408447265625" lon="12.99689012579619884490966796875">
        <ele>647.5999755859375</ele>
        <time>2021-06-04T07:51:51.000Z</time>
        <extensions>
          <ns3:TrackPointExtension>
            <ns3:atemp>25.0</ns3:atemp>
          </ns3:TrackPointExtension>
        </extensions>
      </trkpt>
      <trkpt lat="43.08075564913451671600341796875" lon="12.99688643775880336761474609375">
        <ele>648.20001220703125</ele>
        <time>2021-06-04T07:51:52.000Z</time>
        <extensions>
          <ns3:TrackPointExtension>
            <ns3:atemp>25.0</ns3:atemp>
          </ns3:TrackPointExtension>
        </extensions>
      </trkpt>
      <trkpt lat="43.0807391367852687835693359375" lon="12.99686011858284473419189453125">
        <ele>649.4000244140625</ele>
        <time>2021-06-04T07:51:55.000Z</time>
        <extensions>
          <ns3:TrackPointExtension>
            <ns3:atemp>25.0</ns3:atemp>
          </ns3:TrackPointExtension>
        </extensions>
      </trkpt>
      <trkpt lat="43.08072748593986034393310546875" lon="12.9968273453414440155029296875">
        <ele>649.4000244140625</ele>
        <time>2021-06-04T07:51:57.000Z</time>
        <extensions>
          <ns3:TrackPointExtension>
            <ns3:atemp>25.0</ns3:atemp>
          </ns3:TrackPointExtension>
        </extensions>
      </trkpt>
      <trkpt lat="43.080719523131847381591796875" lon="12.996821813285350799560546875">
        <ele>649.5999755859375</ele>
        <time>2021-06-04T07:51:58.000Z</time>
        <extensions>
          <ns3:TrackPointExtension>
            <ns3:atemp>25.0</ns3:atemp>
          </ns3:TrackPointExtension>
        </extensions>
      </trkpt>
      <trkpt lat="43.08071516454219818115234375" lon="12.99683664925396442413330078125">
        <ele>649.5999755859375</ele>
        <time>2021-06-04T07:52:07.000Z</time>
        <extensions>
          <ns3:TrackPointExtension>
            <ns3:atemp>25.0</ns3:atemp>
          </ns3:TrackPointExtension>
        </extensions>
      </trkpt>
      <trkpt lat="43.08071491308510303497314453125" lon="12.99683648161590099334716796875">
        <ele>649.5999755859375</ele>
        <time>2021-06-04T07:52:22.000Z</time>
        <extensions>
          <ns3:TrackPointExtension>
            <ns3:atemp>25.0</ns3:atemp>
          </ns3:TrackPointExtension>
        </extensions>
      </trkpt>
      <trkpt lat="43.08071038685739040374755859375" lon="12.99683480523526668548583984375">
        <ele>649.79998779296875</ele>
        <time>2021-06-04T07:52:44.000Z</time>
        <extensions>
          <ns3:TrackPointExtension>
            <ns3:atemp>25.0</ns3:atemp>
          </ns3:TrackPointExtension>
        </extensions>
      </trkpt>
      <trkpt lat="43.08070954866707324981689453125" lon="12.99683145247399806976318359375">
        <ele>649.5999755859375</ele>
        <time>2021-06-04T07:53:00.000Z</time>
        <extensions>
          <ns3:TrackPointExtension>
            <ns3:atemp>25.0</ns3:atemp>
          </ns3:TrackPointExtension>
        </extensions>
      </trkpt>
      <trkpt lat="43.08070485480129718780517578125" lon="12.99682491458952426910400390625">
        <ele>649.5999755859375</ele>
        <time>2021-06-04T07:53:08.000Z</time>
        <extensions>
          <ns3:TrackPointExtension>
            <ns3:atemp>25.0</ns3:atemp>
          </ns3:TrackPointExtension>
        </extensions>
      </trkpt>
      <trkpt lat="43.08070711791515350341796875" lon="12.9968226514756679534912109375">
        <ele>649.4000244140625</ele>
        <time>2021-06-04T07:53:20.000Z</time>
        <extensions>
          <ns3:TrackPointExtension>
            <ns3:atemp>25.0</ns3:atemp>
          </ns3:TrackPointExtension>
        </extensions>
      </trkpt>
      <trkpt lat="43.08070753701031208038330078125" lon="12.99682189710438251495361328125">
        <ele>649.79998779296875</ele>
        <time>2021-06-04T07:53:57.000Z</time>
        <extensions>
          <ns3:TrackPointExtension>
            <ns3:atemp>25.0</ns3:atemp>
          </ns3:TrackPointExtension>
        </extensions>
      </trkpt>
      <trkpt lat="43.08070837520062923431396484375" lon="12.9968162812292575836181640625">
        <ele>649.5999755859375</ele>
        <time>2021-06-04T07:54:30.000Z</time>
        <extensions>
          <ns3:TrackPointExtension>
            <ns3:atemp>25.0</ns3:atemp>
          </ns3:TrackPointExtension>
        </extensions>
      </trkpt>
      <trkpt lat="43.080717511475086212158203125" lon="12.99679591320455074310302734375">
        <ele>649.5999755859375</ele>
        <time>2021-06-04T07:54:47.000Z</time>
        <extensions>
          <ns3:TrackPointExtension>
            <ns3:atemp>25.0</ns3:atemp>
          </ns3:TrackPointExtension>
        </extensions>
      </trkpt>
      <trkpt lat="43.08073737658560276031494140625" lon="12.99676775000989437103271484375">
        <ele>649.5999755859375</ele>
        <time>2021-06-04T07:54:49.000Z</time>
        <extensions>
          <ns3:TrackPointExtension>
            <ns3:atemp>25.0</ns3:atemp>
          </ns3:TrackPointExtension>
        </extensions>
      </trkpt>
      <trkpt lat="43.08075196109712123870849609375" lon="12.9967599548399448394775390625">
        <ele>649.79998779296875</ele>
        <time>2021-06-04T07:54:54.000Z</time>
        <extensions>
          <ns3:TrackPointExtension>
            <ns3:atemp>25.0</ns3:atemp>
          </ns3:TrackPointExtension>
        </extensions>
      </trkpt>
      <trkpt lat="43.08075807988643646240234375" lon="12.99674746580421924591064453125">
        <ele>650</ele>
        <time>2021-06-04T07:55:07.000Z</time>
        <extensions>
          <ns3:TrackPointExtension>
            <ns3:atemp>25.0</ns3:atemp>
          </ns3:TrackPointExtension>
        </extensions>
      </trkpt>
      <trkpt lat="43.08075933717191219329833984375" lon="12.99673791043460369110107421875">
        <ele>650.20001220703125</ele>
        <time>2021-06-04T07:55:21.000Z</time>
        <extensions>
          <ns3:TrackPointExtension>
            <ns3:atemp>25.0</ns3:atemp>
          </ns3:TrackPointExtension>
        </extensions>
      </trkpt>
      <trkpt lat="43.08076051063835620880126953125" lon="12.99672567285597324371337890625">
        <ele>650.20001220703125</ele>
        <time>2021-06-04T07:55:36.000Z</time>
        <extensions>
          <ns3:TrackPointExtension>
            <ns3:atemp>25.0</ns3:atemp>
          </ns3:TrackPointExtension>
        </extensions>
      </trkpt>
      <trkpt lat="43.08076956309378147125244140625" lon="12.99671863205730915069580078125">
        <ele>650.20001220703125</ele>
        <time>2021-06-04T07:55:51.000Z</time>
        <extensions>
          <ns3:TrackPointExtension>
            <ns3:atemp>25.0</ns3:atemp>
          </ns3:TrackPointExtension>
        </extensions>
      </trkpt>
      <trkpt lat="43.08077953755855560302734375" lon="12.99670589156448841094970703125">
        <ele>650.20001220703125</ele>
        <time>2021-06-04T07:56:06.000Z</time>
        <extensions>
          <ns3:TrackPointExtension>
            <ns3:atemp>25.0</ns3:atemp>
          </ns3:TrackPointExtension>
        </extensions>
      </trkpt>
      <trkpt lat="43.0807857401669025421142578125" lon="12.99669675529003143310546875">
        <ele>650.4000244140625</ele>
        <time>2021-06-04T07:56:19.000Z</time>
        <extensions>
          <ns3:TrackPointExtension>
            <ns3:atemp>25.0</ns3:atemp>
          </ns3:TrackPointExtension>
        </extensions>
      </trkpt>
      <trkpt lat="43.08076285757124423980712890625" lon="12.99666683189570903778076171875">
        <ele>650.4000244140625</ele>
        <time>2021-06-04T07:56:29.000Z</time>
        <extensions>
          <ns3:TrackPointExtension>
            <ns3:atemp>25.0</ns3:atemp>
          </ns3:TrackPointExtension>
        </extensions>
      </trkpt>
      <trkpt lat="43.08077953755855560302734375" lon="12.9966372437775135040283203125">
        <ele>650.4000244140625</ele>
        <time>2021-06-04T07:56:31.000Z</time>
        <extensions>
          <ns3:TrackPointExtension>
            <ns3:atemp>25.0</ns3:atemp>
          </ns3:TrackPointExtension>
        </extensions>
      </trkpt>
      <trkpt lat="43.08079957030713558197021484375" lon="12.99660027958452701568603515625">
        <ele>650.4000244140625</ele>
        <time>2021-06-04T07:56:35.000Z</time>
        <extensions>
          <ns3:TrackPointExtension>
            <ns3:atemp>25.0</ns3:atemp>
          </ns3:TrackPointExtension>
        </extensions>
      </trkpt>
      <trkpt lat="43.08081482537090778350830078125" lon="12.996551580727100372314453125">
        <ele>650.5999755859375</ele>
        <time>2021-06-04T07:56:41.000Z</time>
        <extensions>
          <ns3:TrackPointExtension>
            <ns3:atemp>25.0</ns3:atemp>
          </ns3:TrackPointExtension>
        </extensions>
      </trkpt>
      <trkpt lat="43.080828152596950531005859375" lon="12.99652283079922199249267578125">
        <ele>650.5999755859375</ele>
        <time>2021-06-04T07:56:42.000Z</time>
        <extensions>
          <ns3:TrackPointExtension>
            <ns3:atemp>25.0</ns3:atemp>
          </ns3:TrackPointExtension>
        </extensions>
      </trkpt>
      <trkpt lat="43.08090166188776493072509765625" lon="12.9963177256286144256591796875">
        <ele>650.79998779296875</ele>
        <time>2021-06-04T07:56:48.000Z</time>
        <extensions>
          <ns3:TrackPointExtension>
            <ns3:atemp>25.0</ns3:atemp>
          </ns3:TrackPointExtension>
        </extensions>
      </trkpt>
      <trkpt lat="43.0808564834296703338623046875" lon="12.99612569622695446014404296875">
        <ele>650.79998779296875</ele>
        <time>2021-06-04T07:56:53.000Z</time>
        <extensions>
          <ns3:TrackPointExtension>
            <ns3:atemp>24.0</ns3:atemp>
          </ns3:TrackPointExtension>
        </extensions>
      </trkpt>
      <trkpt lat="43.08073285035789012908935546875" lon="12.99574381671845912933349609375">
        <ele>650.5999755859375</ele>
        <time>2021-06-04T07:57:00.000Z</time>
        <extensions>
          <ns3:TrackPointExtension>
            <ns3:atemp>24.0</ns3:atemp>
          </ns3:TrackPointExtension>
        </extensions>
      </trkpt>
      <trkpt lat="43.08062841184437274932861328125" lon="12.995578609406948089599609375">
        <ele>648.79998779296875</ele>
        <time>2021-06-04T07:57:04.000Z</time>
        <extensions>
          <ns3:TrackPointExtension>
            <ns3:atemp>24.0</ns3:atemp>
          </ns3:TrackPointExtension>
        </extensions>
      </trkpt>
      <trkpt lat="43.08060661889612674713134765625" lon="12.995529659092426300048828125">
        <ele>648.5999755859375</ele>
        <time>2021-06-04T07:57:05.000Z</time>
        <extensions>
          <ns3:TrackPointExtension>
            <ns3:atemp>24.0</ns3:atemp>
          </ns3:TrackPointExtension>
        </extensions>
      </trkpt>
      <trkpt lat="43.080587089061737060546875" lon="12.9954798705875873565673828125">
        <ele>648.20001220703125</ele>
        <time>2021-06-04T07:57:06.000Z</time>
        <extensions>
          <ns3:TrackPointExtension>
            <ns3:atemp>24.0</ns3:atemp>
          </ns3:TrackPointExtension>
        </extensions>
      </trkpt>
      <trkpt lat="43.0805490352213382720947265625" lon="12.995391525328159332275390625">
        <ele>647.4000244140625</ele>
        <time>2021-06-04T07:57:08.000Z</time>
        <extensions>
          <ns3:TrackPointExtension>
            <ns3:atemp>24.0</ns3:atemp>
          </ns3:TrackPointExtension>
        </extensions>
      </trkpt>
      <trkpt lat="43.080515004694461822509765625" lon="12.99529186449944972991943359375">
        <ele>646</ele>
        <time>2021-06-04T07:57:10.000Z</time>
        <extensions>
          <ns3:TrackPointExtension>
            <ns3:atemp>24.0</ns3:atemp>
          </ns3:TrackPointExtension>
        </extensions>
      </trkpt>
      <trkpt lat="43.08049916289746761322021484375" lon="12.99523361027240753173828125">
        <ele>645.4000244140625</ele>
        <time>2021-06-04T07:57:11.000Z</time>
        <extensions>
          <ns3:TrackPointExtension>
            <ns3:atemp>24.0</ns3:atemp>
          </ns3:TrackPointExtension>
        </extensions>
      </trkpt>
      <trkpt lat="43.08048189617693424224853515625" lon="12.9951672255992889404296875">
        <ele>644.5999755859375</ele>
        <time>2021-06-04T07:57:12.000Z</time>
        <extensions>
          <ns3:TrackPointExtension>
            <ns3:atemp>24.0</ns3:atemp>
          </ns3:TrackPointExtension>
        </extensions>
      </trkpt>
      <trkpt lat="43.0804370529949665069580078125" lon="12.99502850510179996490478515625">
        <ele>643.4000244140625</ele>
        <time>2021-06-04T07:57:14.000Z</time>
        <extensions>
          <ns3:TrackPointExtension>
            <ns3:atemp>24.0</ns3:atemp>
          </ns3:TrackPointExtension>
        </extensions>
      </trkpt>
      <trkpt lat="43.0803971551358699798583984375" lon="12.99489573575556278228759765625">
        <ele>642</ele>
        <time>2021-06-04T07:57:16.000Z</time>
        <extensions>
          <ns3:TrackPointExtension>
            <ns3:atemp>24.0</ns3:atemp>
          </ns3:TrackPointExtension>
        </extensions>
      </trkpt>
      <trkpt lat="43.0803592689335346221923828125" lon="12.994779646396636962890625">
        <ele>640.20001220703125</ele>
        <time>2021-06-04T07:57:18.000Z</time>
        <extensions>
          <ns3:TrackPointExtension>
            <ns3:atemp>24.0</ns3:atemp>
          </ns3:TrackPointExtension>
        </extensions>
      </trkpt>
      <trkpt lat="43.08033973909914493560791015625" lon="12.99472575075924396514892578125">
        <ele>639.20001220703125</ele>
        <time>2021-06-04T07:57:19.000Z</time>
        <extensions>
          <ns3:TrackPointExtension>
            <ns3:atemp>24.0</ns3:atemp>
          </ns3:TrackPointExtension>
        </extensions>
      </trkpt>
      <trkpt lat="43.08031459338963031768798828125" lon="12.9946718551218509674072265625">
        <ele>638</ele>
        <time>2021-06-04T07:57:20.000Z</time>
        <extensions>
          <ns3:TrackPointExtension>
            <ns3:atemp>24.0</ns3:atemp>
          </ns3:TrackPointExtension>
        </extensions>
      </trkpt>
      <trkpt lat="43.08028659783303737640380859375" lon="12.9946155287325382232666015625">
        <ele>637</ele>
        <time>2021-06-04T07:57:21.000Z</time>
        <extensions>
          <ns3:TrackPointExtension>
            <ns3:atemp>24.0</ns3:atemp>
          </ns3:TrackPointExtension>
        </extensions>
      </trkpt>
      <trkpt lat="43.08026262558996677398681640625" lon="12.99455895088613033294677734375">
        <ele>636</ele>
        <time>2021-06-04T07:57:22.000Z</time>
        <extensions>
          <ns3:TrackPointExtension>
            <ns3:atemp>24.0</ns3:atemp>
          </ns3:TrackPointExtension>
        </extensions>
      </trkpt>
      <trkpt lat="43.08024032972753047943115234375" lon="12.9944730363786220550537109375">
        <ele>634.4000244140625</ele>
        <time>2021-06-04T07:57:24.000Z</time>
        <extensions>
          <ns3:TrackPointExtension>
            <ns3:atemp>24.0</ns3:atemp>
          </ns3:TrackPointExtension>
        </extensions>
      </trkpt>
      <trkpt lat="43.08023865334689617156982421875" lon="12.99445040524005889892578125">
        <ele>634</ele>
        <time>2021-06-04T07:57:25.000Z</time>
        <extensions>
          <ns3:TrackPointExtension>
            <ns3:atemp>24.0</ns3:atemp>
          </ns3:TrackPointExtension>
        </extensions>
      </trkpt>
      <trkpt lat="43.08024108409881591796875" lon="12.994425259530544281005859375">
        <ele>633.4000244140625</ele>
        <time>2021-06-04T07:57:27.000Z</time>
        <extensions>
          <ns3:TrackPointExtension>
            <ns3:atemp>24.0</ns3:atemp>
          </ns3:TrackPointExtension>
        </extensions>
      </trkpt>
      <trkpt lat="43.080235384404659271240234375" lon="12.99441813491284847259521484375">
        <ele>632.4000244140625</ele>
        <time>2021-06-04T07:57:30.000Z</time>
        <extensions>
          <ns3:TrackPointExtension>
            <ns3:atemp>24.0</ns3:atemp>
          </ns3:TrackPointExtension>
        </extensions>
      </trkpt>
      <trkpt lat="43.08023530058562755584716796875" lon="12.99441578797996044158935546875">
        <ele>632.4000244140625</ele>
        <time>2021-06-04T07:57:32.000Z</time>
        <extensions>
          <ns3:TrackPointExtension>
            <ns3:atemp>24.0</ns3:atemp>
          </ns3:TrackPointExtension>
        </extensions>
      </trkpt>
      <trkpt lat="43.08023647405207157135009765625" lon="12.9944123513996601104736328125">
        <ele>632.20001220703125</ele>
        <time>2021-06-04T07:57:40.000Z</time>
        <extensions>
          <ns3:TrackPointExtension>
            <ns3:atemp>24.0</ns3:atemp>
          </ns3:TrackPointExtension>
        </extensions>
      </trkpt>
      <trkpt lat="43.0802385695278644561767578125" lon="12.9943912290036678314208984375">
        <ele>632.20001220703125</ele>
        <time>2021-06-04T07:57:46.000Z</time>
        <extensions>
          <ns3:TrackPointExtension>
            <ns3:atemp>24.0</ns3:atemp>
          </ns3:TrackPointExtension>
        </extensions>
      </trkpt>
      <trkpt lat="43.080236725509166717529296875" lon="12.9943231679499149322509765625">
        <ele>632</ele>
        <time>2021-06-04T07:57:48.000Z</time>
        <extensions>
          <ns3:TrackPointExtension>
            <ns3:atemp>24.0</ns3:atemp>
          </ns3:TrackPointExtension>
        </extensions>
      </trkpt>
      <trkpt lat="43.08022004552185535430908203125" lon="12.9942832700908184051513671875">
        <ele>632</ele>
        <time>2021-06-04T07:57:49.000Z</time>
        <extensions>
          <ns3:TrackPointExtension>
            <ns3:atemp>24.0</ns3:atemp>
          </ns3:TrackPointExtension>
        </extensions>
      </trkpt>
      <trkpt lat="43.08006984181702136993408203125" lon="12.9940639995038509368896484375">
        <ele>632</ele>
        <time>2021-06-04T07:57:54.000Z</time>
        <extensions>
          <ns3:TrackPointExtension>
            <ns3:atemp>24.0</ns3:atemp>
          </ns3:TrackPointExtension>
        </extensions>
      </trkpt>
      <trkpt lat="43.08003631420433521270751953125" lon="12.9940058290958404541015625">
        <ele>631.79998779296875</ele>
        <time>2021-06-04T07:57:55.000Z</time>
        <extensions>
          <ns3:TrackPointExtension>
            <ns3:atemp>24.0</ns3:atemp>
          </ns3:TrackPointExtension>
        </extensions>
      </trkpt>
      <trkpt lat="43.079979233443737030029296875" lon="12.993874736130237579345703125">
        <ele>630.79998779296875</ele>
        <time>2021-06-04T07:57:57.000Z</time>
        <extensions>
          <ns3:TrackPointExtension>
            <ns3:atemp>24.0</ns3:atemp>
          </ns3:TrackPointExtension>
        </extensions>
      </trkpt>
      <trkpt lat="43.07992466725409030914306640625" lon="12.99375629983842372894287109375">
        <ele>629</ele>
        <time>2021-06-04T07:57:59.000Z</time>
        <extensions>
          <ns3:TrackPointExtension>
            <ns3:atemp>24.0</ns3:atemp>
          </ns3:TrackPointExtension>
        </extensions>
      </trkpt>
      <trkpt lat="43.0798923969268798828125" lon="12.9937055893242359161376953125">
        <ele>628.20001220703125</ele>
        <time>2021-06-04T07:58:00.000Z</time>
        <extensions>
          <ns3:TrackPointExtension>
            <ns3:atemp>24.0</ns3:atemp>
          </ns3:TrackPointExtension>
        </extensions>
      </trkpt>
      <trkpt lat="43.07985794730484485626220703125" lon="12.99365923739969730377197265625">
        <ele>627.20001220703125</ele>
        <time>2021-06-04T07:58:01.000Z</time>
        <extensions>
          <ns3:TrackPointExtension>
            <ns3:atemp>24.0</ns3:atemp>
          </ns3:TrackPointExtension>
        </extensions>
      </trkpt>
      <trkpt lat="43.079828359186649322509765625" lon="12.99361489713191986083984375">
        <ele>626.20001220703125</ele>
        <time>2021-06-04T07:58:02.000Z</time>
        <extensions>
          <ns3:TrackPointExtension>
            <ns3:atemp>24.0</ns3:atemp>
          </ns3:TrackPointExtension>
        </extensions>
      </trkpt>
      <trkpt lat="43.079809583723545074462890625" lon="12.993566282093524932861328125">
        <ele>625</ele>
        <time>2021-06-04T07:58:03.000Z</time>
        <extensions>
          <ns3:TrackPointExtension>
            <ns3:atemp>24.0</ns3:atemp>
          </ns3:TrackPointExtension>
        </extensions>
      </trkpt>
      <trkpt lat="43.07978016324341297149658203125" lon="12.99347215332090854644775390625">
        <ele>623.4000244140625</ele>
        <time>2021-06-04T07:58:05.000Z</time>
        <extensions>
          <ns3:TrackPointExtension>
            <ns3:atemp>24.0</ns3:atemp>
          </ns3:TrackPointExtension>
        </extensions>
      </trkpt>
      <trkpt lat="43.07972811162471771240234375" lon="12.99338615499436855316162109375">
        <ele>622</ele>
        <time>2021-06-04T07:58:07.000Z</time>
        <extensions>
          <ns3:TrackPointExtension>
            <ns3:atemp>24.0</ns3:atemp>
          </ns3:TrackPointExtension>
        </extensions>
      </trkpt>
      <trkpt lat="43.0796977691352367401123046875" lon="12.9933418147265911102294921875">
        <ele>621.4000244140625</ele>
        <time>2021-06-04T07:58:08.000Z</time>
        <extensions>
          <ns3:TrackPointExtension>
            <ns3:atemp>24.0</ns3:atemp>
          </ns3:TrackPointExtension>
        </extensions>
      </trkpt>
      <trkpt lat="43.07966449297964572906494140625" lon="12.99329613335430622100830078125">
        <ele>620.79998779296875</ele>
        <time>2021-06-04T07:58:09.000Z</time>
        <extensions>
          <ns3:TrackPointExtension>
            <ns3:atemp>24.0</ns3:atemp>
          </ns3:TrackPointExtension>
        </extensions>
      </trkpt>
      <trkpt lat="43.079576902091503143310546875" lon="12.9931309260427951812744140625">
        <ele>619.4000244140625</ele>
        <time>2021-06-04T07:58:12.000Z</time>
        <extensions>
          <ns3:TrackPointExtension>
            <ns3:atemp>24.0</ns3:atemp>
          </ns3:TrackPointExtension>
        </extensions>
      </trkpt>
      <trkpt lat="43.0795499123632907867431640625" lon="12.993062697350978851318359375">
        <ele>618.79998779296875</ele>
        <time>2021-06-04T07:58:13.000Z</time>
        <extensions>
          <ns3:TrackPointExtension>
            <ns3:atemp>24.0</ns3:atemp>
          </ns3:TrackPointExtension>
        </extensions>
      </trkpt>
      <trkpt lat="43.0795204080641269683837890625" lon="12.9929927922785282135009765625">
        <ele>618.20001220703125</ele>
        <time>2021-06-04T07:58:14.000Z</time>
        <extensions>
          <ns3:TrackPointExtension>
            <ns3:atemp>24.0</ns3:atemp>
          </ns3:TrackPointExtension>
        </extensions>
      </trkpt>
      <trkpt lat="43.07948210276663303375244140625" lon="12.99282808788120746612548828125">
        <ele>616</ele>
        <time>2021-06-04T07:58:16.000Z</time>
        <extensions>
          <ns3:TrackPointExtension>
            <ns3:atemp>24.0</ns3:atemp>
          </ns3:TrackPointExtension>
        </extensions>
      </trkpt>
      <trkpt lat="43.07946860790252685546875" lon="12.99274921417236328125">
        <ele>615</ele>
        <time>2021-06-04T07:58:17.000Z</time>
        <extensions>
          <ns3:TrackPointExtension>
            <ns3:atemp>24.0</ns3:atemp>
          </ns3:TrackPointExtension>
        </extensions>
      </trkpt>
      <trkpt lat="43.0794525146484375" lon="12.9926799796521663665771484375">
        <ele>614</ele>
        <time>2021-06-04T07:58:18.000Z</time>
        <extensions>
          <ns3:TrackPointExtension>
            <ns3:atemp>24.0</ns3:atemp>
          </ns3:TrackPointExtension>
        </extensions>
      </trkpt>
      <trkpt lat="43.07943114079535007476806640625" lon="12.9926176182925701141357421875">
        <ele>613.4000244140625</ele>
        <time>2021-06-04T07:58:19.000Z</time>
        <extensions>
          <ns3:TrackPointExtension>
            <ns3:atemp>24.0</ns3:atemp>
          </ns3:TrackPointExtension>
        </extensions>
      </trkpt>
      <trkpt lat="43.07938772253692150115966796875" lon="12.99249649979174137115478515625">
        <ele>611.5999755859375</ele>
        <time>2021-06-04T07:58:21.000Z</time>
        <extensions>
          <ns3:TrackPointExtension>
            <ns3:atemp>24.0</ns3:atemp>
          </ns3:TrackPointExtension>
        </extensions>
      </trkpt>
      <trkpt lat="43.0793638341128826141357421875" lon="12.9924389161169528961181640625">
        <ele>610.5999755859375</ele>
        <time>2021-06-04T07:58:22.000Z</time>
        <extensions>
          <ns3:TrackPointExtension>
            <ns3:atemp>24.0</ns3:atemp>
          </ns3:TrackPointExtension>
        </extensions>
      </trkpt>
      <trkpt lat="43.0793175660073757171630859375" lon="12.992325089871883392333984375">
        <ele>609.4000244140625</ele>
        <time>2021-06-04T07:58:24.000Z</time>
        <extensions>
          <ns3:TrackPointExtension>
            <ns3:atemp>24.0</ns3:atemp>
          </ns3:TrackPointExtension>
        </extensions>
      </trkpt>
      <trkpt lat="43.07929568924009799957275390625" lon="12.99227287061512470245361328125">
        <ele>609</ele>
        <time>2021-06-04T07:58:25.000Z</time>
        <extensions>
          <ns3:TrackPointExtension>
            <ns3:atemp>24.0</ns3:atemp>
          </ns3:TrackPointExtension>
        </extensions>
      </trkpt>
      <trkpt lat="43.079220168292522430419921875" lon="12.99212702549993991851806640625">
        <ele>608</ele>
        <time>2021-06-04T07:58:28.000Z</time>
        <extensions>
          <ns3:TrackPointExtension>
            <ns3:atemp>24.0</ns3:atemp>
          </ns3:TrackPointExtension>
        </extensions>
      </trkpt>
      <trkpt lat="43.07915336452424526214599609375" lon="12.99201655201613903045654296875">
        <ele>607</ele>
        <time>2021-06-04T07:58:30.000Z</time>
        <extensions>
          <ns3:TrackPointExtension>
            <ns3:atemp>24.0</ns3:atemp>
          </ns3:TrackPointExtension>
        </extensions>
      </trkpt>
      <trkpt lat="43.07912235148251056671142578125" lon="12.9919500835239887237548828125">
        <ele>606.5999755859375</ele>
        <time>2021-06-04T07:58:31.000Z</time>
        <extensions>
          <ns3:TrackPointExtension>
            <ns3:atemp>24.0</ns3:atemp>
          </ns3:TrackPointExtension>
        </extensions>
      </trkpt>
      <trkpt lat="43.0790272168815135955810546875" lon="12.99174078740179538726806640625">
        <ele>605.20001220703125</ele>
        <time>2021-06-04T07:58:34.000Z</time>
        <extensions>
          <ns3:TrackPointExtension>
            <ns3:atemp>24.0</ns3:atemp>
          </ns3:TrackPointExtension>
        </extensions>
      </trkpt>
      <trkpt lat="43.07899092324078083038330078125" lon="12.99167507328093051910400390625">
        <ele>604.4000244140625</ele>
        <time>2021-06-04T07:58:35.000Z</time>
        <extensions>
          <ns3:TrackPointExtension>
            <ns3:atemp>24.0</ns3:atemp>
          </ns3:TrackPointExtension>
        </extensions>
      </trkpt>
      <trkpt lat="43.0789594911038875579833984375" lon="12.9916141368448734283447265625">
        <ele>603.20001220703125</ele>
        <time>2021-06-04T07:58:36.000Z</time>
        <extensions>
          <ns3:TrackPointExtension>
            <ns3:atemp>24.0</ns3:atemp>
          </ns3:TrackPointExtension>
        </extensions>
      </trkpt>
      <trkpt lat="43.0789400450885295867919921875" lon="12.9915557987987995147705078125">
        <ele>602</ele>
        <time>2021-06-04T07:58:37.000Z</time>
        <extensions>
          <ns3:TrackPointExtension>
            <ns3:atemp>24.0</ns3:atemp>
          </ns3:TrackPointExtension>
        </extensions>
      </trkpt>
      <trkpt lat="43.0789229460060596466064453125" lon="12.99150533974170684814453125">
        <ele>600.79998779296875</ele>
        <time>2021-06-04T07:58:38.000Z</time>
        <extensions>
          <ns3:TrackPointExtension>
            <ns3:atemp>24.0</ns3:atemp>
          </ns3:TrackPointExtension>
        </extensions>
      </trkpt>
      <trkpt lat="43.078888915479183197021484375" lon="12.991435937583446502685546875">
        <ele>598.79998779296875</ele>
        <time>2021-06-04T07:58:40.000Z</time>
        <extensions>
          <ns3:TrackPointExtension>
            <ns3:atemp>24.0</ns3:atemp>
          </ns3:TrackPointExtension>
        </extensions>
      </trkpt>
      <trkpt lat="43.07886368595063686370849609375" lon="12.99139763228595256805419921875">
        <ele>598</ele>
        <time>2021-06-04T07:58:41.000Z</time>
        <extensions>
          <ns3:TrackPointExtension>
            <ns3:atemp>24.0</ns3:atemp>
          </ns3:TrackPointExtension>
        </extensions>
      </trkpt>
      <trkpt lat="43.07884239591658115386962890625" lon="12.9913442395627498626708984375">
        <ele>597.20001220703125</ele>
        <time>2021-06-04T07:58:42.000Z</time>
        <extensions>
          <ns3:TrackPointExtension>
            <ns3:atemp>24.0</ns3:atemp>
          </ns3:TrackPointExtension>
        </extensions>
      </trkpt>
      <trkpt lat="43.07874449528753757476806640625" lon="12.99117484129965305328369140625">
        <ele>596</ele>
        <time>2021-06-04T07:58:45.000Z</time>
        <extensions>
          <ns3:TrackPointExtension>
            <ns3:atemp>24.0</ns3:atemp>
          </ns3:TrackPointExtension>
        </extensions>
      </trkpt>
      <trkpt lat="43.0786892585456371307373046875" lon="12.99106411635875701904296875">
        <ele>595.79998779296875</ele>
        <time>2021-06-04T07:58:47.000Z</time>
        <extensions>
          <ns3:TrackPointExtension>
            <ns3:atemp>24.0</ns3:atemp>
          </ns3:TrackPointExtension>
        </extensions>
      </trkpt>
      <trkpt lat="43.07864810340106487274169921875" lon="12.99092154018580913543701171875">
        <ele>595.4000244140625</ele>
        <time>2021-06-04T07:58:49.000Z</time>
        <extensions>
          <ns3:TrackPointExtension>
            <ns3:atemp>24.0</ns3:atemp>
          </ns3:TrackPointExtension>
        </extensions>
      </trkpt>
      <trkpt lat="43.078626729547977447509765625" lon="12.9908470250666141510009765625">
        <ele>594.79998779296875</ele>
        <time>2021-06-04T07:58:50.000Z</time>
        <extensions>
          <ns3:TrackPointExtension>
            <ns3:atemp>24.0</ns3:atemp>
          </ns3:TrackPointExtension>
        </extensions>
      </trkpt>
      <trkpt lat="43.078589849174022674560546875" lon="12.9906944744288921356201171875">
        <ele>593.4000244140625</ele>
        <time>2021-06-04T07:58:52.000Z</time>
        <extensions>
          <ns3:TrackPointExtension>
            <ns3:atemp>24.0</ns3:atemp>
          </ns3:TrackPointExtension>
        </extensions>
      </trkpt>
      <trkpt lat="43.07857635430991649627685546875" lon="12.99053764902055263519287109375">
        <ele>592</ele>
        <time>2021-06-04T07:58:54.000Z</time>
        <extensions>
          <ns3:TrackPointExtension>
            <ns3:atemp>24.0</ns3:atemp>
          </ns3:TrackPointExtension>
        </extensions>
      </trkpt>
      <trkpt lat="43.078580461442470550537109375" lon="12.99045718275010585784912109375">
        <ele>591.4000244140625</ele>
        <time>2021-06-04T07:58:55.000Z</time>
        <extensions>
          <ns3:TrackPointExtension>
            <ns3:atemp>24.0</ns3:atemp>
          </ns3:TrackPointExtension>
        </extensions>
      </trkpt>
      <trkpt lat="43.0785823054611682891845703125" lon="12.9903766326606273651123046875">
        <ele>590.79998779296875</ele>
        <time>2021-06-04T07:58:56.000Z</time>
        <extensions>
          <ns3:TrackPointExtension>
            <ns3:atemp>24.0</ns3:atemp>
          </ns3:TrackPointExtension>
        </extensions>
      </trkpt>
      <trkpt lat="43.078589178621768951416015625" lon="12.99015141092240810394287109375">
        <ele>589.20001220703125</ele>
        <time>2021-06-04T07:58:59.000Z</time>
        <extensions>
          <ns3:TrackPointExtension>
            <ns3:atemp>24.0</ns3:atemp>
          </ns3:TrackPointExtension>
        </extensions>
      </trkpt>
      <trkpt lat="43.07858683168888092041015625" lon="12.99002232961356639862060546875">
        <ele>588.5999755859375</ele>
        <time>2021-06-04T07:59:01.000Z</time>
        <extensions>
          <ns3:TrackPointExtension>
            <ns3:atemp>24.0</ns3:atemp>
          </ns3:TrackPointExtension>
        </extensions>
      </trkpt>
      <trkpt lat="43.07858238928020000457763671875" lon="12.98990808427333831787109375">
        <ele>588.20001220703125</ele>
        <time>2021-06-04T07:59:03.000Z</time>
        <extensions>
          <ns3:TrackPointExtension>
            <ns3:atemp>24.0</ns3:atemp>
          </ns3:TrackPointExtension>
        </extensions>
      </trkpt>
      <trkpt lat="43.078581802546977996826171875" lon="12.98985100351274013519287109375">
        <ele>588</ele>
        <time>2021-06-04T07:59:04.000Z</time>
        <extensions>
          <ns3:TrackPointExtension>
            <ns3:atemp>24.0</ns3:atemp>
          </ns3:TrackPointExtension>
        </extensions>
      </trkpt>
      <trkpt lat="43.07857132516801357269287109375" lon="12.98973365686833858489990234375">
        <ele>587.79998779296875</ele>
        <time>2021-06-04T07:59:06.000Z</time>
        <extensions>
          <ns3:TrackPointExtension>
            <ns3:atemp>24.0</ns3:atemp>
          </ns3:TrackPointExtension>
        </extensions>
      </trkpt>
      <trkpt lat="43.0785192735493183135986328125" lon="12.9895381070673465728759765625">
        <ele>587.5999755859375</ele>
        <time>2021-06-04T07:59:09.000Z</time>
        <extensions>
          <ns3:TrackPointExtension>
            <ns3:atemp>24.0</ns3:atemp>
          </ns3:TrackPointExtension>
        </extensions>
      </trkpt>
      <trkpt lat="43.07843117974698543548583984375" lon="12.98916435800492763519287109375">
        <ele>587.20001220703125</ele>
        <time>2021-06-04T07:59:14.000Z</time>
        <extensions>
          <ns3:TrackPointExtension>
            <ns3:atemp>23.0</ns3:atemp>
          </ns3:TrackPointExtension>
        </extensions>
      </trkpt>
      <trkpt lat="43.078420870006084442138671875" lon="12.98909260891377925872802734375">
        <ele>587</ele>
        <time>2021-06-04T07:59:15.000Z</time>
        <extensions>
          <ns3:TrackPointExtension>
            <ns3:atemp>23.0</ns3:atemp>
          </ns3:TrackPointExtension>
        </extensions>
      </trkpt>
      <trkpt lat="43.07841760106384754180908203125" lon="12.98902588896453380584716796875">
        <ele>586.79998779296875</ele>
        <time>2021-06-04T07:59:16.000Z</time>
        <extensions>
          <ns3:TrackPointExtension>
            <ns3:atemp>23.0</ns3:atemp>
          </ns3:TrackPointExtension>
        </extensions>
      </trkpt>
      <trkpt lat="43.07842883281409740447998046875" lon="12.98885104246437549591064453125">
        <ele>585.79998779296875</ele>
        <time>2021-06-04T07:59:19.000Z</time>
        <extensions>
          <ns3:TrackPointExtension>
            <ns3:atemp>23.0</ns3:atemp>
          </ns3:TrackPointExtension>
        </extensions>
      </trkpt>
      <trkpt lat="43.07844442315399646759033203125" lon="12.9886834882199764251708984375">
        <ele>584.79998779296875</ele>
        <time>2021-06-04T07:59:22.000Z</time>
        <extensions>
          <ns3:TrackPointExtension>
            <ns3:atemp>23.0</ns3:atemp>
          </ns3:TrackPointExtension>
        </extensions>
      </trkpt>
      <trkpt lat="43.07844509370625019073486328125" lon="12.9885019361972808837890625">
        <ele>584.4000244140625</ele>
        <time>2021-06-04T07:59:25.000Z</time>
        <extensions>
          <ns3:TrackPointExtension>
            <ns3:atemp>23.0</ns3:atemp>
          </ns3:TrackPointExtension>
        </extensions>
      </trkpt>
      <trkpt lat="43.07843738235533237457275390625" lon="12.9883512295782566070556640625">
        <ele>584.4000244140625</ele>
        <time>2021-06-04T07:59:27.000Z</time>
        <extensions>
          <ns3:TrackPointExtension>
            <ns3:atemp>23.0</ns3:atemp>
          </ns3:TrackPointExtension>
        </extensions>
      </trkpt>
      <trkpt lat="43.07842866517603397369384765625" lon="12.98819951713085174560546875">
        <ele>584</ele>
        <time>2021-06-04T07:59:29.000Z</time>
        <extensions>
          <ns3:TrackPointExtension>
            <ns3:atemp>23.0</ns3:atemp>
          </ns3:TrackPointExtension>
        </extensions>
      </trkpt>
      <trkpt lat="43.07843738235533237457275390625" lon="12.98812114633619785308837890625">
        <ele>584</ele>
        <time>2021-06-04T07:59:30.000Z</time>
        <extensions>
          <ns3:TrackPointExtension>
            <ns3:atemp>23.0</ns3:atemp>
          </ns3:TrackPointExtension>
        </extensions>
      </trkpt>
      <trkpt lat="43.0784485302865505218505859375" lon="12.98797898925840854644775390625">
        <ele>583.5999755859375</ele>
        <time>2021-06-04T07:59:32.000Z</time>
        <extensions>
          <ns3:TrackPointExtension>
            <ns3:atemp>23.0</ns3:atemp>
          </ns3:TrackPointExtension>
        </extensions>
      </trkpt>
      <trkpt lat="43.078478537499904632568359375" lon="12.98784001730382442474365234375">
        <ele>582.79998779296875</ele>
        <time>2021-06-04T07:59:34.000Z</time>
        <extensions>
          <ns3:TrackPointExtension>
            <ns3:atemp>23.0</ns3:atemp>
          </ns3:TrackPointExtension>
        </extensions>
      </trkpt>
      <trkpt lat="43.0784998275339603424072265625" lon="12.987776063382625579833984375">
        <ele>582</ele>
        <time>2021-06-04T07:59:35.000Z</time>
        <extensions>
          <ns3:TrackPointExtension>
            <ns3:atemp>23.0</ns3:atemp>
          </ns3:TrackPointExtension>
        </extensions>
      </trkpt>
      <trkpt lat="43.07852773927152156829833984375" lon="12.9877118580043315887451171875">
        <ele>581.5999755859375</ele>
        <time>2021-06-04T07:59:36.000Z</time>
        <extensions>
          <ns3:TrackPointExtension>
            <ns3:atemp>23.0</ns3:atemp>
          </ns3:TrackPointExtension>
        </extensions>
      </trkpt>
      <trkpt lat="43.07862413115799427032470703125" lon="12.9875214211642742156982421875">
        <ele>581</ele>
        <time>2021-06-04T07:59:39.000Z</time>
        <extensions>
          <ns3:TrackPointExtension>
            <ns3:atemp>23.0</ns3:atemp>
          </ns3:TrackPointExtension>
        </extensions>
      </trkpt>
      <trkpt lat="43.07864374481141567230224609375" lon="12.98746886663138866424560546875">
        <ele>581</ele>
        <time>2021-06-04T07:59:40.000Z</time>
        <extensions>
          <ns3:TrackPointExtension>
            <ns3:atemp>23.0</ns3:atemp>
          </ns3:TrackPointExtension>
        </extensions>
      </trkpt>
      <trkpt lat="43.07868699543178081512451171875" lon="12.9873169027268886566162109375">
        <ele>580</ele>
        <time>2021-06-04T07:59:43.000Z</time>
        <extensions>
          <ns3:TrackPointExtension>
            <ns3:atemp>23.0</ns3:atemp>
          </ns3:TrackPointExtension>
        </extensions>
      </trkpt>
      <trkpt lat="43.0787073634564876556396484375" lon="12.98725797794759273529052734375">
        <ele>579.5999755859375</ele>
        <time>2021-06-04T07:59:44.000Z</time>
        <extensions>
          <ns3:TrackPointExtension>
            <ns3:atemp>23.0</ns3:atemp>
          </ns3:TrackPointExtension>
        </extensions>
      </trkpt>
      <trkpt lat="43.07873158715665340423583984375" lon="12.98714498989284038543701171875">
        <ele>579</ele>
        <time>2021-06-04T07:59:47.000Z</time>
        <extensions>
          <ns3:TrackPointExtension>
            <ns3:atemp>23.0</ns3:atemp>
          </ns3:TrackPointExtension>
        </extensions>
      </trkpt>
      <trkpt lat="43.078744411468505859375" lon="12.9870765097439289093017578125">
        <ele>579</ele>
        <time>2021-06-04T07:59:55.000Z</time>
        <extensions>
          <ns3:TrackPointExtension>
            <ns3:atemp>23.0</ns3:atemp>
          </ns3:TrackPointExtension>
        </extensions>
      </trkpt>
      <trkpt lat="43.0787304975092411041259765625" lon="12.987027727067470550537109375">
        <ele>579</ele>
        <time>2021-06-04T08:00:04.000Z</time>
        <extensions>
          <ns3:TrackPointExtension>
            <ns3:atemp>23.0</ns3:atemp>
          </ns3:TrackPointExtension>
        </extensions>
      </trkpt>
      <trkpt lat="43.078725636005401611328125" lon="12.9870164953172206878662109375">
        <ele>579</ele>
        <time>2021-06-04T08:00:13.000Z</time>
        <extensions>
          <ns3:TrackPointExtension>
            <ns3:atemp>23.0</ns3:atemp>
          </ns3:TrackPointExtension>
        </extensions>
      </trkpt>
      <trkpt lat="43.0787217803299427032470703125" lon="12.98696762882173061370849609375">
        <ele>579</ele>
        <time>2021-06-04T08:00:23.000Z</time>
        <extensions>
          <ns3:TrackPointExtension>
            <ns3:atemp>22.0</ns3:atemp>
          </ns3:TrackPointExtension>
        </extensions>
      </trkpt>
      <trkpt lat="43.0787291564047336578369140625" lon="12.986849360167980194091796875">
        <ele>579</ele>
        <time>2021-06-04T08:00:26.000Z</time>
        <extensions>
          <ns3:TrackPointExtension>
            <ns3:atemp>22.0</ns3:atemp>
          </ns3:TrackPointExtension>
        </extensions>
      </trkpt>
      <trkpt lat="43.07874164544045925140380859375" lon="12.986809797585010528564453125">
        <ele>579</ele>
        <time>2021-06-04T08:00:27.000Z</time>
        <extensions>
          <ns3:TrackPointExtension>
            <ns3:atemp>22.0</ns3:atemp>
          </ns3:TrackPointExtension>
        </extensions>
      </trkpt>
      <trkpt lat="43.07878288440406322479248046875" lon="12.98671097494661808013916015625">
        <ele>579</ele>
        <time>2021-06-04T08:00:30.000Z</time>
        <extensions>
          <ns3:TrackPointExtension>
            <ns3:atemp>22.0</ns3:atemp>
          </ns3:TrackPointExtension>
        </extensions>
      </trkpt>
      <trkpt lat="43.07881087996065616607666015625" lon="12.98665649257600307464599609375">
        <ele>579</ele>
        <time>2021-06-04T08:00:35.000Z</time>
        <extensions>
          <ns3:TrackPointExtension>
            <ns3:atemp>22.0</ns3:atemp>
          </ns3:TrackPointExtension>
        </extensions>
      </trkpt>
      <trkpt lat="43.0788163281977176666259765625" lon="12.986612655222415924072265625">
        <ele>579</ele>
        <time>2021-06-04T08:00:45.000Z</time>
        <extensions>
          <ns3:TrackPointExtension>
            <ns3:atemp>22.0</ns3:atemp>
          </ns3:TrackPointExtension>
        </extensions>
      </trkpt>
      <trkpt lat="43.07881205342710018157958984375" lon="12.98661391250789165496826171875">
        <ele>578.5999755859375</ele>
        <time>2021-06-04T08:00:54.000Z</time>
        <extensions>
          <ns3:TrackPointExtension>
            <ns3:atemp>22.0</ns3:atemp>
          </ns3:TrackPointExtension>
        </extensions>
      </trkpt>
      <trkpt lat="43.078810460865497589111328125" lon="12.9866101406514644622802734375">
        <ele>578.5999755859375</ele>
        <time>2021-06-04T08:00:59.000Z</time>
        <extensions>
          <ns3:TrackPointExtension>
            <ns3:atemp>22.0</ns3:atemp>
          </ns3:TrackPointExtension>
        </extensions>
      </trkpt>
      <trkpt lat="43.07880953885614871978759765625" lon="12.98660854808986186981201171875">
        <ele>578.4000244140625</ele>
        <time>2021-06-04T08:01:05.000Z</time>
        <extensions>
          <ns3:TrackPointExtension>
            <ns3:atemp>22.0</ns3:atemp>
          </ns3:TrackPointExtension>
        </extensions>
      </trkpt>
      <trkpt lat="43.07881339453160762786865234375" lon="12.98657049424946308135986328125">
        <ele>578.79998779296875</ele>
        <time>2021-06-04T08:01:22.000Z</time>
        <extensions>
          <ns3:TrackPointExtension>
            <ns3:atemp>22.0</ns3:atemp>
          </ns3:TrackPointExtension>
        </extensions>
      </trkpt>
      <trkpt lat="43.0788798630237579345703125" lon="12.98643596470355987548828125">
        <ele>578.79998779296875</ele>
        <time>2021-06-04T08:01:29.000Z</time>
        <extensions>
          <ns3:TrackPointExtension>
            <ns3:atemp>22.0</ns3:atemp>
          </ns3:TrackPointExtension>
        </extensions>
      </trkpt>
      <trkpt lat="43.0788146518170833587646484375" lon="12.986384667456150054931640625">
        <ele>578.79998779296875</ele>
        <time>2021-06-04T08:01:32.000Z</time>
        <extensions>
          <ns3:TrackPointExtension>
            <ns3:atemp>22.0</ns3:atemp>
          </ns3:TrackPointExtension>
        </extensions>
      </trkpt>
      <trkpt lat="43.07873301208019256591796875" lon="12.98631928861141204833984375">
        <ele>578.79998779296875</ele>
        <time>2021-06-04T08:01:36.000Z</time>
        <extensions>
          <ns3:TrackPointExtension>
            <ns3:atemp>22.0</ns3:atemp>
          </ns3:TrackPointExtension>
        </extensions>
      </trkpt>
      <trkpt lat="43.0787090398371219635009765625" lon="12.98618727363646030426025390625">
        <ele>579</ele>
        <time>2021-06-04T08:01:40.000Z</time>
        <extensions>
          <ns3:TrackPointExtension>
            <ns3:atemp>22.0</ns3:atemp>
          </ns3:TrackPointExtension>
        </extensions>
      </trkpt>
      <trkpt lat="43.078674338757991790771484375" lon="12.98606003634631633758544921875">
        <ele>579.79998779296875</ele>
        <time>2021-06-04T08:01:44.000Z</time>
        <extensions>
          <ns3:TrackPointExtension>
            <ns3:atemp>22.0</ns3:atemp>
          </ns3:TrackPointExtension>
        </extensions>
      </trkpt>
      <trkpt lat="43.078652881085872650146484375" lon="12.98603287898004055023193359375">
        <ele>580</ele>
        <time>2021-06-04T08:01:45.000Z</time>
        <extensions>
          <ns3:TrackPointExtension>
            <ns3:atemp>22.0</ns3:atemp>
          </ns3:TrackPointExtension>
        </extensions>
      </trkpt>
      <trkpt lat="43.07852991856634616851806640625" lon="12.98588284291326999664306640625">
        <ele>580.20001220703125</ele>
        <time>2021-06-04T08:01:49.000Z</time>
        <extensions>
          <ns3:TrackPointExtension>
            <ns3:atemp>22.0</ns3:atemp>
          </ns3:TrackPointExtension>
        </extensions>
      </trkpt>
      <trkpt lat="43.07841760106384754180908203125" lon="12.9857675917446613311767578125">
        <ele>579.4000244140625</ele>
        <time>2021-06-04T08:01:53.000Z</time>
        <extensions>
          <ns3:TrackPointExtension>
            <ns3:atemp>22.0</ns3:atemp>
          </ns3:TrackPointExtension>
        </extensions>
      </trkpt>
      <trkpt lat="43.0783794634044170379638671875" lon="12.9857209883630275726318359375">
        <ele>578.4000244140625</ele>
        <time>2021-06-04T08:01:54.000Z</time>
        <extensions>
          <ns3:TrackPointExtension>
            <ns3:atemp>22.0</ns3:atemp>
          </ns3:TrackPointExtension>
        </extensions>
      </trkpt>
      <trkpt lat="43.0783429183065891265869140625" lon="12.9856686852872371673583984375">
        <ele>577.20001220703125</ele>
        <time>2021-06-04T08:01:55.000Z</time>
        <extensions>
          <ns3:TrackPointExtension>
            <ns3:atemp>22.0</ns3:atemp>
          </ns3:TrackPointExtension>
        </extensions>
      </trkpt>
      <trkpt lat="43.0782218836247920989990234375" lon="12.985507585108280181884765625">
        <ele>576</ele>
        <time>2021-06-04T08:01:58.000Z</time>
        <extensions>
          <ns3:TrackPointExtension>
            <ns3:atemp>22.0</ns3:atemp>
          </ns3:TrackPointExtension>
        </extensions>
      </trkpt>
      <trkpt lat="43.07818827219307422637939453125" lon="12.98545117489993572235107421875">
        <ele>575.20001220703125</ele>
        <time>2021-06-04T08:01:59.000Z</time>
        <extensions>
          <ns3:TrackPointExtension>
            <ns3:atemp>22.0</ns3:atemp>
          </ns3:TrackPointExtension>
        </extensions>
      </trkpt>
      <trkpt lat="43.07815340347588062286376953125" lon="12.98539602197706699371337890625">
        <ele>574.20001220703125</ele>
        <time>2021-06-04T08:02:00.000Z</time>
        <extensions>
          <ns3:TrackPointExtension>
            <ns3:atemp>22.0</ns3:atemp>
          </ns3:TrackPointExtension>
        </extensions>
      </trkpt>
      <trkpt lat="43.0780807323753833770751953125" lon="12.9852881468832492828369140625">
        <ele>572.4000244140625</ele>
        <time>2021-06-04T08:02:02.000Z</time>
        <extensions>
          <ns3:TrackPointExtension>
            <ns3:atemp>22.0</ns3:atemp>
          </ns3:TrackPointExtension>
        </extensions>
      </trkpt>
      <trkpt lat="43.0780384875833988189697265625" lon="12.98519544303417205810546875">
        <ele>571</ele>
        <time>2021-06-04T08:02:04.000Z</time>
        <extensions>
          <ns3:TrackPointExtension>
            <ns3:atemp>22.0</ns3:atemp>
          </ns3:TrackPointExtension>
        </extensions>
      </trkpt>
      <trkpt lat="43.0779680795967578887939453125" lon="12.98506133258342742919921875">
        <ele>569.79998779296875</ele>
        <time>2021-06-04T08:02:07.000Z</time>
        <extensions>
          <ns3:TrackPointExtension>
            <ns3:atemp>22.0</ns3:atemp>
          </ns3:TrackPointExtension>
        </extensions>
      </trkpt>
      <trkpt lat="43.07792072184383869171142578125" lon="12.98498631455004215240478515625">
        <ele>569.4000244140625</ele>
        <time>2021-06-04T08:02:09.000Z</time>
        <extensions>
          <ns3:TrackPointExtension>
            <ns3:atemp>22.0</ns3:atemp>
          </ns3:TrackPointExtension>
        </extensions>
      </trkpt>
      <trkpt lat="43.07787931524217128753662109375" lon="12.984854467213153839111328125">
        <ele>569.20001220703125</ele>
        <time>2021-06-04T08:02:13.000Z</time>
        <extensions>
          <ns3:TrackPointExtension>
            <ns3:atemp>22.0</ns3:atemp>
          </ns3:TrackPointExtension>
        </extensions>
      </trkpt>
      <trkpt lat="43.077869005501270294189453125" lon="12.9848060198128223419189453125">
        <ele>569.5999755859375</ele>
        <time>2021-06-04T08:02:22.000Z</time>
        <extensions>
          <ns3:TrackPointExtension>
            <ns3:atemp>22.0</ns3:atemp>
          </ns3:TrackPointExtension>
        </extensions>
      </trkpt>
      <trkpt lat="43.077858276665210723876953125" lon="12.984788082540035247802734375">
        <ele>569.5999755859375</ele>
        <time>2021-06-04T08:02:30.000Z</time>
        <extensions>
          <ns3:TrackPointExtension>
            <ns3:atemp>22.0</ns3:atemp>
          </ns3:TrackPointExtension>
        </extensions>
      </trkpt>
      <trkpt lat="43.07787814177572727203369140625" lon="12.98477232456207275390625">
        <ele>569.5999755859375</ele>
        <time>2021-06-04T08:02:39.000Z</time>
        <extensions>
          <ns3:TrackPointExtension>
            <ns3:atemp>22.0</ns3:atemp>
          </ns3:TrackPointExtension>
        </extensions>
      </trkpt>
      <trkpt lat="43.07787378318607807159423828125" lon="12.98475162126123905181884765625">
        <ele>569.5999755859375</ele>
        <time>2021-06-04T08:02:50.000Z</time>
        <extensions>
          <ns3:TrackPointExtension>
            <ns3:atemp>22.0</ns3:atemp>
          </ns3:TrackPointExtension>
        </extensions>
      </trkpt>
      <trkpt lat="43.077880404889583587646484375" lon="12.9847349412739276885986328125">
        <ele>569.5999755859375</ele>
        <time>2021-06-04T08:03:02.000Z</time>
        <extensions>
          <ns3:TrackPointExtension>
            <ns3:atemp>22.0</ns3:atemp>
          </ns3:TrackPointExtension>
        </extensions>
      </trkpt>
      <trkpt lat="43.07789892889559268951416015625" lon="12.984711639583110809326171875">
        <ele>569.5999755859375</ele>
        <time>2021-06-04T08:03:14.000Z</time>
        <extensions>
          <ns3:TrackPointExtension>
            <ns3:atemp>22.0</ns3:atemp>
          </ns3:TrackPointExtension>
        </extensions>
      </trkpt>
      <trkpt lat="43.0779035389423370361328125" lon="12.98470032401382923126220703125">
        <ele>569.5999755859375</ele>
        <time>2021-06-04T08:03:24.000Z</time>
        <extensions>
          <ns3:TrackPointExtension>
            <ns3:atemp>22.0</ns3:atemp>
          </ns3:TrackPointExtension>
        </extensions>
      </trkpt>
      <trkpt lat="43.0778668262064456939697265625" lon="12.98458951525390148162841796875">
        <ele>569.4000244140625</ele>
        <time>2021-06-04T08:03:31.000Z</time>
        <extensions>
          <ns3:TrackPointExtension>
            <ns3:atemp>22.0</ns3:atemp>
          </ns3:TrackPointExtension>
        </extensions>
      </trkpt>
      <trkpt lat="43.0778034590184688568115234375" lon="12.98439438454806804656982421875">
        <ele>569.4000244140625</ele>
        <time>2021-06-04T08:03:36.000Z</time>
        <extensions>
          <ns3:TrackPointExtension>
            <ns3:atemp>22.0</ns3:atemp>
          </ns3:TrackPointExtension>
        </extensions>
      </trkpt>
      <trkpt lat="43.0777706019580364227294921875" lon="12.98435767181217670440673828125">
        <ele>569.20001220703125</ele>
        <time>2021-06-04T08:03:37.000Z</time>
        <extensions>
          <ns3:TrackPointExtension>
            <ns3:atemp>22.0</ns3:atemp>
          </ns3:TrackPointExtension>
        </extensions>
      </trkpt>
      <trkpt lat="43.07769826613366603851318359375" lon="12.98425172455608844757080078125">
        <ele>569</ele>
        <time>2021-06-04T08:03:39.000Z</time>
        <extensions>
          <ns3:TrackPointExtension>
            <ns3:atemp>22.0</ns3:atemp>
          </ns3:TrackPointExtension>
        </extensions>
      </trkpt>
      <trkpt lat="43.07763456366956233978271484375" lon="12.98416706733405590057373046875">
        <ele>568.5999755859375</ele>
        <time>2021-06-04T08:03:41.000Z</time>
        <extensions>
          <ns3:TrackPointExtension>
            <ns3:atemp>22.0</ns3:atemp>
          </ns3:TrackPointExtension>
        </extensions>
      </trkpt>
      <trkpt lat="43.077600784599781036376953125" lon="12.9841488786041736602783203125">
        <ele>568.4000244140625</ele>
        <time>2021-06-04T08:03:42.000Z</time>
        <extensions>
          <ns3:TrackPointExtension>
            <ns3:atemp>22.0</ns3:atemp>
          </ns3:TrackPointExtension>
        </extensions>
      </trkpt>
      <trkpt lat="43.07752794586122035980224609375" lon="12.9841009341180324554443359375">
        <ele>568</ele>
        <time>2021-06-04T08:03:45.000Z</time>
        <extensions>
          <ns3:TrackPointExtension>
            <ns3:atemp>22.0</ns3:atemp>
          </ns3:TrackPointExtension>
        </extensions>
      </trkpt>
      <trkpt lat="43.07752241380512714385986328125" lon="12.9840942285954952239990234375">
        <ele>567.4000244140625</ele>
        <time>2021-06-04T08:03:46.000Z</time>
        <extensions>
          <ns3:TrackPointExtension>
            <ns3:atemp>22.0</ns3:atemp>
          </ns3:TrackPointExtension>
        </extensions>
      </trkpt>
      <trkpt lat="43.0775258503854274749755859375" lon="12.98409230075776576995849609375">
        <ele>566.79998779296875</ele>
        <time>2021-06-04T08:03:48.000Z</time>
        <extensions>
          <ns3:TrackPointExtension>
            <ns3:atemp>22.0</ns3:atemp>
          </ns3:TrackPointExtension>
        </extensions>
      </trkpt>
      <trkpt lat="43.07752895168960094451904296875" lon="12.9840700887143611907958984375">
        <ele>566.4000244140625</ele>
        <time>2021-06-04T08:03:55.000Z</time>
        <extensions>
          <ns3:TrackPointExtension>
            <ns3:atemp>22.0</ns3:atemp>
          </ns3:TrackPointExtension>
        </extensions>
      </trkpt>
      <trkpt lat="43.077527023851871490478515625" lon="12.9840647242963314056396484375">
        <ele>566.4000244140625</ele>
        <time>2021-06-04T08:04:12.000Z</time>
        <extensions>
          <ns3:TrackPointExtension>
            <ns3:atemp>22.0</ns3:atemp>
          </ns3:TrackPointExtension>
        </extensions>
      </trkpt>
      <trkpt lat="43.07751688174903392791748046875" lon="12.9840650595724582672119140625">
        <ele>566.4000244140625</ele>
        <time>2021-06-04T08:04:13.000Z</time>
        <extensions>
          <ns3:TrackPointExtension>
            <ns3:atemp>22.0</ns3:atemp>
          </ns3:TrackPointExtension>
        </extensions>
      </trkpt>
      <trkpt lat="43.077461309731006622314453125" lon="12.98405349254608154296875">
        <ele>566.4000244140625</ele>
        <time>2021-06-04T08:04:16.000Z</time>
        <extensions>
          <ns3:TrackPointExtension>
            <ns3:atemp>22.0</ns3:atemp>
          </ns3:TrackPointExtension>
        </extensions>
      </trkpt>
      <trkpt lat="43.0774349905550479888916015625" lon="12.9840379022061824798583984375">
        <ele>566.20001220703125</ele>
        <time>2021-06-04T08:04:20.000Z</time>
        <extensions>
          <ns3:TrackPointExtension>
            <ns3:atemp>22.0</ns3:atemp>
          </ns3:TrackPointExtension>
        </extensions>
      </trkpt>
      <trkpt lat="43.07742920704185962677001953125" lon="12.9840352199971675872802734375">
        <ele>565.79998779296875</ele>
        <time>2021-06-04T08:04:24.000Z</time>
        <extensions>
          <ns3:TrackPointExtension>
            <ns3:atemp>23.0</ns3:atemp>
          </ns3:TrackPointExtension>
        </extensions>
      </trkpt>
      <trkpt lat="43.0774266086518764495849609375" lon="12.98403614200651645660400390625">
        <ele>565.5999755859375</ele>
        <time>2021-06-04T08:04:29.000Z</time>
        <extensions>
          <ns3:TrackPointExtension>
            <ns3:atemp>23.0</ns3:atemp>
          </ns3:TrackPointExtension>
        </extensions>
      </trkpt>
      <trkpt lat="43.0774309672415256500244140625" lon="12.98403136432170867919921875">
        <ele>565.4000244140625</ele>
        <time>2021-06-04T08:04:44.000Z</time>
        <extensions>
          <ns3:TrackPointExtension>
            <ns3:atemp>23.0</ns3:atemp>
          </ns3:TrackPointExtension>
        </extensions>
      </trkpt>
      <trkpt lat="43.07743658311665058135986328125" lon="12.9840201325714588165283203125">
        <ele>565.4000244140625</ele>
        <time>2021-06-04T08:04:51.000Z</time>
        <extensions>
          <ns3:TrackPointExtension>
            <ns3:atemp>23.0</ns3:atemp>
          </ns3:TrackPointExtension>
        </extensions>
      </trkpt>
      <trkpt lat="43.07743214070796966552734375" lon="12.98401837237179279327392578125">
        <ele>565.20001220703125</ele>
        <time>2021-06-04T08:05:01.000Z</time>
        <extensions>
          <ns3:TrackPointExtension>
            <ns3:atemp>23.0</ns3:atemp>
          </ns3:TrackPointExtension>
        </extensions>
      </trkpt>
      <trkpt lat="43.07743608020246028900146484375" lon="12.983986437320709228515625">
        <ele>565.20001220703125</ele>
        <time>2021-06-04T08:05:14.000Z</time>
        <extensions>
          <ns3:TrackPointExtension>
            <ns3:atemp>24.0</ns3:atemp>
          </ns3:TrackPointExtension>
        </extensions>
      </trkpt>
      <trkpt lat="43.07743574492633342742919921875" lon="12.98399205319583415985107421875">
        <ele>565.20001220703125</ele>
        <time>2021-06-04T08:05:22.000Z</time>
        <extensions>
          <ns3:TrackPointExtension>
            <ns3:atemp>24.0</ns3:atemp>
          </ns3:TrackPointExtension>
        </extensions>
      </trkpt>
      <trkpt lat="43.07743423618376255035400390625" lon="12.983997501432895660400390625">
        <ele>565</ele>
        <time>2021-06-04T08:05:28.000Z</time>
        <extensions>
          <ns3:TrackPointExtension>
            <ns3:atemp>24.0</ns3:atemp>
          </ns3:TrackPointExtension>
        </extensions>
      </trkpt>
      <trkpt lat="43.07743825949728488922119140625" lon="12.98399389721453189849853515625">
        <ele>565.20001220703125</ele>
        <time>2021-06-04T08:05:42.000Z</time>
        <extensions>
          <ns3:TrackPointExtension>
            <ns3:atemp>24.0</ns3:atemp>
          </ns3:TrackPointExtension>
        </extensions>
      </trkpt>
      <trkpt lat="43.077438175678253173828125" lon="12.9839931428432464599609375">
        <ele>565</ele>
        <time>2021-06-04T08:05:44.000Z</time>
        <extensions>
          <ns3:TrackPointExtension>
            <ns3:atemp>24.0</ns3:atemp>
          </ns3:TrackPointExtension>
        </extensions>
      </trkpt>
      <trkpt lat="43.077439181506633758544921875" lon="12.98399171791970729827880859375">
        <ele>564.79998779296875</ele>
        <time>2021-06-04T08:05:55.000Z</time>
        <extensions>
          <ns3:TrackPointExtension>
            <ns3:atemp>25.0</ns3:atemp>
          </ns3:TrackPointExtension>
        </extensions>
      </trkpt>
      <trkpt lat="43.0774395167827606201171875" lon="12.98399113118648529052734375">
        <ele>564.79998779296875</ele>
        <time>2021-06-04T08:06:04.000Z</time>
        <extensions>
          <ns3:TrackPointExtension>
            <ns3:atemp>25.0</ns3:atemp>
          </ns3:TrackPointExtension>
        </extensions>
      </trkpt>
      <trkpt lat="43.0774400196969509124755859375" lon="12.98398987390100955963134765625">
        <ele>565</ele>
        <time>2021-06-04T08:06:12.000Z</time>
        <extensions>
          <ns3:TrackPointExtension>
            <ns3:atemp>25.0</ns3:atemp>
          </ns3:TrackPointExtension>
        </extensions>
      </trkpt>
      <trkpt lat="43.07744010351598262786865234375" lon="12.983989454805850982666015625">
        <ele>565</ele>
        <time>2021-06-04T08:06:40.000Z</time>
        <extensions>
          <ns3:TrackPointExtension>
            <ns3:atemp>26.0</ns3:atemp>
          </ns3:TrackPointExtension>
        </extensions>
      </trkpt>
      <trkpt lat="43.077439852058887481689453125" lon="12.98398979008197784423828125">
        <ele>564.79998779296875</ele>
        <time>2021-06-04T08:06:46.000Z</time>
        <extensions>
          <ns3:TrackPointExtension>
            <ns3:atemp>26.0</ns3:atemp>
          </ns3:TrackPointExtension>
        </extensions>
      </trkpt>
      <trkpt lat="43.07743943296372890472412109375" lon="12.98398911952972412109375">
        <ele>564.79998779296875</ele>
        <time>2021-06-04T08:06:59.000Z</time>
        <extensions>
          <ns3:TrackPointExtension>
            <ns3:atemp>27.0</ns3:atemp>
          </ns3:TrackPointExtension>
        </extensions>
      </trkpt>
      <trkpt lat="43.0774269439280033111572265625" lon="12.98397126607596874237060546875">
        <ele>564.5999755859375</ele>
        <time>2021-06-04T08:07:13.000Z</time>
        <extensions>
          <ns3:TrackPointExtension>
            <ns3:atemp>27.0</ns3:atemp>
          </ns3:TrackPointExtension>
        </extensions>
      </trkpt>
      <trkpt lat="43.07735611684620380401611328125" lon="12.9838588647544384002685546875">
        <ele>564.79998779296875</ele>
        <time>2021-06-04T08:07:17.000Z</time>
        <extensions>
          <ns3:TrackPointExtension>
            <ns3:atemp>27.0</ns3:atemp>
          </ns3:TrackPointExtension>
        </extensions>
      </trkpt>
      <trkpt lat="43.07729124091565608978271484375" lon="12.98370572738349437713623046875">
        <ele>564.5999755859375</ele>
        <time>2021-06-04T08:07:22.000Z</time>
        <extensions>
          <ns3:TrackPointExtension>
            <ns3:atemp>27.0</ns3:atemp>
          </ns3:TrackPointExtension>
        </extensions>
      </trkpt>
      <trkpt lat="43.07731814682483673095703125" lon="12.983593828976154327392578125">
        <ele>564.4000244140625</ele>
        <time>2021-06-04T08:07:26.000Z</time>
        <extensions>
          <ns3:TrackPointExtension>
            <ns3:atemp>27.0</ns3:atemp>
          </ns3:TrackPointExtension>
        </extensions>
      </trkpt>
      <trkpt lat="43.07734723202884197235107421875" lon="12.98347891308367252349853515625">
        <ele>565.4000244140625</ele>
        <time>2021-06-04T08:07:31.000Z</time>
        <extensions>
          <ns3:TrackPointExtension>
            <ns3:atemp>27.0</ns3:atemp>
          </ns3:TrackPointExtension>
        </extensions>
      </trkpt>
      <trkpt lat="43.0773652531206607818603515625" lon="12.98340498469769954681396484375">
        <ele>566</ele>
        <time>2021-06-04T08:07:38.000Z</time>
        <extensions>
          <ns3:TrackPointExtension>
            <ns3:atemp>28.0</ns3:atemp>
          </ns3:TrackPointExtension>
        </extensions>
      </trkpt>
      <trkpt lat="43.07746239937841892242431640625" lon="12.9832225106656551361083984375">
        <ele>566</ele>
        <time>2021-06-04T08:07:43.000Z</time>
        <extensions>
          <ns3:TrackPointExtension>
            <ns3:atemp>28.0</ns3:atemp>
          </ns3:TrackPointExtension>
        </extensions>
      </trkpt>
      <trkpt lat="43.07750967331230640411376953125" lon="12.98313508741557598114013671875">
        <ele>565</ele>
        <time>2021-06-04T08:07:47.000Z</time>
        <extensions>
          <ns3:TrackPointExtension>
            <ns3:atemp>28.0</ns3:atemp>
          </ns3:TrackPointExtension>
        </extensions>
      </trkpt>
      <trkpt lat="43.07750866748392581939697265625" lon="12.98303701914846897125244140625">
        <ele>564.79998779296875</ele>
        <time>2021-06-04T08:07:51.000Z</time>
        <extensions>
          <ns3:TrackPointExtension>
            <ns3:atemp>28.0</ns3:atemp>
          </ns3:TrackPointExtension>
        </extensions>
      </trkpt>
      <trkpt lat="43.07750866748392581939697265625" lon="12.983005754649639129638671875">
        <ele>564.79998779296875</ele>
        <time>2021-06-04T08:07:52.000Z</time>
        <extensions>
          <ns3:TrackPointExtension>
            <ns3:atemp>28.0</ns3:atemp>
          </ns3:TrackPointExtension>
        </extensions>
      </trkpt>
      <trkpt lat="43.0775017105042934417724609375" lon="12.98290139995515346527099609375">
        <ele>564.79998779296875</ele>
        <time>2021-06-04T08:07:56.000Z</time>
        <extensions>
          <ns3:TrackPointExtension>
            <ns3:atemp>28.0</ns3:atemp>
          </ns3:TrackPointExtension>
        </extensions>
      </trkpt>
      <trkpt lat="43.07748846709728240966796875" lon="12.98277868889272212982177734375">
        <ele>564.79998779296875</ele>
        <time>2021-06-04T08:08:00.000Z</time>
        <extensions>
          <ns3:TrackPointExtension>
            <ns3:atemp>28.0</ns3:atemp>
          </ns3:TrackPointExtension>
        </extensions>
      </trkpt>
      <trkpt lat="43.077480755746364593505859375" lon="12.9827450774610042572021484375">
        <ele>564.79998779296875</ele>
        <time>2021-06-04T08:08:01.000Z</time>
        <extensions>
          <ns3:TrackPointExtension>
            <ns3:atemp>28.0</ns3:atemp>
          </ns3:TrackPointExtension>
        </extensions>
      </trkpt>
      <trkpt lat="43.07745552621781826019287109375" lon="12.98259629867970943450927734375">
        <ele>565</ele>
        <time>2021-06-04T08:08:06.000Z</time>
        <extensions>
          <ns3:TrackPointExtension>
            <ns3:atemp>28.0</ns3:atemp>
          </ns3:TrackPointExtension>
        </extensions>
      </trkpt>
      <trkpt lat="43.0774400196969509124755859375" lon="12.98254969529807567596435546875">
        <ele>565</ele>
        <time>2021-06-04T08:08:08.000Z</time>
        <extensions>
          <ns3:TrackPointExtension>
            <ns3:atemp>28.0</ns3:atemp>
          </ns3:TrackPointExtension>
        </extensions>
      </trkpt>
      <trkpt lat="43.07741738855838775634765625" lon="12.9825030080974102020263671875">
        <ele>564.79998779296875</ele>
        <time>2021-06-04T08:08:10.000Z</time>
        <extensions>
          <ns3:TrackPointExtension>
            <ns3:atemp>28.0</ns3:atemp>
          </ns3:TrackPointExtension>
        </extensions>
      </trkpt>
      <trkpt lat="43.0773538537323474884033203125" lon="12.98244894482195377349853515625">
        <ele>564.5999755859375</ele>
        <time>2021-06-04T08:08:14.000Z</time>
        <extensions>
          <ns3:TrackPointExtension>
            <ns3:atemp>28.0</ns3:atemp>
          </ns3:TrackPointExtension>
        </extensions>
      </trkpt>
      <trkpt lat="43.07734119705855846405029296875" lon="12.98244408331811428070068359375">
        <ele>564.4000244140625</ele>
        <time>2021-06-04T08:08:15.000Z</time>
        <extensions>
          <ns3:TrackPointExtension>
            <ns3:atemp>28.0</ns3:atemp>
          </ns3:TrackPointExtension>
        </extensions>
      </trkpt>
      <trkpt lat="43.07732351124286651611328125" lon="12.982419691979885101318359375">
        <ele>564</ele>
        <time>2021-06-04T08:08:17.000Z</time>
        <extensions>
          <ns3:TrackPointExtension>
            <ns3:atemp>27.0</ns3:atemp>
          </ns3:TrackPointExtension>
        </extensions>
      </trkpt>
      <trkpt lat="43.07728336192667484283447265625" lon="12.9823581688106060028076171875">
        <ele>563.5999755859375</ele>
        <time>2021-06-04T08:08:21.000Z</time>
        <extensions>
          <ns3:TrackPointExtension>
            <ns3:atemp>27.0</ns3:atemp>
          </ns3:TrackPointExtension>
        </extensions>
      </trkpt>
      <trkpt lat="43.07728101499378681182861328125" lon="12.98234350048005580902099609375">
        <ele>563.4000244140625</ele>
        <time>2021-06-04T08:08:23.000Z</time>
        <extensions>
          <ns3:TrackPointExtension>
            <ns3:atemp>27.0</ns3:atemp>
          </ns3:TrackPointExtension>
        </extensions>
      </trkpt>
      <trkpt lat="43.0772784166038036346435546875" lon="12.9823346994817256927490234375">
        <ele>562.4000244140625</ele>
        <time>2021-06-04T08:08:30.000Z</time>
        <extensions>
          <ns3:TrackPointExtension>
            <ns3:atemp>27.0</ns3:atemp>
          </ns3:TrackPointExtension>
        </extensions>
      </trkpt>
      <trkpt lat="43.0772785842418670654296875" lon="12.9823336936533451080322265625">
        <ele>562.4000244140625</ele>
        <time>2021-06-04T08:08:40.000Z</time>
        <extensions>
          <ns3:TrackPointExtension>
            <ns3:atemp>27.0</ns3:atemp>
          </ns3:TrackPointExtension>
        </extensions>
      </trkpt>
      <trkpt lat="43.0772673524916172027587890625" lon="12.98231877386569976806640625">
        <ele>562.20001220703125</ele>
        <time>2021-06-04T08:08:47.000Z</time>
        <extensions>
          <ns3:TrackPointExtension>
            <ns3:atemp>27.0</ns3:atemp>
          </ns3:TrackPointExtension>
        </extensions>
      </trkpt>
      <trkpt lat="43.0772383511066436767578125" lon="12.98228918574750423431396484375">
        <ele>562.20001220703125</ele>
        <time>2021-06-04T08:08:52.000Z</time>
        <extensions>
          <ns3:TrackPointExtension>
            <ns3:atemp>27.0</ns3:atemp>
          </ns3:TrackPointExtension>
        </extensions>
      </trkpt>
      <trkpt lat="43.07722695171833038330078125" lon="12.98223562538623809814453125">
        <ele>562</ele>
        <time>2021-06-04T08:08:58.000Z</time>
        <extensions>
          <ns3:TrackPointExtension>
            <ns3:atemp>28.0</ns3:atemp>
          </ns3:TrackPointExtension>
        </extensions>
      </trkpt>
      <trkpt lat="43.0772237665951251983642578125" lon="12.98222397454082965850830078125">
        <ele>561.4000244140625</ele>
        <time>2021-06-04T08:09:03.000Z</time>
        <extensions>
          <ns3:TrackPointExtension>
            <ns3:atemp>28.0</ns3:atemp>
          </ns3:TrackPointExtension>
        </extensions>
      </trkpt>
      <trkpt lat="43.0772247724235057830810546875" lon="12.9821875132620334625244140625">
        <ele>561.4000244140625</ele>
        <time>2021-06-04T08:09:07.000Z</time>
        <extensions>
          <ns3:TrackPointExtension>
            <ns3:atemp>28.0</ns3:atemp>
          </ns3:TrackPointExtension>
        </extensions>
      </trkpt>
      <trkpt lat="43.07721127755939960479736328125" lon="12.9820688255131244659423828125">
        <ele>561</ele>
        <time>2021-06-04T08:09:12.000Z</time>
        <extensions>
          <ns3:TrackPointExtension>
            <ns3:atemp>28.0</ns3:atemp>
          </ns3:TrackPointExtension>
        </extensions>
      </trkpt>
      <trkpt lat="43.07719887234270572662353515625" lon="12.98201275058090686798095703125">
        <ele>560.79998779296875</ele>
        <time>2021-06-04T08:09:15.000Z</time>
        <extensions>
          <ns3:TrackPointExtension>
            <ns3:atemp>28.0</ns3:atemp>
          </ns3:TrackPointExtension>
        </extensions>
      </trkpt>
      <trkpt lat="43.07719250209629535675048828125" lon="12.98197411000728607177734375">
        <ele>560.20001220703125</ele>
        <time>2021-06-04T08:09:17.000Z</time>
        <extensions>
          <ns3:TrackPointExtension>
            <ns3:atemp>28.0</ns3:atemp>
          </ns3:TrackPointExtension>
        </extensions>
      </trkpt>
      <trkpt lat="43.0771868862211704254150390625" lon="12.98183958046138286590576171875">
        <ele>559.4000244140625</ele>
        <time>2021-06-04T08:09:21.000Z</time>
        <extensions>
          <ns3:TrackPointExtension>
            <ns3:atemp>28.0</ns3:atemp>
          </ns3:TrackPointExtension>
        </extensions>
      </trkpt>
      <trkpt lat="43.077187053859233856201171875" lon="12.9817711003124713897705078125">
        <ele>559</ele>
        <time>2021-06-04T08:09:23.000Z</time>
        <extensions>
          <ns3:TrackPointExtension>
            <ns3:atemp>28.0</ns3:atemp>
          </ns3:TrackPointExtension>
        </extensions>
      </trkpt>
      <trkpt lat="43.0772083438932895660400390625" lon="12.98164956271648406982421875">
        <ele>557.5999755859375</ele>
        <time>2021-06-04T08:09:26.000Z</time>
        <extensions>
          <ns3:TrackPointExtension>
            <ns3:atemp>28.0</ns3:atemp>
          </ns3:TrackPointExtension>
        </extensions>
      </trkpt>
      <trkpt lat="43.077218569815158843994140625" lon="12.98161209560930728912353515625">
        <ele>557.20001220703125</ele>
        <time>2021-06-04T08:09:27.000Z</time>
        <extensions>
          <ns3:TrackPointExtension>
            <ns3:atemp>28.0</ns3:atemp>
          </ns3:TrackPointExtension>
        </extensions>
      </trkpt>
      <trkpt lat="43.0772214196622371673583984375" lon="12.9815830104053020477294921875">
        <ele>556.5999755859375</ele>
        <time>2021-06-04T08:09:28.000Z</time>
        <extensions>
          <ns3:TrackPointExtension>
            <ns3:atemp>28.0</ns3:atemp>
          </ns3:TrackPointExtension>
        </extensions>
      </trkpt>
      <trkpt lat="43.07722033001482486724853515625" lon="12.98154302872717380523681640625">
        <ele>555.4000244140625</ele>
        <time>2021-06-04T08:09:30.000Z</time>
        <extensions>
          <ns3:TrackPointExtension>
            <ns3:atemp>28.0</ns3:atemp>
          </ns3:TrackPointExtension>
        </extensions>
      </trkpt>
      <trkpt lat="43.07720926590263843536376953125" lon="12.981511093676090240478515625">
        <ele>554.79998779296875</ele>
        <time>2021-06-04T08:09:31.000Z</time>
        <extensions>
          <ns3:TrackPointExtension>
            <ns3:atemp>28.0</ns3:atemp>
          </ns3:TrackPointExtension>
        </extensions>
      </trkpt>
      <trkpt lat="43.07720406912267208099365234375" lon="12.981454432010650634765625">
        <ele>554.20001220703125</ele>
        <time>2021-06-04T08:09:32.000Z</time>
        <extensions>
          <ns3:TrackPointExtension>
            <ns3:atemp>28.0</ns3:atemp>
          </ns3:TrackPointExtension>
        </extensions>
      </trkpt>
      <trkpt lat="43.077195100486278533935546875" lon="12.9813335649669170379638671875">
        <ele>553</ele>
        <time>2021-06-04T08:09:34.000Z</time>
        <extensions>
          <ns3:TrackPointExtension>
            <ns3:atemp>28.0</ns3:atemp>
          </ns3:TrackPointExtension>
        </extensions>
      </trkpt>
      <trkpt lat="43.07719535194337368011474609375" lon="12.98127581365406513214111328125">
        <ele>552.5999755859375</ele>
        <time>2021-06-04T08:09:35.000Z</time>
        <extensions>
          <ns3:TrackPointExtension>
            <ns3:atemp>28.0</ns3:atemp>
          </ns3:TrackPointExtension>
        </extensions>
      </trkpt>
      <trkpt lat="43.07718646712601184844970703125" lon="12.98117338679730892181396484375">
        <ele>552</ele>
        <time>2021-06-04T08:09:37.000Z</time>
        <extensions>
          <ns3:TrackPointExtension>
            <ns3:atemp>28.0</ns3:atemp>
          </ns3:TrackPointExtension>
        </extensions>
      </trkpt>
      <trkpt lat="43.077184371650218963623046875" lon="12.9811293818056583404541015625">
        <ele>550.5999755859375</ele>
        <time>2021-06-04T08:09:38.000Z</time>
        <extensions>
          <ns3:TrackPointExtension>
            <ns3:atemp>28.0</ns3:atemp>
          </ns3:TrackPointExtension>
        </extensions>
      </trkpt>
      <trkpt lat="43.0771785043179988861083984375" lon="12.9810868017375469207763671875">
        <ele>549.5999755859375</ele>
        <time>2021-06-04T08:09:39.000Z</time>
        <extensions>
          <ns3:TrackPointExtension>
            <ns3:atemp>28.0</ns3:atemp>
          </ns3:TrackPointExtension>
        </extensions>
      </trkpt>
      <trkpt lat="43.07717263698577880859375" lon="12.98102905042469501495361328125">
        <ele>549</ele>
        <time>2021-06-04T08:09:40.000Z</time>
        <extensions>
          <ns3:TrackPointExtension>
            <ns3:atemp>28.0</ns3:atemp>
          </ns3:TrackPointExtension>
        </extensions>
      </trkpt>
      <trkpt lat="43.0771667696535587310791015625" lon="12.9809751547873020172119140625">
        <ele>548.5999755859375</ele>
        <time>2021-06-04T08:09:41.000Z</time>
        <extensions>
          <ns3:TrackPointExtension>
            <ns3:atemp>28.0</ns3:atemp>
          </ns3:TrackPointExtension>
        </extensions>
      </trkpt>
      <trkpt lat="43.07711035944521427154541015625" lon="12.980857305228710174560546875">
        <ele>547.5999755859375</ele>
        <time>2021-06-04T08:09:44.000Z</time>
        <extensions>
          <ns3:TrackPointExtension>
            <ns3:atemp>28.0</ns3:atemp>
          </ns3:TrackPointExtension>
        </extensions>
      </trkpt>
      <trkpt lat="43.07708353735506534576416015625" lon="12.98081028275191783905029296875">
        <ele>547.5999755859375</ele>
        <time>2021-06-04T08:09:45.000Z</time>
        <extensions>
          <ns3:TrackPointExtension>
            <ns3:atemp>28.0</ns3:atemp>
          </ns3:TrackPointExtension>
        </extensions>
      </trkpt>
      <trkpt lat="43.077062331140041351318359375" lon="12.98075730912387371063232421875">
        <ele>547.20001220703125</ele>
        <time>2021-06-04T08:09:46.000Z</time>
        <extensions>
          <ns3:TrackPointExtension>
            <ns3:atemp>28.0</ns3:atemp>
          </ns3:TrackPointExtension>
        </extensions>
      </trkpt>
      <trkpt lat="43.0770169012248516082763671875" lon="12.98065991140902042388916015625">
        <ele>546.5999755859375</ele>
        <time>2021-06-04T08:09:48.000Z</time>
        <extensions>
          <ns3:TrackPointExtension>
            <ns3:atemp>28.0</ns3:atemp>
          </ns3:TrackPointExtension>
        </extensions>
      </trkpt>
      <trkpt lat="43.07698152959346771240234375" lon="12.98060257919132709503173828125">
        <ele>546.20001220703125</ele>
        <time>2021-06-04T08:09:49.000Z</time>
        <extensions>
          <ns3:TrackPointExtension>
            <ns3:atemp>28.0</ns3:atemp>
          </ns3:TrackPointExtension>
        </extensions>
      </trkpt>
      <trkpt lat="43.076906092464923858642578125" lon="12.98050568439066410064697265625">
        <ele>544.79998779296875</ele>
        <time>2021-06-04T08:09:51.000Z</time>
        <extensions>
          <ns3:TrackPointExtension>
            <ns3:atemp>27.0</ns3:atemp>
          </ns3:TrackPointExtension>
        </extensions>
      </trkpt>
      <trkpt lat="43.0768677033483982086181640625" lon="12.980461679399013519287109375">
        <ele>543.79998779296875</ele>
        <time>2021-06-04T08:09:52.000Z</time>
        <extensions>
          <ns3:TrackPointExtension>
            <ns3:atemp>27.0</ns3:atemp>
          </ns3:TrackPointExtension>
        </extensions>
      </trkpt>
      <trkpt lat="43.076828978955745697021484375" lon="12.98041448928415775299072265625">
        <ele>542.5999755859375</ele>
        <time>2021-06-04T08:09:53.000Z</time>
        <extensions>
          <ns3:TrackPointExtension>
            <ns3:atemp>27.0</ns3:atemp>
          </ns3:TrackPointExtension>
        </extensions>
      </trkpt>
      <trkpt lat="43.07679670862853527069091796875" lon="12.98036553896963596343994140625">
        <ele>541.4000244140625</ele>
        <time>2021-06-04T08:09:54.000Z</time>
        <extensions>
          <ns3:TrackPointExtension>
            <ns3:atemp>27.0</ns3:atemp>
          </ns3:TrackPointExtension>
        </extensions>
      </trkpt>
      <trkpt lat="43.07676603086292743682861328125" lon="12.98031759448349475860595703125">
        <ele>540.20001220703125</ele>
        <time>2021-06-04T08:09:55.000Z</time>
        <extensions>
          <ns3:TrackPointExtension>
            <ns3:atemp>27.0</ns3:atemp>
          </ns3:TrackPointExtension>
        </extensions>
      </trkpt>
      <trkpt lat="43.07673535309731960296630859375" lon="12.9802702367305755615234375">
        <ele>539</ele>
        <time>2021-06-04T08:09:56.000Z</time>
        <extensions>
          <ns3:TrackPointExtension>
            <ns3:atemp>27.0</ns3:atemp>
          </ns3:TrackPointExtension>
        </extensions>
      </trkpt>
      <trkpt lat="43.076706267893314361572265625" lon="12.98022639937698841094970703125">
        <ele>538</ele>
        <time>2021-06-04T08:09:57.000Z</time>
        <extensions>
          <ns3:TrackPointExtension>
            <ns3:atemp>27.0</ns3:atemp>
          </ns3:TrackPointExtension>
        </extensions>
      </trkpt>
      <trkpt lat="43.0766765959560871124267578125" lon="12.9801748506724834442138671875">
        <ele>536.79998779296875</ele>
        <time>2021-06-04T08:09:58.000Z</time>
        <extensions>
          <ns3:TrackPointExtension>
            <ns3:atemp>27.0</ns3:atemp>
          </ns3:TrackPointExtension>
        </extensions>
      </trkpt>
      <trkpt lat="43.07660426013171672821044921875" lon="12.98006881959736347198486328125">
        <ele>535.4000244140625</ele>
        <time>2021-06-04T08:10:00.000Z</time>
        <extensions>
          <ns3:TrackPointExtension>
            <ns3:atemp>27.0</ns3:atemp>
          </ns3:TrackPointExtension>
        </extensions>
      </trkpt>
      <trkpt lat="43.0765253864228725433349609375" lon="12.97995046712458133697509765625">
        <ele>534.20001220703125</ele>
        <time>2021-06-04T08:10:02.000Z</time>
        <extensions>
          <ns3:TrackPointExtension>
            <ns3:atemp>27.0</ns3:atemp>
          </ns3:TrackPointExtension>
        </extensions>
      </trkpt>
      <trkpt lat="43.07648255489766597747802734375" lon="12.97988869249820709228515625">
        <ele>533.5999755859375</ele>
        <time>2021-06-04T08:10:03.000Z</time>
        <extensions>
          <ns3:TrackPointExtension>
            <ns3:atemp>27.0</ns3:atemp>
          </ns3:TrackPointExtension>
        </extensions>
      </trkpt>
      <trkpt lat="43.07638876140117645263671875" lon="12.979776374995708465576171875">
        <ele>533</ele>
        <time>2021-06-04T08:10:05.000Z</time>
        <extensions>
          <ns3:TrackPointExtension>
            <ns3:atemp>27.0</ns3:atemp>
          </ns3:TrackPointExtension>
        </extensions>
      </trkpt>
      <trkpt lat="43.07626563124358654022216796875" lon="12.97961116768419742584228515625">
        <ele>531.4000244140625</ele>
        <time>2021-06-04T08:10:08.000Z</time>
        <extensions>
          <ns3:TrackPointExtension>
            <ns3:atemp>27.0</ns3:atemp>
          </ns3:TrackPointExtension>
        </extensions>
      </trkpt>
      <trkpt lat="43.07622774504125118255615234375" lon="12.97956540249288082122802734375">
        <ele>531</ele>
        <time>2021-06-04T08:10:09.000Z</time>
        <extensions>
          <ns3:TrackPointExtension>
            <ns3:atemp>27.0</ns3:atemp>
          </ns3:TrackPointExtension>
        </extensions>
      </trkpt>
      <trkpt lat="43.07619622908532619476318359375" lon="12.979517541825771331787109375">
        <ele>530.20001220703125</ele>
        <time>2021-06-04T08:10:10.000Z</time>
        <extensions>
          <ns3:TrackPointExtension>
            <ns3:atemp>27.0</ns3:atemp>
          </ns3:TrackPointExtension>
        </extensions>
      </trkpt>
      <trkpt lat="43.07614157907664775848388671875" lon="12.9794224910438060760498046875">
        <ele>529.20001220703125</ele>
        <time>2021-06-04T08:10:12.000Z</time>
        <extensions>
          <ns3:TrackPointExtension>
            <ns3:atemp>27.0</ns3:atemp>
          </ns3:TrackPointExtension>
        </extensions>
      </trkpt>
      <trkpt lat="43.0761049501597881317138671875" lon="12.97931260429322719573974609375">
        <ele>528.79998779296875</ele>
        <time>2021-06-04T08:10:14.000Z</time>
        <extensions>
          <ns3:TrackPointExtension>
            <ns3:atemp>27.0</ns3:atemp>
          </ns3:TrackPointExtension>
        </extensions>
      </trkpt>
      <trkpt lat="43.07607804425060749053955078125" lon="12.9791973531246185302734375">
        <ele>528.20001220703125</ele>
        <time>2021-06-04T08:10:16.000Z</time>
        <extensions>
          <ns3:TrackPointExtension>
            <ns3:atemp>27.0</ns3:atemp>
          </ns3:TrackPointExtension>
        </extensions>
      </trkpt>
      <trkpt lat="43.07607737369835376739501953125" lon="12.97896341420710086822509765625">
        <ele>528</ele>
        <time>2021-06-04T08:10:20.000Z</time>
        <extensions>
          <ns3:TrackPointExtension>
            <ns3:atemp>27.0</ns3:atemp>
          </ns3:TrackPointExtension>
        </extensions>
      </trkpt>
      <trkpt lat="43.07616236619651317596435546875" lon="12.97871346585452556610107421875">
        <ele>528</ele>
        <time>2021-06-04T08:10:25.000Z</time>
        <extensions>
          <ns3:TrackPointExtension>
            <ns3:atemp>27.0</ns3:atemp>
          </ns3:TrackPointExtension>
        </extensions>
      </trkpt>
      <trkpt lat="43.0762729234993457794189453125" lon="12.97860148362815380096435546875">
        <ele>527.79998779296875</ele>
        <time>2021-06-04T08:10:29.000Z</time>
        <extensions>
          <ns3:TrackPointExtension>
            <ns3:atemp>27.0</ns3:atemp>
          </ns3:TrackPointExtension>
        </extensions>
      </trkpt>
      <trkpt lat="43.076391778886318206787109375" lon="12.9785055108368396759033203125">
        <ele>527.5999755859375</ele>
        <time>2021-06-04T08:10:32.000Z</time>
        <extensions>
          <ns3:TrackPointExtension>
            <ns3:atemp>27.0</ns3:atemp>
          </ns3:TrackPointExtension>
        </extensions>
      </trkpt>
      <trkpt lat="43.07642002590000629425048828125" lon="12.978458739817142486572265625">
        <ele>527.5999755859375</ele>
        <time>2021-06-04T08:10:33.000Z</time>
        <extensions>
          <ns3:TrackPointExtension>
            <ns3:atemp>27.0</ns3:atemp>
          </ns3:TrackPointExtension>
        </extensions>
      </trkpt>
      <trkpt lat="43.0764422379434108734130859375" lon="12.97829872928559780120849609375">
        <ele>527.4000244140625</ele>
        <time>2021-06-04T08:10:36.000Z</time>
        <extensions>
          <ns3:TrackPointExtension>
            <ns3:atemp>27.0</ns3:atemp>
          </ns3:TrackPointExtension>
        </extensions>
      </trkpt>
      <trkpt lat="43.07644751854240894317626953125" lon="12.97826771624386310577392578125">
        <ele>527.20001220703125</ele>
        <time>2021-06-04T08:10:37.000Z</time>
        <extensions>
          <ns3:TrackPointExtension>
            <ns3:atemp>27.0</ns3:atemp>
          </ns3:TrackPointExtension>
        </extensions>
      </trkpt>
      <trkpt lat="43.07644936256110668182373046875" lon="12.97823787666857242584228515625">
        <ele>525.5999755859375</ele>
        <time>2021-06-04T08:10:39.000Z</time>
        <extensions>
          <ns3:TrackPointExtension>
            <ns3:atemp>27.0</ns3:atemp>
          </ns3:TrackPointExtension>
        </extensions>
      </trkpt>
      <trkpt lat="43.076448775827884674072265625" lon="12.97823318280279636383056640625">
        <ele>524.4000244140625</ele>
        <time>2021-06-04T08:10:40.000Z</time>
        <extensions>
          <ns3:TrackPointExtension>
            <ns3:atemp>27.0</ns3:atemp>
          </ns3:TrackPointExtension>
        </extensions>
      </trkpt>
      <trkpt lat="43.076448775827884674072265625" lon="12.97822974622249603271484375">
        <ele>523.79998779296875</ele>
        <time>2021-06-04T08:10:41.000Z</time>
        <extensions>
          <ns3:TrackPointExtension>
            <ns3:atemp>27.0</ns3:atemp>
          </ns3:TrackPointExtension>
        </extensions>
      </trkpt>
      <trkpt lat="43.07645045220851898193359375" lon="12.97822597436606884002685546875">
        <ele>523.4000244140625</ele>
        <time>2021-06-04T08:10:42.000Z</time>
        <extensions>
          <ns3:TrackPointExtension>
            <ns3:atemp>27.0</ns3:atemp>
          </ns3:TrackPointExtension>
        </extensions>
      </trkpt>
      <trkpt lat="43.076456822454929351806640625" lon="12.97821323387324810028076171875">
        <ele>522.5999755859375</ele>
        <time>2021-06-04T08:10:53.000Z</time>
        <extensions>
          <ns3:TrackPointExtension>
            <ns3:atemp>27.0</ns3:atemp>
          </ns3:TrackPointExtension>
        </extensions>
      </trkpt>
      <trkpt lat="43.076454810798168182373046875" lon="12.97816512174904346466064453125">
        <ele>522.5999755859375</ele>
        <time>2021-06-04T08:11:16.000Z</time>
        <extensions>
          <ns3:TrackPointExtension>
            <ns3:atemp>27.0</ns3:atemp>
          </ns3:TrackPointExtension>
        </extensions>
      </trkpt>
      <trkpt lat="43.07642891071736812591552734375" lon="12.977931015193462371826171875">
        <ele>522.4000244140625</ele>
        <time>2021-06-04T08:11:21.000Z</time>
        <extensions>
          <ns3:TrackPointExtension>
            <ns3:atemp>27.0</ns3:atemp>
          </ns3:TrackPointExtension>
        </extensions>
      </trkpt>
      <trkpt lat="43.0764244683086872100830078125" lon="12.97783940099179744720458984375">
        <ele>522.4000244140625</ele>
        <time>2021-06-04T08:11:24.000Z</time>
        <extensions>
          <ns3:TrackPointExtension>
            <ns3:atemp>27.0</ns3:atemp>
          </ns3:TrackPointExtension>
        </extensions>
      </trkpt>
      <trkpt lat="43.076425306499004364013671875" lon="12.9778302647173404693603515625">
        <ele>522</ele>
        <time>2021-06-04T08:11:25.000Z</time>
        <extensions>
          <ns3:TrackPointExtension>
            <ns3:atemp>26.0</ns3:atemp>
          </ns3:TrackPointExtension>
        </extensions>
      </trkpt>
      <trkpt lat="43.076427318155765533447265625" lon="12.97782716341316699981689453125">
        <ele>521.4000244140625</ele>
        <time>2021-06-04T08:11:29.000Z</time>
        <extensions>
          <ns3:TrackPointExtension>
            <ns3:atemp>26.0</ns3:atemp>
          </ns3:TrackPointExtension>
        </extensions>
      </trkpt>
      <trkpt lat="43.07642790488898754119873046875" lon="12.97782615758478641510009765625">
        <ele>521.20001220703125</ele>
        <time>2021-06-04T08:11:40.000Z</time>
        <extensions>
          <ns3:TrackPointExtension>
            <ns3:atemp>26.0</ns3:atemp>
          </ns3:TrackPointExtension>
        </extensions>
      </trkpt>
      <trkpt lat="43.07642807252705097198486328125" lon="12.977793216705322265625">
        <ele>520.79998779296875</ele>
        <time>2021-06-04T08:12:02.000Z</time>
        <extensions>
          <ns3:TrackPointExtension>
            <ns3:atemp>26.0</ns3:atemp>
          </ns3:TrackPointExtension>
        </extensions>
      </trkpt>
      <trkpt lat="43.07642153464257717132568359375" lon="12.97765919007360935211181640625">
        <ele>520.79998779296875</ele>
        <time>2021-06-04T08:12:07.000Z</time>
        <extensions>
          <ns3:TrackPointExtension>
            <ns3:atemp>26.0</ns3:atemp>
          </ns3:TrackPointExtension>
        </extensions>
      </trkpt>
      <trkpt lat="43.07641826570034027099609375" lon="12.97740236856043338775634765625">
        <ele>520.79998779296875</ele>
        <time>2021-06-04T08:12:13.000Z</time>
        <extensions>
          <ns3:TrackPointExtension>
            <ns3:atemp>26.0</ns3:atemp>
          </ns3:TrackPointExtension>
        </extensions>
      </trkpt>
      <trkpt lat="43.07640929706394672393798828125" lon="12.9770864546298980712890625">
        <ele>520.20001220703125</ele>
        <time>2021-06-04T08:12:19.000Z</time>
        <extensions>
          <ns3:TrackPointExtension>
            <ns3:atemp>26.0</ns3:atemp>
          </ns3:TrackPointExtension>
        </extensions>
      </trkpt>
      <trkpt lat="43.07640141807496547698974609375" lon="12.9770209081470966339111328125">
        <ele>520</ele>
        <time>2021-06-04T08:12:20.000Z</time>
        <extensions>
          <ns3:TrackPointExtension>
            <ns3:atemp>26.0</ns3:atemp>
          </ns3:TrackPointExtension>
        </extensions>
      </trkpt>
      <trkpt lat="43.0763885937631130218505859375" lon="12.97695259563624858856201171875">
        <ele>519.79998779296875</ele>
        <time>2021-06-04T08:12:21.000Z</time>
        <extensions>
          <ns3:TrackPointExtension>
            <ns3:atemp>26.0</ns3:atemp>
          </ns3:TrackPointExtension>
        </extensions>
      </trkpt>
      <trkpt lat="43.07633838616311550140380859375" lon="12.97683508135378360748291015625">
        <ele>519.20001220703125</ele>
        <time>2021-06-04T08:12:23.000Z</time>
        <extensions>
          <ns3:TrackPointExtension>
            <ns3:atemp>26.0</ns3:atemp>
          </ns3:TrackPointExtension>
        </extensions>
      </trkpt>
      <trkpt lat="43.07631206698715686798095703125" lon="12.9767754860222339630126953125">
        <ele>519</ele>
        <time>2021-06-04T08:12:24.000Z</time>
        <extensions>
          <ns3:TrackPointExtension>
            <ns3:atemp>26.0</ns3:atemp>
          </ns3:TrackPointExtension>
        </extensions>
      </trkpt>
      <trkpt lat="43.07626429013907909393310546875" lon="12.9766443930566310882568359375">
        <ele>518.20001220703125</ele>
        <time>2021-06-04T08:12:26.000Z</time>
        <extensions>
          <ns3:TrackPointExtension>
            <ns3:atemp>26.0</ns3:atemp>
          </ns3:TrackPointExtension>
        </extensions>
      </trkpt>
      <trkpt lat="43.07624869979918003082275390625" lon="12.97657239250838756561279296875">
        <ele>517.5999755859375</ele>
        <time>2021-06-04T08:12:27.000Z</time>
        <extensions>
          <ns3:TrackPointExtension>
            <ns3:atemp>26.0</ns3:atemp>
          </ns3:TrackPointExtension>
        </extensions>
      </trkpt>
      <trkpt lat="43.07623093016445636749267578125" lon="12.97649946995079517364501953125">
        <ele>517</ele>
        <time>2021-06-04T08:12:28.000Z</time>
        <extensions>
          <ns3:TrackPointExtension>
            <ns3:atemp>26.0</ns3:atemp>
          </ns3:TrackPointExtension>
        </extensions>
      </trkpt>
      <trkpt lat="43.0762068741023540496826171875" lon="12.97643275000154972076416015625">
        <ele>516.4000244140625</ele>
        <time>2021-06-04T08:12:29.000Z</time>
        <extensions>
          <ns3:TrackPointExtension>
            <ns3:atemp>26.0</ns3:atemp>
          </ns3:TrackPointExtension>
        </extensions>
      </trkpt>
      <trkpt lat="43.0761019326746463775634765625" lon="12.97623217105865478515625">
        <ele>515.20001220703125</ele>
        <time>2021-06-04T08:12:32.000Z</time>
        <extensions>
          <ns3:TrackPointExtension>
            <ns3:atemp>26.0</ns3:atemp>
          </ns3:TrackPointExtension>
        </extensions>
      </trkpt>
      <trkpt lat="43.07606698013842105865478515625" lon="12.97616134397685527801513671875">
        <ele>513.5999755859375</ele>
        <time>2021-06-04T08:12:33.000Z</time>
        <extensions>
          <ns3:TrackPointExtension>
            <ns3:atemp>26.0</ns3:atemp>
          </ns3:TrackPointExtension>
        </extensions>
      </trkpt>
      <trkpt lat="43.07601115666329860687255859375" lon="12.97602069564163684844970703125">
        <ele>512.20001220703125</ele>
        <time>2021-06-04T08:12:35.000Z</time>
        <extensions>
          <ns3:TrackPointExtension>
            <ns3:atemp>26.0</ns3:atemp>
          </ns3:TrackPointExtension>
        </extensions>
      </trkpt>
      <trkpt lat="43.0759643018245697021484375" lon="12.9759051091969013214111328125">
        <ele>511</ele>
        <time>2021-06-04T08:12:37.000Z</time>
        <extensions>
          <ns3:TrackPointExtension>
            <ns3:atemp>26.0</ns3:atemp>
          </ns3:TrackPointExtension>
        </extensions>
      </trkpt>
      <trkpt lat="43.07593412697315216064453125" lon="12.97580410726368427276611328125">
        <ele>509</ele>
        <time>2021-06-04T08:12:39.000Z</time>
        <extensions>
          <ns3:TrackPointExtension>
            <ns3:atemp>26.0</ns3:atemp>
          </ns3:TrackPointExtension>
        </extensions>
      </trkpt>
      <trkpt lat="43.0759239010512828826904296875" lon="12.9757572524249553680419921875">
        <ele>508</ele>
        <time>2021-06-04T08:12:40.000Z</time>
        <extensions>
          <ns3:TrackPointExtension>
            <ns3:atemp>26.0</ns3:atemp>
          </ns3:TrackPointExtension>
        </extensions>
      </trkpt>
      <trkpt lat="43.0759011022746562957763671875" lon="12.975704781711101531982421875">
        <ele>506.399993896484375</ele>
        <time>2021-06-04T08:12:42.000Z</time>
        <extensions>
          <ns3:TrackPointExtension>
            <ns3:atemp>26.0</ns3:atemp>
          </ns3:TrackPointExtension>
        </extensions>
      </trkpt>
      <trkpt lat="43.075844608247280120849609375" lon="12.97570855356752872467041015625">
        <ele>505</ele>
        <time>2021-06-04T08:12:45.000Z</time>
        <extensions>
          <ns3:TrackPointExtension>
            <ns3:atemp>26.0</ns3:atemp>
          </ns3:TrackPointExtension>
        </extensions>
      </trkpt>
      <trkpt lat="43.07582843117415904998779296875" lon="12.975732944905757904052734375">
        <ele>504.399993896484375</ele>
        <time>2021-06-04T08:12:46.000Z</time>
        <extensions>
          <ns3:TrackPointExtension>
            <ns3:atemp>26.0</ns3:atemp>
          </ns3:TrackPointExtension>
        </extensions>
      </trkpt>
      <trkpt lat="43.07581652887165546417236328125" lon="12.97576253302395343780517578125">
        <ele>504</ele>
        <time>2021-06-04T08:12:47.000Z</time>
        <extensions>
          <ns3:TrackPointExtension>
            <ns3:atemp>26.0</ns3:atemp>
          </ns3:TrackPointExtension>
        </extensions>
      </trkpt>
      <trkpt lat="43.0758032016456127166748046875" lon="12.97579404897987842559814453125">
        <ele>503.79998779296875</ele>
        <time>2021-06-04T08:12:48.000Z</time>
        <extensions>
          <ns3:TrackPointExtension>
            <ns3:atemp>26.0</ns3:atemp>
          </ns3:TrackPointExtension>
        </extensions>
      </trkpt>
      <trkpt lat="43.0757428519427776336669921875" lon="12.97595649026334285736083984375">
        <ele>503</ele>
        <time>2021-06-04T08:12:52.000Z</time>
        <extensions>
          <ns3:TrackPointExtension>
            <ns3:atemp>26.0</ns3:atemp>
          </ns3:TrackPointExtension>
        </extensions>
      </trkpt>
      <trkpt lat="43.075663559138774871826171875" lon="12.97624382190406322479248046875">
        <ele>502.79998779296875</ele>
        <time>2021-06-04T08:12:58.000Z</time>
        <extensions>
          <ns3:TrackPointExtension>
            <ns3:atemp>26.0</ns3:atemp>
          </ns3:TrackPointExtension>
        </extensions>
      </trkpt>
      <trkpt lat="43.07565257884562015533447265625" lon="12.97629679553210735321044921875">
        <ele>502.79998779296875</ele>
        <time>2021-06-04T08:12:59.000Z</time>
        <extensions>
          <ns3:TrackPointExtension>
            <ns3:atemp>26.0</ns3:atemp>
          </ns3:TrackPointExtension>
        </extensions>
      </trkpt>
      <trkpt lat="43.0756157822906970977783203125" lon="12.97652763314545154571533203125">
        <ele>503</ele>
        <time>2021-06-04T08:13:03.000Z</time>
        <extensions>
          <ns3:TrackPointExtension>
            <ns3:atemp>26.0</ns3:atemp>
          </ns3:TrackPointExtension>
        </extensions>
      </trkpt>
      <trkpt lat="43.075605221092700958251953125" lon="12.97671496868133544921875">
        <ele>503</ele>
        <time>2021-06-04T08:13:06.000Z</time>
        <extensions>
          <ns3:TrackPointExtension>
            <ns3:atemp>26.0</ns3:atemp>
          </ns3:TrackPointExtension>
        </extensions>
      </trkpt>
      <trkpt lat="43.07560346089303493499755859375" lon="12.9769095964729785919189453125">
        <ele>503</ele>
        <time>2021-06-04T08:13:09.000Z</time>
        <extensions>
          <ns3:TrackPointExtension>
            <ns3:atemp>26.0</ns3:atemp>
          </ns3:TrackPointExtension>
        </extensions>
      </trkpt>
      <trkpt lat="43.07560211978852748870849609375" lon="12.97704881988465785980224609375">
        <ele>502.79998779296875</ele>
        <time>2021-06-04T08:13:11.000Z</time>
        <extensions>
          <ns3:TrackPointExtension>
            <ns3:atemp>26.0</ns3:atemp>
          </ns3:TrackPointExtension>
        </extensions>
      </trkpt>
      <trkpt lat="43.0756000243127346038818359375" lon="12.97726213932037353515625">
        <ele>502.20001220703125</ele>
        <time>2021-06-04T08:13:14.000Z</time>
        <extensions>
          <ns3:TrackPointExtension>
            <ns3:atemp>26.0</ns3:atemp>
          </ns3:TrackPointExtension>
        </extensions>
      </trkpt>
      <trkpt lat="43.07559340260922908782958984375" lon="12.977406643331050872802734375">
        <ele>502</ele>
        <time>2021-06-04T08:13:16.000Z</time>
        <extensions>
          <ns3:TrackPointExtension>
            <ns3:atemp>26.0</ns3:atemp>
          </ns3:TrackPointExtension>
        </extensions>
      </trkpt>
      <trkpt lat="43.0755953304469585418701171875" lon="12.97755307517945766448974609375">
        <ele>501.79998779296875</ele>
        <time>2021-06-04T08:13:18.000Z</time>
        <extensions>
          <ns3:TrackPointExtension>
            <ns3:atemp>26.0</ns3:atemp>
          </ns3:TrackPointExtension>
        </extensions>
      </trkpt>
      <trkpt lat="43.075589127838611602783203125" lon="12.9776255786418914794921875">
        <ele>501.600006103515625</ele>
        <time>2021-06-04T08:13:19.000Z</time>
        <extensions>
          <ns3:TrackPointExtension>
            <ns3:atemp>26.0</ns3:atemp>
          </ns3:TrackPointExtension>
        </extensions>
      </trkpt>
      <trkpt lat="43.075574375689029693603515625" lon="12.977770753204822540283203125">
        <ele>501.20001220703125</ele>
        <time>2021-06-04T08:13:21.000Z</time>
        <extensions>
          <ns3:TrackPointExtension>
            <ns3:atemp>26.0</ns3:atemp>
          </ns3:TrackPointExtension>
        </extensions>
      </trkpt>
      <trkpt lat="43.07555635459721088409423828125" lon="12.9781400598585605621337890625">
        <ele>500.399993896484375</ele>
        <time>2021-06-04T08:13:26.000Z</time>
        <extensions>
          <ns3:TrackPointExtension>
            <ns3:atemp>26.0</ns3:atemp>
          </ns3:TrackPointExtension>
        </extensions>
      </trkpt>
      <trkpt lat="43.07554763741791248321533203125" lon="12.978289760649204254150390625">
        <ele>500.20001220703125</ele>
        <time>2021-06-04T08:13:28.000Z</time>
        <extensions>
          <ns3:TrackPointExtension>
            <ns3:atemp>26.0</ns3:atemp>
          </ns3:TrackPointExtension>
        </extensions>
      </trkpt>
      <trkpt lat="43.0755574442446231842041015625" lon="12.97876174561679363250732421875">
        <ele>499.600006103515625</ele>
        <time>2021-06-04T08:13:34.000Z</time>
        <extensions>
          <ns3:TrackPointExtension>
            <ns3:atemp>26.0</ns3:atemp>
          </ns3:TrackPointExtension>
        </extensions>
      </trkpt>
      <trkpt lat="43.075569011270999908447265625" lon="12.9788394458591938018798828125">
        <ele>499.399993896484375</ele>
        <time>2021-06-04T08:13:35.000Z</time>
        <extensions>
          <ns3:TrackPointExtension>
            <ns3:atemp>26.0</ns3:atemp>
          </ns3:TrackPointExtension>
        </extensions>
      </trkpt>
      <trkpt lat="43.07558233849704265594482421875" lon="12.97891530208289623260498046875">
        <ele>499.20001220703125</ele>
        <time>2021-06-04T08:13:36.000Z</time>
        <extensions>
          <ns3:TrackPointExtension>
            <ns3:atemp>26.0</ns3:atemp>
          </ns3:TrackPointExtension>
        </extensions>
      </trkpt>
      <trkpt lat="43.0756362341344356536865234375" lon="12.97914437949657440185546875">
        <ele>498.600006103515625</ele>
        <time>2021-06-04T08:13:39.000Z</time>
        <extensions>
          <ns3:TrackPointExtension>
            <ns3:atemp>26.0</ns3:atemp>
          </ns3:TrackPointExtension>
        </extensions>
      </trkpt>
      <trkpt lat="43.07568778283894062042236328125" lon="12.979292906820774078369140625">
        <ele>498.399993896484375</ele>
        <time>2021-06-04T08:13:41.000Z</time>
        <extensions>
          <ns3:TrackPointExtension>
            <ns3:atemp>26.0</ns3:atemp>
          </ns3:TrackPointExtension>
        </extensions>
      </trkpt>
      <trkpt lat="43.0757616274058818817138671875" lon="12.97951796092092990875244140625">
        <ele>498.20001220703125</ele>
        <time>2021-06-04T08:13:44.000Z</time>
        <extensions>
          <ns3:TrackPointExtension>
            <ns3:atemp>26.0</ns3:atemp>
          </ns3:TrackPointExtension>
        </extensions>
      </trkpt>
      <trkpt lat="43.07578719221055507659912109375" lon="12.97958669252693653106689453125">
        <ele>498.20001220703125</ele>
        <time>2021-06-04T08:13:45.000Z</time>
        <extensions>
          <ns3:TrackPointExtension>
            <ns3:atemp>26.0</ns3:atemp>
          </ns3:TrackPointExtension>
        </extensions>
      </trkpt>
      <trkpt lat="43.07581686414778232574462890625" lon="12.97965140081942081451416015625">
        <ele>497.79998779296875</ele>
        <time>2021-06-04T08:13:46.000Z</time>
        <extensions>
          <ns3:TrackPointExtension>
            <ns3:atemp>26.0</ns3:atemp>
          </ns3:TrackPointExtension>
        </extensions>
      </trkpt>
      <trkpt lat="43.07589028961956501007080078125" lon="12.97976438887417316436767578125">
        <ele>497</ele>
        <time>2021-06-04T08:13:48.000Z</time>
        <extensions>
          <ns3:TrackPointExtension>
            <ns3:atemp>26.0</ns3:atemp>
          </ns3:TrackPointExtension>
        </extensions>
      </trkpt>
      <trkpt lat="43.07600931264460086822509765625" lon="12.97993336804211139678955078125">
        <ele>496.79998779296875</ele>
        <time>2021-06-04T08:13:51.000Z</time>
        <extensions>
          <ns3:TrackPointExtension>
            <ns3:atemp>26.0</ns3:atemp>
          </ns3:TrackPointExtension>
        </extensions>
      </trkpt>
      <trkpt lat="43.07633888907730579376220703125" lon="12.98042421229183673858642578125">
        <ele>496.20001220703125</ele>
        <time>2021-06-04T08:13:59.000Z</time>
        <extensions>
          <ns3:TrackPointExtension>
            <ns3:atemp>26.0</ns3:atemp>
          </ns3:TrackPointExtension>
        </extensions>
      </trkpt>
      <trkpt lat="43.0763768590986728668212890625" lon="12.9804893396794795989990234375">
        <ele>496</ele>
        <time>2021-06-04T08:14:00.000Z</time>
        <extensions>
          <ns3:TrackPointExtension>
            <ns3:atemp>26.0</ns3:atemp>
          </ns3:TrackPointExtension>
        </extensions>
      </trkpt>
      <trkpt lat="43.07644416578114032745361328125" lon="12.98062487505376338958740234375">
        <ele>495.399993896484375</ele>
        <time>2021-06-04T08:14:02.000Z</time>
        <extensions>
          <ns3:TrackPointExtension>
            <ns3:atemp>26.0</ns3:atemp>
          </ns3:TrackPointExtension>
        </extensions>
      </trkpt>
      <trkpt lat="43.07649529539048671722412109375" lon="12.9807652719318866729736328125">
        <ele>495.399993896484375</ele>
        <time>2021-06-04T08:14:04.000Z</time>
        <extensions>
          <ns3:TrackPointExtension>
            <ns3:atemp>26.0</ns3:atemp>
          </ns3:TrackPointExtension>
        </extensions>
      </trkpt>
      <trkpt lat="43.07653938420116901397705078125" lon="12.98098412342369556427001953125">
        <ele>495.399993896484375</ele>
        <time>2021-06-04T08:14:07.000Z</time>
        <extensions>
          <ns3:TrackPointExtension>
            <ns3:atemp>26.0</ns3:atemp>
          </ns3:TrackPointExtension>
        </extensions>
      </trkpt>
      <trkpt lat="43.07655028067529201507568359375" lon="12.98121915198862552642822265625">
        <ele>495.399993896484375</ele>
        <time>2021-06-04T08:14:10.000Z</time>
        <extensions>
          <ns3:TrackPointExtension>
            <ns3:atemp>26.0</ns3:atemp>
          </ns3:TrackPointExtension>
        </extensions>
      </trkpt>
      <trkpt lat="43.07652697898447513580322265625" lon="12.98152056522667407989501953125">
        <ele>495.399993896484375</ele>
        <time>2021-06-04T08:14:14.000Z</time>
        <extensions>
          <ns3:TrackPointExtension>
            <ns3:atemp>26.0</ns3:atemp>
          </ns3:TrackPointExtension>
        </extensions>
      </trkpt>
      <trkpt lat="43.0765106342732906341552734375" lon="12.981603629887104034423828125">
        <ele>495.600006103515625</ele>
        <time>2021-06-04T08:14:15.000Z</time>
        <extensions>
          <ns3:TrackPointExtension>
            <ns3:atemp>26.0</ns3:atemp>
          </ns3:TrackPointExtension>
        </extensions>
      </trkpt>
      <trkpt lat="43.07644450105726718902587890625" lon="12.9821030236780643463134765625">
        <ele>495.79998779296875</ele>
        <time>2021-06-04T08:14:21.000Z</time>
        <extensions>
          <ns3:TrackPointExtension>
            <ns3:atemp>26.0</ns3:atemp>
          </ns3:TrackPointExtension>
        </extensions>
      </trkpt>
      <trkpt lat="43.07644315995275974273681640625" lon="12.982264794409275054931640625">
        <ele>495.79998779296875</ele>
        <time>2021-06-04T08:14:23.000Z</time>
        <extensions>
          <ns3:TrackPointExtension>
            <ns3:atemp>26.0</ns3:atemp>
          </ns3:TrackPointExtension>
        </extensions>
      </trkpt>
      <trkpt lat="43.07647182606160640716552734375" lon="12.98250996507704257965087890625">
        <ele>495.600006103515625</ele>
        <time>2021-06-04T08:14:26.000Z</time>
        <extensions>
          <ns3:TrackPointExtension>
            <ns3:atemp>25.0</ns3:atemp>
          </ns3:TrackPointExtension>
        </extensions>
      </trkpt>
      <trkpt lat="43.07647719047963619232177734375" lon="12.98259495757520198822021484375">
        <ele>495.600006103515625</ele>
        <time>2021-06-04T08:14:27.000Z</time>
        <extensions>
          <ns3:TrackPointExtension>
            <ns3:atemp>25.0</ns3:atemp>
          </ns3:TrackPointExtension>
        </extensions>
      </trkpt>
      <trkpt lat="43.07646176777780055999755859375" lon="12.98296007327735424041748046875">
        <ele>495.20001220703125</ele>
        <time>2021-06-04T08:14:31.000Z</time>
        <extensions>
          <ns3:TrackPointExtension>
            <ns3:atemp>25.0</ns3:atemp>
          </ns3:TrackPointExtension>
        </extensions>
      </trkpt>
      <trkpt lat="43.07644751854240894317626953125" lon="12.983050681650638580322265625">
        <ele>495</ele>
        <time>2021-06-04T08:14:32.000Z</time>
        <extensions>
          <ns3:TrackPointExtension>
            <ns3:atemp>25.0</ns3:atemp>
          </ns3:TrackPointExtension>
        </extensions>
      </trkpt>
      <trkpt lat="43.0764160864055156707763671875" lon="12.98322745598852634429931640625">
        <ele>494.399993896484375</ele>
        <time>2021-06-04T08:14:34.000Z</time>
        <extensions>
          <ns3:TrackPointExtension>
            <ns3:atemp>25.0</ns3:atemp>
          </ns3:TrackPointExtension>
        </extensions>
      </trkpt>
      <trkpt lat="43.076402842998504638671875" lon="12.98331580124795436859130859375">
        <ele>494</ele>
        <time>2021-06-04T08:14:35.000Z</time>
        <extensions>
          <ns3:TrackPointExtension>
            <ns3:atemp>25.0</ns3:atemp>
          </ns3:TrackPointExtension>
        </extensions>
      </trkpt>
      <trkpt lat="43.076380379498004913330078125" lon="12.98350120894610881805419921875">
        <ele>493.600006103515625</ele>
        <time>2021-06-04T08:14:37.000Z</time>
        <extensions>
          <ns3:TrackPointExtension>
            <ns3:atemp>25.0</ns3:atemp>
          </ns3:TrackPointExtension>
        </extensions>
      </trkpt>
      <trkpt lat="43.076344169676303863525390625" lon="12.98376725055277347564697265625">
        <ele>493.399993896484375</ele>
        <time>2021-06-04T08:14:40.000Z</time>
        <extensions>
          <ns3:TrackPointExtension>
            <ns3:atemp>25.0</ns3:atemp>
          </ns3:TrackPointExtension>
        </extensions>
      </trkpt>
      <trkpt lat="43.0763389728963375091552734375" lon="12.9838585294783115386962890625">
        <ele>493.399993896484375</ele>
        <time>2021-06-04T08:14:41.000Z</time>
        <extensions>
          <ns3:TrackPointExtension>
            <ns3:atemp>25.0</ns3:atemp>
          </ns3:TrackPointExtension>
        </extensions>
      </trkpt>
      <trkpt lat="43.07637392543256282806396484375" lon="12.984160445630550384521484375">
        <ele>493</ele>
        <time>2021-06-04T08:14:44.000Z</time>
        <extensions>
          <ns3:TrackPointExtension>
            <ns3:atemp>25.0</ns3:atemp>
          </ns3:TrackPointExtension>
        </extensions>
      </trkpt>
      <trkpt lat="43.0764066986739635467529296875" lon="12.9842598550021648406982421875">
        <ele>492.79998779296875</ele>
        <time>2021-06-04T08:14:45.000Z</time>
        <extensions>
          <ns3:TrackPointExtension>
            <ns3:atemp>25.0</ns3:atemp>
          </ns3:TrackPointExtension>
        </extensions>
      </trkpt>
      <trkpt lat="43.0764891766011714935302734375" lon="12.98443771898746490478515625">
        <ele>492.600006103515625</ele>
        <time>2021-06-04T08:14:47.000Z</time>
        <extensions>
          <ns3:TrackPointExtension>
            <ns3:atemp>25.0</ns3:atemp>
          </ns3:TrackPointExtension>
        </extensions>
      </trkpt>
      <trkpt lat="43.07680022902786731719970703125" lon="12.98494256101548671722412109375">
        <ele>492.20001220703125</ele>
        <time>2021-06-04T08:14:54.000Z</time>
        <extensions>
          <ns3:TrackPointExtension>
            <ns3:atemp>25.0</ns3:atemp>
          </ns3:TrackPointExtension>
        </extensions>
      </trkpt>
      <trkpt lat="43.0769186653196811676025390625" lon="12.98514339141547679901123046875">
        <ele>491.79998779296875</ele>
        <time>2021-06-04T08:14:57.000Z</time>
        <extensions>
          <ns3:TrackPointExtension>
            <ns3:atemp>25.0</ns3:atemp>
          </ns3:TrackPointExtension>
        </extensions>
      </trkpt>
      <trkpt lat="43.07700432837009429931640625" lon="12.98536031506955623626708984375">
        <ele>491.79998779296875</ele>
        <time>2021-06-04T08:15:00.000Z</time>
        <extensions>
          <ns3:TrackPointExtension>
            <ns3:atemp>25.0</ns3:atemp>
          </ns3:TrackPointExtension>
        </extensions>
      </trkpt>
      <trkpt lat="43.07705017738044261932373046875" lon="12.9855117760598659515380859375">
        <ele>491.79998779296875</ele>
        <time>2021-06-04T08:15:02.000Z</time>
        <extensions>
          <ns3:TrackPointExtension>
            <ns3:atemp>25.0</ns3:atemp>
          </ns3:TrackPointExtension>
        </extensions>
      </trkpt>
      <trkpt lat="43.07710046879947185516357421875" lon="12.9857494868338108062744140625">
        <ele>492.20001220703125</ele>
        <time>2021-06-04T08:15:05.000Z</time>
        <extensions>
          <ns3:TrackPointExtension>
            <ns3:atemp>25.0</ns3:atemp>
          </ns3:TrackPointExtension>
        </extensions>
      </trkpt>
      <trkpt lat="43.07710985653102397918701171875" lon="12.98582844436168670654296875">
        <ele>492.20001220703125</ele>
        <time>2021-06-04T08:15:06.000Z</time>
        <extensions>
          <ns3:TrackPointExtension>
            <ns3:atemp>25.0</ns3:atemp>
          </ns3:TrackPointExtension>
        </extensions>
      </trkpt>
      <trkpt lat="43.07711488567292690277099609375" lon="12.98590580932796001434326171875">
        <ele>492.399993896484375</ele>
        <time>2021-06-04T08:15:07.000Z</time>
        <extensions>
          <ns3:TrackPointExtension>
            <ns3:atemp>25.0</ns3:atemp>
          </ns3:TrackPointExtension>
        </extensions>
      </trkpt>
      <trkpt lat="43.07713667862117290496826171875" lon="12.98612943850457668304443359375">
        <ele>492.399993896484375</ele>
        <time>2021-06-04T08:15:10.000Z</time>
        <extensions>
          <ns3:TrackPointExtension>
            <ns3:atemp>25.0</ns3:atemp>
          </ns3:TrackPointExtension>
        </extensions>
      </trkpt>
      <trkpt lat="43.07713986374437808990478515625" lon="12.98620537854731082916259765625">
        <ele>492.399993896484375</ele>
        <time>2021-06-04T08:15:11.000Z</time>
        <extensions>
          <ns3:TrackPointExtension>
            <ns3:atemp>25.0</ns3:atemp>
          </ns3:TrackPointExtension>
        </extensions>
      </trkpt>
      <trkpt lat="43.077117986977100372314453125" lon="12.98672053031623363494873046875">
        <ele>492.79998779296875</ele>
        <time>2021-06-04T08:15:17.000Z</time>
        <extensions>
          <ns3:TrackPointExtension>
            <ns3:atemp>25.0</ns3:atemp>
          </ns3:TrackPointExtension>
        </extensions>
      </trkpt>
      <trkpt lat="43.07710683904588222503662109375" lon="12.98681692220270633697509765625">
        <ele>492.79998779296875</ele>
        <time>2021-06-04T08:15:18.000Z</time>
        <extensions>
          <ns3:TrackPointExtension>
            <ns3:atemp>25.0</ns3:atemp>
          </ns3:TrackPointExtension>
        </extensions>
      </trkpt>
      <trkpt lat="43.0770371854305267333984375" lon="12.9871174134314060211181640625">
        <ele>492.79998779296875</ele>
        <time>2021-06-04T08:15:21.000Z</time>
        <extensions>
          <ns3:TrackPointExtension>
            <ns3:atemp>25.0</ns3:atemp>
          </ns3:TrackPointExtension>
        </extensions>
      </trkpt>
      <trkpt lat="43.0769367702305316925048828125" lon="12.98765092156827449798583984375">
        <ele>491.79998779296875</ele>
        <time>2021-06-04T08:15:26.000Z</time>
        <extensions>
          <ns3:TrackPointExtension>
            <ns3:atemp>25.0</ns3:atemp>
          </ns3:TrackPointExtension>
        </extensions>
      </trkpt>
      <trkpt lat="43.07693182490766048431396484375" lon="12.98776659183204174041748046875">
        <ele>491.399993896484375</ele>
        <time>2021-06-04T08:15:27.000Z</time>
        <extensions>
          <ns3:TrackPointExtension>
            <ns3:atemp>25.0</ns3:atemp>
          </ns3:TrackPointExtension>
        </extensions>
      </trkpt>
      <trkpt lat="43.0769116245210170745849609375" lon="12.988008745014667510986328125">
        <ele>490.79998779296875</ele>
        <time>2021-06-04T08:15:29.000Z</time>
        <extensions>
          <ns3:TrackPointExtension>
            <ns3:atemp>25.0</ns3:atemp>
          </ns3:TrackPointExtension>
        </extensions>
      </trkpt>
      <trkpt lat="43.0769005604088306427001953125" lon="12.9881322942674160003662109375">
        <ele>490.600006103515625</ele>
        <time>2021-06-04T08:15:30.000Z</time>
        <extensions>
          <ns3:TrackPointExtension>
            <ns3:atemp>25.0</ns3:atemp>
          </ns3:TrackPointExtension>
        </extensions>
      </trkpt>
      <trkpt lat="43.07688354514539241790771484375" lon="12.98838282935321331024169921875">
        <ele>489.600006103515625</ele>
        <time>2021-06-04T08:15:32.000Z</time>
        <extensions>
          <ns3:TrackPointExtension>
            <ns3:atemp>25.0</ns3:atemp>
          </ns3:TrackPointExtension>
        </extensions>
      </trkpt>
      <trkpt lat="43.076860494911670684814453125" lon="12.988745011389255523681640625">
        <ele>488.399993896484375</ele>
        <time>2021-06-04T08:15:35.000Z</time>
        <extensions>
          <ns3:TrackPointExtension>
            <ns3:atemp>25.0</ns3:atemp>
          </ns3:TrackPointExtension>
        </extensions>
      </trkpt>
      <trkpt lat="43.07685278356075286865234375" lon="12.98886009491980075836181640625">
        <ele>488.20001220703125</ele>
        <time>2021-06-04T08:15:36.000Z</time>
        <extensions>
          <ns3:TrackPointExtension>
            <ns3:atemp>25.0</ns3:atemp>
          </ns3:TrackPointExtension>
        </extensions>
      </trkpt>
      <trkpt lat="43.076838366687297821044921875" lon="12.98908640630543231964111328125">
        <ele>487</ele>
        <time>2021-06-04T08:15:38.000Z</time>
        <extensions>
          <ns3:TrackPointExtension>
            <ns3:atemp>25.0</ns3:atemp>
          </ns3:TrackPointExtension>
        </extensions>
      </trkpt>
      <trkpt lat="43.0768308229744434356689453125" lon="12.9893091134727001190185546875">
        <ele>485.399993896484375</ele>
        <time>2021-06-04T08:15:40.000Z</time>
        <extensions>
          <ns3:TrackPointExtension>
            <ns3:atemp>25.0</ns3:atemp>
          </ns3:TrackPointExtension>
        </extensions>
      </trkpt>
      <trkpt lat="43.07682721875607967376708984375" lon="12.989530898630619049072265625">
        <ele>484.20001220703125</ele>
        <time>2021-06-04T08:15:42.000Z</time>
        <extensions>
          <ns3:TrackPointExtension>
            <ns3:atemp>25.0</ns3:atemp>
          </ns3:TrackPointExtension>
        </extensions>
      </trkpt>
      <trkpt lat="43.07682269252836704254150390625" lon="12.9897439666092395782470703125">
        <ele>483.20001220703125</ele>
        <time>2021-06-04T08:15:44.000Z</time>
        <extensions>
          <ns3:TrackPointExtension>
            <ns3:atemp>25.0</ns3:atemp>
          </ns3:TrackPointExtension>
        </extensions>
      </trkpt>
      <trkpt lat="43.076822273433208465576171875" lon="12.98994538374245166778564453125">
        <ele>482</ele>
        <time>2021-06-04T08:15:46.000Z</time>
        <extensions>
          <ns3:TrackPointExtension>
            <ns3:atemp>25.0</ns3:atemp>
          </ns3:TrackPointExtension>
        </extensions>
      </trkpt>
      <trkpt lat="43.07682101614773273468017578125" lon="12.99012391828000545501708984375">
        <ele>481.20001220703125</ele>
        <time>2021-06-04T08:15:48.000Z</time>
        <extensions>
          <ns3:TrackPointExtension>
            <ns3:atemp>25.0</ns3:atemp>
          </ns3:TrackPointExtension>
        </extensions>
      </trkpt>
      <trkpt lat="43.0768197588622570037841796875" lon="12.99020153470337390899658203125">
        <ele>481</ele>
        <time>2021-06-04T08:15:49.000Z</time>
        <extensions>
          <ns3:TrackPointExtension>
            <ns3:atemp>25.0</ns3:atemp>
          </ns3:TrackPointExtension>
        </extensions>
      </trkpt>
      <trkpt lat="43.0768214352428913116455078125" lon="12.990343272686004638671875">
        <ele>480.20001220703125</ele>
        <time>2021-06-04T08:15:51.000Z</time>
        <extensions>
          <ns3:TrackPointExtension>
            <ns3:atemp>25.0</ns3:atemp>
          </ns3:TrackPointExtension>
        </extensions>
      </trkpt>
      <trkpt lat="43.07684599421918392181396484375" lon="12.99047947861254215240478515625">
        <ele>479.79998779296875</ele>
        <time>2021-06-04T08:15:53.000Z</time>
        <extensions>
          <ns3:TrackPointExtension>
            <ns3:atemp>25.0</ns3:atemp>
          </ns3:TrackPointExtension>
        </extensions>
      </trkpt>
      <trkpt lat="43.076854459941387176513671875" lon="12.9905412532389163970947265625">
        <ele>479.600006103515625</ele>
        <time>2021-06-04T08:15:54.000Z</time>
        <extensions>
          <ns3:TrackPointExtension>
            <ns3:atemp>25.0</ns3:atemp>
          </ns3:TrackPointExtension>
        </extensions>
      </trkpt>
      <trkpt lat="43.07686141692101955413818359375" lon="12.9906810633838176727294921875">
        <ele>479</ele>
        <time>2021-06-04T08:15:57.000Z</time>
        <extensions>
          <ns3:TrackPointExtension>
            <ns3:atemp>25.0</ns3:atemp>
          </ns3:TrackPointExtension>
        </extensions>
      </trkpt>
      <trkpt lat="43.07688874192535877227783203125" lon="12.99081961624324321746826171875">
        <ele>478.79998779296875</ele>
        <time>2021-06-04T08:16:00.000Z</time>
        <extensions>
          <ns3:TrackPointExtension>
            <ns3:atemp>25.0</ns3:atemp>
          </ns3:TrackPointExtension>
        </extensions>
      </trkpt>
      <trkpt lat="43.076893351972103118896484375" lon="12.9908783733844757080078125">
        <ele>478.79998779296875</ele>
        <time>2021-06-04T08:16:01.000Z</time>
        <extensions>
          <ns3:TrackPointExtension>
            <ns3:atemp>25.0</ns3:atemp>
          </ns3:TrackPointExtension>
        </extensions>
      </trkpt>
      <trkpt lat="43.0769015662372112274169921875" lon="12.99100150354206562042236328125">
        <ele>478.600006103515625</ele>
        <time>2021-06-04T08:16:03.000Z</time>
        <extensions>
          <ns3:TrackPointExtension>
            <ns3:atemp>25.0</ns3:atemp>
          </ns3:TrackPointExtension>
        </extensions>
      </trkpt>
      <trkpt lat="43.07690885849297046661376953125" lon="12.99107090570032596588134765625">
        <ele>478.399993896484375</ele>
        <time>2021-06-04T08:16:04.000Z</time>
        <extensions>
          <ns3:TrackPointExtension>
            <ns3:atemp>25.0</ns3:atemp>
          </ns3:TrackPointExtension>
        </extensions>
      </trkpt>
      <trkpt lat="43.07691313326358795166015625" lon="12.99114500172436237335205078125">
        <ele>478.399993896484375</ele>
        <time>2021-06-04T08:16:05.000Z</time>
        <extensions>
          <ns3:TrackPointExtension>
            <ns3:atemp>25.0</ns3:atemp>
          </ns3:TrackPointExtension>
        </extensions>
      </trkpt>
      <trkpt lat="43.0769230239093303680419921875" lon="12.99128715880215167999267578125">
        <ele>477.79998779296875</ele>
        <time>2021-06-04T08:16:07.000Z</time>
        <extensions>
          <ns3:TrackPointExtension>
            <ns3:atemp>25.0</ns3:atemp>
          </ns3:TrackPointExtension>
        </extensions>
      </trkpt>
      <trkpt lat="43.07692545466125011444091796875" lon="12.99136318266391754150390625">
        <ele>477</ele>
        <time>2021-06-04T08:16:08.000Z</time>
        <extensions>
          <ns3:TrackPointExtension>
            <ns3:atemp>25.0</ns3:atemp>
          </ns3:TrackPointExtension>
        </extensions>
      </trkpt>
      <trkpt lat="43.07692528702318668365478515625" lon="12.9914981313049793243408203125">
        <ele>475</ele>
        <time>2021-06-04T08:16:10.000Z</time>
        <extensions>
          <ns3:TrackPointExtension>
            <ns3:atemp>25.0</ns3:atemp>
          </ns3:TrackPointExtension>
        </extensions>
      </trkpt>
      <trkpt lat="43.076889328658580780029296875" lon="12.99161665141582489013671875">
        <ele>473</ele>
        <time>2021-06-04T08:16:12.000Z</time>
        <extensions>
          <ns3:TrackPointExtension>
            <ns3:atemp>25.0</ns3:atemp>
          </ns3:TrackPointExtension>
        </extensions>
      </trkpt>
      <trkpt lat="43.07687424123287200927734375" lon="12.99167507328093051910400390625">
        <ele>472</ele>
        <time>2021-06-04T08:16:13.000Z</time>
        <extensions>
          <ns3:TrackPointExtension>
            <ns3:atemp>25.0</ns3:atemp>
          </ns3:TrackPointExtension>
        </extensions>
      </trkpt>
      <trkpt lat="43.07685856707394123077392578125" lon="12.99173441715538501739501953125">
        <ele>471.20001220703125</ele>
        <time>2021-06-04T08:16:14.000Z</time>
        <extensions>
          <ns3:TrackPointExtension>
            <ns3:atemp>25.0</ns3:atemp>
          </ns3:TrackPointExtension>
        </extensions>
      </trkpt>
      <trkpt lat="43.07684800587594509124755859375" lon="12.991798035800457000732421875">
        <ele>470.79998779296875</ele>
        <time>2021-06-04T08:16:15.000Z</time>
        <extensions>
          <ns3:TrackPointExtension>
            <ns3:atemp>25.0</ns3:atemp>
          </ns3:TrackPointExtension>
        </extensions>
      </trkpt>
      <trkpt lat="43.07682973332703113555908203125" lon="12.99193181097507476806640625">
        <ele>470.399993896484375</ele>
        <time>2021-06-04T08:16:17.000Z</time>
        <extensions>
          <ns3:TrackPointExtension>
            <ns3:atemp>25.0</ns3:atemp>
          </ns3:TrackPointExtension>
        </extensions>
      </trkpt>
      <trkpt lat="43.07683358900249004364013671875" lon="12.9920754767954349517822265625">
        <ele>470.20001220703125</ele>
        <time>2021-06-04T08:16:19.000Z</time>
        <extensions>
          <ns3:TrackPointExtension>
            <ns3:atemp>25.0</ns3:atemp>
          </ns3:TrackPointExtension>
        </extensions>
      </trkpt>
      <trkpt lat="43.0768646858632564544677734375" lon="12.99222911708056926727294921875">
        <ele>470.20001220703125</ele>
        <time>2021-06-04T08:16:21.000Z</time>
        <extensions>
          <ns3:TrackPointExtension>
            <ns3:atemp>25.0</ns3:atemp>
          </ns3:TrackPointExtension>
        </extensions>
      </trkpt>
      <trkpt lat="43.0769247002899646759033203125" lon="12.99243765883147716522216796875">
        <ele>470</ele>
        <time>2021-06-04T08:16:24.000Z</time>
        <extensions>
          <ns3:TrackPointExtension>
            <ns3:atemp>25.0</ns3:atemp>
          </ns3:TrackPointExtension>
        </extensions>
      </trkpt>
      <trkpt lat="43.0769850499927997589111328125" lon="12.9926320351660251617431640625">
        <ele>469.79998779296875</ele>
        <time>2021-06-04T08:16:27.000Z</time>
        <extensions>
          <ns3:TrackPointExtension>
            <ns3:atemp>25.0</ns3:atemp>
          </ns3:TrackPointExtension>
        </extensions>
      </trkpt>
      <trkpt lat="43.077069707214832305908203125" lon="12.992893718183040618896484375">
        <ele>469.600006103515625</ele>
        <time>2021-06-04T08:16:31.000Z</time>
        <extensions>
          <ns3:TrackPointExtension>
            <ns3:atemp>25.0</ns3:atemp>
          </ns3:TrackPointExtension>
        </extensions>
      </trkpt>
      <trkpt lat="43.07716869749128818511962890625" lon="12.993234694004058837890625">
        <ele>469.79998779296875</ele>
        <time>2021-06-04T08:16:37.000Z</time>
        <extensions>
          <ns3:TrackPointExtension>
            <ns3:atemp>24.0</ns3:atemp>
          </ns3:TrackPointExtension>
        </extensions>
      </trkpt>
      <trkpt lat="43.0772356688976287841796875" lon="12.99352043308317661285400390625">
        <ele>470</ele>
        <time>2021-06-04T08:16:43.000Z</time>
        <extensions>
          <ns3:TrackPointExtension>
            <ns3:atemp>24.0</ns3:atemp>
          </ns3:TrackPointExtension>
        </extensions>
      </trkpt>
      <trkpt lat="43.07724446989595890045166015625" lon="12.99367063678801059722900390625">
        <ele>470.79998779296875</ele>
        <time>2021-06-04T08:16:46.000Z</time>
        <extensions>
          <ns3:TrackPointExtension>
            <ns3:atemp>24.0</ns3:atemp>
          </ns3:TrackPointExtension>
        </extensions>
      </trkpt>
      <trkpt lat="43.07724715210497379302978515625" lon="12.9937697947025299072265625">
        <ele>471.399993896484375</ele>
        <time>2021-06-04T08:16:48.000Z</time>
        <extensions>
          <ns3:TrackPointExtension>
            <ns3:atemp>24.0</ns3:atemp>
          </ns3:TrackPointExtension>
        </extensions>
      </trkpt>
      <trkpt lat="43.0772700347006320953369140625" lon="12.993942461907863616943359375">
        <ele>472</ele>
        <time>2021-06-04T08:16:52.000Z</time>
        <extensions>
          <ns3:TrackPointExtension>
            <ns3:atemp>24.0</ns3:atemp>
          </ns3:TrackPointExtension>
        </extensions>
      </trkpt>
      <trkpt lat="43.0772971920669078826904296875" lon="12.99405637197196483612060546875">
        <ele>472.399993896484375</ele>
        <time>2021-06-04T08:16:55.000Z</time>
        <extensions>
          <ns3:TrackPointExtension>
            <ns3:atemp>24.0</ns3:atemp>
          </ns3:TrackPointExtension>
        </extensions>
      </trkpt>
      <trkpt lat="43.07734857313334941864013671875" lon="12.99421093426644802093505859375">
        <ele>472.399993896484375</ele>
        <time>2021-06-04T08:16:58.000Z</time>
        <extensions>
          <ns3:TrackPointExtension>
            <ns3:atemp>24.0</ns3:atemp>
          </ns3:TrackPointExtension>
        </extensions>
      </trkpt>
      <trkpt lat="43.07735812850296497344970703125" lon="12.99426575191318988800048828125">
        <ele>472.399993896484375</ele>
        <time>2021-06-04T08:16:59.000Z</time>
        <extensions>
          <ns3:TrackPointExtension>
            <ns3:atemp>24.0</ns3:atemp>
          </ns3:TrackPointExtension>
        </extensions>
      </trkpt>
      <trkpt lat="43.0773833580315113067626953125" lon="12.99456532113254070281982421875">
        <ele>471.399993896484375</ele>
        <time>2021-06-04T08:17:04.000Z</time>
        <extensions>
          <ns3:TrackPointExtension>
            <ns3:atemp>24.0</ns3:atemp>
          </ns3:TrackPointExtension>
        </extensions>
      </trkpt>
      <trkpt lat="43.0773448012769222259521484375" lon="12.99499749206006526947021484375">
        <ele>471</ele>
        <time>2021-06-04T08:17:11.000Z</time>
        <extensions>
          <ns3:TrackPointExtension>
            <ns3:atemp>24.0</ns3:atemp>
          </ns3:TrackPointExtension>
        </extensions>
      </trkpt>
      <trkpt lat="43.07724782265722751617431640625" lon="12.99548037350177764892578125">
        <ele>471.399993896484375</ele>
        <time>2021-06-04T08:17:19.000Z</time>
        <extensions>
          <ns3:TrackPointExtension>
            <ns3:atemp>24.0</ns3:atemp>
          </ns3:TrackPointExtension>
        </extensions>
      </trkpt>
      <trkpt lat="43.07718009687960147857666015625" lon="12.99577013589441776275634765625">
        <ele>471.600006103515625</ele>
        <time>2021-06-04T08:17:23.000Z</time>
        <extensions>
          <ns3:TrackPointExtension>
            <ns3:atemp>24.0</ns3:atemp>
          </ns3:TrackPointExtension>
        </extensions>
      </trkpt>
      <trkpt lat="43.0771587230265140533447265625" lon="12.99593324773013591766357421875">
        <ele>471.600006103515625</ele>
        <time>2021-06-04T08:17:25.000Z</time>
        <extensions>
          <ns3:TrackPointExtension>
            <ns3:atemp>24.0</ns3:atemp>
          </ns3:TrackPointExtension>
        </extensions>
      </trkpt>
      <trkpt lat="43.0771205015480518341064453125" lon="12.99618068151175975799560546875">
        <ele>471.399993896484375</ele>
        <time>2021-06-04T08:17:28.000Z</time>
        <extensions>
          <ns3:TrackPointExtension>
            <ns3:atemp>24.0</ns3:atemp>
          </ns3:TrackPointExtension>
        </extensions>
      </trkpt>
      <trkpt lat="43.07711086235940456390380859375" lon="12.9962637461721897125244140625">
        <ele>471</ele>
        <time>2021-06-04T08:17:29.000Z</time>
        <extensions>
          <ns3:TrackPointExtension>
            <ns3:atemp>24.0</ns3:atemp>
          </ns3:TrackPointExtension>
        </extensions>
      </trkpt>
      <trkpt lat="43.0771015584468841552734375" lon="12.99635075032711029052734375">
        <ele>470.399993896484375</ele>
        <time>2021-06-04T08:17:30.000Z</time>
        <extensions>
          <ns3:TrackPointExtension>
            <ns3:atemp>24.0</ns3:atemp>
          </ns3:TrackPointExtension>
        </extensions>
      </trkpt>
      <trkpt lat="43.07707406580448150634765625" lon="12.996607907116413116455078125">
        <ele>469.20001220703125</ele>
        <time>2021-06-04T08:17:33.000Z</time>
        <extensions>
          <ns3:TrackPointExtension>
            <ns3:atemp>24.0</ns3:atemp>
          </ns3:TrackPointExtension>
        </extensions>
      </trkpt>
      <trkpt lat="43.07706006802618503570556640625" lon="12.99678635783493518829345703125">
        <ele>467.79998779296875</ele>
        <time>2021-06-04T08:17:35.000Z</time>
        <extensions>
          <ns3:TrackPointExtension>
            <ns3:atemp>24.0</ns3:atemp>
          </ns3:TrackPointExtension>
        </extensions>
      </trkpt>
      <trkpt lat="43.07704682461917400360107421875" lon="12.9969544149935245513916015625">
        <ele>466.79998779296875</ele>
        <time>2021-06-04T08:17:37.000Z</time>
        <extensions>
          <ns3:TrackPointExtension>
            <ns3:atemp>24.0</ns3:atemp>
          </ns3:TrackPointExtension>
        </extensions>
      </trkpt>
      <trkpt lat="43.07702067308127880096435546875" lon="12.9971995018422603607177734375">
        <ele>465.600006103515625</ele>
        <time>2021-06-04T08:17:40.000Z</time>
        <extensions>
          <ns3:TrackPointExtension>
            <ns3:atemp>24.0</ns3:atemp>
          </ns3:TrackPointExtension>
        </extensions>
      </trkpt>
      <trkpt lat="43.077015392482280731201171875" lon="12.99727686680853366851806640625">
        <ele>465.399993896484375</ele>
        <time>2021-06-04T08:17:41.000Z</time>
        <extensions>
          <ns3:TrackPointExtension>
            <ns3:atemp>24.0</ns3:atemp>
          </ns3:TrackPointExtension>
        </extensions>
      </trkpt>
      <trkpt lat="43.07698479853570461273193359375" lon="12.9977701418101787567138671875">
        <ele>464.399993896484375</ele>
        <time>2021-06-04T08:17:47.000Z</time>
        <extensions>
          <ns3:TrackPointExtension>
            <ns3:atemp>24.0</ns3:atemp>
          </ns3:TrackPointExtension>
        </extensions>
      </trkpt>
      <trkpt lat="43.076942302286624908447265625" lon="12.998374141752719879150390625">
        <ele>463.399993896484375</ele>
        <time>2021-06-04T08:17:54.000Z</time>
        <extensions>
          <ns3:TrackPointExtension>
            <ns3:atemp>24.0</ns3:atemp>
          </ns3:TrackPointExtension>
        </extensions>
      </trkpt>
      <trkpt lat="43.0769247002899646759033203125" lon="12.99872375093400478363037109375">
        <ele>462.20001220703125</ele>
        <time>2021-06-04T08:17:58.000Z</time>
        <extensions>
          <ns3:TrackPointExtension>
            <ns3:atemp>24.0</ns3:atemp>
          </ns3:TrackPointExtension>
        </extensions>
      </trkpt>
      <trkpt lat="43.07691958732903003692626953125" lon="12.9989811591804027557373046875">
        <ele>462</ele>
        <time>2021-06-04T08:18:01.000Z</time>
        <extensions>
          <ns3:TrackPointExtension>
            <ns3:atemp>24.0</ns3:atemp>
          </ns3:TrackPointExtension>
        </extensions>
      </trkpt>
      <trkpt lat="43.0769025720655918121337890625" lon="12.999490611255168914794921875">
        <ele>461.399993896484375</ele>
        <time>2021-06-04T08:18:08.000Z</time>
        <extensions>
          <ns3:TrackPointExtension>
            <ns3:atemp>24.0</ns3:atemp>
          </ns3:TrackPointExtension>
        </extensions>
      </trkpt>
      <trkpt lat="43.0768744088709354400634765625" lon="12.99981608055531978607177734375">
        <ele>461.399993896484375</ele>
        <time>2021-06-04T08:18:13.000Z</time>
        <extensions>
          <ns3:TrackPointExtension>
            <ns3:atemp>24.0</ns3:atemp>
          </ns3:TrackPointExtension>
        </extensions>
      </trkpt>
      <trkpt lat="43.0768539570271968841552734375" lon="12.99994356930255889892578125">
        <ele>461.79998779296875</ele>
        <time>2021-06-04T08:18:15.000Z</time>
        <extensions>
          <ns3:TrackPointExtension>
            <ns3:atemp>24.0</ns3:atemp>
          </ns3:TrackPointExtension>
        </extensions>
      </trkpt>
      <trkpt lat="43.07682855986058712005615234375" lon="13.00009083934128284454345703125">
        <ele>461.79998779296875</ele>
        <time>2021-06-04T08:18:17.000Z</time>
        <extensions>
          <ns3:TrackPointExtension>
            <ns3:atemp>25.0</ns3:atemp>
          </ns3:TrackPointExtension>
        </extensions>
      </trkpt>
      <trkpt lat="43.076827637851238250732421875" lon="13.00025948323309421539306640625">
        <ele>461.79998779296875</ele>
        <time>2021-06-04T08:18:19.000Z</time>
        <extensions>
          <ns3:TrackPointExtension>
            <ns3:atemp>25.0</ns3:atemp>
          </ns3:TrackPointExtension>
        </extensions>
      </trkpt>
      <trkpt lat="43.0768454074859619140625" lon="13.00041832029819488525390625">
        <ele>461.79998779296875</ele>
        <time>2021-06-04T08:18:21.000Z</time>
        <extensions>
          <ns3:TrackPointExtension>
            <ns3:atemp>25.0</ns3:atemp>
          </ns3:TrackPointExtension>
        </extensions>
      </trkpt>
      <trkpt lat="43.076870553195476531982421875" lon="13.0006228387355804443359375">
        <ele>461.20001220703125</ele>
        <time>2021-06-04T08:18:24.000Z</time>
        <extensions>
          <ns3:TrackPointExtension>
            <ns3:atemp>25.0</ns3:atemp>
          </ns3:TrackPointExtension>
        </extensions>
      </trkpt>
      <trkpt lat="43.0768626742064952850341796875" lon="13.0007809214293956756591796875">
        <ele>460.20001220703125</ele>
        <time>2021-06-04T08:18:27.000Z</time>
        <extensions>
          <ns3:TrackPointExtension>
            <ns3:atemp>25.0</ns3:atemp>
          </ns3:TrackPointExtension>
        </extensions>
      </trkpt>
      <trkpt lat="43.07686108164489269256591796875" lon="13.00081729888916015625">
        <ele>460</ele>
        <time>2021-06-04T08:18:28.000Z</time>
        <extensions>
          <ns3:TrackPointExtension>
            <ns3:atemp>25.0</ns3:atemp>
          </ns3:TrackPointExtension>
        </extensions>
      </trkpt>
      <trkpt lat="43.076815567910671234130859375" lon="13.0009965039789676666259765625">
        <ele>459.79998779296875</ele>
        <time>2021-06-04T08:18:33.000Z</time>
        <extensions>
          <ns3:TrackPointExtension>
            <ns3:atemp>25.0</ns3:atemp>
          </ns3:TrackPointExtension>
        </extensions>
      </trkpt>
      <trkpt lat="43.07674541138112545013427734375" lon="13.0012392438948154449462890625">
        <ele>459.79998779296875</ele>
        <time>2021-06-04T08:18:37.000Z</time>
        <extensions>
          <ns3:TrackPointExtension>
            <ns3:atemp>25.0</ns3:atemp>
          </ns3:TrackPointExtension>
        </extensions>
      </trkpt>
      <trkpt lat="43.07672076858580112457275390625" lon="13.001362122595310211181640625">
        <ele>459.79998779296875</ele>
        <time>2021-06-04T08:18:39.000Z</time>
        <extensions>
          <ns3:TrackPointExtension>
            <ns3:atemp>25.0</ns3:atemp>
          </ns3:TrackPointExtension>
        </extensions>
      </trkpt>
      <trkpt lat="43.076700232923030853271484375" lon="13.0014762841165065765380859375">
        <ele>459.79998779296875</ele>
        <time>2021-06-04T08:18:41.000Z</time>
        <extensions>
          <ns3:TrackPointExtension>
            <ns3:atemp>25.0</ns3:atemp>
          </ns3:TrackPointExtension>
        </extensions>
      </trkpt>
      <trkpt lat="43.07666276581585407257080078125" lon="13.0016234703361988067626953125">
        <ele>459.79998779296875</ele>
        <time>2021-06-04T08:18:45.000Z</time>
        <extensions>
          <ns3:TrackPointExtension>
            <ns3:atemp>25.0</ns3:atemp>
          </ns3:TrackPointExtension>
        </extensions>
      </trkpt>
      <trkpt lat="43.07658531703054904937744140625" lon="13.00182421691715717315673828125">
        <ele>459.79998779296875</ele>
        <time>2021-06-04T08:18:49.000Z</time>
        <extensions>
          <ns3:TrackPointExtension>
            <ns3:atemp>25.0</ns3:atemp>
          </ns3:TrackPointExtension>
        </extensions>
      </trkpt>
      <trkpt lat="43.0765116401016712188720703125" lon="13.00207634456455707550048828125">
        <ele>459.79998779296875</ele>
        <time>2021-06-04T08:18:55.000Z</time>
        <extensions>
          <ns3:TrackPointExtension>
            <ns3:atemp>25.0</ns3:atemp>
          </ns3:TrackPointExtension>
        </extensions>
      </trkpt>
      <trkpt lat="43.07648775167763233184814453125" lon="13.00212646834552288055419921875">
        <ele>460.20001220703125</ele>
        <time>2021-06-04T08:19:00.000Z</time>
        <extensions>
          <ns3:TrackPointExtension>
            <ns3:atemp>25.0</ns3:atemp>
          </ns3:TrackPointExtension>
        </extensions>
      </trkpt>
      <trkpt lat="43.07649177499115467071533203125" lon="13.00212713889777660369873046875">
        <ele>460.600006103515625</ele>
        <time>2021-06-04T08:19:17.000Z</time>
        <extensions>
          <ns3:TrackPointExtension>
            <ns3:atemp>25.0</ns3:atemp>
          </ns3:TrackPointExtension>
        </extensions>
      </trkpt>
      <trkpt lat="43.07649479247629642486572265625" lon="13.0021263845264911651611328125">
        <ele>460.600006103515625</ele>
        <time>2021-06-04T08:19:34.000Z</time>
        <extensions>
          <ns3:TrackPointExtension>
            <ns3:atemp>25.0</ns3:atemp>
          </ns3:TrackPointExtension>
        </extensions>
      </trkpt>
      <trkpt lat="43.0764938704669475555419921875" lon="13.0021267198026180267333984375">
        <ele>460.399993896484375</ele>
        <time>2021-06-04T08:19:50.000Z</time>
        <extensions>
          <ns3:TrackPointExtension>
            <ns3:atemp>25.0</ns3:atemp>
          </ns3:TrackPointExtension>
        </extensions>
      </trkpt>
      <trkpt lat="43.07649604976177215576171875" lon="13.00212646834552288055419921875">
        <ele>460.399993896484375</ele>
        <time>2021-06-04T08:20:06.000Z</time>
        <extensions>
          <ns3:TrackPointExtension>
            <ns3:atemp>25.0</ns3:atemp>
          </ns3:TrackPointExtension>
        </extensions>
      </trkpt>
      <trkpt lat="43.07649261318147182464599609375" lon="13.002127893269062042236328125">
        <ele>460.20001220703125</ele>
        <time>2021-06-04T08:20:22.000Z</time>
        <extensions>
          <ns3:TrackPointExtension>
            <ns3:atemp>26.0</ns3:atemp>
          </ns3:TrackPointExtension>
        </extensions>
      </trkpt>
      <trkpt lat="43.0764931999146938323974609375" lon="13.00213895738124847412109375">
        <ele>460.20001220703125</ele>
        <time>2021-06-04T08:20:26.000Z</time>
        <extensions>
          <ns3:TrackPointExtension>
            <ns3:atemp>26.0</ns3:atemp>
          </ns3:TrackPointExtension>
        </extensions>
      </trkpt>
      <trkpt lat="43.07648926042020320892333984375" lon="13.0021887458860874176025390625">
        <ele>460.20001220703125</ele>
        <time>2021-06-04T08:20:28.000Z</time>
        <extensions>
          <ns3:TrackPointExtension>
            <ns3:atemp>26.0</ns3:atemp>
          </ns3:TrackPointExtension>
        </extensions>
      </trkpt>
      <trkpt lat="43.07647593319416046142578125" lon="13.00238748081028461456298828125">
        <ele>460</ele>
        <time>2021-06-04T08:20:34.000Z</time>
        <extensions>
          <ns3:TrackPointExtension>
            <ns3:atemp>26.0</ns3:atemp>
          </ns3:TrackPointExtension>
        </extensions>
      </trkpt>
      <trkpt lat="43.07652823626995086669921875" lon="13.00259719602763652801513671875">
        <ele>459.600006103515625</ele>
        <time>2021-06-04T08:20:39.000Z</time>
        <extensions>
          <ns3:TrackPointExtension>
            <ns3:atemp>26.0</ns3:atemp>
          </ns3:TrackPointExtension>
        </extensions>
      </trkpt>
      <trkpt lat="43.07654164731502532958984375" lon="13.00269828177988529205322265625">
        <ele>459.399993896484375</ele>
        <time>2021-06-04T08:20:41.000Z</time>
        <extensions>
          <ns3:TrackPointExtension>
            <ns3:atemp>26.0</ns3:atemp>
          </ns3:TrackPointExtension>
        </extensions>
      </trkpt>
      <trkpt lat="43.076528571546077728271484375" lon="13.00279987044632434844970703125">
        <ele>459</ele>
        <time>2021-06-04T08:20:43.000Z</time>
        <extensions>
          <ns3:TrackPointExtension>
            <ns3:atemp>26.0</ns3:atemp>
          </ns3:TrackPointExtension>
        </extensions>
      </trkpt>
      <trkpt lat="43.07650300674140453338623046875" lon="13.0028891377151012420654296875">
        <ele>458.20001220703125</ele>
        <time>2021-06-04T08:20:45.000Z</time>
        <extensions>
          <ns3:TrackPointExtension>
            <ns3:atemp>26.0</ns3:atemp>
          </ns3:TrackPointExtension>
        </extensions>
      </trkpt>
      <trkpt lat="43.076451458036899566650390625" lon="13.00295828841626644134521484375">
        <ele>457.399993896484375</ele>
        <time>2021-06-04T08:20:47.000Z</time>
        <extensions>
          <ns3:TrackPointExtension>
            <ns3:atemp>26.0</ns3:atemp>
          </ns3:TrackPointExtension>
        </extensions>
      </trkpt>
      <trkpt lat="43.0764241330325603485107421875" lon="13.00297555513679981231689453125">
        <ele>457</ele>
        <time>2021-06-04T08:20:48.000Z</time>
        <extensions>
          <ns3:TrackPointExtension>
            <ns3:atemp>26.0</ns3:atemp>
          </ns3:TrackPointExtension>
        </extensions>
      </trkpt>
      <trkpt lat="43.07635389268398284912109375" lon="13.002972789108753204345703125">
        <ele>456</ele>
        <time>2021-06-04T08:20:51.000Z</time>
        <extensions>
          <ns3:TrackPointExtension>
            <ns3:atemp>26.0</ns3:atemp>
          </ns3:TrackPointExtension>
        </extensions>
      </trkpt>
      <trkpt lat="43.076327741146087646484375" lon="13.0029645748436450958251953125">
        <ele>455.399993896484375</ele>
        <time>2021-06-04T08:20:52.000Z</time>
        <extensions>
          <ns3:TrackPointExtension>
            <ns3:atemp>26.0</ns3:atemp>
          </ns3:TrackPointExtension>
        </extensions>
      </trkpt>
      <trkpt lat="43.07630167342722415924072265625" lon="13.00295962952077388763427734375">
        <ele>454.79998779296875</ele>
        <time>2021-06-04T08:20:53.000Z</time>
        <extensions>
          <ns3:TrackPointExtension>
            <ns3:atemp>26.0</ns3:atemp>
          </ns3:TrackPointExtension>
        </extensions>
      </trkpt>
      <trkpt lat="43.0762719176709651947021484375" lon="13.0029639042913913726806640625">
        <ele>453.79998779296875</ele>
        <time>2021-06-04T08:20:55.000Z</time>
        <extensions>
          <ns3:TrackPointExtension>
            <ns3:atemp>26.0</ns3:atemp>
          </ns3:TrackPointExtension>
        </extensions>
      </trkpt>
      <trkpt lat="43.07626529596745967864990234375" lon="13.0029670894145965576171875">
        <ele>453.20001220703125</ele>
        <time>2021-06-04T08:20:56.000Z</time>
        <extensions>
          <ns3:TrackPointExtension>
            <ns3:atemp>26.0</ns3:atemp>
          </ns3:TrackPointExtension>
        </extensions>
      </trkpt>
      <trkpt lat="43.07625456713140010833740234375" lon="13.00297454930841922760009765625">
        <ele>452.79998779296875</ele>
        <time>2021-06-04T08:20:57.000Z</time>
        <extensions>
          <ns3:TrackPointExtension>
            <ns3:atemp>26.0</ns3:atemp>
          </ns3:TrackPointExtension>
        </extensions>
      </trkpt>
      <trkpt lat="43.0762393958866596221923828125" lon="13.00297974608838558197021484375">
        <ele>451.399993896484375</ele>
        <time>2021-06-04T08:21:00.000Z</time>
        <extensions>
          <ns3:TrackPointExtension>
            <ns3:atemp>26.0</ns3:atemp>
          </ns3:TrackPointExtension>
        </extensions>
      </trkpt>
      <trkpt lat="43.0762313492596149444580078125" lon="13.00297941081225872039794921875">
        <ele>451</ele>
        <time>2021-06-04T08:21:02.000Z</time>
        <extensions>
          <ns3:TrackPointExtension>
            <ns3:atemp>26.0</ns3:atemp>
          </ns3:TrackPointExtension>
        </extensions>
      </trkpt>
      <trkpt lat="43.07622238062322139739990234375" lon="13.00299734808504581451416015625">
        <ele>450.399993896484375</ele>
        <time>2021-06-04T08:21:13.000Z</time>
        <extensions>
          <ns3:TrackPointExtension>
            <ns3:atemp>26.0</ns3:atemp>
          </ns3:TrackPointExtension>
        </extensions>
      </trkpt>
      <trkpt lat="43.0762078799307346343994140625" lon="13.00298142246901988983154296875">
        <ele>450.399993896484375</ele>
        <time>2021-06-04T08:21:24.000Z</time>
        <extensions>
          <ns3:TrackPointExtension>
            <ns3:atemp>26.0</ns3:atemp>
          </ns3:TrackPointExtension>
        </extensions>
      </trkpt>
      <trkpt lat="43.0762001685798168182373046875" lon="13.00296499393880367279052734375">
        <ele>450.399993896484375</ele>
        <time>2021-06-04T08:21:39.000Z</time>
        <extensions>
          <ns3:TrackPointExtension>
            <ns3:atemp>26.0</ns3:atemp>
          </ns3:TrackPointExtension>
        </extensions>
      </trkpt>
      <trkpt lat="43.07619237340986728668212890625" lon="13.0029563605785369873046875">
        <ele>450.399993896484375</ele>
        <time>2021-06-04T08:21:52.000Z</time>
        <extensions>
          <ns3:TrackPointExtension>
            <ns3:atemp>26.0</ns3:atemp>
          </ns3:TrackPointExtension>
        </extensions>
      </trkpt>
      <trkpt lat="43.07619203813374042510986328125" lon="13.00295661203563213348388671875">
        <ele>450.600006103515625</ele>
        <time>2021-06-04T08:22:12.000Z</time>
        <extensions>
          <ns3:TrackPointExtension>
            <ns3:atemp>26.0</ns3:atemp>
          </ns3:TrackPointExtension>
        </extensions>
      </trkpt>
      <trkpt lat="43.07618935592472553253173828125" lon="13.00295962952077388763427734375">
        <ele>450.600006103515625</ele>
        <time>2021-06-04T08:22:29.000Z</time>
        <extensions>
          <ns3:TrackPointExtension>
            <ns3:atemp>25.0</ns3:atemp>
          </ns3:TrackPointExtension>
        </extensions>
      </trkpt>
      <trkpt lat="43.07618767954409122467041015625" lon="13.0029622279107570648193359375">
        <ele>450.79998779296875</ele>
        <time>2021-06-04T08:23:07.000Z</time>
        <extensions>
          <ns3:TrackPointExtension>
            <ns3:atemp>25.0</ns3:atemp>
          </ns3:TrackPointExtension>
        </extensions>
      </trkpt>
      <trkpt lat="43.07618717662990093231201171875" lon="13.0029632337391376495361328125">
        <ele>450.79998779296875</ele>
        <time>2021-06-04T08:23:36.000Z</time>
        <extensions>
          <ns3:TrackPointExtension>
            <ns3:atemp>25.0</ns3:atemp>
          </ns3:TrackPointExtension>
        </extensions>
      </trkpt>
      <trkpt lat="43.076179213821887969970703125" lon="13.0029903911054134368896484375">
        <ele>451.20001220703125</ele>
        <time>2021-06-04T08:24:32.000Z</time>
        <extensions>
          <ns3:TrackPointExtension>
            <ns3:atemp>25.0</ns3:atemp>
          </ns3:TrackPointExtension>
        </extensions>
      </trkpt>
      <trkpt lat="43.07613663375377655029296875" lon="13.0030949972569942474365234375">
        <ele>451.20001220703125</ele>
        <time>2021-06-04T08:25:02.000Z</time>
        <extensions>
          <ns3:TrackPointExtension>
            <ns3:atemp>24.0</ns3:atemp>
          </ns3:TrackPointExtension>
        </extensions>
      </trkpt>
      <trkpt lat="43.07606865651905536651611328125" lon="13.0032053031027317047119140625">
        <ele>451.399993896484375</ele>
        <time>2021-06-04T08:25:06.000Z</time>
        <extensions>
          <ns3:TrackPointExtension>
            <ns3:atemp>24.0</ns3:atemp>
          </ns3:TrackPointExtension>
        </extensions>
      </trkpt>
      <trkpt lat="43.07604812085628509521484375" lon="13.00322198309004306793212890625">
        <ele>451.399993896484375</ele>
        <time>2021-06-04T08:25:07.000Z</time>
        <extensions>
          <ns3:TrackPointExtension>
            <ns3:atemp>24.0</ns3:atemp>
          </ns3:TrackPointExtension>
        </extensions>
      </trkpt>
      <trkpt lat="43.07602532207965850830078125" lon="13.003247044980525970458984375">
        <ele>451.79998779296875</ele>
        <time>2021-06-04T08:25:09.000Z</time>
        <extensions>
          <ns3:TrackPointExtension>
            <ns3:atemp>24.0</ns3:atemp>
          </ns3:TrackPointExtension>
        </extensions>
      </trkpt>
      <trkpt lat="43.07602624408900737762451171875" lon="13.00327193923294544219970703125">
        <ele>452.600006103515625</ele>
        <time>2021-06-04T08:25:11.000Z</time>
        <extensions>
          <ns3:TrackPointExtension>
            <ns3:atemp>24.0</ns3:atemp>
          </ns3:TrackPointExtension>
        </extensions>
      </trkpt>
      <trkpt lat="43.0759777128696441650390625" lon="13.00326691009104251861572265625">
        <ele>453.399993896484375</ele>
        <time>2021-06-04T08:25:15.000Z</time>
        <extensions>
          <ns3:TrackPointExtension>
            <ns3:atemp>24.0</ns3:atemp>
          </ns3:TrackPointExtension>
        </extensions>
      </trkpt>
      <trkpt lat="43.075913675129413604736328125" lon="13.003267161548137664794921875">
        <ele>453.600006103515625</ele>
        <time>2021-06-04T08:25:17.000Z</time>
        <extensions>
          <ns3:TrackPointExtension>
            <ns3:atemp>24.0</ns3:atemp>
          </ns3:TrackPointExtension>
        </extensions>
      </trkpt>
      <trkpt lat="43.0758276768028736114501953125" lon="13.0032881163060665130615234375">
        <ele>453.600006103515625</ele>
        <time>2021-06-04T08:25:19.000Z</time>
        <extensions>
          <ns3:TrackPointExtension>
            <ns3:atemp>24.0</ns3:atemp>
          </ns3:TrackPointExtension>
        </extensions>
      </trkpt>
      <trkpt lat="43.07564578950405120849609375" lon="13.00343840382993221282958984375">
        <ele>453.79998779296875</ele>
        <time>2021-06-04T08:25:23.000Z</time>
        <extensions>
          <ns3:TrackPointExtension>
            <ns3:atemp>24.0</ns3:atemp>
          </ns3:TrackPointExtension>
        </extensions>
      </trkpt>
      <trkpt lat="43.07551075704395771026611328125" lon="13.00358760170638561248779296875">
        <ele>452.600006103515625</ele>
        <time>2021-06-04T08:25:27.000Z</time>
        <extensions>
          <ns3:TrackPointExtension>
            <ns3:atemp>24.0</ns3:atemp>
          </ns3:TrackPointExtension>
        </extensions>
      </trkpt>
      <trkpt lat="43.075447641313076019287109375" lon="13.00369237549602985382080078125">
        <ele>452</ele>
        <time>2021-06-04T08:25:29.000Z</time>
        <extensions>
          <ns3:TrackPointExtension>
            <ns3:atemp>24.0</ns3:atemp>
          </ns3:TrackPointExtension>
        </extensions>
      </trkpt>
      <trkpt lat="43.07537782005965709686279296875" lon="13.0039569921791553497314453125">
        <ele>452</ele>
        <time>2021-06-04T08:25:33.000Z</time>
        <extensions>
          <ns3:TrackPointExtension>
            <ns3:atemp>24.0</ns3:atemp>
          </ns3:TrackPointExtension>
        </extensions>
      </trkpt>
      <trkpt lat="43.075317554175853729248046875" lon="13.00407509319484233856201171875">
        <ele>452</ele>
        <time>2021-06-04T08:25:35.000Z</time>
        <extensions>
          <ns3:TrackPointExtension>
            <ns3:atemp>24.0</ns3:atemp>
          </ns3:TrackPointExtension>
        </extensions>
      </trkpt>
      <trkpt lat="43.07524354197084903717041015625" lon="13.0041843093931674957275390625">
        <ele>451.79998779296875</ele>
        <time>2021-06-04T08:25:37.000Z</time>
        <extensions>
          <ns3:TrackPointExtension>
            <ns3:atemp>24.0</ns3:atemp>
          </ns3:TrackPointExtension>
        </extensions>
      </trkpt>
      <trkpt lat="43.0751986987888813018798828125" lon="13.00424004904925823211669921875">
        <ele>451.79998779296875</ele>
        <time>2021-06-04T08:25:38.000Z</time>
        <extensions>
          <ns3:TrackPointExtension>
            <ns3:atemp>24.0</ns3:atemp>
          </ns3:TrackPointExtension>
        </extensions>
      </trkpt>
      <trkpt lat="43.0750595591962337493896484375" lon="13.0045252852141857147216796875">
        <ele>451.79998779296875</ele>
        <time>2021-06-04T08:25:42.000Z</time>
        <extensions>
          <ns3:TrackPointExtension>
            <ns3:atemp>24.0</ns3:atemp>
          </ns3:TrackPointExtension>
        </extensions>
      </trkpt>
      <trkpt lat="43.07495788671076297760009765625" lon="13.0047539435327053070068359375">
        <ele>451.20001220703125</ele>
        <time>2021-06-04T08:25:45.000Z</time>
        <extensions>
          <ns3:TrackPointExtension>
            <ns3:atemp>24.0</ns3:atemp>
          </ns3:TrackPointExtension>
        </extensions>
      </trkpt>
      <trkpt lat="43.07488680817186832427978515625" lon="13.0049078352749347686767578125">
        <ele>450.20001220703125</ele>
        <time>2021-06-04T08:25:47.000Z</time>
        <extensions>
          <ns3:TrackPointExtension>
            <ns3:atemp>24.0</ns3:atemp>
          </ns3:TrackPointExtension>
        </extensions>
      </trkpt>
      <trkpt lat="43.074738197028636932373046875" lon="13.00521436147391796112060546875">
        <ele>449</ele>
        <time>2021-06-04T08:25:51.000Z</time>
        <extensions>
          <ns3:TrackPointExtension>
            <ns3:atemp>24.0</ns3:atemp>
          </ns3:TrackPointExtension>
        </extensions>
      </trkpt>
      <trkpt lat="43.07469788007438182830810546875" lon="13.0052836798131465911865234375">
        <ele>448.79998779296875</ele>
        <time>2021-06-04T08:25:52.000Z</time>
        <extensions>
          <ns3:TrackPointExtension>
            <ns3:atemp>24.0</ns3:atemp>
          </ns3:TrackPointExtension>
        </extensions>
      </trkpt>
      <trkpt lat="43.074653707444667816162109375" lon="13.00534679554402828216552734375">
        <ele>448.399993896484375</ele>
        <time>2021-06-04T08:25:53.000Z</time>
        <extensions>
          <ns3:TrackPointExtension>
            <ns3:atemp>24.0</ns3:atemp>
          </ns3:TrackPointExtension>
        </extensions>
      </trkpt>
      <trkpt lat="43.0744513683021068572998046875" lon="13.00555299036204814910888671875">
        <ele>448</ele>
        <time>2021-06-04T08:25:57.000Z</time>
        <extensions>
          <ns3:TrackPointExtension>
            <ns3:atemp>24.0</ns3:atemp>
          </ns3:TrackPointExtension>
        </extensions>
      </trkpt>
      <trkpt lat="43.0743454210460186004638671875" lon="13.0056605301797389984130859375">
        <ele>447.20001220703125</ele>
        <time>2021-06-04T08:25:59.000Z</time>
        <extensions>
          <ns3:TrackPointExtension>
            <ns3:atemp>24.0</ns3:atemp>
          </ns3:TrackPointExtension>
        </extensions>
      </trkpt>
      <trkpt lat="43.07424307800829410552978515625" lon="13.00576689653098583221435546875">
        <ele>446.79998779296875</ele>
        <time>2021-06-04T08:26:01.000Z</time>
        <extensions>
          <ns3:TrackPointExtension>
            <ns3:atemp>24.0</ns3:atemp>
          </ns3:TrackPointExtension>
        </extensions>
      </trkpt>
      <trkpt lat="43.07412707246840000152587890625" lon="13.00597191788256168365478515625">
        <ele>445.79998779296875</ele>
        <time>2021-06-04T08:26:04.000Z</time>
        <extensions>
          <ns3:TrackPointExtension>
            <ns3:atemp>24.0</ns3:atemp>
          </ns3:TrackPointExtension>
        </extensions>
      </trkpt>
      <trkpt lat="43.0740691535174846649169921875" lon="13.00611357204616069793701171875">
        <ele>444.600006103515625</ele>
        <time>2021-06-04T08:26:06.000Z</time>
        <extensions>
          <ns3:TrackPointExtension>
            <ns3:atemp>24.0</ns3:atemp>
          </ns3:TrackPointExtension>
        </extensions>
      </trkpt>
      <trkpt lat="43.07404585182666778564453125" lon="13.00618330948054790496826171875">
        <ele>444</ele>
        <time>2021-06-04T08:26:07.000Z</time>
        <extensions>
          <ns3:TrackPointExtension>
            <ns3:atemp>24.0</ns3:atemp>
          </ns3:TrackPointExtension>
        </extensions>
      </trkpt>
      <trkpt lat="43.07401928119361400604248046875" lon="13.00632496364414691925048828125">
        <ele>443.20001220703125</ele>
        <time>2021-06-04T08:26:09.000Z</time>
        <extensions>
          <ns3:TrackPointExtension>
            <ns3:atemp>24.0</ns3:atemp>
          </ns3:TrackPointExtension>
        </extensions>
      </trkpt>
      <trkpt lat="43.073992542922496795654296875" lon="13.00651757977902889251708984375">
        <ele>442.79998779296875</ele>
        <time>2021-06-04T08:26:12.000Z</time>
        <extensions>
          <ns3:TrackPointExtension>
            <ns3:atemp>24.0</ns3:atemp>
          </ns3:TrackPointExtension>
        </extensions>
      </trkpt>
      <trkpt lat="43.0739633738994598388671875" lon="13.00661531277000904083251953125">
        <ele>442.79998779296875</ele>
        <time>2021-06-04T08:26:14.000Z</time>
        <extensions>
          <ns3:TrackPointExtension>
            <ns3:atemp>24.0</ns3:atemp>
          </ns3:TrackPointExtension>
        </extensions>
      </trkpt>
      <trkpt lat="43.07399799115955829620361328125" lon="13.00677155144512653350830078125">
        <ele>442.79998779296875</ele>
        <time>2021-06-04T08:26:18.000Z</time>
        <extensions>
          <ns3:TrackPointExtension>
            <ns3:atemp>24.0</ns3:atemp>
          </ns3:TrackPointExtension>
        </extensions>
      </trkpt>
      <trkpt lat="43.07400293648242950439453125" lon="13.00689183175563812255859375">
        <ele>443</ele>
        <time>2021-06-04T08:26:22.000Z</time>
        <extensions>
          <ns3:TrackPointExtension>
            <ns3:atemp>25.0</ns3:atemp>
          </ns3:TrackPointExtension>
        </extensions>
      </trkpt>
      <trkpt lat="43.07399732060730457305908203125" lon="13.00692527554929256439208984375">
        <ele>443</ele>
        <time>2021-06-04T08:26:23.000Z</time>
        <extensions>
          <ns3:TrackPointExtension>
            <ns3:atemp>25.0</ns3:atemp>
          </ns3:TrackPointExtension>
        </extensions>
      </trkpt>
      <trkpt lat="43.07397955097258090972900390625" lon="13.00698830746114253997802734375">
        <ele>443.600006103515625</ele>
        <time>2021-06-04T08:26:25.000Z</time>
        <extensions>
          <ns3:TrackPointExtension>
            <ns3:atemp>25.0</ns3:atemp>
          </ns3:TrackPointExtension>
        </extensions>
      </trkpt>
      <trkpt lat="43.073939569294452667236328125" lon="13.0070505850017070770263671875">
        <ele>444.399993896484375</ele>
        <time>2021-06-04T08:26:27.000Z</time>
        <extensions>
          <ns3:TrackPointExtension>
            <ns3:atemp>25.0</ns3:atemp>
          </ns3:TrackPointExtension>
        </extensions>
      </trkpt>
      <trkpt lat="43.073912076652050018310546875" lon="13.0070800893008708953857421875">
        <ele>445</ele>
        <time>2021-06-04T08:26:28.000Z</time>
        <extensions>
          <ns3:TrackPointExtension>
            <ns3:atemp>25.0</ns3:atemp>
          </ns3:TrackPointExtension>
        </extensions>
      </trkpt>
      <trkpt lat="43.07387444190680980682373046875" lon="13.00716114230453968048095703125">
        <ele>446</ele>
        <time>2021-06-04T08:26:30.000Z</time>
        <extensions>
          <ns3:TrackPointExtension>
            <ns3:atemp>25.0</ns3:atemp>
          </ns3:TrackPointExtension>
        </extensions>
      </trkpt>
      <trkpt lat="43.073854744434356689453125" lon="13.007206656038761138916015625">
        <ele>446.600006103515625</ele>
        <time>2021-06-04T08:26:31.000Z</time>
        <extensions>
          <ns3:TrackPointExtension>
            <ns3:atemp>25.0</ns3:atemp>
          </ns3:TrackPointExtension>
        </extensions>
      </trkpt>
      <trkpt lat="43.07383974082767963409423828125" lon="13.00725392997264862060546875">
        <ele>447</ele>
        <time>2021-06-04T08:26:32.000Z</time>
        <extensions>
          <ns3:TrackPointExtension>
            <ns3:atemp>25.0</ns3:atemp>
          </ns3:TrackPointExtension>
        </extensions>
      </trkpt>
      <trkpt lat="43.0737784691154956817626953125" lon="13.00754872150719165802001953125">
        <ele>447.600006103515625</ele>
        <time>2021-06-04T08:26:38.000Z</time>
        <extensions>
          <ns3:TrackPointExtension>
            <ns3:atemp>25.0</ns3:atemp>
          </ns3:TrackPointExtension>
        </extensions>
      </trkpt>
      <trkpt lat="43.073759190738201141357421875" lon="13.0075997672975063323974609375">
        <ele>447.600006103515625</ele>
        <time>2021-06-04T08:26:39.000Z</time>
        <extensions>
          <ns3:TrackPointExtension>
            <ns3:atemp>25.0</ns3:atemp>
          </ns3:TrackPointExtension>
        </extensions>
      </trkpt>
      <trkpt lat="43.0737083964049816131591796875" lon="13.007752485573291778564453125">
        <ele>447.20001220703125</ele>
        <time>2021-06-04T08:26:42.000Z</time>
        <extensions>
          <ns3:TrackPointExtension>
            <ns3:atemp>25.0</ns3:atemp>
          </ns3:TrackPointExtension>
        </extensions>
      </trkpt>
      <trkpt lat="43.07366606779396533966064453125" lon="13.0078860931098461151123046875">
        <ele>446.600006103515625</ele>
        <time>2021-06-04T08:26:46.000Z</time>
        <extensions>
          <ns3:TrackPointExtension>
            <ns3:atemp>24.0</ns3:atemp>
          </ns3:TrackPointExtension>
        </extensions>
      </trkpt>
      <trkpt lat="43.07366522960364818572998046875" lon="13.0079219676554203033447265625">
        <ele>446.600006103515625</ele>
        <time>2021-06-04T08:26:47.000Z</time>
        <extensions>
          <ns3:TrackPointExtension>
            <ns3:atemp>24.0</ns3:atemp>
          </ns3:TrackPointExtension>
        </extensions>
      </trkpt>
      <trkpt lat="43.07361661456525325775146484375" lon="13.00800100900232791900634765625">
        <ele>446.399993896484375</ele>
        <time>2021-06-04T08:26:49.000Z</time>
        <extensions>
          <ns3:TrackPointExtension>
            <ns3:atemp>24.0</ns3:atemp>
          </ns3:TrackPointExtension>
        </extensions>
      </trkpt>
      <trkpt lat="43.07353556156158447265625" lon="13.00810846500098705291748046875">
        <ele>446</ele>
        <time>2021-06-04T08:26:52.000Z</time>
        <extensions>
          <ns3:TrackPointExtension>
            <ns3:atemp>24.0</ns3:atemp>
          </ns3:TrackPointExtension>
        </extensions>
      </trkpt>
      <trkpt lat="43.07351586408913135528564453125" lon="13.008126318454742431640625">
        <ele>446</ele>
        <time>2021-06-04T08:26:53.000Z</time>
        <extensions>
          <ns3:TrackPointExtension>
            <ns3:atemp>24.0</ns3:atemp>
          </ns3:TrackPointExtension>
        </extensions>
      </trkpt>
      <trkpt lat="43.0734135210514068603515625" lon="13.00821013748645782470703125">
        <ele>445.79998779296875</ele>
        <time>2021-06-04T08:26:56.000Z</time>
        <extensions>
          <ns3:TrackPointExtension>
            <ns3:atemp>24.0</ns3:atemp>
          </ns3:TrackPointExtension>
        </extensions>
      </trkpt>
      <trkpt lat="43.073335401713848114013671875" lon="13.00836461596190929412841796875">
        <ele>445.600006103515625</ele>
        <time>2021-06-04T08:26:59.000Z</time>
        <extensions>
          <ns3:TrackPointExtension>
            <ns3:atemp>24.0</ns3:atemp>
          </ns3:TrackPointExtension>
        </extensions>
      </trkpt>
      <trkpt lat="43.07324714027345180511474609375" lon="13.00848372280597686767578125">
        <ele>445.399993896484375</ele>
        <time>2021-06-04T08:27:02.000Z</time>
        <extensions>
          <ns3:TrackPointExtension>
            <ns3:atemp>24.0</ns3:atemp>
          </ns3:TrackPointExtension>
        </extensions>
      </trkpt>
      <trkpt lat="43.07320891879498958587646484375" lon="13.0085180886089801788330078125">
        <ele>445</ele>
        <time>2021-06-04T08:27:03.000Z</time>
        <extensions>
          <ns3:TrackPointExtension>
            <ns3:atemp>24.0</ns3:atemp>
          </ns3:TrackPointExtension>
        </extensions>
      </trkpt>
      <trkpt lat="43.07317203842103481292724609375" lon="13.00854130648076534271240234375">
        <ele>444.399993896484375</ele>
        <time>2021-06-04T08:27:04.000Z</time>
        <extensions>
          <ns3:TrackPointExtension>
            <ns3:atemp>24.0</ns3:atemp>
          </ns3:TrackPointExtension>
        </extensions>
      </trkpt>
      <trkpt lat="43.0731211602687835693359375" lon="13.0085750855505466461181640625">
        <ele>443</ele>
        <time>2021-06-04T08:27:06.000Z</time>
        <extensions>
          <ns3:TrackPointExtension>
            <ns3:atemp>24.0</ns3:atemp>
          </ns3:TrackPointExtension>
        </extensions>
      </trkpt>
      <trkpt lat="43.07309643365442752838134765625" lon="13.00859478302299976348876953125">
        <ele>442.20001220703125</ele>
        <time>2021-06-04T08:27:07.000Z</time>
        <extensions>
          <ns3:TrackPointExtension>
            <ns3:atemp>24.0</ns3:atemp>
          </ns3:TrackPointExtension>
        </extensions>
      </trkpt>
      <trkpt lat="43.07305603288114070892333984375" lon="13.0086230300366878509521484375">
        <ele>441.600006103515625</ele>
        <time>2021-06-04T08:27:08.000Z</time>
        <extensions>
          <ns3:TrackPointExtension>
            <ns3:atemp>24.0</ns3:atemp>
          </ns3:TrackPointExtension>
        </extensions>
      </trkpt>
      <trkpt lat="43.072969615459442138671875" lon="13.0086806975305080413818359375">
        <ele>440</ele>
        <time>2021-06-04T08:27:10.000Z</time>
        <extensions>
          <ns3:TrackPointExtension>
            <ns3:atemp>24.0</ns3:atemp>
          </ns3:TrackPointExtension>
        </extensions>
      </trkpt>
      <trkpt lat="43.0729359202086925506591796875" lon="13.00872218795120716094970703125">
        <ele>439.20001220703125</ele>
        <time>2021-06-04T08:27:11.000Z</time>
        <extensions>
          <ns3:TrackPointExtension>
            <ns3:atemp>24.0</ns3:atemp>
          </ns3:TrackPointExtension>
        </extensions>
      </trkpt>
      <trkpt lat="43.0729057453572750091552734375" lon="13.0087678693234920501708984375">
        <ele>438.600006103515625</ele>
        <time>2021-06-04T08:27:12.000Z</time>
        <extensions>
          <ns3:TrackPointExtension>
            <ns3:atemp>24.0</ns3:atemp>
          </ns3:TrackPointExtension>
        </extensions>
      </trkpt>
      <trkpt lat="43.0728266201913356781005859375" lon="13.00891564227640628814697265625">
        <ele>437.399993896484375</ele>
        <time>2021-06-04T08:27:15.000Z</time>
        <extensions>
          <ns3:TrackPointExtension>
            <ns3:atemp>24.0</ns3:atemp>
          </ns3:TrackPointExtension>
        </extensions>
      </trkpt>
      <trkpt lat="43.07277473621070384979248046875" lon="13.00900499336421489715576171875">
        <ele>436</ele>
        <time>2021-06-04T08:27:17.000Z</time>
        <extensions>
          <ns3:TrackPointExtension>
            <ns3:atemp>24.0</ns3:atemp>
          </ns3:TrackPointExtension>
        </extensions>
      </trkpt>
      <trkpt lat="43.07276719249784946441650390625" lon="13.009048998355865478515625">
        <ele>435.79998779296875</ele>
        <time>2021-06-04T08:27:18.000Z</time>
        <extensions>
          <ns3:TrackPointExtension>
            <ns3:atemp>24.0</ns3:atemp>
          </ns3:TrackPointExtension>
        </extensions>
      </trkpt>
      <trkpt lat="43.0727806873619556427001953125" lon="13.00914228893816471099853515625">
        <ele>435.399993896484375</ele>
        <time>2021-06-04T08:27:20.000Z</time>
        <extensions>
          <ns3:TrackPointExtension>
            <ns3:atemp>24.0</ns3:atemp>
          </ns3:TrackPointExtension>
        </extensions>
      </trkpt>
      <trkpt lat="43.0727944336831569671630859375" lon="13.00929718650877475738525390625">
        <ele>435.20001220703125</ele>
        <time>2021-06-04T08:27:24.000Z</time>
        <extensions>
          <ns3:TrackPointExtension>
            <ns3:atemp>24.0</ns3:atemp>
          </ns3:TrackPointExtension>
        </extensions>
      </trkpt>
      <trkpt lat="43.07277423329651355743408203125" lon="13.00930690951645374298095703125">
        <ele>435.20001220703125</ele>
        <time>2021-06-04T08:27:28.000Z</time>
        <extensions>
          <ns3:TrackPointExtension>
            <ns3:atemp>24.0</ns3:atemp>
          </ns3:TrackPointExtension>
        </extensions>
      </trkpt>
      <trkpt lat="43.0727536976337432861328125" lon="13.0093572847545146942138671875">
        <ele>435.399993896484375</ele>
        <time>2021-06-04T08:27:35.000Z</time>
        <extensions>
          <ns3:TrackPointExtension>
            <ns3:atemp>24.0</ns3:atemp>
          </ns3:TrackPointExtension>
        </extensions>
      </trkpt>
      <trkpt lat="43.0727456510066986083984375" lon="13.0094136111438274383544921875">
        <ele>435.600006103515625</ele>
        <time>2021-06-04T08:27:45.000Z</time>
        <extensions>
          <ns3:TrackPointExtension>
            <ns3:atemp>24.0</ns3:atemp>
          </ns3:TrackPointExtension>
        </extensions>
      </trkpt>
      <trkpt lat="43.07271505706012248992919921875" lon="13.00943079404532909393310546875">
        <ele>435.399993896484375</ele>
        <time>2021-06-04T08:27:54.000Z</time>
        <extensions>
          <ns3:TrackPointExtension>
            <ns3:atemp>24.0</ns3:atemp>
          </ns3:TrackPointExtension>
        </extensions>
      </trkpt>
      <trkpt lat="43.07271287776529788970947265625" lon="13.0094499886035919189453125">
        <ele>435.20001220703125</ele>
        <time>2021-06-04T08:28:09.000Z</time>
        <extensions>
          <ns3:TrackPointExtension>
            <ns3:atemp>24.0</ns3:atemp>
          </ns3:TrackPointExtension>
        </extensions>
      </trkpt>
      <trkpt lat="43.07272561825811862945556640625" lon="13.0094276927411556243896484375">
        <ele>435.20001220703125</ele>
        <time>2021-06-04T08:28:18.000Z</time>
        <extensions>
          <ns3:TrackPointExtension>
            <ns3:atemp>24.0</ns3:atemp>
          </ns3:TrackPointExtension>
        </extensions>
      </trkpt>
      <trkpt lat="43.07271908037364482879638671875" lon="13.00941872410476207733154296875">
        <ele>435.20001220703125</ele>
        <time>2021-06-04T08:28:26.000Z</time>
        <extensions>
          <ns3:TrackPointExtension>
            <ns3:atemp>24.0</ns3:atemp>
          </ns3:TrackPointExtension>
        </extensions>
      </trkpt>
      <trkpt lat="43.07272042147815227508544921875" lon="13.00941905938088893890380859375">
        <ele>435.20001220703125</ele>
        <time>2021-06-04T08:28:29.000Z</time>
        <extensions>
          <ns3:TrackPointExtension>
            <ns3:atemp>24.0</ns3:atemp>
          </ns3:TrackPointExtension>
        </extensions>
      </trkpt>
      <trkpt lat="43.0727188289165496826171875" lon="13.00941067747771739959716796875">
        <ele>434.79998779296875</ele>
        <time>2021-06-04T08:28:37.000Z</time>
        <extensions>
          <ns3:TrackPointExtension>
            <ns3:atemp>24.0</ns3:atemp>
          </ns3:TrackPointExtension>
        </extensions>
      </trkpt>
      <trkpt lat="43.07271857745945453643798828125" lon="13.009411431849002838134765625">
        <ele>435</ele>
        <time>2021-06-04T08:28:42.000Z</time>
        <extensions>
          <ns3:TrackPointExtension>
            <ns3:atemp>24.0</ns3:atemp>
          </ns3:TrackPointExtension>
        </extensions>
      </trkpt>
      <trkpt lat="43.0727126263082027435302734375" lon="13.009400703012943267822265625">
        <ele>435</ele>
        <time>2021-06-04T08:28:55.000Z</time>
        <extensions>
          <ns3:TrackPointExtension>
            <ns3:atemp>24.0</ns3:atemp>
          </ns3:TrackPointExtension>
        </extensions>
      </trkpt>
      <trkpt lat="43.07270742952823638916015625" lon="13.00941050983965396881103515625">
        <ele>435</ele>
        <time>2021-06-04T08:29:05.000Z</time>
        <extensions>
          <ns3:TrackPointExtension>
            <ns3:atemp>24.0</ns3:atemp>
          </ns3:TrackPointExtension>
        </extensions>
      </trkpt>
      <trkpt lat="43.0726948566734790802001953125" lon="13.0094384215772151947021484375">
        <ele>435</ele>
        <time>2021-06-04T08:29:07.000Z</time>
        <extensions>
          <ns3:TrackPointExtension>
            <ns3:atemp>24.0</ns3:atemp>
          </ns3:TrackPointExtension>
        </extensions>
      </trkpt>
      <trkpt lat="43.0726445652544498443603515625" lon="13.0095353163778781890869140625">
        <ele>435</ele>
        <time>2021-06-04T08:29:10.000Z</time>
        <extensions>
          <ns3:TrackPointExtension>
            <ns3:atemp>24.0</ns3:atemp>
          </ns3:TrackPointExtension>
        </extensions>
      </trkpt>
      <trkpt lat="43.07262302376329898834228515625" lon="13.009578399360179901123046875">
        <ele>435</ele>
        <time>2021-06-04T08:29:11.000Z</time>
        <extensions>
          <ns3:TrackPointExtension>
            <ns3:atemp>24.0</ns3:atemp>
          </ns3:TrackPointExtension>
        </extensions>
      </trkpt>
      <trkpt lat="43.07255462743341922760009765625" lon="13.0097609572112560272216796875">
        <ele>434.79998779296875</ele>
        <time>2021-06-04T08:29:15.000Z</time>
        <extensions>
          <ns3:TrackPointExtension>
            <ns3:atemp>24.0</ns3:atemp>
          </ns3:TrackPointExtension>
        </extensions>
      </trkpt>
      <trkpt lat="43.0724819563329219818115234375" lon="13.00991845317184925079345703125">
        <ele>434.600006103515625</ele>
        <time>2021-06-04T08:29:20.000Z</time>
        <extensions>
          <ns3:TrackPointExtension>
            <ns3:atemp>24.0</ns3:atemp>
          </ns3:TrackPointExtension>
        </extensions>
      </trkpt>
      <trkpt lat="43.07239084504544734954833984375" lon="13.01008106209337711334228515625">
        <ele>434.399993896484375</ele>
        <time>2021-06-04T08:29:25.000Z</time>
        <extensions>
          <ns3:TrackPointExtension>
            <ns3:atemp>24.0</ns3:atemp>
          </ns3:TrackPointExtension>
        </extensions>
      </trkpt>
      <trkpt lat="43.07230082340538501739501953125" lon="13.0102595128118991851806640625">
        <ele>434.20001220703125</ele>
        <time>2021-06-04T08:29:29.000Z</time>
        <extensions>
          <ns3:TrackPointExtension>
            <ns3:atemp>24.0</ns3:atemp>
          </ns3:TrackPointExtension>
        </extensions>
      </trkpt>
      <trkpt lat="43.07227718643844127655029296875" lon="13.01031030714511871337890625">
        <ele>434.20001220703125</ele>
        <time>2021-06-04T08:29:30.000Z</time>
        <extensions>
          <ns3:TrackPointExtension>
            <ns3:atemp>24.0</ns3:atemp>
          </ns3:TrackPointExtension>
        </extensions>
      </trkpt>
      <trkpt lat="43.0722011625766754150390625" lon="13.01045355387032032012939453125">
        <ele>434.20001220703125</ele>
        <time>2021-06-04T08:29:33.000Z</time>
        <extensions>
          <ns3:TrackPointExtension>
            <ns3:atemp>24.0</ns3:atemp>
          </ns3:TrackPointExtension>
        </extensions>
      </trkpt>
      <trkpt lat="43.072149194777011871337890625" lon="13.01051356829702854156494140625">
        <ele>434</ele>
        <time>2021-06-04T08:29:35.000Z</time>
        <extensions>
          <ns3:TrackPointExtension>
            <ns3:atemp>24.0</ns3:atemp>
          </ns3:TrackPointExtension>
        </extensions>
      </trkpt>
      <trkpt lat="43.07202883064746856689453125" lon="13.01060107536613941192626953125">
        <ele>434</ele>
        <time>2021-06-04T08:29:39.000Z</time>
        <extensions>
          <ns3:TrackPointExtension>
            <ns3:atemp>24.0</ns3:atemp>
          </ns3:TrackPointExtension>
        </extensions>
      </trkpt>
      <trkpt lat="43.07196579873561859130859375" lon="13.0106672085821628570556640625">
        <ele>434</ele>
        <time>2021-06-04T08:29:42.000Z</time>
        <extensions>
          <ns3:TrackPointExtension>
            <ns3:atemp>24.0</ns3:atemp>
          </ns3:TrackPointExtension>
        </extensions>
      </trkpt>
      <trkpt lat="43.07195884175598621368408203125" lon="13.010698221623897552490234375">
        <ele>434</ele>
        <time>2021-06-04T08:29:43.000Z</time>
        <extensions>
          <ns3:TrackPointExtension>
            <ns3:atemp>24.0</ns3:atemp>
          </ns3:TrackPointExtension>
        </extensions>
      </trkpt>
      <trkpt lat="43.07189740240573883056640625" lon="13.0108040012419223785400390625">
        <ele>434</ele>
        <time>2021-06-04T08:29:46.000Z</time>
        <extensions>
          <ns3:TrackPointExtension>
            <ns3:atemp>24.0</ns3:atemp>
          </ns3:TrackPointExtension>
        </extensions>
      </trkpt>
      <trkpt lat="43.07180562056601047515869140625" lon="13.0109166540205478668212890625">
        <ele>434</ele>
        <time>2021-06-04T08:29:49.000Z</time>
        <extensions>
          <ns3:TrackPointExtension>
            <ns3:atemp>24.0</ns3:atemp>
          </ns3:TrackPointExtension>
        </extensions>
      </trkpt>
      <trkpt lat="43.07175164110958576202392578125" lon="13.01100240088999271392822265625">
        <ele>434</ele>
        <time>2021-06-04T08:29:51.000Z</time>
        <extensions>
          <ns3:TrackPointExtension>
            <ns3:atemp>24.0</ns3:atemp>
          </ns3:TrackPointExtension>
        </extensions>
      </trkpt>
      <trkpt lat="43.0716994218528270721435546875" lon="13.01113097928464412689208984375">
        <ele>433.79998779296875</ele>
        <time>2021-06-04T08:29:54.000Z</time>
        <extensions>
          <ns3:TrackPointExtension>
            <ns3:atemp>24.0</ns3:atemp>
          </ns3:TrackPointExtension>
        </extensions>
      </trkpt>
      <trkpt lat="43.07164820842444896697998046875" lon="13.0112175643444061279296875">
        <ele>433.399993896484375</ele>
        <time>2021-06-04T08:29:56.000Z</time>
        <extensions>
          <ns3:TrackPointExtension>
            <ns3:atemp>24.0</ns3:atemp>
          </ns3:TrackPointExtension>
        </extensions>
      </trkpt>
      <trkpt lat="43.07159473188221454620361328125" lon="13.01129509694874286651611328125">
        <ele>432.600006103515625</ele>
        <time>2021-06-04T08:29:58.000Z</time>
        <extensions>
          <ns3:TrackPointExtension>
            <ns3:atemp>24.0</ns3:atemp>
          </ns3:TrackPointExtension>
        </extensions>
      </trkpt>
      <trkpt lat="43.07152591645717620849609375" lon="13.01138780079782009124755859375">
        <ele>431.79998779296875</ele>
        <time>2021-06-04T08:30:00.000Z</time>
        <extensions>
          <ns3:TrackPointExtension>
            <ns3:atemp>24.0</ns3:atemp>
          </ns3:TrackPointExtension>
        </extensions>
      </trkpt>
      <trkpt lat="43.071490712463855743408203125" lon="13.011431805789470672607421875">
        <ele>431.399993896484375</ele>
        <time>2021-06-04T08:30:01.000Z</time>
        <extensions>
          <ns3:TrackPointExtension>
            <ns3:atemp>24.0</ns3:atemp>
          </ns3:TrackPointExtension>
        </extensions>
      </trkpt>
      <trkpt lat="43.0713825859129428863525390625" lon="13.0116100050508975982666015625">
        <ele>430.399993896484375</ele>
        <time>2021-06-04T08:30:06.000Z</time>
        <extensions>
          <ns3:TrackPointExtension>
            <ns3:atemp>24.0</ns3:atemp>
          </ns3:TrackPointExtension>
        </extensions>
      </trkpt>
      <trkpt lat="43.07129130698740482330322265625" lon="13.011782504618167877197265625">
        <ele>430.399993896484375</ele>
        <time>2021-06-04T08:30:11.000Z</time>
        <extensions>
          <ns3:TrackPointExtension>
            <ns3:atemp>23.0</ns3:atemp>
          </ns3:TrackPointExtension>
        </extensions>
      </trkpt>
      <trkpt lat="43.0711522512137889862060546875" lon="13.0119590274989604949951171875">
        <ele>430.79998779296875</ele>
        <time>2021-06-04T08:30:16.000Z</time>
        <extensions>
          <ns3:TrackPointExtension>
            <ns3:atemp>23.0</ns3:atemp>
          </ns3:TrackPointExtension>
        </extensions>
      </trkpt>
      <trkpt lat="43.07103465311229228973388671875" lon="13.01212741993367671966552734375">
        <ele>431.20001220703125</ele>
        <time>2021-06-04T08:30:21.000Z</time>
        <extensions>
          <ns3:TrackPointExtension>
            <ns3:atemp>23.0</ns3:atemp>
          </ns3:TrackPointExtension>
        </extensions>
      </trkpt>
      <trkpt lat="43.07099224068224430084228515625" lon="13.0121839977800846099853515625">
        <ele>431.399993896484375</ele>
        <time>2021-06-04T08:30:23.000Z</time>
        <extensions>
          <ns3:TrackPointExtension>
            <ns3:atemp>23.0</ns3:atemp>
          </ns3:TrackPointExtension>
        </extensions>
      </trkpt>
      <trkpt lat="43.0709137022495269775390625" lon="13.01228499971330165863037109375">
        <ele>431.79998779296875</ele>
        <time>2021-06-04T08:30:27.000Z</time>
        <extensions>
          <ns3:TrackPointExtension>
            <ns3:atemp>23.0</ns3:atemp>
          </ns3:TrackPointExtension>
        </extensions>
      </trkpt>
      <trkpt lat="43.07085662148892879486083984375" lon="13.01231970079243183135986328125">
        <ele>432.600006103515625</ele>
        <time>2021-06-04T08:30:29.000Z</time>
        <extensions>
          <ns3:TrackPointExtension>
            <ns3:atemp>23.0</ns3:atemp>
          </ns3:TrackPointExtension>
        </extensions>
      </trkpt>
      <trkpt lat="43.0707767419517040252685546875" lon="13.0123663879930973052978515625">
        <ele>433.20001220703125</ele>
        <time>2021-06-04T08:30:32.000Z</time>
        <extensions>
          <ns3:TrackPointExtension>
            <ns3:atemp>23.0</ns3:atemp>
          </ns3:TrackPointExtension>
        </extensions>
      </trkpt>
      <trkpt lat="43.07061002589762210845947265625" lon="13.01251483149826526641845703125">
        <ele>433.399993896484375</ele>
        <time>2021-06-04T08:30:37.000Z</time>
        <extensions>
          <ns3:TrackPointExtension>
            <ns3:atemp>23.0</ns3:atemp>
          </ns3:TrackPointExtension>
        </extensions>
      </trkpt>
      <trkpt lat="43.0704129673540592193603515625" lon="13.01270443014800548553466796875">
        <ele>433</ele>
        <time>2021-06-04T08:30:43.000Z</time>
        <extensions>
          <ns3:TrackPointExtension>
            <ns3:atemp>23.0</ns3:atemp>
          </ns3:TrackPointExtension>
        </extensions>
      </trkpt>
      <trkpt lat="43.07027290575206279754638671875" lon="13.01283267326653003692626953125">
        <ele>432.79998779296875</ele>
        <time>2021-06-04T08:30:47.000Z</time>
        <extensions>
          <ns3:TrackPointExtension>
            <ns3:atemp>23.0</ns3:atemp>
          </ns3:TrackPointExtension>
        </extensions>
      </trkpt>
      <trkpt lat="43.070247508585453033447265625" lon="13.0128579027950763702392578125">
        <ele>432.79998779296875</ele>
        <time>2021-06-04T08:30:48.000Z</time>
        <extensions>
          <ns3:TrackPointExtension>
            <ns3:atemp>23.0</ns3:atemp>
          </ns3:TrackPointExtension>
        </extensions>
      </trkpt>
      <trkpt lat="43.070150949060916900634765625" lon="13.0129715614020824432373046875">
        <ele>433</ele>
        <time>2021-06-04T08:30:53.000Z</time>
        <extensions>
          <ns3:TrackPointExtension>
            <ns3:atemp>23.0</ns3:atemp>
          </ns3:TrackPointExtension>
        </extensions>
      </trkpt>
      <trkpt lat="43.07006754912436008453369140625" lon="13.0131207592785358428955078125">
        <ele>433.79998779296875</ele>
        <time>2021-06-04T08:30:58.000Z</time>
        <extensions>
          <ns3:TrackPointExtension>
            <ns3:atemp>23.0</ns3:atemp>
          </ns3:TrackPointExtension>
        </extensions>
      </trkpt>
      <trkpt lat="43.07006034068763256072998046875" lon="13.01315437071025371551513671875">
        <ele>434</ele>
        <time>2021-06-04T08:30:59.000Z</time>
        <extensions>
          <ns3:TrackPointExtension>
            <ns3:atemp>23.0</ns3:atemp>
          </ns3:TrackPointExtension>
        </extensions>
      </trkpt>
      <trkpt lat="43.070054389536380767822265625" lon="13.01328395493328571319580078125">
        <ele>435</ele>
        <time>2021-06-04T08:31:03.000Z</time>
        <extensions>
          <ns3:TrackPointExtension>
            <ns3:atemp>23.0</ns3:atemp>
          </ns3:TrackPointExtension>
        </extensions>
      </trkpt>
      <trkpt lat="43.07006889022886753082275390625" lon="13.01335436291992664337158203125">
        <ele>435.79998779296875</ele>
        <time>2021-06-04T08:31:05.000Z</time>
        <extensions>
          <ns3:TrackPointExtension>
            <ns3:atemp>23.0</ns3:atemp>
          </ns3:TrackPointExtension>
        </extensions>
      </trkpt>
      <trkpt lat="43.0700827203691005706787109375" lon="13.013385795056819915771484375">
        <ele>436.20001220703125</ele>
        <time>2021-06-04T08:31:06.000Z</time>
        <extensions>
          <ns3:TrackPointExtension>
            <ns3:atemp>23.0</ns3:atemp>
          </ns3:TrackPointExtension>
        </extensions>
      </trkpt>
      <trkpt lat="43.07012337259948253631591796875" lon="13.013469278812408447265625">
        <ele>437.399993896484375</ele>
        <time>2021-06-04T08:31:09.000Z</time>
        <extensions>
          <ns3:TrackPointExtension>
            <ns3:atemp>23.0</ns3:atemp>
          </ns3:TrackPointExtension>
        </extensions>
      </trkpt>
      <trkpt lat="43.070175088942050933837890625" lon="13.0135445483028888702392578125">
        <ele>438.600006103515625</ele>
        <time>2021-06-04T08:31:12.000Z</time>
        <extensions>
          <ns3:TrackPointExtension>
            <ns3:atemp>23.0</ns3:atemp>
          </ns3:TrackPointExtension>
        </extensions>
      </trkpt>
      <trkpt lat="43.070248849689960479736328125" lon="13.01362962462007999420166015625">
        <ele>439.79998779296875</ele>
        <time>2021-06-04T08:31:16.000Z</time>
        <extensions>
          <ns3:TrackPointExtension>
            <ns3:atemp>23.0</ns3:atemp>
          </ns3:TrackPointExtension>
        </extensions>
      </trkpt>
      <trkpt lat="43.0702879093587398529052734375" lon="13.01367136649787425994873046875">
        <ele>440.399993896484375</ele>
        <time>2021-06-04T08:31:18.000Z</time>
        <extensions>
          <ns3:TrackPointExtension>
            <ns3:atemp>23.0</ns3:atemp>
          </ns3:TrackPointExtension>
        </extensions>
      </trkpt>
      <trkpt lat="43.0703241191804409027099609375" lon="13.01371310837566852569580078125">
        <ele>441.20001220703125</ele>
        <time>2021-06-04T08:31:20.000Z</time>
        <extensions>
          <ns3:TrackPointExtension>
            <ns3:atemp>23.0</ns3:atemp>
          </ns3:TrackPointExtension>
        </extensions>
      </trkpt>
      <trkpt lat="43.070389330387115478515625" lon="13.01379692740738391876220703125">
        <ele>442.20001220703125</ele>
        <time>2021-06-04T08:31:24.000Z</time>
        <extensions>
          <ns3:TrackPointExtension>
            <ns3:atemp>23.0</ns3:atemp>
          </ns3:TrackPointExtension>
        </extensions>
      </trkpt>
      <trkpt lat="43.070440627634525299072265625" lon="13.01386465318500995635986328125">
        <ele>443.20001220703125</ele>
        <time>2021-06-04T08:31:27.000Z</time>
        <extensions>
          <ns3:TrackPointExtension>
            <ns3:atemp>23.0</ns3:atemp>
          </ns3:TrackPointExtension>
        </extensions>
      </trkpt>
      <trkpt lat="43.07045848108828067779541015625" lon="13.013882339000701904296875">
        <ele>443.399993896484375</ele>
        <time>2021-06-04T08:31:28.000Z</time>
        <extensions>
          <ns3:TrackPointExtension>
            <ns3:atemp>23.0</ns3:atemp>
          </ns3:TrackPointExtension>
        </extensions>
      </trkpt>
      <trkpt lat="43.07052603922784328460693359375" lon="13.01395802758634090423583984375">
        <ele>444.600006103515625</ele>
        <time>2021-06-04T08:31:32.000Z</time>
        <extensions>
          <ns3:TrackPointExtension>
            <ns3:atemp>23.0</ns3:atemp>
          </ns3:TrackPointExtension>
        </extensions>
      </trkpt>
      <trkpt lat="43.07054297067224979400634765625" lon="13.013977222144603729248046875">
        <ele>444.79998779296875</ele>
        <time>2021-06-04T08:31:33.000Z</time>
        <extensions>
          <ns3:TrackPointExtension>
            <ns3:atemp>23.0</ns3:atemp>
          </ns3:TrackPointExtension>
        </extensions>
      </trkpt>
      <trkpt lat="43.07059141807258129119873046875" lon="13.01402860321104526519775390625">
        <ele>446</ele>
        <time>2021-06-04T08:31:36.000Z</time>
        <extensions>
          <ns3:TrackPointExtension>
            <ns3:atemp>23.0</ns3:atemp>
          </ns3:TrackPointExtension>
        </extensions>
      </trkpt>
      <trkpt lat="43.0706429667770862579345703125" lon="13.01408191211521625518798828125">
        <ele>446.79998779296875</ele>
        <time>2021-06-04T08:31:39.000Z</time>
        <extensions>
          <ns3:TrackPointExtension>
            <ns3:atemp>23.0</ns3:atemp>
          </ns3:TrackPointExtension>
        </extensions>
      </trkpt>
      <trkpt lat="43.07065763510763645172119140625" lon="13.014098592102527618408203125">
        <ele>447.20001220703125</ele>
        <time>2021-06-04T08:31:40.000Z</time>
        <extensions>
          <ns3:TrackPointExtension>
            <ns3:atemp>23.0</ns3:atemp>
          </ns3:TrackPointExtension>
        </extensions>
      </trkpt>
      <trkpt lat="43.07070557959377765655517578125" lon="13.01414108835160732269287109375">
        <ele>448.399993896484375</ele>
        <time>2021-06-04T08:31:43.000Z</time>
        <extensions>
          <ns3:TrackPointExtension>
            <ns3:atemp>23.0</ns3:atemp>
          </ns3:TrackPointExtension>
        </extensions>
      </trkpt>
      <trkpt lat="43.07072351686656475067138671875" lon="13.01414963789284229278564453125">
        <ele>448.79998779296875</ele>
        <time>2021-06-04T08:31:44.000Z</time>
        <extensions>
          <ns3:TrackPointExtension>
            <ns3:atemp>23.0</ns3:atemp>
          </ns3:TrackPointExtension>
        </extensions>
      </trkpt>
      <trkpt lat="43.07075972668826580047607421875" lon="13.01416774280369281768798828125">
        <ele>449.600006103515625</ele>
        <time>2021-06-04T08:31:46.000Z</time>
        <extensions>
          <ns3:TrackPointExtension>
            <ns3:atemp>23.0</ns3:atemp>
          </ns3:TrackPointExtension>
        </extensions>
      </trkpt>
      <trkpt lat="43.07081789709627628326416015625" lon="13.0142110772430896759033203125">
        <ele>450.79998779296875</ele>
        <time>2021-06-04T08:31:49.000Z</time>
        <extensions>
          <ns3:TrackPointExtension>
            <ns3:atemp>23.0</ns3:atemp>
          </ns3:TrackPointExtension>
        </extensions>
      </trkpt>
      <trkpt lat="43.0708681046962738037109375" lon="13.01426514051854610443115234375">
        <ele>451.399993896484375</ele>
        <time>2021-06-04T08:31:52.000Z</time>
        <extensions>
          <ns3:TrackPointExtension>
            <ns3:atemp>23.0</ns3:atemp>
          </ns3:TrackPointExtension>
        </extensions>
      </trkpt>
      <trkpt lat="43.07087807916104793548583984375" lon="13.01428668200969696044921875">
        <ele>451.600006103515625</ele>
        <time>2021-06-04T08:31:53.000Z</time>
        <extensions>
          <ns3:TrackPointExtension>
            <ns3:atemp>23.0</ns3:atemp>
          </ns3:TrackPointExtension>
        </extensions>
      </trkpt>
      <trkpt lat="43.0708893947303295135498046875" lon="13.0143066309392452239990234375">
        <ele>451.79998779296875</ele>
        <time>2021-06-04T08:31:54.000Z</time>
        <extensions>
          <ns3:TrackPointExtension>
            <ns3:atemp>23.0</ns3:atemp>
          </ns3:TrackPointExtension>
        </extensions>
      </trkpt>
      <trkpt lat="43.0709225870668888092041015625" lon="13.0143455229699611663818359375">
        <ele>452.399993896484375</ele>
        <time>2021-06-04T08:31:56.000Z</time>
        <extensions>
          <ns3:TrackPointExtension>
            <ns3:atemp>23.0</ns3:atemp>
          </ns3:TrackPointExtension>
        </extensions>
      </trkpt>
      <trkpt lat="43.0709386803209781646728515625" lon="13.01436220295727252960205078125">
        <ele>452.600006103515625</ele>
        <time>2021-06-04T08:31:57.000Z</time>
        <extensions>
          <ns3:TrackPointExtension>
            <ns3:atemp>23.0</ns3:atemp>
          </ns3:TrackPointExtension>
        </extensions>
      </trkpt>
      <trkpt lat="43.070952929556369781494140625" lon="13.01438190042972564697265625">
        <ele>453</ele>
        <time>2021-06-04T08:31:58.000Z</time>
        <extensions>
          <ns3:TrackPointExtension>
            <ns3:atemp>23.0</ns3:atemp>
          </ns3:TrackPointExtension>
        </extensions>
      </trkpt>
      <trkpt lat="43.0709986947476863861083984375" lon="13.014439232647418975830078125">
        <ele>454</ele>
        <time>2021-06-04T08:32:01.000Z</time>
        <extensions>
          <ns3:TrackPointExtension>
            <ns3:atemp>23.0</ns3:atemp>
          </ns3:TrackPointExtension>
        </extensions>
      </trkpt>
      <trkpt lat="43.07101654820144176483154296875" lon="13.01445708610117435455322265625">
        <ele>454.399993896484375</ele>
        <time>2021-06-04T08:32:02.000Z</time>
        <extensions>
          <ns3:TrackPointExtension>
            <ns3:atemp>23.0</ns3:atemp>
          </ns3:TrackPointExtension>
        </extensions>
      </trkpt>
      <trkpt lat="43.0710838548839092254638671875" lon="13.01453285850584506988525390625">
        <ele>455</ele>
        <time>2021-06-04T08:32:06.000Z</time>
        <extensions>
          <ns3:TrackPointExtension>
            <ns3:atemp>24.0</ns3:atemp>
          </ns3:TrackPointExtension>
        </extensions>
      </trkpt>
      <trkpt lat="43.0711240880191326141357421875" lon="13.01459538750350475311279296875">
        <ele>455.79998779296875</ele>
        <time>2021-06-04T08:32:09.000Z</time>
        <extensions>
          <ns3:TrackPointExtension>
            <ns3:atemp>24.0</ns3:atemp>
          </ns3:TrackPointExtension>
        </extensions>
      </trkpt>
      <trkpt lat="43.07114697061479091644287109375" lon="13.01463997922837734222412109375">
        <ele>456.20001220703125</ele>
        <time>2021-06-04T08:32:11.000Z</time>
        <extensions>
          <ns3:TrackPointExtension>
            <ns3:atemp>24.0</ns3:atemp>
          </ns3:TrackPointExtension>
        </extensions>
      </trkpt>
      <trkpt lat="43.0711861141026020050048828125" lon="13.014740645885467529296875">
        <ele>457.399993896484375</ele>
        <time>2021-06-04T08:32:15.000Z</time>
        <extensions>
          <ns3:TrackPointExtension>
            <ns3:atemp>24.0</ns3:atemp>
          </ns3:TrackPointExtension>
        </extensions>
      </trkpt>
      <trkpt lat="43.07119960896670818328857421875" lon="13.01476386375725269317626953125">
        <ele>457.600006103515625</ele>
        <time>2021-06-04T08:32:16.000Z</time>
        <extensions>
          <ns3:TrackPointExtension>
            <ns3:atemp>24.0</ns3:atemp>
          </ns3:TrackPointExtension>
        </extensions>
      </trkpt>
      <trkpt lat="43.07123062200844287872314453125" lon="13.0148383788764476776123046875">
        <ele>458.399993896484375</ele>
        <time>2021-06-04T08:32:19.000Z</time>
        <extensions>
          <ns3:TrackPointExtension>
            <ns3:atemp>24.0</ns3:atemp>
          </ns3:TrackPointExtension>
        </extensions>
      </trkpt>
      <trkpt lat="43.0712535046041011810302734375" lon="13.014887161552906036376953125">
        <ele>459.20001220703125</ele>
        <time>2021-06-04T08:32:21.000Z</time>
        <extensions>
          <ns3:TrackPointExtension>
            <ns3:atemp>24.0</ns3:atemp>
          </ns3:TrackPointExtension>
        </extensions>
      </trkpt>
      <trkpt lat="43.071282170712947845458984375" lon="13.01493317820131778717041015625">
        <ele>459.79998779296875</ele>
        <time>2021-06-04T08:32:23.000Z</time>
        <extensions>
          <ns3:TrackPointExtension>
            <ns3:atemp>24.0</ns3:atemp>
          </ns3:TrackPointExtension>
        </extensions>
      </trkpt>
      <trkpt lat="43.0713093280792236328125" lon="13.01500593312084674835205078125">
        <ele>460.79998779296875</ele>
        <time>2021-06-04T08:32:26.000Z</time>
        <extensions>
          <ns3:TrackPointExtension>
            <ns3:atemp>24.0</ns3:atemp>
          </ns3:TrackPointExtension>
        </extensions>
      </trkpt>
      <trkpt lat="43.07133975438773632049560546875" lon="13.0150824598968029022216796875">
        <ele>461.79998779296875</ele>
        <time>2021-06-04T08:32:29.000Z</time>
        <extensions>
          <ns3:TrackPointExtension>
            <ns3:atemp>24.0</ns3:atemp>
          </ns3:TrackPointExtension>
        </extensions>
      </trkpt>
      <trkpt lat="43.07136774994432926177978515625" lon="13.015189580619335174560546875">
        <ele>463.20001220703125</ele>
        <time>2021-06-04T08:32:33.000Z</time>
        <extensions>
          <ns3:TrackPointExtension>
            <ns3:atemp>24.0</ns3:atemp>
          </ns3:TrackPointExtension>
        </extensions>
      </trkpt>
      <trkpt lat="43.0713758803904056549072265625" lon="13.01521481014788150787353515625">
        <ele>463.399993896484375</ele>
        <time>2021-06-04T08:32:34.000Z</time>
        <extensions>
          <ns3:TrackPointExtension>
            <ns3:atemp>24.0</ns3:atemp>
          </ns3:TrackPointExtension>
        </extensions>
      </trkpt>
      <trkpt lat="43.0714006908237934112548828125" lon="13.0153091065585613250732421875">
        <ele>464.399993896484375</ele>
        <time>2021-06-04T08:32:37.000Z</time>
        <extensions>
          <ns3:TrackPointExtension>
            <ns3:atemp>24.0</ns3:atemp>
          </ns3:TrackPointExtension>
        </extensions>
      </trkpt>
      <trkpt lat="43.071411587297916412353515625" lon="13.01533668301999568939208984375">
        <ele>464.600006103515625</ele>
        <time>2021-06-04T08:32:38.000Z</time>
        <extensions>
          <ns3:TrackPointExtension>
            <ns3:atemp>24.0</ns3:atemp>
          </ns3:TrackPointExtension>
        </extensions>
      </trkpt>
      <trkpt lat="43.07142457924783229827880859375" lon="13.015402816236019134521484375">
        <ele>465.20001220703125</ele>
        <time>2021-06-04T08:32:40.000Z</time>
        <extensions>
          <ns3:TrackPointExtension>
            <ns3:atemp>24.0</ns3:atemp>
          </ns3:TrackPointExtension>
        </extensions>
      </trkpt>
      <trkpt lat="43.0714301951229572296142578125" lon="13.0154324881732463836669921875">
        <ele>465.399993896484375</ele>
        <time>2021-06-04T08:32:41.000Z</time>
        <extensions>
          <ns3:TrackPointExtension>
            <ns3:atemp>24.0</ns3:atemp>
          </ns3:TrackPointExtension>
        </extensions>
      </trkpt>
      <trkpt lat="43.0714555084705352783203125" lon="13.01554723642766475677490234375">
        <ele>466.20001220703125</ele>
        <time>2021-06-04T08:32:45.000Z</time>
        <extensions>
          <ns3:TrackPointExtension>
            <ns3:atemp>24.0</ns3:atemp>
          </ns3:TrackPointExtension>
        </extensions>
      </trkpt>
      <trkpt lat="43.07146615348756313323974609375" lon="13.0155733041465282440185546875">
        <ele>466.600006103515625</ele>
        <time>2021-06-04T08:32:46.000Z</time>
        <extensions>
          <ns3:TrackPointExtension>
            <ns3:atemp>24.0</ns3:atemp>
          </ns3:TrackPointExtension>
        </extensions>
      </trkpt>
      <trkpt lat="43.07151443324983119964599609375" lon="13.01566508598625659942626953125">
        <ele>467.79998779296875</ele>
        <time>2021-06-04T08:32:50.000Z</time>
        <extensions>
          <ns3:TrackPointExtension>
            <ns3:atemp>24.0</ns3:atemp>
          </ns3:TrackPointExtension>
        </extensions>
      </trkpt>
      <trkpt lat="43.07152859866619110107421875" lon="13.0156849510967731475830078125">
        <ele>468.399993896484375</ele>
        <time>2021-06-04T08:32:51.000Z</time>
        <extensions>
          <ns3:TrackPointExtension>
            <ns3:atemp>24.0</ns3:atemp>
          </ns3:TrackPointExtension>
        </extensions>
      </trkpt>
      <trkpt lat="43.07154393754899501800537109375" lon="13.01570649258792400360107421875">
        <ele>468.79998779296875</ele>
        <time>2021-06-04T08:32:52.000Z</time>
        <extensions>
          <ns3:TrackPointExtension>
            <ns3:atemp>24.0</ns3:atemp>
          </ns3:TrackPointExtension>
        </extensions>
      </trkpt>
      <trkpt lat="43.0716055445373058319091796875" lon="13.01578662358224391937255859375">
        <ele>470</ele>
        <time>2021-06-04T08:32:56.000Z</time>
        <extensions>
          <ns3:TrackPointExtension>
            <ns3:atemp>24.0</ns3:atemp>
          </ns3:TrackPointExtension>
        </extensions>
      </trkpt>
      <trkpt lat="43.0716410838067531585693359375" lon="13.0158254317939281463623046875">
        <ele>470.79998779296875</ele>
        <time>2021-06-04T08:32:58.000Z</time>
        <extensions>
          <ns3:TrackPointExtension>
            <ns3:atemp>24.0</ns3:atemp>
          </ns3:TrackPointExtension>
        </extensions>
      </trkpt>
      <trkpt lat="43.07165876962244510650634765625" lon="13.01584303379058837890625">
        <ele>471</ele>
        <time>2021-06-04T08:32:59.000Z</time>
        <extensions>
          <ns3:TrackPointExtension>
            <ns3:atemp>24.0</ns3:atemp>
          </ns3:TrackPointExtension>
        </extensions>
      </trkpt>
      <trkpt lat="43.07173789478838443756103515625" lon="13.015946634113788604736328125">
        <ele>472</ele>
        <time>2021-06-04T08:33:04.000Z</time>
        <extensions>
          <ns3:TrackPointExtension>
            <ns3:atemp>24.0</ns3:atemp>
          </ns3:TrackPointExtension>
        </extensions>
      </trkpt>
      <trkpt lat="43.07175264693796634674072265625" lon="13.0159699358046054840087890625">
        <ele>472.20001220703125</ele>
        <time>2021-06-04T08:33:05.000Z</time>
        <extensions>
          <ns3:TrackPointExtension>
            <ns3:atemp>24.0</ns3:atemp>
          </ns3:TrackPointExtension>
        </extensions>
      </trkpt>
      <trkpt lat="43.07178433053195476531982421875" lon="13.0160131864249706268310546875">
        <ele>472.79998779296875</ele>
        <time>2021-06-04T08:33:07.000Z</time>
        <extensions>
          <ns3:TrackPointExtension>
            <ns3:atemp>24.0</ns3:atemp>
          </ns3:TrackPointExtension>
        </extensions>
      </trkpt>
      <trkpt lat="43.0718160979449748992919921875" lon="13.0160616338253021240234375">
        <ele>473.399993896484375</ele>
        <time>2021-06-04T08:33:09.000Z</time>
        <extensions>
          <ns3:TrackPointExtension>
            <ns3:atemp>24.0</ns3:atemp>
          </ns3:TrackPointExtension>
        </extensions>
      </trkpt>
      <trkpt lat="43.0718358792364597320556640625" lon="13.016084767878055572509765625">
        <ele>473.600006103515625</ele>
        <time>2021-06-04T08:33:10.000Z</time>
        <extensions>
          <ns3:TrackPointExtension>
            <ns3:atemp>24.0</ns3:atemp>
          </ns3:TrackPointExtension>
        </extensions>
      </trkpt>
      <trkpt lat="43.0718766152858734130859375" lon="13.01615257747471332550048828125">
        <ele>474.399993896484375</ele>
        <time>2021-06-04T08:33:13.000Z</time>
        <extensions>
          <ns3:TrackPointExtension>
            <ns3:atemp>24.0</ns3:atemp>
          </ns3:TrackPointExtension>
        </extensions>
      </trkpt>
      <trkpt lat="43.07190167717635631561279296875" lon="13.01619281060993671417236328125">
        <ele>475</ele>
        <time>2021-06-04T08:33:15.000Z</time>
        <extensions>
          <ns3:TrackPointExtension>
            <ns3:atemp>24.0</ns3:atemp>
          </ns3:TrackPointExtension>
        </extensions>
      </trkpt>
      <trkpt lat="43.07192548178136348724365234375" lon="13.0162371508777141571044921875">
        <ele>475.600006103515625</ele>
        <time>2021-06-04T08:33:17.000Z</time>
        <extensions>
          <ns3:TrackPointExtension>
            <ns3:atemp>24.0</ns3:atemp>
          </ns3:TrackPointExtension>
        </extensions>
      </trkpt>
      <trkpt lat="43.0719790421426296234130859375" lon="13.01632692106068134307861328125">
        <ele>476.79998779296875</ele>
        <time>2021-06-04T08:33:21.000Z</time>
        <extensions>
          <ns3:TrackPointExtension>
            <ns3:atemp>24.0</ns3:atemp>
          </ns3:TrackPointExtension>
        </extensions>
      </trkpt>
      <trkpt lat="43.072013072669506072998046875" lon="13.0163620412349700927734375">
        <ele>477.399993896484375</ele>
        <time>2021-06-04T08:33:23.000Z</time>
        <extensions>
          <ns3:TrackPointExtension>
            <ns3:atemp>24.0</ns3:atemp>
          </ns3:TrackPointExtension>
        </extensions>
      </trkpt>
      <trkpt lat="43.0720434151589870452880859375" lon="13.01640202291309833526611328125">
        <ele>477.79998779296875</ele>
        <time>2021-06-04T08:33:25.000Z</time>
        <extensions>
          <ns3:TrackPointExtension>
            <ns3:atemp>24.0</ns3:atemp>
          </ns3:TrackPointExtension>
        </extensions>
      </trkpt>
      <trkpt lat="43.07208306156098842620849609375" lon="13.01646061241626739501953125">
        <ele>479</ele>
        <time>2021-06-04T08:33:28.000Z</time>
        <extensions>
          <ns3:TrackPointExtension>
            <ns3:atemp>24.0</ns3:atemp>
          </ns3:TrackPointExtension>
        </extensions>
      </trkpt>
      <trkpt lat="43.0721094645559787750244140625" lon="13.01650880835950374603271484375">
        <ele>479.79998779296875</ele>
        <time>2021-06-04T08:33:30.000Z</time>
        <extensions>
          <ns3:TrackPointExtension>
            <ns3:atemp>24.0</ns3:atemp>
          </ns3:TrackPointExtension>
        </extensions>
      </trkpt>
      <trkpt lat="43.07214123196899890899658203125" lon="13.0165506340563297271728515625">
        <ele>480.20001220703125</ele>
        <time>2021-06-04T08:33:32.000Z</time>
        <extensions>
          <ns3:TrackPointExtension>
            <ns3:atemp>24.0</ns3:atemp>
          </ns3:TrackPointExtension>
        </extensions>
      </trkpt>
      <trkpt lat="43.0721989832818508148193359375" lon="13.01663453690707683563232421875">
        <ele>481.20001220703125</ele>
        <time>2021-06-04T08:33:36.000Z</time>
        <extensions>
          <ns3:TrackPointExtension>
            <ns3:atemp>24.0</ns3:atemp>
          </ns3:TrackPointExtension>
        </extensions>
      </trkpt>
      <trkpt lat="43.0722472630441188812255859375" lon="13.01672221161425113677978515625">
        <ele>482.600006103515625</ele>
        <time>2021-06-04T08:33:40.000Z</time>
        <extensions>
          <ns3:TrackPointExtension>
            <ns3:atemp>24.0</ns3:atemp>
          </ns3:TrackPointExtension>
        </extensions>
      </trkpt>
      <trkpt lat="43.07228892110288143157958984375" lon="13.01678591407835483551025390625">
        <ele>483.20001220703125</ele>
        <time>2021-06-04T08:33:43.000Z</time>
        <extensions>
          <ns3:TrackPointExtension>
            <ns3:atemp>24.0</ns3:atemp>
          </ns3:TrackPointExtension>
        </extensions>
      </trkpt>
      <trkpt lat="43.07232161052525043487548828125" lon="13.01682564429938793182373046875">
        <ele>483.600006103515625</ele>
        <time>2021-06-04T08:33:45.000Z</time>
        <extensions>
          <ns3:TrackPointExtension>
            <ns3:atemp>24.0</ns3:atemp>
          </ns3:TrackPointExtension>
        </extensions>
      </trkpt>
      <trkpt lat="43.07238288223743438720703125" lon="13.01690158434212207794189453125">
        <ele>485</ele>
        <time>2021-06-04T08:33:49.000Z</time>
        <extensions>
          <ns3:TrackPointExtension>
            <ns3:atemp>24.0</ns3:atemp>
          </ns3:TrackPointExtension>
        </extensions>
      </trkpt>
      <trkpt lat="43.072434179484844207763671875" lon="13.01698272116482257843017578125">
        <ele>486</ele>
        <time>2021-06-04T08:33:53.000Z</time>
        <extensions>
          <ns3:TrackPointExtension>
            <ns3:atemp>24.0</ns3:atemp>
          </ns3:TrackPointExtension>
        </extensions>
      </trkpt>
      <trkpt lat="43.072462342679500579833984375" lon="13.017031252384185791015625">
        <ele>486.600006103515625</ele>
        <time>2021-06-04T08:33:55.000Z</time>
        <extensions>
          <ns3:TrackPointExtension>
            <ns3:atemp>25.0</ns3:atemp>
          </ns3:TrackPointExtension>
        </extensions>
      </trkpt>
      <trkpt lat="43.07247407734394073486328125" lon="13.01705296151340007781982421875">
        <ele>487.20001220703125</ele>
        <time>2021-06-04T08:33:56.000Z</time>
        <extensions>
          <ns3:TrackPointExtension>
            <ns3:atemp>25.0</ns3:atemp>
          </ns3:TrackPointExtension>
        </extensions>
      </trkpt>
      <trkpt lat="43.072524368762969970703125" lon="13.017137534916400909423828125">
        <ele>488.600006103515625</ele>
        <time>2021-06-04T08:34:00.000Z</time>
        <extensions>
          <ns3:TrackPointExtension>
            <ns3:atemp>25.0</ns3:atemp>
          </ns3:TrackPointExtension>
        </extensions>
      </trkpt>
      <trkpt lat="43.0725671164691448211669921875" lon="13.0171977169811725616455078125">
        <ele>489.79998779296875</ele>
        <time>2021-06-04T08:34:03.000Z</time>
        <extensions>
          <ns3:TrackPointExtension>
            <ns3:atemp>25.0</ns3:atemp>
          </ns3:TrackPointExtension>
        </extensions>
      </trkpt>
      <trkpt lat="43.07263660244643688201904296875" lon="13.0172812007367610931396484375">
        <ele>491.20001220703125</ele>
        <time>2021-06-04T08:34:07.000Z</time>
        <extensions>
          <ns3:TrackPointExtension>
            <ns3:atemp>25.0</ns3:atemp>
          </ns3:TrackPointExtension>
        </extensions>
      </trkpt>
      <trkpt lat="43.0726827867329120635986328125" lon="13.0173338390886783599853515625">
        <ele>492.20001220703125</ele>
        <time>2021-06-04T08:34:10.000Z</time>
        <extensions>
          <ns3:TrackPointExtension>
            <ns3:atemp>25.0</ns3:atemp>
          </ns3:TrackPointExtension>
        </extensions>
      </trkpt>
      <trkpt lat="43.07274120859801769256591796875" lon="13.017406761646270751953125">
        <ele>493.600006103515625</ele>
        <time>2021-06-04T08:34:14.000Z</time>
        <extensions>
          <ns3:TrackPointExtension>
            <ns3:atemp>25.0</ns3:atemp>
          </ns3:TrackPointExtension>
        </extensions>
      </trkpt>
      <trkpt lat="43.07277088053524494171142578125" lon="13.01744791679084300994873046875">
        <ele>494.20001220703125</ele>
        <time>2021-06-04T08:34:16.000Z</time>
        <extensions>
          <ns3:TrackPointExtension>
            <ns3:atemp>25.0</ns3:atemp>
          </ns3:TrackPointExtension>
        </extensions>
      </trkpt>
      <trkpt lat="43.07279451750218868255615234375" lon="13.0174897424876689910888671875">
        <ele>495</ele>
        <time>2021-06-04T08:34:18.000Z</time>
        <extensions>
          <ns3:TrackPointExtension>
            <ns3:atemp>25.0</ns3:atemp>
          </ns3:TrackPointExtension>
        </extensions>
      </trkpt>
      <trkpt lat="43.0728547833859920501708984375" lon="13.01757096312940120697021484375">
        <ele>496</ele>
        <time>2021-06-04T08:34:22.000Z</time>
        <extensions>
          <ns3:TrackPointExtension>
            <ns3:atemp>25.0</ns3:atemp>
          </ns3:TrackPointExtension>
        </extensions>
      </trkpt>
      <trkpt lat="43.07286911644041538238525390625" lon="13.01758890040218830108642578125">
        <ele>496.20001220703125</ele>
        <time>2021-06-04T08:34:23.000Z</time>
        <extensions>
          <ns3:TrackPointExtension>
            <ns3:atemp>25.0</ns3:atemp>
          </ns3:TrackPointExtension>
        </extensions>
      </trkpt>
      <trkpt lat="43.07289677672088146209716796875" lon="13.01763013936579227447509765625">
        <ele>497</ele>
        <time>2021-06-04T08:34:25.000Z</time>
        <extensions>
          <ns3:TrackPointExtension>
            <ns3:atemp>25.0</ns3:atemp>
          </ns3:TrackPointExtension>
        </extensions>
      </trkpt>
      <trkpt lat="43.07294589467346668243408203125" lon="13.01767473109066486358642578125">
        <ele>497.79998779296875</ele>
        <time>2021-06-04T08:34:28.000Z</time>
        <extensions>
          <ns3:TrackPointExtension>
            <ns3:atemp>25.0</ns3:atemp>
          </ns3:TrackPointExtension>
        </extensions>
      </trkpt>
      <trkpt lat="43.072979338467121124267578125" lon="13.0177080072462558746337890625">
        <ele>498.399993896484375</ele>
        <time>2021-06-04T08:34:30.000Z</time>
        <extensions>
          <ns3:TrackPointExtension>
            <ns3:atemp>25.0</ns3:atemp>
          </ns3:TrackPointExtension>
        </extensions>
      </trkpt>
      <trkpt lat="43.073039017617702484130859375" lon="13.0177851207554340362548828125">
        <ele>499.399993896484375</ele>
        <time>2021-06-04T08:34:34.000Z</time>
        <extensions>
          <ns3:TrackPointExtension>
            <ns3:atemp>25.0</ns3:atemp>
          </ns3:TrackPointExtension>
        </extensions>
      </trkpt>
      <trkpt lat="43.0731015466153621673583984375" lon="13.01784773357212543487548828125">
        <ele>500.399993896484375</ele>
        <time>2021-06-04T08:34:38.000Z</time>
        <extensions>
          <ns3:TrackPointExtension>
            <ns3:atemp>25.0</ns3:atemp>
          </ns3:TrackPointExtension>
        </extensions>
      </trkpt>
      <trkpt lat="43.07314672507345676422119140625" lon="13.0179031379520893096923828125">
        <ele>501.399993896484375</ele>
        <time>2021-06-04T08:34:41.000Z</time>
        <extensions>
          <ns3:TrackPointExtension>
            <ns3:atemp>25.0</ns3:atemp>
          </ns3:TrackPointExtension>
        </extensions>
      </trkpt>
      <trkpt lat="43.07316382415592670440673828125" lon="13.0179202370345592498779296875">
        <ele>501.600006103515625</ele>
        <time>2021-06-04T08:34:42.000Z</time>
        <extensions>
          <ns3:TrackPointExtension>
            <ns3:atemp>25.0</ns3:atemp>
          </ns3:TrackPointExtension>
        </extensions>
      </trkpt>
      <trkpt lat="43.0732383392751216888427734375" lon="13.0180114321410655975341796875">
        <ele>502.600006103515625</ele>
        <time>2021-06-04T08:34:47.000Z</time>
        <extensions>
          <ns3:TrackPointExtension>
            <ns3:atemp>25.0</ns3:atemp>
          </ns3:TrackPointExtension>
        </extensions>
      </trkpt>
      <trkpt lat="43.0732725374400615692138671875" lon="13.01805728115141391754150390625">
        <ele>503.399993896484375</ele>
        <time>2021-06-04T08:34:49.000Z</time>
        <extensions>
          <ns3:TrackPointExtension>
            <ns3:atemp>25.0</ns3:atemp>
          </ns3:TrackPointExtension>
        </extensions>
      </trkpt>
      <trkpt lat="43.07329156436026096343994140625" lon="13.01807370968163013458251953125">
        <ele>503.79998779296875</ele>
        <time>2021-06-04T08:34:50.000Z</time>
        <extensions>
          <ns3:TrackPointExtension>
            <ns3:atemp>25.0</ns3:atemp>
          </ns3:TrackPointExtension>
        </extensions>
      </trkpt>
      <trkpt lat="43.0733580328524112701416015625" lon="13.0181445367634296417236328125">
        <ele>505.399993896484375</ele>
        <time>2021-06-04T08:34:54.000Z</time>
        <extensions>
          <ns3:TrackPointExtension>
            <ns3:atemp>25.0</ns3:atemp>
          </ns3:TrackPointExtension>
        </extensions>
      </trkpt>
      <trkpt lat="43.073388040065765380859375" lon="13.018174208700656890869140625">
        <ele>506</ele>
        <time>2021-06-04T08:34:56.000Z</time>
        <extensions>
          <ns3:TrackPointExtension>
            <ns3:atemp>25.0</ns3:atemp>
          </ns3:TrackPointExtension>
        </extensions>
      </trkpt>
      <trkpt lat="43.0734214000403881072998046875" lon="13.01821167580783367156982421875">
        <ele>506.399993896484375</ele>
        <time>2021-06-04T08:34:58.000Z</time>
        <extensions>
          <ns3:TrackPointExtension>
            <ns3:atemp>25.0</ns3:atemp>
          </ns3:TrackPointExtension>
        </extensions>
      </trkpt>
      <trkpt lat="43.0734778940677642822265625" lon="13.01829750649631023406982421875">
        <ele>507.20001220703125</ele>
        <time>2021-06-04T08:35:02.000Z</time>
        <extensions>
          <ns3:TrackPointExtension>
            <ns3:atemp>25.0</ns3:atemp>
          </ns3:TrackPointExtension>
        </extensions>
      </trkpt>
      <trkpt lat="43.07348686270415782928466796875" lon="13.01832902245223522186279296875">
        <ele>507.399993896484375</ele>
        <time>2021-06-04T08:35:03.000Z</time>
        <extensions>
          <ns3:TrackPointExtension>
            <ns3:atemp>25.0</ns3:atemp>
          </ns3:TrackPointExtension>
        </extensions>
      </trkpt>
      <trkpt lat="43.07352156378328800201416015625" lon="13.01840328611433506011962890625">
        <ele>508.600006103515625</ele>
        <time>2021-06-04T08:35:06.000Z</time>
        <extensions>
          <ns3:TrackPointExtension>
            <ns3:atemp>25.0</ns3:atemp>
          </ns3:TrackPointExtension>
        </extensions>
      </trkpt>
      <trkpt lat="43.07354964315891265869140625" lon="13.0184487998485565185546875">
        <ele>509.20001220703125</ele>
        <time>2021-06-04T08:35:08.000Z</time>
        <extensions>
          <ns3:TrackPointExtension>
            <ns3:atemp>25.0</ns3:atemp>
          </ns3:TrackPointExtension>
        </extensions>
      </trkpt>
      <trkpt lat="43.0735769681632518768310546875" lon="13.01849640905857086181640625">
        <ele>509.79998779296875</ele>
        <time>2021-06-04T08:35:10.000Z</time>
        <extensions>
          <ns3:TrackPointExtension>
            <ns3:atemp>25.0</ns3:atemp>
          </ns3:TrackPointExtension>
        </extensions>
      </trkpt>
      <trkpt lat="43.0736188776791095733642578125" lon="13.01856212317943572998046875">
        <ele>510.79998779296875</ele>
        <time>2021-06-04T08:35:13.000Z</time>
        <extensions>
          <ns3:TrackPointExtension>
            <ns3:atemp>25.0</ns3:atemp>
          </ns3:TrackPointExtension>
        </extensions>
      </trkpt>
      <trkpt lat="43.07365198619663715362548828125" lon="13.018596656620502471923828125">
        <ele>511.399993896484375</ele>
        <time>2021-06-04T08:35:15.000Z</time>
        <extensions>
          <ns3:TrackPointExtension>
            <ns3:atemp>25.0</ns3:atemp>
          </ns3:TrackPointExtension>
        </extensions>
      </trkpt>
      <trkpt lat="43.07369255460798740386962890625" lon="13.01863362081348896026611328125">
        <ele>512</ele>
        <time>2021-06-04T08:35:17.000Z</time>
        <extensions>
          <ns3:TrackPointExtension>
            <ns3:atemp>25.0</ns3:atemp>
          </ns3:TrackPointExtension>
        </extensions>
      </trkpt>
      <trkpt lat="43.073775283992290496826171875" lon="13.0187000893056392669677734375">
        <ele>513.20001220703125</ele>
        <time>2021-06-04T08:35:21.000Z</time>
        <extensions>
          <ns3:TrackPointExtension>
            <ns3:atemp>25.0</ns3:atemp>
          </ns3:TrackPointExtension>
        </extensions>
      </trkpt>
      <trkpt lat="43.07381652295589447021484375" lon="13.01874191500246524810791015625">
        <ele>513.79998779296875</ele>
        <time>2021-06-04T08:35:23.000Z</time>
        <extensions>
          <ns3:TrackPointExtension>
            <ns3:atemp>25.0</ns3:atemp>
          </ns3:TrackPointExtension>
        </extensions>
      </trkpt>
      <trkpt lat="43.07387611828744411468505859375" lon="13.01879656501114368438720703125">
        <ele>514.20001220703125</ele>
        <time>2021-06-04T08:35:26.000Z</time>
        <extensions>
          <ns3:TrackPointExtension>
            <ns3:atemp>25.0</ns3:atemp>
          </ns3:TrackPointExtension>
        </extensions>
      </trkpt>
      <trkpt lat="43.0739719234406948089599609375" lon="13.018883652985095977783203125">
        <ele>515.4000244140625</ele>
        <time>2021-06-04T08:35:31.000Z</time>
        <extensions>
          <ns3:TrackPointExtension>
            <ns3:atemp>25.0</ns3:atemp>
          </ns3:TrackPointExtension>
        </extensions>
      </trkpt>
      <trkpt lat="43.07400964200496673583984375" lon="13.018922545015811920166015625">
        <ele>516</ele>
        <time>2021-06-04T08:35:33.000Z</time>
        <extensions>
          <ns3:TrackPointExtension>
            <ns3:atemp>25.0</ns3:atemp>
          </ns3:TrackPointExtension>
        </extensions>
      </trkpt>
      <trkpt lat="43.07405255734920501708984375" lon="13.01895481534302234649658203125">
        <ele>516.4000244140625</ele>
        <time>2021-06-04T08:35:35.000Z</time>
        <extensions>
          <ns3:TrackPointExtension>
            <ns3:atemp>25.0</ns3:atemp>
          </ns3:TrackPointExtension>
        </extensions>
      </trkpt>
      <trkpt lat="43.07415858842432498931884765625" lon="13.0190507881343364715576171875">
        <ele>517.5999755859375</ele>
        <time>2021-06-04T08:35:40.000Z</time>
        <extensions>
          <ns3:TrackPointExtension>
            <ns3:atemp>25.0</ns3:atemp>
          </ns3:TrackPointExtension>
        </extensions>
      </trkpt>
      <trkpt lat="43.07417929172515869140625" lon="13.019066043198108673095703125">
        <ele>517.79998779296875</ele>
        <time>2021-06-04T08:35:41.000Z</time>
        <extensions>
          <ns3:TrackPointExtension>
            <ns3:atemp>25.0</ns3:atemp>
          </ns3:TrackPointExtension>
        </extensions>
      </trkpt>
      <trkpt lat="43.07423955760896205902099609375" lon="13.0191154964268207550048828125">
        <ele>518.79998779296875</ele>
        <time>2021-06-04T08:35:44.000Z</time>
        <extensions>
          <ns3:TrackPointExtension>
            <ns3:atemp>25.0</ns3:atemp>
          </ns3:TrackPointExtension>
        </extensions>
      </trkpt>
      <trkpt lat="43.07430258952081203460693359375" lon="13.0191714875400066375732421875">
        <ele>519.79998779296875</ele>
        <time>2021-06-04T08:35:47.000Z</time>
        <extensions>
          <ns3:TrackPointExtension>
            <ns3:atemp>26.0</ns3:atemp>
          </ns3:TrackPointExtension>
        </extensions>
      </trkpt>
      <trkpt lat="43.074321448802947998046875" lon="13.01918732933700084686279296875">
        <ele>520</ele>
        <time>2021-06-04T08:35:48.000Z</time>
        <extensions>
          <ns3:TrackPointExtension>
            <ns3:atemp>26.0</ns3:atemp>
          </ns3:TrackPointExtension>
        </extensions>
      </trkpt>
      <trkpt lat="43.07439177297055721282958984375" lon="13.01924650557339191436767578125">
        <ele>521.4000244140625</ele>
        <time>2021-06-04T08:35:52.000Z</time>
        <extensions>
          <ns3:TrackPointExtension>
            <ns3:atemp>26.0</ns3:atemp>
          </ns3:TrackPointExtension>
        </extensions>
      </trkpt>
      <trkpt lat="43.0744134820997714996337890625" lon="13.01926494576036930084228515625">
        <ele>521.5999755859375</ele>
        <time>2021-06-04T08:35:53.000Z</time>
        <extensions>
          <ns3:TrackPointExtension>
            <ns3:atemp>26.0</ns3:atemp>
          </ns3:TrackPointExtension>
        </extensions>
      </trkpt>
      <trkpt lat="43.0744976364076137542724609375" lon="13.0193454958498477935791015625">
        <ele>522.5999755859375</ele>
        <time>2021-06-04T08:35:57.000Z</time>
        <extensions>
          <ns3:TrackPointExtension>
            <ns3:atemp>26.0</ns3:atemp>
          </ns3:TrackPointExtension>
        </extensions>
      </trkpt>
      <trkpt lat="43.07454046793282032012939453125" lon="13.0193853937089443206787109375">
        <ele>523</ele>
        <time>2021-06-04T08:35:59.000Z</time>
        <extensions>
          <ns3:TrackPointExtension>
            <ns3:atemp>26.0</ns3:atemp>
          </ns3:TrackPointExtension>
        </extensions>
      </trkpt>
      <trkpt lat="43.07458220981061458587646484375" lon="13.0194182507693767547607421875">
        <ele>523.5999755859375</ele>
        <time>2021-06-04T08:36:01.000Z</time>
        <extensions>
          <ns3:TrackPointExtension>
            <ns3:atemp>26.0</ns3:atemp>
          </ns3:TrackPointExtension>
        </extensions>
      </trkpt>
      <trkpt lat="43.07467659004032611846923828125" lon="13.01950114779174327850341796875">
        <ele>524.79998779296875</ele>
        <time>2021-06-04T08:36:05.000Z</time>
        <extensions>
          <ns3:TrackPointExtension>
            <ns3:atemp>26.0</ns3:atemp>
          </ns3:TrackPointExtension>
        </extensions>
      </trkpt>
      <trkpt lat="43.07476879097521305084228515625" lon="13.0195832066237926483154296875">
        <ele>526</ele>
        <time>2021-06-04T08:36:09.000Z</time>
        <extensions>
          <ns3:TrackPointExtension>
            <ns3:atemp>26.0</ns3:atemp>
          </ns3:TrackPointExtension>
        </extensions>
      </trkpt>
      <trkpt lat="43.07485587894916534423828125" lon="13.01965855993330478668212890625">
        <ele>527</ele>
        <time>2021-06-04T08:36:13.000Z</time>
        <extensions>
          <ns3:TrackPointExtension>
            <ns3:atemp>26.0</ns3:atemp>
          </ns3:TrackPointExtension>
        </extensions>
      </trkpt>
      <trkpt lat="43.07487876154482364654541015625" lon="13.01967532373964786529541015625">
        <ele>527.4000244140625</ele>
        <time>2021-06-04T08:36:14.000Z</time>
        <extensions>
          <ns3:TrackPointExtension>
            <ns3:atemp>26.0</ns3:atemp>
          </ns3:TrackPointExtension>
        </extensions>
      </trkpt>
      <trkpt lat="43.0749707110226154327392578125" lon="13.01976417191326618194580078125">
        <ele>528.5999755859375</ele>
        <time>2021-06-04T08:36:18.000Z</time>
        <extensions>
          <ns3:TrackPointExtension>
            <ns3:atemp>26.0</ns3:atemp>
          </ns3:TrackPointExtension>
        </extensions>
      </trkpt>
      <trkpt lat="43.074995689094066619873046875" lon="13.0197870545089244842529296875">
        <ele>529</ele>
        <time>2021-06-04T08:36:19.000Z</time>
        <extensions>
          <ns3:TrackPointExtension>
            <ns3:atemp>26.0</ns3:atemp>
          </ns3:TrackPointExtension>
        </extensions>
      </trkpt>
      <trkpt lat="43.07507607154548168182373046875" lon="13.0198433808982372283935546875">
        <ele>529.79998779296875</ele>
        <time>2021-06-04T08:36:22.000Z</time>
        <extensions>
          <ns3:TrackPointExtension>
            <ns3:atemp>26.0</ns3:atemp>
          </ns3:TrackPointExtension>
        </extensions>
      </trkpt>
      <trkpt lat="43.07514245621860027313232421875" lon="13.01986240781843662261962890625">
        <ele>530.4000244140625</ele>
        <time>2021-06-04T08:36:25.000Z</time>
        <extensions>
          <ns3:TrackPointExtension>
            <ns3:atemp>26.0</ns3:atemp>
          </ns3:TrackPointExtension>
        </extensions>
      </trkpt>
      <trkpt lat="43.07516793720424175262451171875" lon="13.01987162791192531585693359375">
        <ele>530.79998779296875</ele>
        <time>2021-06-04T08:36:26.000Z</time>
        <extensions>
          <ns3:TrackPointExtension>
            <ns3:atemp>26.0</ns3:atemp>
          </ns3:TrackPointExtension>
        </extensions>
      </trkpt>
      <trkpt lat="43.07523381896317005157470703125" lon="13.01990029402077198028564453125">
        <ele>531.79998779296875</ele>
        <time>2021-06-04T08:36:29.000Z</time>
        <extensions>
          <ns3:TrackPointExtension>
            <ns3:atemp>26.0</ns3:atemp>
          </ns3:TrackPointExtension>
        </extensions>
      </trkpt>
      <trkpt lat="43.07530171237885951995849609375" lon="13.01992091350257396697998046875">
        <ele>533</ele>
        <time>2021-06-04T08:36:32.000Z</time>
        <extensions>
          <ns3:TrackPointExtension>
            <ns3:atemp>26.0</ns3:atemp>
          </ns3:TrackPointExtension>
        </extensions>
      </trkpt>
      <trkpt lat="43.0753767304122447967529296875" lon="13.0199429579079151153564453125">
        <ele>534.4000244140625</ele>
        <time>2021-06-04T08:36:35.000Z</time>
        <extensions>
          <ns3:TrackPointExtension>
            <ns3:atemp>26.0</ns3:atemp>
          </ns3:TrackPointExtension>
        </extensions>
      </trkpt>
      <trkpt lat="43.0754012055695056915283203125" lon="13.01994907669723033905029296875">
        <ele>534.5999755859375</ele>
        <time>2021-06-04T08:36:36.000Z</time>
        <extensions>
          <ns3:TrackPointExtension>
            <ns3:atemp>26.0</ns3:atemp>
          </ns3:TrackPointExtension>
        </extensions>
      </trkpt>
      <trkpt lat="43.0754654109477996826171875" lon="13.01995242945849895477294921875">
        <ele>535.5999755859375</ele>
        <time>2021-06-04T08:36:39.000Z</time>
        <extensions>
          <ns3:TrackPointExtension>
            <ns3:atemp>26.0</ns3:atemp>
          </ns3:TrackPointExtension>
        </extensions>
      </trkpt>
      <trkpt lat="43.07553313672542572021484375" lon="13.01996148191392421722412109375">
        <ele>536.4000244140625</ele>
        <time>2021-06-04T08:36:42.000Z</time>
        <extensions>
          <ns3:TrackPointExtension>
            <ns3:atemp>26.0</ns3:atemp>
          </ns3:TrackPointExtension>
        </extensions>
      </trkpt>
      <trkpt lat="43.0755587853491306304931640625" lon="13.01996533758938312530517578125">
        <ele>536.5999755859375</ele>
        <time>2021-06-04T08:36:43.000Z</time>
        <extensions>
          <ns3:TrackPointExtension>
            <ns3:atemp>26.0</ns3:atemp>
          </ns3:TrackPointExtension>
        </extensions>
      </trkpt>
      <trkpt lat="43.0756603740155696868896484375" lon="13.01997296512126922607421875">
        <ele>537.79998779296875</ele>
        <time>2021-06-04T08:36:47.000Z</time>
        <extensions>
          <ns3:TrackPointExtension>
            <ns3:atemp>26.0</ns3:atemp>
          </ns3:TrackPointExtension>
        </extensions>
      </trkpt>
      <trkpt lat="43.07572801597416400909423828125" lon="13.0199885554611682891845703125">
        <ele>539</ele>
        <time>2021-06-04T08:36:50.000Z</time>
        <extensions>
          <ns3:TrackPointExtension>
            <ns3:atemp>26.0</ns3:atemp>
          </ns3:TrackPointExtension>
        </extensions>
      </trkpt>
      <trkpt lat="43.0758038721978664398193359375" lon="13.019997775554656982421875">
        <ele>539.79998779296875</ele>
        <time>2021-06-04T08:36:53.000Z</time>
        <extensions>
          <ns3:TrackPointExtension>
            <ns3:atemp>26.0</ns3:atemp>
          </ns3:TrackPointExtension>
        </extensions>
      </trkpt>
      <trkpt lat="43.07583153247833251953125" lon="13.0200033076107501983642578125">
        <ele>540</ele>
        <time>2021-06-04T08:36:54.000Z</time>
        <extensions>
          <ns3:TrackPointExtension>
            <ns3:atemp>26.0</ns3:atemp>
          </ns3:TrackPointExtension>
        </extensions>
      </trkpt>
      <trkpt lat="43.07593722827732563018798828125" lon="13.019981347024440765380859375">
        <ele>541.20001220703125</ele>
        <time>2021-06-04T08:36:58.000Z</time>
        <extensions>
          <ns3:TrackPointExtension>
            <ns3:atemp>26.0</ns3:atemp>
          </ns3:TrackPointExtension>
        </extensions>
      </trkpt>
      <trkpt lat="43.0759614519774913787841796875" lon="13.01997564733028411865234375">
        <ele>541.4000244140625</ele>
        <time>2021-06-04T08:36:59.000Z</time>
        <extensions>
          <ns3:TrackPointExtension>
            <ns3:atemp>26.0</ns3:atemp>
          </ns3:TrackPointExtension>
        </extensions>
      </trkpt>
      <trkpt lat="43.0760452710092067718505859375" lon="13.0199798382818698883056640625">
        <ele>542.4000244140625</ele>
        <time>2021-06-04T08:37:02.000Z</time>
        <extensions>
          <ns3:TrackPointExtension>
            <ns3:atemp>26.0</ns3:atemp>
          </ns3:TrackPointExtension>
        </extensions>
      </trkpt>
      <trkpt lat="43.07613286189734935760498046875" lon="13.01995913498103618621826171875">
        <ele>543.20001220703125</ele>
        <time>2021-06-04T08:37:05.000Z</time>
        <extensions>
          <ns3:TrackPointExtension>
            <ns3:atemp>26.0</ns3:atemp>
          </ns3:TrackPointExtension>
        </extensions>
      </trkpt>
      <trkpt lat="43.0761958099901676177978515625" lon="13.01994287408888339996337890625">
        <ele>543.5999755859375</ele>
        <time>2021-06-04T08:37:07.000Z</time>
        <extensions>
          <ns3:TrackPointExtension>
            <ns3:atemp>26.0</ns3:atemp>
          </ns3:TrackPointExtension>
        </extensions>
      </trkpt>
      <trkpt lat="43.07638834230601787567138671875" lon="13.01995796151459217071533203125">
        <ele>544.5999755859375</ele>
        <time>2021-06-04T08:37:13.000Z</time>
        <extensions>
          <ns3:TrackPointExtension>
            <ns3:atemp>26.0</ns3:atemp>
          </ns3:TrackPointExtension>
        </extensions>
      </trkpt>
      <trkpt lat="43.076445758342742919921875" lon="13.0199883878231048583984375">
        <ele>544.5999755859375</ele>
        <time>2021-06-04T08:37:15.000Z</time>
        <extensions>
          <ns3:TrackPointExtension>
            <ns3:atemp>26.0</ns3:atemp>
          </ns3:TrackPointExtension>
        </extensions>
      </trkpt>
      <trkpt lat="43.07656017132103443145751953125" lon="13.020055778324604034423828125">
        <ele>545.79998779296875</ele>
        <time>2021-06-04T08:37:19.000Z</time>
        <extensions>
          <ns3:TrackPointExtension>
            <ns3:atemp>26.0</ns3:atemp>
          </ns3:TrackPointExtension>
        </extensions>
      </trkpt>
      <trkpt lat="43.0766765959560871124267578125" lon="13.02015946246683597564697265625">
        <ele>547</ele>
        <time>2021-06-04T08:37:24.000Z</time>
        <extensions>
          <ns3:TrackPointExtension>
            <ns3:atemp>26.0</ns3:atemp>
          </ns3:TrackPointExtension>
        </extensions>
      </trkpt>
      <trkpt lat="43.07671842165291309356689453125" lon="13.02021075971424579620361328125">
        <ele>547.4000244140625</ele>
        <time>2021-06-04T08:37:26.000Z</time>
        <extensions>
          <ns3:TrackPointExtension>
            <ns3:atemp>26.0</ns3:atemp>
          </ns3:TrackPointExtension>
        </extensions>
      </trkpt>
      <trkpt lat="43.07678681798279285430908203125" lon="13.02028804086148738861083984375">
        <ele>548.20001220703125</ele>
        <time>2021-06-04T08:37:29.000Z</time>
        <extensions>
          <ns3:TrackPointExtension>
            <ns3:atemp>26.0</ns3:atemp>
          </ns3:TrackPointExtension>
        </extensions>
      </trkpt>
      <trkpt lat="43.07688421569764614105224609375" lon="13.0203907191753387451171875">
        <ele>549.4000244140625</ele>
        <time>2021-06-04T08:37:33.000Z</time>
        <extensions>
          <ns3:TrackPointExtension>
            <ns3:atemp>26.0</ns3:atemp>
          </ns3:TrackPointExtension>
        </extensions>
      </trkpt>
      <trkpt lat="43.07690634392201900482177734375" lon="13.0204167030751705169677734375">
        <ele>549.5999755859375</ele>
        <time>2021-06-04T08:37:34.000Z</time>
        <extensions>
          <ns3:TrackPointExtension>
            <ns3:atemp>26.0</ns3:atemp>
          </ns3:TrackPointExtension>
        </extensions>
      </trkpt>
      <trkpt lat="43.07700432837009429931640625" lon="13.02051653154194355010986328125">
        <ele>550.4000244140625</ele>
        <time>2021-06-04T08:37:38.000Z</time>
        <extensions>
          <ns3:TrackPointExtension>
            <ns3:atemp>26.0</ns3:atemp>
          </ns3:TrackPointExtension>
        </extensions>
      </trkpt>
      <trkpt lat="43.0770816095173358917236328125" lon="13.020603619515895843505859375">
        <ele>551.4000244140625</ele>
        <time>2021-06-04T08:37:41.000Z</time>
        <extensions>
          <ns3:TrackPointExtension>
            <ns3:atemp>26.0</ns3:atemp>
          </ns3:TrackPointExtension>
        </extensions>
      </trkpt>
      <trkpt lat="43.07718403637409210205078125" lon="13.02071149460971355438232421875">
        <ele>552.5999755859375</ele>
        <time>2021-06-04T08:37:45.000Z</time>
        <extensions>
          <ns3:TrackPointExtension>
            <ns3:atemp>26.0</ns3:atemp>
          </ns3:TrackPointExtension>
        </extensions>
      </trkpt>
      <trkpt lat="43.07726022787392139434814453125" lon="13.02078709937632083892822265625">
        <ele>553.4000244140625</ele>
        <time>2021-06-04T08:37:48.000Z</time>
        <extensions>
          <ns3:TrackPointExtension>
            <ns3:atemp>26.0</ns3:atemp>
          </ns3:TrackPointExtension>
        </extensions>
      </trkpt>
      <trkpt lat="43.0773126147687435150146484375" lon="13.02082993090152740478515625">
        <ele>553.5999755859375</ele>
        <time>2021-06-04T08:37:50.000Z</time>
        <extensions>
          <ns3:TrackPointExtension>
            <ns3:atemp>26.0</ns3:atemp>
          </ns3:TrackPointExtension>
        </extensions>
      </trkpt>
      <trkpt lat="43.0774209089577198028564453125" lon="13.02096898667514324188232421875">
        <ele>554.4000244140625</ele>
        <time>2021-06-04T08:37:55.000Z</time>
        <extensions>
          <ns3:TrackPointExtension>
            <ns3:atemp>26.0</ns3:atemp>
          </ns3:TrackPointExtension>
        </extensions>
      </trkpt>
      <trkpt lat="43.077472709119319915771484375" lon="13.021070323884487152099609375">
        <ele>554.5999755859375</ele>
        <time>2021-06-04T08:37:58.000Z</time>
        <extensions>
          <ns3:TrackPointExtension>
            <ns3:atemp>26.0</ns3:atemp>
          </ns3:TrackPointExtension>
        </extensions>
      </trkpt>
      <trkpt lat="43.07752073742449283599853515625" lon="13.0211667157709598541259765625">
        <ele>555</ele>
        <time>2021-06-04T08:38:01.000Z</time>
        <extensions>
          <ns3:TrackPointExtension>
            <ns3:atemp>26.0</ns3:atemp>
          </ns3:TrackPointExtension>
        </extensions>
      </trkpt>
      <trkpt lat="43.0775982700288295745849609375" lon="13.02132789976894855499267578125">
        <ele>555.79998779296875</ele>
        <time>2021-06-04T08:38:06.000Z</time>
        <extensions>
          <ns3:TrackPointExtension>
            <ns3:atemp>26.0</ns3:atemp>
          </ns3:TrackPointExtension>
        </extensions>
      </trkpt>
      <trkpt lat="43.07765048928558826446533203125" lon="13.02142538130283355712890625">
        <ele>556.4000244140625</ele>
        <time>2021-06-04T08:38:09.000Z</time>
        <extensions>
          <ns3:TrackPointExtension>
            <ns3:atemp>26.0</ns3:atemp>
          </ns3:TrackPointExtension>
        </extensions>
      </trkpt>
      <trkpt lat="43.07769558392465114593505859375" lon="13.021516911685466766357421875">
        <ele>556.79998779296875</ele>
        <time>2021-06-04T08:38:12.000Z</time>
        <extensions>
          <ns3:TrackPointExtension>
            <ns3:atemp>26.0</ns3:atemp>
          </ns3:TrackPointExtension>
        </extensions>
      </trkpt>
      <trkpt lat="43.07772357948124408721923828125" lon="13.02157717756927013397216796875">
        <ele>557.4000244140625</ele>
        <time>2021-06-04T08:38:14.000Z</time>
        <extensions>
          <ns3:TrackPointExtension>
            <ns3:atemp>26.0</ns3:atemp>
          </ns3:TrackPointExtension>
        </extensions>
      </trkpt>
      <trkpt lat="43.07777135632932186126708984375" lon="13.0216706357896327972412109375">
        <ele>558</ele>
        <time>2021-06-04T08:38:17.000Z</time>
        <extensions>
          <ns3:TrackPointExtension>
            <ns3:atemp>26.0</ns3:atemp>
          </ns3:TrackPointExtension>
        </extensions>
      </trkpt>
      <trkpt lat="43.0778145231306552886962890625" lon="13.0217296443879604339599609375">
        <ele>558.4000244140625</ele>
        <time>2021-06-04T08:38:19.000Z</time>
        <extensions>
          <ns3:TrackPointExtension>
            <ns3:atemp>26.0</ns3:atemp>
          </ns3:TrackPointExtension>
        </extensions>
      </trkpt>
      <trkpt lat="43.0778728611767292022705078125" lon="13.021843470633029937744140625">
        <ele>559.20001220703125</ele>
        <time>2021-06-04T08:38:23.000Z</time>
        <extensions>
          <ns3:TrackPointExtension>
            <ns3:atemp>26.0</ns3:atemp>
          </ns3:TrackPointExtension>
        </extensions>
      </trkpt>
      <trkpt lat="43.0779249966144561767578125" lon="13.0219368450343608856201171875">
        <ele>560</ele>
        <time>2021-06-04T08:38:26.000Z</time>
        <extensions>
          <ns3:TrackPointExtension>
            <ns3:atemp>26.0</ns3:atemp>
          </ns3:TrackPointExtension>
        </extensions>
      </trkpt>
      <trkpt lat="43.0779437720775604248046875" lon="13.021967522799968719482421875">
        <ele>560.4000244140625</ele>
        <time>2021-06-04T08:38:27.000Z</time>
        <extensions>
          <ns3:TrackPointExtension>
            <ns3:atemp>26.0</ns3:atemp>
          </ns3:TrackPointExtension>
        </extensions>
      </trkpt>
      <trkpt lat="43.0780344642698764801025390625" lon="13.02210054360330104827880859375">
        <ele>561.4000244140625</ele>
        <time>2021-06-04T08:38:31.000Z</time>
        <extensions>
          <ns3:TrackPointExtension>
            <ns3:atemp>26.0</ns3:atemp>
          </ns3:TrackPointExtension>
        </extensions>
      </trkpt>
      <trkpt lat="43.078059442341327667236328125" lon="13.02213708870112895965576171875">
        <ele>561.79998779296875</ele>
        <time>2021-06-04T08:38:32.000Z</time>
        <extensions>
          <ns3:TrackPointExtension>
            <ns3:atemp>26.0</ns3:atemp>
          </ns3:TrackPointExtension>
        </extensions>
      </trkpt>
      <trkpt lat="43.078145943582057952880859375" lon="13.0222754739224910736083984375">
        <ele>562.5999755859375</ele>
        <time>2021-06-04T08:38:36.000Z</time>
        <extensions>
          <ns3:TrackPointExtension>
            <ns3:atemp>26.0</ns3:atemp>
          </ns3:TrackPointExtension>
        </extensions>
      </trkpt>
      <trkpt lat="43.07821375317871570587158203125" lon="13.02237580530345439910888671875">
        <ele>563</ele>
        <time>2021-06-04T08:38:39.000Z</time>
        <extensions>
          <ns3:TrackPointExtension>
            <ns3:atemp>26.0</ns3:atemp>
          </ns3:TrackPointExtension>
        </extensions>
      </trkpt>
      <trkpt lat="43.078360520303249359130859375" lon="13.0225641466677188873291015625">
        <ele>563.4000244140625</ele>
        <time>2021-06-04T08:38:45.000Z</time>
        <extensions>
          <ns3:TrackPointExtension>
            <ns3:atemp>26.0</ns3:atemp>
          </ns3:TrackPointExtension>
        </extensions>
      </trkpt>
      <trkpt lat="43.0785821378231048583984375" lon="13.0228766240179538726806640625">
        <ele>563.5999755859375</ele>
        <time>2021-06-04T08:38:54.000Z</time>
        <extensions>
          <ns3:TrackPointExtension>
            <ns3:atemp>26.0</ns3:atemp>
          </ns3:TrackPointExtension>
        </extensions>
      </trkpt>
      <trkpt lat="43.07862899266183376312255859375" lon="13.02294175140559673309326171875">
        <ele>563.79998779296875</ele>
        <time>2021-06-04T08:38:56.000Z</time>
        <extensions>
          <ns3:TrackPointExtension>
            <ns3:atemp>26.0</ns3:atemp>
          </ns3:TrackPointExtension>
        </extensions>
      </trkpt>
      <trkpt lat="43.0787591636180877685546875" lon="13.0230992473661899566650390625">
        <ele>564.20001220703125</ele>
        <time>2021-06-04T08:39:01.000Z</time>
        <extensions>
          <ns3:TrackPointExtension>
            <ns3:atemp>26.0</ns3:atemp>
          </ns3:TrackPointExtension>
        </extensions>
      </trkpt>
      <trkpt lat="43.0788357742130756378173828125" lon="13.0231840722262859344482421875">
        <ele>565</ele>
        <time>2021-06-04T08:39:04.000Z</time>
        <extensions>
          <ns3:TrackPointExtension>
            <ns3:atemp>26.0</ns3:atemp>
          </ns3:TrackPointExtension>
        </extensions>
      </trkpt>
      <trkpt lat="43.0789712257683277130126953125" lon="13.02331943996250629425048828125">
        <ele>566</ele>
        <time>2021-06-04T08:39:09.000Z</time>
        <extensions>
          <ns3:TrackPointExtension>
            <ns3:atemp>26.0</ns3:atemp>
          </ns3:TrackPointExtension>
        </extensions>
      </trkpt>
      <trkpt lat="43.07899930514395236968994140625" lon="13.023338131606578826904296875">
        <ele>566.20001220703125</ele>
        <time>2021-06-04T08:39:10.000Z</time>
        <extensions>
          <ns3:TrackPointExtension>
            <ns3:atemp>26.0</ns3:atemp>
          </ns3:TrackPointExtension>
        </extensions>
      </trkpt>
      <trkpt lat="43.0791432224214076995849609375" lon="13.02341566421091556549072265625">
        <ele>566.79998779296875</ele>
        <time>2021-06-04T08:39:15.000Z</time>
        <extensions>
          <ns3:TrackPointExtension>
            <ns3:atemp>26.0</ns3:atemp>
          </ns3:TrackPointExtension>
        </extensions>
      </trkpt>
      <trkpt lat="43.0791747383773326873779296875" lon="13.0234358645975589752197265625">
        <ele>567</ele>
        <time>2021-06-04T08:39:16.000Z</time>
        <extensions>
          <ns3:TrackPointExtension>
            <ns3:atemp>26.0</ns3:atemp>
          </ns3:TrackPointExtension>
        </extensions>
      </trkpt>
      <trkpt lat="43.0792940966784954071044921875" lon="13.02352630533277988433837890625">
        <ele>567.79998779296875</ele>
        <time>2021-06-04T08:39:20.000Z</time>
        <extensions>
          <ns3:TrackPointExtension>
            <ns3:atemp>26.0</ns3:atemp>
          </ns3:TrackPointExtension>
        </extensions>
      </trkpt>
      <trkpt lat="43.0793896503746509552001953125" lon="13.0236102081835269927978515625">
        <ele>568</ele>
        <time>2021-06-04T08:39:23.000Z</time>
        <extensions>
          <ns3:TrackPointExtension>
            <ns3:atemp>26.0</ns3:atemp>
          </ns3:TrackPointExtension>
        </extensions>
      </trkpt>
      <trkpt lat="43.07942527346312999725341796875" lon="13.02364935167133808135986328125">
        <ele>568.20001220703125</ele>
        <time>2021-06-04T08:39:25.000Z</time>
        <extensions>
          <ns3:TrackPointExtension>
            <ns3:atemp>26.0</ns3:atemp>
          </ns3:TrackPointExtension>
        </extensions>
      </trkpt>
      <trkpt lat="43.07941161096096038818359375" lon="13.0236417241394519805908203125">
        <ele>568.5999755859375</ele>
        <time>2021-06-04T08:39:30.000Z</time>
        <extensions>
          <ns3:TrackPointExtension>
            <ns3:atemp>26.0</ns3:atemp>
          </ns3:TrackPointExtension>
        </extensions>
      </trkpt>
      <trkpt lat="43.079411946237087249755859375" lon="13.02363711409270763397216796875">
        <ele>569.20001220703125</ele>
        <time>2021-06-04T08:39:33.000Z</time>
        <extensions>
          <ns3:TrackPointExtension>
            <ns3:atemp>26.0</ns3:atemp>
          </ns3:TrackPointExtension>
        </extensions>
      </trkpt>
      <trkpt lat="43.079421333968639373779296875" lon="13.0236388742923736572265625">
        <ele>569.79998779296875</ele>
        <time>2021-06-04T08:39:38.000Z</time>
        <extensions>
          <ns3:TrackPointExtension>
            <ns3:atemp>26.0</ns3:atemp>
          </ns3:TrackPointExtension>
        </extensions>
      </trkpt>
      <trkpt lat="43.07942208833992481231689453125" lon="13.0236377008259296417236328125">
        <ele>569.79998779296875</ele>
        <time>2021-06-04T08:40:10.000Z</time>
        <extensions>
          <ns3:TrackPointExtension>
            <ns3:atemp>26.0</ns3:atemp>
          </ns3:TrackPointExtension>
        </extensions>
      </trkpt>
      <trkpt lat="43.07942510582506656646728515625" lon="13.02363476715981960296630859375">
        <ele>569.79998779296875</ele>
        <time>2021-06-04T08:40:51.000Z</time>
        <extensions>
          <ns3:TrackPointExtension>
            <ns3:atemp>26.0</ns3:atemp>
          </ns3:TrackPointExtension>
        </extensions>
      </trkpt>
      <trkpt lat="43.07942770421504974365234375" lon="13.023633845150470733642578125">
        <ele>569.5999755859375</ele>
        <time>2021-06-04T08:41:14.000Z</time>
        <extensions>
          <ns3:TrackPointExtension>
            <ns3:atemp>26.0</ns3:atemp>
          </ns3:TrackPointExtension>
        </extensions>
      </trkpt>
      <trkpt lat="43.0794456414878368377685546875" lon="13.023641221225261688232421875">
        <ele>569.79998779296875</ele>
        <time>2021-06-04T08:41:34.000Z</time>
        <extensions>
          <ns3:TrackPointExtension>
            <ns3:atemp>26.0</ns3:atemp>
          </ns3:TrackPointExtension>
        </extensions>
      </trkpt>
      <trkpt lat="43.0794567056000232696533203125" lon="13.02365236915647983551025390625">
        <ele>569.79998779296875</ele>
        <time>2021-06-04T08:41:35.000Z</time>
        <extensions>
          <ns3:TrackPointExtension>
            <ns3:atemp>26.0</ns3:atemp>
          </ns3:TrackPointExtension>
        </extensions>
      </trkpt>
      <trkpt lat="43.079540021717548370361328125" lon="13.023749850690364837646484375">
        <ele>569.79998779296875</ele>
        <time>2021-06-04T08:41:39.000Z</time>
        <extensions>
          <ns3:TrackPointExtension>
            <ns3:atemp>26.0</ns3:atemp>
          </ns3:TrackPointExtension>
        </extensions>
      </trkpt>
      <trkpt lat="43.0796877108514308929443359375" lon="13.02392913959920406341552734375">
        <ele>569.5999755859375</ele>
        <time>2021-06-04T08:41:44.000Z</time>
        <extensions>
          <ns3:TrackPointExtension>
            <ns3:atemp>26.0</ns3:atemp>
          </ns3:TrackPointExtension>
        </extensions>
      </trkpt>
      <trkpt lat="43.0798788182437419891357421875" lon="13.02419618703424930572509765625">
        <ele>568.79998779296875</ele>
        <time>2021-06-04T08:41:50.000Z</time>
        <extensions>
          <ns3:TrackPointExtension>
            <ns3:atemp>26.0</ns3:atemp>
          </ns3:TrackPointExtension>
        </extensions>
      </trkpt>
      <trkpt lat="43.07995341718196868896484375" lon="13.0242878012359142303466796875">
        <ele>568.5999755859375</ele>
        <time>2021-06-04T08:41:52.000Z</time>
        <extensions>
          <ns3:TrackPointExtension>
            <ns3:atemp>26.0</ns3:atemp>
          </ns3:TrackPointExtension>
        </extensions>
      </trkpt>
      <trkpt lat="43.08015718124806880950927734375" lon="13.0245362408459186553955078125">
        <ele>568</ele>
        <time>2021-06-04T08:41:58.000Z</time>
        <extensions>
          <ns3:TrackPointExtension>
            <ns3:atemp>26.0</ns3:atemp>
          </ns3:TrackPointExtension>
        </extensions>
      </trkpt>
      <trkpt lat="43.0802851729094982147216796875" lon="13.024757690727710723876953125">
        <ele>567.79998779296875</ele>
        <time>2021-06-04T08:42:03.000Z</time>
        <extensions>
          <ns3:TrackPointExtension>
            <ns3:atemp>26.0</ns3:atemp>
          </ns3:TrackPointExtension>
        </extensions>
      </trkpt>
      <trkpt lat="43.0804730951786041259765625" lon="13.0250542424619197845458984375">
        <ele>567.5999755859375</ele>
        <time>2021-06-04T08:42:10.000Z</time>
        <extensions>
          <ns3:TrackPointExtension>
            <ns3:atemp>26.0</ns3:atemp>
          </ns3:TrackPointExtension>
        </extensions>
      </trkpt>
      <trkpt lat="43.080701418220996856689453125" lon="13.0253197811543941497802734375">
        <ele>567.4000244140625</ele>
        <time>2021-06-04T08:42:16.000Z</time>
        <extensions>
          <ns3:TrackPointExtension>
            <ns3:atemp>26.0</ns3:atemp>
          </ns3:TrackPointExtension>
        </extensions>
      </trkpt>
      <trkpt lat="43.080793283879756927490234375" lon="13.02536848001182079315185546875">
        <ele>567.20001220703125</ele>
        <time>2021-06-04T08:42:18.000Z</time>
        <extensions>
          <ns3:TrackPointExtension>
            <ns3:atemp>26.0</ns3:atemp>
          </ns3:TrackPointExtension>
        </extensions>
      </trkpt>
      <trkpt lat="43.08088288642466068267822265625" lon="13.02541944198310375213623046875">
        <ele>567</ele>
        <time>2021-06-04T08:42:20.000Z</time>
        <extensions>
          <ns3:TrackPointExtension>
            <ns3:atemp>26.0</ns3:atemp>
          </ns3:TrackPointExtension>
        </extensions>
      </trkpt>
      <trkpt lat="43.08094851672649383544921875" lon="13.02554257214069366455078125">
        <ele>566.5999755859375</ele>
        <time>2021-06-04T08:42:23.000Z</time>
        <extensions>
          <ns3:TrackPointExtension>
            <ns3:atemp>26.0</ns3:atemp>
          </ns3:TrackPointExtension>
        </extensions>
      </trkpt>
      <trkpt lat="43.08090350590646266937255859375" lon="13.02574046887457370758056640625">
        <ele>566.4000244140625</ele>
        <time>2021-06-04T08:42:27.000Z</time>
        <extensions>
          <ns3:TrackPointExtension>
            <ns3:atemp>26.0</ns3:atemp>
          </ns3:TrackPointExtension>
        </extensions>
      </trkpt>
      <trkpt lat="43.0808367021381855010986328125" lon="13.02608312107622623443603515625">
        <ele>566.20001220703125</ele>
        <time>2021-06-04T08:42:32.000Z</time>
        <extensions>
          <ns3:TrackPointExtension>
            <ns3:atemp>26.0</ns3:atemp>
          </ns3:TrackPointExtension>
        </extensions>
      </trkpt>
      <trkpt lat="43.0808259733021259307861328125" lon="13.026243634521961212158203125">
        <ele>566.4000244140625</ele>
        <time>2021-06-04T08:42:34.000Z</time>
        <extensions>
          <ns3:TrackPointExtension>
            <ns3:atemp>26.0</ns3:atemp>
          </ns3:TrackPointExtension>
        </extensions>
      </trkpt>
      <trkpt lat="43.08080342598259449005126953125" lon="13.0264144577085971832275390625">
        <ele>565.5999755859375</ele>
        <time>2021-06-04T08:42:36.000Z</time>
        <extensions>
          <ns3:TrackPointExtension>
            <ns3:atemp>26.0</ns3:atemp>
          </ns3:TrackPointExtension>
        </extensions>
      </trkpt>
      <trkpt lat="43.0807894282042980194091796875" lon="13.02649903111159801483154296875">
        <ele>565.4000244140625</ele>
        <time>2021-06-04T08:42:37.000Z</time>
        <extensions>
          <ns3:TrackPointExtension>
            <ns3:atemp>26.0</ns3:atemp>
          </ns3:TrackPointExtension>
        </extensions>
      </trkpt>
      <trkpt lat="43.0807439982891082763671875" lon="13.0266823433339595794677734375">
        <ele>564</ele>
        <time>2021-06-04T08:42:39.000Z</time>
        <extensions>
          <ns3:TrackPointExtension>
            <ns3:atemp>26.0</ns3:atemp>
          </ns3:TrackPointExtension>
        </extensions>
      </trkpt>
      <trkpt lat="43.08066462166607379913330078125" lon="13.0269730277359485626220703125">
        <ele>562.79998779296875</ele>
        <time>2021-06-04T08:42:42.000Z</time>
        <extensions>
          <ns3:TrackPointExtension>
            <ns3:atemp>26.0</ns3:atemp>
          </ns3:TrackPointExtension>
        </extensions>
      </trkpt>
      <trkpt lat="43.080614246428012847900390625" lon="13.02716321311891078948974609375">
        <ele>562</ele>
        <time>2021-06-04T08:42:44.000Z</time>
        <extensions>
          <ns3:TrackPointExtension>
            <ns3:atemp>26.0</ns3:atemp>
          </ns3:TrackPointExtension>
        </extensions>
      </trkpt>
      <trkpt lat="43.0805916152894496917724609375" lon="13.02725658752024173736572265625">
        <ele>561.5999755859375</ele>
        <time>2021-06-04T08:42:45.000Z</time>
        <extensions>
          <ns3:TrackPointExtension>
            <ns3:atemp>26.0</ns3:atemp>
          </ns3:TrackPointExtension>
        </extensions>
      </trkpt>
      <trkpt lat="43.0805577524006366729736328125" lon="13.02743621170520782470703125">
        <ele>560.79998779296875</ele>
        <time>2021-06-04T08:42:47.000Z</time>
        <extensions>
          <ns3:TrackPointExtension>
            <ns3:atemp>26.0</ns3:atemp>
          </ns3:TrackPointExtension>
        </extensions>
      </trkpt>
      <trkpt lat="43.08054911904036998748779296875" lon="13.02752497605979442596435546875">
        <ele>560.4000244140625</ele>
        <time>2021-06-04T08:42:48.000Z</time>
        <extensions>
          <ns3:TrackPointExtension>
            <ns3:atemp>26.0</ns3:atemp>
          </ns3:TrackPointExtension>
        </extensions>
      </trkpt>
      <trkpt lat="43.08054207824170589447021484375" lon="13.0276943743228912353515625">
        <ele>560</ele>
        <time>2021-06-04T08:42:50.000Z</time>
        <extensions>
          <ns3:TrackPointExtension>
            <ns3:atemp>26.0</ns3:atemp>
          </ns3:TrackPointExtension>
        </extensions>
      </trkpt>
      <trkpt lat="43.08053570799529552459716796875" lon="13.02809293381869792938232421875">
        <ele>559.4000244140625</ele>
        <time>2021-06-04T08:42:55.000Z</time>
        <extensions>
          <ns3:TrackPointExtension>
            <ns3:atemp>26.0</ns3:atemp>
          </ns3:TrackPointExtension>
        </extensions>
      </trkpt>
      <trkpt lat="43.080527074635028839111328125" lon="13.02824917249381542205810546875">
        <ele>559.20001220703125</ele>
        <time>2021-06-04T08:42:57.000Z</time>
        <extensions>
          <ns3:TrackPointExtension>
            <ns3:atemp>26.0</ns3:atemp>
          </ns3:TrackPointExtension>
        </extensions>
      </trkpt>
      <trkpt lat="43.08051357977092266082763671875" lon="13.0284051597118377685546875">
        <ele>559.20001220703125</ele>
        <time>2021-06-04T08:42:59.000Z</time>
        <extensions>
          <ns3:TrackPointExtension>
            <ns3:atemp>26.0</ns3:atemp>
          </ns3:TrackPointExtension>
        </extensions>
      </trkpt>
      <trkpt lat="43.08049882762134075164794921875" lon="13.02856676280498504638671875">
        <ele>559</ele>
        <time>2021-06-04T08:43:01.000Z</time>
        <extensions>
          <ns3:TrackPointExtension>
            <ns3:atemp>26.0</ns3:atemp>
          </ns3:TrackPointExtension>
        </extensions>
      </trkpt>
      <trkpt lat="43.0804739333689212799072265625" lon="13.0291503109037876129150390625">
        <ele>559</ele>
        <time>2021-06-04T08:43:08.000Z</time>
        <extensions>
          <ns3:TrackPointExtension>
            <ns3:atemp>26.0</ns3:atemp>
          </ns3:TrackPointExtension>
        </extensions>
      </trkpt>
      <trkpt lat="43.08044568635523319244384765625" lon="13.02958155982196331024169921875">
        <ele>558.5999755859375</ele>
        <time>2021-06-04T08:43:13.000Z</time>
        <extensions>
          <ns3:TrackPointExtension>
            <ns3:atemp>26.0</ns3:atemp>
          </ns3:TrackPointExtension>
        </extensions>
      </trkpt>
      <trkpt lat="43.0804497934877872467041015625" lon="13.0296582542359828948974609375">
        <ele>558.4000244140625</ele>
        <time>2021-06-04T08:43:14.000Z</time>
        <extensions>
          <ns3:TrackPointExtension>
            <ns3:atemp>26.0</ns3:atemp>
          </ns3:TrackPointExtension>
        </extensions>
      </trkpt>
      <trkpt lat="43.0804665572941303253173828125" lon="13.029887415468692779541015625">
        <ele>558.4000244140625</ele>
        <time>2021-06-04T08:43:17.000Z</time>
        <extensions>
          <ns3:TrackPointExtension>
            <ns3:atemp>26.0</ns3:atemp>
          </ns3:TrackPointExtension>
        </extensions>
      </trkpt>
      <trkpt lat="43.08046437799930572509765625" lon="13.029961176216602325439453125">
        <ele>558.4000244140625</ele>
        <time>2021-06-04T08:43:18.000Z</time>
        <extensions>
          <ns3:TrackPointExtension>
            <ns3:atemp>26.0</ns3:atemp>
          </ns3:TrackPointExtension>
        </extensions>
      </trkpt>
      <trkpt lat="43.08042724616825580596923828125" lon="13.03021858446300029754638671875">
        <ele>558.4000244140625</ele>
        <time>2021-06-04T08:43:22.000Z</time>
        <extensions>
          <ns3:TrackPointExtension>
            <ns3:atemp>26.0</ns3:atemp>
          </ns3:TrackPointExtension>
        </extensions>
      </trkpt>
      <trkpt lat="43.0804008431732654571533203125" lon="13.03054665215313434600830078125">
        <ele>559.5999755859375</ele>
        <time>2021-06-04T08:43:28.000Z</time>
        <extensions>
          <ns3:TrackPointExtension>
            <ns3:atemp>26.0</ns3:atemp>
          </ns3:TrackPointExtension>
        </extensions>
      </trkpt>
      <trkpt lat="43.080393634736537933349609375" lon="13.03060297854244709014892578125">
        <ele>560.20001220703125</ele>
        <time>2021-06-04T08:43:29.000Z</time>
        <extensions>
          <ns3:TrackPointExtension>
            <ns3:atemp>26.0</ns3:atemp>
          </ns3:TrackPointExtension>
        </extensions>
      </trkpt>
      <trkpt lat="43.0803817324340343475341796875" lon="13.03065964020788669586181640625">
        <ele>560.5999755859375</ele>
        <time>2021-06-04T08:43:30.000Z</time>
        <extensions>
          <ns3:TrackPointExtension>
            <ns3:atemp>26.0</ns3:atemp>
          </ns3:TrackPointExtension>
        </extensions>
      </trkpt>
      <trkpt lat="43.08031979016959667205810546875" lon="13.03086013533174991607666015625">
        <ele>561.5999755859375</ele>
        <time>2021-06-04T08:43:34.000Z</time>
        <extensions>
          <ns3:TrackPointExtension>
            <ns3:atemp>26.0</ns3:atemp>
          </ns3:TrackPointExtension>
        </extensions>
      </trkpt>
      <trkpt lat="43.080284334719181060791015625" lon="13.03100279532372951507568359375">
        <ele>563</ele>
        <time>2021-06-04T08:43:37.000Z</time>
        <extensions>
          <ns3:TrackPointExtension>
            <ns3:atemp>26.0</ns3:atemp>
          </ns3:TrackPointExtension>
        </extensions>
      </trkpt>
      <trkpt lat="43.08026011101901531219482421875" lon="13.03113020025193691253662109375">
        <ele>564</ele>
        <time>2021-06-04T08:43:40.000Z</time>
        <extensions>
          <ns3:TrackPointExtension>
            <ns3:atemp>26.0</ns3:atemp>
          </ns3:TrackPointExtension>
        </extensions>
      </trkpt>
      <trkpt lat="43.08025650680065155029296875" lon="13.0311730317771434783935546875">
        <ele>564.4000244140625</ele>
        <time>2021-06-04T08:43:41.000Z</time>
        <extensions>
          <ns3:TrackPointExtension>
            <ns3:atemp>26.0</ns3:atemp>
          </ns3:TrackPointExtension>
        </extensions>
      </trkpt>
      <trkpt lat="43.08025189675390720367431640625" lon="13.03132751025259494781494140625">
        <ele>565.20001220703125</ele>
        <time>2021-06-04T08:43:44.000Z</time>
        <extensions>
          <ns3:TrackPointExtension>
            <ns3:atemp>26.0</ns3:atemp>
          </ns3:TrackPointExtension>
        </extensions>
      </trkpt>
      <trkpt lat="43.0802424252033233642578125" lon="13.0314342118799686431884765625">
        <ele>565.4000244140625</ele>
        <time>2021-06-04T08:43:46.000Z</time>
        <extensions>
          <ns3:TrackPointExtension>
            <ns3:atemp>26.0</ns3:atemp>
          </ns3:TrackPointExtension>
        </extensions>
      </trkpt>
      <trkpt lat="43.0802563391625881195068359375" lon="13.031711988151073455810546875">
        <ele>565.4000244140625</ele>
        <time>2021-06-04T08:43:52.000Z</time>
        <extensions>
          <ns3:TrackPointExtension>
            <ns3:atemp>26.0</ns3:atemp>
          </ns3:TrackPointExtension>
        </extensions>
      </trkpt>
      <trkpt lat="43.08030017651617527008056640625" lon="13.0318303406238555908203125">
        <ele>565.5999755859375</ele>
        <time>2021-06-04T08:43:57.000Z</time>
        <extensions>
          <ns3:TrackPointExtension>
            <ns3:atemp>26.0</ns3:atemp>
          </ns3:TrackPointExtension>
        </extensions>
      </trkpt>
      <trkpt lat="43.0803009308874607086181640625" lon="13.031830005347728729248046875">
        <ele>565.79998779296875</ele>
        <time>2021-06-04T08:44:06.000Z</time>
        <extensions>
          <ns3:TrackPointExtension>
            <ns3:atemp>26.0</ns3:atemp>
          </ns3:TrackPointExtension>
        </extensions>
      </trkpt>
      <trkpt lat="43.08030000887811183929443359375" lon="13.03183075971901416778564453125">
        <ele>566</ele>
        <time>2021-06-04T08:44:20.000Z</time>
        <extensions>
          <ns3:TrackPointExtension>
            <ns3:atemp>26.0</ns3:atemp>
          </ns3:TrackPointExtension>
        </extensions>
      </trkpt>
      <trkpt lat="43.0802999250590801239013671875" lon="13.0318305082619190216064453125">
        <ele>565.79998779296875</ele>
        <time>2021-06-04T08:44:25.000Z</time>
        <extensions>
          <ns3:TrackPointExtension>
            <ns3:atemp>26.0</ns3:atemp>
          </ns3:TrackPointExtension>
        </extensions>
      </trkpt>
      <trkpt lat="43.080299757421016693115234375" lon="13.031830005347728729248046875">
        <ele>565.79998779296875</ele>
        <time>2021-06-04T08:45:07.000Z</time>
        <extensions>
          <ns3:TrackPointExtension>
            <ns3:atemp>27.0</ns3:atemp>
          </ns3:TrackPointExtension>
        </extensions>
      </trkpt>
      <trkpt lat="43.0802987515926361083984375" lon="13.031830005347728729248046875">
        <ele>565.4000244140625</ele>
        <time>2021-06-04T08:45:28.000Z</time>
        <extensions>
          <ns3:TrackPointExtension>
            <ns3:atemp>27.0</ns3:atemp>
          </ns3:TrackPointExtension>
        </extensions>
      </trkpt>
      <trkpt lat="43.0802999250590801239013671875" lon="13.03182992152869701385498046875">
        <ele>565.4000244140625</ele>
        <time>2021-06-04T08:46:06.000Z</time>
        <extensions>
          <ns3:TrackPointExtension>
            <ns3:atemp>28.0</ns3:atemp>
          </ns3:TrackPointExtension>
        </extensions>
      </trkpt>
      <trkpt lat="43.08030017651617527008056640625" lon="13.03182807750999927520751953125">
        <ele>565.5999755859375</ele>
        <time>2021-06-04T08:46:28.000Z</time>
        <extensions>
          <ns3:TrackPointExtension>
            <ns3:atemp>28.0</ns3:atemp>
          </ns3:TrackPointExtension>
        </extensions>
      </trkpt>
      <trkpt lat="43.0803002603352069854736328125" lon="13.0318284966051578521728515625">
        <ele>565.4000244140625</ele>
        <time>2021-06-04T08:47:26.000Z</time>
        <extensions>
          <ns3:TrackPointExtension>
            <ns3:atemp>29.0</ns3:atemp>
          </ns3:TrackPointExtension>
        </extensions>
      </trkpt>
      <trkpt lat="43.0803046189248561859130859375" lon="13.0318276584148406982421875">
        <ele>565.4000244140625</ele>
        <time>2021-06-04T08:47:28.000Z</time>
        <extensions>
          <ns3:TrackPointExtension>
            <ns3:atemp>29.0</ns3:atemp>
          </ns3:TrackPointExtension>
        </extensions>
      </trkpt>
      <trkpt lat="43.08032699860632419586181640625" lon="13.0318512953817844390869140625">
        <ele>565.4000244140625</ele>
        <time>2021-06-04T08:47:31.000Z</time>
        <extensions>
          <ns3:TrackPointExtension>
            <ns3:atemp>29.0</ns3:atemp>
          </ns3:TrackPointExtension>
        </extensions>
      </trkpt>
      <trkpt lat="43.080366812646389007568359375" lon="13.031858168542385101318359375">
        <ele>565.4000244140625</ele>
        <time>2021-06-04T08:47:33.000Z</time>
        <extensions>
          <ns3:TrackPointExtension>
            <ns3:atemp>29.0</ns3:atemp>
          </ns3:TrackPointExtension>
        </extensions>
      </trkpt>
      <trkpt lat="43.08040260337293148040771484375" lon="13.03187266923487186431884765625">
        <ele>565.4000244140625</ele>
        <time>2021-06-04T08:47:35.000Z</time>
        <extensions>
          <ns3:TrackPointExtension>
            <ns3:atemp>29.0</ns3:atemp>
          </ns3:TrackPointExtension>
        </extensions>
      </trkpt>
      <trkpt lat="43.08043956756591796875" lon="13.0318885110318660736083984375">
        <ele>565.4000244140625</ele>
        <time>2021-06-04T08:47:37.000Z</time>
        <extensions>
          <ns3:TrackPointExtension>
            <ns3:atemp>29.0</ns3:atemp>
          </ns3:TrackPointExtension>
        </extensions>
      </trkpt>
      <trkpt lat="43.08046680875122547149658203125" lon="13.03190074861049652099609375">
        <ele>565.4000244140625</ele>
        <time>2021-06-04T08:47:39.000Z</time>
        <extensions>
          <ns3:TrackPointExtension>
            <ns3:atemp>29.0</ns3:atemp>
          </ns3:TrackPointExtension>
        </extensions>
      </trkpt>
      <trkpt lat="43.08047602884471416473388671875" lon="13.03191223181784152984619140625">
        <ele>565.20001220703125</ele>
        <time>2021-06-04T08:47:44.000Z</time>
        <extensions>
          <ns3:TrackPointExtension>
            <ns3:atemp>29.0</ns3:atemp>
          </ns3:TrackPointExtension>
        </extensions>
      </trkpt>
      <trkpt lat="43.08048072271049022674560546875" lon="13.03190770559012889862060546875">
        <ele>565.5999755859375</ele>
        <time>2021-06-04T08:48:20.000Z</time>
        <extensions>
          <ns3:TrackPointExtension>
            <ns3:atemp>29.0</ns3:atemp>
          </ns3:TrackPointExtension>
        </extensions>
      </trkpt>
      <trkpt lat="43.0804886855185031890869140625" lon="13.03190745413303375244140625">
        <ele>565.5999755859375</ele>
        <time>2021-06-04T08:48:32.000Z</time>
        <extensions>
          <ns3:TrackPointExtension>
            <ns3:atemp>29.0</ns3:atemp>
          </ns3:TrackPointExtension>
        </extensions>
      </trkpt>
      <trkpt lat="43.08053688146173954010009765625" lon="13.031895719468593597412109375">
        <ele>565.5999755859375</ele>
        <time>2021-06-04T08:48:35.000Z</time>
        <extensions>
          <ns3:TrackPointExtension>
            <ns3:atemp>29.0</ns3:atemp>
          </ns3:TrackPointExtension>
        </extensions>
      </trkpt>
      <trkpt lat="43.080649115145206451416015625" lon="13.0319287441670894622802734375">
        <ele>565.5999755859375</ele>
        <time>2021-06-04T08:48:39.000Z</time>
        <extensions>
          <ns3:TrackPointExtension>
            <ns3:atemp>29.0</ns3:atemp>
          </ns3:TrackPointExtension>
        </extensions>
      </trkpt>
      <trkpt lat="43.08072379790246486663818359375" lon="13.0319559015333652496337890625">
        <ele>565.5999755859375</ele>
        <time>2021-06-04T08:48:42.000Z</time>
        <extensions>
          <ns3:TrackPointExtension>
            <ns3:atemp>29.0</ns3:atemp>
          </ns3:TrackPointExtension>
        </extensions>
      </trkpt>
      <trkpt lat="43.08078884147107601165771484375" lon="13.03198548965156078338623046875">
        <ele>565.79998779296875</ele>
        <time>2021-06-04T08:48:45.000Z</time>
        <extensions>
          <ns3:TrackPointExtension>
            <ns3:atemp>29.0</ns3:atemp>
          </ns3:TrackPointExtension>
        </extensions>
      </trkpt>
      <trkpt lat="43.0808112211525440216064453125" lon="13.031992278993129730224609375">
        <ele>565.79998779296875</ele>
        <time>2021-06-04T08:48:46.000Z</time>
        <extensions>
          <ns3:TrackPointExtension>
            <ns3:atemp>29.0</ns3:atemp>
          </ns3:TrackPointExtension>
        </extensions>
      </trkpt>
      <trkpt lat="43.080871067941188812255859375" lon="13.03201432339847087860107421875">
        <ele>565.79998779296875</ele>
        <time>2021-06-04T08:48:49.000Z</time>
        <extensions>
          <ns3:TrackPointExtension>
            <ns3:atemp>29.0</ns3:atemp>
          </ns3:TrackPointExtension>
        </extensions>
      </trkpt>
      <trkpt lat="43.0808943696320056915283203125" lon="13.03203745745122432708740234375">
        <ele>566.4000244140625</ele>
        <time>2021-06-04T08:48:52.000Z</time>
        <extensions>
          <ns3:TrackPointExtension>
            <ns3:atemp>29.0</ns3:atemp>
          </ns3:TrackPointExtension>
        </extensions>
      </trkpt>
      <trkpt lat="43.08089529164135456085205078125" lon="13.0320395529270172119140625">
        <ele>566.5999755859375</ele>
        <time>2021-06-04T08:48:53.000Z</time>
        <extensions>
          <ns3:TrackPointExtension>
            <ns3:atemp>29.0</ns3:atemp>
          </ns3:TrackPointExtension>
        </extensions>
      </trkpt>
      <trkpt lat="43.08089998550713062286376953125" lon="13.03203846327960491180419921875">
        <ele>567.79998779296875</ele>
        <time>2021-06-04T08:48:57.000Z</time>
        <extensions>
          <ns3:TrackPointExtension>
            <ns3:atemp>29.0</ns3:atemp>
          </ns3:TrackPointExtension>
        </extensions>
      </trkpt>
      <trkpt lat="43.08090182952582836151123046875" lon="13.0320390500128269195556640625">
        <ele>568.79998779296875</ele>
        <time>2021-06-04T08:49:03.000Z</time>
        <extensions>
          <ns3:TrackPointExtension>
            <ns3:atemp>29.0</ns3:atemp>
          </ns3:TrackPointExtension>
        </extensions>
      </trkpt>
      <trkpt lat="43.08090065605938434600830078125" lon="13.03203427232801914215087890625">
        <ele>568.79998779296875</ele>
        <time>2021-06-04T08:49:07.000Z</time>
        <extensions>
          <ns3:TrackPointExtension>
            <ns3:atemp>29.0</ns3:atemp>
          </ns3:TrackPointExtension>
        </extensions>
      </trkpt>
      <trkpt lat="43.080926053225994110107421875" lon="13.032039217650890350341796875">
        <ele>569</ele>
        <time>2021-06-04T08:49:19.000Z</time>
        <extensions>
          <ns3:TrackPointExtension>
            <ns3:atemp>29.0</ns3:atemp>
          </ns3:TrackPointExtension>
        </extensions>
      </trkpt>
      <trkpt lat="43.08094038628041744232177734375" lon="13.03204097785055637359619140625">
        <ele>569</ele>
        <time>2021-06-04T08:49:20.000Z</time>
        <extensions>
          <ns3:TrackPointExtension>
            <ns3:atemp>29.0</ns3:atemp>
          </ns3:TrackPointExtension>
        </extensions>
      </trkpt>
      <trkpt lat="43.08101423084735870361328125" lon="13.03210937418043613433837890625">
        <ele>569</ele>
        <time>2021-06-04T08:49:24.000Z</time>
        <extensions>
          <ns3:TrackPointExtension>
            <ns3:atemp>29.0</ns3:atemp>
          </ns3:TrackPointExtension>
        </extensions>
      </trkpt>
      <trkpt lat="43.0811179988086223602294921875" lon="13.032223619520664215087890625">
        <ele>569.4000244140625</ele>
        <time>2021-06-04T08:49:30.000Z</time>
        <extensions>
          <ns3:TrackPointExtension>
            <ns3:atemp>29.0</ns3:atemp>
          </ns3:TrackPointExtension>
        </extensions>
      </trkpt>
      <trkpt lat="43.08115093968808650970458984375" lon="13.03226561285555362701416015625">
        <ele>569.5999755859375</ele>
        <time>2021-06-04T08:49:32.000Z</time>
        <extensions>
          <ns3:TrackPointExtension>
            <ns3:atemp>29.0</ns3:atemp>
          </ns3:TrackPointExtension>
        </extensions>
      </trkpt>
      <trkpt lat="43.0811706371605396270751953125" lon="13.03228556178510189056396484375">
        <ele>569.79998779296875</ele>
        <time>2021-06-04T08:49:33.000Z</time>
        <extensions>
          <ns3:TrackPointExtension>
            <ns3:atemp>29.0</ns3:atemp>
          </ns3:TrackPointExtension>
        </extensions>
      </trkpt>
      <trkpt lat="43.08119938708841800689697265625" lon="13.0323257111012935638427734375">
        <ele>570</ele>
        <time>2021-06-04T08:49:35.000Z</time>
        <extensions>
          <ns3:TrackPointExtension>
            <ns3:atemp>29.0</ns3:atemp>
          </ns3:TrackPointExtension>
        </extensions>
      </trkpt>
      <trkpt lat="43.08121548034250736236572265625" lon="13.03234088234603404998779296875">
        <ele>570.5999755859375</ele>
        <time>2021-06-04T08:49:37.000Z</time>
        <extensions>
          <ns3:TrackPointExtension>
            <ns3:atemp>29.0</ns3:atemp>
          </ns3:TrackPointExtension>
        </extensions>
      </trkpt>
      <trkpt lat="43.0812212638556957244873046875" lon="13.03233954124152660369873046875">
        <ele>571.20001220703125</ele>
        <time>2021-06-04T08:49:40.000Z</time>
        <extensions>
          <ns3:TrackPointExtension>
            <ns3:atemp>29.0</ns3:atemp>
          </ns3:TrackPointExtension>
        </extensions>
      </trkpt>
      <trkpt lat="43.08121548034250736236572265625" lon="13.0323461629450321197509765625">
        <ele>571.5999755859375</ele>
        <time>2021-06-04T08:49:42.000Z</time>
        <extensions>
          <ns3:TrackPointExtension>
            <ns3:atemp>29.0</ns3:atemp>
          </ns3:TrackPointExtension>
        </extensions>
      </trkpt>
      <trkpt lat="43.08124096132814884185791015625" lon="13.0323833785951137542724609375">
        <ele>572.4000244140625</ele>
        <time>2021-06-04T08:49:46.000Z</time>
        <extensions>
          <ns3:TrackPointExtension>
            <ns3:atemp>29.0</ns3:atemp>
          </ns3:TrackPointExtension>
        </extensions>
      </trkpt>
      <trkpt lat="43.0813154764473438262939453125" lon="13.03243861533701419830322265625">
        <ele>572.5999755859375</ele>
        <time>2021-06-04T08:49:51.000Z</time>
        <extensions>
          <ns3:TrackPointExtension>
            <ns3:atemp>29.0</ns3:atemp>
          </ns3:TrackPointExtension>
        </extensions>
      </trkpt>
      <trkpt lat="43.08131321333348751068115234375" lon="13.0324353463947772979736328125">
        <ele>572.79998779296875</ele>
        <time>2021-06-04T08:49:52.000Z</time>
        <extensions>
          <ns3:TrackPointExtension>
            <ns3:atemp>29.0</ns3:atemp>
          </ns3:TrackPointExtension>
        </extensions>
      </trkpt>
      <trkpt lat="43.08130667544901371002197265625" lon="13.03243853151798248291015625">
        <ele>573.4000244140625</ele>
        <time>2021-06-04T08:49:59.000Z</time>
        <extensions>
          <ns3:TrackPointExtension>
            <ns3:atemp>29.0</ns3:atemp>
          </ns3:TrackPointExtension>
        </extensions>
      </trkpt>
      <trkpt lat="43.08130667544901371002197265625" lon="13.03243861533701419830322265625">
        <ele>573.4000244140625</ele>
        <time>2021-06-04T08:50:19.000Z</time>
        <extensions>
          <ns3:TrackPointExtension>
            <ns3:atemp>29.0</ns3:atemp>
          </ns3:TrackPointExtension>
        </extensions>
      </trkpt>
      <trkpt lat="43.08130701072514057159423828125" lon="13.0324386991560459136962890625">
        <ele>573.5999755859375</ele>
        <time>2021-06-04T08:50:32.000Z</time>
        <extensions>
          <ns3:TrackPointExtension>
            <ns3:atemp>30.0</ns3:atemp>
          </ns3:TrackPointExtension>
        </extensions>
      </trkpt>
      <trkpt lat="43.08130784891545772552490234375" lon="13.03243828006088733673095703125">
        <ele>573.4000244140625</ele>
        <time>2021-06-04T08:50:53.000Z</time>
        <extensions>
          <ns3:TrackPointExtension>
            <ns3:atemp>30.0</ns3:atemp>
          </ns3:TrackPointExtension>
        </extensions>
      </trkpt>
      <trkpt lat="43.081307597458362579345703125" lon="13.03243794478476047515869140625">
        <ele>573.4000244140625</ele>
        <time>2021-06-04T08:50:57.000Z</time>
        <extensions>
          <ns3:TrackPointExtension>
            <ns3:atemp>30.0</ns3:atemp>
          </ns3:TrackPointExtension>
        </extensions>
      </trkpt>
      <trkpt lat="43.0813241936266422271728515625" lon="13.0324413813650608062744140625">
        <ele>573.4000244140625</ele>
        <time>2021-06-04T08:51:08.000Z</time>
        <extensions>
          <ns3:TrackPointExtension>
            <ns3:atemp>30.0</ns3:atemp>
          </ns3:TrackPointExtension>
        </extensions>
      </trkpt>
      <trkpt lat="43.08140910230576992034912109375" lon="13.03253106772899627685546875">
        <ele>573.4000244140625</ele>
        <time>2021-06-04T08:51:13.000Z</time>
        <extensions>
          <ns3:TrackPointExtension>
            <ns3:atemp>30.0</ns3:atemp>
          </ns3:TrackPointExtension>
        </extensions>
      </trkpt>
      <trkpt lat="43.08145822025835514068603515625" lon="13.03259552456438541412353515625">
        <ele>573.5999755859375</ele>
        <time>2021-06-04T08:51:18.000Z</time>
        <extensions>
          <ns3:TrackPointExtension>
            <ns3:atemp>31.0</ns3:atemp>
          </ns3:TrackPointExtension>
        </extensions>
      </trkpt>
      <trkpt lat="43.0814606510102748870849609375" lon="13.03259904496371746063232421875">
        <ele>574.20001220703125</ele>
        <time>2021-06-04T08:51:21.000Z</time>
        <extensions>
          <ns3:TrackPointExtension>
            <ns3:atemp>31.0</ns3:atemp>
          </ns3:TrackPointExtension>
        </extensions>
      </trkpt>
      <trkpt lat="43.08146140538156032562255859375" lon="13.03259938023984432220458984375">
        <ele>575.4000244140625</ele>
        <time>2021-06-04T08:51:26.000Z</time>
        <extensions>
          <ns3:TrackPointExtension>
            <ns3:atemp>31.0</ns3:atemp>
          </ns3:TrackPointExtension>
        </extensions>
      </trkpt>
      <trkpt lat="43.081460483372211456298828125" lon="13.032600469887256622314453125">
        <ele>575.5999755859375</ele>
        <time>2021-06-04T08:51:44.000Z</time>
        <extensions>
          <ns3:TrackPointExtension>
            <ns3:atemp>31.0</ns3:atemp>
          </ns3:TrackPointExtension>
        </extensions>
      </trkpt>
      <trkpt lat="43.0815263651311397552490234375" lon="13.032664842903614044189453125">
        <ele>575.79998779296875</ele>
        <time>2021-06-04T08:51:49.000Z</time>
        <extensions>
          <ns3:TrackPointExtension>
            <ns3:atemp>31.0</ns3:atemp>
          </ns3:TrackPointExtension>
        </extensions>
      </trkpt>
      <trkpt lat="43.0816564522683620452880859375" lon="13.03283792920410633087158203125">
        <ele>576.20001220703125</ele>
        <time>2021-06-04T08:51:56.000Z</time>
        <extensions>
          <ns3:TrackPointExtension>
            <ns3:atemp>31.0</ns3:atemp>
          </ns3:TrackPointExtension>
        </extensions>
      </trkpt>
      <trkpt lat="43.08171562850475311279296875" lon="13.03291973657906055450439453125">
        <ele>576.5999755859375</ele>
        <time>2021-06-04T08:51:59.000Z</time>
        <extensions>
          <ns3:TrackPointExtension>
            <ns3:atemp>31.0</ns3:atemp>
          </ns3:TrackPointExtension>
        </extensions>
      </trkpt>
      <trkpt lat="43.08180824853479862213134765625" lon="13.03301277570426464080810546875">
        <ele>577.5999755859375</ele>
        <time>2021-06-04T08:52:03.000Z</time>
        <extensions>
          <ns3:TrackPointExtension>
            <ns3:atemp>31.0</ns3:atemp>
          </ns3:TrackPointExtension>
        </extensions>
      </trkpt>
      <trkpt lat="43.08183372952044010162353515625" lon="13.03304093889892101287841796875">
        <ele>577.79998779296875</ele>
        <time>2021-06-04T08:52:04.000Z</time>
        <extensions>
          <ns3:TrackPointExtension>
            <ns3:atemp>31.0</ns3:atemp>
          </ns3:TrackPointExtension>
        </extensions>
      </trkpt>
      <trkpt lat="43.08199197985231876373291015625" lon="13.03318209014832973480224609375">
        <ele>578.5999755859375</ele>
        <time>2021-06-04T08:52:09.000Z</time>
        <extensions>
          <ns3:TrackPointExtension>
            <ns3:atemp>31.0</ns3:atemp>
          </ns3:TrackPointExtension>
        </extensions>
      </trkpt>
      <trkpt lat="43.0822730250656604766845703125" lon="13.0334679968655109405517578125">
        <ele>579</ele>
        <time>2021-06-04T08:52:17.000Z</time>
        <extensions>
          <ns3:TrackPointExtension>
            <ns3:atemp>31.0</ns3:atemp>
          </ns3:TrackPointExtension>
        </extensions>
      </trkpt>
      <trkpt lat="43.08255021460354328155517578125" lon="13.03373965434730052947998046875">
        <ele>578.79998779296875</ele>
        <time>2021-06-04T08:52:24.000Z</time>
        <extensions>
          <ns3:TrackPointExtension>
            <ns3:atemp>31.0</ns3:atemp>
          </ns3:TrackPointExtension>
        </extensions>
      </trkpt>
      <trkpt lat="43.08271952904760837554931640625" lon="13.0339558236300945281982421875">
        <ele>577.4000244140625</ele>
        <time>2021-06-04T08:52:28.000Z</time>
        <extensions>
          <ns3:TrackPointExtension>
            <ns3:atemp>31.0</ns3:atemp>
          </ns3:TrackPointExtension>
        </extensions>
      </trkpt>
      <trkpt lat="43.08279848657548427581787109375" lon="13.0340865813195705413818359375">
        <ele>576.79998779296875</ele>
        <time>2021-06-04T08:52:30.000Z</time>
        <extensions>
          <ns3:TrackPointExtension>
            <ns3:atemp>31.0</ns3:atemp>
          </ns3:TrackPointExtension>
        </extensions>
      </trkpt>
      <trkpt lat="43.0828999914228916168212890625" lon="13.03419713862240314483642578125">
        <ele>576</ele>
        <time>2021-06-04T08:52:32.000Z</time>
        <extensions>
          <ns3:TrackPointExtension>
            <ns3:atemp>31.0</ns3:atemp>
          </ns3:TrackPointExtension>
        </extensions>
      </trkpt>
      <trkpt lat="43.08301943354308605194091796875" lon="13.03428883664309978485107421875">
        <ele>574.5999755859375</ele>
        <time>2021-06-04T08:52:34.000Z</time>
        <extensions>
          <ns3:TrackPointExtension>
            <ns3:atemp>31.0</ns3:atemp>
          </ns3:TrackPointExtension>
        </extensions>
      </trkpt>
      <trkpt lat="43.08314382098615169525146484375" lon="13.03436301648616790771484375">
        <ele>573</ele>
        <time>2021-06-04T08:52:36.000Z</time>
        <extensions>
          <ns3:TrackPointExtension>
            <ns3:atemp>31.0</ns3:atemp>
          </ns3:TrackPointExtension>
        </extensions>
      </trkpt>
      <trkpt lat="43.08326452039182186126708984375" lon="13.0344267189502716064453125">
        <ele>571.5999755859375</ele>
        <time>2021-06-04T08:52:38.000Z</time>
        <extensions>
          <ns3:TrackPointExtension>
            <ns3:atemp>31.0</ns3:atemp>
          </ns3:TrackPointExtension>
        </extensions>
      </trkpt>
      <trkpt lat="43.08337591588497161865234375" lon="13.0344969592988491058349609375">
        <ele>569.79998779296875</ele>
        <time>2021-06-04T08:52:40.000Z</time>
        <extensions>
          <ns3:TrackPointExtension>
            <ns3:atemp>31.0</ns3:atemp>
          </ns3:TrackPointExtension>
        </extensions>
      </trkpt>
      <trkpt lat="43.08343567885458469390869140625" lon="13.03453526459634304046630859375">
        <ele>568.79998779296875</ele>
        <time>2021-06-04T08:52:41.000Z</time>
        <extensions>
          <ns3:TrackPointExtension>
            <ns3:atemp>31.0</ns3:atemp>
          </ns3:TrackPointExtension>
        </extensions>
      </trkpt>
      <trkpt lat="43.0835628323256969451904296875" lon="13.03459863178431987762451171875">
        <ele>567</ele>
        <time>2021-06-04T08:52:43.000Z</time>
        <extensions>
          <ns3:TrackPointExtension>
            <ns3:atemp>31.0</ns3:atemp>
          </ns3:TrackPointExtension>
        </extensions>
      </trkpt>
      <trkpt lat="43.0837002955377101898193359375" lon="13.03466652520000934600830078125">
        <ele>565.20001220703125</ele>
        <time>2021-06-04T08:52:45.000Z</time>
        <extensions>
          <ns3:TrackPointExtension>
            <ns3:atemp>31.0</ns3:atemp>
          </ns3:TrackPointExtension>
        </extensions>
      </trkpt>
      <trkpt lat="43.0838535167276859283447265625" lon="13.0347276292741298675537109375">
        <ele>563.79998779296875</ele>
        <time>2021-06-04T08:52:47.000Z</time>
        <extensions>
          <ns3:TrackPointExtension>
            <ns3:atemp>31.0</ns3:atemp>
          </ns3:TrackPointExtension>
        </extensions>
      </trkpt>
      <trkpt lat="43.08400481007993221282958984375" lon="13.03476325236260890960693359375">
        <ele>562.4000244140625</ele>
        <time>2021-06-04T08:52:49.000Z</time>
        <extensions>
          <ns3:TrackPointExtension>
            <ns3:atemp>31.0</ns3:atemp>
          </ns3:TrackPointExtension>
        </extensions>
      </trkpt>
      <trkpt lat="43.08407890610396862030029296875" lon="13.03476476110517978668212890625">
        <ele>561.4000244140625</ele>
        <time>2021-06-04T08:52:50.000Z</time>
        <extensions>
          <ns3:TrackPointExtension>
            <ns3:atemp>31.0</ns3:atemp>
          </ns3:TrackPointExtension>
        </extensions>
      </trkpt>
      <trkpt lat="43.0842162854969501495361328125" lon="13.03476140834391117095947265625">
        <ele>559.79998779296875</ele>
        <time>2021-06-04T08:52:52.000Z</time>
        <extensions>
          <ns3:TrackPointExtension>
            <ns3:atemp>31.0</ns3:atemp>
          </ns3:TrackPointExtension>
        </extensions>
      </trkpt>
      <trkpt lat="43.08434687554836273193359375" lon="13.03473584353923797607421875">
        <ele>557.5999755859375</ele>
        <time>2021-06-04T08:52:54.000Z</time>
        <extensions>
          <ns3:TrackPointExtension>
            <ns3:atemp>31.0</ns3:atemp>
          </ns3:TrackPointExtension>
        </extensions>
      </trkpt>
      <trkpt lat="43.08441015891730785369873046875" lon="13.03471572697162628173828125">
        <ele>557</ele>
        <time>2021-06-04T08:52:55.000Z</time>
        <extensions>
          <ns3:TrackPointExtension>
            <ns3:atemp>31.0</ns3:atemp>
          </ns3:TrackPointExtension>
        </extensions>
      </trkpt>
      <trkpt lat="43.08470218442380428314208984375" lon="13.034606091678142547607421875">
        <ele>556.4000244140625</ele>
        <time>2021-06-04T08:53:00.000Z</time>
        <extensions>
          <ns3:TrackPointExtension>
            <ns3:atemp>30.0</ns3:atemp>
          </ns3:TrackPointExtension>
        </extensions>
      </trkpt>
      <trkpt lat="43.08475851081311702728271484375" lon="13.03458295762538909912109375">
        <ele>556.20001220703125</ele>
        <time>2021-06-04T08:53:01.000Z</time>
        <extensions>
          <ns3:TrackPointExtension>
            <ns3:atemp>30.0</ns3:atemp>
          </ns3:TrackPointExtension>
        </extensions>
      </trkpt>
      <trkpt lat="43.08482036925852298736572265625" lon="13.03457348607480525970458984375">
        <ele>556.20001220703125</ele>
        <time>2021-06-04T08:53:02.000Z</time>
        <extensions>
          <ns3:TrackPointExtension>
            <ns3:atemp>30.0</ns3:atemp>
          </ns3:TrackPointExtension>
        </extensions>
      </trkpt>
      <trkpt lat="43.08505875058472156524658203125" lon="13.034552447497844696044921875">
        <ele>556.4000244140625</ele>
        <time>2021-06-04T08:53:06.000Z</time>
        <extensions>
          <ns3:TrackPointExtension>
            <ns3:atemp>30.0</ns3:atemp>
          </ns3:TrackPointExtension>
        </extensions>
      </trkpt>
      <trkpt lat="43.08542353101074695587158203125" lon="13.03459024988114833831787109375">
        <ele>555.79998779296875</ele>
        <time>2021-06-04T08:53:12.000Z</time>
        <extensions>
          <ns3:TrackPointExtension>
            <ns3:atemp>30.0</ns3:atemp>
          </ns3:TrackPointExtension>
        </extensions>
      </trkpt>
      <trkpt lat="43.08570885099470615386962890625" lon="13.0346220172941684722900390625">
        <ele>555.79998779296875</ele>
        <time>2021-06-04T08:53:17.000Z</time>
        <extensions>
          <ns3:TrackPointExtension>
            <ns3:atemp>30.0</ns3:atemp>
          </ns3:TrackPointExtension>
        </extensions>
      </trkpt>
      <trkpt lat="43.08581144548952579498291015625" lon="13.03464171476662158966064453125">
        <ele>555.79998779296875</ele>
        <time>2021-06-04T08:53:19.000Z</time>
        <extensions>
          <ns3:TrackPointExtension>
            <ns3:atemp>30.0</ns3:atemp>
          </ns3:TrackPointExtension>
        </extensions>
      </trkpt>
      <trkpt lat="43.086181171238422393798828125" lon="13.0346847139298915863037109375">
        <ele>555.79998779296875</ele>
        <time>2021-06-04T08:53:26.000Z</time>
        <extensions>
          <ns3:TrackPointExtension>
            <ns3:atemp>30.0</ns3:atemp>
          </ns3:TrackPointExtension>
        </extensions>
      </trkpt>
      <trkpt lat="43.0865363962948322296142578125" lon="13.03472570143640041351318359375">
        <ele>555.79998779296875</ele>
        <time>2021-06-04T08:53:32.000Z</time>
        <extensions>
          <ns3:TrackPointExtension>
            <ns3:atemp>30.0</ns3:atemp>
          </ns3:TrackPointExtension>
        </extensions>
      </trkpt>
      <trkpt lat="43.0869457684457302093505859375" lon="13.034851513803005218505859375">
        <ele>555.79998779296875</ele>
        <time>2021-06-04T08:53:37.000Z</time>
        <extensions>
          <ns3:TrackPointExtension>
            <ns3:atemp>30.0</ns3:atemp>
          </ns3:TrackPointExtension>
        </extensions>
      </trkpt>
      <trkpt lat="43.0872129835188388824462890625" lon="13.03494379855692386627197265625">
        <ele>554.5999755859375</ele>
        <time>2021-06-04T08:53:40.000Z</time>
        <extensions>
          <ns3:TrackPointExtension>
            <ns3:atemp>30.0</ns3:atemp>
          </ns3:TrackPointExtension>
        </extensions>
      </trkpt>
      <trkpt lat="43.08738640509545803070068359375" lon="13.03500473499298095703125">
        <ele>552.79998779296875</ele>
        <time>2021-06-04T08:53:42.000Z</time>
        <extensions>
          <ns3:TrackPointExtension>
            <ns3:atemp>30.0</ns3:atemp>
          </ns3:TrackPointExtension>
        </extensions>
      </trkpt>
      <trkpt lat="43.08755840174853801727294921875" lon="13.03506315685808658599853515625">
        <ele>550.5999755859375</ele>
        <time>2021-06-04T08:53:44.000Z</time>
        <extensions>
          <ns3:TrackPointExtension>
            <ns3:atemp>30.0</ns3:atemp>
          </ns3:TrackPointExtension>
        </extensions>
      </trkpt>
      <trkpt lat="43.087644316256046295166015625" lon="13.035088218748569488525390625">
        <ele>549.4000244140625</ele>
        <time>2021-06-04T08:53:45.000Z</time>
        <extensions>
          <ns3:TrackPointExtension>
            <ns3:atemp>30.0</ns3:atemp>
          </ns3:TrackPointExtension>
        </extensions>
      </trkpt>
      <trkpt lat="43.087727464735507965087890625" lon="13.0351168848574161529541015625">
        <ele>548.5999755859375</ele>
        <time>2021-06-04T08:53:46.000Z</time>
        <extensions>
          <ns3:TrackPointExtension>
            <ns3:atemp>30.0</ns3:atemp>
          </ns3:TrackPointExtension>
        </extensions>
      </trkpt>
      <trkpt lat="43.08780969120562076568603515625" lon="13.03514747880399227142333984375">
        <ele>548.20001220703125</ele>
        <time>2021-06-04T08:53:47.000Z</time>
        <extensions>
          <ns3:TrackPointExtension>
            <ns3:atemp>30.0</ns3:atemp>
          </ns3:TrackPointExtension>
        </extensions>
      </trkpt>
      <trkpt lat="43.08812937699258327484130859375" lon="13.03524143993854522705078125">
        <ele>546.20001220703125</ele>
        <time>2021-06-04T08:53:51.000Z</time>
        <extensions>
          <ns3:TrackPointExtension>
            <ns3:atemp>30.0</ns3:atemp>
          </ns3:TrackPointExtension>
        </extensions>
      </trkpt>
      <trkpt lat="43.08827505446970462799072265625" lon="13.03526423871517181396484375">
        <ele>545.79998779296875</ele>
        <time>2021-06-04T08:53:53.000Z</time>
        <extensions>
          <ns3:TrackPointExtension>
            <ns3:atemp>30.0</ns3:atemp>
          </ns3:TrackPointExtension>
        </extensions>
      </trkpt>
      <trkpt lat="43.0885812453925609588623046875" lon="13.03526348434388637542724609375">
        <ele>545.5999755859375</ele>
        <time>2021-06-04T08:53:58.000Z</time>
        <extensions>
          <ns3:TrackPointExtension>
            <ns3:atemp>30.0</ns3:atemp>
          </ns3:TrackPointExtension>
        </extensions>
      </trkpt>
      <trkpt lat="43.08878148905932903289794921875" lon="13.03520497865974903106689453125">
        <ele>545.79998779296875</ele>
        <time>2021-06-04T08:54:03.000Z</time>
        <extensions>
          <ns3:TrackPointExtension>
            <ns3:atemp>30.0</ns3:atemp>
          </ns3:TrackPointExtension>
        </extensions>
      </trkpt>
      <trkpt lat="43.088867403566837310791015625" lon="13.035171367228031158447265625">
        <ele>547</ele>
        <time>2021-06-04T08:54:05.000Z</time>
        <extensions>
          <ns3:TrackPointExtension>
            <ns3:atemp>30.0</ns3:atemp>
          </ns3:TrackPointExtension>
        </extensions>
      </trkpt>
      <trkpt lat="43.08891023509204387664794921875" lon="13.0351567827165126800537109375">
        <ele>547.5999755859375</ele>
        <time>2021-06-04T08:54:06.000Z</time>
        <extensions>
          <ns3:TrackPointExtension>
            <ns3:atemp>30.0</ns3:atemp>
          </ns3:TrackPointExtension>
        </extensions>
      </trkpt>
      <trkpt lat="43.088992126286029815673828125" lon="13.03513490594923496246337890625">
        <ele>549</ele>
        <time>2021-06-04T08:54:08.000Z</time>
        <extensions>
          <ns3:TrackPointExtension>
            <ns3:atemp>30.0</ns3:atemp>
          </ns3:TrackPointExtension>
        </extensions>
      </trkpt>
      <trkpt lat="43.0890362150967121124267578125" lon="13.03512333892285823822021484375">
        <ele>549.5999755859375</ele>
        <time>2021-06-04T08:54:09.000Z</time>
        <extensions>
          <ns3:TrackPointExtension>
            <ns3:atemp>29.0</ns3:atemp>
          </ns3:TrackPointExtension>
        </extensions>
      </trkpt>
      <trkpt lat="43.089116849005222320556640625" lon="13.035094924271106719970703125">
        <ele>550.4000244140625</ele>
        <time>2021-06-04T08:54:11.000Z</time>
        <extensions>
          <ns3:TrackPointExtension>
            <ns3:atemp>29.0</ns3:atemp>
          </ns3:TrackPointExtension>
        </extensions>
      </trkpt>
      <trkpt lat="43.08929496444761753082275390625" lon="13.0350548587739467620849609375">
        <ele>551.20001220703125</ele>
        <time>2021-06-04T08:54:15.000Z</time>
        <extensions>
          <ns3:TrackPointExtension>
            <ns3:atemp>29.0</ns3:atemp>
          </ns3:TrackPointExtension>
        </extensions>
      </trkpt>
      <trkpt lat="43.0893460102379322052001953125" lon="13.03505309857428073883056640625">
        <ele>551.4000244140625</ele>
        <time>2021-06-04T08:54:16.000Z</time>
        <extensions>
          <ns3:TrackPointExtension>
            <ns3:atemp>29.0</ns3:atemp>
          </ns3:TrackPointExtension>
        </extensions>
      </trkpt>
      <trkpt lat="43.08952831663191318511962890625" lon="13.03505904972553253173828125">
        <ele>552.5999755859375</ele>
        <time>2021-06-04T08:54:20.000Z</time>
        <extensions>
          <ns3:TrackPointExtension>
            <ns3:atemp>29.0</ns3:atemp>
          </ns3:TrackPointExtension>
        </extensions>
      </trkpt>
      <trkpt lat="43.08956754393875598907470703125" lon="13.03506650961935520172119140625">
        <ele>552.79998779296875</ele>
        <time>2021-06-04T08:54:21.000Z</time>
        <extensions>
          <ns3:TrackPointExtension>
            <ns3:atemp>29.0</ns3:atemp>
          </ns3:TrackPointExtension>
        </extensions>
      </trkpt>
      <trkpt lat="43.0896470881998538970947265625" lon="13.03510037250816822052001953125">
        <ele>553.20001220703125</ele>
        <time>2021-06-04T08:54:23.000Z</time>
        <extensions>
          <ns3:TrackPointExtension>
            <ns3:atemp>29.0</ns3:atemp>
          </ns3:TrackPointExtension>
        </extensions>
      </trkpt>
      <trkpt lat="43.0897669494152069091796875" lon="13.03518620319664478302001953125">
        <ele>553.5999755859375</ele>
        <time>2021-06-04T08:54:26.000Z</time>
        <extensions>
          <ns3:TrackPointExtension>
            <ns3:atemp>29.0</ns3:atemp>
          </ns3:TrackPointExtension>
        </extensions>
      </trkpt>
      <trkpt lat="43.08994623832404613494873046875" lon="13.0353333055973052978515625">
        <ele>554.5999755859375</ele>
        <time>2021-06-04T08:54:32.000Z</time>
        <extensions>
          <ns3:TrackPointExtension>
            <ns3:atemp>29.0</ns3:atemp>
          </ns3:TrackPointExtension>
        </extensions>
      </trkpt>
      <trkpt lat="43.08997959829866886138916015625" lon="13.03534931503236293792724609375">
        <ele>555</ele>
        <time>2021-06-04T08:54:33.000Z</time>
        <extensions>
          <ns3:TrackPointExtension>
            <ns3:atemp>29.0</ns3:atemp>
          </ns3:TrackPointExtension>
        </extensions>
      </trkpt>
      <trkpt lat="43.09007280506193637847900390625" lon="13.03538938052952289581298828125">
        <ele>556.20001220703125</ele>
        <time>2021-06-04T08:54:36.000Z</time>
        <extensions>
          <ns3:TrackPointExtension>
            <ns3:atemp>29.0</ns3:atemp>
          </ns3:TrackPointExtension>
        </extensions>
      </trkpt>
      <trkpt lat="43.0901201628148555755615234375" lon="13.035405389964580535888671875">
        <ele>556.5999755859375</ele>
        <time>2021-06-04T08:54:38.000Z</time>
        <extensions>
          <ns3:TrackPointExtension>
            <ns3:atemp>29.0</ns3:atemp>
          </ns3:TrackPointExtension>
        </extensions>
      </trkpt>
      <trkpt lat="43.09020171873271465301513671875" lon="13.035426177084445953369140625">
        <ele>557.20001220703125</ele>
        <time>2021-06-04T08:54:42.000Z</time>
        <extensions>
          <ns3:TrackPointExtension>
            <ns3:atemp>29.0</ns3:atemp>
          </ns3:TrackPointExtension>
        </extensions>
      </trkpt>
      <trkpt lat="43.09021286666393280029296875" lon="13.03542592562735080718994140625">
        <ele>557.20001220703125</ele>
        <time>2021-06-04T08:54:43.000Z</time>
        <extensions>
          <ns3:TrackPointExtension>
            <ns3:atemp>29.0</ns3:atemp>
          </ns3:TrackPointExtension>
        </extensions>
      </trkpt>
      <trkpt lat="43.0903276987373828887939453125" lon="13.03545258007943630218505859375">
        <ele>558.20001220703125</ele>
        <time>2021-06-04T08:54:49.000Z</time>
        <extensions>
          <ns3:TrackPointExtension>
            <ns3:atemp>29.0</ns3:atemp>
          </ns3:TrackPointExtension>
        </extensions>
      </trkpt>
      <trkpt lat="43.09033901430666446685791015625" lon="13.03546272218227386474609375">
        <ele>558.5999755859375</ele>
        <time>2021-06-04T08:54:50.000Z</time>
        <extensions>
          <ns3:TrackPointExtension>
            <ns3:atemp>29.0</ns3:atemp>
          </ns3:TrackPointExtension>
        </extensions>
      </trkpt>
      <trkpt lat="43.09040975756943225860595703125" lon="13.03547420538961887359619140625">
        <ele>559</ele>
        <time>2021-06-04T08:55:02.000Z</time>
        <extensions>
          <ns3:TrackPointExtension>
            <ns3:atemp>29.0</ns3:atemp>
          </ns3:TrackPointExtension>
        </extensions>
      </trkpt>
      <trkpt lat="43.0904292874038219451904296875" lon="13.03551628254354000091552734375">
        <ele>559</ele>
        <time>2021-06-04T08:55:11.000Z</time>
        <extensions>
          <ns3:TrackPointExtension>
            <ns3:atemp>28.0</ns3:atemp>
          </ns3:TrackPointExtension>
        </extensions>
      </trkpt>
      <trkpt lat="43.09043280780315399169921875" lon="13.0355329625308513641357421875">
        <ele>558.79998779296875</ele>
        <time>2021-06-04T08:55:24.000Z</time>
        <extensions>
          <ns3:TrackPointExtension>
            <ns3:atemp>28.0</ns3:atemp>
          </ns3:TrackPointExtension>
        </extensions>
      </trkpt>
      <trkpt lat="43.0904289521276950836181640625" lon="13.0355371534824371337890625">
        <ele>558.5999755859375</ele>
        <time>2021-06-04T08:55:32.000Z</time>
        <extensions>
          <ns3:TrackPointExtension>
            <ns3:atemp>28.0</ns3:atemp>
          </ns3:TrackPointExtension>
        </extensions>
      </trkpt>
      <trkpt lat="43.09042685665190219879150390625" lon="13.0355383269488811492919921875">
        <ele>558.4000244140625</ele>
        <time>2021-06-04T08:55:37.000Z</time>
        <extensions>
          <ns3:TrackPointExtension>
            <ns3:atemp>28.0</ns3:atemp>
          </ns3:TrackPointExtension>
        </extensions>
      </trkpt>
      <trkpt lat="43.09043372981250286102294921875" lon="13.0355265922844409942626953125">
        <ele>558.4000244140625</ele>
        <time>2021-06-04T08:55:52.000Z</time>
        <extensions>
          <ns3:TrackPointExtension>
            <ns3:atemp>28.0</ns3:atemp>
          </ns3:TrackPointExtension>
        </extensions>
      </trkpt>
      <trkpt lat="43.09042015112936496734619140625" lon="13.0355339683592319488525390625">
        <ele>558.5999755859375</ele>
        <time>2021-06-04T08:56:05.000Z</time>
        <extensions>
          <ns3:TrackPointExtension>
            <ns3:atemp>28.0</ns3:atemp>
          </ns3:TrackPointExtension>
        </extensions>
      </trkpt>
      <trkpt lat="43.090420067310333251953125" lon="13.03553036414086818695068359375">
        <ele>558.5999755859375</ele>
        <time>2021-06-04T08:56:18.000Z</time>
        <extensions>
          <ns3:TrackPointExtension>
            <ns3:atemp>28.0</ns3:atemp>
          </ns3:TrackPointExtension>
        </extensions>
      </trkpt>
      <trkpt lat="43.0904329754412174224853515625" lon="13.0355457030236721038818359375">
        <ele>558.5999755859375</ele>
        <time>2021-06-04T08:56:33.000Z</time>
        <extensions>
          <ns3:TrackPointExtension>
            <ns3:atemp>27.0</ns3:atemp>
          </ns3:TrackPointExtension>
        </extensions>
      </trkpt>
      <trkpt lat="43.090438507497310638427734375" lon="13.03555182181298732757568359375">
        <ele>558.4000244140625</ele>
        <time>2021-06-04T08:56:48.000Z</time>
        <extensions>
          <ns3:TrackPointExtension>
            <ns3:atemp>27.0</ns3:atemp>
          </ns3:TrackPointExtension>
        </extensions>
      </trkpt>
      <trkpt lat="43.0904281139373779296875" lon="13.03549314849078655242919921875">
        <ele>558.5999755859375</ele>
        <time>2021-06-04T08:56:58.000Z</time>
        <extensions>
          <ns3:TrackPointExtension>
            <ns3:atemp>27.0</ns3:atemp>
          </ns3:TrackPointExtension>
        </extensions>
      </trkpt>
      <trkpt lat="43.09042207896709442138671875" lon="13.03549088537693023681640625">
        <ele>558.79998779296875</ele>
        <time>2021-06-04T08:57:00.000Z</time>
        <extensions>
          <ns3:TrackPointExtension>
            <ns3:atemp>27.0</ns3:atemp>
          </ns3:TrackPointExtension>
        </extensions>
      </trkpt>
      <trkpt lat="43.0904160439968109130859375" lon="13.0354172922670841217041015625">
        <ele>559</ele>
        <time>2021-06-04T08:57:02.000Z</time>
        <extensions>
          <ns3:TrackPointExtension>
            <ns3:atemp>27.0</ns3:atemp>
          </ns3:TrackPointExtension>
        </extensions>
      </trkpt>
      <trkpt lat="43.0904058180749416351318359375" lon="13.03535367362201213836669921875">
        <ele>559.20001220703125</ele>
        <time>2021-06-04T08:57:04.000Z</time>
        <extensions>
          <ns3:TrackPointExtension>
            <ns3:atemp>27.0</ns3:atemp>
          </ns3:TrackPointExtension>
        </extensions>
      </trkpt>
      <trkpt lat="43.090409673750400543212890625" lon="13.03531964309513568878173828125">
        <ele>559.20001220703125</ele>
        <time>2021-06-04T08:57:05.000Z</time>
        <extensions>
          <ns3:TrackPointExtension>
            <ns3:atemp>27.0</ns3:atemp>
          </ns3:TrackPointExtension>
        </extensions>
      </trkpt>
      <trkpt lat="43.090427778661251068115234375" lon="13.03525359369814395904541015625">
        <ele>559.4000244140625</ele>
        <time>2021-06-04T08:57:07.000Z</time>
        <extensions>
          <ns3:TrackPointExtension>
            <ns3:atemp>27.0</ns3:atemp>
          </ns3:TrackPointExtension>
        </extensions>
      </trkpt>
      <trkpt lat="43.09044219553470611572265625" lon="13.03519106470048427581787109375">
        <ele>559.4000244140625</ele>
        <time>2021-06-04T08:57:09.000Z</time>
        <extensions>
          <ns3:TrackPointExtension>
            <ns3:atemp>27.0</ns3:atemp>
          </ns3:TrackPointExtension>
        </extensions>
      </trkpt>
      <trkpt lat="43.09050061739981174468994140625" lon="13.035068102180957794189453125">
        <ele>560.20001220703125</ele>
        <time>2021-06-04T08:57:14.000Z</time>
        <extensions>
          <ns3:TrackPointExtension>
            <ns3:atemp>27.0</ns3:atemp>
          </ns3:TrackPointExtension>
        </extensions>
      </trkpt>
      <trkpt lat="43.090512938797473907470703125" lon="13.03504723124206066131591796875">
        <ele>560.5999755859375</ele>
        <time>2021-06-04T08:57:15.000Z</time>
        <extensions>
          <ns3:TrackPointExtension>
            <ns3:atemp>27.0</ns3:atemp>
          </ns3:TrackPointExtension>
        </extensions>
      </trkpt>
      <trkpt lat="43.09053364209830760955810546875" lon="13.03500942885875701904296875">
        <ele>561.79998779296875</ele>
        <time>2021-06-04T08:57:17.000Z</time>
        <extensions>
          <ns3:TrackPointExtension>
            <ns3:atemp>27.0</ns3:atemp>
          </ns3:TrackPointExtension>
        </extensions>
      </trkpt>
      <trkpt lat="43.0905734561383724212646484375" lon="13.0349562875926494598388671875">
        <ele>562.79998779296875</ele>
        <time>2021-06-04T08:57:20.000Z</time>
        <extensions>
          <ns3:TrackPointExtension>
            <ns3:atemp>27.0</ns3:atemp>
          </ns3:TrackPointExtension>
        </extensions>
      </trkpt>
      <trkpt lat="43.09059508144855499267578125" lon="13.03491513244807720184326171875">
        <ele>563.4000244140625</ele>
        <time>2021-06-04T08:57:22.000Z</time>
        <extensions>
          <ns3:TrackPointExtension>
            <ns3:atemp>27.0</ns3:atemp>
          </ns3:TrackPointExtension>
        </extensions>
      </trkpt>
      <trkpt lat="43.0906063131988048553466796875" lon="13.03489669226109981536865234375">
        <ele>564</ele>
        <time>2021-06-04T08:57:23.000Z</time>
        <extensions>
          <ns3:TrackPointExtension>
            <ns3:atemp>27.0</ns3:atemp>
          </ns3:TrackPointExtension>
        </extensions>
      </trkpt>
      <trkpt lat="43.09064193628728389739990234375" lon="13.03486065007746219635009765625">
        <ele>565.20001220703125</ele>
        <time>2021-06-04T08:57:26.000Z</time>
        <extensions>
          <ns3:TrackPointExtension>
            <ns3:atemp>27.0</ns3:atemp>
          </ns3:TrackPointExtension>
        </extensions>
      </trkpt>
      <trkpt lat="43.0906522460281848907470703125" lon="13.03485025651752948760986328125">
        <ele>565.79998779296875</ele>
        <time>2021-06-04T08:57:27.000Z</time>
        <extensions>
          <ns3:TrackPointExtension>
            <ns3:atemp>27.0</ns3:atemp>
          </ns3:TrackPointExtension>
        </extensions>
      </trkpt>
      <trkpt lat="43.09066825546324253082275390625" lon="13.0348168127238750457763671875">
        <ele>566.4000244140625</ele>
        <time>2021-06-04T08:57:29.000Z</time>
        <extensions>
          <ns3:TrackPointExtension>
            <ns3:atemp>27.0</ns3:atemp>
          </ns3:TrackPointExtension>
        </extensions>
      </trkpt>
      <trkpt lat="43.09069708921015262603759765625" lon="13.03475520573556423187255859375">
        <ele>567.5999755859375</ele>
        <time>2021-06-04T08:57:32.000Z</time>
        <extensions>
          <ns3:TrackPointExtension>
            <ns3:atemp>27.0</ns3:atemp>
          </ns3:TrackPointExtension>
        </extensions>
      </trkpt>
      <trkpt lat="43.09070714749395847320556640625" lon="13.03473089821636676788330078125">
        <ele>568.20001220703125</ele>
        <time>2021-06-04T08:57:33.000Z</time>
        <extensions>
          <ns3:TrackPointExtension>
            <ns3:atemp>27.0</ns3:atemp>
          </ns3:TrackPointExtension>
        </extensions>
      </trkpt>
      <trkpt lat="43.09072575531899929046630859375" lon="13.0346884019672870635986328125">
        <ele>569</ele>
        <time>2021-06-04T08:57:35.000Z</time>
        <extensions>
          <ns3:TrackPointExtension>
            <ns3:atemp>27.0</ns3:atemp>
          </ns3:TrackPointExtension>
        </extensions>
      </trkpt>
      <trkpt lat="43.090738244354724884033203125" lon="13.03468731231987476348876953125">
        <ele>569.79998779296875</ele>
        <time>2021-06-04T08:57:37.000Z</time>
        <extensions>
          <ns3:TrackPointExtension>
            <ns3:atemp>27.0</ns3:atemp>
          </ns3:TrackPointExtension>
        </extensions>
      </trkpt>
      <trkpt lat="43.09074461460113525390625" lon="13.03469116799533367156982421875">
        <ele>570.20001220703125</ele>
        <time>2021-06-04T08:57:38.000Z</time>
        <extensions>
          <ns3:TrackPointExtension>
            <ns3:atemp>27.0</ns3:atemp>
          </ns3:TrackPointExtension>
        </extensions>
      </trkpt>
      <trkpt lat="43.09075727127492427825927734375" lon="13.03471212275326251983642578125">
        <ele>571.5999755859375</ele>
        <time>2021-06-04T08:57:42.000Z</time>
        <extensions>
          <ns3:TrackPointExtension>
            <ns3:atemp>27.0</ns3:atemp>
          </ns3:TrackPointExtension>
        </extensions>
      </trkpt>
      <trkpt lat="43.090763390064239501953125" lon="13.0347226001322269439697265625">
        <ele>572</ele>
        <time>2021-06-04T08:57:43.000Z</time>
        <extensions>
          <ns3:TrackPointExtension>
            <ns3:atemp>27.0</ns3:atemp>
          </ns3:TrackPointExtension>
        </extensions>
      </trkpt>
      <trkpt lat="43.090767078101634979248046875" lon="13.03473643027245998382568359375">
        <ele>572.4000244140625</ele>
        <time>2021-06-04T08:57:44.000Z</time>
        <extensions>
          <ns3:TrackPointExtension>
            <ns3:atemp>27.0</ns3:atemp>
          </ns3:TrackPointExtension>
        </extensions>
      </trkpt>
      <trkpt lat="43.09077822603285312652587890625" lon="13.03475822322070598602294921875">
        <ele>572.5999755859375</ele>
        <time>2021-06-04T08:57:45.000Z</time>
        <extensions>
          <ns3:TrackPointExtension>
            <ns3:atemp>27.0</ns3:atemp>
          </ns3:TrackPointExtension>
        </extensions>
      </trkpt>
      <trkpt lat="43.09081963263452053070068359375" lon="13.0348892323672771453857421875">
        <ele>572.79998779296875</ele>
        <time>2021-06-04T08:57:49.000Z</time>
        <extensions>
          <ns3:TrackPointExtension>
            <ns3:atemp>27.0</ns3:atemp>
          </ns3:TrackPointExtension>
        </extensions>
      </trkpt>
      <trkpt lat="43.0908956564962863922119140625" lon="13.03513683378696441650390625">
        <ele>571.79998779296875</ele>
        <time>2021-06-04T08:57:55.000Z</time>
        <extensions>
          <ns3:TrackPointExtension>
            <ns3:atemp>27.0</ns3:atemp>
          </ns3:TrackPointExtension>
        </extensions>
      </trkpt>
      <trkpt lat="43.09091418050229549407958984375" lon="13.0351849459111690521240234375">
        <ele>571.4000244140625</ele>
        <time>2021-06-04T08:57:56.000Z</time>
        <extensions>
          <ns3:TrackPointExtension>
            <ns3:atemp>27.0</ns3:atemp>
          </ns3:TrackPointExtension>
        </extensions>
      </trkpt>
      <trkpt lat="43.09093479998409748077392578125" lon="13.0352152884006500244140625">
        <ele>571.20001220703125</ele>
        <time>2021-06-04T08:57:57.000Z</time>
        <extensions>
          <ns3:TrackPointExtension>
            <ns3:atemp>27.0</ns3:atemp>
          </ns3:TrackPointExtension>
        </extensions>
      </trkpt>
      <trkpt lat="43.09098073281347751617431640625" lon="13.03524320013821125030517578125">
        <ele>570.79998779296875</ele>
        <time>2021-06-04T08:57:59.000Z</time>
        <extensions>
          <ns3:TrackPointExtension>
            <ns3:atemp>27.0</ns3:atemp>
          </ns3:TrackPointExtension>
        </extensions>
      </trkpt>
      <trkpt lat="43.09114501811563968658447265625" lon="13.035256862640380859375">
        <ele>570.79998779296875</ele>
        <time>2021-06-04T08:58:05.000Z</time>
        <extensions>
          <ns3:TrackPointExtension>
            <ns3:atemp>27.0</ns3:atemp>
          </ns3:TrackPointExtension>
        </extensions>
      </trkpt>
      <trkpt lat="43.09132598340511322021484375" lon="13.03531260229647159576416015625">
        <ele>570.79998779296875</ele>
        <time>2021-06-04T08:58:11.000Z</time>
        <extensions>
          <ns3:TrackPointExtension>
            <ns3:atemp>27.0</ns3:atemp>
          </ns3:TrackPointExtension>
        </extensions>
      </trkpt>
      <trkpt lat="43.09150837361812591552734375" lon="13.0352513305842876434326171875">
        <ele>570.5999755859375</ele>
        <time>2021-06-04T08:58:16.000Z</time>
        <extensions>
          <ns3:TrackPointExtension>
            <ns3:atemp>27.0</ns3:atemp>
          </ns3:TrackPointExtension>
        </extensions>
      </trkpt>
      <trkpt lat="43.0916822142899036407470703125" lon="13.035175390541553497314453125">
        <ele>570.20001220703125</ele>
        <time>2021-06-04T08:58:22.000Z</time>
        <extensions>
          <ns3:TrackPointExtension>
            <ns3:atemp>27.0</ns3:atemp>
          </ns3:TrackPointExtension>
        </extensions>
      </trkpt>
      <trkpt lat="43.09169436804950237274169921875" lon="13.035186789929866790771484375">
        <ele>570.20001220703125</ele>
        <time>2021-06-04T08:58:23.000Z</time>
        <extensions>
          <ns3:TrackPointExtension>
            <ns3:atemp>27.0</ns3:atemp>
          </ns3:TrackPointExtension>
        </extensions>
      </trkpt>
      <trkpt lat="43.0917214415967464447021484375" lon="13.0352278612554073333740234375">
        <ele>570.20001220703125</ele>
        <time>2021-06-04T08:58:27.000Z</time>
        <extensions>
          <ns3:TrackPointExtension>
            <ns3:atemp>27.0</ns3:atemp>
          </ns3:TrackPointExtension>
        </extensions>
      </trkpt>
      <trkpt lat="43.09172429144382476806640625" lon="13.03523012436926364898681640625">
        <ele>570.4000244140625</ele>
        <time>2021-06-04T08:58:41.000Z</time>
        <extensions>
          <ns3:TrackPointExtension>
            <ns3:atemp>26.0</ns3:atemp>
          </ns3:TrackPointExtension>
        </extensions>
      </trkpt>
      <trkpt lat="43.09172772802412509918212890625" lon="13.0352281965315341949462890625">
        <ele>570.20001220703125</ele>
        <time>2021-06-04T08:59:05.000Z</time>
        <extensions>
          <ns3:TrackPointExtension>
            <ns3:atemp>26.0</ns3:atemp>
          </ns3:TrackPointExtension>
        </extensions>
      </trkpt>
      <trkpt lat="43.091731332242488861083984375" lon="13.0352271907031536102294921875">
        <ele>570.4000244140625</ele>
        <time>2021-06-04T08:59:40.000Z</time>
        <extensions>
          <ns3:TrackPointExtension>
            <ns3:atemp>26.0</ns3:atemp>
          </ns3:TrackPointExtension>
        </extensions>
      </trkpt>
      <trkpt lat="43.09173208661377429962158203125" lon="13.03522710688412189483642578125">
        <ele>570.4000244140625</ele>
        <time>2021-06-04T08:59:46.000Z</time>
        <extensions>
          <ns3:TrackPointExtension>
            <ns3:atemp>26.0</ns3:atemp>
          </ns3:TrackPointExtension>
        </extensions>
      </trkpt>
      <trkpt lat="43.09173627756536006927490234375" lon="13.0352278612554073333740234375">
        <ele>570.20001220703125</ele>
        <time>2021-06-04T09:00:20.000Z</time>
        <extensions>
          <ns3:TrackPointExtension>
            <ns3:atemp>26.0</ns3:atemp>
          </ns3:TrackPointExtension>
        </extensions>
      </trkpt>
      <trkpt lat="43.0917383730411529541015625" lon="13.0352308787405490875244140625">
        <ele>570.20001220703125</ele>
        <time>2021-06-04T09:00:59.000Z</time>
        <extensions>
          <ns3:TrackPointExtension>
            <ns3:atemp>26.0</ns3:atemp>
          </ns3:TrackPointExtension>
        </extensions>
      </trkpt>
      <trkpt lat="43.091739378869533538818359375" lon="13.03523196838796138763427734375">
        <ele>570.4000244140625</ele>
        <time>2021-06-04T09:01:25.000Z</time>
        <extensions>
          <ns3:TrackPointExtension>
            <ns3:atemp>26.0</ns3:atemp>
          </ns3:TrackPointExtension>
        </extensions>
      </trkpt>
      <trkpt lat="43.09174147434532642364501953125" lon="13.03523263894021511077880859375">
        <ele>570.20001220703125</ele>
        <time>2021-06-04T09:01:58.000Z</time>
        <extensions>
          <ns3:TrackPointExtension>
            <ns3:atemp>26.0</ns3:atemp>
          </ns3:TrackPointExtension>
        </extensions>
      </trkpt>
      <trkpt lat="43.09177014045417308807373046875" lon="13.03521327674388885498046875">
        <ele>570.20001220703125</ele>
        <time>2021-06-04T09:02:03.000Z</time>
        <extensions>
          <ns3:TrackPointExtension>
            <ns3:atemp>25.0</ns3:atemp>
          </ns3:TrackPointExtension>
        </extensions>
      </trkpt>
      <trkpt lat="43.09180970303714275360107421875" lon="13.0351970158517360687255859375">
        <ele>570.20001220703125</ele>
        <time>2021-06-04T09:02:05.000Z</time>
        <extensions>
          <ns3:TrackPointExtension>
            <ns3:atemp>25.0</ns3:atemp>
          </ns3:TrackPointExtension>
        </extensions>
      </trkpt>
      <trkpt lat="43.09198714792728424072265625" lon="13.0351401865482330322265625">
        <ele>570</ele>
        <time>2021-06-04T09:02:11.000Z</time>
        <extensions>
          <ns3:TrackPointExtension>
            <ns3:atemp>25.0</ns3:atemp>
          </ns3:TrackPointExtension>
        </extensions>
      </trkpt>
      <trkpt lat="43.0921375192701816558837890625" lon="13.03511411882936954498291015625">
        <ele>569</ele>
        <time>2021-06-04T09:02:16.000Z</time>
        <extensions>
          <ns3:TrackPointExtension>
            <ns3:atemp>25.0</ns3:atemp>
          </ns3:TrackPointExtension>
        </extensions>
      </trkpt>
      <trkpt lat="43.0924241803586483001708984375" lon="13.03507355041801929473876953125">
        <ele>568.79998779296875</ele>
        <time>2021-06-04T09:02:22.000Z</time>
        <extensions>
          <ns3:TrackPointExtension>
            <ns3:atemp>25.0</ns3:atemp>
          </ns3:TrackPointExtension>
        </extensions>
      </trkpt>
      <trkpt lat="43.09246248565614223480224609375" lon="13.0350632406771183013916015625">
        <ele>568.5999755859375</ele>
        <time>2021-06-04T09:02:23.000Z</time>
        <extensions>
          <ns3:TrackPointExtension>
            <ns3:atemp>25.0</ns3:atemp>
          </ns3:TrackPointExtension>
        </extensions>
      </trkpt>
      <trkpt lat="43.09266717173159122467041015625" lon="13.0350588820874691009521484375">
        <ele>568</ele>
        <time>2021-06-04T09:02:27.000Z</time>
        <extensions>
          <ns3:TrackPointExtension>
            <ns3:atemp>25.0</ns3:atemp>
          </ns3:TrackPointExtension>
        </extensions>
      </trkpt>
      <trkpt lat="43.09300730936229228973388671875" lon="13.0350277014076709747314453125">
        <ele>567.79998779296875</ele>
        <time>2021-06-04T09:02:33.000Z</time>
        <extensions>
          <ns3:TrackPointExtension>
            <ns3:atemp>25.0</ns3:atemp>
          </ns3:TrackPointExtension>
        </extensions>
      </trkpt>
      <trkpt lat="43.093219287693500518798828125" lon="13.0350558646023273468017578125">
        <ele>568</ele>
        <time>2021-06-04T09:02:38.000Z</time>
        <extensions>
          <ns3:TrackPointExtension>
            <ns3:atemp>25.0</ns3:atemp>
          </ns3:TrackPointExtension>
        </extensions>
      </trkpt>
      <trkpt lat="43.0935269035398960113525390625" lon="13.0351242609322071075439453125">
        <ele>568</ele>
        <time>2021-06-04T09:02:45.000Z</time>
        <extensions>
          <ns3:TrackPointExtension>
            <ns3:atemp>25.0</ns3:atemp>
          </ns3:TrackPointExtension>
        </extensions>
      </trkpt>
      <trkpt lat="43.093609549105167388916015625" lon="13.03526381962001323699951171875">
        <ele>568</ele>
        <time>2021-06-04T09:02:48.000Z</time>
        <extensions>
          <ns3:TrackPointExtension>
            <ns3:atemp>25.0</ns3:atemp>
          </ns3:TrackPointExtension>
        </extensions>
      </trkpt>
      <trkpt lat="43.09351600706577301025390625" lon="13.03536540828645229339599609375">
        <ele>567.79998779296875</ele>
        <time>2021-06-04T09:02:51.000Z</time>
        <extensions>
          <ns3:TrackPointExtension>
            <ns3:atemp>25.0</ns3:atemp>
          </ns3:TrackPointExtension>
        </extensions>
      </trkpt>
      <trkpt lat="43.0933974869549274444580078125" lon="13.03531427867710590362548828125">
        <ele>567.5999755859375</ele>
        <time>2021-06-04T09:02:53.000Z</time>
        <extensions>
          <ns3:TrackPointExtension>
            <ns3:atemp>25.0</ns3:atemp>
          </ns3:TrackPointExtension>
        </extensions>
      </trkpt>
      <trkpt lat="43.09332959353923797607421875" lon="13.03527756594121456146240234375">
        <ele>567.4000244140625</ele>
        <time>2021-06-04T09:02:54.000Z</time>
        <extensions>
          <ns3:TrackPointExtension>
            <ns3:atemp>25.0</ns3:atemp>
          </ns3:TrackPointExtension>
        </extensions>
      </trkpt>
      <trkpt lat="43.0932006798684597015380859375" lon="13.03522794507443904876708984375">
        <ele>566.20001220703125</ele>
        <time>2021-06-04T09:02:56.000Z</time>
        <extensions>
          <ns3:TrackPointExtension>
            <ns3:atemp>25.0</ns3:atemp>
          </ns3:TrackPointExtension>
        </extensions>
      </trkpt>
      <trkpt lat="43.0930789746344089508056640625" lon="13.03521922789514064788818359375">
        <ele>564.5999755859375</ele>
        <time>2021-06-04T09:02:58.000Z</time>
        <extensions>
          <ns3:TrackPointExtension>
            <ns3:atemp>25.0</ns3:atemp>
          </ns3:TrackPointExtension>
        </extensions>
      </trkpt>
      <trkpt lat="43.0930186249315738677978515625" lon="13.035221658647060394287109375">
        <ele>563.5999755859375</ele>
        <time>2021-06-04T09:02:59.000Z</time>
        <extensions>
          <ns3:TrackPointExtension>
            <ns3:atemp>25.0</ns3:atemp>
          </ns3:TrackPointExtension>
        </extensions>
      </trkpt>
      <trkpt lat="43.09295869432389736175537109375" lon="13.03522744216024875640869140625">
        <ele>562.79998779296875</ele>
        <time>2021-06-04T09:03:00.000Z</time>
        <extensions>
          <ns3:TrackPointExtension>
            <ns3:atemp>25.0</ns3:atemp>
          </ns3:TrackPointExtension>
        </extensions>
      </trkpt>
      <trkpt lat="43.09290940873324871063232421875" lon="13.03524571470916271209716796875">
        <ele>562</ele>
        <time>2021-06-04T09:03:01.000Z</time>
        <extensions>
          <ns3:TrackPointExtension>
            <ns3:atemp>25.0</ns3:atemp>
          </ns3:TrackPointExtension>
        </extensions>
      </trkpt>
      <trkpt lat="43.092870600521564483642578125" lon="13.0352855287492275238037109375">
        <ele>561.4000244140625</ele>
        <time>2021-06-04T09:03:02.000Z</time>
        <extensions>
          <ns3:TrackPointExtension>
            <ns3:atemp>25.0</ns3:atemp>
          </ns3:TrackPointExtension>
        </extensions>
      </trkpt>
      <trkpt lat="43.0929167009890079498291015625" lon="13.0354052223265171051025390625">
        <ele>560.20001220703125</ele>
        <time>2021-06-04T09:03:05.000Z</time>
        <extensions>
          <ns3:TrackPointExtension>
            <ns3:atemp>25.0</ns3:atemp>
          </ns3:TrackPointExtension>
        </extensions>
      </trkpt>
      <trkpt lat="43.09296439401805400848388671875" lon="13.03542223758995532989501953125">
        <ele>560</ele>
        <time>2021-06-04T09:03:06.000Z</time>
        <extensions>
          <ns3:TrackPointExtension>
            <ns3:atemp>25.0</ns3:atemp>
          </ns3:TrackPointExtension>
        </extensions>
      </trkpt>
      <trkpt lat="43.0930186249315738677978515625" lon="13.0354323796927928924560546875">
        <ele>559.5999755859375</ele>
        <time>2021-06-04T09:03:07.000Z</time>
        <extensions>
          <ns3:TrackPointExtension>
            <ns3:atemp>25.0</ns3:atemp>
          </ns3:TrackPointExtension>
        </extensions>
      </trkpt>
      <trkpt lat="43.0930772982537746429443359375" lon="13.0354427732527256011962890625">
        <ele>558.79998779296875</ele>
        <time>2021-06-04T09:03:08.000Z</time>
        <extensions>
          <ns3:TrackPointExtension>
            <ns3:atemp>25.0</ns3:atemp>
          </ns3:TrackPointExtension>
        </extensions>
      </trkpt>
      <trkpt lat="43.0931433476507663726806640625" lon="13.03544771857559680938720703125">
        <ele>558.20001220703125</ele>
        <time>2021-06-04T09:03:09.000Z</time>
        <extensions>
          <ns3:TrackPointExtension>
            <ns3:atemp>25.0</ns3:atemp>
          </ns3:TrackPointExtension>
        </extensions>
      </trkpt>
      <trkpt lat="43.0932761169970035552978515625" lon="13.03546599112451076507568359375">
        <ele>557.5999755859375</ele>
        <time>2021-06-04T09:03:11.000Z</time>
        <extensions>
          <ns3:TrackPointExtension>
            <ns3:atemp>25.0</ns3:atemp>
          </ns3:TrackPointExtension>
        </extensions>
      </trkpt>
      <trkpt lat="43.0933401547372341156005859375" lon="13.035479150712490081787109375">
        <ele>557.5999755859375</ele>
        <time>2021-06-04T09:03:12.000Z</time>
        <extensions>
          <ns3:TrackPointExtension>
            <ns3:atemp>25.0</ns3:atemp>
          </ns3:TrackPointExtension>
        </extensions>
      </trkpt>
      <trkpt lat="43.09352112002670764923095703125" lon="13.0355034582316875457763671875">
        <ele>557</ele>
        <time>2021-06-04T09:03:15.000Z</time>
        <extensions>
          <ns3:TrackPointExtension>
            <ns3:atemp>25.0</ns3:atemp>
          </ns3:TrackPointExtension>
        </extensions>
      </trkpt>
      <trkpt lat="43.093703426420688629150390625" lon="13.03552214987576007843017578125">
        <ele>556.5999755859375</ele>
        <time>2021-06-04T09:03:18.000Z</time>
        <extensions>
          <ns3:TrackPointExtension>
            <ns3:atemp>25.0</ns3:atemp>
          </ns3:TrackPointExtension>
        </extensions>
      </trkpt>
      <trkpt lat="43.093999139964580535888671875" lon="13.03557537496089935302734375">
        <ele>556.20001220703125</ele>
        <time>2021-06-04T09:03:22.000Z</time>
        <extensions>
          <ns3:TrackPointExtension>
            <ns3:atemp>25.0</ns3:atemp>
          </ns3:TrackPointExtension>
        </extensions>
      </trkpt>
      <trkpt lat="43.09426493011415004730224609375" lon="13.03561736829578876495361328125">
        <ele>555.4000244140625</ele>
        <time>2021-06-04T09:03:25.000Z</time>
        <extensions>
          <ns3:TrackPointExtension>
            <ns3:atemp>25.0</ns3:atemp>
          </ns3:TrackPointExtension>
        </extensions>
      </trkpt>
      <trkpt lat="43.09442661702632904052734375" lon="13.03563849069178104400634765625">
        <ele>554.20001220703125</ele>
        <time>2021-06-04T09:03:27.000Z</time>
        <extensions>
          <ns3:TrackPointExtension>
            <ns3:atemp>25.0</ns3:atemp>
          </ns3:TrackPointExtension>
        </extensions>
      </trkpt>
      <trkpt lat="43.0944941751658916473388671875" lon="13.03564636968076229095458984375">
        <ele>553</ele>
        <time>2021-06-04T09:03:28.000Z</time>
        <extensions>
          <ns3:TrackPointExtension>
            <ns3:atemp>25.0</ns3:atemp>
          </ns3:TrackPointExtension>
        </extensions>
      </trkpt>
      <trkpt lat="43.09460900723934173583984375" lon="13.035655505955219268798828125">
        <ele>551.5999755859375</ele>
        <time>2021-06-04T09:03:30.000Z</time>
        <extensions>
          <ns3:TrackPointExtension>
            <ns3:atemp>25.0</ns3:atemp>
          </ns3:TrackPointExtension>
        </extensions>
      </trkpt>
      <trkpt lat="43.09465804137289524078369140625" lon="13.0356550030410289764404296875">
        <ele>551.4000244140625</ele>
        <time>2021-06-04T09:03:31.000Z</time>
        <extensions>
          <ns3:TrackPointExtension>
            <ns3:atemp>25.0</ns3:atemp>
          </ns3:TrackPointExtension>
        </extensions>
      </trkpt>
      <trkpt lat="43.09478242881596088409423828125" lon="13.03556188009679317474365234375">
        <ele>551.20001220703125</ele>
        <time>2021-06-04T09:03:35.000Z</time>
        <extensions>
          <ns3:TrackPointExtension>
            <ns3:atemp>25.0</ns3:atemp>
          </ns3:TrackPointExtension>
        </extensions>
      </trkpt>
      <trkpt lat="43.09488636441528797149658203125" lon="13.0355036258697509765625">
        <ele>552.4000244140625</ele>
        <time>2021-06-04T09:03:39.000Z</time>
        <extensions>
          <ns3:TrackPointExtension>
            <ns3:atemp>25.0</ns3:atemp>
          </ns3:TrackPointExtension>
        </extensions>
      </trkpt>
      <trkpt lat="43.094915449619293212890625" lon="13.03553690202534198760986328125">
        <ele>553</ele>
        <time>2021-06-04T09:03:40.000Z</time>
        <extensions>
          <ns3:TrackPointExtension>
            <ns3:atemp>25.0</ns3:atemp>
          </ns3:TrackPointExtension>
        </extensions>
      </trkpt>
      <trkpt lat="43.09496104717254638671875" lon="13.03563010878860950469970703125">
        <ele>554.5999755859375</ele>
        <time>2021-06-04T09:03:42.000Z</time>
        <extensions>
          <ns3:TrackPointExtension>
            <ns3:atemp>25.0</ns3:atemp>
          </ns3:TrackPointExtension>
        </extensions>
      </trkpt>
      <trkpt lat="43.09497923590242862701416015625" lon="13.03568157367408275604248046875">
        <ele>555.4000244140625</ele>
        <time>2021-06-04T09:03:43.000Z</time>
        <extensions>
          <ns3:TrackPointExtension>
            <ns3:atemp>25.0</ns3:atemp>
          </ns3:TrackPointExtension>
        </extensions>
      </trkpt>
      <trkpt lat="43.0949947424232959747314453125" lon="13.0357297696173191070556640625">
        <ele>556</ele>
        <time>2021-06-04T09:03:44.000Z</time>
        <extensions>
          <ns3:TrackPointExtension>
            <ns3:atemp>25.0</ns3:atemp>
          </ns3:TrackPointExtension>
        </extensions>
      </trkpt>
      <trkpt lat="43.0950423516333103179931640625" lon="13.035849295556545257568359375">
        <ele>556.4000244140625</ele>
        <time>2021-06-04T09:03:46.000Z</time>
        <extensions>
          <ns3:TrackPointExtension>
            <ns3:atemp>26.0</ns3:atemp>
          </ns3:TrackPointExtension>
        </extensions>
      </trkpt>
      <trkpt lat="43.095123656094074249267578125" lon="13.03595063276588916778564453125">
        <ele>556.5999755859375</ele>
        <time>2021-06-04T09:03:48.000Z</time>
        <extensions>
          <ns3:TrackPointExtension>
            <ns3:atemp>26.0</ns3:atemp>
          </ns3:TrackPointExtension>
        </extensions>
      </trkpt>
      <trkpt lat="43.0952467024326324462890625" lon="13.036018274724483489990234375">
        <ele>556.5999755859375</ele>
        <time>2021-06-04T09:03:50.000Z</time>
        <extensions>
          <ns3:TrackPointExtension>
            <ns3:atemp>26.0</ns3:atemp>
          </ns3:TrackPointExtension>
        </extensions>
      </trkpt>
      <trkpt lat="43.09531685896217823028564453125" lon="13.036040402948856353759765625">
        <ele>556.5999755859375</ele>
        <time>2021-06-04T09:03:51.000Z</time>
        <extensions>
          <ns3:TrackPointExtension>
            <ns3:atemp>26.0</ns3:atemp>
          </ns3:TrackPointExtension>
        </extensions>
      </trkpt>
      <trkpt lat="43.0957160890102386474609375" lon="13.036064207553863525390625">
        <ele>554.5999755859375</ele>
        <time>2021-06-04T09:03:56.000Z</time>
        <extensions>
          <ns3:TrackPointExtension>
            <ns3:atemp>26.0</ns3:atemp>
          </ns3:TrackPointExtension>
        </extensions>
      </trkpt>
      <trkpt lat="43.09579814784228801727294921875" lon="13.03606412373483180999755859375">
        <ele>553.5999755859375</ele>
        <time>2021-06-04T09:03:57.000Z</time>
        <extensions>
          <ns3:TrackPointExtension>
            <ns3:atemp>26.0</ns3:atemp>
          </ns3:TrackPointExtension>
        </extensions>
      </trkpt>
      <trkpt lat="43.0959429033100605010986328125" lon="13.036063201725482940673828125">
        <ele>551.5999755859375</ele>
        <time>2021-06-04T09:03:59.000Z</time>
        <extensions>
          <ns3:TrackPointExtension>
            <ns3:atemp>26.0</ns3:atemp>
          </ns3:TrackPointExtension>
        </extensions>
      </trkpt>
      <trkpt lat="43.09607223607599735260009765625" lon="13.03605875931680202484130859375">
        <ele>550.20001220703125</ele>
        <time>2021-06-04T09:04:01.000Z</time>
        <extensions>
          <ns3:TrackPointExtension>
            <ns3:atemp>26.0</ns3:atemp>
          </ns3:TrackPointExtension>
        </extensions>
      </trkpt>
      <trkpt lat="43.09640885330736637115478515625" lon="13.03607300855219364166259765625">
        <ele>549.5999755859375</ele>
        <time>2021-06-04T09:04:07.000Z</time>
        <extensions>
          <ns3:TrackPointExtension>
            <ns3:atemp>26.0</ns3:atemp>
          </ns3:TrackPointExtension>
        </extensions>
      </trkpt>
      <trkpt lat="43.0965443886816501617431640625" lon="13.03605523891746997833251953125">
        <ele>549</ele>
        <time>2021-06-04T09:04:09.000Z</time>
        <extensions>
          <ns3:TrackPointExtension>
            <ns3:atemp>26.0</ns3:atemp>
          </ns3:TrackPointExtension>
        </extensions>
      </trkpt>
      <trkpt lat="43.096654526889324188232421875" lon="13.0359792150557041168212890625">
        <ele>549.4000244140625</ele>
        <time>2021-06-04T09:04:11.000Z</time>
        <extensions>
          <ns3:TrackPointExtension>
            <ns3:atemp>26.0</ns3:atemp>
          </ns3:TrackPointExtension>
        </extensions>
      </trkpt>
      <trkpt lat="43.0968025512993335723876953125" lon="13.03586999885737895965576171875">
        <ele>550</ele>
        <time>2021-06-04T09:04:15.000Z</time>
        <extensions>
          <ns3:TrackPointExtension>
            <ns3:atemp>26.0</ns3:atemp>
          </ns3:TrackPointExtension>
        </extensions>
      </trkpt>
      <trkpt lat="43.09683113358914852142333984375" lon="13.0358434282243251800537109375">
        <ele>550.20001220703125</ele>
        <time>2021-06-04T09:04:16.000Z</time>
        <extensions>
          <ns3:TrackPointExtension>
            <ns3:atemp>26.0</ns3:atemp>
          </ns3:TrackPointExtension>
        </extensions>
      </trkpt>
      <trkpt lat="43.09693909250199794769287109375" lon="13.0357535742223262786865234375">
        <ele>550.5999755859375</ele>
        <time>2021-06-04T09:04:19.000Z</time>
        <extensions>
          <ns3:TrackPointExtension>
            <ns3:atemp>26.0</ns3:atemp>
          </ns3:TrackPointExtension>
        </extensions>
      </trkpt>
      <trkpt lat="43.09697563759982585906982421875" lon="13.0357088148593902587890625">
        <ele>550.79998779296875</ele>
        <time>2021-06-04T09:04:20.000Z</time>
        <extensions>
          <ns3:TrackPointExtension>
            <ns3:atemp>26.0</ns3:atemp>
          </ns3:TrackPointExtension>
        </extensions>
      </trkpt>
      <trkpt lat="43.0970110930502414703369140625" lon="13.03566078655421733856201171875">
        <ele>551.20001220703125</ele>
        <time>2021-06-04T09:04:21.000Z</time>
        <extensions>
          <ns3:TrackPointExtension>
            <ns3:atemp>26.0</ns3:atemp>
          </ns3:TrackPointExtension>
        </extensions>
      </trkpt>
      <trkpt lat="43.09715978801250457763671875" lon="13.03539030253887176513671875">
        <ele>552.20001220703125</ele>
        <time>2021-06-04T09:04:26.000Z</time>
        <extensions>
          <ns3:TrackPointExtension>
            <ns3:atemp>26.0</ns3:atemp>
          </ns3:TrackPointExtension>
        </extensions>
      </trkpt>
      <trkpt lat="43.09718392789363861083984375" lon="13.03528695367276668548583984375">
        <ele>552.4000244140625</ele>
        <time>2021-06-04T09:04:28.000Z</time>
        <extensions>
          <ns3:TrackPointExtension>
            <ns3:atemp>26.0</ns3:atemp>
          </ns3:TrackPointExtension>
        </extensions>
      </trkpt>
      <trkpt lat="43.09716875664889812469482421875" lon="13.03517748601734638214111328125">
        <ele>552.5999755859375</ele>
        <time>2021-06-04T09:04:30.000Z</time>
        <extensions>
          <ns3:TrackPointExtension>
            <ns3:atemp>26.0</ns3:atemp>
          </ns3:TrackPointExtension>
        </extensions>
      </trkpt>
      <trkpt lat="43.0971130169928073883056640625" lon="13.03496525622904300689697265625">
        <ele>553.5999755859375</ele>
        <time>2021-06-04T09:04:34.000Z</time>
        <extensions>
          <ns3:TrackPointExtension>
            <ns3:atemp>26.0</ns3:atemp>
          </ns3:TrackPointExtension>
        </extensions>
      </trkpt>
      <trkpt lat="43.097109161317348480224609375" lon="13.03491848520934581756591796875">
        <ele>554.20001220703125</ele>
        <time>2021-06-04T09:04:35.000Z</time>
        <extensions>
          <ns3:TrackPointExtension>
            <ns3:atemp>26.0</ns3:atemp>
          </ns3:TrackPointExtension>
        </extensions>
      </trkpt>
      <trkpt lat="43.09709968976676464080810546875" lon="13.034819997847080230712890625">
        <ele>554.5999755859375</ele>
        <time>2021-06-04T09:04:37.000Z</time>
        <extensions>
          <ns3:TrackPointExtension>
            <ns3:atemp>26.0</ns3:atemp>
          </ns3:TrackPointExtension>
        </extensions>
      </trkpt>
      <trkpt lat="43.0971036292612552642822265625" lon="13.03460047580301761627197265625">
        <ele>555.5999755859375</ele>
        <time>2021-06-04T09:04:41.000Z</time>
        <extensions>
          <ns3:TrackPointExtension>
            <ns3:atemp>26.0</ns3:atemp>
          </ns3:TrackPointExtension>
        </extensions>
      </trkpt>
      <trkpt lat="43.09712064452469348907470703125" lon="13.03442361764609813690185546875">
        <ele>556.20001220703125</ele>
        <time>2021-06-04T09:04:45.000Z</time>
        <extensions>
          <ns3:TrackPointExtension>
            <ns3:atemp>26.0</ns3:atemp>
          </ns3:TrackPointExtension>
        </extensions>
      </trkpt>
      <trkpt lat="43.0971626378595829010009765625" lon="13.03413092158734798431396484375">
        <ele>557</ele>
        <time>2021-06-04T09:04:51.000Z</time>
        <extensions>
          <ns3:TrackPointExtension>
            <ns3:atemp>26.0</ns3:atemp>
          </ns3:TrackPointExtension>
        </extensions>
      </trkpt>
      <trkpt lat="43.09717428870499134063720703125" lon="13.03406738676130771636962890625">
        <ele>557.20001220703125</ele>
        <time>2021-06-04T09:04:52.000Z</time>
        <extensions>
          <ns3:TrackPointExtension>
            <ns3:atemp>26.0</ns3:atemp>
          </ns3:TrackPointExtension>
        </extensions>
      </trkpt>
      <trkpt lat="43.0971492268145084381103515625" lon="13.03388030268251895904541015625">
        <ele>557.5999755859375</ele>
        <time>2021-06-04T09:04:55.000Z</time>
        <extensions>
          <ns3:TrackPointExtension>
            <ns3:atemp>26.0</ns3:atemp>
          </ns3:TrackPointExtension>
        </extensions>
      </trkpt>
      <trkpt lat="43.09710337780416011810302734375" lon="13.033725321292877197265625">
        <ele>558</ele>
        <time>2021-06-04T09:04:58.000Z</time>
        <extensions>
          <ns3:TrackPointExtension>
            <ns3:atemp>26.0</ns3:atemp>
          </ns3:TrackPointExtension>
        </extensions>
      </trkpt>
      <trkpt lat="43.09709348715841770172119140625" lon="13.0336379818618297576904296875">
        <ele>558.20001220703125</ele>
        <time>2021-06-04T09:05:00.000Z</time>
        <extensions>
          <ns3:TrackPointExtension>
            <ns3:atemp>26.0</ns3:atemp>
          </ns3:TrackPointExtension>
        </extensions>
      </trkpt>
      <trkpt lat="43.0971515737473964691162109375" lon="13.033391050994396209716796875">
        <ele>559.20001220703125</ele>
        <time>2021-06-04T09:05:05.000Z</time>
        <extensions>
          <ns3:TrackPointExtension>
            <ns3:atemp>26.0</ns3:atemp>
          </ns3:TrackPointExtension>
        </extensions>
      </trkpt>
      <trkpt lat="43.09717588126659393310546875" lon="13.03328334353864192962646484375">
        <ele>560.4000244140625</ele>
        <time>2021-06-04T09:05:07.000Z</time>
        <extensions>
          <ns3:TrackPointExtension>
            <ns3:atemp>26.0</ns3:atemp>
          </ns3:TrackPointExtension>
        </extensions>
      </trkpt>
      <trkpt lat="43.0972058884799480438232421875" lon="13.03307597525417804718017578125">
        <ele>561.20001220703125</ele>
        <time>2021-06-04T09:05:11.000Z</time>
        <extensions>
          <ns3:TrackPointExtension>
            <ns3:atemp>26.0</ns3:atemp>
          </ns3:TrackPointExtension>
        </extensions>
      </trkpt>
      <trkpt lat="43.09722307138144969940185546875" lon="13.03291755728423595428466796875">
        <ele>561.4000244140625</ele>
        <time>2021-06-04T09:05:14.000Z</time>
        <extensions>
          <ns3:TrackPointExtension>
            <ns3:atemp>26.0</ns3:atemp>
          </ns3:TrackPointExtension>
        </extensions>
      </trkpt>
      <trkpt lat="43.0972213111817836761474609375" lon="13.032880760729312896728515625">
        <ele>561.4000244140625</ele>
        <time>2021-06-04T09:05:15.000Z</time>
        <extensions>
          <ns3:TrackPointExtension>
            <ns3:atemp>26.0</ns3:atemp>
          </ns3:TrackPointExtension>
        </extensions>
      </trkpt>
      <trkpt lat="43.0972154438495635986328125" lon="13.03285427391529083251953125">
        <ele>561.4000244140625</ele>
        <time>2021-06-04T09:05:16.000Z</time>
        <extensions>
          <ns3:TrackPointExtension>
            <ns3:atemp>26.0</ns3:atemp>
          </ns3:TrackPointExtension>
        </extensions>
      </trkpt>
      <trkpt lat="43.09720865450799465179443359375" lon="13.03283038549125194549560546875">
        <ele>561.5999755859375</ele>
        <time>2021-06-04T09:05:21.000Z</time>
        <extensions>
          <ns3:TrackPointExtension>
            <ns3:atemp>26.0</ns3:atemp>
          </ns3:TrackPointExtension>
        </extensions>
      </trkpt>
      <trkpt lat="43.0972089059650897979736328125" lon="13.03280658088624477386474609375">
        <ele>562</ele>
        <time>2021-06-04T09:05:35.000Z</time>
        <extensions>
          <ns3:TrackPointExtension>
            <ns3:atemp>26.0</ns3:atemp>
          </ns3:TrackPointExtension>
        </extensions>
      </trkpt>
      <trkpt lat="43.09725098311901092529296875" lon="13.03268588148057460784912109375">
        <ele>562</ele>
        <time>2021-06-04T09:05:39.000Z</time>
        <extensions>
          <ns3:TrackPointExtension>
            <ns3:atemp>26.0</ns3:atemp>
          </ns3:TrackPointExtension>
        </extensions>
      </trkpt>
      <trkpt lat="43.0973477102816104888916015625" lon="13.03252779878675937652587890625">
        <ele>561.79998779296875</ele>
        <time>2021-06-04T09:05:43.000Z</time>
        <extensions>
          <ns3:TrackPointExtension>
            <ns3:atemp>26.0</ns3:atemp>
          </ns3:TrackPointExtension>
        </extensions>
      </trkpt>
      <trkpt lat="43.09744753874838352203369140625" lon="13.03231875412166118621826171875">
        <ele>559.79998779296875</ele>
        <time>2021-06-04T09:05:48.000Z</time>
        <extensions>
          <ns3:TrackPointExtension>
            <ns3:atemp>26.0</ns3:atemp>
          </ns3:TrackPointExtension>
        </extensions>
      </trkpt>
      <trkpt lat="43.09748743660748004913330078125" lon="13.03207282908260822296142578125">
        <ele>558.5999755859375</ele>
        <time>2021-06-04T09:05:52.000Z</time>
        <extensions>
          <ns3:TrackPointExtension>
            <ns3:atemp>26.0</ns3:atemp>
          </ns3:TrackPointExtension>
        </extensions>
      </trkpt>
      <trkpt lat="43.097494728863239288330078125" lon="13.032011725008487701416015625">
        <ele>558.4000244140625</ele>
        <time>2021-06-04T09:05:53.000Z</time>
        <extensions>
          <ns3:TrackPointExtension>
            <ns3:atemp>26.0</ns3:atemp>
          </ns3:TrackPointExtension>
        </extensions>
      </trkpt>
      <trkpt lat="43.09749464504420757293701171875" lon="13.03190401755273342132568359375">
        <ele>557.20001220703125</ele>
        <time>2021-06-04T09:05:55.000Z</time>
        <extensions>
          <ns3:TrackPointExtension>
            <ns3:atemp>26.0</ns3:atemp>
          </ns3:TrackPointExtension>
        </extensions>
      </trkpt>
      <trkpt lat="43.09748156927525997161865234375" lon="13.03180159069597721099853515625">
        <ele>555.79998779296875</ele>
        <time>2021-06-04T09:05:57.000Z</time>
        <extensions>
          <ns3:TrackPointExtension>
            <ns3:atemp>26.0</ns3:atemp>
          </ns3:TrackPointExtension>
        </extensions>
      </trkpt>
      <trkpt lat="43.09748324565589427947998046875" lon="13.0316836573183536529541015625">
        <ele>554.5999755859375</ele>
        <time>2021-06-04T09:05:59.000Z</time>
        <extensions>
          <ns3:TrackPointExtension>
            <ns3:atemp>26.0</ns3:atemp>
          </ns3:TrackPointExtension>
        </extensions>
      </trkpt>
      <trkpt lat="43.0974895320832729339599609375" lon="13.0315324477851390838623046875">
        <ele>553.20001220703125</ele>
        <time>2021-06-04T09:06:02.000Z</time>
        <extensions>
          <ns3:TrackPointExtension>
            <ns3:atemp>26.0</ns3:atemp>
          </ns3:TrackPointExtension>
        </extensions>
      </trkpt>
      <trkpt lat="43.09745474718511104583740234375" lon="13.03138568066060543060302734375">
        <ele>552</ele>
        <time>2021-06-04T09:06:05.000Z</time>
        <extensions>
          <ns3:TrackPointExtension>
            <ns3:atemp>26.0</ns3:atemp>
          </ns3:TrackPointExtension>
        </extensions>
      </trkpt>
      <trkpt lat="43.097448460757732391357421875" lon="13.03135131485760211944580078125">
        <ele>551.5999755859375</ele>
        <time>2021-06-04T09:06:06.000Z</time>
        <extensions>
          <ns3:TrackPointExtension>
            <ns3:atemp>26.0</ns3:atemp>
          </ns3:TrackPointExtension>
        </extensions>
      </trkpt>
      <trkpt lat="43.09744049794971942901611328125" lon="13.03132063709199428558349609375">
        <ele>550.79998779296875</ele>
        <time>2021-06-04T09:06:07.000Z</time>
        <extensions>
          <ns3:TrackPointExtension>
            <ns3:atemp>26.0</ns3:atemp>
          </ns3:TrackPointExtension>
        </extensions>
      </trkpt>
      <trkpt lat="43.09743798337876796722412109375" lon="13.0312933959066867828369140625">
        <ele>550.20001220703125</ele>
        <time>2021-06-04T09:06:08.000Z</time>
        <extensions>
          <ns3:TrackPointExtension>
            <ns3:atemp>26.0</ns3:atemp>
          </ns3:TrackPointExtension>
        </extensions>
      </trkpt>
      <trkpt lat="43.097434379160404205322265625" lon="13.03127084858715534210205078125">
        <ele>549.4000244140625</ele>
        <time>2021-06-04T09:06:09.000Z</time>
        <extensions>
          <ns3:TrackPointExtension>
            <ns3:atemp>26.0</ns3:atemp>
          </ns3:TrackPointExtension>
        </extensions>
      </trkpt>
      <trkpt lat="43.09742976911365985870361328125" lon="13.03124897181987762451171875">
        <ele>548</ele>
        <time>2021-06-04T09:06:11.000Z</time>
        <extensions>
          <ns3:TrackPointExtension>
            <ns3:atemp>26.0</ns3:atemp>
          </ns3:TrackPointExtension>
        </extensions>
      </trkpt>
      <trkpt lat="43.09742088429629802703857421875" lon="13.0312172882258892059326171875">
        <ele>546.5999755859375</ele>
        <time>2021-06-04T09:06:14.000Z</time>
        <extensions>
          <ns3:TrackPointExtension>
            <ns3:atemp>26.0</ns3:atemp>
          </ns3:TrackPointExtension>
        </extensions>
      </trkpt>
      <trkpt lat="43.09743546880781650543212890625" lon="13.031164146959781646728515625">
        <ele>546.20001220703125</ele>
        <time>2021-06-04T09:06:21.000Z</time>
        <extensions>
          <ns3:TrackPointExtension>
            <ns3:atemp>26.0</ns3:atemp>
          </ns3:TrackPointExtension>
        </extensions>
      </trkpt>
      <trkpt lat="43.09746363200247287750244140625" lon="13.03111343644559383392333984375">
        <ele>546.20001220703125</ele>
        <time>2021-06-04T09:06:31.000Z</time>
        <extensions>
          <ns3:TrackPointExtension>
            <ns3:atemp>26.0</ns3:atemp>
          </ns3:TrackPointExtension>
        </extensions>
      </trkpt>
      <trkpt lat="43.09746396727859973907470703125" lon="13.03094764240086078643798828125">
        <ele>546.20001220703125</ele>
        <time>2021-06-04T09:06:36.000Z</time>
        <extensions>
          <ns3:TrackPointExtension>
            <ns3:atemp>26.0</ns3:atemp>
          </ns3:TrackPointExtension>
        </extensions>
      </trkpt>
      <trkpt lat="43.09743094258010387420654296875" lon="13.03078620694577693939208984375">
        <ele>545.4000244140625</ele>
        <time>2021-06-04T09:06:39.000Z</time>
        <extensions>
          <ns3:TrackPointExtension>
            <ns3:atemp>26.0</ns3:atemp>
          </ns3:TrackPointExtension>
        </extensions>
      </trkpt>
      <trkpt lat="43.09740730561316013336181640625" lon="13.03066684864461421966552734375">
        <ele>544.79998779296875</ele>
        <time>2021-06-04T09:06:41.000Z</time>
        <extensions>
          <ns3:TrackPointExtension>
            <ns3:atemp>26.0</ns3:atemp>
          </ns3:TrackPointExtension>
        </extensions>
      </trkpt>
      <trkpt lat="43.097396157681941986083984375" lon="13.03060750477015972137451171875">
        <ele>544.4000244140625</ele>
        <time>2021-06-04T09:06:42.000Z</time>
        <extensions>
          <ns3:TrackPointExtension>
            <ns3:atemp>26.0</ns3:atemp>
          </ns3:TrackPointExtension>
        </extensions>
      </trkpt>
      <trkpt lat="43.0973762087523937225341796875" lon="13.030534498393535614013671875">
        <ele>543.79998779296875</ele>
        <time>2021-06-04T09:06:43.000Z</time>
        <extensions>
          <ns3:TrackPointExtension>
            <ns3:atemp>25.0</ns3:atemp>
          </ns3:TrackPointExtension>
        </extensions>
      </trkpt>
      <trkpt lat="43.09735399670898914337158203125" lon="13.03045394830405712127685546875">
        <ele>543.4000244140625</ele>
        <time>2021-06-04T09:06:44.000Z</time>
        <extensions>
          <ns3:TrackPointExtension>
            <ns3:atemp>25.0</ns3:atemp>
          </ns3:TrackPointExtension>
        </extensions>
      </trkpt>
      <trkpt lat="43.09733421541750431060791015625" lon="13.0303765833377838134765625">
        <ele>542.79998779296875</ele>
        <time>2021-06-04T09:06:45.000Z</time>
        <extensions>
          <ns3:TrackPointExtension>
            <ns3:atemp>25.0</ns3:atemp>
          </ns3:TrackPointExtension>
        </extensions>
      </trkpt>
      <trkpt lat="43.09731795452535152435302734375" lon="13.03030810318887233734130859375">
        <ele>542.20001220703125</ele>
        <time>2021-06-04T09:06:46.000Z</time>
        <extensions>
          <ns3:TrackPointExtension>
            <ns3:atemp>25.0</ns3:atemp>
          </ns3:TrackPointExtension>
        </extensions>
      </trkpt>
      <trkpt lat="43.0973115004599094390869140625" lon="13.03024020977318286895751953125">
        <ele>541.79998779296875</ele>
        <time>2021-06-04T09:06:47.000Z</time>
        <extensions>
          <ns3:TrackPointExtension>
            <ns3:atemp>25.0</ns3:atemp>
          </ns3:TrackPointExtension>
        </extensions>
      </trkpt>
      <trkpt lat="43.0972900427877902984619140625" lon="13.03014297969639301300048828125">
        <ele>541.4000244140625</ele>
        <time>2021-06-04T09:06:49.000Z</time>
        <extensions>
          <ns3:TrackPointExtension>
            <ns3:atemp>25.0</ns3:atemp>
          </ns3:TrackPointExtension>
        </extensions>
      </trkpt>
      <trkpt lat="43.0972729437053203582763671875" lon="13.03010903298854827880859375">
        <ele>541</ele>
        <time>2021-06-04T09:06:50.000Z</time>
        <extensions>
          <ns3:TrackPointExtension>
            <ns3:atemp>25.0</ns3:atemp>
          </ns3:TrackPointExtension>
        </extensions>
      </trkpt>
      <trkpt lat="43.097253330051898956298828125" lon="13.030056394636631011962890625">
        <ele>539.5999755859375</ele>
        <time>2021-06-04T09:06:52.000Z</time>
        <extensions>
          <ns3:TrackPointExtension>
            <ns3:atemp>25.0</ns3:atemp>
          </ns3:TrackPointExtension>
        </extensions>
      </trkpt>
      <trkpt lat="43.097240924835205078125" lon="13.03003099747002124786376953125">
        <ele>538.5999755859375</ele>
        <time>2021-06-04T09:06:53.000Z</time>
        <extensions>
          <ns3:TrackPointExtension>
            <ns3:atemp>25.0</ns3:atemp>
          </ns3:TrackPointExtension>
        </extensions>
      </trkpt>
      <trkpt lat="43.09722625650465488433837890625" lon="13.03000166080892086029052734375">
        <ele>538</ele>
        <time>2021-06-04T09:06:54.000Z</time>
        <extensions>
          <ns3:TrackPointExtension>
            <ns3:atemp>25.0</ns3:atemp>
          </ns3:TrackPointExtension>
        </extensions>
      </trkpt>
      <trkpt lat="43.09719054959714412689208984375" lon="13.02990526892244815826416015625">
        <ele>537.20001220703125</ele>
        <time>2021-06-04T09:06:57.000Z</time>
        <extensions>
          <ns3:TrackPointExtension>
            <ns3:atemp>25.0</ns3:atemp>
          </ns3:TrackPointExtension>
        </extensions>
      </trkpt>
      <trkpt lat="43.09718526899814605712890625" lon="13.02987031638622283935546875">
        <ele>537.20001220703125</ele>
        <time>2021-06-04T09:06:58.000Z</time>
        <extensions>
          <ns3:TrackPointExtension>
            <ns3:atemp>25.0</ns3:atemp>
          </ns3:TrackPointExtension>
        </extensions>
      </trkpt>
      <trkpt lat="43.0971988476812839508056640625" lon="13.02982245571911334991455078125">
        <ele>536.5999755859375</ele>
        <time>2021-06-04T09:07:00.000Z</time>
        <extensions>
          <ns3:TrackPointExtension>
            <ns3:atemp>25.0</ns3:atemp>
          </ns3:TrackPointExtension>
        </extensions>
      </trkpt>
      <trkpt lat="43.09724402613937854766845703125" lon="13.0297471024096012115478515625">
        <ele>535</ele>
        <time>2021-06-04T09:07:03.000Z</time>
        <extensions>
          <ns3:TrackPointExtension>
            <ns3:atemp>25.0</ns3:atemp>
          </ns3:TrackPointExtension>
        </extensions>
      </trkpt>
      <trkpt lat="43.09727051295340061187744140625" lon="13.02973176352679729461669921875">
        <ele>533.79998779296875</ele>
        <time>2021-06-04T09:07:05.000Z</time>
        <extensions>
          <ns3:TrackPointExtension>
            <ns3:atemp>25.0</ns3:atemp>
          </ns3:TrackPointExtension>
        </extensions>
      </trkpt>
      <trkpt lat="43.09729029424488544464111328125" lon="13.02974291145801544189453125">
        <ele>532.79998779296875</ele>
        <time>2021-06-04T09:07:08.000Z</time>
        <extensions>
          <ns3:TrackPointExtension>
            <ns3:atemp>25.0</ns3:atemp>
          </ns3:TrackPointExtension>
        </extensions>
      </trkpt>
      <trkpt lat="43.09729783795773983001708984375" lon="13.02974567748606204986572265625">
        <ele>532.5999755859375</ele>
        <time>2021-06-04T09:07:09.000Z</time>
        <extensions>
          <ns3:TrackPointExtension>
            <ns3:atemp>25.0</ns3:atemp>
          </ns3:TrackPointExtension>
        </extensions>
      </trkpt>
      <trkpt lat="43.09734326787292957305908203125" lon="13.02977752871811389923095703125">
        <ele>532.4000244140625</ele>
        <time>2021-06-04T09:07:12.000Z</time>
        <extensions>
          <ns3:TrackPointExtension>
            <ns3:atemp>25.0</ns3:atemp>
          </ns3:TrackPointExtension>
        </extensions>
      </trkpt>
      <trkpt lat="43.09737461619079113006591796875" lon="13.02979211322963237762451171875">
        <ele>532.4000244140625</ele>
        <time>2021-06-04T09:07:14.000Z</time>
        <extensions>
          <ns3:TrackPointExtension>
            <ns3:atemp>25.0</ns3:atemp>
          </ns3:TrackPointExtension>
        </extensions>
      </trkpt>
      <trkpt lat="43.09747771359980106353759765625" lon="13.0298453383147716522216796875">
        <ele>532.4000244140625</ele>
        <time>2021-06-04T09:07:19.000Z</time>
        <extensions>
          <ns3:TrackPointExtension>
            <ns3:atemp>25.0</ns3:atemp>
          </ns3:TrackPointExtension>
        </extensions>
      </trkpt>
      <trkpt lat="43.09759941883385181427001953125" lon="13.0298932828009128570556640625">
        <ele>533.5999755859375</ele>
        <time>2021-06-04T09:07:24.000Z</time>
        <extensions>
          <ns3:TrackPointExtension>
            <ns3:atemp>25.0</ns3:atemp>
          </ns3:TrackPointExtension>
        </extensions>
      </trkpt>
      <trkpt lat="43.09761551208794116973876953125" lon="13.029906861484050750732421875">
        <ele>534</ele>
        <time>2021-06-04T09:07:25.000Z</time>
        <extensions>
          <ns3:TrackPointExtension>
            <ns3:atemp>25.0</ns3:atemp>
          </ns3:TrackPointExtension>
        </extensions>
      </trkpt>
      <trkpt lat="43.097645938396453857421875" lon="13.02993443794548511505126953125">
        <ele>534.79998779296875</ele>
        <time>2021-06-04T09:07:27.000Z</time>
        <extensions>
          <ns3:TrackPointExtension>
            <ns3:atemp>25.0</ns3:atemp>
          </ns3:TrackPointExtension>
        </extensions>
      </trkpt>
      <trkpt lat="43.09768407605588436126708984375" lon="13.0299849808216094970703125">
        <ele>536.20001220703125</ele>
        <time>2021-06-04T09:07:30.000Z</time>
        <extensions>
          <ns3:TrackPointExtension>
            <ns3:atemp>25.0</ns3:atemp>
          </ns3:TrackPointExtension>
        </extensions>
      </trkpt>
      <trkpt lat="43.09769715182483196258544921875" lon="13.0300056003034114837646484375">
        <ele>536.20001220703125</ele>
        <time>2021-06-04T09:07:31.000Z</time>
        <extensions>
          <ns3:TrackPointExtension>
            <ns3:atemp>25.0</ns3:atemp>
          </ns3:TrackPointExtension>
        </extensions>
      </trkpt>
      <trkpt lat="43.09773386456072330474853515625" lon="13.030045665800571441650390625">
        <ele>537</ele>
        <time>2021-06-04T09:07:33.000Z</time>
        <extensions>
          <ns3:TrackPointExtension>
            <ns3:atemp>25.0</ns3:atemp>
          </ns3:TrackPointExtension>
        </extensions>
      </trkpt>
      <trkpt lat="43.09778750874102115631103515625" lon="13.03009754978120326995849609375">
        <ele>538.20001220703125</ele>
        <time>2021-06-04T09:07:36.000Z</time>
        <extensions>
          <ns3:TrackPointExtension>
            <ns3:atemp>25.0</ns3:atemp>
          </ns3:TrackPointExtension>
        </extensions>
      </trkpt>
      <trkpt lat="43.09780863113701343536376953125" lon="13.030104339122772216796875">
        <ele>538.5999755859375</ele>
        <time>2021-06-04T09:07:37.000Z</time>
        <extensions>
          <ns3:TrackPointExtension>
            <ns3:atemp>25.0</ns3:atemp>
          </ns3:TrackPointExtension>
        </extensions>
      </trkpt>
      <trkpt lat="43.097830004990100860595703125" lon="13.0301137268543243408203125">
        <ele>539.20001220703125</ele>
        <time>2021-06-04T09:07:38.000Z</time>
        <extensions>
          <ns3:TrackPointExtension>
            <ns3:atemp>25.0</ns3:atemp>
          </ns3:TrackPointExtension>
        </extensions>
      </trkpt>
      <trkpt lat="43.0978787876665592193603515625" lon="13.03012319840490818023681640625">
        <ele>540.20001220703125</ele>
        <time>2021-06-04T09:07:40.000Z</time>
        <extensions>
          <ns3:TrackPointExtension>
            <ns3:atemp>25.0</ns3:atemp>
          </ns3:TrackPointExtension>
        </extensions>
      </trkpt>
      <trkpt lat="43.09792530722916126251220703125" lon="13.03013007156550884246826171875">
        <ele>541.20001220703125</ele>
        <time>2021-06-04T09:07:42.000Z</time>
        <extensions>
          <ns3:TrackPointExtension>
            <ns3:atemp>25.0</ns3:atemp>
          </ns3:TrackPointExtension>
        </extensions>
      </trkpt>
      <trkpt lat="43.09797643683850765228271484375" lon="13.0301350168883800506591796875">
        <ele>542.4000244140625</ele>
        <time>2021-06-04T09:07:44.000Z</time>
        <extensions>
          <ns3:TrackPointExtension>
            <ns3:atemp>25.0</ns3:atemp>
          </ns3:TrackPointExtension>
        </extensions>
      </trkpt>
      <trkpt lat="43.09802387841045856475830078125" lon="13.03015706129372119903564453125">
        <ele>543.5999755859375</ele>
        <time>2021-06-04T09:07:46.000Z</time>
        <extensions>
          <ns3:TrackPointExtension>
            <ns3:atemp>25.0</ns3:atemp>
          </ns3:TrackPointExtension>
        </extensions>
      </trkpt>
      <trkpt lat="43.09804650954902172088623046875" lon="13.0301712267100811004638671875">
        <ele>544.20001220703125</ele>
        <time>2021-06-04T09:07:47.000Z</time>
        <extensions>
          <ns3:TrackPointExtension>
            <ns3:atemp>25.0</ns3:atemp>
          </ns3:TrackPointExtension>
        </extensions>
      </trkpt>
      <trkpt lat="43.0980722419917583465576171875" lon="13.030186481773853302001953125">
        <ele>544.79998779296875</ele>
        <time>2021-06-04T09:07:48.000Z</time>
        <extensions>
          <ns3:TrackPointExtension>
            <ns3:atemp>25.0</ns3:atemp>
          </ns3:TrackPointExtension>
        </extensions>
      </trkpt>
      <trkpt lat="43.09812010265886783599853515625" lon="13.03022746928036212921142578125">
        <ele>546.4000244140625</ele>
        <time>2021-06-04T09:07:50.000Z</time>
        <extensions>
          <ns3:TrackPointExtension>
            <ns3:atemp>25.0</ns3:atemp>
          </ns3:TrackPointExtension>
        </extensions>
      </trkpt>
      <trkpt lat="43.09817927889525890350341796875" lon="13.0302734859287738800048828125">
        <ele>546.79998779296875</ele>
        <time>2021-06-04T09:07:52.000Z</time>
        <extensions>
          <ns3:TrackPointExtension>
            <ns3:atemp>25.0</ns3:atemp>
          </ns3:TrackPointExtension>
        </extensions>
      </trkpt>
      <trkpt lat="43.09823937714099884033203125" lon="13.03029477596282958984375">
        <ele>547.5999755859375</ele>
        <time>2021-06-04T09:07:54.000Z</time>
        <extensions>
          <ns3:TrackPointExtension>
            <ns3:atemp>25.0</ns3:atemp>
          </ns3:TrackPointExtension>
        </extensions>
      </trkpt>
      <trkpt lat="43.09831640683114528656005859375" lon="13.030283711850643157958984375">
        <ele>548.20001220703125</ele>
        <time>2021-06-04T09:07:57.000Z</time>
        <extensions>
          <ns3:TrackPointExtension>
            <ns3:atemp>25.0</ns3:atemp>
          </ns3:TrackPointExtension>
        </extensions>
      </trkpt>
      <trkpt lat="43.0983371101319789886474609375" lon="13.03027256391942501068115234375">
        <ele>548.5999755859375</ele>
        <time>2021-06-04T09:07:58.000Z</time>
        <extensions>
          <ns3:TrackPointExtension>
            <ns3:atemp>25.0</ns3:atemp>
          </ns3:TrackPointExtension>
        </extensions>
      </trkpt>
      <trkpt lat="43.0984541215002536773681640625" lon="13.03022026084363460540771484375">
        <ele>549.20001220703125</ele>
        <time>2021-06-04T09:08:03.000Z</time>
        <extensions>
          <ns3:TrackPointExtension>
            <ns3:atemp>25.0</ns3:atemp>
          </ns3:TrackPointExtension>
        </extensions>
      </trkpt>
      <trkpt lat="43.09852235019207000732421875" lon="13.03019125945866107940673828125">
        <ele>549.79998779296875</ele>
        <time>2021-06-04T09:08:06.000Z</time>
        <extensions>
          <ns3:TrackPointExtension>
            <ns3:atemp>25.0</ns3:atemp>
          </ns3:TrackPointExtension>
        </extensions>
      </trkpt>
      <trkpt lat="43.09856317006051540374755859375" lon="13.030157648026943206787109375">
        <ele>550.79998779296875</ele>
        <time>2021-06-04T09:08:08.000Z</time>
        <extensions>
          <ns3:TrackPointExtension>
            <ns3:atemp>25.0</ns3:atemp>
          </ns3:TrackPointExtension>
        </extensions>
      </trkpt>
      <trkpt lat="43.0985818617045879364013671875" lon="13.03014524281024932861328125">
        <ele>551.4000244140625</ele>
        <time>2021-06-04T09:08:09.000Z</time>
        <extensions>
          <ns3:TrackPointExtension>
            <ns3:atemp>25.0</ns3:atemp>
          </ns3:TrackPointExtension>
        </extensions>
      </trkpt>
      <trkpt lat="43.09859954752027988433837890625" lon="13.03013728000223636627197265625">
        <ele>551.79998779296875</ele>
        <time>2021-06-04T09:08:10.000Z</time>
        <extensions>
          <ns3:TrackPointExtension>
            <ns3:atemp>25.0</ns3:atemp>
          </ns3:TrackPointExtension>
        </extensions>
      </trkpt>
      <trkpt lat="43.09865721501410007476806640625" lon="13.03012034855782985687255859375">
        <ele>553.4000244140625</ele>
        <time>2021-06-04T09:08:13.000Z</time>
        <extensions>
          <ns3:TrackPointExtension>
            <ns3:atemp>24.0</ns3:atemp>
          </ns3:TrackPointExtension>
        </extensions>
      </trkpt>
      <trkpt lat="43.09869610704481601715087890625" lon="13.0300994776189327239990234375">
        <ele>554.79998779296875</ele>
        <time>2021-06-04T09:08:15.000Z</time>
        <extensions>
          <ns3:TrackPointExtension>
            <ns3:atemp>24.0</ns3:atemp>
          </ns3:TrackPointExtension>
        </extensions>
      </trkpt>
      <trkpt lat="43.09871538542211055755615234375" lon="13.03008262999355792999267578125">
        <ele>555.4000244140625</ele>
        <time>2021-06-04T09:08:16.000Z</time>
        <extensions>
          <ns3:TrackPointExtension>
            <ns3:atemp>24.0</ns3:atemp>
          </ns3:TrackPointExtension>
        </extensions>
      </trkpt>
      <trkpt lat="43.09874095022678375244140625" lon="13.0300880782306194305419921875">
        <ele>556.20001220703125</ele>
        <time>2021-06-04T09:08:17.000Z</time>
        <extensions>
          <ns3:TrackPointExtension>
            <ns3:atemp>24.0</ns3:atemp>
          </ns3:TrackPointExtension>
        </extensions>
      </trkpt>
      <trkpt lat="43.09879803098738193511962890625" lon="13.0300967954099178314208984375">
        <ele>557.4000244140625</ele>
        <time>2021-06-04T09:08:19.000Z</time>
        <extensions>
          <ns3:TrackPointExtension>
            <ns3:atemp>24.0</ns3:atemp>
          </ns3:TrackPointExtension>
        </extensions>
      </trkpt>
      <trkpt lat="43.09885268099606037139892578125" lon="13.030126132071018218994140625">
        <ele>558.20001220703125</ele>
        <time>2021-06-04T09:08:21.000Z</time>
        <extensions>
          <ns3:TrackPointExtension>
            <ns3:atemp>24.0</ns3:atemp>
          </ns3:TrackPointExtension>
        </extensions>
      </trkpt>
      <trkpt lat="43.098882772028446197509765625" lon="13.03015387617051601409912109375">
        <ele>558.5999755859375</ele>
        <time>2021-06-04T09:08:22.000Z</time>
        <extensions>
          <ns3:TrackPointExtension>
            <ns3:atemp>24.0</ns3:atemp>
          </ns3:TrackPointExtension>
        </extensions>
      </trkpt>
      <trkpt lat="43.09893465600907802581787109375" lon="13.03020156919956207275390625">
        <ele>559.5999755859375</ele>
        <time>2021-06-04T09:08:24.000Z</time>
        <extensions>
          <ns3:TrackPointExtension>
            <ns3:atemp>24.0</ns3:atemp>
          </ns3:TrackPointExtension>
        </extensions>
      </trkpt>
      <trkpt lat="43.09898410923779010772705078125" lon="13.0302449874579906463623046875">
        <ele>560.79998779296875</ele>
        <time>2021-06-04T09:08:26.000Z</time>
        <extensions>
          <ns3:TrackPointExtension>
            <ns3:atemp>24.0</ns3:atemp>
          </ns3:TrackPointExtension>
        </extensions>
      </trkpt>
      <trkpt lat="43.099000453948974609375" lon="13.03024624474346637725830078125">
        <ele>561.20001220703125</ele>
        <time>2021-06-04T09:08:27.000Z</time>
        <extensions>
          <ns3:TrackPointExtension>
            <ns3:atemp>24.0</ns3:atemp>
          </ns3:TrackPointExtension>
        </extensions>
      </trkpt>
      <trkpt lat="43.09902132488787174224853515625" lon="13.03025613538920879364013671875">
        <ele>562.5999755859375</ele>
        <time>2021-06-04T09:08:28.000Z</time>
        <extensions>
          <ns3:TrackPointExtension>
            <ns3:atemp>24.0</ns3:atemp>
          </ns3:TrackPointExtension>
        </extensions>
      </trkpt>
      <trkpt lat="43.09907329268753528594970703125" lon="13.03027641959488391876220703125">
        <ele>563.79998779296875</ele>
        <time>2021-06-04T09:08:31.000Z</time>
        <extensions>
          <ns3:TrackPointExtension>
            <ns3:atemp>24.0</ns3:atemp>
          </ns3:TrackPointExtension>
        </extensions>
      </trkpt>
      <trkpt lat="43.09914252720773220062255859375" lon="13.030300140380859375">
        <ele>564.5999755859375</ele>
        <time>2021-06-04T09:08:34.000Z</time>
        <extensions>
          <ns3:TrackPointExtension>
            <ns3:atemp>24.0</ns3:atemp>
          </ns3:TrackPointExtension>
        </extensions>
      </trkpt>
      <trkpt lat="43.09916968457400798797607421875" lon="13.03030005656182765960693359375">
        <ele>564.79998779296875</ele>
        <time>2021-06-04T09:08:35.000Z</time>
        <extensions>
          <ns3:TrackPointExtension>
            <ns3:atemp>24.0</ns3:atemp>
          </ns3:TrackPointExtension>
        </extensions>
      </trkpt>
      <trkpt lat="43.09922198764979839324951171875" lon="13.03028916008770465850830078125">
        <ele>566</ele>
        <time>2021-06-04T09:08:38.000Z</time>
        <extensions>
          <ns3:TrackPointExtension>
            <ns3:atemp>24.0</ns3:atemp>
          </ns3:TrackPointExtension>
        </extensions>
      </trkpt>
      <trkpt lat="43.099233806133270263671875" lon="13.030294440686702728271484375">
        <ele>566.4000244140625</ele>
        <time>2021-06-04T09:08:39.000Z</time>
        <extensions>
          <ns3:TrackPointExtension>
            <ns3:atemp>24.0</ns3:atemp>
          </ns3:TrackPointExtension>
        </extensions>
      </trkpt>
      <trkpt lat="43.0992658250033855438232421875" lon="13.0302996374666690826416015625">
        <ele>567</ele>
        <time>2021-06-04T09:08:41.000Z</time>
        <extensions>
          <ns3:TrackPointExtension>
            <ns3:atemp>24.0</ns3:atemp>
          </ns3:TrackPointExtension>
        </extensions>
      </trkpt>
      <trkpt lat="43.09929273091256618499755859375" lon="13.030279017984867095947265625">
        <ele>568</ele>
        <time>2021-06-04T09:08:44.000Z</time>
        <extensions>
          <ns3:TrackPointExtension>
            <ns3:atemp>24.0</ns3:atemp>
          </ns3:TrackPointExtension>
        </extensions>
      </trkpt>
      <trkpt lat="43.09931603260338306427001953125" lon="13.0302827060222625732421875">
        <ele>569.20001220703125</ele>
        <time>2021-06-04T09:08:47.000Z</time>
        <extensions>
          <ns3:TrackPointExtension>
            <ns3:atemp>24.0</ns3:atemp>
          </ns3:TrackPointExtension>
        </extensions>
      </trkpt>
      <trkpt lat="43.09932944364845752716064453125" lon="13.03030173294246196746826171875">
        <ele>569.4000244140625</ele>
        <time>2021-06-04T09:08:51.000Z</time>
        <extensions>
          <ns3:TrackPointExtension>
            <ns3:atemp>24.0</ns3:atemp>
          </ns3:TrackPointExtension>
        </extensions>
      </trkpt>
      <trkpt lat="43.099334053695201873779296875" lon="13.03030156530439853668212890625">
        <ele>569.20001220703125</ele>
        <time>2021-06-04T09:09:02.000Z</time>
        <extensions>
          <ns3:TrackPointExtension>
            <ns3:atemp>24.0</ns3:atemp>
          </ns3:TrackPointExtension>
        </extensions>
      </trkpt>
      <trkpt lat="43.09933430515229701995849609375" lon="13.03030223585665225982666015625">
        <ele>569.20001220703125</ele>
        <time>2021-06-04T09:09:16.000Z</time>
        <extensions>
          <ns3:TrackPointExtension>
            <ns3:atemp>24.0</ns3:atemp>
          </ns3:TrackPointExtension>
        </extensions>
      </trkpt>
      <trkpt lat="43.0993358977138996124267578125" lon="13.0303080193698406219482421875">
        <ele>569</ele>
        <time>2021-06-04T09:09:27.000Z</time>
        <extensions>
          <ns3:TrackPointExtension>
            <ns3:atemp>24.0</ns3:atemp>
          </ns3:TrackPointExtension>
        </extensions>
      </trkpt>
      <trkpt lat="43.099365569651126861572265625" lon="13.0303415469825267791748046875">
        <ele>569</ele>
        <time>2021-06-04T09:09:38.000Z</time>
        <extensions>
          <ns3:TrackPointExtension>
            <ns3:atemp>24.0</ns3:atemp>
          </ns3:TrackPointExtension>
        </extensions>
      </trkpt>
      <trkpt lat="43.0993721075356006622314453125" lon="13.03037515841424465179443359375">
        <ele>568.79998779296875</ele>
        <time>2021-06-04T09:09:41.000Z</time>
        <extensions>
          <ns3:TrackPointExtension>
            <ns3:atemp>24.0</ns3:atemp>
          </ns3:TrackPointExtension>
        </extensions>
      </trkpt>
      <trkpt lat="43.09938325546681880950927734375" lon="13.0304645933210849761962890625">
        <ele>568.5999755859375</ele>
        <time>2021-06-04T09:09:45.000Z</time>
        <extensions>
          <ns3:TrackPointExtension>
            <ns3:atemp>24.0</ns3:atemp>
          </ns3:TrackPointExtension>
        </extensions>
      </trkpt>
      <trkpt lat="43.099411167204380035400390625" lon="13.03054665215313434600830078125">
        <ele>568.20001220703125</ele>
        <time>2021-06-04T09:09:47.000Z</time>
        <extensions>
          <ns3:TrackPointExtension>
            <ns3:atemp>24.0</ns3:atemp>
          </ns3:TrackPointExtension>
        </extensions>
      </trkpt>
      <trkpt lat="43.09943740256130695343017578125" lon="13.03057833574712276458740234375">
        <ele>568</ele>
        <time>2021-06-04T09:09:48.000Z</time>
        <extensions>
          <ns3:TrackPointExtension>
            <ns3:atemp>24.0</ns3:atemp>
          </ns3:TrackPointExtension>
        </extensions>
      </trkpt>
      <trkpt lat="43.09946514666080474853515625" lon="13.0306018888950347900390625">
        <ele>567.20001220703125</ele>
        <time>2021-06-04T09:09:49.000Z</time>
        <extensions>
          <ns3:TrackPointExtension>
            <ns3:atemp>24.0</ns3:atemp>
          </ns3:TrackPointExtension>
        </extensions>
      </trkpt>
      <trkpt lat="43.0994850955903530120849609375" lon="13.03062628023326396942138671875">
        <ele>566</ele>
        <time>2021-06-04T09:09:50.000Z</time>
        <extensions>
          <ns3:TrackPointExtension>
            <ns3:atemp>24.0</ns3:atemp>
          </ns3:TrackPointExtension>
        </extensions>
      </trkpt>
      <trkpt lat="43.0995060503482818603515625" lon="13.030658550560474395751953125">
        <ele>564.4000244140625</ele>
        <time>2021-06-04T09:09:51.000Z</time>
        <extensions>
          <ns3:TrackPointExtension>
            <ns3:atemp>24.0</ns3:atemp>
          </ns3:TrackPointExtension>
        </extensions>
      </trkpt>
      <trkpt lat="43.09951971285045146942138671875" lon="13.0306882224977016448974609375">
        <ele>562.79998779296875</ele>
        <time>2021-06-04T09:09:52.000Z</time>
        <extensions>
          <ns3:TrackPointExtension>
            <ns3:atemp>24.0</ns3:atemp>
          </ns3:TrackPointExtension>
        </extensions>
      </trkpt>
      <trkpt lat="43.09952708892524242401123046875" lon="13.0307199060916900634765625">
        <ele>561.20001220703125</ele>
        <time>2021-06-04T09:09:53.000Z</time>
        <extensions>
          <ns3:TrackPointExtension>
            <ns3:atemp>24.0</ns3:atemp>
          </ns3:TrackPointExtension>
        </extensions>
      </trkpt>
      <trkpt lat="43.099540583789348602294921875" lon="13.03075821138918399810791015625">
        <ele>559.79998779296875</ele>
        <time>2021-06-04T09:09:54.000Z</time>
        <extensions>
          <ns3:TrackPointExtension>
            <ns3:atemp>24.0</ns3:atemp>
          </ns3:TrackPointExtension>
        </extensions>
      </trkpt>
      <trkpt lat="43.09955961070954799652099609375" lon="13.030781932175159454345703125">
        <ele>557.4000244140625</ele>
        <time>2021-06-04T09:09:55.000Z</time>
        <extensions>
          <ns3:TrackPointExtension>
            <ns3:atemp>24.0</ns3:atemp>
          </ns3:TrackPointExtension>
        </extensions>
      </trkpt>
      <trkpt lat="43.0995876900851726531982421875" lon="13.03079308010637760162353515625">
        <ele>556.4000244140625</ele>
        <time>2021-06-04T09:09:56.000Z</time>
        <extensions>
          <ns3:TrackPointExtension>
            <ns3:atemp>24.0</ns3:atemp>
          </ns3:TrackPointExtension>
        </extensions>
      </trkpt>
      <trkpt lat="43.09961342252790927886962890625" lon="13.030803389847278594970703125">
        <ele>555.4000244140625</ele>
        <time>2021-06-04T09:09:57.000Z</time>
        <extensions>
          <ns3:TrackPointExtension>
            <ns3:atemp>24.0</ns3:atemp>
          </ns3:TrackPointExtension>
        </extensions>
      </trkpt>
      <trkpt lat="43.09966002590954303741455078125" lon="13.030843622982501983642578125">
        <ele>554.4000244140625</ele>
        <time>2021-06-04T09:09:59.000Z</time>
        <extensions>
          <ns3:TrackPointExtension>
            <ns3:atemp>24.0</ns3:atemp>
          </ns3:TrackPointExtension>
        </extensions>
      </trkpt>
      <trkpt lat="43.0997043661773204803466796875" lon="13.0308843590319156646728515625">
        <ele>552.20001220703125</ele>
        <time>2021-06-04T09:10:01.000Z</time>
        <extensions>
          <ns3:TrackPointExtension>
            <ns3:atemp>24.0</ns3:atemp>
          </ns3:TrackPointExtension>
        </extensions>
      </trkpt>
      <trkpt lat="43.0997600220143795013427734375" lon="13.0309319682419300079345703125">
        <ele>551</ele>
        <time>2021-06-04T09:10:03.000Z</time>
        <extensions>
          <ns3:TrackPointExtension>
            <ns3:atemp>24.0</ns3:atemp>
          </ns3:TrackPointExtension>
        </extensions>
      </trkpt>
      <trkpt lat="43.09984895400702953338623046875" lon="13.031016625463962554931640625">
        <ele>550.5999755859375</ele>
        <time>2021-06-04T09:10:05.000Z</time>
        <extensions>
          <ns3:TrackPointExtension>
            <ns3:atemp>24.0</ns3:atemp>
          </ns3:TrackPointExtension>
        </extensions>
      </trkpt>
      <trkpt lat="43.09989740140736103057861328125" lon="13.03105962462723255157470703125">
        <ele>550.5999755859375</ele>
        <time>2021-06-04T09:10:06.000Z</time>
        <extensions>
          <ns3:TrackPointExtension>
            <ns3:atemp>24.0</ns3:atemp>
          </ns3:TrackPointExtension>
        </extensions>
      </trkpt>
      <trkpt lat="43.1000210344791412353515625" lon="13.0311463773250579833984375">
        <ele>550.20001220703125</ele>
        <time>2021-06-04T09:10:09.000Z</time>
        <extensions>
          <ns3:TrackPointExtension>
            <ns3:atemp>24.0</ns3:atemp>
          </ns3:TrackPointExtension>
        </extensions>
      </trkpt>
      <trkpt lat="43.100079037249088287353515625" lon="13.03116381168365478515625">
        <ele>549.20001220703125</ele>
        <time>2021-06-04T09:10:11.000Z</time>
        <extensions>
          <ns3:TrackPointExtension>
            <ns3:atemp>24.0</ns3:atemp>
          </ns3:TrackPointExtension>
        </extensions>
      </trkpt>
      <trkpt lat="43.10010644607245922088623046875" lon="13.0311656557023525238037109375">
        <ele>548.5999755859375</ele>
        <time>2021-06-04T09:10:12.000Z</time>
        <extensions>
          <ns3:TrackPointExtension>
            <ns3:atemp>24.0</ns3:atemp>
          </ns3:TrackPointExtension>
        </extensions>
      </trkpt>
      <trkpt lat="43.10015506111085414886474609375" lon="13.0312035419046878814697265625">
        <ele>548</ele>
        <time>2021-06-04T09:10:14.000Z</time>
        <extensions>
          <ns3:TrackPointExtension>
            <ns3:atemp>24.0</ns3:atemp>
          </ns3:TrackPointExtension>
        </extensions>
      </trkpt>
      <trkpt lat="43.1001861579716205596923828125" lon="13.0312080681324005126953125">
        <ele>547.79998779296875</ele>
        <time>2021-06-04T09:10:15.000Z</time>
        <extensions>
          <ns3:TrackPointExtension>
            <ns3:atemp>24.0</ns3:atemp>
          </ns3:TrackPointExtension>
        </extensions>
      </trkpt>
      <trkpt lat="43.10034499503672122955322265625" lon="13.031288869678974151611328125">
        <ele>547</ele>
        <time>2021-06-04T09:10:20.000Z</time>
        <extensions>
          <ns3:TrackPointExtension>
            <ns3:atemp>24.0</ns3:atemp>
          </ns3:TrackPointExtension>
        </extensions>
      </trkpt>
      <trkpt lat="43.10055286623537540435791015625" lon="13.03137964569032192230224609375">
        <ele>546.79998779296875</ele>
        <time>2021-06-04T09:10:26.000Z</time>
        <extensions>
          <ns3:TrackPointExtension>
            <ns3:atemp>24.0</ns3:atemp>
          </ns3:TrackPointExtension>
        </extensions>
      </trkpt>
      <trkpt lat="43.100594021379947662353515625" lon="13.0314043723046779632568359375">
        <ele>546.79998779296875</ele>
        <time>2021-06-04T09:10:27.000Z</time>
        <extensions>
          <ns3:TrackPointExtension>
            <ns3:atemp>24.0</ns3:atemp>
          </ns3:TrackPointExtension>
        </extensions>
      </trkpt>
      <trkpt lat="43.100714385509490966796875" lon="13.03146815858781337738037109375">
        <ele>546.5999755859375</ele>
        <time>2021-06-04T09:10:31.000Z</time>
        <extensions>
          <ns3:TrackPointExtension>
            <ns3:atemp>24.0</ns3:atemp>
          </ns3:TrackPointExtension>
        </extensions>
      </trkpt>
      <trkpt lat="43.1008228473365306854248046875" lon="13.0314831621944904327392578125">
        <ele>545.20001220703125</ele>
        <time>2021-06-04T09:10:34.000Z</time>
        <extensions>
          <ns3:TrackPointExtension>
            <ns3:atemp>24.0</ns3:atemp>
          </ns3:TrackPointExtension>
        </extensions>
      </trkpt>
      <trkpt lat="43.1008912436664104461669921875" lon="13.0314881913363933563232421875">
        <ele>543.79998779296875</ele>
        <time>2021-06-04T09:10:36.000Z</time>
        <extensions>
          <ns3:TrackPointExtension>
            <ns3:atemp>24.0</ns3:atemp>
          </ns3:TrackPointExtension>
        </extensions>
      </trkpt>
      <trkpt lat="43.1009294651448726654052734375" lon="13.03150000981986522674560546875">
        <ele>543.20001220703125</ele>
        <time>2021-06-04T09:10:37.000Z</time>
        <extensions>
          <ns3:TrackPointExtension>
            <ns3:atemp>24.0</ns3:atemp>
          </ns3:TrackPointExtension>
        </extensions>
      </trkpt>
      <trkpt lat="43.10096911154687404632568359375" lon="13.03151694126427173614501953125">
        <ele>542.5999755859375</ele>
        <time>2021-06-04T09:10:38.000Z</time>
        <extensions>
          <ns3:TrackPointExtension>
            <ns3:atemp>24.0</ns3:atemp>
          </ns3:TrackPointExtension>
        </extensions>
      </trkpt>
      <trkpt lat="43.1010226719081401824951171875" lon="13.031539656221866607666015625">
        <ele>541</ele>
        <time>2021-06-04T09:10:40.000Z</time>
        <extensions>
          <ns3:TrackPointExtension>
            <ns3:atemp>24.0</ns3:atemp>
          </ns3:TrackPointExtension>
        </extensions>
      </trkpt>
      <trkpt lat="43.1010826863348484039306640625" lon="13.03155315108597278594970703125">
        <ele>539.4000244140625</ele>
        <time>2021-06-04T09:10:42.000Z</time>
        <extensions>
          <ns3:TrackPointExtension>
            <ns3:atemp>24.0</ns3:atemp>
          </ns3:TrackPointExtension>
        </extensions>
      </trkpt>
      <trkpt lat="43.10113389976322650909423828125" lon="13.03155985660851001739501953125">
        <ele>538.20001220703125</ele>
        <time>2021-06-04T09:10:44.000Z</time>
        <extensions>
          <ns3:TrackPointExtension>
            <ns3:atemp>24.0</ns3:atemp>
          </ns3:TrackPointExtension>
        </extensions>
      </trkpt>
      <trkpt lat="43.1011839397251605987548828125" lon="13.0315622873604297637939453125">
        <ele>537</ele>
        <time>2021-06-04T09:10:46.000Z</time>
        <extensions>
          <ns3:TrackPointExtension>
            <ns3:atemp>24.0</ns3:atemp>
          </ns3:TrackPointExtension>
        </extensions>
      </trkpt>
      <trkpt lat="43.101245462894439697265625" lon="13.03156438283622264862060546875">
        <ele>535.79998779296875</ele>
        <time>2021-06-04T09:10:48.000Z</time>
        <extensions>
          <ns3:TrackPointExtension>
            <ns3:atemp>24.0</ns3:atemp>
          </ns3:TrackPointExtension>
        </extensions>
      </trkpt>
      <trkpt lat="43.1013240851461887359619140625" lon="13.031559102237224578857421875">
        <ele>534.4000244140625</ele>
        <time>2021-06-04T09:10:50.000Z</time>
        <extensions>
          <ns3:TrackPointExtension>
            <ns3:atemp>24.0</ns3:atemp>
          </ns3:TrackPointExtension>
        </extensions>
      </trkpt>
      <trkpt lat="43.10140295885503292083740234375" lon="13.03159120492637157440185546875">
        <ele>533</ele>
        <time>2021-06-04T09:10:52.000Z</time>
        <extensions>
          <ns3:TrackPointExtension>
            <ns3:atemp>24.0</ns3:atemp>
          </ns3:TrackPointExtension>
        </extensions>
      </trkpt>
      <trkpt lat="43.10143196024000644683837890625" lon="13.03161735646426677703857421875">
        <ele>530.79998779296875</ele>
        <time>2021-06-04T09:10:53.000Z</time>
        <extensions>
          <ns3:TrackPointExtension>
            <ns3:atemp>24.0</ns3:atemp>
          </ns3:TrackPointExtension>
        </extensions>
      </trkpt>
      <trkpt lat="43.1014667451381683349609375" lon="13.03164635784924030303955078125">
        <ele>529.20001220703125</ele>
        <time>2021-06-04T09:10:54.000Z</time>
        <extensions>
          <ns3:TrackPointExtension>
            <ns3:atemp>24.0</ns3:atemp>
          </ns3:TrackPointExtension>
        </extensions>
      </trkpt>
      <trkpt lat="43.1014970876276493072509765625" lon="13.03167167119681835174560546875">
        <ele>527.4000244140625</ele>
        <time>2021-06-04T09:10:55.000Z</time>
        <extensions>
          <ns3:TrackPointExtension>
            <ns3:atemp>24.0</ns3:atemp>
          </ns3:TrackPointExtension>
        </extensions>
      </trkpt>
      <trkpt lat="43.10153941623866558074951171875" lon="13.03171223960816860198974609375">
        <ele>525.5999755859375</ele>
        <time>2021-06-04T09:10:56.000Z</time>
        <extensions>
          <ns3:TrackPointExtension>
            <ns3:atemp>24.0</ns3:atemp>
          </ns3:TrackPointExtension>
        </extensions>
      </trkpt>
      <trkpt lat="43.10160244815051555633544921875" lon="13.03174325264990329742431640625">
        <ele>524</ele>
        <time>2021-06-04T09:10:57.000Z</time>
        <extensions>
          <ns3:TrackPointExtension>
            <ns3:atemp>24.0</ns3:atemp>
          </ns3:TrackPointExtension>
        </extensions>
      </trkpt>
      <trkpt lat="43.10166162438690662384033203125" lon="13.0317718349397182464599609375">
        <ele>522.79998779296875</ele>
        <time>2021-06-04T09:10:58.000Z</time>
        <extensions>
          <ns3:TrackPointExtension>
            <ns3:atemp>24.0</ns3:atemp>
          </ns3:TrackPointExtension>
        </extensions>
      </trkpt>
      <trkpt lat="43.10173454694449901580810546875" lon="13.03178985603153705596923828125">
        <ele>521.4000244140625</ele>
        <time>2021-06-04T09:10:59.000Z</time>
        <extensions>
          <ns3:TrackPointExtension>
            <ns3:atemp>24.0</ns3:atemp>
          </ns3:TrackPointExtension>
        </extensions>
      </trkpt>
      <trkpt lat="43.1017951481044292449951171875" lon="13.0318062007427215576171875">
        <ele>520.20001220703125</ele>
        <time>2021-06-04T09:11:00.000Z</time>
        <extensions>
          <ns3:TrackPointExtension>
            <ns3:atemp>24.0</ns3:atemp>
          </ns3:TrackPointExtension>
        </extensions>
      </trkpt>
      <trkpt lat="43.1018390692770481109619140625" lon="13.031820952892303466796875">
        <ele>518.79998779296875</ele>
        <time>2021-06-04T09:11:01.000Z</time>
        <extensions>
          <ns3:TrackPointExtension>
            <ns3:atemp>24.0</ns3:atemp>
          </ns3:TrackPointExtension>
        </extensions>
      </trkpt>
      <trkpt lat="43.1018779613077640533447265625" lon="13.03183411248028278350830078125">
        <ele>517.5999755859375</ele>
        <time>2021-06-04T09:11:02.000Z</time>
        <extensions>
          <ns3:TrackPointExtension>
            <ns3:atemp>24.0</ns3:atemp>
          </ns3:TrackPointExtension>
        </extensions>
      </trkpt>
      <trkpt lat="43.101906292140483856201171875" lon="13.03184844553470611572265625">
        <ele>516.20001220703125</ele>
        <time>2021-06-04T09:11:03.000Z</time>
        <extensions>
          <ns3:TrackPointExtension>
            <ns3:atemp>24.0</ns3:atemp>
          </ns3:TrackPointExtension>
        </extensions>
      </trkpt>
      <trkpt lat="43.10193470679223537445068359375" lon="13.03185406140983104705810546875">
        <ele>515</ele>
        <time>2021-06-04T09:11:04.000Z</time>
        <extensions>
          <ns3:TrackPointExtension>
            <ns3:atemp>24.0</ns3:atemp>
          </ns3:TrackPointExtension>
        </extensions>
      </trkpt>
      <trkpt lat="43.1019601039588451385498046875" lon="13.0318590067327022552490234375">
        <ele>513.79998779296875</ele>
        <time>2021-06-04T09:11:05.000Z</time>
        <extensions>
          <ns3:TrackPointExtension>
            <ns3:atemp>24.0</ns3:atemp>
          </ns3:TrackPointExtension>
        </extensions>
      </trkpt>
      <trkpt lat="43.1019805558025836944580078125" lon="13.03186319768428802490234375">
        <ele>512.4000244140625</ele>
        <time>2021-06-04T09:11:06.000Z</time>
        <extensions>
          <ns3:TrackPointExtension>
            <ns3:atemp>24.0</ns3:atemp>
          </ns3:TrackPointExtension>
        </extensions>
      </trkpt>
      <trkpt lat="43.10200109146535396575927734375" lon="13.03186587989330291748046875">
        <ele>511.20001220703125</ele>
        <time>2021-06-04T09:11:07.000Z</time>
        <extensions>
          <ns3:TrackPointExtension>
            <ns3:atemp>24.0</ns3:atemp>
          </ns3:TrackPointExtension>
        </extensions>
      </trkpt>
      <trkpt lat="43.10201215557754039764404296875" lon="13.03186629898846149444580078125">
        <ele>510</ele>
        <time>2021-06-04T09:11:08.000Z</time>
        <extensions>
          <ns3:TrackPointExtension>
            <ns3:atemp>24.0</ns3:atemp>
          </ns3:TrackPointExtension>
        </extensions>
      </trkpt>
      <trkpt lat="43.10202422551810741424560546875" lon="13.0318670533597469329833984375">
        <ele>508.20001220703125</ele>
        <time>2021-06-04T09:11:10.000Z</time>
        <extensions>
          <ns3:TrackPointExtension>
            <ns3:atemp>24.0</ns3:atemp>
          </ns3:TrackPointExtension>
        </extensions>
      </trkpt>
      <trkpt lat="43.10202472843229770660400390625" lon="13.03186730481684207916259765625">
        <ele>507</ele>
        <time>2021-06-04T09:11:12.000Z</time>
        <extensions>
          <ns3:TrackPointExtension>
            <ns3:atemp>24.0</ns3:atemp>
          </ns3:TrackPointExtension>
        </extensions>
      </trkpt>
      <trkpt lat="43.10202640481293201446533203125" lon="13.0318670533597469329833984375">
        <ele>506</ele>
        <time>2021-06-04T09:11:19.000Z</time>
        <extensions>
          <ns3:TrackPointExtension>
            <ns3:atemp>23.0</ns3:atemp>
          </ns3:TrackPointExtension>
        </extensions>
      </trkpt>
      <trkpt lat="43.10202674008905887603759765625" lon="13.03186713717877864837646484375">
        <ele>506</ele>
        <time>2021-06-04T09:11:20.000Z</time>
        <extensions>
          <ns3:TrackPointExtension>
            <ns3:atemp>23.0</ns3:atemp>
          </ns3:TrackPointExtension>
        </extensions>
      </trkpt>
      <trkpt lat="43.10207636095583438873291015625" lon="13.03188608027994632720947265625">
        <ele>506</ele>
        <time>2021-06-04T09:11:24.000Z</time>
        <extensions>
          <ns3:TrackPointExtension>
            <ns3:atemp>24.0</ns3:atemp>
          </ns3:TrackPointExtension>
        </extensions>
      </trkpt>
      <trkpt lat="43.10211793519556522369384765625" lon="13.0318945460021495819091796875">
        <ele>506</ele>
        <time>2021-06-04T09:11:25.000Z</time>
        <extensions>
          <ns3:TrackPointExtension>
            <ns3:atemp>24.0</ns3:atemp>
          </ns3:TrackPointExtension>
        </extensions>
      </trkpt>
      <trkpt lat="43.10228171758353710174560546875" lon="13.0319270677864551544189453125">
        <ele>506</ele>
        <time>2021-06-04T09:11:28.000Z</time>
        <extensions>
          <ns3:TrackPointExtension>
            <ns3:atemp>24.0</ns3:atemp>
          </ns3:TrackPointExtension>
        </extensions>
      </trkpt>
      <trkpt lat="43.10245446860790252685546875" lon="13.0319575779139995574951171875">
        <ele>505.399993896484375</ele>
        <time>2021-06-04T09:11:31.000Z</time>
        <extensions>
          <ns3:TrackPointExtension>
            <ns3:atemp>24.0</ns3:atemp>
          </ns3:TrackPointExtension>
        </extensions>
      </trkpt>
      <trkpt lat="43.10249763540923595428466796875" lon="13.03195162676274776458740234375">
        <ele>504.399993896484375</ele>
        <time>2021-06-04T09:11:32.000Z</time>
        <extensions>
          <ns3:TrackPointExtension>
            <ns3:atemp>24.0</ns3:atemp>
          </ns3:TrackPointExtension>
        </extensions>
      </trkpt>
      <trkpt lat="43.10252076946198940277099609375" lon="13.03193159401416778564453125">
        <ele>503</ele>
        <time>2021-06-04T09:11:33.000Z</time>
        <extensions>
          <ns3:TrackPointExtension>
            <ns3:atemp>24.0</ns3:atemp>
          </ns3:TrackPointExtension>
        </extensions>
      </trkpt>
      <trkpt lat="43.10252814553678035736083984375" lon="13.0319042690098285675048828125">
        <ele>501.600006103515625</ele>
        <time>2021-06-04T09:11:34.000Z</time>
        <extensions>
          <ns3:TrackPointExtension>
            <ns3:atemp>24.0</ns3:atemp>
          </ns3:TrackPointExtension>
        </extensions>
      </trkpt>
      <trkpt lat="43.10253334231674671173095703125" lon="13.03187300451099872589111328125">
        <ele>500</ele>
        <time>2021-06-04T09:11:35.000Z</time>
        <extensions>
          <ns3:TrackPointExtension>
            <ns3:atemp>24.0</ns3:atemp>
          </ns3:TrackPointExtension>
        </extensions>
      </trkpt>
      <trkpt lat="43.102539293467998504638671875" lon="13.0318415723741054534912109375">
        <ele>498.399993896484375</ele>
        <time>2021-06-04T09:11:36.000Z</time>
        <extensions>
          <ns3:TrackPointExtension>
            <ns3:atemp>24.0</ns3:atemp>
          </ns3:TrackPointExtension>
        </extensions>
      </trkpt>
      <trkpt lat="43.10254474170506000518798828125" lon="13.03180863149464130401611328125">
        <ele>497</ele>
        <time>2021-06-04T09:11:37.000Z</time>
        <extensions>
          <ns3:TrackPointExtension>
            <ns3:atemp>24.0</ns3:atemp>
          </ns3:TrackPointExtension>
        </extensions>
      </trkpt>
      <trkpt lat="43.10254893265664577484130859375" lon="13.03177342750132083892822265625">
        <ele>495.399993896484375</ele>
        <time>2021-06-04T09:11:38.000Z</time>
        <extensions>
          <ns3:TrackPointExtension>
            <ns3:atemp>24.0</ns3:atemp>
          </ns3:TrackPointExtension>
        </extensions>
      </trkpt>
      <trkpt lat="43.10254826210439205169677734375" lon="13.03173235617578029632568359375">
        <ele>494.399993896484375</ele>
        <time>2021-06-04T09:11:39.000Z</time>
        <extensions>
          <ns3:TrackPointExtension>
            <ns3:atemp>24.0</ns3:atemp>
          </ns3:TrackPointExtension>
        </extensions>
      </trkpt>
      <trkpt lat="43.10255446471273899078369140625" lon="13.0316184461116790771484375">
        <ele>493.399993896484375</ele>
        <time>2021-06-04T09:11:41.000Z</time>
        <extensions>
          <ns3:TrackPointExtension>
            <ns3:atemp>24.0</ns3:atemp>
          </ns3:TrackPointExtension>
        </extensions>
      </trkpt>
      <trkpt lat="43.10255907475948333740234375" lon="13.03154577501118183135986328125">
        <ele>493.20001220703125</ele>
        <time>2021-06-04T09:11:42.000Z</time>
        <extensions>
          <ns3:TrackPointExtension>
            <ns3:atemp>24.0</ns3:atemp>
          </ns3:TrackPointExtension>
        </extensions>
      </trkpt>
      <trkpt lat="43.1025689654052257537841796875" lon="13.03140051662921905517578125">
        <ele>492.79998779296875</ele>
        <time>2021-06-04T09:11:44.000Z</time>
        <extensions>
          <ns3:TrackPointExtension>
            <ns3:atemp>24.0</ns3:atemp>
          </ns3:TrackPointExtension>
        </extensions>
      </trkpt>
      <trkpt lat="43.1025833822786808013916015625" lon="13.0312697589397430419921875">
        <ele>492.600006103515625</ele>
        <time>2021-06-04T09:11:46.000Z</time>
        <extensions>
          <ns3:TrackPointExtension>
            <ns3:atemp>24.0</ns3:atemp>
          </ns3:TrackPointExtension>
        </extensions>
      </trkpt>
      <trkpt lat="43.10258321464061737060546875" lon="13.03121988661587238311767578125">
        <ele>492.399993896484375</ele>
        <time>2021-06-04T09:11:47.000Z</time>
        <extensions>
          <ns3:TrackPointExtension>
            <ns3:atemp>24.0</ns3:atemp>
          </ns3:TrackPointExtension>
        </extensions>
      </trkpt>
      <trkpt lat="43.102584220468997955322265625" lon="13.0311812460422515869140625">
        <ele>492</ele>
        <time>2021-06-04T09:11:48.000Z</time>
        <extensions>
          <ns3:TrackPointExtension>
            <ns3:atemp>24.0</ns3:atemp>
          </ns3:TrackPointExtension>
        </extensions>
      </trkpt>
      <trkpt lat="43.10260224156081676483154296875" lon="13.03114704787731170654296875">
        <ele>491</ele>
        <time>2021-06-04T09:11:49.000Z</time>
        <extensions>
          <ns3:TrackPointExtension>
            <ns3:atemp>24.0</ns3:atemp>
          </ns3:TrackPointExtension>
        </extensions>
      </trkpt>
      <trkpt lat="43.10263090766966342926025390625" lon="13.03111712448298931121826171875">
        <ele>490</ele>
        <time>2021-06-04T09:11:50.000Z</time>
        <extensions>
          <ns3:TrackPointExtension>
            <ns3:atemp>24.0</ns3:atemp>
          </ns3:TrackPointExtension>
        </extensions>
      </trkpt>
      <trkpt lat="43.10266393236815929412841796875" lon="13.03108946420252323150634765625">
        <ele>488.79998779296875</ele>
        <time>2021-06-04T09:11:51.000Z</time>
        <extensions>
          <ns3:TrackPointExtension>
            <ns3:atemp>24.0</ns3:atemp>
          </ns3:TrackPointExtension>
        </extensions>
      </trkpt>
      <trkpt lat="43.1026923470199108123779296875" lon="13.0310657434165477752685546875">
        <ele>486.399993896484375</ele>
        <time>2021-06-04T09:11:52.000Z</time>
        <extensions>
          <ns3:TrackPointExtension>
            <ns3:atemp>24.0</ns3:atemp>
          </ns3:TrackPointExtension>
        </extensions>
      </trkpt>
      <trkpt lat="43.10272193513810634613037109375" lon="13.03105258382856845855712890625">
        <ele>485.600006103515625</ele>
        <time>2021-06-04T09:11:53.000Z</time>
        <extensions>
          <ns3:TrackPointExtension>
            <ns3:atemp>24.0</ns3:atemp>
          </ns3:TrackPointExtension>
        </extensions>
      </trkpt>
      <trkpt lat="43.102741129696369171142578125" lon="13.03106582723557949066162109375">
        <ele>485.20001220703125</ele>
        <time>2021-06-04T09:11:54.000Z</time>
        <extensions>
          <ns3:TrackPointExtension>
            <ns3:atemp>24.0</ns3:atemp>
          </ns3:TrackPointExtension>
        </extensions>
      </trkpt>
      <trkpt lat="43.102823607623577117919921875" lon="13.0311814136803150177001953125">
        <ele>483.600006103515625</ele>
        <time>2021-06-04T09:11:58.000Z</time>
        <extensions>
          <ns3:TrackPointExtension>
            <ns3:atemp>24.0</ns3:atemp>
          </ns3:TrackPointExtension>
        </extensions>
      </trkpt>
      <trkpt lat="43.10290298424661159515380859375" lon="13.03128023631870746612548828125">
        <ele>482.600006103515625</ele>
        <time>2021-06-04T09:12:00.000Z</time>
        <extensions>
          <ns3:TrackPointExtension>
            <ns3:atemp>24.0</ns3:atemp>
          </ns3:TrackPointExtension>
        </extensions>
      </trkpt>
      <trkpt lat="43.1029800139367580413818359375" lon="13.03136564791202545166015625">
        <ele>481.399993896484375</ele>
        <time>2021-06-04T09:12:02.000Z</time>
        <extensions>
          <ns3:TrackPointExtension>
            <ns3:atemp>24.0</ns3:atemp>
          </ns3:TrackPointExtension>
        </extensions>
      </trkpt>
      <trkpt lat="43.103007338941097259521484375" lon="13.0313802324235439300537109375">
        <ele>480.79998779296875</ele>
        <time>2021-06-04T09:12:03.000Z</time>
        <extensions>
          <ns3:TrackPointExtension>
            <ns3:atemp>24.0</ns3:atemp>
          </ns3:TrackPointExtension>
        </extensions>
      </trkpt>
      <trkpt lat="43.10303105972707271575927734375" lon="13.03137361072003841400146484375">
        <ele>480.399993896484375</ele>
        <time>2021-06-04T09:12:04.000Z</time>
        <extensions>
          <ns3:TrackPointExtension>
            <ns3:atemp>24.0</ns3:atemp>
          </ns3:TrackPointExtension>
        </extensions>
      </trkpt>
      <trkpt lat="43.10305151157081127166748046875" lon="13.0313651449978351593017578125">
        <ele>480</ele>
        <time>2021-06-04T09:12:05.000Z</time>
        <extensions>
          <ns3:TrackPointExtension>
            <ns3:atemp>24.0</ns3:atemp>
          </ns3:TrackPointExtension>
        </extensions>
      </trkpt>
      <trkpt lat="43.10306743718683719635009765625" lon="13.0313691683113574981689453125">
        <ele>479.20001220703125</ele>
        <time>2021-06-04T09:12:06.000Z</time>
        <extensions>
          <ns3:TrackPointExtension>
            <ns3:atemp>24.0</ns3:atemp>
          </ns3:TrackPointExtension>
        </extensions>
      </trkpt>
      <trkpt lat="43.10309124179184436798095703125" lon="13.0314097367227077484130859375">
        <ele>477</ele>
        <time>2021-06-04T09:12:08.000Z</time>
        <extensions>
          <ns3:TrackPointExtension>
            <ns3:atemp>24.0</ns3:atemp>
          </ns3:TrackPointExtension>
        </extensions>
      </trkpt>
      <trkpt lat="43.10311605222523212432861328125" lon="13.03143999539315700531005859375">
        <ele>476.399993896484375</ele>
        <time>2021-06-04T09:12:09.000Z</time>
        <extensions>
          <ns3:TrackPointExtension>
            <ns3:atemp>24.0</ns3:atemp>
          </ns3:TrackPointExtension>
        </extensions>
      </trkpt>
      <trkpt lat="43.1031939201056957244873046875" lon="13.0315334536135196685791015625">
        <ele>475.79998779296875</ele>
        <time>2021-06-04T09:12:11.000Z</time>
        <extensions>
          <ns3:TrackPointExtension>
            <ns3:atemp>24.0</ns3:atemp>
          </ns3:TrackPointExtension>
        </extensions>
      </trkpt>
      <trkpt lat="43.103233315050601959228515625" lon="13.03158449940383434295654296875">
        <ele>475.600006103515625</ele>
        <time>2021-06-04T09:12:12.000Z</time>
        <extensions>
          <ns3:TrackPointExtension>
            <ns3:atemp>24.0</ns3:atemp>
          </ns3:TrackPointExtension>
        </extensions>
      </trkpt>
      <trkpt lat="43.10344160534441471099853515625" lon="13.03183847106993198394775390625">
        <ele>474.600006103515625</ele>
        <time>2021-06-04T09:12:17.000Z</time>
        <extensions>
          <ns3:TrackPointExtension>
            <ns3:atemp>24.0</ns3:atemp>
          </ns3:TrackPointExtension>
        </extensions>
      </trkpt>
      <trkpt lat="43.103533722460269927978515625" lon="13.03193402476608753204345703125">
        <ele>473.600006103515625</ele>
        <time>2021-06-04T09:12:19.000Z</time>
        <extensions>
          <ns3:TrackPointExtension>
            <ns3:atemp>24.0</ns3:atemp>
          </ns3:TrackPointExtension>
        </extensions>
      </trkpt>
      <trkpt lat="43.10362567193806171417236328125" lon="13.0320125631988048553466796875">
        <ele>471.399993896484375</ele>
        <time>2021-06-04T09:12:21.000Z</time>
        <extensions>
          <ns3:TrackPointExtension>
            <ns3:atemp>24.0</ns3:atemp>
          </ns3:TrackPointExtension>
        </extensions>
      </trkpt>
      <trkpt lat="43.1036737002432346343994140625" lon="13.0320527963340282440185546875">
        <ele>471</ele>
        <time>2021-06-04T09:12:22.000Z</time>
        <extensions>
          <ns3:TrackPointExtension>
            <ns3:atemp>24.0</ns3:atemp>
          </ns3:TrackPointExtension>
        </extensions>
      </trkpt>
      <trkpt lat="43.1037243269383907318115234375" lon="13.03209680132567882537841796875">
        <ele>470.399993896484375</ele>
        <time>2021-06-04T09:12:23.000Z</time>
        <extensions>
          <ns3:TrackPointExtension>
            <ns3:atemp>24.0</ns3:atemp>
          </ns3:TrackPointExtension>
        </extensions>
      </trkpt>
      <trkpt lat="43.1037716008722782135009765625" lon="13.03213946521282196044921875">
        <ele>470</ele>
        <time>2021-06-04T09:12:24.000Z</time>
        <extensions>
          <ns3:TrackPointExtension>
            <ns3:atemp>24.0</ns3:atemp>
          </ns3:TrackPointExtension>
        </extensions>
      </trkpt>
      <trkpt lat="43.103846870362758636474609375" lon="13.032232336699962615966796875">
        <ele>468.79998779296875</ele>
        <time>2021-06-04T09:12:26.000Z</time>
        <extensions>
          <ns3:TrackPointExtension>
            <ns3:atemp>24.0</ns3:atemp>
          </ns3:TrackPointExtension>
        </extensions>
      </trkpt>
      <trkpt lat="43.1038966588675975799560546875" lon="13.03233484737575054168701171875">
        <ele>467.79998779296875</ele>
        <time>2021-06-04T09:12:28.000Z</time>
        <extensions>
          <ns3:TrackPointExtension>
            <ns3:atemp>24.0</ns3:atemp>
          </ns3:TrackPointExtension>
        </extensions>
      </trkpt>
      <trkpt lat="43.10393664054572582244873046875" lon="13.03242369554936885833740234375">
        <ele>466.600006103515625</ele>
        <time>2021-06-04T09:12:30.000Z</time>
        <extensions>
          <ns3:TrackPointExtension>
            <ns3:atemp>24.0</ns3:atemp>
          </ns3:TrackPointExtension>
        </extensions>
      </trkpt>
      <trkpt lat="43.10399062000215053558349609375" lon="13.03250952623784542083740234375">
        <ele>465.20001220703125</ele>
        <time>2021-06-04T09:12:32.000Z</time>
        <extensions>
          <ns3:TrackPointExtension>
            <ns3:atemp>24.0</ns3:atemp>
          </ns3:TrackPointExtension>
        </extensions>
      </trkpt>
      <trkpt lat="43.104026578366756439208984375" lon="13.032550178468227386474609375">
        <ele>464.79998779296875</ele>
        <time>2021-06-04T09:12:33.000Z</time>
        <extensions>
          <ns3:TrackPointExtension>
            <ns3:atemp>24.0</ns3:atemp>
          </ns3:TrackPointExtension>
        </extensions>
      </trkpt>
      <trkpt lat="43.104066811501979827880859375" lon="13.03258496336638927459716796875">
        <ele>464.399993896484375</ele>
        <time>2021-06-04T09:12:34.000Z</time>
        <extensions>
          <ns3:TrackPointExtension>
            <ns3:atemp>24.0</ns3:atemp>
          </ns3:TrackPointExtension>
        </extensions>
      </trkpt>
      <trkpt lat="43.10417686589062213897705078125" lon="13.032724522054195404052734375">
        <ele>463</ele>
        <time>2021-06-04T09:12:38.000Z</time>
        <extensions>
          <ns3:TrackPointExtension>
            <ns3:atemp>24.0</ns3:atemp>
          </ns3:TrackPointExtension>
        </extensions>
      </trkpt>
      <trkpt lat="43.10426294803619384765625" lon="13.03290531970560550689697265625">
        <ele>461.79998779296875</ele>
        <time>2021-06-04T09:12:42.000Z</time>
        <extensions>
          <ns3:TrackPointExtension>
            <ns3:atemp>24.0</ns3:atemp>
          </ns3:TrackPointExtension>
        </extensions>
      </trkpt>
      <trkpt lat="43.10429982841014862060546875" lon="13.03294471465051174163818359375">
        <ele>461.399993896484375</ele>
        <time>2021-06-04T09:12:43.000Z</time>
        <extensions>
          <ns3:TrackPointExtension>
            <ns3:atemp>24.0</ns3:atemp>
          </ns3:TrackPointExtension>
        </extensions>
      </trkpt>
      <trkpt lat="43.10437685810029506683349609375" lon="13.0330378375947475433349609375">
        <ele>460.600006103515625</ele>
        <time>2021-06-04T09:12:45.000Z</time>
        <extensions>
          <ns3:TrackPointExtension>
            <ns3:atemp>24.0</ns3:atemp>
          </ns3:TrackPointExtension>
        </extensions>
      </trkpt>
      <trkpt lat="43.10440166853368282318115234375" lon="13.03306507878005504608154296875">
        <ele>460.20001220703125</ele>
        <time>2021-06-04T09:12:46.000Z</time>
        <extensions>
          <ns3:TrackPointExtension>
            <ns3:atemp>24.0</ns3:atemp>
          </ns3:TrackPointExtension>
        </extensions>
      </trkpt>
      <trkpt lat="43.1044428236782550811767578125" lon="13.03310464136302471160888671875">
        <ele>459</ele>
        <time>2021-06-04T09:12:50.000Z</time>
        <extensions>
          <ns3:TrackPointExtension>
            <ns3:atemp>24.0</ns3:atemp>
          </ns3:TrackPointExtension>
        </extensions>
      </trkpt>
      <trkpt lat="43.1044807098805904388427734375" lon="13.0331555195152759552001953125">
        <ele>458.20001220703125</ele>
        <time>2021-06-04T09:13:00.000Z</time>
        <extensions>
          <ns3:TrackPointExtension>
            <ns3:atemp>24.0</ns3:atemp>
          </ns3:TrackPointExtension>
        </extensions>
      </trkpt>
      <trkpt lat="43.10462362132966518402099609375" lon="13.03320069797337055206298828125">
        <ele>458.20001220703125</ele>
        <time>2021-06-04T09:13:04.000Z</time>
        <extensions>
          <ns3:TrackPointExtension>
            <ns3:atemp>24.0</ns3:atemp>
          </ns3:TrackPointExtension>
        </extensions>
      </trkpt>
      <trkpt lat="43.104745410382747650146484375" lon="13.03322316147387027740478515625">
        <ele>458.20001220703125</ele>
        <time>2021-06-04T09:13:07.000Z</time>
        <extensions>
          <ns3:TrackPointExtension>
            <ns3:atemp>24.0</ns3:atemp>
          </ns3:TrackPointExtension>
        </extensions>
      </trkpt>
      <trkpt lat="43.104787655174732208251953125" lon="13.03322886116802692413330078125">
        <ele>458</ele>
        <time>2021-06-04T09:13:08.000Z</time>
        <extensions>
          <ns3:TrackPointExtension>
            <ns3:atemp>24.0</ns3:atemp>
          </ns3:TrackPointExtension>
        </extensions>
      </trkpt>
      <trkpt lat="43.1048243679106235504150390625" lon="13.03323380649089813232421875">
        <ele>457.600006103515625</ele>
        <time>2021-06-04T09:13:09.000Z</time>
        <extensions>
          <ns3:TrackPointExtension>
            <ns3:atemp>24.0</ns3:atemp>
          </ns3:TrackPointExtension>
        </extensions>
      </trkpt>
      <trkpt lat="43.1049026548862457275390625" lon="13.0332497321069240570068359375">
        <ele>456.79998779296875</ele>
        <time>2021-06-04T09:13:11.000Z</time>
        <extensions>
          <ns3:TrackPointExtension>
            <ns3:atemp>24.0</ns3:atemp>
          </ns3:TrackPointExtension>
        </extensions>
      </trkpt>
      <trkpt lat="43.1050312332808971405029296875" lon="13.03328384645283222198486328125">
        <ele>456</ele>
        <time>2021-06-04T09:13:14.000Z</time>
        <extensions>
          <ns3:TrackPointExtension>
            <ns3:atemp>24.0</ns3:atemp>
          </ns3:TrackPointExtension>
        </extensions>
      </trkpt>
      <trkpt lat="43.105070628225803375244140625" lon="13.0333084054291248321533203125">
        <ele>456</ele>
        <time>2021-06-04T09:13:15.000Z</time>
        <extensions>
          <ns3:TrackPointExtension>
            <ns3:atemp>24.0</ns3:atemp>
          </ns3:TrackPointExtension>
        </extensions>
      </trkpt>
      <trkpt lat="43.1051492504775524139404296875" lon="13.0333814956247806549072265625">
        <ele>455.79998779296875</ele>
        <time>2021-06-04T09:13:17.000Z</time>
        <extensions>
          <ns3:TrackPointExtension>
            <ns3:atemp>24.0</ns3:atemp>
          </ns3:TrackPointExtension>
        </extensions>
      </trkpt>
      <trkpt lat="43.1052325665950775146484375" lon="13.0334659852087497711181640625">
        <ele>455.399993896484375</ele>
        <time>2021-06-04T09:13:19.000Z</time>
        <extensions>
          <ns3:TrackPointExtension>
            <ns3:atemp>24.0</ns3:atemp>
          </ns3:TrackPointExtension>
        </extensions>
      </trkpt>
      <trkpt lat="43.10527204535901546478271484375" lon="13.03349406458437442779541015625">
        <ele>455.399993896484375</ele>
        <time>2021-06-04T09:13:20.000Z</time>
        <extensions>
          <ns3:TrackPointExtension>
            <ns3:atemp>24.0</ns3:atemp>
          </ns3:TrackPointExtension>
        </extensions>
      </trkpt>
      <trkpt lat="43.10537648387253284454345703125" lon="13.0335219763219356536865234375">
        <ele>455</ele>
        <time>2021-06-04T09:13:23.000Z</time>
        <extensions>
          <ns3:TrackPointExtension>
            <ns3:atemp>24.0</ns3:atemp>
          </ns3:TrackPointExtension>
        </extensions>
      </trkpt>
      <trkpt lat="43.10543348081409931182861328125" lon="13.033509738743305206298828125">
        <ele>454.600006103515625</ele>
        <time>2021-06-04T09:13:25.000Z</time>
        <extensions>
          <ns3:TrackPointExtension>
            <ns3:atemp>24.0</ns3:atemp>
          </ns3:TrackPointExtension>
        </extensions>
      </trkpt>
      <trkpt lat="43.10548678971827030181884765625" lon="13.0334676615893840789794921875">
        <ele>454.20001220703125</ele>
        <time>2021-06-04T09:13:27.000Z</time>
        <extensions>
          <ns3:TrackPointExtension>
            <ns3:atemp>24.0</ns3:atemp>
          </ns3:TrackPointExtension>
        </extensions>
      </trkpt>
      <trkpt lat="43.105579577386379241943359375" lon="13.03334872238337993621826171875">
        <ele>454.20001220703125</ele>
        <time>2021-06-04T09:13:31.000Z</time>
        <extensions>
          <ns3:TrackPointExtension>
            <ns3:atemp>24.0</ns3:atemp>
          </ns3:TrackPointExtension>
        </extensions>
      </trkpt>
      <trkpt lat="43.10562978498637676239013671875" lon="13.03327596746385097503662109375">
        <ele>454.20001220703125</ele>
        <time>2021-06-04T09:13:33.000Z</time>
        <extensions>
          <ns3:TrackPointExtension>
            <ns3:atemp>24.0</ns3:atemp>
          </ns3:TrackPointExtension>
        </extensions>
      </trkpt>
      <trkpt lat="43.1057232432067394256591796875" lon="13.03317689336836338043212890625">
        <ele>454.399993896484375</ele>
        <time>2021-06-04T09:13:36.000Z</time>
        <extensions>
          <ns3:TrackPointExtension>
            <ns3:atemp>24.0</ns3:atemp>
          </ns3:TrackPointExtension>
        </extensions>
      </trkpt>
      <trkpt lat="43.10579675249755382537841796875" lon="13.03310279734432697296142578125">
        <ele>454.20001220703125</ele>
        <time>2021-06-04T09:13:38.000Z</time>
        <extensions>
          <ns3:TrackPointExtension>
            <ns3:atemp>24.0</ns3:atemp>
          </ns3:TrackPointExtension>
        </extensions>
      </trkpt>
      <trkpt lat="43.105924911797046661376953125" lon="13.0329845286905765533447265625">
        <ele>453.79998779296875</ele>
        <time>2021-06-04T09:13:43.000Z</time>
        <extensions>
          <ns3:TrackPointExtension>
            <ns3:atemp>25.0</ns3:atemp>
          </ns3:TrackPointExtension>
        </extensions>
      </trkpt>
      <trkpt lat="43.105934970080852508544921875" lon="13.03297354839742183685302734375">
        <ele>453.399993896484375</ele>
        <time>2021-06-04T09:13:44.000Z</time>
        <extensions>
          <ns3:TrackPointExtension>
            <ns3:atemp>25.0</ns3:atemp>
          </ns3:TrackPointExtension>
        </extensions>
      </trkpt>
      <trkpt lat="43.10594041831791400909423828125" lon="13.0329637415707111358642578125">
        <ele>452.600006103515625</ele>
        <time>2021-06-04T09:13:47.000Z</time>
        <extensions>
          <ns3:TrackPointExtension>
            <ns3:atemp>25.0</ns3:atemp>
          </ns3:TrackPointExtension>
        </extensions>
      </trkpt>
      <trkpt lat="43.10594360344111919403076171875" lon="13.03297824226319789886474609375">
        <ele>452.600006103515625</ele>
        <time>2021-06-04T09:13:49.000Z</time>
        <extensions>
          <ns3:TrackPointExtension>
            <ns3:atemp>25.0</ns3:atemp>
          </ns3:TrackPointExtension>
        </extensions>
      </trkpt>
      <trkpt lat="43.105928935110569000244140625" lon="13.03300422616302967071533203125">
        <ele>452.600006103515625</ele>
        <time>2021-06-04T09:13:52.000Z</time>
        <extensions>
          <ns3:TrackPointExtension>
            <ns3:atemp>25.0</ns3:atemp>
          </ns3:TrackPointExtension>
        </extensions>
      </trkpt>
      <trkpt lat="43.1059099920094013214111328125" lon="13.03303590975701808929443359375">
        <ele>452.600006103515625</ele>
        <time>2021-06-04T09:13:57.000Z</time>
        <extensions>
          <ns3:TrackPointExtension>
            <ns3:atemp>25.0</ns3:atemp>
          </ns3:TrackPointExtension>
        </extensions>
      </trkpt>
      <trkpt lat="43.10586431063711643218994140625" lon="13.03307329304516315460205078125">
        <ele>452.600006103515625</ele>
        <time>2021-06-04T09:14:01.000Z</time>
        <extensions>
          <ns3:TrackPointExtension>
            <ns3:atemp>25.0</ns3:atemp>
          </ns3:TrackPointExtension>
        </extensions>
      </trkpt>
      <trkpt lat="43.10572718270123004913330078125" lon="13.03321612067520618438720703125">
        <ele>452.600006103515625</ele>
        <time>2021-06-04T09:14:07.000Z</time>
        <extensions>
          <ns3:TrackPointExtension>
            <ns3:atemp>25.0</ns3:atemp>
          </ns3:TrackPointExtension>
        </extensions>
      </trkpt>
      <trkpt lat="43.10557362623512744903564453125" lon="13.03341343067586421966552734375">
        <ele>452.79998779296875</ele>
        <time>2021-06-04T09:14:14.000Z</time>
        <extensions>
          <ns3:TrackPointExtension>
            <ns3:atemp>25.0</ns3:atemp>
          </ns3:TrackPointExtension>
        </extensions>
      </trkpt>
      <trkpt lat="43.10551126487553119659423828125" lon="13.03348434157669544219970703125">
        <ele>453.20001220703125</ele>
        <time>2021-06-04T09:14:16.000Z</time>
        <extensions>
          <ns3:TrackPointExtension>
            <ns3:atemp>25.0</ns3:atemp>
          </ns3:TrackPointExtension>
        </extensions>
      </trkpt>
      <trkpt lat="43.1054409407079219818115234375" lon="13.03352725692093372344970703125">
        <ele>454.20001220703125</ele>
        <time>2021-06-04T09:14:18.000Z</time>
        <extensions>
          <ns3:TrackPointExtension>
            <ns3:atemp>25.0</ns3:atemp>
          </ns3:TrackPointExtension>
        </extensions>
      </trkpt>
      <trkpt lat="43.1054194830358028411865234375" lon="13.033535219728946685791015625">
        <ele>454.399993896484375</ele>
        <time>2021-06-04T09:14:19.000Z</time>
        <extensions>
          <ns3:TrackPointExtension>
            <ns3:atemp>25.0</ns3:atemp>
          </ns3:TrackPointExtension>
        </extensions>
      </trkpt>
      <trkpt lat="43.1054054014384746551513671875" lon="13.03354117088019847869873046875">
        <ele>454.600006103515625</ele>
        <time>2021-06-04T09:14:21.000Z</time>
        <extensions>
          <ns3:TrackPointExtension>
            <ns3:atemp>25.0</ns3:atemp>
          </ns3:TrackPointExtension>
        </extensions>
      </trkpt>
      <trkpt lat="43.1054144538938999176025390625" lon="13.03358475677669048309326171875">
        <ele>454.79998779296875</ele>
        <time>2021-06-04T09:14:27.000Z</time>
        <extensions>
          <ns3:TrackPointExtension>
            <ns3:atemp>25.0</ns3:atemp>
          </ns3:TrackPointExtension>
        </extensions>
      </trkpt>
      <trkpt lat="43.10543281026184558868408203125" lon="13.033602274954319000244140625">
        <ele>454.79998779296875</ele>
        <time>2021-06-04T09:14:28.000Z</time>
        <extensions>
          <ns3:TrackPointExtension>
            <ns3:atemp>25.0</ns3:atemp>
          </ns3:TrackPointExtension>
        </extensions>
      </trkpt>
      <trkpt lat="43.10551076196134090423583984375" lon="13.0336604453623294830322265625">
        <ele>454.600006103515625</ele>
        <time>2021-06-04T09:14:31.000Z</time>
        <extensions>
          <ns3:TrackPointExtension>
            <ns3:atemp>25.0</ns3:atemp>
          </ns3:TrackPointExtension>
        </extensions>
      </trkpt>
      <trkpt lat="43.1056206487119197845458984375" lon="13.03376396186649799346923828125">
        <ele>454.20001220703125</ele>
        <time>2021-06-04T09:14:35.000Z</time>
        <extensions>
          <ns3:TrackPointExtension>
            <ns3:atemp>25.0</ns3:atemp>
          </ns3:TrackPointExtension>
        </extensions>
      </trkpt>
      <trkpt lat="43.1056778132915496826171875" lon="13.033841662108898162841796875">
        <ele>452.79998779296875</ele>
        <time>2021-06-04T09:14:37.000Z</time>
        <extensions>
          <ns3:TrackPointExtension>
            <ns3:atemp>25.0</ns3:atemp>
          </ns3:TrackPointExtension>
        </extensions>
      </trkpt>
      <trkpt lat="43.10572684742510318756103515625" lon="13.033904023468494415283203125">
        <ele>451</ele>
        <time>2021-06-04T09:14:39.000Z</time>
        <extensions>
          <ns3:TrackPointExtension>
            <ns3:atemp>25.0</ns3:atemp>
          </ns3:TrackPointExtension>
        </extensions>
      </trkpt>
      <trkpt lat="43.1057517416775226593017578125" lon="13.03393159992992877960205078125">
        <ele>450</ele>
        <time>2021-06-04T09:14:40.000Z</time>
        <extensions>
          <ns3:TrackPointExtension>
            <ns3:atemp>25.0</ns3:atemp>
          </ns3:TrackPointExtension>
        </extensions>
      </trkpt>
      <trkpt lat="43.10577345080673694610595703125" lon="13.03395557217299938201904296875">
        <ele>449</ele>
        <time>2021-06-04T09:14:41.000Z</time>
        <extensions>
          <ns3:TrackPointExtension>
            <ns3:atemp>25.0</ns3:atemp>
          </ns3:TrackPointExtension>
        </extensions>
      </trkpt>
      <trkpt lat="43.10579172335565090179443359375" lon="13.03397501818835735321044921875">
        <ele>447</ele>
        <time>2021-06-04T09:14:43.000Z</time>
        <extensions>
          <ns3:TrackPointExtension>
            <ns3:atemp>25.0</ns3:atemp>
          </ns3:TrackPointExtension>
        </extensions>
      </trkpt>
      <trkpt lat="43.1057959981262683868408203125" lon="13.0339806340634822845458984375">
        <ele>446</ele>
        <time>2021-06-04T09:14:44.000Z</time>
        <extensions>
          <ns3:TrackPointExtension>
            <ns3:atemp>25.0</ns3:atemp>
          </ns3:TrackPointExtension>
        </extensions>
      </trkpt>
      <trkpt lat="43.1057949922978878021240234375" lon="13.03399697877466678619384765625">
        <ele>444.20001220703125</ele>
        <time>2021-06-04T09:14:46.000Z</time>
        <extensions>
          <ns3:TrackPointExtension>
            <ns3:atemp>25.0</ns3:atemp>
          </ns3:TrackPointExtension>
        </extensions>
      </trkpt>
      <trkpt lat="43.1057993508875370025634765625" lon="13.03401106037199497222900390625">
        <ele>442.79998779296875</ele>
        <time>2021-06-04T09:14:48.000Z</time>
        <extensions>
          <ns3:TrackPointExtension>
            <ns3:atemp>24.0</ns3:atemp>
          </ns3:TrackPointExtension>
        </extensions>
      </trkpt>
      <trkpt lat="43.105809576809406280517578125" lon="13.03403503261506557464599609375">
        <ele>441.600006103515625</ele>
        <time>2021-06-04T09:14:51.000Z</time>
        <extensions>
          <ns3:TrackPointExtension>
            <ns3:atemp>24.0</ns3:atemp>
          </ns3:TrackPointExtension>
        </extensions>
      </trkpt>
      <trkpt lat="43.10581200756132602691650390625" lon="13.0340433306992053985595703125">
        <ele>441.600006103515625</ele>
        <time>2021-06-04T09:14:52.000Z</time>
        <extensions>
          <ns3:TrackPointExtension>
            <ns3:atemp>24.0</ns3:atemp>
          </ns3:TrackPointExtension>
        </extensions>
      </trkpt>
      <trkpt lat="43.1058114208281040191650390625" lon="13.03410820662975311279296875">
        <ele>440.600006103515625</ele>
        <time>2021-06-04T09:14:59.000Z</time>
        <extensions>
          <ns3:TrackPointExtension>
            <ns3:atemp>24.0</ns3:atemp>
          </ns3:TrackPointExtension>
        </extensions>
      </trkpt>
      <trkpt lat="43.10581267811357975006103515625" lon="13.0341264791786670684814453125">
        <ele>440.600006103515625</ele>
        <time>2021-06-04T09:15:00.000Z</time>
        <extensions>
          <ns3:TrackPointExtension>
            <ns3:atemp>24.0</ns3:atemp>
          </ns3:TrackPointExtension>
        </extensions>
      </trkpt>
      <trkpt lat="43.1058198027312755584716796875" lon="13.03414936177432537078857421875">
        <ele>440.600006103515625</ele>
        <time>2021-06-04T09:15:01.000Z</time>
        <extensions>
          <ns3:TrackPointExtension>
            <ns3:atemp>24.0</ns3:atemp>
          </ns3:TrackPointExtension>
        </extensions>
      </trkpt>
      <trkpt lat="43.10583078302443027496337890625" lon="13.0341600067913532257080078125">
        <ele>440.399993896484375</ele>
        <time>2021-06-04T09:15:02.000Z</time>
        <extensions>
          <ns3:TrackPointExtension>
            <ns3:atemp>24.0</ns3:atemp>
          </ns3:TrackPointExtension>
        </extensions>
      </trkpt>
      <trkpt lat="43.105923235416412353515625" lon="13.03417936898767948150634765625">
        <ele>440</ele>
        <time>2021-06-04T09:15:06.000Z</time>
        <extensions>
          <ns3:TrackPointExtension>
            <ns3:atemp>24.0</ns3:atemp>
          </ns3:TrackPointExtension>
        </extensions>
      </trkpt>
      <trkpt lat="43.105988614261150360107421875" lon="13.03417920134961605072021484375">
        <ele>439.600006103515625</ele>
        <time>2021-06-04T09:15:08.000Z</time>
        <extensions>
          <ns3:TrackPointExtension>
            <ns3:atemp>24.0</ns3:atemp>
          </ns3:TrackPointExtension>
        </extensions>
      </trkpt>
      <trkpt lat="43.1061292625963687896728515625" lon="13.03423569537699222564697265625">
        <ele>439</ele>
        <time>2021-06-04T09:15:12.000Z</time>
        <extensions>
          <ns3:TrackPointExtension>
            <ns3:atemp>24.0</ns3:atemp>
          </ns3:TrackPointExtension>
        </extensions>
      </trkpt>
      <trkpt lat="43.1061990000307559967041015625" lon="13.03429503925144672393798828125">
        <ele>438.600006103515625</ele>
        <time>2021-06-04T09:15:14.000Z</time>
        <extensions>
          <ns3:TrackPointExtension>
            <ns3:atemp>24.0</ns3:atemp>
          </ns3:TrackPointExtension>
        </extensions>
      </trkpt>
      <trkpt lat="43.10632933862507343292236328125" lon="13.03443551994860172271728515625">
        <ele>438</ele>
        <time>2021-06-04T09:15:18.000Z</time>
        <extensions>
          <ns3:TrackPointExtension>
            <ns3:atemp>24.0</ns3:atemp>
          </ns3:TrackPointExtension>
        </extensions>
      </trkpt>
      <trkpt lat="43.10650284402072429656982421875" lon="13.03467088378965854644775390625">
        <ele>437.600006103515625</ele>
        <time>2021-06-04T09:15:24.000Z</time>
        <extensions>
          <ns3:TrackPointExtension>
            <ns3:atemp>24.0</ns3:atemp>
          </ns3:TrackPointExtension>
        </extensions>
      </trkpt>
      <trkpt lat="43.10663603246212005615234375" lon="13.034844808280467987060546875">
        <ele>437.399993896484375</ele>
        <time>2021-06-04T09:15:28.000Z</time>
        <extensions>
          <ns3:TrackPointExtension>
            <ns3:atemp>24.0</ns3:atemp>
          </ns3:TrackPointExtension>
        </extensions>
      </trkpt>
      <trkpt lat="43.10667970217764377593994140625" lon="13.03488898091018199920654296875">
        <ele>437.20001220703125</ele>
        <time>2021-06-04T09:15:29.000Z</time>
        <extensions>
          <ns3:TrackPointExtension>
            <ns3:atemp>24.0</ns3:atemp>
          </ns3:TrackPointExtension>
        </extensions>
      </trkpt>
      <trkpt lat="43.10676838271319866180419921875" lon="13.03497531451284885406494140625">
        <ele>437</ele>
        <time>2021-06-04T09:15:31.000Z</time>
        <extensions>
          <ns3:TrackPointExtension>
            <ns3:atemp>24.0</ns3:atemp>
          </ns3:TrackPointExtension>
        </extensions>
      </trkpt>
      <trkpt lat="43.1068816222250461578369140625" lon="13.0351380072534084320068359375">
        <ele>436.399993896484375</ele>
        <time>2021-06-04T09:15:34.000Z</time>
        <extensions>
          <ns3:TrackPointExtension>
            <ns3:atemp>24.0</ns3:atemp>
          </ns3:TrackPointExtension>
        </extensions>
      </trkpt>
      <trkpt lat="43.10695647262036800384521484375" lon="13.03546548821032047271728515625">
        <ele>435.399993896484375</ele>
        <time>2021-06-04T09:15:38.000Z</time>
        <extensions>
          <ns3:TrackPointExtension>
            <ns3:atemp>24.0</ns3:atemp>
          </ns3:TrackPointExtension>
        </extensions>
      </trkpt>
      <trkpt lat="43.10702755115926265716552734375" lon="13.035819791257381439208984375">
        <ele>434</ele>
        <time>2021-06-04T09:15:42.000Z</time>
        <extensions>
          <ns3:TrackPointExtension>
            <ns3:atemp>24.0</ns3:atemp>
          </ns3:TrackPointExtension>
        </extensions>
      </trkpt>
      <trkpt lat="43.10704431496560573577880859375" lon="13.035894222557544708251953125">
        <ele>433.20001220703125</ele>
        <time>2021-06-04T09:15:43.000Z</time>
        <extensions>
          <ns3:TrackPointExtension>
            <ns3:atemp>24.0</ns3:atemp>
          </ns3:TrackPointExtension>
        </extensions>
      </trkpt>
      <trkpt lat="43.10706392861902713775634765625" lon="13.035967648029327392578125">
        <ele>431.600006103515625</ele>
        <time>2021-06-04T09:15:44.000Z</time>
        <extensions>
          <ns3:TrackPointExtension>
            <ns3:atemp>24.0</ns3:atemp>
          </ns3:TrackPointExtension>
        </extensions>
      </trkpt>
      <trkpt lat="43.10708773322403430938720703125" lon="13.03604367189109325408935546875">
        <ele>430.79998779296875</ele>
        <time>2021-06-04T09:15:45.000Z</time>
        <extensions>
          <ns3:TrackPointExtension>
            <ns3:atemp>24.0</ns3:atemp>
          </ns3:TrackPointExtension>
        </extensions>
      </trkpt>
      <trkpt lat="43.1071143038570880889892578125" lon="13.03611986339092254638671875">
        <ele>430</ele>
        <time>2021-06-04T09:15:46.000Z</time>
        <extensions>
          <ns3:TrackPointExtension>
            <ns3:atemp>24.0</ns3:atemp>
          </ns3:TrackPointExtension>
        </extensions>
      </trkpt>
      <trkpt lat="43.1071672774851322174072265625" lon="13.03627367131412029266357421875">
        <ele>429.399993896484375</ele>
        <time>2021-06-04T09:15:48.000Z</time>
        <extensions>
          <ns3:TrackPointExtension>
            <ns3:atemp>24.0</ns3:atemp>
          </ns3:TrackPointExtension>
        </extensions>
      </trkpt>
      <trkpt lat="43.10721949674189090728759765625" lon="13.03643410094082355499267578125">
        <ele>429</ele>
        <time>2021-06-04T09:15:50.000Z</time>
        <extensions>
          <ns3:TrackPointExtension>
            <ns3:atemp>24.0</ns3:atemp>
          </ns3:TrackPointExtension>
        </extensions>
      </trkpt>
      <trkpt lat="43.10724732466042041778564453125" lon="13.0365121364593505859375">
        <ele>428.79998779296875</ele>
        <time>2021-06-04T09:15:51.000Z</time>
        <extensions>
          <ns3:TrackPointExtension>
            <ns3:atemp>24.0</ns3:atemp>
          </ns3:TrackPointExtension>
        </extensions>
      </trkpt>
      <trkpt lat="43.107323348522186279296875" lon="13.03663543425500392913818359375">
        <ele>428.399993896484375</ele>
        <time>2021-06-04T09:15:53.000Z</time>
        <extensions>
          <ns3:TrackPointExtension>
            <ns3:atemp>24.0</ns3:atemp>
          </ns3:TrackPointExtension>
        </extensions>
      </trkpt>
      <trkpt lat="43.1073674373328685760498046875" lon="13.03666762076318264007568359375">
        <ele>428</ele>
        <time>2021-06-04T09:15:54.000Z</time>
        <extensions>
          <ns3:TrackPointExtension>
            <ns3:atemp>24.0</ns3:atemp>
          </ns3:TrackPointExtension>
        </extensions>
      </trkpt>
      <trkpt lat="43.10744999907910823822021484375" lon="13.0366906709969043731689453125">
        <ele>427.600006103515625</ele>
        <time>2021-06-04T09:15:56.000Z</time>
        <extensions>
          <ns3:TrackPointExtension>
            <ns3:atemp>24.0</ns3:atemp>
          </ns3:TrackPointExtension>
        </extensions>
      </trkpt>
      <trkpt lat="43.10749157331883907318115234375" lon="13.0366943590342998504638671875">
        <ele>427.600006103515625</ele>
        <time>2021-06-04T09:15:57.000Z</time>
        <extensions>
          <ns3:TrackPointExtension>
            <ns3:atemp>24.0</ns3:atemp>
          </ns3:TrackPointExtension>
        </extensions>
      </trkpt>
      <trkpt lat="43.1075766496360301971435546875" lon="13.036686144769191741943359375">
        <ele>427.399993896484375</ele>
        <time>2021-06-04T09:15:59.000Z</time>
        <extensions>
          <ns3:TrackPointExtension>
            <ns3:atemp>24.0</ns3:atemp>
          </ns3:TrackPointExtension>
        </extensions>
      </trkpt>
      <trkpt lat="43.10765736736357212066650390625" lon="13.03667843341827392578125">
        <ele>427.399993896484375</ele>
        <time>2021-06-04T09:16:01.000Z</time>
        <extensions>
          <ns3:TrackPointExtension>
            <ns3:atemp>24.0</ns3:atemp>
          </ns3:TrackPointExtension>
        </extensions>
      </trkpt>
      <trkpt lat="43.1078088283538818359375" lon="13.0367074348032474517822265625">
        <ele>427.399993896484375</ele>
        <time>2021-06-04T09:16:05.000Z</time>
        <extensions>
          <ns3:TrackPointExtension>
            <ns3:atemp>24.0</ns3:atemp>
          </ns3:TrackPointExtension>
        </extensions>
      </trkpt>
      <trkpt lat="43.1079206429421901702880859375" lon="13.0367490090429782867431640625">
        <ele>427.79998779296875</ele>
        <time>2021-06-04T09:16:08.000Z</time>
        <extensions>
          <ns3:TrackPointExtension>
            <ns3:atemp>24.0</ns3:atemp>
          </ns3:TrackPointExtension>
        </extensions>
      </trkpt>
      <trkpt lat="43.10823370702564716339111328125" lon="13.0369538627564907073974609375">
        <ele>429.20001220703125</ele>
        <time>2021-06-04T09:16:16.000Z</time>
        <extensions>
          <ns3:TrackPointExtension>
            <ns3:atemp>24.0</ns3:atemp>
          </ns3:TrackPointExtension>
        </extensions>
      </trkpt>
      <trkpt lat="43.108498156070709228515625" lon="13.03720339201390743255615234375">
        <ele>429.20001220703125</ele>
        <time>2021-06-04T09:16:22.000Z</time>
        <extensions>
          <ns3:TrackPointExtension>
            <ns3:atemp>24.0</ns3:atemp>
          </ns3:TrackPointExtension>
        </extensions>
      </trkpt>
      <trkpt lat="43.10879931785166263580322265625" lon="13.03757705725729465484619140625">
        <ele>428.20001220703125</ele>
        <time>2021-06-04T09:16:29.000Z</time>
        <extensions>
          <ns3:TrackPointExtension>
            <ns3:atemp>25.0</ns3:atemp>
          </ns3:TrackPointExtension>
        </extensions>
      </trkpt>
      <trkpt lat="43.1089063547551631927490234375" lon="13.037680573761463165283203125">
        <ele>428</ele>
        <time>2021-06-04T09:16:31.000Z</time>
        <extensions>
          <ns3:TrackPointExtension>
            <ns3:atemp>25.0</ns3:atemp>
          </ns3:TrackPointExtension>
        </extensions>
      </trkpt>
      <trkpt lat="43.10903702862560749053955078125" lon="13.03774788044393062591552734375">
        <ele>427.600006103515625</ele>
        <time>2021-06-04T09:16:33.000Z</time>
        <extensions>
          <ns3:TrackPointExtension>
            <ns3:atemp>25.0</ns3:atemp>
          </ns3:TrackPointExtension>
        </extensions>
      </trkpt>
      <trkpt lat="43.10917667113244533538818359375" lon="13.0377902090549468994140625">
        <ele>427.399993896484375</ele>
        <time>2021-06-04T09:16:35.000Z</time>
        <extensions>
          <ns3:TrackPointExtension>
            <ns3:atemp>25.0</ns3:atemp>
          </ns3:TrackPointExtension>
        </extensions>
      </trkpt>
      <trkpt lat="43.1094092689454555511474609375" lon="13.03783371113240718841552734375">
        <ele>427.20001220703125</ele>
        <time>2021-06-04T09:16:38.000Z</time>
        <extensions>
          <ns3:TrackPointExtension>
            <ns3:atemp>25.0</ns3:atemp>
          </ns3:TrackPointExtension>
        </extensions>
      </trkpt>
      <trkpt lat="43.1094893999397754669189453125" lon="13.0378456972539424896240234375">
        <ele>427.20001220703125</ele>
        <time>2021-06-04T09:16:39.000Z</time>
        <extensions>
          <ns3:TrackPointExtension>
            <ns3:atemp>25.0</ns3:atemp>
          </ns3:TrackPointExtension>
        </extensions>
      </trkpt>
      <trkpt lat="43.10972325503826141357421875" lon="13.03788685239851474761962890625">
        <ele>426</ele>
        <time>2021-06-04T09:16:42.000Z</time>
        <extensions>
          <ns3:TrackPointExtension>
            <ns3:atemp>25.0</ns3:atemp>
          </ns3:TrackPointExtension>
        </extensions>
      </trkpt>
      <trkpt lat="43.109866417944431304931640625" lon="13.03791702724993228912353515625">
        <ele>424.79998779296875</ele>
        <time>2021-06-04T09:16:44.000Z</time>
        <extensions>
          <ns3:TrackPointExtension>
            <ns3:atemp>25.0</ns3:atemp>
          </ns3:TrackPointExtension>
        </extensions>
      </trkpt>
      <trkpt lat="43.11000513844192028045654296875" lon="13.03794988431036472320556640625">
        <ele>423.79998779296875</ele>
        <time>2021-06-04T09:16:46.000Z</time>
        <extensions>
          <ns3:TrackPointExtension>
            <ns3:atemp>25.0</ns3:atemp>
          </ns3:TrackPointExtension>
        </extensions>
      </trkpt>
      <trkpt lat="43.11026933602988719940185546875" lon="13.0380039475858211517333984375">
        <ele>422.79998779296875</ele>
        <time>2021-06-04T09:16:50.000Z</time>
        <extensions>
          <ns3:TrackPointExtension>
            <ns3:atemp>25.0</ns3:atemp>
          </ns3:TrackPointExtension>
        </extensions>
      </trkpt>
      <trkpt lat="43.1103346310555934906005859375" lon="13.03801727481186389923095703125">
        <ele>422.79998779296875</ele>
        <time>2021-06-04T09:16:51.000Z</time>
        <extensions>
          <ns3:TrackPointExtension>
            <ns3:atemp>25.0</ns3:atemp>
          </ns3:TrackPointExtension>
        </extensions>
      </trkpt>
      <trkpt lat="43.11070620082318782806396484375" lon="13.03812556900084018707275390625">
        <ele>422.600006103515625</ele>
        <time>2021-06-04T09:16:57.000Z</time>
        <extensions>
          <ns3:TrackPointExtension>
            <ns3:atemp>25.0</ns3:atemp>
          </ns3:TrackPointExtension>
        </extensions>
      </trkpt>
      <trkpt lat="43.11100929044187068939208984375" lon="13.038225732743740081787109375">
        <ele>422.600006103515625</ele>
        <time>2021-06-04T09:17:03.000Z</time>
        <extensions>
          <ns3:TrackPointExtension>
            <ns3:atemp>25.0</ns3:atemp>
          </ns3:TrackPointExtension>
        </extensions>
      </trkpt>
      <trkpt lat="43.1112341769039630889892578125" lon="13.0383137427270412445068359375">
        <ele>424.20001220703125</ele>
        <time>2021-06-04T09:17:08.000Z</time>
        <extensions>
          <ns3:TrackPointExtension>
            <ns3:atemp>25.0</ns3:atemp>
          </ns3:TrackPointExtension>
        </extensions>
      </trkpt>
      <trkpt lat="43.1112821213901042938232421875" lon="13.038333021104335784912109375">
        <ele>424.600006103515625</ele>
        <time>2021-06-04T09:17:09.000Z</time>
        <extensions>
          <ns3:TrackPointExtension>
            <ns3:atemp>25.0</ns3:atemp>
          </ns3:TrackPointExtension>
        </extensions>
      </trkpt>
      <trkpt lat="43.11132947914302349090576171875" lon="13.03835213184356689453125">
        <ele>425</ele>
        <time>2021-06-04T09:17:10.000Z</time>
        <extensions>
          <ns3:TrackPointExtension>
            <ns3:atemp>25.0</ns3:atemp>
          </ns3:TrackPointExtension>
        </extensions>
      </trkpt>
      <trkpt lat="43.1113775074481964111328125" lon="13.038371913135051727294921875">
        <ele>426</ele>
        <time>2021-06-04T09:17:11.000Z</time>
        <extensions>
          <ns3:TrackPointExtension>
            <ns3:atemp>25.0</ns3:atemp>
          </ns3:TrackPointExtension>
        </extensions>
      </trkpt>
      <trkpt lat="43.1117146275937557220458984375" lon="13.038526475429534912109375">
        <ele>427</ele>
        <time>2021-06-04T09:17:18.000Z</time>
        <extensions>
          <ns3:TrackPointExtension>
            <ns3:atemp>25.0</ns3:atemp>
          </ns3:TrackPointExtension>
        </extensions>
      </trkpt>
      <trkpt lat="43.11176500283181667327880859375" lon="13.0385387130081653594970703125">
        <ele>427.20001220703125</ele>
        <time>2021-06-04T09:17:19.000Z</time>
        <extensions>
          <ns3:TrackPointExtension>
            <ns3:atemp>25.0</ns3:atemp>
          </ns3:TrackPointExtension>
        </extensions>
      </trkpt>
      <trkpt lat="43.11190917156636714935302734375" lon="13.0385224521160125732421875">
        <ele>428</ele>
        <time>2021-06-04T09:17:22.000Z</time>
        <extensions>
          <ns3:TrackPointExtension>
            <ns3:atemp>25.0</ns3:atemp>
          </ns3:TrackPointExtension>
        </extensions>
      </trkpt>
      <trkpt lat="43.11194973997771739959716796875" lon="13.0385051853954792022705078125">
        <ele>428.20001220703125</ele>
        <time>2021-06-04T09:17:23.000Z</time>
        <extensions>
          <ns3:TrackPointExtension>
            <ns3:atemp>25.0</ns3:atemp>
          </ns3:TrackPointExtension>
        </extensions>
      </trkpt>
      <trkpt lat="43.112075887620449066162109375" lon="13.038404770195484161376953125">
        <ele>428.79998779296875</ele>
        <time>2021-06-04T09:17:27.000Z</time>
        <extensions>
          <ns3:TrackPointExtension>
            <ns3:atemp>25.0</ns3:atemp>
          </ns3:TrackPointExtension>
        </extensions>
      </trkpt>
      <trkpt lat="43.11212844215333461761474609375" lon="13.038343079388141632080078125">
        <ele>429.399993896484375</ele>
        <time>2021-06-04T09:17:29.000Z</time>
        <extensions>
          <ns3:TrackPointExtension>
            <ns3:atemp>25.0</ns3:atemp>
          </ns3:TrackPointExtension>
        </extensions>
      </trkpt>
      <trkpt lat="43.1122245825827121734619140625" lon="13.0382072925567626953125">
        <ele>430.20001220703125</ele>
        <time>2021-06-04T09:17:33.000Z</time>
        <extensions>
          <ns3:TrackPointExtension>
            <ns3:atemp>25.0</ns3:atemp>
          </ns3:TrackPointExtension>
        </extensions>
      </trkpt>
      <trkpt lat="43.11225232668220996856689453125" lon="13.03817066363990306854248046875">
        <ele>430.399993896484375</ele>
        <time>2021-06-04T09:17:34.000Z</time>
        <extensions>
          <ns3:TrackPointExtension>
            <ns3:atemp>25.0</ns3:atemp>
          </ns3:TrackPointExtension>
        </extensions>
      </trkpt>
      <trkpt lat="43.11235927976667881011962890625" lon="13.03802716545760631561279296875">
        <ele>432</ele>
        <time>2021-06-04T09:17:38.000Z</time>
        <extensions>
          <ns3:TrackPointExtension>
            <ns3:atemp>26.0</ns3:atemp>
          </ns3:TrackPointExtension>
        </extensions>
      </trkpt>
      <trkpt lat="43.11238274909555912017822265625" lon="13.03800470195710659027099609375">
        <ele>432.600006103515625</ele>
        <time>2021-06-04T09:17:39.000Z</time>
        <extensions>
          <ns3:TrackPointExtension>
            <ns3:atemp>26.0</ns3:atemp>
          </ns3:TrackPointExtension>
        </extensions>
      </trkpt>
      <trkpt lat="43.112403117120265960693359375" lon="13.03797720931470394134521484375">
        <ele>433.600006103515625</ele>
        <time>2021-06-04T09:17:40.000Z</time>
        <extensions>
          <ns3:TrackPointExtension>
            <ns3:atemp>26.0</ns3:atemp>
          </ns3:TrackPointExtension>
        </extensions>
      </trkpt>
      <trkpt lat="43.11244226060807704925537109375" lon="13.03791283629834651947021484375">
        <ele>434.79998779296875</ele>
        <time>2021-06-04T09:17:42.000Z</time>
        <extensions>
          <ns3:TrackPointExtension>
            <ns3:atemp>26.0</ns3:atemp>
          </ns3:TrackPointExtension>
        </extensions>
      </trkpt>
      <trkpt lat="43.1124798953533172607421875" lon="13.0378411710262298583984375">
        <ele>436</ele>
        <time>2021-06-04T09:17:44.000Z</time>
        <extensions>
          <ns3:TrackPointExtension>
            <ns3:atemp>26.0</ns3:atemp>
          </ns3:TrackPointExtension>
        </extensions>
      </trkpt>
      <trkpt lat="43.11249925754964351654052734375" lon="13.0378044582903385162353515625">
        <ele>436.399993896484375</ele>
        <time>2021-06-04T09:17:45.000Z</time>
        <extensions>
          <ns3:TrackPointExtension>
            <ns3:atemp>26.0</ns3:atemp>
          </ns3:TrackPointExtension>
        </extensions>
      </trkpt>
      <trkpt lat="43.11253957450389862060546875" lon="13.03772508166730403900146484375">
        <ele>437.20001220703125</ele>
        <time>2021-06-04T09:17:47.000Z</time>
        <extensions>
          <ns3:TrackPointExtension>
            <ns3:atemp>26.0</ns3:atemp>
          </ns3:TrackPointExtension>
        </extensions>
      </trkpt>
      <trkpt lat="43.112605623900890350341796875" lon="13.0375771410763263702392578125">
        <ele>438.79998779296875</ele>
        <time>2021-06-04T09:17:50.000Z</time>
        <extensions>
          <ns3:TrackPointExtension>
            <ns3:atemp>26.0</ns3:atemp>
          </ns3:TrackPointExtension>
        </extensions>
      </trkpt>
      <trkpt lat="43.11263001523911952972412109375" lon="13.03753129206597805023193359375">
        <ele>439.20001220703125</ele>
        <time>2021-06-04T09:17:51.000Z</time>
        <extensions>
          <ns3:TrackPointExtension>
            <ns3:atemp>26.0</ns3:atemp>
          </ns3:TrackPointExtension>
        </extensions>
      </trkpt>
      <trkpt lat="43.112679384648799896240234375" lon="13.0374892987310886383056640625">
        <ele>440</ele>
        <time>2021-06-04T09:17:53.000Z</time>
        <extensions>
          <ns3:TrackPointExtension>
            <ns3:atemp>26.0</ns3:atemp>
          </ns3:TrackPointExtension>
        </extensions>
      </trkpt>
      <trkpt lat="43.11270947568118572235107421875" lon="13.0374996922910213470458984375">
        <ele>440.20001220703125</ele>
        <time>2021-06-04T09:17:54.000Z</time>
        <extensions>
          <ns3:TrackPointExtension>
            <ns3:atemp>26.0</ns3:atemp>
          </ns3:TrackPointExtension>
        </extensions>
      </trkpt>
      <trkpt lat="43.1128139980137348175048828125" lon="13.03761293180286884307861328125">
        <ele>440.600006103515625</ele>
        <time>2021-06-04T09:17:57.000Z</time>
        <extensions>
          <ns3:TrackPointExtension>
            <ns3:atemp>26.0</ns3:atemp>
          </ns3:TrackPointExtension>
        </extensions>
      </trkpt>
      <trkpt lat="43.1128589250147342681884765625" lon="13.0376602895557880401611328125">
        <ele>440.600006103515625</ele>
        <time>2021-06-04T09:17:58.000Z</time>
        <extensions>
          <ns3:TrackPointExtension>
            <ns3:atemp>26.0</ns3:atemp>
          </ns3:TrackPointExtension>
        </extensions>
      </trkpt>
      <trkpt lat="43.11313644982874393463134765625" lon="13.0379275046288967132568359375">
        <ele>440.600006103515625</ele>
        <time>2021-06-04T09:18:04.000Z</time>
        <extensions>
          <ns3:TrackPointExtension>
            <ns3:atemp>26.0</ns3:atemp>
          </ns3:TrackPointExtension>
        </extensions>
      </trkpt>
      <trkpt lat="43.113379776477813720703125" lon="13.0381216295063495635986328125">
        <ele>440.399993896484375</ele>
        <time>2021-06-04T09:18:09.000Z</time>
        <extensions>
          <ns3:TrackPointExtension>
            <ns3:atemp>26.0</ns3:atemp>
          </ns3:TrackPointExtension>
        </extensions>
      </trkpt>
      <trkpt lat="43.11361036263406276702880859375" lon="13.038400076329708099365234375">
        <ele>440.20001220703125</ele>
        <time>2021-06-04T09:18:15.000Z</time>
        <extensions>
          <ns3:TrackPointExtension>
            <ns3:atemp>26.0</ns3:atemp>
          </ns3:TrackPointExtension>
        </extensions>
      </trkpt>
      <trkpt lat="43.1137578003108501434326171875" lon="13.03858355619013309478759765625">
        <ele>440.399993896484375</ele>
        <time>2021-06-04T09:18:19.000Z</time>
        <extensions>
          <ns3:TrackPointExtension>
            <ns3:atemp>26.0</ns3:atemp>
          </ns3:TrackPointExtension>
        </extensions>
      </trkpt>
      <trkpt lat="43.11382678337395191192626953125" lon="13.0387060157954692840576171875">
        <ele>441.20001220703125</ele>
        <time>2021-06-04T09:18:21.000Z</time>
        <extensions>
          <ns3:TrackPointExtension>
            <ns3:atemp>26.0</ns3:atemp>
          </ns3:TrackPointExtension>
        </extensions>
      </trkpt>
      <trkpt lat="43.1138600595295429229736328125" lon="13.03876678459346294403076171875">
        <ele>441.600006103515625</ele>
        <time>2021-06-04T09:18:22.000Z</time>
        <extensions>
          <ns3:TrackPointExtension>
            <ns3:atemp>26.0</ns3:atemp>
          </ns3:TrackPointExtension>
        </extensions>
      </trkpt>
      <trkpt lat="43.11392250470817089080810546875" lon="13.03888932801783084869384765625">
        <ele>442.79998779296875</ele>
        <time>2021-06-04T09:18:24.000Z</time>
        <extensions>
          <ns3:TrackPointExtension>
            <ns3:atemp>26.0</ns3:atemp>
          </ns3:TrackPointExtension>
        </extensions>
      </trkpt>
      <trkpt lat="43.1139800883829593658447265625" lon="13.03901673294603824615478515625">
        <ele>443.399993896484375</ele>
        <time>2021-06-04T09:18:26.000Z</time>
        <extensions>
          <ns3:TrackPointExtension>
            <ns3:atemp>26.0</ns3:atemp>
          </ns3:TrackPointExtension>
        </extensions>
      </trkpt>
      <trkpt lat="43.11401872895658016204833984375" lon="13.0391442216932773590087890625">
        <ele>443.600006103515625</ele>
        <time>2021-06-04T09:18:28.000Z</time>
        <extensions>
          <ns3:TrackPointExtension>
            <ns3:atemp>26.0</ns3:atemp>
          </ns3:TrackPointExtension>
        </extensions>
      </trkpt>
      <trkpt lat="43.114034235477447509765625" lon="13.0392096005380153656005859375">
        <ele>443.79998779296875</ele>
        <time>2021-06-04T09:18:29.000Z</time>
        <extensions>
          <ns3:TrackPointExtension>
            <ns3:atemp>26.0</ns3:atemp>
          </ns3:TrackPointExtension>
        </extensions>
      </trkpt>
      <trkpt lat="43.11405108310282230377197265625" lon="13.03927238099277019500732421875">
        <ele>444</ele>
        <time>2021-06-04T09:18:30.000Z</time>
        <extensions>
          <ns3:TrackPointExtension>
            <ns3:atemp>26.0</ns3:atemp>
          </ns3:TrackPointExtension>
        </extensions>
      </trkpt>
      <trkpt lat="43.114072121679782867431640625" lon="13.03933591581881046295166015625">
        <ele>444.399993896484375</ele>
        <time>2021-06-04T09:18:31.000Z</time>
        <extensions>
          <ns3:TrackPointExtension>
            <ns3:atemp>26.0</ns3:atemp>
          </ns3:TrackPointExtension>
        </extensions>
      </trkpt>
      <trkpt lat="43.11413020826876163482666015625" lon="13.039449155330657958984375">
        <ele>445.20001220703125</ele>
        <time>2021-06-04T09:18:33.000Z</time>
        <extensions>
          <ns3:TrackPointExtension>
            <ns3:atemp>26.0</ns3:atemp>
          </ns3:TrackPointExtension>
        </extensions>
      </trkpt>
      <trkpt lat="43.11419583857059478759765625" lon="13.0395452119410037994384765625">
        <ele>445.79998779296875</ele>
        <time>2021-06-04T09:18:35.000Z</time>
        <extensions>
          <ns3:TrackPointExtension>
            <ns3:atemp>26.0</ns3:atemp>
          </ns3:TrackPointExtension>
        </extensions>
      </trkpt>
      <trkpt lat="43.11426222324371337890625" lon="13.039626181125640869140625">
        <ele>446.399993896484375</ele>
        <time>2021-06-04T09:18:37.000Z</time>
        <extensions>
          <ns3:TrackPointExtension>
            <ns3:atemp>26.0</ns3:atemp>
          </ns3:TrackPointExtension>
        </extensions>
      </trkpt>
      <trkpt lat="43.1143307872116565704345703125" lon="13.0396977625787258148193359375">
        <ele>447.20001220703125</ele>
        <time>2021-06-04T09:18:39.000Z</time>
        <extensions>
          <ns3:TrackPointExtension>
            <ns3:atemp>26.0</ns3:atemp>
          </ns3:TrackPointExtension>
        </extensions>
      </trkpt>
      <trkpt lat="43.11442114412784576416015625" lon="13.03978267125785350799560546875">
        <ele>447.399993896484375</ele>
        <time>2021-06-04T09:18:42.000Z</time>
        <extensions>
          <ns3:TrackPointExtension>
            <ns3:atemp>26.0</ns3:atemp>
          </ns3:TrackPointExtension>
        </extensions>
      </trkpt>
      <trkpt lat="43.11449892818927764892578125" lon="13.03985752165317535400390625">
        <ele>448</ele>
        <time>2021-06-04T09:18:45.000Z</time>
        <extensions>
          <ns3:TrackPointExtension>
            <ns3:atemp>26.0</ns3:atemp>
          </ns3:TrackPointExtension>
        </extensions>
      </trkpt>
      <trkpt lat="43.114524073898792266845703125" lon="13.039877973496913909912109375">
        <ele>448.399993896484375</ele>
        <time>2021-06-04T09:18:46.000Z</time>
        <extensions>
          <ns3:TrackPointExtension>
            <ns3:atemp>26.0</ns3:atemp>
          </ns3:TrackPointExtension>
        </extensions>
      </trkpt>
      <trkpt lat="43.114565648138523101806640625" lon="13.03991342894732952117919921875">
        <ele>449.399993896484375</ele>
        <time>2021-06-04T09:18:48.000Z</time>
        <extensions>
          <ns3:TrackPointExtension>
            <ns3:atemp>26.0</ns3:atemp>
          </ns3:TrackPointExtension>
        </extensions>
      </trkpt>
      <trkpt lat="43.1146114133298397064208984375" lon="13.03994662128388881683349609375">
        <ele>450.600006103515625</ele>
        <time>2021-06-04T09:18:50.000Z</time>
        <extensions>
          <ns3:TrackPointExtension>
            <ns3:atemp>26.0</ns3:atemp>
          </ns3:TrackPointExtension>
        </extensions>
      </trkpt>
      <trkpt lat="43.1146358884871006011962890625" lon="13.03996615111827850341796875">
        <ele>451.20001220703125</ele>
        <time>2021-06-04T09:18:51.000Z</time>
        <extensions>
          <ns3:TrackPointExtension>
            <ns3:atemp>26.0</ns3:atemp>
          </ns3:TrackPointExtension>
        </extensions>
      </trkpt>
      <trkpt lat="43.11465449631214141845703125" lon="13.039979897439479827880859375">
        <ele>451.79998779296875</ele>
        <time>2021-06-04T09:18:52.000Z</time>
        <extensions>
          <ns3:TrackPointExtension>
            <ns3:atemp>26.0</ns3:atemp>
          </ns3:TrackPointExtension>
        </extensions>
      </trkpt>
      <trkpt lat="43.114707469940185546875" lon="13.0400166101753711700439453125">
        <ele>453</ele>
        <time>2021-06-04T09:18:54.000Z</time>
        <extensions>
          <ns3:TrackPointExtension>
            <ns3:atemp>26.0</ns3:atemp>
          </ns3:TrackPointExtension>
        </extensions>
      </trkpt>
      <trkpt lat="43.1147307716310024261474609375" lon="13.04004670120775699615478515625">
        <ele>453.399993896484375</ele>
        <time>2021-06-04T09:18:55.000Z</time>
        <extensions>
          <ns3:TrackPointExtension>
            <ns3:atemp>26.0</ns3:atemp>
          </ns3:TrackPointExtension>
        </extensions>
      </trkpt>
      <trkpt lat="43.1147555820643901824951171875" lon="13.0400793068110942840576171875">
        <ele>454</ele>
        <time>2021-06-04T09:18:56.000Z</time>
        <extensions>
          <ns3:TrackPointExtension>
            <ns3:atemp>26.0</ns3:atemp>
          </ns3:TrackPointExtension>
        </extensions>
      </trkpt>
      <trkpt lat="43.1147881038486957550048828125" lon="13.04014041088521480560302734375">
        <ele>455.20001220703125</ele>
        <time>2021-06-04T09:18:58.000Z</time>
        <extensions>
          <ns3:TrackPointExtension>
            <ns3:atemp>26.0</ns3:atemp>
          </ns3:TrackPointExtension>
        </extensions>
      </trkpt>
      <trkpt lat="43.1147944740951061248779296875" lon="13.040196485817432403564453125">
        <ele>456.600006103515625</ele>
        <time>2021-06-04T09:19:00.000Z</time>
        <extensions>
          <ns3:TrackPointExtension>
            <ns3:atemp>26.0</ns3:atemp>
          </ns3:TrackPointExtension>
        </extensions>
      </trkpt>
      <trkpt lat="43.11479053460061550140380859375" lon="13.0402462743222713470458984375">
        <ele>458</ele>
        <time>2021-06-04T09:19:02.000Z</time>
        <extensions>
          <ns3:TrackPointExtension>
            <ns3:atemp>26.0</ns3:atemp>
          </ns3:TrackPointExtension>
        </extensions>
      </trkpt>
      <trkpt lat="43.1147824041545391082763671875" lon="13.04029597900807857513427734375">
        <ele>459</ele>
        <time>2021-06-04T09:19:04.000Z</time>
        <extensions>
          <ns3:TrackPointExtension>
            <ns3:atemp>26.0</ns3:atemp>
          </ns3:TrackPointExtension>
        </extensions>
      </trkpt>
      <trkpt lat="43.11477796174585819244384765625" lon="13.0403458513319492340087890625">
        <ele>459.79998779296875</ele>
        <time>2021-06-04T09:19:06.000Z</time>
        <extensions>
          <ns3:TrackPointExtension>
            <ns3:atemp>26.0</ns3:atemp>
          </ns3:TrackPointExtension>
        </extensions>
      </trkpt>
      <trkpt lat="43.11478232033550739288330078125" lon="13.04037694819271564483642578125">
        <ele>460.600006103515625</ele>
        <time>2021-06-04T09:19:07.000Z</time>
        <extensions>
          <ns3:TrackPointExtension>
            <ns3:atemp>26.0</ns3:atemp>
          </ns3:TrackPointExtension>
        </extensions>
      </trkpt>
      <trkpt lat="43.11484535224735736846923828125" lon="13.04046227596700191497802734375">
        <ele>461.600006103515625</ele>
        <time>2021-06-04T09:19:10.000Z</time>
        <extensions>
          <ns3:TrackPointExtension>
            <ns3:atemp>26.0</ns3:atemp>
          </ns3:TrackPointExtension>
        </extensions>
      </trkpt>
      <trkpt lat="43.11486831866204738616943359375" lon="13.04047987796366214752197265625">
        <ele>462</ele>
        <time>2021-06-04T09:19:11.000Z</time>
        <extensions>
          <ns3:TrackPointExtension>
            <ns3:atemp>26.0</ns3:atemp>
          </ns3:TrackPointExtension>
        </extensions>
      </trkpt>
      <trkpt lat="43.114890195429325103759765625" lon="13.0404947139322757720947265625">
        <ele>462.399993896484375</ele>
        <time>2021-06-04T09:19:12.000Z</time>
        <extensions>
          <ns3:TrackPointExtension>
            <ns3:atemp>26.0</ns3:atemp>
          </ns3:TrackPointExtension>
        </extensions>
      </trkpt>
      <trkpt lat="43.11496219597756862640380859375" lon="13.0405448377132415771484375">
        <ele>463</ele>
        <time>2021-06-04T09:19:16.000Z</time>
        <extensions>
          <ns3:TrackPointExtension>
            <ns3:atemp>26.0</ns3:atemp>
          </ns3:TrackPointExtension>
        </extensions>
      </trkpt>
      <trkpt lat="43.11497929506003856658935546875" lon="13.0405614338815212249755859375">
        <ele>463</ele>
        <time>2021-06-04T09:19:17.000Z</time>
        <extensions>
          <ns3:TrackPointExtension>
            <ns3:atemp>26.0</ns3:atemp>
          </ns3:TrackPointExtension>
        </extensions>
      </trkpt>
      <trkpt lat="43.11511357314884662628173828125" lon="13.0406593345105648040771484375">
        <ele>463.20001220703125</ele>
        <time>2021-06-04T09:19:22.000Z</time>
        <extensions>
          <ns3:TrackPointExtension>
            <ns3:atemp>26.0</ns3:atemp>
          </ns3:TrackPointExtension>
        </extensions>
      </trkpt>
      <trkpt lat="43.115252293646335601806640625" lon="13.04076704196631908416748046875">
        <ele>463</ele>
        <time>2021-06-04T09:19:25.000Z</time>
        <extensions>
          <ns3:TrackPointExtension>
            <ns3:atemp>26.0</ns3:atemp>
          </ns3:TrackPointExtension>
        </extensions>
      </trkpt>
      <trkpt lat="43.11529546044766902923583984375" lon="13.04081180132925510406494140625">
        <ele>463</ele>
        <time>2021-06-04T09:19:26.000Z</time>
        <extensions>
          <ns3:TrackPointExtension>
            <ns3:atemp>26.0</ns3:atemp>
          </ns3:TrackPointExtension>
        </extensions>
      </trkpt>
      <trkpt lat="43.11543895862996578216552734375" lon="13.04096066392958164215087890625">
        <ele>462</ele>
        <time>2021-06-04T09:19:29.000Z</time>
        <extensions>
          <ns3:TrackPointExtension>
            <ns3:atemp>26.0</ns3:atemp>
          </ns3:TrackPointExtension>
        </extensions>
      </trkpt>
      <trkpt lat="43.115525878965854644775390625" lon="13.04104045964777469635009765625">
        <ele>460.399993896484375</ele>
        <time>2021-06-04T09:19:31.000Z</time>
        <extensions>
          <ns3:TrackPointExtension>
            <ns3:atemp>26.0</ns3:atemp>
          </ns3:TrackPointExtension>
        </extensions>
      </trkpt>
      <trkpt lat="43.115638531744480133056640625" lon="13.041127212345600128173828125">
        <ele>459.600006103515625</ele>
        <time>2021-06-04T09:19:33.000Z</time>
        <extensions>
          <ns3:TrackPointExtension>
            <ns3:atemp>26.0</ns3:atemp>
          </ns3:TrackPointExtension>
        </extensions>
      </trkpt>
      <trkpt lat="43.11583332717418670654296875" lon="13.0413084290921688079833984375">
        <ele>459.399993896484375</ele>
        <time>2021-06-04T09:19:38.000Z</time>
        <extensions>
          <ns3:TrackPointExtension>
            <ns3:atemp>26.0</ns3:atemp>
          </ns3:TrackPointExtension>
        </extensions>
      </trkpt>
      <trkpt lat="43.11592720448970794677734375" lon="13.04154865443706512451171875">
        <ele>459.399993896484375</ele>
        <time>2021-06-04T09:19:42.000Z</time>
        <extensions>
          <ns3:TrackPointExtension>
            <ns3:atemp>26.0</ns3:atemp>
          </ns3:TrackPointExtension>
        </extensions>
      </trkpt>
      <trkpt lat="43.11608545482158660888671875" lon="13.04192139767110347747802734375">
        <ele>459.399993896484375</ele>
        <time>2021-06-04T09:19:48.000Z</time>
        <extensions>
          <ns3:TrackPointExtension>
            <ns3:atemp>26.0</ns3:atemp>
          </ns3:TrackPointExtension>
        </extensions>
      </trkpt>
      <trkpt lat="43.116195760667324066162109375" lon="13.04218626581132411956787109375">
        <ele>459.20001220703125</ele>
        <time>2021-06-04T09:19:52.000Z</time>
        <extensions>
          <ns3:TrackPointExtension>
            <ns3:atemp>26.0</ns3:atemp>
          </ns3:TrackPointExtension>
        </extensions>
      </trkpt>
      <trkpt lat="43.1163146160542964935302734375" lon="13.04248449392616748809814453125">
        <ele>458</ele>
        <time>2021-06-04T09:19:55.000Z</time>
        <extensions>
          <ns3:TrackPointExtension>
            <ns3:atemp>26.0</ns3:atemp>
          </ns3:TrackPointExtension>
        </extensions>
      </trkpt>
      <trkpt lat="43.11636482365429401397705078125" lon="13.042597062885761260986328125">
        <ele>457.79998779296875</ele>
        <time>2021-06-04T09:19:56.000Z</time>
        <extensions>
          <ns3:TrackPointExtension>
            <ns3:atemp>26.0</ns3:atemp>
          </ns3:TrackPointExtension>
        </extensions>
      </trkpt>
      <trkpt lat="43.1164708547294139862060546875" lon="13.04285463877022266387939453125">
        <ele>456.600006103515625</ele>
        <time>2021-06-04T09:19:58.000Z</time>
        <extensions>
          <ns3:TrackPointExtension>
            <ns3:atemp>26.0</ns3:atemp>
          </ns3:TrackPointExtension>
        </extensions>
      </trkpt>
      <trkpt lat="43.11652491800487041473388671875" lon="13.04298724047839641571044921875">
        <ele>455.399993896484375</ele>
        <time>2021-06-04T09:19:59.000Z</time>
        <extensions>
          <ns3:TrackPointExtension>
            <ns3:atemp>26.0</ns3:atemp>
          </ns3:TrackPointExtension>
        </extensions>
      </trkpt>
      <trkpt lat="43.11657805927097797393798828125" lon="13.0431189201772212982177734375">
        <ele>454</ele>
        <time>2021-06-04T09:20:00.000Z</time>
        <extensions>
          <ns3:TrackPointExtension>
            <ns3:atemp>26.0</ns3:atemp>
          </ns3:TrackPointExtension>
        </extensions>
      </trkpt>
      <trkpt lat="43.1166301108896732330322265625" lon="13.04324724711477756500244140625">
        <ele>452.20001220703125</ele>
        <time>2021-06-04T09:20:01.000Z</time>
        <extensions>
          <ns3:TrackPointExtension>
            <ns3:atemp>26.0</ns3:atemp>
          </ns3:TrackPointExtension>
        </extensions>
      </trkpt>
      <trkpt lat="43.1166837550699710845947265625" lon="13.04337347857654094696044921875">
        <ele>450.600006103515625</ele>
        <time>2021-06-04T09:20:02.000Z</time>
        <extensions>
          <ns3:TrackPointExtension>
            <ns3:atemp>26.0</ns3:atemp>
          </ns3:TrackPointExtension>
        </extensions>
      </trkpt>
      <trkpt lat="43.116740919649600982666015625" lon="13.04349786601960659027099609375">
        <ele>448.20001220703125</ele>
        <time>2021-06-04T09:20:03.000Z</time>
        <extensions>
          <ns3:TrackPointExtension>
            <ns3:atemp>26.0</ns3:atemp>
          </ns3:TrackPointExtension>
        </extensions>
      </trkpt>
      <trkpt lat="43.1168051250278949737548828125" lon="13.04361839778721332550048828125">
        <ele>445.600006103515625</ele>
        <time>2021-06-04T09:20:04.000Z</time>
        <extensions>
          <ns3:TrackPointExtension>
            <ns3:atemp>26.0</ns3:atemp>
          </ns3:TrackPointExtension>
        </extensions>
      </trkpt>
      <trkpt lat="43.116874359548091888427734375" lon="13.04373004473745822906494140625">
        <ele>440.399993896484375</ele>
        <time>2021-06-04T09:20:05.000Z</time>
        <extensions>
          <ns3:TrackPointExtension>
            <ns3:atemp>26.0</ns3:atemp>
          </ns3:TrackPointExtension>
        </extensions>
      </trkpt>
      <trkpt lat="43.1169456057250499725341796875" lon="13.04382962174713611602783203125">
        <ele>438.20001220703125</ele>
        <time>2021-06-04T09:20:06.000Z</time>
        <extensions>
          <ns3:TrackPointExtension>
            <ns3:atemp>26.0</ns3:atemp>
          </ns3:TrackPointExtension>
        </extensions>
      </trkpt>
      <trkpt lat="43.1170160137116909027099609375" lon="13.04391578771173954010009765625">
        <ele>436.20001220703125</ele>
        <time>2021-06-04T09:20:07.000Z</time>
        <extensions>
          <ns3:TrackPointExtension>
            <ns3:atemp>26.0</ns3:atemp>
          </ns3:TrackPointExtension>
        </extensions>
      </trkpt>
      <trkpt lat="43.11708189547061920166015625" lon="13.0439872853457927703857421875">
        <ele>435.20001220703125</ele>
        <time>2021-06-04T09:20:08.000Z</time>
        <extensions>
          <ns3:TrackPointExtension>
            <ns3:atemp>26.0</ns3:atemp>
          </ns3:TrackPointExtension>
        </extensions>
      </trkpt>
      <trkpt lat="43.11714786104857921600341796875" lon="13.04405241273343563079833984375">
        <ele>434.79998779296875</ele>
        <time>2021-06-04T09:20:09.000Z</time>
        <extensions>
          <ns3:TrackPointExtension>
            <ns3:atemp>26.0</ns3:atemp>
          </ns3:TrackPointExtension>
        </extensions>
      </trkpt>
      <trkpt lat="43.117257244884967803955078125" lon="13.04418736137449741363525390625">
        <ele>434.399993896484375</ele>
        <time>2021-06-04T09:20:11.000Z</time>
        <extensions>
          <ns3:TrackPointExtension>
            <ns3:atemp>26.0</ns3:atemp>
          </ns3:TrackPointExtension>
        </extensions>
      </trkpt>
      <trkpt lat="43.11729353852570056915283203125" lon="13.04424955509603023529052734375">
        <ele>434.20001220703125</ele>
        <time>2021-06-04T09:20:12.000Z</time>
        <extensions>
          <ns3:TrackPointExtension>
            <ns3:atemp>26.0</ns3:atemp>
          </ns3:TrackPointExtension>
        </extensions>
      </trkpt>
      <trkpt lat="43.1173905171453952789306640625" lon="13.044390119612216949462890625">
        <ele>434.20001220703125</ele>
        <time>2021-06-04T09:20:15.000Z</time>
        <extensions>
          <ns3:TrackPointExtension>
            <ns3:atemp>26.0</ns3:atemp>
          </ns3:TrackPointExtension>
        </extensions>
      </trkpt>
      <trkpt lat="43.11741993762552738189697265625" lon="13.04442909546196460723876953125">
        <ele>434.20001220703125</ele>
        <time>2021-06-04T09:20:16.000Z</time>
        <extensions>
          <ns3:TrackPointExtension>
            <ns3:atemp>26.0</ns3:atemp>
          </ns3:TrackPointExtension>
        </extensions>
      </trkpt>
      <trkpt lat="43.11745874583721160888671875" lon="13.04456052370369434356689453125">
        <ele>436</ele>
        <time>2021-06-04T09:20:19.000Z</time>
        <extensions>
          <ns3:TrackPointExtension>
            <ns3:atemp>26.0</ns3:atemp>
          </ns3:TrackPointExtension>
        </extensions>
      </trkpt>
      <trkpt lat="43.11746000312268733978271484375" lon="13.04461064748466014862060546875">
        <ele>437</ele>
        <time>2021-06-04T09:20:20.000Z</time>
        <extensions>
          <ns3:TrackPointExtension>
            <ns3:atemp>26.0</ns3:atemp>
          </ns3:TrackPointExtension>
        </extensions>
      </trkpt>
      <trkpt lat="43.1174626015126705169677734375" lon="13.044664375483989715576171875">
        <ele>437.79998779296875</ele>
        <time>2021-06-04T09:20:21.000Z</time>
        <extensions>
          <ns3:TrackPointExtension>
            <ns3:atemp>26.0</ns3:atemp>
          </ns3:TrackPointExtension>
        </extensions>
      </trkpt>
      <trkpt lat="43.1174768507480621337890625" lon="13.0447711609303951263427734375">
        <ele>439.20001220703125</ele>
        <time>2021-06-04T09:20:23.000Z</time>
        <extensions>
          <ns3:TrackPointExtension>
            <ns3:atemp>26.0</ns3:atemp>
          </ns3:TrackPointExtension>
        </extensions>
      </trkpt>
      <trkpt lat="43.11750828288495540618896484375" lon="13.044871576130390167236328125">
        <ele>440.79998779296875</ele>
        <time>2021-06-04T09:20:25.000Z</time>
        <extensions>
          <ns3:TrackPointExtension>
            <ns3:atemp>26.0</ns3:atemp>
          </ns3:TrackPointExtension>
        </extensions>
      </trkpt>
      <trkpt lat="43.11752672307193279266357421875" lon="13.044925220310688018798828125">
        <ele>441.79998779296875</ele>
        <time>2021-06-04T09:20:26.000Z</time>
        <extensions>
          <ns3:TrackPointExtension>
            <ns3:atemp>26.0</ns3:atemp>
          </ns3:TrackPointExtension>
        </extensions>
      </trkpt>
      <trkpt lat="43.11754524707794189453125" lon="13.04498347453773021697998046875">
        <ele>442.399993896484375</ele>
        <time>2021-06-04T09:20:27.000Z</time>
        <extensions>
          <ns3:TrackPointExtension>
            <ns3:atemp>26.0</ns3:atemp>
          </ns3:TrackPointExtension>
        </extensions>
      </trkpt>
      <trkpt lat="43.1175970472395420074462890625" lon="13.04517441429197788238525390625">
        <ele>443.79998779296875</ele>
        <time>2021-06-04T09:20:30.000Z</time>
        <extensions>
          <ns3:TrackPointExtension>
            <ns3:atemp>26.0</ns3:atemp>
          </ns3:TrackPointExtension>
        </extensions>
      </trkpt>
      <trkpt lat="43.117633424699306488037109375" lon="13.04530383087694644927978515625">
        <ele>444.79998779296875</ele>
        <time>2021-06-04T09:20:32.000Z</time>
        <extensions>
          <ns3:TrackPointExtension>
            <ns3:atemp>26.0</ns3:atemp>
          </ns3:TrackPointExtension>
        </extensions>
      </trkpt>
      <trkpt lat="43.1176513619720935821533203125" lon="13.0453702993690967559814453125">
        <ele>445.20001220703125</ele>
        <time>2021-06-04T09:20:33.000Z</time>
        <extensions>
          <ns3:TrackPointExtension>
            <ns3:atemp>26.0</ns3:atemp>
          </ns3:TrackPointExtension>
        </extensions>
      </trkpt>
      <trkpt lat="43.11772252433001995086669921875" lon="13.0456316471099853515625">
        <ele>446</ele>
        <time>2021-06-04T09:20:37.000Z</time>
        <extensions>
          <ns3:TrackPointExtension>
            <ns3:atemp>26.0</ns3:atemp>
          </ns3:TrackPointExtension>
        </extensions>
      </trkpt>
      <trkpt lat="43.11779997311532497406005859375" lon="13.04588302038609981536865234375">
        <ele>446</ele>
        <time>2021-06-04T09:20:41.000Z</time>
        <extensions>
          <ns3:TrackPointExtension>
            <ns3:atemp>26.0</ns3:atemp>
          </ns3:TrackPointExtension>
        </extensions>
      </trkpt>
      <trkpt lat="43.1179125420749187469482421875" lon="13.04616180248558521270751953125">
        <ele>446.399993896484375</ele>
        <time>2021-06-04T09:20:46.000Z</time>
        <extensions>
          <ns3:TrackPointExtension>
            <ns3:atemp>26.0</ns3:atemp>
          </ns3:TrackPointExtension>
        </extensions>
      </trkpt>
      <trkpt lat="43.11796777881681919097900390625" lon="13.04626020602881908416748046875">
        <ele>446.399993896484375</ele>
        <time>2021-06-04T09:20:48.000Z</time>
        <extensions>
          <ns3:TrackPointExtension>
            <ns3:atemp>26.0</ns3:atemp>
          </ns3:TrackPointExtension>
        </extensions>
      </trkpt>
      <trkpt lat="43.11806836165487766265869140625" lon="13.0464049614965915679931640625">
        <ele>446.600006103515625</ele>
        <time>2021-06-04T09:20:51.000Z</time>
        <extensions>
          <ns3:TrackPointExtension>
            <ns3:atemp>26.0</ns3:atemp>
          </ns3:TrackPointExtension>
        </extensions>
      </trkpt>
      <trkpt lat="43.11819191090762615203857421875" lon="13.04654158651828765869140625">
        <ele>446.600006103515625</ele>
        <time>2021-06-04T09:20:54.000Z</time>
        <extensions>
          <ns3:TrackPointExtension>
            <ns3:atemp>26.0</ns3:atemp>
          </ns3:TrackPointExtension>
        </extensions>
      </trkpt>
      <trkpt lat="43.11846750788390636444091796875" lon="13.04675876162946224212646484375">
        <ele>446.600006103515625</ele>
        <time>2021-06-04T09:20:59.000Z</time>
        <extensions>
          <ns3:TrackPointExtension>
            <ns3:atemp>26.0</ns3:atemp>
          </ns3:TrackPointExtension>
        </extensions>
      </trkpt>
      <trkpt lat="43.118807561695575714111328125" lon="13.04710845462977886199951171875">
        <ele>445.20001220703125</ele>
        <time>2021-06-04T09:21:05.000Z</time>
        <extensions>
          <ns3:TrackPointExtension>
            <ns3:atemp>26.0</ns3:atemp>
          </ns3:TrackPointExtension>
        </extensions>
      </trkpt>
      <trkpt lat="43.11885709874331951141357421875" lon="13.0471791140735149383544921875">
        <ele>444.600006103515625</ele>
        <time>2021-06-04T09:21:06.000Z</time>
        <extensions>
          <ns3:TrackPointExtension>
            <ns3:atemp>26.0</ns3:atemp>
          </ns3:TrackPointExtension>
        </extensions>
      </trkpt>
      <trkpt lat="43.11895701102912425994873046875" lon="13.04731297306716442108154296875">
        <ele>443.600006103515625</ele>
        <time>2021-06-04T09:21:08.000Z</time>
        <extensions>
          <ns3:TrackPointExtension>
            <ns3:atemp>26.0</ns3:atemp>
          </ns3:TrackPointExtension>
        </extensions>
      </trkpt>
      <trkpt lat="43.11910956166684627532958984375" lon="13.04752805270254611968994140625">
        <ele>443</ele>
        <time>2021-06-04T09:21:11.000Z</time>
        <extensions>
          <ns3:TrackPointExtension>
            <ns3:atemp>26.0</ns3:atemp>
          </ns3:TrackPointExtension>
        </extensions>
      </trkpt>
      <trkpt lat="43.11928206123411655426025390625" lon="13.04774187505245208740234375">
        <ele>442.79998779296875</ele>
        <time>2021-06-04T09:21:15.000Z</time>
        <extensions>
          <ns3:TrackPointExtension>
            <ns3:atemp>26.0</ns3:atemp>
          </ns3:TrackPointExtension>
        </extensions>
      </trkpt>
      <trkpt lat="43.11949144117534160614013671875" lon="13.0480134487152099609375">
        <ele>443.399993896484375</ele>
        <time>2021-06-04T09:21:21.000Z</time>
        <extensions>
          <ns3:TrackPointExtension>
            <ns3:atemp>26.0</ns3:atemp>
          </ns3:TrackPointExtension>
        </extensions>
      </trkpt>
      <trkpt lat="43.1195180118083953857421875" lon="13.04806047119200229644775390625">
        <ele>443.79998779296875</ele>
        <time>2021-06-04T09:21:22.000Z</time>
        <extensions>
          <ns3:TrackPointExtension>
            <ns3:atemp>26.0</ns3:atemp>
          </ns3:TrackPointExtension>
        </extensions>
      </trkpt>
      <trkpt lat="43.1195621006190776824951171875" lon="13.04816558025777339935302734375">
        <ele>444.79998779296875</ele>
        <time>2021-06-04T09:21:24.000Z</time>
        <extensions>
          <ns3:TrackPointExtension>
            <ns3:atemp>26.0</ns3:atemp>
          </ns3:TrackPointExtension>
        </extensions>
      </trkpt>
      <trkpt lat="43.11962035484611988067626953125" lon="13.048284351825714111328125">
        <ele>445</ele>
        <time>2021-06-04T09:21:26.000Z</time>
        <extensions>
          <ns3:TrackPointExtension>
            <ns3:atemp>26.0</ns3:atemp>
          </ns3:TrackPointExtension>
        </extensions>
      </trkpt>
      <trkpt lat="43.119780533015727996826171875" lon="13.04846799932420253753662109375">
        <ele>445.20001220703125</ele>
        <time>2021-06-04T09:21:30.000Z</time>
        <extensions>
          <ns3:TrackPointExtension>
            <ns3:atemp>26.0</ns3:atemp>
          </ns3:TrackPointExtension>
        </extensions>
      </trkpt>
      <trkpt lat="43.11983023770153522491455078125" lon="13.04861518554389476776123046875">
        <ele>445.20001220703125</ele>
        <time>2021-06-04T09:21:32.000Z</time>
        <extensions>
          <ns3:TrackPointExtension>
            <ns3:atemp>26.0</ns3:atemp>
          </ns3:TrackPointExtension>
        </extensions>
      </trkpt>
      <trkpt lat="43.11985194683074951171875" lon="13.04868274368345737457275390625">
        <ele>445</ele>
        <time>2021-06-04T09:21:33.000Z</time>
        <extensions>
          <ns3:TrackPointExtension>
            <ns3:atemp>26.0</ns3:atemp>
          </ns3:TrackPointExtension>
        </extensions>
      </trkpt>
      <trkpt lat="43.11988078057765960693359375" lon="13.0487418361008167266845703125">
        <ele>444.79998779296875</ele>
        <time>2021-06-04T09:21:34.000Z</time>
        <extensions>
          <ns3:TrackPointExtension>
            <ns3:atemp>26.0</ns3:atemp>
          </ns3:TrackPointExtension>
        </extensions>
      </trkpt>
      <trkpt lat="43.11998161487281322479248046875" lon="13.048888854682445526123046875">
        <ele>444.399993896484375</ele>
        <time>2021-06-04T09:21:37.000Z</time>
        <extensions>
          <ns3:TrackPointExtension>
            <ns3:atemp>26.0</ns3:atemp>
          </ns3:TrackPointExtension>
        </extensions>
      </trkpt>
      <trkpt lat="43.12005386687815189361572265625" lon="13.0489892698824405670166015625">
        <ele>443.79998779296875</ele>
        <time>2021-06-04T09:21:39.000Z</time>
        <extensions>
          <ns3:TrackPointExtension>
            <ns3:atemp>26.0</ns3:atemp>
          </ns3:TrackPointExtension>
        </extensions>
      </trkpt>
      <trkpt lat="43.12024732120335102081298828125" lon="13.0492390505969524383544921875">
        <ele>443.399993896484375</ele>
        <time>2021-06-04T09:21:44.000Z</time>
        <extensions>
          <ns3:TrackPointExtension>
            <ns3:atemp>26.0</ns3:atemp>
          </ns3:TrackPointExtension>
        </extensions>
      </trkpt>
      <trkpt lat="43.1203302182257175445556640625" lon="13.049352206289768218994140625">
        <ele>443.20001220703125</ele>
        <time>2021-06-04T09:21:46.000Z</time>
        <extensions>
          <ns3:TrackPointExtension>
            <ns3:atemp>26.0</ns3:atemp>
          </ns3:TrackPointExtension>
        </extensions>
      </trkpt>
      <trkpt lat="43.1203790009021759033203125" lon="13.04940710775554180145263671875">
        <ele>443.20001220703125</ele>
        <time>2021-06-04T09:21:47.000Z</time>
        <extensions>
          <ns3:TrackPointExtension>
            <ns3:atemp>26.0</ns3:atemp>
          </ns3:TrackPointExtension>
        </extensions>
      </trkpt>
      <trkpt lat="43.12048486433923244476318359375" lon="13.04951389320194721221923828125">
        <ele>443.20001220703125</ele>
        <time>2021-06-04T09:21:49.000Z</time>
        <extensions>
          <ns3:TrackPointExtension>
            <ns3:atemp>26.0</ns3:atemp>
          </ns3:TrackPointExtension>
        </extensions>
      </trkpt>
      <trkpt lat="43.12063372693955898284912109375" lon="13.049663342535495758056640625">
        <ele>443</ele>
        <time>2021-06-04T09:21:52.000Z</time>
        <extensions>
          <ns3:TrackPointExtension>
            <ns3:atemp>26.0</ns3:atemp>
          </ns3:TrackPointExtension>
        </extensions>
      </trkpt>
      <trkpt lat="43.120721317827701568603515625" lon="13.04974238388240337371826171875">
        <ele>442.600006103515625</ele>
        <time>2021-06-04T09:21:54.000Z</time>
        <extensions>
          <ns3:TrackPointExtension>
            <ns3:atemp>26.0</ns3:atemp>
          </ns3:TrackPointExtension>
        </extensions>
      </trkpt>
      <trkpt lat="43.12083573080599308013916015625" lon="13.0498566292226314544677734375">
        <ele>442.399993896484375</ele>
        <time>2021-06-04T09:21:57.000Z</time>
        <extensions>
          <ns3:TrackPointExtension>
            <ns3:atemp>26.0</ns3:atemp>
          </ns3:TrackPointExtension>
        </extensions>
      </trkpt>
      <trkpt lat="43.12090027146041393280029296875" lon="13.049936592578887939453125">
        <ele>442.20001220703125</ele>
        <time>2021-06-04T09:21:59.000Z</time>
        <extensions>
          <ns3:TrackPointExtension>
            <ns3:atemp>26.0</ns3:atemp>
          </ns3:TrackPointExtension>
        </extensions>
      </trkpt>
      <trkpt lat="43.12096263282001018524169921875" lon="13.05001932196319103240966796875">
        <ele>442.20001220703125</ele>
        <time>2021-06-04T09:22:01.000Z</time>
        <extensions>
          <ns3:TrackPointExtension>
            <ns3:atemp>26.0</ns3:atemp>
          </ns3:TrackPointExtension>
        </extensions>
      </trkpt>
      <trkpt lat="43.1210470385849475860595703125" lon="13.0501201562583446502685546875">
        <ele>441.79998779296875</ele>
        <time>2021-06-04T09:22:03.000Z</time>
        <extensions>
          <ns3:TrackPointExtension>
            <ns3:atemp>26.0</ns3:atemp>
          </ns3:TrackPointExtension>
        </extensions>
      </trkpt>
      <trkpt lat="43.12109372578561305999755859375" lon="13.0501764826476573944091796875">
        <ele>441.600006103515625</ele>
        <time>2021-06-04T09:22:04.000Z</time>
        <extensions>
          <ns3:TrackPointExtension>
            <ns3:atemp>26.0</ns3:atemp>
          </ns3:TrackPointExtension>
        </extensions>
      </trkpt>
      <trkpt lat="43.1213799677789211273193359375" lon="13.05051133967936038970947265625">
        <ele>441.399993896484375</ele>
        <time>2021-06-04T09:22:10.000Z</time>
        <extensions>
          <ns3:TrackPointExtension>
            <ns3:atemp>26.0</ns3:atemp>
          </ns3:TrackPointExtension>
        </extensions>
      </trkpt>
      <trkpt lat="43.1214614398777484893798828125" lon="13.05061376653611660003662109375">
        <ele>440.399993896484375</ele>
        <time>2021-06-04T09:22:12.000Z</time>
        <extensions>
          <ns3:TrackPointExtension>
            <ns3:atemp>26.0</ns3:atemp>
          </ns3:TrackPointExtension>
        </extensions>
      </trkpt>
      <trkpt lat="43.12158792279660701751708984375" lon="13.0507742799818515777587890625">
        <ele>439.20001220703125</ele>
        <time>2021-06-04T09:22:15.000Z</time>
        <extensions>
          <ns3:TrackPointExtension>
            <ns3:atemp>26.0</ns3:atemp>
          </ns3:TrackPointExtension>
        </extensions>
      </trkpt>
      <trkpt lat="43.1216733343899250030517578125" lon="13.05088886059820652008056640625">
        <ele>438.79998779296875</ele>
        <time>2021-06-04T09:22:17.000Z</time>
        <extensions>
          <ns3:TrackPointExtension>
            <ns3:atemp>26.0</ns3:atemp>
          </ns3:TrackPointExtension>
        </extensions>
      </trkpt>
      <trkpt lat="43.12176905572414398193359375" lon="13.0509791336953639984130859375">
        <ele>438.399993896484375</ele>
        <time>2021-06-04T09:22:19.000Z</time>
        <extensions>
          <ns3:TrackPointExtension>
            <ns3:atemp>26.0</ns3:atemp>
          </ns3:TrackPointExtension>
        </extensions>
      </trkpt>
      <trkpt lat="43.12181306071579456329345703125" lon="13.05101475678384304046630859375">
        <ele>438</ele>
        <time>2021-06-04T09:22:20.000Z</time>
        <extensions>
          <ns3:TrackPointExtension>
            <ns3:atemp>26.0</ns3:atemp>
          </ns3:TrackPointExtension>
        </extensions>
      </trkpt>
      <trkpt lat="43.12188028357923030853271484375" lon="13.05107929743826389312744140625">
        <ele>436.600006103515625</ele>
        <time>2021-06-04T09:22:22.000Z</time>
        <extensions>
          <ns3:TrackPointExtension>
            <ns3:atemp>26.0</ns3:atemp>
          </ns3:TrackPointExtension>
        </extensions>
      </trkpt>
      <trkpt lat="43.12190861441195011138916015625" lon="13.0511115677654743194580078125">
        <ele>435.600006103515625</ele>
        <time>2021-06-04T09:22:23.000Z</time>
        <extensions>
          <ns3:TrackPointExtension>
            <ns3:atemp>26.0</ns3:atemp>
          </ns3:TrackPointExtension>
        </extensions>
      </trkpt>
      <trkpt lat="43.1219660304486751556396484375" lon="13.0511762760579586029052734375">
        <ele>433.79998779296875</ele>
        <time>2021-06-04T09:22:25.000Z</time>
        <extensions>
          <ns3:TrackPointExtension>
            <ns3:atemp>26.0</ns3:atemp>
          </ns3:TrackPointExtension>
        </extensions>
      </trkpt>
      <trkpt lat="43.12202252447605133056640625" lon="13.0512399785220623016357421875">
        <ele>432</ele>
        <time>2021-06-04T09:22:27.000Z</time>
        <extensions>
          <ns3:TrackPointExtension>
            <ns3:atemp>26.0</ns3:atemp>
          </ns3:TrackPointExtension>
        </extensions>
      </trkpt>
      <trkpt lat="43.12208647839725017547607421875" lon="13.05128633044660091400146484375">
        <ele>430.79998779296875</ele>
        <time>2021-06-04T09:22:30.000Z</time>
        <extensions>
          <ns3:TrackPointExtension>
            <ns3:atemp>26.0</ns3:atemp>
          </ns3:TrackPointExtension>
        </extensions>
      </trkpt>
      <trkpt lat="43.122102655470371246337890625" lon="13.05129043757915496826171875">
        <ele>429.79998779296875</ele>
        <time>2021-06-04T09:22:33.000Z</time>
        <extensions>
          <ns3:TrackPointExtension>
            <ns3:atemp>26.0</ns3:atemp>
          </ns3:TrackPointExtension>
        </extensions>
      </trkpt>
      <trkpt lat="43.122103326022624969482421875" lon="13.05128867737948894500732421875">
        <ele>429.600006103515625</ele>
        <time>2021-06-04T09:22:34.000Z</time>
        <extensions>
          <ns3:TrackPointExtension>
            <ns3:atemp>26.0</ns3:atemp>
          </ns3:TrackPointExtension>
        </extensions>
      </trkpt>
      <trkpt lat="43.12209536321461200714111328125" lon="13.05127576924860477447509765625">
        <ele>428.79998779296875</ele>
        <time>2021-06-04T09:22:47.000Z</time>
        <extensions>
          <ns3:TrackPointExtension>
            <ns3:atemp>26.0</ns3:atemp>
          </ns3:TrackPointExtension>
        </extensions>
      </trkpt>
      <trkpt lat="43.12215202488005161285400390625" lon="13.05132505483925342559814453125">
        <ele>428.79998779296875</ele>
        <time>2021-06-04T09:22:56.000Z</time>
        <extensions>
          <ns3:TrackPointExtension>
            <ns3:atemp>26.0</ns3:atemp>
          </ns3:TrackPointExtension>
        </extensions>
      </trkpt>
      <trkpt lat="43.12221254222095012664794921875" lon="13.051376603543758392333984375">
        <ele>429</ele>
        <time>2021-06-04T09:22:58.000Z</time>
        <extensions>
          <ns3:TrackPointExtension>
            <ns3:atemp>26.0</ns3:atemp>
          </ns3:TrackPointExtension>
        </extensions>
      </trkpt>
      <trkpt lat="43.1223717145621776580810546875" lon="13.05152890272438526153564453125">
        <ele>428.399993896484375</ele>
        <time>2021-06-04T09:23:03.000Z</time>
        <extensions>
          <ns3:TrackPointExtension>
            <ns3:atemp>26.0</ns3:atemp>
          </ns3:TrackPointExtension>
        </extensions>
      </trkpt>
      <trkpt lat="43.12239593826234340667724609375" lon="13.0515655316412448883056640625">
        <ele>427.600006103515625</ele>
        <time>2021-06-04T09:23:04.000Z</time>
        <extensions>
          <ns3:TrackPointExtension>
            <ns3:atemp>26.0</ns3:atemp>
          </ns3:TrackPointExtension>
        </extensions>
      </trkpt>
      <trkpt lat="43.12243617139756679534912109375" lon="13.05166058242321014404296875">
        <ele>426.20001220703125</ele>
        <time>2021-06-04T09:23:06.000Z</time>
        <extensions>
          <ns3:TrackPointExtension>
            <ns3:atemp>26.0</ns3:atemp>
          </ns3:TrackPointExtension>
        </extensions>
      </trkpt>
      <trkpt lat="43.12245838344097137451171875" lon="13.051719255745410919189453125">
        <ele>425.600006103515625</ele>
        <time>2021-06-04T09:23:07.000Z</time>
        <extensions>
          <ns3:TrackPointExtension>
            <ns3:atemp>26.0</ns3:atemp>
          </ns3:TrackPointExtension>
        </extensions>
      </trkpt>
      <trkpt lat="43.12247791327536106109619140625" lon="13.0517801083624362945556640625">
        <ele>424.79998779296875</ele>
        <time>2021-06-04T09:23:08.000Z</time>
        <extensions>
          <ns3:TrackPointExtension>
            <ns3:atemp>26.0</ns3:atemp>
          </ns3:TrackPointExtension>
        </extensions>
      </trkpt>
      <trkpt lat="43.12250104732811450958251953125" lon="13.05184523575007915496826171875">
        <ele>424</ele>
        <time>2021-06-04T09:23:09.000Z</time>
        <extensions>
          <ns3:TrackPointExtension>
            <ns3:atemp>26.0</ns3:atemp>
          </ns3:TrackPointExtension>
        </extensions>
      </trkpt>
      <trkpt lat="43.1225252710282802581787109375" lon="13.0519071780145168304443359375">
        <ele>423.20001220703125</ele>
        <time>2021-06-04T09:23:10.000Z</time>
        <extensions>
          <ns3:TrackPointExtension>
            <ns3:atemp>26.0</ns3:atemp>
          </ns3:TrackPointExtension>
        </extensions>
      </trkpt>
      <trkpt lat="43.1225587986409664154052734375" lon="13.05197146721184253692626953125">
        <ele>422.399993896484375</ele>
        <time>2021-06-04T09:23:11.000Z</time>
        <extensions>
          <ns3:TrackPointExtension>
            <ns3:atemp>26.0</ns3:atemp>
          </ns3:TrackPointExtension>
        </extensions>
      </trkpt>
      <trkpt lat="43.12259710393846035003662109375" lon="13.0520354211330413818359375">
        <ele>421.600006103515625</ele>
        <time>2021-06-04T09:23:12.000Z</time>
        <extensions>
          <ns3:TrackPointExtension>
            <ns3:atemp>26.0</ns3:atemp>
          </ns3:TrackPointExtension>
        </extensions>
      </trkpt>
      <trkpt lat="43.1226727925240993499755859375" lon="13.05216106586158275604248046875">
        <ele>419.399993896484375</ele>
        <time>2021-06-04T09:23:14.000Z</time>
        <extensions>
          <ns3:TrackPointExtension>
            <ns3:atemp>26.0</ns3:atemp>
          </ns3:TrackPointExtension>
        </extensions>
      </trkpt>
      <trkpt lat="43.12271176837384700775146484375" lon="13.05222460068762302398681640625">
        <ele>418.20001220703125</ele>
        <time>2021-06-04T09:23:15.000Z</time>
        <extensions>
          <ns3:TrackPointExtension>
            <ns3:atemp>26.0</ns3:atemp>
          </ns3:TrackPointExtension>
        </extensions>
      </trkpt>
      <trkpt lat="43.122745715081691741943359375" lon="13.05228763259947299957275390625">
        <ele>416.79998779296875</ele>
        <time>2021-06-04T09:23:16.000Z</time>
        <extensions>
          <ns3:TrackPointExtension>
            <ns3:atemp>26.0</ns3:atemp>
          </ns3:TrackPointExtension>
        </extensions>
      </trkpt>
      <trkpt lat="43.12277848832309246063232421875" lon="13.0523507483303546905517578125">
        <ele>415.399993896484375</ele>
        <time>2021-06-04T09:23:17.000Z</time>
        <extensions>
          <ns3:TrackPointExtension>
            <ns3:atemp>26.0</ns3:atemp>
          </ns3:TrackPointExtension>
        </extensions>
      </trkpt>
      <trkpt lat="43.12281243503093719482421875" lon="13.0524151213467121124267578125">
        <ele>414</ele>
        <time>2021-06-04T09:23:18.000Z</time>
        <extensions>
          <ns3:TrackPointExtension>
            <ns3:atemp>26.0</ns3:atemp>
          </ns3:TrackPointExtension>
        </extensions>
      </trkpt>
      <trkpt lat="43.12283967621624469757080078125" lon="13.052472956478595733642578125">
        <ele>412.600006103515625</ele>
        <time>2021-06-04T09:23:19.000Z</time>
        <extensions>
          <ns3:TrackPointExtension>
            <ns3:atemp>26.0</ns3:atemp>
          </ns3:TrackPointExtension>
        </extensions>
      </trkpt>
      <trkpt lat="43.1228675879538059234619140625" lon="13.0525291152298450469970703125">
        <ele>411.20001220703125</ele>
        <time>2021-06-04T09:23:20.000Z</time>
        <extensions>
          <ns3:TrackPointExtension>
            <ns3:atemp>26.0</ns3:atemp>
          </ns3:TrackPointExtension>
        </extensions>
      </trkpt>
      <trkpt lat="43.122892566025257110595703125" lon="13.052580244839191436767578125">
        <ele>410</ele>
        <time>2021-06-04T09:23:21.000Z</time>
        <extensions>
          <ns3:TrackPointExtension>
            <ns3:atemp>26.0</ns3:atemp>
          </ns3:TrackPointExtension>
        </extensions>
      </trkpt>
      <trkpt lat="43.1229217350482940673828125" lon="13.0526276864111423492431640625">
        <ele>408.600006103515625</ele>
        <time>2021-06-04T09:23:22.000Z</time>
        <extensions>
          <ns3:TrackPointExtension>
            <ns3:atemp>26.0</ns3:atemp>
          </ns3:TrackPointExtension>
        </extensions>
      </trkpt>
      <trkpt lat="43.1229618005454540252685546875" lon="13.052670098841190338134765625">
        <ele>407.399993896484375</ele>
        <time>2021-06-04T09:23:23.000Z</time>
        <extensions>
          <ns3:TrackPointExtension>
            <ns3:atemp>26.0</ns3:atemp>
          </ns3:TrackPointExtension>
        </extensions>
      </trkpt>
      <trkpt lat="43.12300999648869037628173828125" lon="13.0527017824351787567138671875">
        <ele>406.600006103515625</ele>
        <time>2021-06-04T09:23:24.000Z</time>
        <extensions>
          <ns3:TrackPointExtension>
            <ns3:atemp>26.0</ns3:atemp>
          </ns3:TrackPointExtension>
        </extensions>
      </trkpt>
      <trkpt lat="43.12305458821356296539306640625" lon="13.05271603167057037353515625">
        <ele>405.600006103515625</ele>
        <time>2021-06-04T09:23:25.000Z</time>
        <extensions>
          <ns3:TrackPointExtension>
            <ns3:atemp>26.0</ns3:atemp>
          </ns3:TrackPointExtension>
        </extensions>
      </trkpt>
      <trkpt lat="43.12310923822224140167236328125" lon="13.052723743021488189697265625">
        <ele>404.600006103515625</ele>
        <time>2021-06-04T09:23:26.000Z</time>
        <extensions>
          <ns3:TrackPointExtension>
            <ns3:atemp>26.0</ns3:atemp>
          </ns3:TrackPointExtension>
        </extensions>
      </trkpt>
      <trkpt lat="43.1232142634689807891845703125" lon="13.05269918404519557952880859375">
        <ele>403</ele>
        <time>2021-06-04T09:23:28.000Z</time>
        <extensions>
          <ns3:TrackPointExtension>
            <ns3:atemp>26.0</ns3:atemp>
          </ns3:TrackPointExtension>
        </extensions>
      </trkpt>
      <trkpt lat="43.12326916493475437164306640625" lon="13.0526736192405223846435546875">
        <ele>402.79998779296875</ele>
        <time>2021-06-04T09:23:29.000Z</time>
        <extensions>
          <ns3:TrackPointExtension>
            <ns3:atemp>26.0</ns3:atemp>
          </ns3:TrackPointExtension>
        </extensions>
      </trkpt>
      <trkpt lat="43.12339707277715206146240234375" lon="13.052595667541027069091796875">
        <ele>402</ele>
        <time>2021-06-04T09:23:31.000Z</time>
        <extensions>
          <ns3:TrackPointExtension>
            <ns3:atemp>26.0</ns3:atemp>
          </ns3:TrackPointExtension>
        </extensions>
      </trkpt>
      <trkpt lat="43.12346798367798328399658203125" lon="13.05255644023418426513671875">
        <ele>401.79998779296875</ele>
        <time>2021-06-04T09:23:32.000Z</time>
        <extensions>
          <ns3:TrackPointExtension>
            <ns3:atemp>26.0</ns3:atemp>
          </ns3:TrackPointExtension>
        </extensions>
      </trkpt>
      <trkpt lat="43.12354090623557567596435546875" lon="13.0525250919163227081298828125">
        <ele>401.20001220703125</ele>
        <time>2021-06-04T09:23:33.000Z</time>
        <extensions>
          <ns3:TrackPointExtension>
            <ns3:atemp>26.0</ns3:atemp>
          </ns3:TrackPointExtension>
        </extensions>
      </trkpt>
      <trkpt lat="43.12368758954107761383056640625" lon="13.05248376913368701934814453125">
        <ele>400.20001220703125</ele>
        <time>2021-06-04T09:23:35.000Z</time>
        <extensions>
          <ns3:TrackPointExtension>
            <ns3:atemp>26.0</ns3:atemp>
          </ns3:TrackPointExtension>
        </extensions>
      </trkpt>
      <trkpt lat="43.12383360229432582855224609375" lon="13.052470944821834564208984375">
        <ele>398.20001220703125</ele>
        <time>2021-06-04T09:23:37.000Z</time>
        <extensions>
          <ns3:TrackPointExtension>
            <ns3:atemp>26.0</ns3:atemp>
          </ns3:TrackPointExtension>
        </extensions>
      </trkpt>
      <trkpt lat="43.12390568666160106658935546875" lon="13.05247731506824493408203125">
        <ele>397.20001220703125</ele>
        <time>2021-06-04T09:23:38.000Z</time>
        <extensions>
          <ns3:TrackPointExtension>
            <ns3:atemp>26.0</ns3:atemp>
          </ns3:TrackPointExtension>
        </extensions>
      </trkpt>
      <trkpt lat="43.1239773519337177276611328125" lon="13.05248997174203395843505859375">
        <ele>396.20001220703125</ele>
        <time>2021-06-04T09:23:39.000Z</time>
        <extensions>
          <ns3:TrackPointExtension>
            <ns3:atemp>26.0</ns3:atemp>
          </ns3:TrackPointExtension>
        </extensions>
      </trkpt>
      <trkpt lat="43.1240517832338809967041015625" lon="13.052507825195789337158203125">
        <ele>395</ele>
        <time>2021-06-04T09:23:40.000Z</time>
        <extensions>
          <ns3:TrackPointExtension>
            <ns3:atemp>26.0</ns3:atemp>
          </ns3:TrackPointExtension>
        </extensions>
      </trkpt>
      <trkpt lat="43.12412537634372711181640625" lon="13.052527271211147308349609375">
        <ele>393.79998779296875</ele>
        <time>2021-06-04T09:23:41.000Z</time>
        <extensions>
          <ns3:TrackPointExtension>
            <ns3:atemp>26.0</ns3:atemp>
          </ns3:TrackPointExtension>
        </extensions>
      </trkpt>
      <trkpt lat="43.1242003105580806732177734375" lon="13.05254680104553699493408203125">
        <ele>393</ele>
        <time>2021-06-04T09:23:42.000Z</time>
        <extensions>
          <ns3:TrackPointExtension>
            <ns3:atemp>26.0</ns3:atemp>
          </ns3:TrackPointExtension>
        </extensions>
      </trkpt>
      <trkpt lat="43.12428203411400318145751953125" lon="13.052568845450878143310546875">
        <ele>392.399993896484375</ele>
        <time>2021-06-04T09:23:43.000Z</time>
        <extensions>
          <ns3:TrackPointExtension>
            <ns3:atemp>26.0</ns3:atemp>
          </ns3:TrackPointExtension>
        </extensions>
      </trkpt>
      <trkpt lat="43.12445755116641521453857421875" lon="13.052613437175750732421875">
        <ele>390.79998779296875</ele>
        <time>2021-06-04T09:23:45.000Z</time>
        <extensions>
          <ns3:TrackPointExtension>
            <ns3:atemp>26.0</ns3:atemp>
          </ns3:TrackPointExtension>
        </extensions>
      </trkpt>
      <trkpt lat="43.1246276199817657470703125" lon="13.0526635609567165374755859375">
        <ele>389.399993896484375</ele>
        <time>2021-06-04T09:23:47.000Z</time>
        <extensions>
          <ns3:TrackPointExtension>
            <ns3:atemp>26.0</ns3:atemp>
          </ns3:TrackPointExtension>
        </extensions>
      </trkpt>
      <trkpt lat="43.124794922769069671630859375" lon="13.0527192167937755584716796875">
        <ele>388.399993896484375</ele>
        <time>2021-06-04T09:23:49.000Z</time>
        <extensions>
          <ns3:TrackPointExtension>
            <ns3:atemp>26.0</ns3:atemp>
          </ns3:TrackPointExtension>
        </extensions>
      </trkpt>
      <trkpt lat="43.12504260800778865814208984375" lon="13.0527985095977783203125">
        <ele>387.20001220703125</ele>
        <time>2021-06-04T09:23:52.000Z</time>
        <extensions>
          <ns3:TrackPointExtension>
            <ns3:atemp>26.0</ns3:atemp>
          </ns3:TrackPointExtension>
        </extensions>
      </trkpt>
      <trkpt lat="43.12527914531528949737548828125" lon="13.0528734438121318817138671875">
        <ele>386</ele>
        <time>2021-06-04T09:23:55.000Z</time>
        <extensions>
          <ns3:TrackPointExtension>
            <ns3:atemp>26.0</ns3:atemp>
          </ns3:TrackPointExtension>
        </extensions>
      </trkpt>
      <trkpt lat="43.12536011449992656707763671875" lon="13.05290118791162967681884765625">
        <ele>385.79998779296875</ele>
        <time>2021-06-04T09:23:56.000Z</time>
        <extensions>
          <ns3:TrackPointExtension>
            <ns3:atemp>26.0</ns3:atemp>
          </ns3:TrackPointExtension>
        </extensions>
      </trkpt>
      <trkpt lat="43.12562280334532260894775390625" lon="13.05297360755503177642822265625">
        <ele>384.600006103515625</ele>
        <time>2021-06-04T09:23:59.000Z</time>
        <extensions>
          <ns3:TrackPointExtension>
            <ns3:atemp>26.0</ns3:atemp>
          </ns3:TrackPointExtension>
        </extensions>
      </trkpt>
      <trkpt lat="43.1259038485586643218994140625" lon="13.05304996669292449951171875">
        <ele>383.79998779296875</ele>
        <time>2021-06-04T09:24:02.000Z</time>
        <extensions>
          <ns3:TrackPointExtension>
            <ns3:atemp>26.0</ns3:atemp>
          </ns3:TrackPointExtension>
        </extensions>
      </trkpt>
      <trkpt lat="43.12609118409454822540283203125" lon="13.05310168303549289703369140625">
        <ele>383</ele>
        <time>2021-06-04T09:24:04.000Z</time>
        <extensions>
          <ns3:TrackPointExtension>
            <ns3:atemp>26.0</ns3:atemp>
          </ns3:TrackPointExtension>
        </extensions>
      </trkpt>
      <trkpt lat="43.126266114413738250732421875" lon="13.0531403236091136932373046875">
        <ele>381</ele>
        <time>2021-06-04T09:24:06.000Z</time>
        <extensions>
          <ns3:TrackPointExtension>
            <ns3:atemp>26.0</ns3:atemp>
          </ns3:TrackPointExtension>
        </extensions>
      </trkpt>
      <trkpt lat="43.12641841359436511993408203125" lon="13.053176701068878173828125">
        <ele>379.600006103515625</ele>
        <time>2021-06-04T09:24:08.000Z</time>
        <extensions>
          <ns3:TrackPointExtension>
            <ns3:atemp>26.0</ns3:atemp>
          </ns3:TrackPointExtension>
        </extensions>
      </trkpt>
      <trkpt lat="43.12648965977132320404052734375" lon="13.05320628918707370758056640625">
        <ele>379.399993896484375</ele>
        <time>2021-06-04T09:24:09.000Z</time>
        <extensions>
          <ns3:TrackPointExtension>
            <ns3:atemp>26.0</ns3:atemp>
          </ns3:TrackPointExtension>
        </extensions>
      </trkpt>
      <trkpt lat="43.12666668556630611419677734375" lon="13.053352050483226776123046875">
        <ele>379</ele>
        <time>2021-06-04T09:24:12.000Z</time>
        <extensions>
          <ns3:TrackPointExtension>
            <ns3:atemp>26.0</ns3:atemp>
          </ns3:TrackPointExtension>
        </extensions>
      </trkpt>
      <trkpt lat="43.12674698419868946075439453125" lon="13.0534702353179454803466796875">
        <ele>379</ele>
        <time>2021-06-04T09:24:14.000Z</time>
        <extensions>
          <ns3:TrackPointExtension>
            <ns3:atemp>26.0</ns3:atemp>
          </ns3:TrackPointExtension>
        </extensions>
      </trkpt>
      <trkpt lat="43.12684890814125537872314453125" lon="13.05365036241710186004638671875">
        <ele>379</ele>
        <time>2021-06-04T09:24:17.000Z</time>
        <extensions>
          <ns3:TrackPointExtension>
            <ns3:atemp>26.0</ns3:atemp>
          </ns3:TrackPointExtension>
        </extensions>
      </trkpt>
      <trkpt lat="43.12698486261069774627685546875" lon="13.05396602489054203033447265625">
        <ele>380.600006103515625</ele>
        <time>2021-06-04T09:24:22.000Z</time>
        <extensions>
          <ns3:TrackPointExtension>
            <ns3:atemp>26.0</ns3:atemp>
          </ns3:TrackPointExtension>
        </extensions>
      </trkpt>
      <trkpt lat="43.12700883485376834869384765625" lon="13.05402771569788455963134765625">
        <ele>381.20001220703125</ele>
        <time>2021-06-04T09:24:23.000Z</time>
        <extensions>
          <ns3:TrackPointExtension>
            <ns3:atemp>26.0</ns3:atemp>
          </ns3:TrackPointExtension>
        </extensions>
      </trkpt>
      <trkpt lat="43.12705711461603641510009765625" lon="13.05414539761841297149658203125">
        <ele>382</ele>
        <time>2021-06-04T09:24:25.000Z</time>
        <extensions>
          <ns3:TrackPointExtension>
            <ns3:atemp>26.0</ns3:atemp>
          </ns3:TrackPointExtension>
        </extensions>
      </trkpt>
      <trkpt lat="43.12712567858397960662841796875" lon="13.05426157079637050628662109375">
        <ele>383</ele>
        <time>2021-06-04T09:24:28.000Z</time>
        <extensions>
          <ns3:TrackPointExtension>
            <ns3:atemp>26.0</ns3:atemp>
          </ns3:TrackPointExtension>
        </extensions>
      </trkpt>
      <trkpt lat="43.12713037244975566864013671875" lon="13.0542889796197414398193359375">
        <ele>383.20001220703125</ele>
        <time>2021-06-04T09:24:29.000Z</time>
        <extensions>
          <ns3:TrackPointExtension>
            <ns3:atemp>26.0</ns3:atemp>
          </ns3:TrackPointExtension>
        </extensions>
      </trkpt>
      <trkpt lat="43.12713774852454662322998046875" lon="13.05435611866414546966552734375">
        <ele>383.600006103515625</ele>
        <time>2021-06-04T09:24:31.000Z</time>
        <extensions>
          <ns3:TrackPointExtension>
            <ns3:atemp>26.0</ns3:atemp>
          </ns3:TrackPointExtension>
        </extensions>
      </trkpt>
      <trkpt lat="43.12718309462070465087890625" lon="13.0544264428317546844482421875">
        <ele>384.399993896484375</ele>
        <time>2021-06-04T09:24:33.000Z</time>
        <extensions>
          <ns3:TrackPointExtension>
            <ns3:atemp>26.0</ns3:atemp>
          </ns3:TrackPointExtension>
        </extensions>
      </trkpt>
      <trkpt lat="43.1272137723863124847412109375" lon="13.05446080863475799560546875">
        <ele>385</ele>
        <time>2021-06-04T09:24:34.000Z</time>
        <extensions>
          <ns3:TrackPointExtension>
            <ns3:atemp>26.0</ns3:atemp>
          </ns3:TrackPointExtension>
        </extensions>
      </trkpt>
      <trkpt lat="43.1272456236183643341064453125" lon="13.0544951744377613067626953125">
        <ele>385.399993896484375</ele>
        <time>2021-06-04T09:24:35.000Z</time>
        <extensions>
          <ns3:TrackPointExtension>
            <ns3:atemp>26.0</ns3:atemp>
          </ns3:TrackPointExtension>
        </extensions>
      </trkpt>
      <trkpt lat="43.1274005211889743804931640625" lon="13.05463892407715320587158203125">
        <ele>386.399993896484375</ele>
        <time>2021-06-04T09:24:40.000Z</time>
        <extensions>
          <ns3:TrackPointExtension>
            <ns3:atemp>26.0</ns3:atemp>
          </ns3:TrackPointExtension>
        </extensions>
      </trkpt>
      <trkpt lat="43.1274635531008243560791015625" lon="13.05473514832556247711181640625">
        <ele>386.79998779296875</ele>
        <time>2021-06-04T09:24:43.000Z</time>
        <extensions>
          <ns3:TrackPointExtension>
            <ns3:atemp>26.0</ns3:atemp>
          </ns3:TrackPointExtension>
        </extensions>
      </trkpt>
      <trkpt lat="43.127501271665096282958984375" lon="13.05490848608314990997314453125">
        <ele>387.79998779296875</ele>
        <time>2021-06-04T09:24:47.000Z</time>
        <extensions>
          <ns3:TrackPointExtension>
            <ns3:atemp>26.0</ns3:atemp>
          </ns3:TrackPointExtension>
        </extensions>
      </trkpt>
      <trkpt lat="43.127522058784961700439453125" lon="13.0550366453826427459716796875">
        <ele>389.20001220703125</ele>
        <time>2021-06-04T09:24:50.000Z</time>
        <extensions>
          <ns3:TrackPointExtension>
            <ns3:atemp>26.0</ns3:atemp>
          </ns3:TrackPointExtension>
        </extensions>
      </trkpt>
      <trkpt lat="43.12753706239163875579833984375" lon="13.05515055544674396514892578125">
        <ele>390.399993896484375</ele>
        <time>2021-06-04T09:24:53.000Z</time>
        <extensions>
          <ns3:TrackPointExtension>
            <ns3:atemp>26.0</ns3:atemp>
          </ns3:TrackPointExtension>
        </extensions>
      </trkpt>
      <trkpt lat="43.12756623141467571258544921875" lon="13.05528181605041027069091796875">
        <ele>391.399993896484375</ele>
        <time>2021-06-04T09:24:57.000Z</time>
        <extensions>
          <ns3:TrackPointExtension>
            <ns3:atemp>26.0</ns3:atemp>
          </ns3:TrackPointExtension>
        </extensions>
      </trkpt>
      <trkpt lat="43.12762138433754444122314453125" lon="13.05539480410516262054443359375">
        <ele>392.600006103515625</ele>
        <time>2021-06-04T09:25:01.000Z</time>
        <extensions>
          <ns3:TrackPointExtension>
            <ns3:atemp>26.0</ns3:atemp>
          </ns3:TrackPointExtension>
        </extensions>
      </trkpt>
      <trkpt lat="43.1276719272136688232421875" lon="13.05545389652252197265625">
        <ele>393.600006103515625</ele>
        <time>2021-06-04T09:25:04.000Z</time>
        <extensions>
          <ns3:TrackPointExtension>
            <ns3:atemp>26.0</ns3:atemp>
          </ns3:TrackPointExtension>
        </extensions>
      </trkpt>
      <trkpt lat="43.12769380398094654083251953125" lon="13.05546688847243785858154296875">
        <ele>394</ele>
        <time>2021-06-04T09:25:05.000Z</time>
        <extensions>
          <ns3:TrackPointExtension>
            <ns3:atemp>26.0</ns3:atemp>
          </ns3:TrackPointExtension>
        </extensions>
      </trkpt>
      <trkpt lat="43.1277470290660858154296875" lon="13.05551617406308650970458984375">
        <ele>395.399993896484375</ele>
        <time>2021-06-04T09:25:08.000Z</time>
        <extensions>
          <ns3:TrackPointExtension>
            <ns3:atemp>26.0</ns3:atemp>
          </ns3:TrackPointExtension>
        </extensions>
      </trkpt>
      <trkpt lat="43.12776169739663600921630859375" lon="13.0555352009832859039306640625">
        <ele>396.20001220703125</ele>
        <time>2021-06-04T09:25:10.000Z</time>
        <extensions>
          <ns3:TrackPointExtension>
            <ns3:atemp>26.0</ns3:atemp>
          </ns3:TrackPointExtension>
        </extensions>
      </trkpt>
      <trkpt lat="43.127766810357570648193359375" lon="13.05553830228745937347412109375">
        <ele>396.79998779296875</ele>
        <time>2021-06-04T09:25:11.000Z</time>
        <extensions>
          <ns3:TrackPointExtension>
            <ns3:atemp>26.0</ns3:atemp>
          </ns3:TrackPointExtension>
        </extensions>
      </trkpt>
      <trkpt lat="43.12777628190815448760986328125" lon="13.0555519647896289825439453125">
        <ele>398.20001220703125</ele>
        <time>2021-06-04T09:25:14.000Z</time>
        <extensions>
          <ns3:TrackPointExtension>
            <ns3:atemp>26.0</ns3:atemp>
          </ns3:TrackPointExtension>
        </extensions>
      </trkpt>
      <trkpt lat="43.1277857534587383270263671875" lon="13.0555603466928005218505859375">
        <ele>399.399993896484375</ele>
        <time>2021-06-04T09:25:16.000Z</time>
        <extensions>
          <ns3:TrackPointExtension>
            <ns3:atemp>26.0</ns3:atemp>
          </ns3:TrackPointExtension>
        </extensions>
      </trkpt>
      <trkpt lat="43.127797655761241912841796875" lon="13.055569566786289215087890625">
        <ele>400.79998779296875</ele>
        <time>2021-06-04T09:25:18.000Z</time>
        <extensions>
          <ns3:TrackPointExtension>
            <ns3:atemp>26.0</ns3:atemp>
          </ns3:TrackPointExtension>
        </extensions>
      </trkpt>
      <trkpt lat="43.127878792583942413330078125" lon="13.05562279187142848968505859375">
        <ele>401.600006103515625</ele>
        <time>2021-06-04T09:25:22.000Z</time>
        <extensions>
          <ns3:TrackPointExtension>
            <ns3:atemp>26.0</ns3:atemp>
          </ns3:TrackPointExtension>
        </extensions>
      </trkpt>
      <trkpt lat="43.127945847809314727783203125" lon="13.0557216145098209381103515625">
        <ele>401.79998779296875</ele>
        <time>2021-06-04T09:25:26.000Z</time>
        <extensions>
          <ns3:TrackPointExtension>
            <ns3:atemp>26.0</ns3:atemp>
          </ns3:TrackPointExtension>
        </extensions>
      </trkpt>
      <trkpt lat="43.12796236015856266021728515625" lon="13.055745922029018402099609375">
        <ele>401.79998779296875</ele>
        <time>2021-06-04T09:25:27.000Z</time>
        <extensions>
          <ns3:TrackPointExtension>
            <ns3:atemp>26.0</ns3:atemp>
          </ns3:TrackPointExtension>
        </extensions>
      </trkpt>
      <trkpt lat="43.1280184350907802581787109375" lon="13.055796213448047637939453125">
        <ele>401.79998779296875</ele>
        <time>2021-06-04T09:25:30.000Z</time>
        <extensions>
          <ns3:TrackPointExtension>
            <ns3:atemp>26.0</ns3:atemp>
          </ns3:TrackPointExtension>
        </extensions>
      </trkpt>
      <trkpt lat="43.12803762964904308319091796875" lon="13.0557990632951259613037109375">
        <ele>402</ele>
        <time>2021-06-04T09:25:31.000Z</time>
        <extensions>
          <ns3:TrackPointExtension>
            <ns3:atemp>26.0</ns3:atemp>
          </ns3:TrackPointExtension>
        </extensions>
      </trkpt>
      <trkpt lat="43.1280930340290069580078125" lon="13.05584021843969821929931640625">
        <ele>403</ele>
        <time>2021-06-04T09:25:34.000Z</time>
        <extensions>
          <ns3:TrackPointExtension>
            <ns3:atemp>26.0</ns3:atemp>
          </ns3:TrackPointExtension>
        </extensions>
      </trkpt>
      <trkpt lat="43.12811474315822124481201171875" lon="13.0558522045612335205078125">
        <ele>403.20001220703125</ele>
        <time>2021-06-04T09:25:35.000Z</time>
        <extensions>
          <ns3:TrackPointExtension>
            <ns3:atemp>26.0</ns3:atemp>
          </ns3:TrackPointExtension>
        </extensions>
      </trkpt>
      <trkpt lat="43.12813670374453067779541015625" lon="13.05586402304470539093017578125">
        <ele>403.399993896484375</ele>
        <time>2021-06-04T09:25:36.000Z</time>
        <extensions>
          <ns3:TrackPointExtension>
            <ns3:atemp>26.0</ns3:atemp>
          </ns3:TrackPointExtension>
        </extensions>
      </trkpt>
      <trkpt lat="43.12819562852382659912109375" lon="13.05591590702533721923828125">
        <ele>404.20001220703125</ele>
        <time>2021-06-04T09:25:39.000Z</time>
        <extensions>
          <ns3:TrackPointExtension>
            <ns3:atemp>27.0</ns3:atemp>
          </ns3:TrackPointExtension>
        </extensions>
      </trkpt>
      <trkpt lat="43.12824659049510955810546875" lon="13.055974580347537994384765625">
        <ele>405.399993896484375</ele>
        <time>2021-06-04T09:25:42.000Z</time>
        <extensions>
          <ns3:TrackPointExtension>
            <ns3:atemp>27.0</ns3:atemp>
          </ns3:TrackPointExtension>
        </extensions>
      </trkpt>
      <trkpt lat="43.12827567569911479949951171875" lon="13.0560171604156494140625">
        <ele>406.20001220703125</ele>
        <time>2021-06-04T09:25:44.000Z</time>
        <extensions>
          <ns3:TrackPointExtension>
            <ns3:atemp>27.0</ns3:atemp>
          </ns3:TrackPointExtension>
        </extensions>
      </trkpt>
      <trkpt lat="43.12829260714352130889892578125" lon="13.056036271154880523681640625">
        <ele>406.399993896484375</ele>
        <time>2021-06-04T09:25:45.000Z</time>
        <extensions>
          <ns3:TrackPointExtension>
            <ns3:atemp>27.0</ns3:atemp>
          </ns3:TrackPointExtension>
        </extensions>
      </trkpt>
      <trkpt lat="43.12834138981997966766357421875" lon="13.056097961962223052978515625">
        <ele>407.600006103515625</ele>
        <time>2021-06-04T09:25:48.000Z</time>
        <extensions>
          <ns3:TrackPointExtension>
            <ns3:atemp>27.0</ns3:atemp>
          </ns3:TrackPointExtension>
        </extensions>
      </trkpt>
      <trkpt lat="43.1283936090767383575439453125" lon="13.05616359226405620574951171875">
        <ele>408.79998779296875</ele>
        <time>2021-06-04T09:25:51.000Z</time>
        <extensions>
          <ns3:TrackPointExtension>
            <ns3:atemp>27.0</ns3:atemp>
          </ns3:TrackPointExtension>
        </extensions>
      </trkpt>
      <trkpt lat="43.12840995378792285919189453125" lon="13.0561903305351734161376953125">
        <ele>409.20001220703125</ele>
        <time>2021-06-04T09:25:52.000Z</time>
        <extensions>
          <ns3:TrackPointExtension>
            <ns3:atemp>27.0</ns3:atemp>
          </ns3:TrackPointExtension>
        </extensions>
      </trkpt>
      <trkpt lat="43.12844314612448215484619140625" lon="13.0562479980289936065673828125">
        <ele>410.399993896484375</ele>
        <time>2021-06-04T09:25:54.000Z</time>
        <extensions>
          <ns3:TrackPointExtension>
            <ns3:atemp>27.0</ns3:atemp>
          </ns3:TrackPointExtension>
        </extensions>
      </trkpt>
      <trkpt lat="43.1284988857805728912353515625" lon="13.056324608623981475830078125">
        <ele>411.600006103515625</ele>
        <time>2021-06-04T09:25:57.000Z</time>
        <extensions>
          <ns3:TrackPointExtension>
            <ns3:atemp>27.0</ns3:atemp>
          </ns3:TrackPointExtension>
        </extensions>
      </trkpt>
      <trkpt lat="43.12854305841028690338134765625" lon="13.05637188255786895751953125">
        <ele>412</ele>
        <time>2021-06-04T09:25:59.000Z</time>
        <extensions>
          <ns3:TrackPointExtension>
            <ns3:atemp>27.0</ns3:atemp>
          </ns3:TrackPointExtension>
        </extensions>
      </trkpt>
      <trkpt lat="43.1286085210740566253662109375" lon="13.05644036270678043365478515625">
        <ele>412.600006103515625</ele>
        <time>2021-06-04T09:26:02.000Z</time>
        <extensions>
          <ns3:TrackPointExtension>
            <ns3:atemp>27.0</ns3:atemp>
          </ns3:TrackPointExtension>
        </extensions>
      </trkpt>
      <trkpt lat="43.128692843019962310791015625" lon="13.05658042430877685546875">
        <ele>413.20001220703125</ele>
        <time>2021-06-04T09:26:07.000Z</time>
        <extensions>
          <ns3:TrackPointExtension>
            <ns3:atemp>27.0</ns3:atemp>
          </ns3:TrackPointExtension>
        </extensions>
      </trkpt>
      <trkpt lat="43.12876953743398189544677734375" lon="13.05668360553681850433349609375">
        <ele>413.79998779296875</ele>
        <time>2021-06-04T09:26:11.000Z</time>
        <extensions>
          <ns3:TrackPointExtension>
            <ns3:atemp>27.0</ns3:atemp>
          </ns3:TrackPointExtension>
        </extensions>
      </trkpt>
      <trkpt lat="43.1288170628249645233154296875" lon="13.0567204020917415618896484375">
        <ele>414.20001220703125</ele>
        <time>2021-06-04T09:26:13.000Z</time>
        <extensions>
          <ns3:TrackPointExtension>
            <ns3:atemp>27.0</ns3:atemp>
          </ns3:TrackPointExtension>
        </extensions>
      </trkpt>
      <trkpt lat="43.12886810861527919769287109375" lon="13.0567426979541778564453125">
        <ele>415</ele>
        <time>2021-06-04T09:26:15.000Z</time>
        <extensions>
          <ns3:TrackPointExtension>
            <ns3:atemp>27.0</ns3:atemp>
          </ns3:TrackPointExtension>
        </extensions>
      </trkpt>
      <trkpt lat="43.128952346742153167724609375" lon="13.0568126030266284942626953125">
        <ele>415.79998779296875</ele>
        <time>2021-06-04T09:26:19.000Z</time>
        <extensions>
          <ns3:TrackPointExtension>
            <ns3:atemp>27.0</ns3:atemp>
          </ns3:TrackPointExtension>
        </extensions>
      </trkpt>
      <trkpt lat="43.12896542251110076904296875" lon="13.05684663355350494384765625">
        <ele>416</ele>
        <time>2021-06-04T09:26:20.000Z</time>
        <extensions>
          <ns3:TrackPointExtension>
            <ns3:atemp>27.0</ns3:atemp>
          </ns3:TrackPointExtension>
        </extensions>
      </trkpt>
      <trkpt lat="43.1289727985858917236328125" lon="13.0569197237491607666015625">
        <ele>417.399993896484375</ele>
        <time>2021-06-04T09:26:22.000Z</time>
        <extensions>
          <ns3:TrackPointExtension>
            <ns3:atemp>27.0</ns3:atemp>
          </ns3:TrackPointExtension>
        </extensions>
      </trkpt>
      <trkpt lat="43.12897154130041599273681640625" lon="13.05695434100925922393798828125">
        <ele>417.600006103515625</ele>
        <time>2021-06-04T09:26:23.000Z</time>
        <extensions>
          <ns3:TrackPointExtension>
            <ns3:atemp>27.0</ns3:atemp>
          </ns3:TrackPointExtension>
        </extensions>
      </trkpt>
      <trkpt lat="43.12899098731577396392822265625" lon="13.0571079812943935394287109375">
        <ele>418.600006103515625</ele>
        <time>2021-06-04T09:26:28.000Z</time>
        <extensions>
          <ns3:TrackPointExtension>
            <ns3:atemp>27.0</ns3:atemp>
          </ns3:TrackPointExtension>
        </extensions>
      </trkpt>
      <trkpt lat="43.12899165786802768707275390625" lon="13.05714435875415802001953125">
        <ele>418.79998779296875</ele>
        <time>2021-06-04T09:26:29.000Z</time>
        <extensions>
          <ns3:TrackPointExtension>
            <ns3:atemp>27.0</ns3:atemp>
          </ns3:TrackPointExtension>
        </extensions>
      </trkpt>
      <trkpt lat="43.12899199314415454864501953125" lon="13.05722423829138278961181640625">
        <ele>419.600006103515625</ele>
        <time>2021-06-04T09:26:31.000Z</time>
        <extensions>
          <ns3:TrackPointExtension>
            <ns3:atemp>27.0</ns3:atemp>
          </ns3:TrackPointExtension>
        </extensions>
      </trkpt>
      <trkpt lat="43.1289991177618503570556640625" lon="13.05732901208102703094482421875">
        <ele>420.79998779296875</ele>
        <time>2021-06-04T09:26:34.000Z</time>
        <extensions>
          <ns3:TrackPointExtension>
            <ns3:atemp>27.0</ns3:atemp>
          </ns3:TrackPointExtension>
        </extensions>
      </trkpt>
      <trkpt lat="43.12900255434215068817138671875" lon="13.05736086331307888031005859375">
        <ele>421.20001220703125</ele>
        <time>2021-06-04T09:26:35.000Z</time>
        <extensions>
          <ns3:TrackPointExtension>
            <ns3:atemp>27.0</ns3:atemp>
          </ns3:TrackPointExtension>
        </extensions>
      </trkpt>
      <trkpt lat="43.12900573946535587310791015625" lon="13.05745172314345836639404296875">
        <ele>422</ele>
        <time>2021-06-04T09:26:38.000Z</time>
        <extensions>
          <ns3:TrackPointExtension>
            <ns3:atemp>27.0</ns3:atemp>
          </ns3:TrackPointExtension>
        </extensions>
      </trkpt>
      <trkpt lat="43.12898478470742702484130859375" lon="13.0575870908796787261962890625">
        <ele>422.79998779296875</ele>
        <time>2021-06-04T09:26:42.000Z</time>
        <extensions>
          <ns3:TrackPointExtension>
            <ns3:atemp>27.0</ns3:atemp>
          </ns3:TrackPointExtension>
        </extensions>
      </trkpt>
      <trkpt lat="43.12897740863263607025146484375" lon="13.05762606672942638397216796875">
        <ele>423</ele>
        <time>2021-06-04T09:26:43.000Z</time>
        <extensions>
          <ns3:TrackPointExtension>
            <ns3:atemp>27.0</ns3:atemp>
          </ns3:TrackPointExtension>
        </extensions>
      </trkpt>
      <trkpt lat="43.12894639559090137481689453125" lon="13.05782161653041839599609375">
        <ele>424.20001220703125</ele>
        <time>2021-06-04T09:26:48.000Z</time>
        <extensions>
          <ns3:TrackPointExtension>
            <ns3:atemp>27.0</ns3:atemp>
          </ns3:TrackPointExtension>
        </extensions>
      </trkpt>
      <trkpt lat="43.1289414502680301666259765625" lon="13.05785673670470714569091796875">
        <ele>424.600006103515625</ele>
        <time>2021-06-04T09:26:49.000Z</time>
        <extensions>
          <ns3:TrackPointExtension>
            <ns3:atemp>27.0</ns3:atemp>
          </ns3:TrackPointExtension>
        </extensions>
      </trkpt>
      <trkpt lat="43.12892644666135311126708984375" lon="13.05799663066864013671875">
        <ele>425.399993896484375</ele>
        <time>2021-06-04T09:26:53.000Z</time>
        <extensions>
          <ns3:TrackPointExtension>
            <ns3:atemp>27.0</ns3:atemp>
          </ns3:TrackPointExtension>
        </extensions>
      </trkpt>
      <trkpt lat="43.1289240159094333648681640625" lon="13.05809629149734973907470703125">
        <ele>426.20001220703125</ele>
        <time>2021-06-04T09:26:56.000Z</time>
        <extensions>
          <ns3:TrackPointExtension>
            <ns3:atemp>27.0</ns3:atemp>
          </ns3:TrackPointExtension>
        </extensions>
      </trkpt>
      <trkpt lat="43.1289231777191162109375" lon="13.05812738835811614990234375">
        <ele>426.79998779296875</ele>
        <time>2021-06-04T09:26:57.000Z</time>
        <extensions>
          <ns3:TrackPointExtension>
            <ns3:atemp>27.0</ns3:atemp>
          </ns3:TrackPointExtension>
        </extensions>
      </trkpt>
      <trkpt lat="43.128922842442989349365234375" lon="13.05818631313741207122802734375">
        <ele>428</ele>
        <time>2021-06-04T09:26:59.000Z</time>
        <extensions>
          <ns3:TrackPointExtension>
            <ns3:atemp>27.0</ns3:atemp>
          </ns3:TrackPointExtension>
        </extensions>
      </trkpt>
      <trkpt lat="43.1289092637598514556884765625" lon="13.05830734781920909881591796875">
        <ele>429.20001220703125</ele>
        <time>2021-06-04T09:27:03.000Z</time>
        <extensions>
          <ns3:TrackPointExtension>
            <ns3:atemp>27.0</ns3:atemp>
          </ns3:TrackPointExtension>
        </extensions>
      </trkpt>
      <trkpt lat="43.128873221576213836669921875" lon="13.05843559093773365020751953125">
        <ele>430.20001220703125</ele>
        <time>2021-06-04T09:27:07.000Z</time>
        <extensions>
          <ns3:TrackPointExtension>
            <ns3:atemp>27.0</ns3:atemp>
          </ns3:TrackPointExtension>
        </extensions>
      </trkpt>
      <trkpt lat="43.12886810861527919769287109375" lon="13.0585459806025028228759765625">
        <ele>431.600006103515625</ele>
        <time>2021-06-04T09:27:11.000Z</time>
        <extensions>
          <ns3:TrackPointExtension>
            <ns3:atemp>27.0</ns3:atemp>
          </ns3:TrackPointExtension>
        </extensions>
      </trkpt>
      <trkpt lat="43.12885872088372707366943359375" lon="13.05863005109131336212158203125">
        <ele>433</ele>
        <time>2021-06-04T09:27:14.000Z</time>
        <extensions>
          <ns3:TrackPointExtension>
            <ns3:atemp>27.0</ns3:atemp>
          </ns3:TrackPointExtension>
        </extensions>
      </trkpt>
      <trkpt lat="43.12885276973247528076171875" lon="13.05868905968964099884033203125">
        <ele>434.600006103515625</ele>
        <time>2021-06-04T09:27:16.000Z</time>
        <extensions>
          <ns3:TrackPointExtension>
            <ns3:atemp>27.0</ns3:atemp>
          </ns3:TrackPointExtension>
        </extensions>
      </trkpt>
      <trkpt lat="43.128847740590572357177734375" lon="13.05874572135508060455322265625">
        <ele>436.20001220703125</ele>
        <time>2021-06-04T09:27:18.000Z</time>
        <extensions>
          <ns3:TrackPointExtension>
            <ns3:atemp>27.0</ns3:atemp>
          </ns3:TrackPointExtension>
        </extensions>
      </trkpt>
      <trkpt lat="43.12883944250643253326416015625" lon="13.05879659950733184814453125">
        <ele>437.79998779296875</ele>
        <time>2021-06-04T09:27:20.000Z</time>
        <extensions>
          <ns3:TrackPointExtension>
            <ns3:atemp>27.0</ns3:atemp>
          </ns3:TrackPointExtension>
        </extensions>
      </trkpt>
      <trkpt lat="43.12883625738322734832763671875" lon="13.05882467888295650482177734375">
        <ele>439</ele>
        <time>2021-06-04T09:27:21.000Z</time>
        <extensions>
          <ns3:TrackPointExtension>
            <ns3:atemp>27.0</ns3:atemp>
          </ns3:TrackPointExtension>
        </extensions>
      </trkpt>
      <trkpt lat="43.128824271261692047119140625" lon="13.05888569913804531097412109375">
        <ele>440</ele>
        <time>2021-06-04T09:27:23.000Z</time>
        <extensions>
          <ns3:TrackPointExtension>
            <ns3:atemp>27.0</ns3:atemp>
          </ns3:TrackPointExtension>
        </extensions>
      </trkpt>
      <trkpt lat="43.12881915830075740814208984375" lon="13.05891252122819423675537109375">
        <ele>440.600006103515625</ele>
        <time>2021-06-04T09:27:24.000Z</time>
        <extensions>
          <ns3:TrackPointExtension>
            <ns3:atemp>27.0</ns3:atemp>
          </ns3:TrackPointExtension>
        </extensions>
      </trkpt>
      <trkpt lat="43.12881194986402988433837890625" lon="13.05893607437610626220703125">
        <ele>441.20001220703125</ele>
        <time>2021-06-04T09:27:25.000Z</time>
        <extensions>
          <ns3:TrackPointExtension>
            <ns3:atemp>27.0</ns3:atemp>
          </ns3:TrackPointExtension>
        </extensions>
      </trkpt>
      <trkpt lat="43.1287939287722110748291015625" lon="13.058975301682949066162109375">
        <ele>442.20001220703125</ele>
        <time>2021-06-04T09:27:27.000Z</time>
        <extensions>
          <ns3:TrackPointExtension>
            <ns3:atemp>27.0</ns3:atemp>
          </ns3:TrackPointExtension>
        </extensions>
      </trkpt>
      <trkpt lat="43.128779344260692596435546875" lon="13.05900656618177890777587890625">
        <ele>443</ele>
        <time>2021-06-04T09:27:29.000Z</time>
        <extensions>
          <ns3:TrackPointExtension>
            <ns3:atemp>27.0</ns3:atemp>
          </ns3:TrackPointExtension>
        </extensions>
      </trkpt>
      <trkpt lat="43.1287664361298084259033203125" lon="13.0590237490832805633544921875">
        <ele>443.399993896484375</ele>
        <time>2021-06-04T09:27:30.000Z</time>
        <extensions>
          <ns3:TrackPointExtension>
            <ns3:atemp>27.0</ns3:atemp>
          </ns3:TrackPointExtension>
        </extensions>
      </trkpt>
      <trkpt lat="43.12875595875084400177001953125" lon="13.05904210545122623443603515625">
        <ele>443.79998779296875</ele>
        <time>2021-06-04T09:27:31.000Z</time>
        <extensions>
          <ns3:TrackPointExtension>
            <ns3:atemp>27.0</ns3:atemp>
          </ns3:TrackPointExtension>
        </extensions>
      </trkpt>
      <trkpt lat="43.128735087811946868896484375" lon="13.05908217094838619232177734375">
        <ele>444.600006103515625</ele>
        <time>2021-06-04T09:27:33.000Z</time>
        <extensions>
          <ns3:TrackPointExtension>
            <ns3:atemp>27.0</ns3:atemp>
          </ns3:TrackPointExtension>
        </extensions>
      </trkpt>
      <trkpt lat="43.1287153065204620361328125" lon="13.05911578238010406494140625">
        <ele>445.600006103515625</ele>
        <time>2021-06-04T09:27:35.000Z</time>
        <extensions>
          <ns3:TrackPointExtension>
            <ns3:atemp>27.0</ns3:atemp>
          </ns3:TrackPointExtension>
        </extensions>
      </trkpt>
      <trkpt lat="43.12869041226804256439208984375" lon="13.05917336605489253997802734375">
        <ele>447.20001220703125</ele>
        <time>2021-06-04T09:27:38.000Z</time>
        <extensions>
          <ns3:TrackPointExtension>
            <ns3:atemp>27.0</ns3:atemp>
          </ns3:TrackPointExtension>
        </extensions>
      </trkpt>
      <trkpt lat="43.12868504785001277923583984375" lon="13.05919700302183628082275390625">
        <ele>447.600006103515625</ele>
        <time>2021-06-04T09:27:39.000Z</time>
        <extensions>
          <ns3:TrackPointExtension>
            <ns3:atemp>27.0</ns3:atemp>
          </ns3:TrackPointExtension>
        </extensions>
      </trkpt>
      <trkpt lat="43.1286775879561901092529296875" lon="13.05923782289028167724609375">
        <ele>448.20001220703125</ele>
        <time>2021-06-04T09:27:41.000Z</time>
        <extensions>
          <ns3:TrackPointExtension>
            <ns3:atemp>27.0</ns3:atemp>
          </ns3:TrackPointExtension>
        </extensions>
      </trkpt>
      <trkpt lat="43.128664009273052215576171875" lon="13.05932574905455112457275390625">
        <ele>449.600006103515625</ele>
        <time>2021-06-04T09:27:45.000Z</time>
        <extensions>
          <ns3:TrackPointExtension>
            <ns3:atemp>27.0</ns3:atemp>
          </ns3:TrackPointExtension>
        </extensions>
      </trkpt>
      <trkpt lat="43.128661997616291046142578125" lon="13.0593524873256683349609375">
        <ele>450</ele>
        <time>2021-06-04T09:27:46.000Z</time>
        <extensions>
          <ns3:TrackPointExtension>
            <ns3:atemp>27.0</ns3:atemp>
          </ns3:TrackPointExtension>
        </extensions>
      </trkpt>
      <trkpt lat="43.12864783219993114471435546875" lon="13.05943094193935394287109375">
        <ele>450.600006103515625</ele>
        <time>2021-06-04T09:27:48.000Z</time>
        <extensions>
          <ns3:TrackPointExtension>
            <ns3:atemp>27.0</ns3:atemp>
          </ns3:TrackPointExtension>
        </extensions>
      </trkpt>
      <trkpt lat="43.1286487542092800140380859375" lon="13.0595256574451923370361328125">
        <ele>451.79998779296875</ele>
        <time>2021-06-04T09:27:51.000Z</time>
        <extensions>
          <ns3:TrackPointExtension>
            <ns3:atemp>27.0</ns3:atemp>
          </ns3:TrackPointExtension>
        </extensions>
      </trkpt>
      <trkpt lat="43.12864900566637516021728515625" lon="13.05953445844352245330810546875">
        <ele>452.20001220703125</ele>
        <time>2021-06-04T09:27:52.000Z</time>
        <extensions>
          <ns3:TrackPointExtension>
            <ns3:atemp>27.0</ns3:atemp>
          </ns3:TrackPointExtension>
        </extensions>
      </trkpt>
      <trkpt lat="43.12864028848707675933837890625" lon="13.059570081532001495361328125">
        <ele>453.20001220703125</ele>
        <time>2021-06-04T09:27:55.000Z</time>
        <extensions>
          <ns3:TrackPointExtension>
            <ns3:atemp>27.0</ns3:atemp>
          </ns3:TrackPointExtension>
        </extensions>
      </trkpt>
      <trkpt lat="43.12865705229341983795166015625" lon="13.059621043503284454345703125">
        <ele>454.20001220703125</ele>
        <time>2021-06-04T09:27:58.000Z</time>
        <extensions>
          <ns3:TrackPointExtension>
            <ns3:atemp>27.0</ns3:atemp>
          </ns3:TrackPointExtension>
        </extensions>
      </trkpt>
      <trkpt lat="43.12868856824934482574462890625" lon="13.0596580915153026580810546875">
        <ele>454.399993896484375</ele>
        <time>2021-06-04T09:27:59.000Z</time>
        <extensions>
          <ns3:TrackPointExtension>
            <ns3:atemp>27.0</ns3:atemp>
          </ns3:TrackPointExtension>
        </extensions>
      </trkpt>
      <trkpt lat="43.12873634509742259979248046875" lon="13.05978809483349323272705078125">
        <ele>455.399993896484375</ele>
        <time>2021-06-04T09:28:04.000Z</time>
        <extensions>
          <ns3:TrackPointExtension>
            <ns3:atemp>27.0</ns3:atemp>
          </ns3:TrackPointExtension>
        </extensions>
      </trkpt>
      <trkpt lat="43.12874271534383296966552734375" lon="13.05981508456170558929443359375">
        <ele>455.399993896484375</ele>
        <time>2021-06-04T09:28:05.000Z</time>
        <extensions>
          <ns3:TrackPointExtension>
            <ns3:atemp>27.0</ns3:atemp>
          </ns3:TrackPointExtension>
        </extensions>
      </trkpt>
      <trkpt lat="43.12877641059458255767822265625" lon="13.06000133045017719268798828125">
        <ele>456.20001220703125</ele>
        <time>2021-06-04T09:28:12.000Z</time>
        <extensions>
          <ns3:TrackPointExtension>
            <ns3:atemp>27.0</ns3:atemp>
          </ns3:TrackPointExtension>
        </extensions>
      </trkpt>
      <trkpt lat="43.1287788413465023040771484375" lon="13.0600299127399921417236328125">
        <ele>456.600006103515625</ele>
        <time>2021-06-04T09:28:13.000Z</time>
        <extensions>
          <ns3:TrackPointExtension>
            <ns3:atemp>27.0</ns3:atemp>
          </ns3:TrackPointExtension>
        </extensions>
      </trkpt>
      <trkpt lat="43.12879820354282855987548828125" lon="13.0601489357650279998779296875">
        <ele>457.79998779296875</ele>
        <time>2021-06-04T09:28:17.000Z</time>
        <extensions>
          <ns3:TrackPointExtension>
            <ns3:atemp>28.0</ns3:atemp>
          </ns3:TrackPointExtension>
        </extensions>
      </trkpt>
      <trkpt lat="43.128817565739154815673828125" lon="13.06023267097771167755126953125">
        <ele>459</ele>
        <time>2021-06-04T09:28:20.000Z</time>
        <extensions>
          <ns3:TrackPointExtension>
            <ns3:atemp>28.0</ns3:atemp>
          </ns3:TrackPointExtension>
        </extensions>
      </trkpt>
      <trkpt lat="43.12881865538656711578369140625" lon="13.06026033125817775726318359375">
        <ele>459</ele>
        <time>2021-06-04T09:28:21.000Z</time>
        <extensions>
          <ns3:TrackPointExtension>
            <ns3:atemp>28.0</ns3:atemp>
          </ns3:TrackPointExtension>
        </extensions>
      </trkpt>
      <trkpt lat="43.128813207149505615234375" lon="13.0602894164621829986572265625">
        <ele>459.399993896484375</ele>
        <time>2021-06-04T09:28:22.000Z</time>
        <extensions>
          <ns3:TrackPointExtension>
            <ns3:atemp>28.0</ns3:atemp>
          </ns3:TrackPointExtension>
        </extensions>
      </trkpt>
      <trkpt lat="43.12875713221728801727294921875" lon="13.06038371287286281585693359375">
        <ele>460</ele>
        <time>2021-06-04T09:28:25.000Z</time>
        <extensions>
          <ns3:TrackPointExtension>
            <ns3:atemp>28.0</ns3:atemp>
          </ns3:TrackPointExtension>
        </extensions>
      </trkpt>
      <trkpt lat="43.12872913666069507598876953125" lon="13.0604101158678531646728515625">
        <ele>460.20001220703125</ele>
        <time>2021-06-04T09:28:26.000Z</time>
        <extensions>
          <ns3:TrackPointExtension>
            <ns3:atemp>28.0</ns3:atemp>
          </ns3:TrackPointExtension>
        </extensions>
      </trkpt>
      <trkpt lat="43.12858932651579380035400390625" lon="13.0605636723339557647705078125">
        <ele>461</ele>
        <time>2021-06-04T09:28:31.000Z</time>
        <extensions>
          <ns3:TrackPointExtension>
            <ns3:atemp>28.0</ns3:atemp>
          </ns3:TrackPointExtension>
        </extensions>
      </trkpt>
      <trkpt lat="43.1285516917705535888671875" lon="13.06071429513394832611083984375">
        <ele>461.20001220703125</ele>
        <time>2021-06-04T09:28:34.000Z</time>
        <extensions>
          <ns3:TrackPointExtension>
            <ns3:atemp>28.0</ns3:atemp>
          </ns3:TrackPointExtension>
        </extensions>
      </trkpt>
      <trkpt lat="43.12854624353349208831787109375" lon="13.0607624910771846771240234375">
        <ele>461.399993896484375</ele>
        <time>2021-06-04T09:28:35.000Z</time>
        <extensions>
          <ns3:TrackPointExtension>
            <ns3:atemp>28.0</ns3:atemp>
          </ns3:TrackPointExtension>
        </extensions>
      </trkpt>
      <trkpt lat="43.12857247889041900634765625" lon="13.060980923473834991455078125">
        <ele>461.79998779296875</ele>
        <time>2021-06-04T09:28:40.000Z</time>
        <extensions>
          <ns3:TrackPointExtension>
            <ns3:atemp>28.0</ns3:atemp>
          </ns3:TrackPointExtension>
        </extensions>
      </trkpt>
      <trkpt lat="43.1285798549652099609375" lon="13.06104697287082672119140625">
        <ele>462.20001220703125</ele>
        <time>2021-06-04T09:28:42.000Z</time>
        <extensions>
          <ns3:TrackPointExtension>
            <ns3:atemp>28.0</ns3:atemp>
          </ns3:TrackPointExtension>
        </extensions>
      </trkpt>
      <trkpt lat="43.128586225211620330810546875" lon="13.06122223846614360809326171875">
        <ele>463.79998779296875</ele>
        <time>2021-06-04T09:28:48.000Z</time>
        <extensions>
          <ns3:TrackPointExtension>
            <ns3:atemp>28.0</ns3:atemp>
          </ns3:TrackPointExtension>
        </extensions>
      </trkpt>
      <trkpt lat="43.1285793520510196685791015625" lon="13.0612917244434356689453125">
        <ele>465.20001220703125</ele>
        <time>2021-06-04T09:28:51.000Z</time>
        <extensions>
          <ns3:TrackPointExtension>
            <ns3:atemp>28.0</ns3:atemp>
          </ns3:TrackPointExtension>
        </extensions>
      </trkpt>
      <trkpt lat="43.12857784330844879150390625" lon="13.061326928436756134033203125">
        <ele>465.79998779296875</ele>
        <time>2021-06-04T09:28:53.000Z</time>
        <extensions>
          <ns3:TrackPointExtension>
            <ns3:atemp>28.0</ns3:atemp>
          </ns3:TrackPointExtension>
        </extensions>
      </trkpt>
      <trkpt lat="43.12858278863131999969482421875" lon="13.061373867094516754150390625">
        <ele>466.20001220703125</ele>
        <time>2021-06-04T09:28:55.000Z</time>
        <extensions>
          <ns3:TrackPointExtension>
            <ns3:atemp>28.0</ns3:atemp>
          </ns3:TrackPointExtension>
        </extensions>
      </trkpt>
      <trkpt lat="43.12859519384801387786865234375" lon="13.06146028451621532440185546875">
        <ele>467.399993896484375</ele>
        <time>2021-06-04T09:28:58.000Z</time>
        <extensions>
          <ns3:TrackPointExtension>
            <ns3:atemp>28.0</ns3:atemp>
          </ns3:TrackPointExtension>
        </extensions>
      </trkpt>
      <trkpt lat="43.1285974569618701934814453125" lon="13.06148911826312541961669921875">
        <ele>467.79998779296875</ele>
        <time>2021-06-04T09:28:59.000Z</time>
        <extensions>
          <ns3:TrackPointExtension>
            <ns3:atemp>28.0</ns3:atemp>
          </ns3:TrackPointExtension>
        </extensions>
      </trkpt>
      <trkpt lat="43.128598630428314208984375" lon="13.0615460313856601715087890625">
        <ele>468.600006103515625</ele>
        <time>2021-06-04T09:29:01.000Z</time>
        <extensions>
          <ns3:TrackPointExtension>
            <ns3:atemp>28.0</ns3:atemp>
          </ns3:TrackPointExtension>
        </extensions>
      </trkpt>
      <trkpt lat="43.1286026537418365478515625" lon="13.06163680739700794219970703125">
        <ele>469.600006103515625</ele>
        <time>2021-06-04T09:29:04.000Z</time>
        <extensions>
          <ns3:TrackPointExtension>
            <ns3:atemp>28.0</ns3:atemp>
          </ns3:TrackPointExtension>
        </extensions>
      </trkpt>
      <trkpt lat="43.12861380167305469512939453125" lon="13.06169531308114528656005859375">
        <ele>470.600006103515625</ele>
        <time>2021-06-04T09:29:06.000Z</time>
        <extensions>
          <ns3:TrackPointExtension>
            <ns3:atemp>28.0</ns3:atemp>
          </ns3:TrackPointExtension>
        </extensions>
      </trkpt>
      <trkpt lat="43.12861816026270389556884765625" lon="13.06172548793256282806396484375">
        <ele>471.20001220703125</ele>
        <time>2021-06-04T09:29:07.000Z</time>
        <extensions>
          <ns3:TrackPointExtension>
            <ns3:atemp>28.0</ns3:atemp>
          </ns3:TrackPointExtension>
        </extensions>
      </trkpt>
      <trkpt lat="43.128633163869380950927734375" lon="13.061817102134227752685546875">
        <ele>472.600006103515625</ele>
        <time>2021-06-04T09:29:10.000Z</time>
        <extensions>
          <ns3:TrackPointExtension>
            <ns3:atemp>28.0</ns3:atemp>
          </ns3:TrackPointExtension>
        </extensions>
      </trkpt>
      <trkpt lat="43.128645904362201690673828125" lon="13.06187083013355731964111328125">
        <ele>473.79998779296875</ele>
        <time>2021-06-04T09:29:12.000Z</time>
        <extensions>
          <ns3:TrackPointExtension>
            <ns3:atemp>28.0</ns3:atemp>
          </ns3:TrackPointExtension>
        </extensions>
      </trkpt>
      <trkpt lat="43.12865856103599071502685546875" lon="13.0618886835873126983642578125">
        <ele>474.20001220703125</ele>
        <time>2021-06-04T09:29:13.000Z</time>
        <extensions>
          <ns3:TrackPointExtension>
            <ns3:atemp>28.0</ns3:atemp>
          </ns3:TrackPointExtension>
        </extensions>
      </trkpt>
      <trkpt lat="43.12867549248039722442626953125" lon="13.06190419010818004608154296875">
        <ele>474.79998779296875</ele>
        <time>2021-06-04T09:29:14.000Z</time>
        <extensions>
          <ns3:TrackPointExtension>
            <ns3:atemp>28.0</ns3:atemp>
          </ns3:TrackPointExtension>
        </extensions>
      </trkpt>
      <trkpt lat="43.12871019355952739715576171875" lon="13.06193285621702671051025390625">
        <ele>475.79998779296875</ele>
        <time>2021-06-04T09:29:16.000Z</time>
        <extensions>
          <ns3:TrackPointExtension>
            <ns3:atemp>28.0</ns3:atemp>
          </ns3:TrackPointExtension>
        </extensions>
      </trkpt>
      <trkpt lat="43.12874388881027698516845703125" lon="13.0619570799171924591064453125">
        <ele>477.399993896484375</ele>
        <time>2021-06-04T09:29:18.000Z</time>
        <extensions>
          <ns3:TrackPointExtension>
            <ns3:atemp>28.0</ns3:atemp>
          </ns3:TrackPointExtension>
        </extensions>
      </trkpt>
      <trkpt lat="43.12880055047571659088134765625" lon="13.06198767386376857757568359375">
        <ele>478.600006103515625</ele>
        <time>2021-06-04T09:29:21.000Z</time>
        <extensions>
          <ns3:TrackPointExtension>
            <ns3:atemp>28.0</ns3:atemp>
          </ns3:TrackPointExtension>
        </extensions>
      </trkpt>
      <trkpt lat="43.12887548469007015228271484375" lon="13.06204517371952533721923828125">
        <ele>479.79998779296875</ele>
        <time>2021-06-04T09:29:25.000Z</time>
        <extensions>
          <ns3:TrackPointExtension>
            <ns3:atemp>28.0</ns3:atemp>
          </ns3:TrackPointExtension>
        </extensions>
      </trkpt>
      <trkpt lat="43.128908760845661163330078125" lon="13.062096051871776580810546875">
        <ele>480.79998779296875</ele>
        <time>2021-06-04T09:29:28.000Z</time>
        <extensions>
          <ns3:TrackPointExtension>
            <ns3:atemp>28.0</ns3:atemp>
          </ns3:TrackPointExtension>
        </extensions>
      </trkpt>
      <trkpt lat="43.1289196573197841644287109375" lon="13.06211717426776885986328125">
        <ele>481</ele>
        <time>2021-06-04T09:29:29.000Z</time>
        <extensions>
          <ns3:TrackPointExtension>
            <ns3:atemp>28.0</ns3:atemp>
          </ns3:TrackPointExtension>
        </extensions>
      </trkpt>
      <trkpt lat="43.1289488263428211212158203125" lon="13.0621917732059955596923828125">
        <ele>482.20001220703125</ele>
        <time>2021-06-04T09:29:32.000Z</time>
        <extensions>
          <ns3:TrackPointExtension>
            <ns3:atemp>28.0</ns3:atemp>
          </ns3:TrackPointExtension>
        </extensions>
      </trkpt>
      <trkpt lat="43.1289783306419849395751953125" lon="13.06225287728011608123779296875">
        <ele>483.399993896484375</ele>
        <time>2021-06-04T09:29:35.000Z</time>
        <extensions>
          <ns3:TrackPointExtension>
            <ns3:atemp>28.0</ns3:atemp>
          </ns3:TrackPointExtension>
        </extensions>
      </trkpt>
      <trkpt lat="43.12901361845433712005615234375" lon="13.06232680566608905792236328125">
        <ele>484.79998779296875</ele>
        <time>2021-06-04T09:29:38.000Z</time>
        <extensions>
          <ns3:TrackPointExtension>
            <ns3:atemp>28.0</ns3:atemp>
          </ns3:TrackPointExtension>
        </extensions>
      </trkpt>
      <trkpt lat="43.12902971170842647552490234375" lon="13.06237600743770599365234375">
        <ele>485.79998779296875</ele>
        <time>2021-06-04T09:29:40.000Z</time>
        <extensions>
          <ns3:TrackPointExtension>
            <ns3:atemp>28.0</ns3:atemp>
          </ns3:TrackPointExtension>
        </extensions>
      </trkpt>
      <trkpt lat="43.1290373392403125762939453125" lon="13.06242168880999088287353515625">
        <ele>486.79998779296875</ele>
        <time>2021-06-04T09:29:42.000Z</time>
        <extensions>
          <ns3:TrackPointExtension>
            <ns3:atemp>28.0</ns3:atemp>
          </ns3:TrackPointExtension>
        </extensions>
      </trkpt>
      <trkpt lat="43.12904127873480319976806640625" lon="13.06244306266307830810546875">
        <ele>487.399993896484375</ele>
        <time>2021-06-04T09:29:43.000Z</time>
        <extensions>
          <ns3:TrackPointExtension>
            <ns3:atemp>28.0</ns3:atemp>
          </ns3:TrackPointExtension>
        </extensions>
      </trkpt>
      <trkpt lat="43.12904781661927700042724609375" lon="13.0624630115926265716552734375">
        <ele>488</ele>
        <time>2021-06-04T09:29:44.000Z</time>
        <extensions>
          <ns3:TrackPointExtension>
            <ns3:atemp>28.0</ns3:atemp>
          </ns3:TrackPointExtension>
        </extensions>
      </trkpt>
      <trkpt lat="43.1290705315768718719482421875" lon="13.06250098161399364471435546875">
        <ele>489.20001220703125</ele>
        <time>2021-06-04T09:29:46.000Z</time>
        <extensions>
          <ns3:TrackPointExtension>
            <ns3:atemp>28.0</ns3:atemp>
          </ns3:TrackPointExtension>
        </extensions>
      </trkpt>
      <trkpt lat="43.12910246662795543670654296875" lon="13.06259217672049999237060546875">
        <ele>490.600006103515625</ele>
        <time>2021-06-04T09:29:49.000Z</time>
        <extensions>
          <ns3:TrackPointExtension>
            <ns3:atemp>28.0</ns3:atemp>
          </ns3:TrackPointExtension>
        </extensions>
      </trkpt>
      <trkpt lat="43.12910347245633602142333984375" lon="13.06262905709445476531982421875">
        <ele>491.20001220703125</ele>
        <time>2021-06-04T09:29:50.000Z</time>
        <extensions>
          <ns3:TrackPointExtension>
            <ns3:atemp>27.0</ns3:atemp>
          </ns3:TrackPointExtension>
        </extensions>
      </trkpt>
      <trkpt lat="43.1291003711521625518798828125" lon="13.0627080984413623809814453125">
        <ele>492</ele>
        <time>2021-06-04T09:29:52.000Z</time>
        <extensions>
          <ns3:TrackPointExtension>
            <ns3:atemp>27.0</ns3:atemp>
          </ns3:TrackPointExtension>
        </extensions>
      </trkpt>
      <trkpt lat="43.129111267626285552978515625" lon="13.0628123693168163299560546875">
        <ele>493</ele>
        <time>2021-06-04T09:29:54.000Z</time>
        <extensions>
          <ns3:TrackPointExtension>
            <ns3:atemp>27.0</ns3:atemp>
          </ns3:TrackPointExtension>
        </extensions>
      </trkpt>
      <trkpt lat="43.12912828288972377777099609375" lon="13.06289291940629482269287109375">
        <ele>493.399993896484375</ele>
        <time>2021-06-04T09:29:55.000Z</time>
        <extensions>
          <ns3:TrackPointExtension>
            <ns3:atemp>27.0</ns3:atemp>
          </ns3:TrackPointExtension>
        </extensions>
      </trkpt>
      <trkpt lat="43.12910565175116062164306640625" lon="13.06313532404601573944091796875">
        <ele>494.399993896484375</ele>
        <time>2021-06-04T09:30:00.000Z</time>
        <extensions>
          <ns3:TrackPointExtension>
            <ns3:atemp>27.0</ns3:atemp>
          </ns3:TrackPointExtension>
        </extensions>
      </trkpt>
      <trkpt lat="43.129018731415271759033203125" lon="13.06331603787839412689208984375">
        <ele>494.79998779296875</ele>
        <time>2021-06-04T09:30:05.000Z</time>
        <extensions>
          <ns3:TrackPointExtension>
            <ns3:atemp>27.0</ns3:atemp>
          </ns3:TrackPointExtension>
        </extensions>
      </trkpt>
      <trkpt lat="43.12889442779123783111572265625" lon="13.06342248804867267608642578125">
        <ele>495</ele>
        <time>2021-06-04T09:30:09.000Z</time>
        <extensions>
          <ns3:TrackPointExtension>
            <ns3:atemp>27.0</ns3:atemp>
          </ns3:TrackPointExtension>
        </extensions>
      </trkpt>
      <trkpt lat="43.12868622131645679473876953125" lon="13.06356548331677913665771484375">
        <ele>495</ele>
        <time>2021-06-04T09:30:13.000Z</time>
        <extensions>
          <ns3:TrackPointExtension>
            <ns3:atemp>27.0</ns3:atemp>
          </ns3:TrackPointExtension>
        </extensions>
      </trkpt>
      <trkpt lat="43.12863391824066638946533203125" lon="13.06361644528806209564208984375">
        <ele>495</ele>
        <time>2021-06-04T09:30:14.000Z</time>
        <extensions>
          <ns3:TrackPointExtension>
            <ns3:atemp>27.0</ns3:atemp>
          </ns3:TrackPointExtension>
        </extensions>
      </trkpt>
      <trkpt lat="43.1285528652369976043701171875" lon="13.06374049745500087738037109375">
        <ele>495</ele>
        <time>2021-06-04T09:30:16.000Z</time>
        <extensions>
          <ns3:TrackPointExtension>
            <ns3:atemp>27.0</ns3:atemp>
          </ns3:TrackPointExtension>
        </extensions>
      </trkpt>
      <trkpt lat="43.12850265763700008392333984375" lon="13.0639700777828693389892578125">
        <ele>493.20001220703125</ele>
        <time>2021-06-04T09:30:19.000Z</time>
        <extensions>
          <ns3:TrackPointExtension>
            <ns3:atemp>27.0</ns3:atemp>
          </ns3:TrackPointExtension>
        </extensions>
      </trkpt>
      <trkpt lat="43.12849192880094051361083984375" lon="13.06413830257952213287353515625">
        <ele>491.399993896484375</ele>
        <time>2021-06-04T09:30:21.000Z</time>
        <extensions>
          <ns3:TrackPointExtension>
            <ns3:atemp>27.0</ns3:atemp>
          </ns3:TrackPointExtension>
        </extensions>
      </trkpt>
      <trkpt lat="43.1284814514219760894775390625" lon="13.06431029923260211944580078125">
        <ele>490</ele>
        <time>2021-06-04T09:30:23.000Z</time>
        <extensions>
          <ns3:TrackPointExtension>
            <ns3:atemp>27.0</ns3:atemp>
          </ns3:TrackPointExtension>
        </extensions>
      </trkpt>
      <trkpt lat="43.1284717284142971038818359375" lon="13.0644887499511241912841796875">
        <ele>489</ele>
        <time>2021-06-04T09:30:25.000Z</time>
        <extensions>
          <ns3:TrackPointExtension>
            <ns3:atemp>27.0</ns3:atemp>
          </ns3:TrackPointExtension>
        </extensions>
      </trkpt>
      <trkpt lat="43.128446079790592193603515625" lon="13.0648314021527767181396484375">
        <ele>487.79998779296875</ele>
        <time>2021-06-04T09:30:29.000Z</time>
        <extensions>
          <ns3:TrackPointExtension>
            <ns3:atemp>27.0</ns3:atemp>
          </ns3:TrackPointExtension>
        </extensions>
      </trkpt>
      <trkpt lat="43.128404505550861358642578125" lon="13.06499116122722625732421875">
        <ele>487</ele>
        <time>2021-06-04T09:30:31.000Z</time>
        <extensions>
          <ns3:TrackPointExtension>
            <ns3:atemp>27.0</ns3:atemp>
          </ns3:TrackPointExtension>
        </extensions>
      </trkpt>
      <trkpt lat="43.12837977893650531768798828125" lon="13.0650697834789752960205078125">
        <ele>486.399993896484375</ele>
        <time>2021-06-04T09:30:32.000Z</time>
        <extensions>
          <ns3:TrackPointExtension>
            <ns3:atemp>27.0</ns3:atemp>
          </ns3:TrackPointExtension>
        </extensions>
      </trkpt>
      <trkpt lat="43.12833233736455440521240234375" lon="13.0652313865721225738525390625">
        <ele>485</ele>
        <time>2021-06-04T09:30:34.000Z</time>
        <extensions>
          <ns3:TrackPointExtension>
            <ns3:atemp>27.0</ns3:atemp>
          </ns3:TrackPointExtension>
        </extensions>
      </trkpt>
      <trkpt lat="43.12831540592014789581298828125" lon="13.06540564633905887603759765625">
        <ele>484.399993896484375</ele>
        <time>2021-06-04T09:30:36.000Z</time>
        <extensions>
          <ns3:TrackPointExtension>
            <ns3:atemp>27.0</ns3:atemp>
          </ns3:TrackPointExtension>
        </extensions>
      </trkpt>
      <trkpt lat="43.128325380384922027587890625" lon="13.065495081245899200439453125">
        <ele>483.79998779296875</ele>
        <time>2021-06-04T09:30:37.000Z</time>
        <extensions>
          <ns3:TrackPointExtension>
            <ns3:atemp>27.0</ns3:atemp>
          </ns3:TrackPointExtension>
        </extensions>
      </trkpt>
      <trkpt lat="43.1283842213451862335205078125" lon="13.06567118503153324127197265625">
        <ele>483.20001220703125</ele>
        <time>2021-06-04T09:30:39.000Z</time>
        <extensions>
          <ns3:TrackPointExtension>
            <ns3:atemp>27.0</ns3:atemp>
          </ns3:TrackPointExtension>
        </extensions>
      </trkpt>
      <trkpt lat="43.1284214369952678680419921875" lon="13.06575600989162921905517578125">
        <ele>483</ele>
        <time>2021-06-04T09:30:40.000Z</time>
        <extensions>
          <ns3:TrackPointExtension>
            <ns3:atemp>27.0</ns3:atemp>
          </ns3:TrackPointExtension>
        </extensions>
      </trkpt>
      <trkpt lat="43.12845521606504917144775390625" lon="13.0658422596752643585205078125">
        <ele>482.600006103515625</ele>
        <time>2021-06-04T09:30:41.000Z</time>
        <extensions>
          <ns3:TrackPointExtension>
            <ns3:atemp>27.0</ns3:atemp>
          </ns3:TrackPointExtension>
        </extensions>
      </trkpt>
      <trkpt lat="43.12857323326170444488525390625" lon="13.0661037750542163848876953125">
        <ele>481.20001220703125</ele>
        <time>2021-06-04T09:30:44.000Z</time>
        <extensions>
          <ns3:TrackPointExtension>
            <ns3:atemp>27.0</ns3:atemp>
          </ns3:TrackPointExtension>
        </extensions>
      </trkpt>
      <trkpt lat="43.12861748971045017242431640625" lon="13.06619144976139068603515625">
        <ele>480.600006103515625</ele>
        <time>2021-06-04T09:30:45.000Z</time>
        <extensions>
          <ns3:TrackPointExtension>
            <ns3:atemp>27.0</ns3:atemp>
          </ns3:TrackPointExtension>
        </extensions>
      </trkpt>
      <trkpt lat="43.12866308726370334625244140625" lon="13.06628239341080188751220703125">
        <ele>479.399993896484375</ele>
        <time>2021-06-04T09:30:46.000Z</time>
        <extensions>
          <ns3:TrackPointExtension>
            <ns3:atemp>27.0</ns3:atemp>
          </ns3:TrackPointExtension>
        </extensions>
      </trkpt>
      <trkpt lat="43.1288103573024272918701171875" lon="13.06656352244317531585693359375">
        <ele>478.20001220703125</ele>
        <time>2021-06-04T09:30:49.000Z</time>
        <extensions>
          <ns3:TrackPointExtension>
            <ns3:atemp>27.0</ns3:atemp>
          </ns3:TrackPointExtension>
        </extensions>
      </trkpt>
      <trkpt lat="43.12890247441828250885009765625" lon="13.066770471632480621337890625">
        <ele>477.20001220703125</ele>
        <time>2021-06-04T09:30:51.000Z</time>
        <extensions>
          <ns3:TrackPointExtension>
            <ns3:atemp>27.0</ns3:atemp>
          </ns3:TrackPointExtension>
        </extensions>
      </trkpt>
      <trkpt lat="43.128945641219615936279296875" lon="13.0668841302394866943359375">
        <ele>476.79998779296875</ele>
        <time>2021-06-04T09:30:52.000Z</time>
        <extensions>
          <ns3:TrackPointExtension>
            <ns3:atemp>27.0</ns3:atemp>
          </ns3:TrackPointExtension>
        </extensions>
      </trkpt>
      <trkpt lat="43.12904429621994495391845703125" lon="13.06723742745816707611083984375">
        <ele>475.79998779296875</ele>
        <time>2021-06-04T09:30:55.000Z</time>
        <extensions>
          <ns3:TrackPointExtension>
            <ns3:atemp>27.0</ns3:atemp>
          </ns3:TrackPointExtension>
        </extensions>
      </trkpt>
      <trkpt lat="43.12906734645366668701171875" lon="13.06734991259872913360595703125">
        <ele>475</ele>
        <time>2021-06-04T09:30:56.000Z</time>
        <extensions>
          <ns3:TrackPointExtension>
            <ns3:atemp>27.0</ns3:atemp>
          </ns3:TrackPointExtension>
        </extensions>
      </trkpt>
      <trkpt lat="43.1290876306593418121337890625" lon="13.067456446588039398193359375">
        <ele>474</ele>
        <time>2021-06-04T09:30:57.000Z</time>
        <extensions>
          <ns3:TrackPointExtension>
            <ns3:atemp>27.0</ns3:atemp>
          </ns3:TrackPointExtension>
        </extensions>
      </trkpt>
      <trkpt lat="43.129095844924449920654296875" lon="13.0675488151609897613525390625">
        <ele>472.79998779296875</ele>
        <time>2021-06-04T09:30:58.000Z</time>
        <extensions>
          <ns3:TrackPointExtension>
            <ns3:atemp>27.0</ns3:atemp>
          </ns3:TrackPointExtension>
        </extensions>
      </trkpt>
      <trkpt lat="43.12908570282161235809326171875" lon="13.06762752123177051544189453125">
        <ele>471.600006103515625</ele>
        <time>2021-06-04T09:30:59.000Z</time>
        <extensions>
          <ns3:TrackPointExtension>
            <ns3:atemp>27.0</ns3:atemp>
          </ns3:TrackPointExtension>
        </extensions>
      </trkpt>
      <trkpt lat="43.12904647551476955413818359375" lon="13.067698515951633453369140625">
        <ele>470.600006103515625</ele>
        <time>2021-06-04T09:31:00.000Z</time>
        <extensions>
          <ns3:TrackPointExtension>
            <ns3:atemp>27.0</ns3:atemp>
          </ns3:TrackPointExtension>
        </extensions>
      </trkpt>
      <trkpt lat="43.12898897565901279449462890625" lon="13.0677623860538005828857421875">
        <ele>469.600006103515625</ele>
        <time>2021-06-04T09:31:01.000Z</time>
        <extensions>
          <ns3:TrackPointExtension>
            <ns3:atemp>27.0</ns3:atemp>
          </ns3:TrackPointExtension>
        </extensions>
      </trkpt>
      <trkpt lat="43.12892041169106960296630859375" lon="13.06782131083309650421142578125">
        <ele>468.79998779296875</ele>
        <time>2021-06-04T09:31:02.000Z</time>
        <extensions>
          <ns3:TrackPointExtension>
            <ns3:atemp>27.0</ns3:atemp>
          </ns3:TrackPointExtension>
        </extensions>
      </trkpt>
      <trkpt lat="43.12878445722162723541259765625" lon="13.06797989644110202789306640625">
        <ele>467.600006103515625</ele>
        <time>2021-06-04T09:31:04.000Z</time>
        <extensions>
          <ns3:TrackPointExtension>
            <ns3:atemp>27.0</ns3:atemp>
          </ns3:TrackPointExtension>
        </extensions>
      </trkpt>
      <trkpt lat="43.12871891073882579803466796875" lon="13.068075366318225860595703125">
        <ele>467.399993896484375</ele>
        <time>2021-06-04T09:31:05.000Z</time>
        <extensions>
          <ns3:TrackPointExtension>
            <ns3:atemp>27.0</ns3:atemp>
          </ns3:TrackPointExtension>
        </extensions>
      </trkpt>
      <trkpt lat="43.12860122881829738616943359375" lon="13.068287260830402374267578125">
        <ele>467.20001220703125</ele>
        <time>2021-06-04T09:31:07.000Z</time>
        <extensions>
          <ns3:TrackPointExtension>
            <ns3:atemp>27.0</ns3:atemp>
          </ns3:TrackPointExtension>
        </extensions>
      </trkpt>
      <trkpt lat="43.1285545416176319122314453125" lon="13.0683937110006809234619140625">
        <ele>466.399993896484375</ele>
        <time>2021-06-04T09:31:08.000Z</time>
        <extensions>
          <ns3:TrackPointExtension>
            <ns3:atemp>27.0</ns3:atemp>
          </ns3:TrackPointExtension>
        </extensions>
      </trkpt>
      <trkpt lat="43.12850601039826869964599609375" lon="13.06848968379199504852294921875">
        <ele>464.79998779296875</ele>
        <time>2021-06-04T09:31:09.000Z</time>
        <extensions>
          <ns3:TrackPointExtension>
            <ns3:atemp>27.0</ns3:atemp>
          </ns3:TrackPointExtension>
        </extensions>
      </trkpt>
      <trkpt lat="43.1284499354660511016845703125" lon="13.06856512092053890228271484375">
        <ele>463.20001220703125</ele>
        <time>2021-06-04T09:31:10.000Z</time>
        <extensions>
          <ns3:TrackPointExtension>
            <ns3:atemp>27.0</ns3:atemp>
          </ns3:TrackPointExtension>
        </extensions>
      </trkpt>
      <trkpt lat="43.12838514335453510284423828125" lon="13.06860283948481082916259765625">
        <ele>461.600006103515625</ele>
        <time>2021-06-04T09:31:11.000Z</time>
        <extensions>
          <ns3:TrackPointExtension>
            <ns3:atemp>27.0</ns3:atemp>
          </ns3:TrackPointExtension>
        </extensions>
      </trkpt>
      <trkpt lat="43.12832512892782688140869140625" lon="13.068605102598667144775390625">
        <ele>460.600006103515625</ele>
        <time>2021-06-04T09:31:12.000Z</time>
        <extensions>
          <ns3:TrackPointExtension>
            <ns3:atemp>27.0</ns3:atemp>
          </ns3:TrackPointExtension>
        </extensions>
      </trkpt>
      <trkpt lat="43.1282444112002849578857421875" lon="13.06852069683372974395751953125">
        <ele>458.600006103515625</ele>
        <time>2021-06-04T09:31:14.000Z</time>
        <extensions>
          <ns3:TrackPointExtension>
            <ns3:atemp>27.0</ns3:atemp>
          </ns3:TrackPointExtension>
        </extensions>
      </trkpt>
      <trkpt lat="43.12821582891047000885009765625" lon="13.06846671737730503082275390625">
        <ele>457.79998779296875</ele>
        <time>2021-06-04T09:31:15.000Z</time>
        <extensions>
          <ns3:TrackPointExtension>
            <ns3:atemp>27.0</ns3:atemp>
          </ns3:TrackPointExtension>
        </extensions>
      </trkpt>
      <trkpt lat="43.128187246620655059814453125" lon="13.0684151686728000640869140625">
        <ele>457.600006103515625</ele>
        <time>2021-06-04T09:31:16.000Z</time>
        <extensions>
          <ns3:TrackPointExtension>
            <ns3:atemp>27.0</ns3:atemp>
          </ns3:TrackPointExtension>
        </extensions>
      </trkpt>
      <trkpt lat="43.12806445173919200897216796875" lon="13.06825029663741588592529296875">
        <ele>457.399993896484375</ele>
        <time>2021-06-04T09:31:20.000Z</time>
        <extensions>
          <ns3:TrackPointExtension>
            <ns3:atemp>27.0</ns3:atemp>
          </ns3:TrackPointExtension>
        </extensions>
      </trkpt>
      <trkpt lat="43.12801583670079708099365234375" lon="13.0681851692497730255126953125">
        <ele>458</ele>
        <time>2021-06-04T09:31:24.000Z</time>
        <extensions>
          <ns3:TrackPointExtension>
            <ns3:atemp>27.0</ns3:atemp>
          </ns3:TrackPointExtension>
        </extensions>
      </trkpt>
      <trkpt lat="43.12801449559628963470458984375" lon="13.0681784637272357940673828125">
        <ele>458.79998779296875</ele>
        <time>2021-06-04T09:31:26.000Z</time>
        <extensions>
          <ns3:TrackPointExtension>
            <ns3:atemp>27.0</ns3:atemp>
          </ns3:TrackPointExtension>
        </extensions>
      </trkpt>
      <trkpt lat="43.1280127353966236114501953125" lon="13.06817351840436458587646484375">
        <ele>460</ele>
        <time>2021-06-04T09:31:31.000Z</time>
        <extensions>
          <ns3:TrackPointExtension>
            <ns3:atemp>27.0</ns3:atemp>
          </ns3:TrackPointExtension>
        </extensions>
      </trkpt>
      <trkpt lat="43.12801097519695758819580078125" lon="13.0681727640330791473388671875">
        <ele>460.399993896484375</ele>
        <time>2021-06-04T09:31:34.000Z</time>
        <extensions>
          <ns3:TrackPointExtension>
            <ns3:atemp>27.0</ns3:atemp>
          </ns3:TrackPointExtension>
        </extensions>
      </trkpt>
    </trkseg>
  </trk>
</gpx>
